<?xml version="1.0" encoding="UTF-8" standalone="no" ?>
<gpx xmlns="http://www.topografix.com/GPX/1/1" xmlns:xsi="http://www.w3.org/2001/XMLSchema-instance" xsi:schemaLocation="http://www.topografix.com/GPX/1/1 http://www.topografix.com/GPX/1/1/gpx.xsd" version="1.1" creator="VisuGPX - https://www.visugpx.com">
  <metadata>
    <name>Cautrunes Girgol Tournemir St Cernin Freixanglard Breisse Cautrunes </name>
    <desc><![CDATA[Technique et magnifique ]]></desc>
  </metadata>
  <trk>
    <name><![CDATA[Cautrunes Girgol Tournemir St Cernin Freixanglard Breisse Cautrunes _1]]></name>
    <trkseg>
      <trkpt lat="45.00691" lon="2.426">
        <ele>682.55</ele>
        <time>2026-08-21T07:03:03.047Z</time>
      </trkpt>
      <trkpt lat="45.00694" lon="2.42599">
        <ele>682.63</ele>
        <time>2026-08-21T07:03:04.034Z</time>
      </trkpt>
      <trkpt lat="45.00696" lon="2.42598">
        <ele>682.73</ele>
        <time>2026-08-21T07:03:04.597Z</time>
      </trkpt>
      <trkpt lat="45.00699" lon="2.42596">
        <ele>682.84</ele>
        <time>2026-08-21T07:03:06.024Z</time>
      </trkpt>
      <trkpt lat="45.00702" lon="2.42594">
        <ele>682.97</ele>
        <time>2026-08-21T07:03:07.044Z</time>
      </trkpt>
      <trkpt lat="45.00705" lon="2.42592">
        <ele>683.15</ele>
        <time>2026-08-21T07:03:07.073Z</time>
      </trkpt>
      <trkpt lat="45.00708" lon="2.4259">
        <ele>683.3</ele>
        <time>2026-08-21T07:03:08.096Z</time>
      </trkpt>
      <trkpt lat="45.00711" lon="2.42589">
        <ele>683.44</ele>
        <time>2026-08-21T07:03:10.060Z</time>
      </trkpt>
      <trkpt lat="45.00714" lon="2.42586">
        <ele>683.72</ele>
        <time>2026-08-21T07:03:11.051Z</time>
      </trkpt>
      <trkpt lat="45.00717" lon="2.42584">
        <ele>683.95</ele>
        <time>2026-08-21T07:03:12.055Z</time>
      </trkpt>
      <trkpt lat="45.0072" lon="2.42582">
        <ele>684.17</ele>
        <time>2026-08-21T07:03:12.747Z</time>
      </trkpt>
      <trkpt lat="45.00723" lon="2.4258">
        <ele>684.33</ele>
        <time>2026-08-21T07:03:14.060Z</time>
      </trkpt>
      <trkpt lat="45.00726" lon="2.42578">
        <ele>684.57</ele>
        <time>2026-08-21T07:03:14.132Z</time>
      </trkpt>
      <trkpt lat="45.00728" lon="2.42577">
        <ele>684.75</ele>
        <time>2026-08-21T07:03:15.082Z</time>
      </trkpt>
      <trkpt lat="45.00731" lon="2.42575">
        <ele>684.98</ele>
        <time>2026-08-21T07:03:16.999Z</time>
      </trkpt>
      <trkpt lat="45.00734" lon="2.42574">
        <ele>685.13</ele>
        <time>2026-08-21T07:03:17.084Z</time>
      </trkpt>
      <trkpt lat="45.00737" lon="2.42572">
        <ele>685.25</ele>
        <time>2026-08-21T07:03:18.092Z</time>
      </trkpt>
      <trkpt lat="45.0074" lon="2.42571">
        <ele>685.46</ele>
        <time>2026-08-21T07:03:19.657Z</time>
      </trkpt>
      <trkpt lat="45.00742" lon="2.4257">
        <ele>685.62</ele>
        <time>2026-08-21T07:03:20.980Z</time>
      </trkpt>
      <trkpt lat="45.00745" lon="2.42568">
        <ele>685.79</ele>
        <time>2026-08-21T07:03:21.982Z</time>
      </trkpt>
      <trkpt lat="45.00748" lon="2.42567">
        <ele>685.98</ele>
        <time>2026-08-21T07:03:22.987Z</time>
      </trkpt>
      <trkpt lat="45.00751" lon="2.42566">
        <ele>686.15</ele>
        <time>2026-08-21T07:03:23.990Z</time>
      </trkpt>
      <trkpt lat="45.00754" lon="2.42564">
        <ele>686.39</ele>
        <time>2026-08-21T07:03:24.992Z</time>
      </trkpt>
      <trkpt lat="45.00757" lon="2.42563">
        <ele>686.57</ele>
        <time>2026-08-21T07:03:25.995Z</time>
      </trkpt>
      <trkpt lat="45.0076" lon="2.42562">
        <ele>686.68</ele>
        <time>2026-08-21T07:03:26.998Z</time>
      </trkpt>
      <trkpt lat="45.00762" lon="2.42561">
        <ele>686.9</ele>
        <time>2026-08-21T07:03:28Z</time>
      </trkpt>
      <trkpt lat="45.00765" lon="2.4256">
        <ele>687.08</ele>
        <time>2026-08-21T07:03:29.002Z</time>
      </trkpt>
      <trkpt lat="45.00768" lon="2.4256">
        <ele>687.22</ele>
        <time>2026-08-21T07:03:30.004Z</time>
      </trkpt>
      <trkpt lat="45.00771" lon="2.4256">
        <ele>687.33</ele>
        <time>2026-08-21T07:03:31.006Z</time>
      </trkpt>
      <trkpt lat="45.00774" lon="2.4256">
        <ele>687.44</ele>
        <time>2026-08-21T07:03:32.021Z</time>
      </trkpt>
      <trkpt lat="45.00777" lon="2.4256">
        <ele>687.57</ele>
        <time>2026-08-21T07:03:33.012Z</time>
      </trkpt>
      <trkpt lat="45.00781" lon="2.42559">
        <ele>687.71</ele>
        <time>2026-08-21T07:03:34.015Z</time>
      </trkpt>
      <trkpt lat="45.00784" lon="2.42559">
        <ele>687.74</ele>
        <time>2026-08-21T07:03:35.022Z</time>
      </trkpt>
      <trkpt lat="45.00787" lon="2.42558">
        <ele>687.74</ele>
        <time>2026-08-21T07:03:36.018Z</time>
      </trkpt>
      <trkpt lat="45.0079" lon="2.42556">
        <ele>687.78</ele>
        <time>2026-08-21T07:03:37.022Z</time>
      </trkpt>
      <trkpt lat="45.00793" lon="2.42555">
        <ele>687.8</ele>
        <time>2026-08-21T07:03:38.022Z</time>
      </trkpt>
      <trkpt lat="45.00796" lon="2.42552">
        <ele>687.85</ele>
        <time>2026-08-21T07:03:39.024Z</time>
      </trkpt>
      <trkpt lat="45.00799" lon="2.42549">
        <ele>687.86</ele>
        <time>2026-08-21T07:03:40.026Z</time>
      </trkpt>
      <trkpt lat="45.00801" lon="2.42547">
        <ele>687.88</ele>
        <time>2026-08-21T07:03:41.028Z</time>
      </trkpt>
      <trkpt lat="45.00803" lon="2.42543">
        <ele>687.89</ele>
        <time>2026-08-21T07:03:42.032Z</time>
      </trkpt>
      <trkpt lat="45.00805" lon="2.4254">
        <ele>687.9</ele>
        <time>2026-08-21T07:03:43.031Z</time>
      </trkpt>
      <trkpt lat="45.00808" lon="2.42537">
        <ele>687.91</ele>
        <time>2026-08-21T07:03:44.034Z</time>
      </trkpt>
      <trkpt lat="45.0081" lon="2.42533">
        <ele>687.87</ele>
        <time>2026-08-21T07:03:44.680Z</time>
      </trkpt>
      <trkpt lat="45.00811" lon="2.42531">
        <ele>687.91</ele>
        <time>2026-08-21T07:03:46.037Z</time>
      </trkpt>
      <trkpt lat="45.00814" lon="2.42527">
        <ele>687.92</ele>
        <time>2026-08-21T07:03:47.040Z</time>
      </trkpt>
      <trkpt lat="45.00816" lon="2.42524">
        <ele>687.9</ele>
        <time>2026-08-21T07:03:47.699Z</time>
      </trkpt>
      <trkpt lat="45.00818" lon="2.42521">
        <ele>687.88</ele>
        <time>2026-08-21T07:03:49.042Z</time>
      </trkpt>
      <trkpt lat="45.00821" lon="2.42518">
        <ele>687.86</ele>
        <time>2026-08-21T07:03:50.044Z</time>
      </trkpt>
      <trkpt lat="45.00823" lon="2.42516">
        <ele>687.85</ele>
        <time>2026-08-21T07:03:50.973Z</time>
      </trkpt>
      <trkpt lat="45.00826" lon="2.42514">
        <ele>687.86</ele>
        <time>2026-08-21T07:03:51.649Z</time>
      </trkpt>
      <trkpt lat="45.00828" lon="2.42512">
        <ele>687.89</ele>
        <time>2026-08-21T07:03:52.745Z</time>
      </trkpt>
      <trkpt lat="45.00831" lon="2.4251">
        <ele>687.95</ele>
        <time>2026-08-21T07:03:54.051Z</time>
      </trkpt>
      <trkpt lat="45.00834" lon="2.42508">
        <ele>687.95</ele>
        <time>2026-08-21T07:03:55.051Z</time>
      </trkpt>
      <trkpt lat="45.00836" lon="2.42506">
        <ele>688.12</ele>
        <time>2026-08-21T07:03:56.055Z</time>
      </trkpt>
      <trkpt lat="45.00839" lon="2.42503">
        <ele>688.23</ele>
        <time>2026-08-21T07:03:57.058Z</time>
      </trkpt>
      <trkpt lat="45.00841" lon="2.425">
        <ele>688.31</ele>
        <time>2026-08-21T07:03:58.057Z</time>
      </trkpt>
      <trkpt lat="45.00843" lon="2.42498">
        <ele>688.47</ele>
        <time>2026-08-21T07:03:59.060Z</time>
      </trkpt>
      <trkpt lat="45.00846" lon="2.42495">
        <ele>688.57</ele>
        <time>2026-08-21T07:04:00.060Z</time>
      </trkpt>
      <trkpt lat="45.00848" lon="2.42492">
        <ele>688.64</ele>
        <time>2026-08-21T07:04:01.062Z</time>
      </trkpt>
      <trkpt lat="45.0085" lon="2.4249">
        <ele>688.71</ele>
        <time>2026-08-21T07:04:02.065Z</time>
      </trkpt>
      <trkpt lat="45.00852" lon="2.42488">
        <ele>688.76</ele>
        <time>2026-08-21T07:04:03.066Z</time>
      </trkpt>
      <trkpt lat="45.00854" lon="2.42486">
        <ele>688.79</ele>
        <time>2026-08-21T07:04:04.068Z</time>
      </trkpt>
      <trkpt lat="45.00856" lon="2.42484">
        <ele>688.8</ele>
        <time>2026-08-21T07:04:04.978Z</time>
      </trkpt>
      <trkpt lat="45.00858" lon="2.42481">
        <ele>688.87</ele>
        <time>2026-08-21T07:04:05.658Z</time>
      </trkpt>
      <trkpt lat="45.0086" lon="2.42478">
        <ele>688.89</ele>
        <time>2026-08-21T07:04:06.770Z</time>
      </trkpt>
      <trkpt lat="45.00862" lon="2.42475">
        <ele>688.91</ele>
        <time>2026-08-21T07:04:08.075Z</time>
      </trkpt>
      <trkpt lat="45.00864" lon="2.42472">
        <ele>688.91</ele>
        <time>2026-08-21T07:04:09.076Z</time>
      </trkpt>
      <trkpt lat="45.00867" lon="2.4247">
        <ele>688.95</ele>
        <time>2026-08-21T07:04:10.078Z</time>
      </trkpt>
      <trkpt lat="45.00869" lon="2.42467">
        <ele>688.99</ele>
        <time>2026-08-21T07:04:11.082Z</time>
      </trkpt>
      <trkpt lat="45.00872" lon="2.42463">
        <ele>689</ele>
        <time>2026-08-21T07:04:12.083Z</time>
      </trkpt>
      <trkpt lat="45.00875" lon="2.4246">
        <ele>689.02</ele>
        <time>2026-08-21T07:04:13.085Z</time>
      </trkpt>
      <trkpt lat="45.00877" lon="2.42457">
        <ele>688.95</ele>
        <time>2026-08-21T07:04:14.088Z</time>
      </trkpt>
      <trkpt lat="45.0088" lon="2.42454">
        <ele>688.93</ele>
        <time>2026-08-21T07:04:14.733Z</time>
      </trkpt>
      <trkpt lat="45.00883" lon="2.42451">
        <ele>688.89</ele>
        <time>2026-08-21T07:04:16.092Z</time>
      </trkpt>
      <trkpt lat="45.00886" lon="2.42447">
        <ele>688.82</ele>
        <time>2026-08-21T07:04:17.095Z</time>
      </trkpt>
      <trkpt lat="45.00888" lon="2.42445">
        <ele>688.77</ele>
        <time>2026-08-21T07:04:18.098Z</time>
      </trkpt>
      <trkpt lat="45.00891" lon="2.42442">
        <ele>688.75</ele>
        <time>2026-08-21T07:04:19.098Z</time>
      </trkpt>
      <trkpt lat="45.00894" lon="2.4244">
        <ele>688.72</ele>
        <time>2026-08-21T07:04:20.103Z</time>
      </trkpt>
      <trkpt lat="45.00897" lon="2.42437">
        <ele>688.75</ele>
        <time>2026-08-21T07:04:21.103Z</time>
      </trkpt>
      <trkpt lat="45.009" lon="2.42435">
        <ele>688.74</ele>
        <time>2026-08-21T07:04:22.107Z</time>
      </trkpt>
      <trkpt lat="45.00903" lon="2.42433">
        <ele>688.55</ele>
        <time>2026-08-21T07:04:22.966Z</time>
      </trkpt>
      <trkpt lat="45.00906" lon="2.42431">
        <ele>688.54</ele>
        <time>2026-08-21T07:04:24.111Z</time>
      </trkpt>
      <trkpt lat="45.00909" lon="2.42429">
        <ele>688.5</ele>
        <time>2026-08-21T07:04:25.054Z</time>
      </trkpt>
      <trkpt lat="45.00913" lon="2.42428">
        <ele>688.52</ele>
        <time>2026-08-21T07:04:26.116Z</time>
      </trkpt>
      <trkpt lat="45.00917" lon="2.42427">
        <ele>688.52</ele>
        <time>2026-08-21T07:04:27.118Z</time>
      </trkpt>
      <trkpt lat="45.00919" lon="2.42426">
        <ele>688.5</ele>
        <time>2026-08-21T07:04:27.929Z</time>
      </trkpt>
      <trkpt lat="45.00923" lon="2.42426">
        <ele>688.49</ele>
        <time>2026-08-21T07:04:28.956Z</time>
      </trkpt>
      <trkpt lat="45.00927" lon="2.42426">
        <ele>688.48</ele>
        <time>2026-08-21T07:04:29.957Z</time>
      </trkpt>
      <trkpt lat="45.00931" lon="2.42427">
        <ele>688.45</ele>
        <time>2026-08-21T07:04:31.124Z</time>
      </trkpt>
      <trkpt lat="45.00934" lon="2.42428">
        <ele>688.41</ele>
        <time>2026-08-21T07:04:32.126Z</time>
      </trkpt>
      <trkpt lat="45.00938" lon="2.4243">
        <ele>688.43</ele>
        <time>2026-08-21T07:04:33.127Z</time>
      </trkpt>
      <trkpt lat="45.00941" lon="2.42433">
        <ele>688.39</ele>
        <time>2026-08-21T07:04:33.228Z</time>
      </trkpt>
      <trkpt lat="45.00944" lon="2.42437">
        <ele>688.44</ele>
        <time>2026-08-21T07:04:35.134Z</time>
      </trkpt>
      <trkpt lat="45.00946" lon="2.4244">
        <ele>688.49</ele>
        <time>2026-08-21T07:04:36.132Z</time>
      </trkpt>
      <trkpt lat="45.00949" lon="2.42444">
        <ele>688.6</ele>
        <time>2026-08-21T07:04:36.997Z</time>
      </trkpt>
      <trkpt lat="45.00951" lon="2.42448">
        <ele>688.63</ele>
        <time>2026-08-21T07:04:38.137Z</time>
      </trkpt>
      <trkpt lat="45.00953" lon="2.42451">
        <ele>688.69</ele>
        <time>2026-08-21T07:04:38.824Z</time>
      </trkpt>
      <trkpt lat="45.00955" lon="2.42454">
        <ele>688.76</ele>
        <time>2026-08-21T07:04:40.137Z</time>
      </trkpt>
      <trkpt lat="45.00958" lon="2.42458">
        <ele>688.79</ele>
        <time>2026-08-21T07:04:41.139Z</time>
      </trkpt>
      <trkpt lat="45.00959" lon="2.42461">
        <ele>688.91</ele>
        <time>2026-08-21T07:04:41.225Z</time>
      </trkpt>
      <trkpt lat="45.00962" lon="2.42464">
        <ele>688.99</ele>
        <time>2026-08-21T07:04:42.228Z</time>
      </trkpt>
      <trkpt lat="45.00964" lon="2.42467">
        <ele>689.16</ele>
        <time>2026-08-21T07:04:44.143Z</time>
      </trkpt>
      <trkpt lat="45.00966" lon="2.4247">
        <ele>689.26</ele>
        <time>2026-08-21T07:04:44.214Z</time>
      </trkpt>
      <trkpt lat="45.00967" lon="2.42472">
        <ele>689.37</ele>
        <time>2026-08-21T07:04:45.230Z</time>
      </trkpt>
      <trkpt lat="45.00969" lon="2.42475">
        <ele>689.49</ele>
        <time>2026-08-21T07:04:47.149Z</time>
      </trkpt>
      <trkpt lat="45.00971" lon="2.42478">
        <ele>689.58</ele>
        <time>2026-08-21T07:04:47.237Z</time>
      </trkpt>
      <trkpt lat="45.00973" lon="2.4248">
        <ele>689.74</ele>
        <time>2026-08-21T07:04:48.242Z</time>
      </trkpt>
      <trkpt lat="45.00975" lon="2.42483">
        <ele>689.9</ele>
        <time>2026-08-21T07:04:49.227Z</time>
      </trkpt>
      <trkpt lat="45.00976" lon="2.42486">
        <ele>690.08</ele>
        <time>2026-08-21T07:04:50.242Z</time>
      </trkpt>
      <trkpt lat="45.00978" lon="2.42489">
        <ele>690.24</ele>
        <time>2026-08-21T07:04:51.246Z</time>
      </trkpt>
      <trkpt lat="45.0098" lon="2.42492">
        <ele>690.43</ele>
        <time>2026-08-21T07:04:52.238Z</time>
      </trkpt>
      <trkpt lat="45.00981" lon="2.42495">
        <ele>690.57</ele>
        <time>2026-08-21T07:04:54.056Z</time>
      </trkpt>
      <trkpt lat="45.00982" lon="2.42499">
        <ele>690.81</ele>
        <time>2026-08-21T07:04:55.156Z</time>
      </trkpt>
      <trkpt lat="45.00983" lon="2.42503">
        <ele>691.02</ele>
        <time>2026-08-21T07:04:55.228Z</time>
      </trkpt>
      <trkpt lat="45.00984" lon="2.42506">
        <ele>691.2</ele>
        <time>2026-08-21T07:04:56.226Z</time>
      </trkpt>
      <trkpt lat="45.00987" lon="2.42514">
        <ele>691.3</ele>
        <time>2026-08-21T07:04:58.216Z</time>
      </trkpt>
      <trkpt lat="45.00987" lon="2.42517">
        <ele>691.47</ele>
        <time>2026-08-21T07:05:00.228Z</time>
      </trkpt>
      <trkpt lat="45.0099" lon="2.42524">
        <ele>691.58</ele>
        <time>2026-08-21T07:05:01.209Z</time>
      </trkpt>
      <trkpt lat="45.00991" lon="2.42527">
        <ele>691.79</ele>
        <time>2026-08-21T07:05:02.243Z</time>
      </trkpt>
      <trkpt lat="45.00992" lon="2.42531">
        <ele>691.9</ele>
        <time>2026-08-21T07:05:03.246Z</time>
      </trkpt>
      <trkpt lat="45.00994" lon="2.42533">
        <ele>692.02</ele>
        <time>2026-08-21T07:05:04.247Z</time>
      </trkpt>
      <trkpt lat="45.00996" lon="2.42539">
        <ele>692.09</ele>
        <time>2026-08-21T07:05:06.234Z</time>
      </trkpt>
      <trkpt lat="45.01" lon="2.42545">
        <ele>692.36</ele>
        <time>2026-08-21T07:05:08.223Z</time>
      </trkpt>
      <trkpt lat="45.01001" lon="2.42547">
        <ele>692.66</ele>
        <time>2026-08-21T07:05:09.171Z</time>
      </trkpt>
      <trkpt lat="45.01003" lon="2.42549">
        <ele>692.78</ele>
        <time>2026-08-21T07:05:09.937Z</time>
      </trkpt>
      <trkpt lat="45.01005" lon="2.42551">
        <ele>692.94</ele>
        <time>2026-08-21T07:05:11.174Z</time>
      </trkpt>
      <trkpt lat="45.01008" lon="2.42552">
        <ele>693.13</ele>
        <time>2026-08-21T07:05:11.256Z</time>
      </trkpt>
      <trkpt lat="45.0101" lon="2.42553">
        <ele>693.32</ele>
        <time>2026-08-21T07:05:13.177Z</time>
      </trkpt>
      <trkpt lat="45.01013" lon="2.42553">
        <ele>693.52</ele>
        <time>2026-08-21T07:05:13.262Z</time>
      </trkpt>
      <trkpt lat="45.01016" lon="2.42553">
        <ele>693.72</ele>
        <time>2026-08-21T07:05:15.175Z</time>
      </trkpt>
      <trkpt lat="45.01022" lon="2.42552">
        <ele>693.98</ele>
        <time>2026-08-21T07:05:17.214Z</time>
      </trkpt>
      <trkpt lat="45.01025" lon="2.42552">
        <ele>694.51</ele>
        <time>2026-08-21T07:05:18.176Z</time>
      </trkpt>
      <trkpt lat="45.01028" lon="2.42553">
        <ele>694.76</ele>
        <time>2026-08-21T07:05:19.179Z</time>
      </trkpt>
      <trkpt lat="45.01031" lon="2.42553">
        <ele>695.01</ele>
        <time>2026-08-21T07:05:20.179Z</time>
      </trkpt>
      <trkpt lat="45.01033" lon="2.42555">
        <ele>695.3</ele>
        <time>2026-08-21T07:05:21.181Z</time>
      </trkpt>
      <trkpt lat="45.01035" lon="2.42557">
        <ele>695.51</ele>
        <time>2026-08-21T07:05:22.180Z</time>
      </trkpt>
      <trkpt lat="45.01037" lon="2.4256">
        <ele>695.59</ele>
        <time>2026-08-21T07:05:23.181Z</time>
      </trkpt>
      <trkpt lat="45.01038" lon="2.42563">
        <ele>696.03</ele>
        <time>2026-08-21T07:05:24.185Z</time>
      </trkpt>
      <trkpt lat="45.01041" lon="2.42567">
        <ele>696.5</ele>
        <time>2026-08-21T07:05:24.882Z</time>
      </trkpt>
      <trkpt lat="45.01044" lon="2.4257">
        <ele>696.94</ele>
        <time>2026-08-21T07:05:26.184Z</time>
      </trkpt>
      <trkpt lat="45.01048" lon="2.42574">
        <ele>697.18</ele>
        <time>2026-08-21T07:05:27.184Z</time>
      </trkpt>
      <trkpt lat="45.0105" lon="2.42577">
        <ele>697.44</ele>
        <time>2026-08-21T07:05:28.186Z</time>
      </trkpt>
      <trkpt lat="45.01053" lon="2.4258">
        <ele>697.75</ele>
        <time>2026-08-21T07:05:29.185Z</time>
      </trkpt>
      <trkpt lat="45.01054" lon="2.42582">
        <ele>698.02</ele>
        <time>2026-08-21T07:05:30.186Z</time>
      </trkpt>
      <trkpt lat="45.01056" lon="2.42585">
        <ele>698.26</ele>
        <time>2026-08-21T07:05:31.189Z</time>
      </trkpt>
      <trkpt lat="45.01057" lon="2.42588">
        <ele>698.5</ele>
        <time>2026-08-21T07:05:32.190Z</time>
      </trkpt>
      <trkpt lat="45.01058" lon="2.42592">
        <ele>698.68</ele>
        <time>2026-08-21T07:05:33.190Z</time>
      </trkpt>
      <trkpt lat="45.01059" lon="2.42595">
        <ele>698.83</ele>
        <time>2026-08-21T07:05:34.192Z</time>
      </trkpt>
      <trkpt lat="45.0106" lon="2.42599">
        <ele>698.98</ele>
        <time>2026-08-21T07:05:35.191Z</time>
      </trkpt>
      <trkpt lat="45.01061" lon="2.42602">
        <ele>699.04</ele>
        <time>2026-08-21T07:05:36.192Z</time>
      </trkpt>
      <trkpt lat="45.01061" lon="2.42605">
        <ele>699.14</ele>
        <time>2026-08-21T07:05:37.194Z</time>
      </trkpt>
      <trkpt lat="45.01061" lon="2.42609">
        <ele>699.26</ele>
        <time>2026-08-21T07:05:38.194Z</time>
      </trkpt>
      <trkpt lat="45.01062" lon="2.42613">
        <ele>699.32</ele>
        <time>2026-08-21T07:05:39.194Z</time>
      </trkpt>
      <trkpt lat="45.01062" lon="2.42617">
        <ele>699.35</ele>
        <time>2026-08-21T07:05:40.194Z</time>
      </trkpt>
      <trkpt lat="45.01062" lon="2.42622">
        <ele>699.44</ele>
        <time>2026-08-21T07:05:41.202Z</time>
      </trkpt>
      <trkpt lat="45.01062" lon="2.42626">
        <ele>699.5</ele>
        <time>2026-08-21T07:05:42.200Z</time>
      </trkpt>
      <trkpt lat="45.01062" lon="2.4263">
        <ele>699.52</ele>
        <time>2026-08-21T07:05:43.197Z</time>
      </trkpt>
      <trkpt lat="45.01061" lon="2.42634">
        <ele>699.55</ele>
        <time>2026-08-21T07:05:44.201Z</time>
      </trkpt>
      <trkpt lat="45.01061" lon="2.42638">
        <ele>699.58</ele>
        <time>2026-08-21T07:05:45.201Z</time>
      </trkpt>
      <trkpt lat="45.0106" lon="2.42643">
        <ele>699.58</ele>
        <time>2026-08-21T07:05:46.198Z</time>
      </trkpt>
      <trkpt lat="45.01059" lon="2.42646">
        <ele>699.59</ele>
        <time>2026-08-21T07:05:47.199Z</time>
      </trkpt>
      <trkpt lat="45.01057" lon="2.42651">
        <ele>699.56</ele>
        <time>2026-08-21T07:05:48.202Z</time>
      </trkpt>
      <trkpt lat="45.01056" lon="2.42654">
        <ele>699.51</ele>
        <time>2026-08-21T07:05:49.201Z</time>
      </trkpt>
      <trkpt lat="45.01056" lon="2.42659">
        <ele>699.32</ele>
        <time>2026-08-21T07:05:50.202Z</time>
      </trkpt>
      <trkpt lat="45.01055" lon="2.42663">
        <ele>699.37</ele>
        <time>2026-08-21T07:05:51.202Z</time>
      </trkpt>
      <trkpt lat="45.01054" lon="2.42667">
        <ele>699.38</ele>
        <time>2026-08-21T07:05:52.205Z</time>
      </trkpt>
      <trkpt lat="45.01053" lon="2.42672">
        <ele>699.38</ele>
        <time>2026-08-21T07:05:53.207Z</time>
      </trkpt>
      <trkpt lat="45.01052" lon="2.42677">
        <ele>699.39</ele>
        <time>2026-08-21T07:05:54.205Z</time>
      </trkpt>
      <trkpt lat="45.01052" lon="2.42681">
        <ele>699.32</ele>
        <time>2026-08-21T07:05:55.208Z</time>
      </trkpt>
      <trkpt lat="45.01051" lon="2.42685">
        <ele>699.22</ele>
        <time>2026-08-21T07:05:56.209Z</time>
      </trkpt>
      <trkpt lat="45.01051" lon="2.4269">
        <ele>699.18</ele>
        <time>2026-08-21T07:05:57.209Z</time>
      </trkpt>
      <trkpt lat="45.01051" lon="2.42695">
        <ele>699.08</ele>
        <time>2026-08-21T07:05:58.216Z</time>
      </trkpt>
      <trkpt lat="45.01051" lon="2.42699">
        <ele>698.93</ele>
        <time>2026-08-21T07:05:59.209Z</time>
      </trkpt>
      <trkpt lat="45.01051" lon="2.42704">
        <ele>698.86</ele>
        <time>2026-08-21T07:06:00.209Z</time>
      </trkpt>
      <trkpt lat="45.01051" lon="2.42708">
        <ele>698.76</ele>
        <time>2026-08-21T07:06:01.213Z</time>
      </trkpt>
      <trkpt lat="45.01053" lon="2.42712">
        <ele>698.65</ele>
        <time>2026-08-21T07:06:02.212Z</time>
      </trkpt>
      <trkpt lat="45.01054" lon="2.42716">
        <ele>698.6</ele>
        <time>2026-08-21T07:06:03.212Z</time>
      </trkpt>
      <trkpt lat="45.01056" lon="2.42719">
        <ele>698.54</ele>
        <time>2026-08-21T07:06:04.213Z</time>
      </trkpt>
      <trkpt lat="45.01057" lon="2.42722">
        <ele>698.47</ele>
        <time>2026-08-21T07:06:05.215Z</time>
      </trkpt>
      <trkpt lat="45.01059" lon="2.42725">
        <ele>698.35</ele>
        <time>2026-08-21T07:06:06.215Z</time>
      </trkpt>
      <trkpt lat="45.01062" lon="2.42727">
        <ele>698.25</ele>
        <time>2026-08-21T07:06:07.220Z</time>
      </trkpt>
      <trkpt lat="45.01065" lon="2.42729">
        <ele>698.21</ele>
        <time>2026-08-21T07:06:08.219Z</time>
      </trkpt>
      <trkpt lat="45.01068" lon="2.4273">
        <ele>698.2</ele>
        <time>2026-08-21T07:06:09.216Z</time>
      </trkpt>
      <trkpt lat="45.0107" lon="2.4273">
        <ele>698.16</ele>
        <time>2026-08-21T07:06:10.217Z</time>
      </trkpt>
      <trkpt lat="45.01074" lon="2.4273">
        <ele>698.13</ele>
        <time>2026-08-21T07:06:11.221Z</time>
      </trkpt>
      <trkpt lat="45.01077" lon="2.42729">
        <ele>698.12</ele>
        <time>2026-08-21T07:06:12.220Z</time>
      </trkpt>
      <trkpt lat="45.0108" lon="2.42729">
        <ele>698.18</ele>
        <time>2026-08-21T07:06:13.223Z</time>
      </trkpt>
      <trkpt lat="45.01082" lon="2.42728">
        <ele>698.2</ele>
        <time>2026-08-21T07:06:14.224Z</time>
      </trkpt>
      <trkpt lat="45.01085" lon="2.42727">
        <ele>698.29</ele>
        <time>2026-08-21T07:06:15.223Z</time>
      </trkpt>
      <trkpt lat="45.01088" lon="2.42727">
        <ele>698.34</ele>
        <time>2026-08-21T07:06:16.224Z</time>
      </trkpt>
      <trkpt lat="45.01091" lon="2.42726">
        <ele>698.41</ele>
        <time>2026-08-21T07:06:17.226Z</time>
      </trkpt>
      <trkpt lat="45.01094" lon="2.42725">
        <ele>698.45</ele>
        <time>2026-08-21T07:06:18.227Z</time>
      </trkpt>
      <trkpt lat="45.01097" lon="2.42723">
        <ele>698.49</ele>
        <time>2026-08-21T07:06:19.231Z</time>
      </trkpt>
      <trkpt lat="45.011" lon="2.42722">
        <ele>698.59</ele>
        <time>2026-08-21T07:06:20.231Z</time>
      </trkpt>
      <trkpt lat="45.01103" lon="2.42721">
        <ele>698.65</ele>
        <time>2026-08-21T07:06:21.231Z</time>
      </trkpt>
      <trkpt lat="45.01106" lon="2.4272">
        <ele>698.69</ele>
        <time>2026-08-21T07:06:22.232Z</time>
      </trkpt>
      <trkpt lat="45.01109" lon="2.42719">
        <ele>698.73</ele>
        <time>2026-08-21T07:06:23.233Z</time>
      </trkpt>
      <trkpt lat="45.01112" lon="2.42718">
        <ele>698.77</ele>
        <time>2026-08-21T07:06:24.233Z</time>
      </trkpt>
      <trkpt lat="45.01115" lon="2.42718">
        <ele>698.79</ele>
        <time>2026-08-21T07:06:25.235Z</time>
      </trkpt>
      <trkpt lat="45.01118" lon="2.42716">
        <ele>698.85</ele>
        <time>2026-08-21T07:06:26.237Z</time>
      </trkpt>
      <trkpt lat="45.01121" lon="2.42715">
        <ele>698.86</ele>
        <time>2026-08-21T07:06:27.237Z</time>
      </trkpt>
      <trkpt lat="45.01125" lon="2.42714">
        <ele>698.88</ele>
        <time>2026-08-21T07:06:28.237Z</time>
      </trkpt>
      <trkpt lat="45.01128" lon="2.42714">
        <ele>698.92</ele>
        <time>2026-08-21T07:06:29.237Z</time>
      </trkpt>
      <trkpt lat="45.0113" lon="2.42716">
        <ele>698.94</ele>
        <time>2026-08-21T07:06:30.238Z</time>
      </trkpt>
      <trkpt lat="45.01132" lon="2.42719">
        <ele>698.95</ele>
        <time>2026-08-21T07:06:31.243Z</time>
      </trkpt>
      <trkpt lat="45.01134" lon="2.42724">
        <ele>698.95</ele>
        <time>2026-08-21T07:06:32.241Z</time>
      </trkpt>
      <trkpt lat="45.01135" lon="2.42728">
        <ele>699.01</ele>
        <time>2026-08-21T07:06:33.241Z</time>
      </trkpt>
      <trkpt lat="45.01136" lon="2.42731">
        <ele>698.99</ele>
        <time>2026-08-21T07:06:34.242Z</time>
      </trkpt>
      <trkpt lat="45.01137" lon="2.42735">
        <ele>699.03</ele>
        <time>2026-08-21T07:06:35.244Z</time>
      </trkpt>
      <trkpt lat="45.01139" lon="2.42739">
        <ele>699.11</ele>
        <time>2026-08-21T07:06:36.244Z</time>
      </trkpt>
      <trkpt lat="45.01141" lon="2.42742">
        <ele>699.23</ele>
        <time>2026-08-21T07:06:37.246Z</time>
      </trkpt>
      <trkpt lat="45.01143" lon="2.42744">
        <ele>699.34</ele>
        <time>2026-08-21T07:06:38.247Z</time>
      </trkpt>
      <trkpt lat="45.01145" lon="2.42747">
        <ele>699.45</ele>
        <time>2026-08-21T07:06:39.246Z</time>
      </trkpt>
      <trkpt lat="45.01147" lon="2.42749">
        <ele>699.57</ele>
        <time>2026-08-21T07:06:40.247Z</time>
      </trkpt>
      <trkpt lat="45.01149" lon="2.42752">
        <ele>699.67</ele>
        <time>2026-08-21T07:06:41.248Z</time>
      </trkpt>
      <trkpt lat="45.01151" lon="2.42755">
        <ele>699.86</ele>
        <time>2026-08-21T07:06:42.248Z</time>
      </trkpt>
      <trkpt lat="45.01154" lon="2.42758">
        <ele>699.98</ele>
        <time>2026-08-21T07:06:43.248Z</time>
      </trkpt>
      <trkpt lat="45.01156" lon="2.4276">
        <ele>700.04</ele>
        <time>2026-08-21T07:06:44.249Z</time>
      </trkpt>
      <trkpt lat="45.01157" lon="2.42763">
        <ele>700.11</ele>
        <time>2026-08-21T07:06:45.249Z</time>
      </trkpt>
      <trkpt lat="45.01159" lon="2.42765">
        <ele>700.26</ele>
        <time>2026-08-21T07:06:46.250Z</time>
      </trkpt>
      <trkpt lat="45.01161" lon="2.42768">
        <ele>700.44</ele>
        <time>2026-08-21T07:06:47.250Z</time>
      </trkpt>
      <trkpt lat="45.01163" lon="2.4277">
        <ele>700.54</ele>
        <time>2026-08-21T07:06:48.250Z</time>
      </trkpt>
      <trkpt lat="45.01165" lon="2.42772">
        <ele>700.63</ele>
        <time>2026-08-21T07:06:49.251Z</time>
      </trkpt>
      <trkpt lat="45.01167" lon="2.42774">
        <ele>700.81</ele>
        <time>2026-08-21T07:06:50.253Z</time>
      </trkpt>
      <trkpt lat="45.01169" lon="2.42776">
        <ele>700.93</ele>
        <time>2026-08-21T07:06:51.253Z</time>
      </trkpt>
      <trkpt lat="45.01171" lon="2.42778">
        <ele>701.24</ele>
        <time>2026-08-21T07:06:52.254Z</time>
      </trkpt>
      <trkpt lat="45.01174" lon="2.4278">
        <ele>701.39</ele>
        <time>2026-08-21T07:06:53.257Z</time>
      </trkpt>
      <trkpt lat="45.01177" lon="2.42781">
        <ele>701.53</ele>
        <time>2026-08-21T07:06:54.255Z</time>
      </trkpt>
      <trkpt lat="45.01179" lon="2.42783">
        <ele>701.79</ele>
        <time>2026-08-21T07:06:55.256Z</time>
      </trkpt>
      <trkpt lat="45.01182" lon="2.42784">
        <ele>701.99</ele>
        <time>2026-08-21T07:06:56.348Z</time>
      </trkpt>
      <trkpt lat="45.01185" lon="2.42785">
        <ele>702.11</ele>
        <time>2026-08-21T07:06:56.860Z</time>
      </trkpt>
      <trkpt lat="45.01187" lon="2.42787">
        <ele>702.41</ele>
        <time>2026-08-21T07:06:57.870Z</time>
      </trkpt>
      <trkpt lat="45.01189" lon="2.42788">
        <ele>702.58</ele>
        <time>2026-08-21T07:06:58.857Z</time>
      </trkpt>
      <trkpt lat="45.01192" lon="2.4279">
        <ele>702.71</ele>
        <time>2026-08-21T07:07:00.360Z</time>
      </trkpt>
      <trkpt lat="45.01194" lon="2.4279">
        <ele>702.84</ele>
        <time>2026-08-21T07:07:01.352Z</time>
      </trkpt>
      <trkpt lat="45.01197" lon="2.42791">
        <ele>703.1</ele>
        <time>2026-08-21T07:07:01.893Z</time>
      </trkpt>
      <trkpt lat="45.012" lon="2.42792">
        <ele>703.16</ele>
        <time>2026-08-21T07:07:03.359Z</time>
      </trkpt>
      <trkpt lat="45.01202" lon="2.42793">
        <ele>703.16</ele>
        <time>2026-08-21T07:07:04.204Z</time>
      </trkpt>
      <trkpt lat="45.01205" lon="2.42793">
        <ele>703.35</ele>
        <time>2026-08-21T07:07:04.859Z</time>
      </trkpt>
      <trkpt lat="45.01207" lon="2.42794">
        <ele>703.53</ele>
        <time>2026-08-21T07:07:06.359Z</time>
      </trkpt>
      <trkpt lat="45.01209" lon="2.42794">
        <ele>703.6</ele>
        <time>2026-08-21T07:07:07.355Z</time>
      </trkpt>
      <trkpt lat="45.01212" lon="2.42794">
        <ele>703.61</ele>
        <time>2026-08-21T07:07:08.369Z</time>
      </trkpt>
      <trkpt lat="45.01215" lon="2.42795">
        <ele>703.69</ele>
        <time>2026-08-21T07:07:09.357Z</time>
      </trkpt>
      <trkpt lat="45.01217" lon="2.42796">
        <ele>703.75</ele>
        <time>2026-08-21T07:07:10.358Z</time>
      </trkpt>
      <trkpt lat="45.0122" lon="2.42797">
        <ele>703.85</ele>
        <time>2026-08-21T07:07:10.871Z</time>
      </trkpt>
      <trkpt lat="45.01222" lon="2.42797">
        <ele>703.96</ele>
        <time>2026-08-21T07:07:11.860Z</time>
      </trkpt>
      <trkpt lat="45.01225" lon="2.42798">
        <ele>704.03</ele>
        <time>2026-08-21T07:07:13.258Z</time>
      </trkpt>
      <trkpt lat="45.01227" lon="2.42799">
        <ele>704.12</ele>
        <time>2026-08-21T07:07:14.368Z</time>
      </trkpt>
      <trkpt lat="45.01228" lon="2.42801">
        <ele>704.18</ele>
        <time>2026-08-21T07:07:15.361Z</time>
      </trkpt>
      <trkpt lat="45.0123" lon="2.42803">
        <ele>704.25</ele>
        <time>2026-08-21T07:07:15.376Z</time>
      </trkpt>
      <trkpt lat="45.01231" lon="2.42806">
        <ele>704.41</ele>
        <time>2026-08-21T07:07:17.371Z</time>
      </trkpt>
      <trkpt lat="45.01232" lon="2.42809">
        <ele>704.56</ele>
        <time>2026-08-21T07:07:17.376Z</time>
      </trkpt>
      <trkpt lat="45.01233" lon="2.42812">
        <ele>704.72</ele>
        <time>2026-08-21T07:07:18.943Z</time>
      </trkpt>
      <trkpt lat="45.01233" lon="2.42815">
        <ele>704.8</ele>
        <time>2026-08-21T07:07:20.375Z</time>
      </trkpt>
      <trkpt lat="45.01234" lon="2.42818">
        <ele>704.86</ele>
        <time>2026-08-21T07:07:21.368Z</time>
      </trkpt>
      <trkpt lat="45.01233" lon="2.42822">
        <ele>705.11</ele>
        <time>2026-08-21T07:07:21.385Z</time>
      </trkpt>
      <trkpt lat="45.01231" lon="2.42824">
        <ele>705.22</ele>
        <time>2026-08-21T07:07:23.372Z</time>
      </trkpt>
      <trkpt lat="45.01229" lon="2.42825">
        <ele>705.3</ele>
        <time>2026-08-21T07:07:24.357Z</time>
      </trkpt>
      <trkpt lat="45.01226" lon="2.42826">
        <ele>705.3</ele>
        <time>2026-08-21T07:07:25.377Z</time>
      </trkpt>
      <trkpt lat="45.01224" lon="2.42825">
        <ele>705.42</ele>
        <time>2026-08-21T07:07:26.369Z</time>
      </trkpt>
      <trkpt lat="45.01222" lon="2.42824">
        <ele>705.44</ele>
        <time>2026-08-21T07:07:27.378Z</time>
      </trkpt>
      <trkpt lat="45.01219" lon="2.42824">
        <ele>705.55</ele>
        <time>2026-08-21T07:07:28.383Z</time>
      </trkpt>
      <trkpt lat="45.01216" lon="2.42823">
        <ele>705.74</ele>
        <time>2026-08-21T07:07:29.383Z</time>
      </trkpt>
      <trkpt lat="45.01214" lon="2.42822">
        <ele>705.83</ele>
        <time>2026-08-21T07:07:30.285Z</time>
      </trkpt>
      <trkpt lat="45.01212" lon="2.42821">
        <ele>705.92</ele>
        <time>2026-08-21T07:07:31.288Z</time>
      </trkpt>
      <trkpt lat="45.01209" lon="2.4282">
        <ele>705.97</ele>
        <time>2026-08-21T07:07:32.290Z</time>
      </trkpt>
      <trkpt lat="45.01206" lon="2.42819">
        <ele>705.95</ele>
        <time>2026-08-21T07:07:33.293Z</time>
      </trkpt>
      <trkpt lat="45.01204" lon="2.42819">
        <ele>706.16</ele>
        <time>2026-08-21T07:07:34.295Z</time>
      </trkpt>
      <trkpt lat="45.01201" lon="2.42818">
        <ele>706.28</ele>
        <time>2026-08-21T07:07:35.297Z</time>
      </trkpt>
      <trkpt lat="45.01199" lon="2.42818">
        <ele>706.41</ele>
        <time>2026-08-21T07:07:36.298Z</time>
      </trkpt>
      <trkpt lat="45.01196" lon="2.42817">
        <ele>706.52</ele>
        <time>2026-08-21T07:07:37.301Z</time>
      </trkpt>
      <trkpt lat="45.01193" lon="2.42816">
        <ele>706.74</ele>
        <time>2026-08-21T07:07:38.304Z</time>
      </trkpt>
      <trkpt lat="45.01191" lon="2.42815">
        <ele>706.9</ele>
        <time>2026-08-21T07:07:39.362Z</time>
      </trkpt>
      <trkpt lat="45.01188" lon="2.42815">
        <ele>706.92</ele>
        <time>2026-08-21T07:07:40.308Z</time>
      </trkpt>
      <trkpt lat="45.01185" lon="2.42814">
        <ele>706.98</ele>
        <time>2026-08-21T07:07:41.311Z</time>
      </trkpt>
      <trkpt lat="45.01183" lon="2.42814">
        <ele>707.08</ele>
        <time>2026-08-21T07:07:42.313Z</time>
      </trkpt>
      <trkpt lat="45.0118" lon="2.42814">
        <ele>707.11</ele>
        <time>2026-08-21T07:07:43.315Z</time>
      </trkpt>
      <trkpt lat="45.01177" lon="2.42813">
        <ele>707.11</ele>
        <time>2026-08-21T07:07:44.319Z</time>
      </trkpt>
      <trkpt lat="45.01175" lon="2.42812">
        <ele>707.2</ele>
        <time>2026-08-21T07:07:45.319Z</time>
      </trkpt>
      <trkpt lat="45.01172" lon="2.42811">
        <ele>707.28</ele>
        <time>2026-08-21T07:07:46.322Z</time>
      </trkpt>
      <trkpt lat="45.01169" lon="2.42811">
        <ele>707.52</ele>
        <time>2026-08-21T07:07:47.325Z</time>
      </trkpt>
      <trkpt lat="45.01167" lon="2.4281">
        <ele>707.64</ele>
        <time>2026-08-21T07:07:48.327Z</time>
      </trkpt>
      <trkpt lat="45.01164" lon="2.4281">
        <ele>707.72</ele>
        <time>2026-08-21T07:07:49.330Z</time>
      </trkpt>
      <trkpt lat="45.01162" lon="2.42809">
        <ele>707.75</ele>
        <time>2026-08-21T07:07:50.333Z</time>
      </trkpt>
      <trkpt lat="45.01159" lon="2.42809">
        <ele>707.96</ele>
        <time>2026-08-21T07:07:51.334Z</time>
      </trkpt>
      <trkpt lat="45.01157" lon="2.42808">
        <ele>708.08</ele>
        <time>2026-08-21T07:07:52.335Z</time>
      </trkpt>
      <trkpt lat="45.01154" lon="2.42808">
        <ele>708.24</ele>
        <time>2026-08-21T07:07:53.338Z</time>
      </trkpt>
      <trkpt lat="45.0115" lon="2.42808">
        <ele>708.33</ele>
        <time>2026-08-21T07:07:54.064Z</time>
      </trkpt>
      <trkpt lat="45.01148" lon="2.42808">
        <ele>708.41</ele>
        <time>2026-08-21T07:07:55.341Z</time>
      </trkpt>
      <trkpt lat="45.01144" lon="2.42808">
        <ele>708.6</ele>
        <time>2026-08-21T07:07:56.343Z</time>
      </trkpt>
      <trkpt lat="45.01142" lon="2.42808">
        <ele>708.39</ele>
        <time>2026-08-21T07:07:57.349Z</time>
      </trkpt>
      <trkpt lat="45.01139" lon="2.42808">
        <ele>708.65</ele>
        <time>2026-08-21T07:07:58.348Z</time>
      </trkpt>
      <trkpt lat="45.01135" lon="2.42808">
        <ele>708.87</ele>
        <time>2026-08-21T07:07:59.064Z</time>
      </trkpt>
      <trkpt lat="45.01132" lon="2.42808">
        <ele>709.07</ele>
        <time>2026-08-21T07:08:00.353Z</time>
      </trkpt>
      <trkpt lat="45.01129" lon="2.42809">
        <ele>709.23</ele>
        <time>2026-08-21T07:08:01.356Z</time>
      </trkpt>
      <trkpt lat="45.01126" lon="2.4281">
        <ele>709.3</ele>
        <time>2026-08-21T07:08:02.359Z</time>
      </trkpt>
      <trkpt lat="45.01123" lon="2.42811">
        <ele>709.41</ele>
        <time>2026-08-21T07:08:03.359Z</time>
      </trkpt>
      <trkpt lat="45.01121" lon="2.42812">
        <ele>709.54</ele>
        <time>2026-08-21T07:08:04.362Z</time>
      </trkpt>
      <trkpt lat="45.01119" lon="2.42813">
        <ele>709.66</ele>
        <time>2026-08-21T07:08:05.364Z</time>
      </trkpt>
      <trkpt lat="45.01116" lon="2.42815">
        <ele>709.81</ele>
        <time>2026-08-21T07:08:06.169Z</time>
      </trkpt>
      <trkpt lat="45.01113" lon="2.42816">
        <ele>709.98</ele>
        <time>2026-08-21T07:08:07.369Z</time>
      </trkpt>
      <trkpt lat="45.01111" lon="2.42818">
        <ele>710.06</ele>
        <time>2026-08-21T07:08:08.370Z</time>
      </trkpt>
      <trkpt lat="45.01108" lon="2.4282">
        <ele>710.22</ele>
        <time>2026-08-21T07:08:09.371Z</time>
      </trkpt>
      <trkpt lat="45.01106" lon="2.42821">
        <ele>710.43</ele>
        <time>2026-08-21T07:08:10.372Z</time>
      </trkpt>
      <trkpt lat="45.01104" lon="2.42823">
        <ele>710.54</ele>
        <time>2026-08-21T07:08:11.377Z</time>
      </trkpt>
      <trkpt lat="45.01102" lon="2.42825">
        <ele>710.72</ele>
        <time>2026-08-21T07:08:12.375Z</time>
      </trkpt>
      <trkpt lat="45.011" lon="2.42825">
        <ele>710.91</ele>
        <time>2026-08-21T07:08:13.379Z</time>
      </trkpt>
      <trkpt lat="45.01097" lon="2.42825">
        <ele>711.14</ele>
        <time>2026-08-21T07:08:14.380Z</time>
      </trkpt>
      <trkpt lat="45.01094" lon="2.42824">
        <ele>711.47</ele>
        <time>2026-08-21T07:08:14.983Z</time>
      </trkpt>
      <trkpt lat="45.01092" lon="2.42824">
        <ele>711.54</ele>
        <time>2026-08-21T07:08:15.958Z</time>
      </trkpt>
      <trkpt lat="45.01089" lon="2.42824">
        <ele>711.69</ele>
        <time>2026-08-21T07:08:17.388Z</time>
      </trkpt>
      <trkpt lat="45.01086" lon="2.42824">
        <ele>711.83</ele>
        <time>2026-08-21T07:08:18.388Z</time>
      </trkpt>
      <trkpt lat="45.01085" lon="2.42825">
        <ele>712.09</ele>
        <time>2026-08-21T07:08:19.390Z</time>
      </trkpt>
      <trkpt lat="45.01082" lon="2.42826">
        <ele>712.4</ele>
        <time>2026-08-21T07:08:20.393Z</time>
      </trkpt>
      <trkpt lat="45.0108" lon="2.42827">
        <ele>712.51</ele>
        <time>2026-08-21T07:08:21.394Z</time>
      </trkpt>
      <trkpt lat="45.01078" lon="2.42828">
        <ele>712.61</ele>
        <time>2026-08-21T07:08:22.397Z</time>
      </trkpt>
      <trkpt lat="45.01075" lon="2.4283">
        <ele>712.74</ele>
        <time>2026-08-21T07:08:23.398Z</time>
      </trkpt>
      <trkpt lat="45.01072" lon="2.42831">
        <ele>712.82</ele>
        <time>2026-08-21T07:08:24.401Z</time>
      </trkpt>
      <trkpt lat="45.0107" lon="2.42834">
        <ele>712.79</ele>
        <time>2026-08-21T07:08:25.402Z</time>
      </trkpt>
      <trkpt lat="45.01068" lon="2.42836">
        <ele>712.83</ele>
        <time>2026-08-21T07:08:26.405Z</time>
      </trkpt>
      <trkpt lat="45.01065" lon="2.42839">
        <ele>713.01</ele>
        <time>2026-08-21T07:08:27.408Z</time>
      </trkpt>
      <trkpt lat="45.01063" lon="2.42842">
        <ele>713.04</ele>
        <time>2026-08-21T07:08:28.411Z</time>
      </trkpt>
      <trkpt lat="45.01061" lon="2.42845">
        <ele>713.17</ele>
        <time>2026-08-21T07:08:29.412Z</time>
      </trkpt>
      <trkpt lat="45.01059" lon="2.42848">
        <ele>713.34</ele>
        <time>2026-08-21T07:08:30.415Z</time>
      </trkpt>
      <trkpt lat="45.01058" lon="2.42851">
        <ele>713.46</ele>
        <time>2026-08-21T07:08:31.418Z</time>
      </trkpt>
      <trkpt lat="45.01056" lon="2.42853">
        <ele>713.61</ele>
        <time>2026-08-21T07:08:32.418Z</time>
      </trkpt>
      <trkpt lat="45.01055" lon="2.42856">
        <ele>713.8</ele>
        <time>2026-08-21T07:08:33.420Z</time>
      </trkpt>
      <trkpt lat="45.01053" lon="2.42858">
        <ele>713.9</ele>
        <time>2026-08-21T07:08:34.422Z</time>
      </trkpt>
      <trkpt lat="45.01051" lon="2.42861">
        <ele>713.98</ele>
        <time>2026-08-21T07:08:35.425Z</time>
      </trkpt>
      <trkpt lat="45.01049" lon="2.42864">
        <ele>714.09</ele>
        <time>2026-08-21T07:08:36.428Z</time>
      </trkpt>
      <trkpt lat="45.01047" lon="2.42867">
        <ele>714.02</ele>
        <time>2026-08-21T07:08:37.226Z</time>
      </trkpt>
      <trkpt lat="45.01045" lon="2.4287">
        <ele>714.19</ele>
        <time>2026-08-21T07:08:38.434Z</time>
      </trkpt>
      <trkpt lat="45.01043" lon="2.42872">
        <ele>714.24</ele>
        <time>2026-08-21T07:08:39.436Z</time>
      </trkpt>
      <trkpt lat="45.01042" lon="2.42875">
        <ele>714.36</ele>
        <time>2026-08-21T07:08:40.438Z</time>
      </trkpt>
      <trkpt lat="45.0104" lon="2.42878">
        <ele>714.43</ele>
        <time>2026-08-21T07:08:41.442Z</time>
      </trkpt>
      <trkpt lat="45.01038" lon="2.42882">
        <ele>714.36</ele>
        <time>2026-08-21T07:08:42.445Z</time>
      </trkpt>
      <trkpt lat="45.01037" lon="2.42885">
        <ele>714.49</ele>
        <time>2026-08-21T07:08:43.448Z</time>
      </trkpt>
      <trkpt lat="45.01036" lon="2.42888">
        <ele>714.53</ele>
        <time>2026-08-21T07:08:44.308Z</time>
      </trkpt>
      <trkpt lat="45.01035" lon="2.42891">
        <ele>714.66</ele>
        <time>2026-08-21T07:08:45.453Z</time>
      </trkpt>
      <trkpt lat="45.01033" lon="2.42895">
        <ele>714.72</ele>
        <time>2026-08-21T07:08:46.461Z</time>
      </trkpt>
      <trkpt lat="45.01033" lon="2.42898">
        <ele>714.97</ele>
        <time>2026-08-21T07:08:47.458Z</time>
      </trkpt>
      <trkpt lat="45.01032" lon="2.42902">
        <ele>715.09</ele>
        <time>2026-08-21T07:08:48.461Z</time>
      </trkpt>
      <trkpt lat="45.01032" lon="2.42906">
        <ele>715.2</ele>
        <time>2026-08-21T07:08:49.217Z</time>
      </trkpt>
      <trkpt lat="45.01032" lon="2.42909">
        <ele>715.25</ele>
        <time>2026-08-21T07:08:50.468Z</time>
      </trkpt>
      <trkpt lat="45.01032" lon="2.42913">
        <ele>715.52</ele>
        <time>2026-08-21T07:08:51.471Z</time>
      </trkpt>
      <trkpt lat="45.01032" lon="2.42916">
        <ele>715.57</ele>
        <time>2026-08-21T07:08:52.290Z</time>
      </trkpt>
      <trkpt lat="45.01032" lon="2.4292">
        <ele>715.52</ele>
        <time>2026-08-21T07:08:53.310Z</time>
      </trkpt>
      <trkpt lat="45.01032" lon="2.42923">
        <ele>715.67</ele>
        <time>2026-08-21T07:08:54.088Z</time>
      </trkpt>
      <trkpt lat="45.01032" lon="2.42927">
        <ele>715.83</ele>
        <time>2026-08-21T07:08:55.480Z</time>
      </trkpt>
      <trkpt lat="45.01032" lon="2.4293">
        <ele>715.98</ele>
        <time>2026-08-21T07:08:56.481Z</time>
      </trkpt>
      <trkpt lat="45.01032" lon="2.42934">
        <ele>715.98</ele>
        <time>2026-08-21T07:08:57.485Z</time>
      </trkpt>
      <trkpt lat="45.01032" lon="2.42937">
        <ele>716.16</ele>
        <time>2026-08-21T07:08:58.028Z</time>
      </trkpt>
      <trkpt lat="45.01033" lon="2.4294">
        <ele>716.49</ele>
        <time>2026-08-21T07:08:59.159Z</time>
      </trkpt>
      <trkpt lat="45.01033" lon="2.42943">
        <ele>716.66</ele>
        <time>2026-08-21T07:09:00.390Z</time>
      </trkpt>
      <trkpt lat="45.01033" lon="2.42946">
        <ele>716.89</ele>
        <time>2026-08-21T07:09:01.394Z</time>
      </trkpt>
      <trkpt lat="45.01034" lon="2.4295">
        <ele>717.15</ele>
        <time>2026-08-21T07:09:02.398Z</time>
      </trkpt>
      <trkpt lat="45.01035" lon="2.42953">
        <ele>717.44</ele>
        <time>2026-08-21T07:09:03.402Z</time>
      </trkpt>
      <trkpt lat="45.01035" lon="2.42955">
        <ele>717.61</ele>
        <time>2026-08-21T07:09:04.403Z</time>
      </trkpt>
      <trkpt lat="45.01036" lon="2.42959">
        <ele>717.84</ele>
        <time>2026-08-21T07:09:05.407Z</time>
      </trkpt>
      <trkpt lat="45.01037" lon="2.42962">
        <ele>718.07</ele>
        <time>2026-08-21T07:09:06.410Z</time>
      </trkpt>
      <trkpt lat="45.01037" lon="2.42964">
        <ele>718.32</ele>
        <time>2026-08-21T07:09:06.505Z</time>
      </trkpt>
      <trkpt lat="45.01038" lon="2.42966">
        <ele>718.62</ele>
        <time>2026-08-21T07:09:08.459Z</time>
      </trkpt>
      <trkpt lat="45.0104" lon="2.42967">
        <ele>718.73</ele>
        <time>2026-08-21T07:09:08.498Z</time>
      </trkpt>
      <trkpt lat="45.01042" lon="2.42967">
        <ele>719.04</ele>
        <time>2026-08-21T07:09:10.420Z</time>
      </trkpt>
      <trkpt lat="45.01044" lon="2.42967">
        <ele>719.28</ele>
        <time>2026-08-21T07:09:10.876Z</time>
      </trkpt>
      <trkpt lat="45.01046" lon="2.42968">
        <ele>719.56</ele>
        <time>2026-08-21T07:09:12.427Z</time>
      </trkpt>
      <trkpt lat="45.01048" lon="2.42969">
        <ele>719.9</ele>
        <time>2026-08-21T07:09:12.510Z</time>
      </trkpt>
      <trkpt lat="45.0105" lon="2.42969">
        <ele>720.24</ele>
        <time>2026-08-21T07:09:14.431Z</time>
      </trkpt>
      <trkpt lat="45.01051" lon="2.42969">
        <ele>720.56</ele>
        <time>2026-08-21T07:09:15.105Z</time>
      </trkpt>
      <trkpt lat="45.01054" lon="2.42969">
        <ele>720.91</ele>
        <time>2026-08-21T07:09:16.347Z</time>
      </trkpt>
      <trkpt lat="45.01056" lon="2.42969">
        <ele>721.3</ele>
        <time>2026-08-21T07:09:17.200Z</time>
      </trkpt>
      <trkpt lat="45.01057" lon="2.42969">
        <ele>721.5</ele>
        <time>2026-08-21T07:09:18.441Z</time>
      </trkpt>
      <trkpt lat="45.0106" lon="2.4297">
        <ele>721.5</ele>
        <time>2026-08-21T07:09:19.318Z</time>
      </trkpt>
      <trkpt lat="45.01062" lon="2.42971">
        <ele>722.13</ele>
        <time>2026-08-21T07:09:20.445Z</time>
      </trkpt>
      <trkpt lat="45.01064" lon="2.42971">
        <ele>722.05</ele>
        <time>2026-08-21T07:09:21.447Z</time>
      </trkpt>
      <trkpt lat="45.01067" lon="2.42972">
        <ele>722.28</ele>
        <time>2026-08-21T07:09:22.450Z</time>
      </trkpt>
      <trkpt lat="45.01069" lon="2.42972">
        <ele>722.38</ele>
        <time>2026-08-21T07:09:23.453Z</time>
      </trkpt>
      <trkpt lat="45.01071" lon="2.42974">
        <ele>722.62</ele>
        <time>2026-08-21T07:09:24.454Z</time>
      </trkpt>
      <trkpt lat="45.01073" lon="2.42975">
        <ele>722.91</ele>
        <time>2026-08-21T07:09:25.454Z</time>
      </trkpt>
      <trkpt lat="45.01074" lon="2.42976">
        <ele>723.39</ele>
        <time>2026-08-21T07:09:26.456Z</time>
      </trkpt>
      <trkpt lat="45.01076" lon="2.42977">
        <ele>723.8</ele>
        <time>2026-08-21T07:09:27.459Z</time>
      </trkpt>
      <trkpt lat="45.01078" lon="2.42978">
        <ele>724.36</ele>
        <time>2026-08-21T07:09:28.349Z</time>
      </trkpt>
      <trkpt lat="45.01079" lon="2.42979">
        <ele>724.71</ele>
        <time>2026-08-21T07:09:29.463Z</time>
      </trkpt>
      <trkpt lat="45.01081" lon="2.4298">
        <ele>725.15</ele>
        <time>2026-08-21T07:09:30.465Z</time>
      </trkpt>
      <trkpt lat="45.01083" lon="2.42981">
        <ele>725.36</ele>
        <time>2026-08-21T07:09:31.320Z</time>
      </trkpt>
      <trkpt lat="45.01085" lon="2.42982">
        <ele>725.56</ele>
        <time>2026-08-21T07:09:32.469Z</time>
      </trkpt>
      <trkpt lat="45.01087" lon="2.42983">
        <ele>725.87</ele>
        <time>2026-08-21T07:09:33.473Z</time>
      </trkpt>
      <trkpt lat="45.0109" lon="2.42985">
        <ele>726.28</ele>
        <time>2026-08-21T07:09:34.474Z</time>
      </trkpt>
      <trkpt lat="45.01092" lon="2.42986">
        <ele>726.63</ele>
        <time>2026-08-21T07:09:35.479Z</time>
      </trkpt>
      <trkpt lat="45.01094" lon="2.42987">
        <ele>727.04</ele>
        <time>2026-08-21T07:09:36.480Z</time>
      </trkpt>
      <trkpt lat="45.01096" lon="2.42989">
        <ele>727.48</ele>
        <time>2026-08-21T07:09:37.482Z</time>
      </trkpt>
      <trkpt lat="45.01097" lon="2.4299">
        <ele>727.73</ele>
        <time>2026-08-21T07:09:38.485Z</time>
      </trkpt>
      <trkpt lat="45.01099" lon="2.42992">
        <ele>728.13</ele>
        <time>2026-08-21T07:09:39.488Z</time>
      </trkpt>
      <trkpt lat="45.01101" lon="2.42993">
        <ele>728.8</ele>
        <time>2026-08-21T07:09:40.349Z</time>
      </trkpt>
      <trkpt lat="45.01103" lon="2.42995">
        <ele>729.09</ele>
        <time>2026-08-21T07:09:41.492Z</time>
      </trkpt>
      <trkpt lat="45.01106" lon="2.42995">
        <ele>729.32</ele>
        <time>2026-08-21T07:09:42.493Z</time>
      </trkpt>
      <trkpt lat="45.01108" lon="2.42996">
        <ele>729.71</ele>
        <time>2026-08-21T07:09:43.498Z</time>
      </trkpt>
      <trkpt lat="45.01111" lon="2.42997">
        <ele>730.01</ele>
        <time>2026-08-21T07:09:44.498Z</time>
      </trkpt>
      <trkpt lat="45.01114" lon="2.42999">
        <ele>730.17</ele>
        <time>2026-08-21T07:09:45.501Z</time>
      </trkpt>
      <trkpt lat="45.01115" lon="2.43">
        <ele>730.53</ele>
        <time>2026-08-21T07:09:46.504Z</time>
      </trkpt>
      <trkpt lat="45.01119" lon="2.43001">
        <ele>730.87</ele>
        <time>2026-08-21T07:09:47.506Z</time>
      </trkpt>
      <trkpt lat="45.01121" lon="2.43002">
        <ele>731.28</ele>
        <time>2026-08-21T07:09:48.514Z</time>
      </trkpt>
      <trkpt lat="45.01123" lon="2.43003">
        <ele>731.58</ele>
        <time>2026-08-21T07:09:49.513Z</time>
      </trkpt>
      <trkpt lat="45.01124" lon="2.43004">
        <ele>732.12</ele>
        <time>2026-08-21T07:09:50.516Z</time>
      </trkpt>
      <trkpt lat="45.01127" lon="2.43006">
        <ele>732.74</ele>
        <time>2026-08-21T07:09:51.301Z</time>
      </trkpt>
      <trkpt lat="45.01129" lon="2.43007">
        <ele>733.15</ele>
        <time>2026-08-21T07:09:52.349Z</time>
      </trkpt>
      <trkpt lat="45.0113" lon="2.43009">
        <ele>733.77</ele>
        <time>2026-08-21T07:09:53.521Z</time>
      </trkpt>
      <trkpt lat="45.01132" lon="2.43011">
        <ele>734.21</ele>
        <time>2026-08-21T07:09:54.524Z</time>
      </trkpt>
      <trkpt lat="45.01134" lon="2.43012">
        <ele>734.5</ele>
        <time>2026-08-21T07:09:55.131Z</time>
      </trkpt>
      <trkpt lat="45.01136" lon="2.43013">
        <ele>734.71</ele>
        <time>2026-08-21T07:09:56.460Z</time>
      </trkpt>
      <trkpt lat="45.01137" lon="2.43015">
        <ele>734.93</ele>
        <time>2026-08-21T07:09:57.530Z</time>
      </trkpt>
      <trkpt lat="45.01139" lon="2.43016">
        <ele>735.02</ele>
        <time>2026-08-21T07:09:58.531Z</time>
      </trkpt>
      <trkpt lat="45.01141" lon="2.43017">
        <ele>735.34</ele>
        <time>2026-08-21T07:09:59.534Z</time>
      </trkpt>
      <trkpt lat="45.01142" lon="2.43018">
        <ele>735.62</ele>
        <time>2026-08-21T07:10:00.536Z</time>
      </trkpt>
      <trkpt lat="45.01143" lon="2.43019">
        <ele>736.06</ele>
        <time>2026-08-21T07:10:01.382Z</time>
      </trkpt>
      <trkpt lat="45.01145" lon="2.4302">
        <ele>736.33</ele>
        <time>2026-08-21T07:10:02.539Z</time>
      </trkpt>
      <trkpt lat="45.01146" lon="2.43021">
        <ele>736.63</ele>
        <time>2026-08-21T07:10:03.542Z</time>
      </trkpt>
      <trkpt lat="45.01147" lon="2.43022">
        <ele>736.98</ele>
        <time>2026-08-21T07:10:04.543Z</time>
      </trkpt>
      <trkpt lat="45.01149" lon="2.43024">
        <ele>737.27</ele>
        <time>2026-08-21T07:10:05.545Z</time>
      </trkpt>
      <trkpt lat="45.0115" lon="2.43026">
        <ele>737.54</ele>
        <time>2026-08-21T07:10:06.548Z</time>
      </trkpt>
      <trkpt lat="45.01151" lon="2.43028">
        <ele>737.97</ele>
        <time>2026-08-21T07:10:07.147Z</time>
      </trkpt>
      <trkpt lat="45.01152" lon="2.4303">
        <ele>738.51</ele>
        <time>2026-08-21T07:10:08.489Z</time>
      </trkpt>
      <trkpt lat="45.01154" lon="2.43032">
        <ele>738.95</ele>
        <time>2026-08-21T07:10:09.465Z</time>
      </trkpt>
      <trkpt lat="45.01155" lon="2.43035">
        <ele>739.35</ele>
        <time>2026-08-21T07:10:10.409Z</time>
      </trkpt>
      <trkpt lat="45.01156" lon="2.43037">
        <ele>739.67</ele>
        <time>2026-08-21T07:10:11.453Z</time>
      </trkpt>
      <trkpt lat="45.01157" lon="2.43039">
        <ele>739.89</ele>
        <time>2026-08-21T07:10:12.455Z</time>
      </trkpt>
      <trkpt lat="45.01158" lon="2.43042">
        <ele>740.17</ele>
        <time>2026-08-21T07:10:13.556Z</time>
      </trkpt>
      <trkpt lat="45.01159" lon="2.43045">
        <ele>740.54</ele>
        <time>2026-08-21T07:10:14.556Z</time>
      </trkpt>
      <trkpt lat="45.0116" lon="2.43048">
        <ele>740.99</ele>
        <time>2026-08-21T07:10:15.090Z</time>
      </trkpt>
      <trkpt lat="45.0116" lon="2.43051">
        <ele>741.4</ele>
        <time>2026-08-21T07:10:16.459Z</time>
      </trkpt>
      <trkpt lat="45.01161" lon="2.43054">
        <ele>741.75</ele>
        <time>2026-08-21T07:10:17.560Z</time>
      </trkpt>
      <trkpt lat="45.01161" lon="2.43057">
        <ele>742.07</ele>
        <time>2026-08-21T07:10:18.561Z</time>
      </trkpt>
      <trkpt lat="45.01162" lon="2.4306">
        <ele>742.37</ele>
        <time>2026-08-21T07:10:19.414Z</time>
      </trkpt>
      <trkpt lat="45.01162" lon="2.43063">
        <ele>742.72</ele>
        <time>2026-08-21T07:10:20.464Z</time>
      </trkpt>
      <trkpt lat="45.01164" lon="2.43065">
        <ele>743.14</ele>
        <time>2026-08-21T07:10:21.466Z</time>
      </trkpt>
      <trkpt lat="45.01164" lon="2.43068">
        <ele>743.5</ele>
        <time>2026-08-21T07:10:22.466Z</time>
      </trkpt>
      <trkpt lat="45.01166" lon="2.43071">
        <ele>743.95</ele>
        <time>2026-08-21T07:10:23.567Z</time>
      </trkpt>
      <trkpt lat="45.01167" lon="2.43073">
        <ele>744.37</ele>
        <time>2026-08-21T07:10:24.468Z</time>
      </trkpt>
      <trkpt lat="45.01167" lon="2.43075">
        <ele>744.75</ele>
        <time>2026-08-21T07:10:25.471Z</time>
      </trkpt>
      <trkpt lat="45.01168" lon="2.43077">
        <ele>745.08</ele>
        <time>2026-08-21T07:10:26.571Z</time>
      </trkpt>
      <trkpt lat="45.01169" lon="2.43079">
        <ele>745.62</ele>
        <time>2026-08-21T07:10:27.473Z</time>
      </trkpt>
      <trkpt lat="45.01171" lon="2.43081">
        <ele>745.83</ele>
        <time>2026-08-21T07:10:28.474Z</time>
      </trkpt>
      <trkpt lat="45.01172" lon="2.43084">
        <ele>746.18</ele>
        <time>2026-08-21T07:10:29.478Z</time>
      </trkpt>
      <trkpt lat="45.01173" lon="2.43086">
        <ele>746.38</ele>
        <time>2026-08-21T07:10:30.478Z</time>
      </trkpt>
      <trkpt lat="45.01174" lon="2.43089">
        <ele>747.16</ele>
        <time>2026-08-21T07:10:32.482Z</time>
      </trkpt>
      <trkpt lat="45.01175" lon="2.43091">
        <ele>747.39</ele>
        <time>2026-08-21T07:10:34.484Z</time>
      </trkpt>
      <trkpt lat="45.01175" lon="2.43092">
        <ele>747.39</ele>
        <time>2026-08-21T07:10:35.485Z</time>
      </trkpt>
      <trkpt lat="45.01175" lon="2.43094">
        <ele>747.39</ele>
        <time>2026-08-21T07:10:36.486Z</time>
      </trkpt>
      <trkpt lat="45.01175" lon="2.43096">
        <ele>747.39</ele>
        <time>2026-08-21T07:10:37.487Z</time>
      </trkpt>
      <trkpt lat="45.01176" lon="2.43099">
        <ele>749.51</ele>
        <time>2026-08-21T07:10:38.489Z</time>
      </trkpt>
      <trkpt lat="45.01176" lon="2.43102">
        <ele>749.93</ele>
        <time>2026-08-21T07:10:39.490Z</time>
      </trkpt>
      <trkpt lat="45.01176" lon="2.43104">
        <ele>750.28</ele>
        <time>2026-08-21T07:10:40.494Z</time>
      </trkpt>
      <trkpt lat="45.01177" lon="2.43106">
        <ele>750.72</ele>
        <time>2026-08-21T07:10:41.495Z</time>
      </trkpt>
      <trkpt lat="45.01177" lon="2.43109">
        <ele>751.14</ele>
        <time>2026-08-21T07:10:42.495Z</time>
      </trkpt>
      <trkpt lat="45.01177" lon="2.43112">
        <ele>751.68</ele>
        <time>2026-08-21T07:10:43.497Z</time>
      </trkpt>
      <trkpt lat="45.01178" lon="2.43114">
        <ele>752.07</ele>
        <time>2026-08-21T07:10:44.499Z</time>
      </trkpt>
      <trkpt lat="45.01178" lon="2.43116">
        <ele>752.38</ele>
        <time>2026-08-21T07:10:45.500Z</time>
      </trkpt>
      <trkpt lat="45.01178" lon="2.43118">
        <ele>752.74</ele>
        <time>2026-08-21T07:10:46.502Z</time>
      </trkpt>
      <trkpt lat="45.01179" lon="2.4312">
        <ele>752.92</ele>
        <time>2026-08-21T07:10:47.506Z</time>
      </trkpt>
      <trkpt lat="45.01179" lon="2.43122">
        <ele>753.47</ele>
        <time>2026-08-21T07:10:48.509Z</time>
      </trkpt>
      <trkpt lat="45.0118" lon="2.43125">
        <ele>753.91</ele>
        <time>2026-08-21T07:10:49.507Z</time>
      </trkpt>
      <trkpt lat="45.01181" lon="2.43127">
        <ele>754.26</ele>
        <time>2026-08-21T07:10:50.510Z</time>
      </trkpt>
      <trkpt lat="45.01183" lon="2.43134">
        <ele>755.28</ele>
        <time>2026-08-21T07:10:52.515Z</time>
      </trkpt>
      <trkpt lat="45.01183" lon="2.43135">
        <ele>755.62</ele>
        <time>2026-08-21T07:10:53.515Z</time>
      </trkpt>
      <trkpt lat="45.01183" lon="2.43137">
        <ele>755.86</ele>
        <time>2026-08-21T07:10:54.517Z</time>
      </trkpt>
      <trkpt lat="45.01185" lon="2.4314">
        <ele>756.32</ele>
        <time>2026-08-21T07:10:55.521Z</time>
      </trkpt>
      <trkpt lat="45.01185" lon="2.43144">
        <ele>756.89</ele>
        <time>2026-08-21T07:10:56.521Z</time>
      </trkpt>
      <trkpt lat="45.01186" lon="2.43146">
        <ele>757.36</ele>
        <time>2026-08-21T07:10:57.522Z</time>
      </trkpt>
      <trkpt lat="45.01186" lon="2.43149">
        <ele>757.63</ele>
        <time>2026-08-21T07:10:58.526Z</time>
      </trkpt>
      <trkpt lat="45.01187" lon="2.43152">
        <ele>758.22</ele>
        <time>2026-08-21T07:10:59.526Z</time>
      </trkpt>
      <trkpt lat="45.01188" lon="2.43155">
        <ele>758.71</ele>
        <time>2026-08-21T07:11:00.529Z</time>
      </trkpt>
      <trkpt lat="45.01188" lon="2.43157">
        <ele>759.28</ele>
        <time>2026-08-21T07:11:01.531Z</time>
      </trkpt>
      <trkpt lat="45.01191" lon="2.43162">
        <ele>760.02</ele>
        <time>2026-08-21T07:11:03.537Z</time>
      </trkpt>
      <trkpt lat="45.01191" lon="2.43164">
        <ele>760.49</ele>
        <time>2026-08-21T07:11:04.537Z</time>
      </trkpt>
      <trkpt lat="45.01191" lon="2.43166">
        <ele>760.92</ele>
        <time>2026-08-21T07:11:05.160Z</time>
      </trkpt>
      <trkpt lat="45.01191" lon="2.43168">
        <ele>761.22</ele>
        <time>2026-08-21T07:11:06.183Z</time>
      </trkpt>
      <trkpt lat="45.01192" lon="2.43171">
        <ele>761.59</ele>
        <time>2026-08-21T07:11:07.542Z</time>
      </trkpt>
      <trkpt lat="45.01194" lon="2.43177">
        <ele>762.42</ele>
        <time>2026-08-21T07:11:09.547Z</time>
      </trkpt>
      <trkpt lat="45.01195" lon="2.43181">
        <ele>763.04</ele>
        <time>2026-08-21T07:11:11.551Z</time>
      </trkpt>
      <trkpt lat="45.01195" lon="2.43182">
        <ele>763.51</ele>
        <time>2026-08-21T07:11:12.552Z</time>
      </trkpt>
      <trkpt lat="45.01196" lon="2.43185">
        <ele>763.51</ele>
        <time>2026-08-21T07:11:13.555Z</time>
      </trkpt>
      <trkpt lat="45.01196" lon="2.43187">
        <ele>764.45</ele>
        <time>2026-08-21T07:11:14.557Z</time>
      </trkpt>
      <trkpt lat="45.01196" lon="2.43189">
        <ele>764.91</ele>
        <time>2026-08-21T07:11:15.561Z</time>
      </trkpt>
      <trkpt lat="45.01197" lon="2.43192">
        <ele>765.28</ele>
        <time>2026-08-21T07:11:16.479Z</time>
      </trkpt>
      <trkpt lat="45.01198" lon="2.43194">
        <ele>765.82</ele>
        <time>2026-08-21T07:11:17.565Z</time>
      </trkpt>
      <trkpt lat="45.01198" lon="2.43197">
        <ele>766.32</ele>
        <time>2026-08-21T07:11:18.567Z</time>
      </trkpt>
      <trkpt lat="45.01199" lon="2.43199">
        <ele>766.71</ele>
        <time>2026-08-21T07:11:19.569Z</time>
      </trkpt>
      <trkpt lat="45.012" lon="2.43202">
        <ele>767.08</ele>
        <time>2026-08-21T07:11:20.572Z</time>
      </trkpt>
      <trkpt lat="45.01201" lon="2.43204">
        <ele>767.49</ele>
        <time>2026-08-21T07:11:21.591Z</time>
      </trkpt>
      <trkpt lat="45.01202" lon="2.43205">
        <ele>767.81</ele>
        <time>2026-08-21T07:11:22.576Z</time>
      </trkpt>
      <trkpt lat="45.01203" lon="2.43207">
        <ele>768.08</ele>
        <time>2026-08-21T07:11:23.578Z</time>
      </trkpt>
      <trkpt lat="45.01204" lon="2.43209">
        <ele>768.44</ele>
        <time>2026-08-21T07:11:24.579Z</time>
      </trkpt>
      <trkpt lat="45.01205" lon="2.43211">
        <ele>768.9</ele>
        <time>2026-08-21T07:11:25.468Z</time>
      </trkpt>
      <trkpt lat="45.01206" lon="2.43213">
        <ele>769.32</ele>
        <time>2026-08-21T07:11:26.583Z</time>
      </trkpt>
      <trkpt lat="45.01208" lon="2.43214">
        <ele>769.84</ele>
        <time>2026-08-21T07:11:27.583Z</time>
      </trkpt>
      <trkpt lat="45.01209" lon="2.43216">
        <ele>770.07</ele>
        <time>2026-08-21T07:11:28.586Z</time>
      </trkpt>
      <trkpt lat="45.0121" lon="2.43218">
        <ele>770.49</ele>
        <time>2026-08-21T07:11:29.159Z</time>
      </trkpt>
      <trkpt lat="45.01211" lon="2.43219">
        <ele>770.89</ele>
        <time>2026-08-21T07:11:30.476Z</time>
      </trkpt>
      <trkpt lat="45.01211" lon="2.43221">
        <ele>771.23</ele>
        <time>2026-08-21T07:11:31.594Z</time>
      </trkpt>
      <trkpt lat="45.01212" lon="2.43223">
        <ele>771.57</ele>
        <time>2026-08-21T07:11:32.592Z</time>
      </trkpt>
      <trkpt lat="45.01213" lon="2.43225">
        <ele>771.96</ele>
        <time>2026-08-21T07:11:33.592Z</time>
      </trkpt>
      <trkpt lat="45.01214" lon="2.43227">
        <ele>772.16</ele>
        <time>2026-08-21T07:11:34.504Z</time>
      </trkpt>
      <trkpt lat="45.01214" lon="2.43229">
        <ele>772.41</ele>
        <time>2026-08-21T07:11:35.128Z</time>
      </trkpt>
      <trkpt lat="45.01215" lon="2.43234">
        <ele>773.31</ele>
        <time>2026-08-21T07:11:37.602Z</time>
      </trkpt>
      <trkpt lat="45.01215" lon="2.43236">
        <ele>773.74</ele>
        <time>2026-08-21T07:11:38.603Z</time>
      </trkpt>
      <trkpt lat="45.01216" lon="2.43238">
        <ele>774.05</ele>
        <time>2026-08-21T07:11:39.604Z</time>
      </trkpt>
      <trkpt lat="45.01216" lon="2.4324">
        <ele>774.13</ele>
        <time>2026-08-21T07:11:40.607Z</time>
      </trkpt>
      <trkpt lat="45.01217" lon="2.43243">
        <ele>774.48</ele>
        <time>2026-08-21T07:11:41.608Z</time>
      </trkpt>
      <trkpt lat="45.01217" lon="2.43245">
        <ele>774.87</ele>
        <time>2026-08-21T07:11:42.610Z</time>
      </trkpt>
      <trkpt lat="45.01218" lon="2.43247">
        <ele>775.33</ele>
        <time>2026-08-21T07:11:43.501Z</time>
      </trkpt>
      <trkpt lat="45.01219" lon="2.43249">
        <ele>775.6</ele>
        <time>2026-08-21T07:11:44.613Z</time>
      </trkpt>
      <trkpt lat="45.0122" lon="2.43251">
        <ele>776.08</ele>
        <time>2026-08-21T07:11:45.616Z</time>
      </trkpt>
      <trkpt lat="45.01221" lon="2.43253">
        <ele>776.46</ele>
        <time>2026-08-21T07:11:46.617Z</time>
      </trkpt>
      <trkpt lat="45.01222" lon="2.43255">
        <ele>776.98</ele>
        <time>2026-08-21T07:11:47.208Z</time>
      </trkpt>
      <trkpt lat="45.01225" lon="2.43261">
        <ele>777.77</ele>
        <time>2026-08-21T07:11:49.623Z</time>
      </trkpt>
      <trkpt lat="45.01226" lon="2.43263">
        <ele>778.12</ele>
        <time>2026-08-21T07:11:50.625Z</time>
      </trkpt>
      <trkpt lat="45.01228" lon="2.43265">
        <ele>778.42</ele>
        <time>2026-08-21T07:11:51.627Z</time>
      </trkpt>
      <trkpt lat="45.01229" lon="2.43267">
        <ele>778.86</ele>
        <time>2026-08-21T07:11:52.535Z</time>
      </trkpt>
      <trkpt lat="45.01231" lon="2.43269">
        <ele>779.35</ele>
        <time>2026-08-21T07:11:53.633Z</time>
      </trkpt>
      <trkpt lat="45.01233" lon="2.43272">
        <ele>779.51</ele>
        <time>2026-08-21T07:11:54.634Z</time>
      </trkpt>
      <trkpt lat="45.01234" lon="2.43274">
        <ele>780.14</ele>
        <time>2026-08-21T07:11:55.636Z</time>
      </trkpt>
      <trkpt lat="45.01236" lon="2.43276">
        <ele>780.73</ele>
        <time>2026-08-21T07:11:56.637Z</time>
      </trkpt>
      <trkpt lat="45.01238" lon="2.43278">
        <ele>781.45</ele>
        <time>2026-08-21T07:11:57.329Z</time>
      </trkpt>
      <trkpt lat="45.01239" lon="2.4328">
        <ele>782.08</ele>
        <time>2026-08-21T07:11:58.641Z</time>
      </trkpt>
      <trkpt lat="45.0124" lon="2.43282">
        <ele>782.61</ele>
        <time>2026-08-21T07:11:59.646Z</time>
      </trkpt>
      <trkpt lat="45.01241" lon="2.43285">
        <ele>783.06</ele>
        <time>2026-08-21T07:12:00.645Z</time>
      </trkpt>
      <trkpt lat="45.01242" lon="2.43288">
        <ele>783.57</ele>
        <time>2026-08-21T07:12:01.531Z</time>
      </trkpt>
      <trkpt lat="45.01243" lon="2.43291">
        <ele>784.02</ele>
        <time>2026-08-21T07:12:02.649Z</time>
      </trkpt>
      <trkpt lat="45.01244" lon="2.43293">
        <ele>784.41</ele>
        <time>2026-08-21T07:12:03.238Z</time>
      </trkpt>
      <trkpt lat="45.01245" lon="2.43296">
        <ele>784.79</ele>
        <time>2026-08-21T07:12:04.652Z</time>
      </trkpt>
      <trkpt lat="45.01247" lon="2.433">
        <ele>785.33</ele>
        <time>2026-08-21T07:12:06.657Z</time>
      </trkpt>
      <trkpt lat="45.01248" lon="2.43301">
        <ele>785.61</ele>
        <time>2026-08-21T07:12:07.659Z</time>
      </trkpt>
      <trkpt lat="45.01249" lon="2.43303">
        <ele>786.04</ele>
        <time>2026-08-21T07:12:08.661Z</time>
      </trkpt>
      <trkpt lat="45.0125" lon="2.43304">
        <ele>786.3</ele>
        <time>2026-08-21T07:12:09.663Z</time>
      </trkpt>
      <trkpt lat="45.01252" lon="2.43306">
        <ele>786.81</ele>
        <time>2026-08-21T07:12:10.531Z</time>
      </trkpt>
      <trkpt lat="45.01253" lon="2.43308">
        <ele>787.11</ele>
        <time>2026-08-21T07:12:11.567Z</time>
      </trkpt>
      <trkpt lat="45.01255" lon="2.4331">
        <ele>787.39</ele>
        <time>2026-08-21T07:12:12.567Z</time>
      </trkpt>
      <trkpt lat="45.01256" lon="2.43312">
        <ele>787.73</ele>
        <time>2026-08-21T07:12:13.571Z</time>
      </trkpt>
      <trkpt lat="45.01257" lon="2.43315">
        <ele>788.08</ele>
        <time>2026-08-21T07:12:14.574Z</time>
      </trkpt>
      <trkpt lat="45.01258" lon="2.43318">
        <ele>788.49</ele>
        <time>2026-08-21T07:12:15.575Z</time>
      </trkpt>
      <trkpt lat="45.01259" lon="2.4332">
        <ele>788.73</ele>
        <time>2026-08-21T07:12:16.653Z</time>
      </trkpt>
      <trkpt lat="45.0126" lon="2.43322">
        <ele>788.93</ele>
        <time>2026-08-21T07:12:17.578Z</time>
      </trkpt>
      <trkpt lat="45.0126" lon="2.43324">
        <ele>789.17</ele>
        <time>2026-08-21T07:12:18.581Z</time>
      </trkpt>
      <trkpt lat="45.01262" lon="2.43326">
        <ele>789.38</ele>
        <time>2026-08-21T07:12:19.584Z</time>
      </trkpt>
      <trkpt lat="45.01263" lon="2.43328">
        <ele>789.61</ele>
        <time>2026-08-21T07:12:20.586Z</time>
      </trkpt>
      <trkpt lat="45.01264" lon="2.4333">
        <ele>789.79</ele>
        <time>2026-08-21T07:12:21.585Z</time>
      </trkpt>
      <trkpt lat="45.01265" lon="2.43332">
        <ele>789.98</ele>
        <time>2026-08-21T07:12:22.589Z</time>
      </trkpt>
      <trkpt lat="45.01267" lon="2.43336">
        <ele>790.45</ele>
        <time>2026-08-21T07:12:24.592Z</time>
      </trkpt>
      <trkpt lat="45.01268" lon="2.43338">
        <ele>790.66</ele>
        <time>2026-08-21T07:12:25.593Z</time>
      </trkpt>
      <trkpt lat="45.01269" lon="2.4334">
        <ele>790.89</ele>
        <time>2026-08-21T07:12:26.595Z</time>
      </trkpt>
      <trkpt lat="45.0127" lon="2.43342">
        <ele>791.05</ele>
        <time>2026-08-21T07:12:27.597Z</time>
      </trkpt>
      <trkpt lat="45.01271" lon="2.43344">
        <ele>791.36</ele>
        <time>2026-08-21T07:12:28.598Z</time>
      </trkpt>
      <trkpt lat="45.01274" lon="2.4335">
        <ele>791.95</ele>
        <time>2026-08-21T07:12:30.604Z</time>
      </trkpt>
      <trkpt lat="45.01275" lon="2.43351">
        <ele>792.27</ele>
        <time>2026-08-21T07:12:31.604Z</time>
      </trkpt>
      <trkpt lat="45.01275" lon="2.43353">
        <ele>792.51</ele>
        <time>2026-08-21T07:12:32.606Z</time>
      </trkpt>
      <trkpt lat="45.01276" lon="2.43355">
        <ele>792.78</ele>
        <time>2026-08-21T07:12:33.610Z</time>
      </trkpt>
      <trkpt lat="45.01277" lon="2.43357">
        <ele>793.11</ele>
        <time>2026-08-21T07:12:34.609Z</time>
      </trkpt>
      <trkpt lat="45.01278" lon="2.4336">
        <ele>793.3</ele>
        <time>2026-08-21T07:12:35.611Z</time>
      </trkpt>
      <trkpt lat="45.01278" lon="2.43362">
        <ele>793.4</ele>
        <time>2026-08-21T07:12:36.613Z</time>
      </trkpt>
      <trkpt lat="45.01279" lon="2.43364">
        <ele>793.56</ele>
        <time>2026-08-21T07:12:37.614Z</time>
      </trkpt>
      <trkpt lat="45.0128" lon="2.43366">
        <ele>793.74</ele>
        <time>2026-08-21T07:12:38.617Z</time>
      </trkpt>
      <trkpt lat="45.01281" lon="2.43368">
        <ele>793.77</ele>
        <time>2026-08-21T07:12:39.618Z</time>
      </trkpt>
      <trkpt lat="45.01282" lon="2.43371">
        <ele>793.72</ele>
        <time>2026-08-21T07:12:40.622Z</time>
      </trkpt>
      <trkpt lat="45.01283" lon="2.43373">
        <ele>793.74</ele>
        <time>2026-08-21T07:12:41.625Z</time>
      </trkpt>
      <trkpt lat="45.01283" lon="2.43375">
        <ele>793.8</ele>
        <time>2026-08-21T07:12:42.627Z</time>
      </trkpt>
      <trkpt lat="45.01284" lon="2.43377">
        <ele>793.91</ele>
        <time>2026-08-21T07:12:43.628Z</time>
      </trkpt>
      <trkpt lat="45.01285" lon="2.43379">
        <ele>794</ele>
        <time>2026-08-21T07:12:44.630Z</time>
      </trkpt>
      <trkpt lat="45.01285" lon="2.43381">
        <ele>794.02</ele>
        <time>2026-08-21T07:12:44.936Z</time>
      </trkpt>
      <trkpt lat="45.01286" lon="2.43383">
        <ele>794</ele>
        <time>2026-08-21T07:12:46.633Z</time>
      </trkpt>
      <trkpt lat="45.01287" lon="2.43386">
        <ele>793.94</ele>
        <time>2026-08-21T07:12:46.729Z</time>
      </trkpt>
      <trkpt lat="45.01288" lon="2.43388">
        <ele>793.94</ele>
        <time>2026-08-21T07:12:48.637Z</time>
      </trkpt>
      <trkpt lat="45.01288" lon="2.43391">
        <ele>793.98</ele>
        <time>2026-08-21T07:12:49.640Z</time>
      </trkpt>
      <trkpt lat="45.01288" lon="2.43393">
        <ele>794.03</ele>
        <time>2026-08-21T07:12:50.641Z</time>
      </trkpt>
      <trkpt lat="45.01288" lon="2.43396">
        <ele>794.08</ele>
        <time>2026-08-21T07:12:51.644Z</time>
      </trkpt>
      <trkpt lat="45.01289" lon="2.43399">
        <ele>794.06</ele>
        <time>2026-08-21T07:12:52.646Z</time>
      </trkpt>
      <trkpt lat="45.01289" lon="2.43403">
        <ele>794.05</ele>
        <time>2026-08-21T07:12:53.650Z</time>
      </trkpt>
      <trkpt lat="45.0129" lon="2.43405">
        <ele>794.01</ele>
        <time>2026-08-21T07:12:53.734Z</time>
      </trkpt>
      <trkpt lat="45.01291" lon="2.43408">
        <ele>794.01</ele>
        <time>2026-08-21T07:12:55.655Z</time>
      </trkpt>
      <trkpt lat="45.01291" lon="2.43411">
        <ele>793.88</ele>
        <time>2026-08-21T07:12:56.662Z</time>
      </trkpt>
      <trkpt lat="45.01291" lon="2.43413">
        <ele>793.69</ele>
        <time>2026-08-21T07:12:57.659Z</time>
      </trkpt>
      <trkpt lat="45.01291" lon="2.43416">
        <ele>793.5</ele>
        <time>2026-08-21T07:12:58.662Z</time>
      </trkpt>
      <trkpt lat="45.01292" lon="2.43419">
        <ele>793.4</ele>
        <time>2026-08-21T07:12:59.669Z</time>
      </trkpt>
      <trkpt lat="45.01293" lon="2.43421">
        <ele>793.35</ele>
        <time>2026-08-21T07:13:00.667Z</time>
      </trkpt>
      <trkpt lat="45.01293" lon="2.43424">
        <ele>793.3</ele>
        <time>2026-08-21T07:13:01.671Z</time>
      </trkpt>
      <trkpt lat="45.01294" lon="2.43426">
        <ele>793.25</ele>
        <time>2026-08-21T07:13:02.673Z</time>
      </trkpt>
      <trkpt lat="45.01294" lon="2.43429">
        <ele>793.26</ele>
        <time>2026-08-21T07:13:03.673Z</time>
      </trkpt>
      <trkpt lat="45.01294" lon="2.43431">
        <ele>793.19</ele>
        <time>2026-08-21T07:13:04.676Z</time>
      </trkpt>
      <trkpt lat="45.01294" lon="2.43433">
        <ele>793.17</ele>
        <time>2026-08-21T07:13:05.678Z</time>
      </trkpt>
      <trkpt lat="45.01294" lon="2.43435">
        <ele>793.27</ele>
        <time>2026-08-21T07:13:06.679Z</time>
      </trkpt>
      <trkpt lat="45.01294" lon="2.43438">
        <ele>793.31</ele>
        <time>2026-08-21T07:13:07.684Z</time>
      </trkpt>
      <trkpt lat="45.01294" lon="2.43441">
        <ele>793.43</ele>
        <time>2026-08-21T07:13:08.525Z</time>
      </trkpt>
      <trkpt lat="45.01295" lon="2.43443">
        <ele>793.47</ele>
        <time>2026-08-21T07:13:09.685Z</time>
      </trkpt>
      <trkpt lat="45.01295" lon="2.43446">
        <ele>793.52</ele>
        <time>2026-08-21T07:13:10.502Z</time>
      </trkpt>
      <trkpt lat="45.01295" lon="2.43449">
        <ele>793.68</ele>
        <time>2026-08-21T07:13:11.688Z</time>
      </trkpt>
      <trkpt lat="45.01296" lon="2.43452">
        <ele>793.88</ele>
        <time>2026-08-21T07:13:12.691Z</time>
      </trkpt>
      <trkpt lat="45.01296" lon="2.43455">
        <ele>793.67</ele>
        <time>2026-08-21T07:13:13.695Z</time>
      </trkpt>
      <trkpt lat="45.01296" lon="2.43458">
        <ele>793.77</ele>
        <time>2026-08-21T07:13:14.697Z</time>
      </trkpt>
      <trkpt lat="45.01296" lon="2.4346">
        <ele>793.87</ele>
        <time>2026-08-21T07:13:15.700Z</time>
      </trkpt>
      <trkpt lat="45.01296" lon="2.43463">
        <ele>794.06</ele>
        <time>2026-08-21T07:13:16.702Z</time>
      </trkpt>
      <trkpt lat="45.01297" lon="2.43466">
        <ele>794.32</ele>
        <time>2026-08-21T07:13:17.705Z</time>
      </trkpt>
      <trkpt lat="45.01297" lon="2.43468">
        <ele>794.4</ele>
        <time>2026-08-21T07:13:18.551Z</time>
      </trkpt>
      <trkpt lat="45.01297" lon="2.4347">
        <ele>794.55</ele>
        <time>2026-08-21T07:13:19.709Z</time>
      </trkpt>
      <trkpt lat="45.01297" lon="2.43473">
        <ele>794.69</ele>
        <time>2026-08-21T07:13:20.713Z</time>
      </trkpt>
      <trkpt lat="45.01298" lon="2.43476">
        <ele>794.79</ele>
        <time>2026-08-21T07:13:21.714Z</time>
      </trkpt>
      <trkpt lat="45.01299" lon="2.43479">
        <ele>795.01</ele>
        <time>2026-08-21T07:13:22.657Z</time>
      </trkpt>
      <trkpt lat="45.01299" lon="2.43482">
        <ele>795.24</ele>
        <time>2026-08-21T07:13:23.719Z</time>
      </trkpt>
      <trkpt lat="45.013" lon="2.43485">
        <ele>795.56</ele>
        <time>2026-08-21T07:13:24.301Z</time>
      </trkpt>
      <trkpt lat="45.01301" lon="2.43488">
        <ele>795.71</ele>
        <time>2026-08-21T07:13:25.649Z</time>
      </trkpt>
      <trkpt lat="45.01302" lon="2.43491">
        <ele>796.03</ele>
        <time>2026-08-21T07:13:26.727Z</time>
      </trkpt>
      <trkpt lat="45.01303" lon="2.43495">
        <ele>796.15</ele>
        <time>2026-08-21T07:13:27.571Z</time>
      </trkpt>
      <trkpt lat="45.01303" lon="2.43498">
        <ele>796.2</ele>
        <time>2026-08-21T07:13:28.731Z</time>
      </trkpt>
      <trkpt lat="45.01303" lon="2.43501">
        <ele>796.32</ele>
        <time>2026-08-21T07:13:29.734Z</time>
      </trkpt>
      <trkpt lat="45.01304" lon="2.43504">
        <ele>796.53</ele>
        <time>2026-08-21T07:13:30.735Z</time>
      </trkpt>
      <trkpt lat="45.01304" lon="2.43507">
        <ele>796.7</ele>
        <time>2026-08-21T07:13:31.625Z</time>
      </trkpt>
      <trkpt lat="45.01305" lon="2.4351">
        <ele>796.93</ele>
        <time>2026-08-21T07:13:32.740Z</time>
      </trkpt>
      <trkpt lat="45.01305" lon="2.43513">
        <ele>797.07</ele>
        <time>2026-08-21T07:13:33.742Z</time>
      </trkpt>
      <trkpt lat="45.01305" lon="2.43516">
        <ele>797.34</ele>
        <time>2026-08-21T07:13:34.743Z</time>
      </trkpt>
      <trkpt lat="45.01306" lon="2.43518">
        <ele>797.61</ele>
        <time>2026-08-21T07:13:35.745Z</time>
      </trkpt>
      <trkpt lat="45.01307" lon="2.43521">
        <ele>797.75</ele>
        <time>2026-08-21T07:13:36.746Z</time>
      </trkpt>
      <trkpt lat="45.01308" lon="2.43524">
        <ele>798.15</ele>
        <time>2026-08-21T07:13:37.748Z</time>
      </trkpt>
      <trkpt lat="45.01308" lon="2.43526">
        <ele>798.46</ele>
        <time>2026-08-21T07:13:38.751Z</time>
      </trkpt>
      <trkpt lat="45.01309" lon="2.43529">
        <ele>798.59</ele>
        <time>2026-08-21T07:13:39.429Z</time>
      </trkpt>
      <trkpt lat="45.0131" lon="2.43532">
        <ele>798.82</ele>
        <time>2026-08-21T07:13:40.621Z</time>
      </trkpt>
      <trkpt lat="45.0131" lon="2.43535">
        <ele>799.12</ele>
        <time>2026-08-21T07:13:41.658Z</time>
      </trkpt>
      <trkpt lat="45.0131" lon="2.43539">
        <ele>799.34</ele>
        <time>2026-08-21T07:13:42.758Z</time>
      </trkpt>
      <trkpt lat="45.01311" lon="2.43542">
        <ele>799.56</ele>
        <time>2026-08-21T07:13:43.381Z</time>
      </trkpt>
      <trkpt lat="45.01312" lon="2.43545">
        <ele>799.83</ele>
        <time>2026-08-21T07:13:44.762Z</time>
      </trkpt>
      <trkpt lat="45.01313" lon="2.43547">
        <ele>800.09</ele>
        <time>2026-08-21T07:13:45.764Z</time>
      </trkpt>
      <trkpt lat="45.01314" lon="2.43549">
        <ele>800.38</ele>
        <time>2026-08-21T07:13:46.766Z</time>
      </trkpt>
      <trkpt lat="45.01316" lon="2.43552">
        <ele>800.64</ele>
        <time>2026-08-21T07:13:47.762Z</time>
      </trkpt>
      <trkpt lat="45.01317" lon="2.43555">
        <ele>800.93</ele>
        <time>2026-08-21T07:13:48.770Z</time>
      </trkpt>
      <trkpt lat="45.01318" lon="2.43559">
        <ele>801.16</ele>
        <time>2026-08-21T07:13:49.532Z</time>
      </trkpt>
      <trkpt lat="45.0132" lon="2.43562">
        <ele>801.21</ele>
        <time>2026-08-21T07:13:50.559Z</time>
      </trkpt>
      <trkpt lat="45.01321" lon="2.43566">
        <ele>801.34</ele>
        <time>2026-08-21T07:13:51.777Z</time>
      </trkpt>
      <trkpt lat="45.01322" lon="2.4357">
        <ele>801.38</ele>
        <time>2026-08-21T07:13:51.874Z</time>
      </trkpt>
      <trkpt lat="45.01323" lon="2.43573">
        <ele>801.45</ele>
        <time>2026-08-21T07:13:53.585Z</time>
      </trkpt>
      <trkpt lat="45.01324" lon="2.43577">
        <ele>801.58</ele>
        <time>2026-08-21T07:13:54.686Z</time>
      </trkpt>
      <trkpt lat="45.01325" lon="2.43581">
        <ele>801.55</ele>
        <time>2026-08-21T07:13:55.688Z</time>
      </trkpt>
      <trkpt lat="45.01326" lon="2.43584">
        <ele>801.56</ele>
        <time>2026-08-21T07:13:56.690Z</time>
      </trkpt>
      <trkpt lat="45.01327" lon="2.43588">
        <ele>801.63</ele>
        <time>2026-08-21T07:13:57.693Z</time>
      </trkpt>
      <trkpt lat="45.01328" lon="2.43592">
        <ele>801.77</ele>
        <time>2026-08-21T07:13:58.695Z</time>
      </trkpt>
      <trkpt lat="45.01329" lon="2.43594">
        <ele>801.95</ele>
        <time>2026-08-21T07:13:59.698Z</time>
      </trkpt>
      <trkpt lat="45.0133" lon="2.43597">
        <ele>802.16</ele>
        <time>2026-08-21T07:14:00.701Z</time>
      </trkpt>
      <trkpt lat="45.01332" lon="2.436">
        <ele>802.25</ele>
        <time>2026-08-21T07:14:01.702Z</time>
      </trkpt>
      <trkpt lat="45.01333" lon="2.43603">
        <ele>802.47</ele>
        <time>2026-08-21T07:14:02.576Z</time>
      </trkpt>
      <trkpt lat="45.01334" lon="2.43606">
        <ele>802.66</ele>
        <time>2026-08-21T07:14:03.715Z</time>
      </trkpt>
      <trkpt lat="45.01334" lon="2.43609">
        <ele>802.8</ele>
        <time>2026-08-21T07:14:04.711Z</time>
      </trkpt>
      <trkpt lat="45.01335" lon="2.43611">
        <ele>803.02</ele>
        <time>2026-08-21T07:14:05.715Z</time>
      </trkpt>
      <trkpt lat="45.01336" lon="2.43615">
        <ele>802.78</ele>
        <time>2026-08-21T07:14:06.724Z</time>
      </trkpt>
      <trkpt lat="45.01338" lon="2.43617">
        <ele>803.13</ele>
        <time>2026-08-21T07:14:07.316Z</time>
      </trkpt>
      <trkpt lat="45.0134" lon="2.4362">
        <ele>803.35</ele>
        <time>2026-08-21T07:14:08.741Z</time>
      </trkpt>
      <trkpt lat="45.01341" lon="2.43623">
        <ele>803.69</ele>
        <time>2026-08-21T07:14:09.730Z</time>
      </trkpt>
      <trkpt lat="45.01343" lon="2.43626">
        <ele>804.07</ele>
        <time>2026-08-21T07:14:10.737Z</time>
      </trkpt>
      <trkpt lat="45.01344" lon="2.43628">
        <ele>804.31</ele>
        <time>2026-08-21T07:14:11.740Z</time>
      </trkpt>
      <trkpt lat="45.01345" lon="2.43631">
        <ele>804.6</ele>
        <time>2026-08-21T07:14:12.743Z</time>
      </trkpt>
      <trkpt lat="45.01347" lon="2.43633">
        <ele>804.93</ele>
        <time>2026-08-21T07:14:13.743Z</time>
      </trkpt>
      <trkpt lat="45.01348" lon="2.43635">
        <ele>805.24</ele>
        <time>2026-08-21T07:14:14.745Z</time>
      </trkpt>
      <trkpt lat="45.01349" lon="2.43638">
        <ele>805.61</ele>
        <time>2026-08-21T07:14:15.751Z</time>
      </trkpt>
      <trkpt lat="45.0135" lon="2.4364">
        <ele>805.91</ele>
        <time>2026-08-21T07:14:16.751Z</time>
      </trkpt>
      <trkpt lat="45.01352" lon="2.43643">
        <ele>806.28</ele>
        <time>2026-08-21T07:14:17.754Z</time>
      </trkpt>
      <trkpt lat="45.01353" lon="2.43645">
        <ele>806.56</ele>
        <time>2026-08-21T07:14:18.760Z</time>
      </trkpt>
      <trkpt lat="45.01354" lon="2.43647">
        <ele>806.84</ele>
        <time>2026-08-21T07:14:19.765Z</time>
      </trkpt>
      <trkpt lat="45.01355" lon="2.43649">
        <ele>807.02</ele>
        <time>2026-08-21T07:14:20.763Z</time>
      </trkpt>
      <trkpt lat="45.01357" lon="2.43652">
        <ele>807.19</ele>
        <time>2026-08-21T07:14:21.767Z</time>
      </trkpt>
      <trkpt lat="45.01359" lon="2.43654">
        <ele>807.49</ele>
        <time>2026-08-21T07:14:22.776Z</time>
      </trkpt>
      <trkpt lat="45.01361" lon="2.43657">
        <ele>807.8</ele>
        <time>2026-08-21T07:14:23.773Z</time>
      </trkpt>
      <trkpt lat="45.01363" lon="2.43659">
        <ele>808.03</ele>
        <time>2026-08-21T07:14:24.777Z</time>
      </trkpt>
      <trkpt lat="45.01365" lon="2.43662">
        <ele>808.34</ele>
        <time>2026-08-21T07:14:24.871Z</time>
      </trkpt>
      <trkpt lat="45.01367" lon="2.43665">
        <ele>808.73</ele>
        <time>2026-08-21T07:14:25.862Z</time>
      </trkpt>
      <trkpt lat="45.01369" lon="2.43668">
        <ele>808.94</ele>
        <time>2026-08-21T07:14:27.726Z</time>
      </trkpt>
      <trkpt lat="45.01371" lon="2.4367">
        <ele>809.11</ele>
        <time>2026-08-21T07:14:27.873Z</time>
      </trkpt>
      <trkpt lat="45.01373" lon="2.43673">
        <ele>809.39</ele>
        <time>2026-08-21T07:14:28.864Z</time>
      </trkpt>
      <trkpt lat="45.01374" lon="2.43676">
        <ele>809.62</ele>
        <time>2026-08-21T07:14:29.876Z</time>
      </trkpt>
      <trkpt lat="45.01376" lon="2.43679">
        <ele>809.85</ele>
        <time>2026-08-21T07:14:30.870Z</time>
      </trkpt>
      <trkpt lat="45.01377" lon="2.43682">
        <ele>810.07</ele>
        <time>2026-08-21T07:14:31.889Z</time>
      </trkpt>
      <trkpt lat="45.01378" lon="2.43684">
        <ele>810.3</ele>
        <time>2026-08-21T07:14:32.853Z</time>
      </trkpt>
      <trkpt lat="45.0138" lon="2.43687">
        <ele>810.6</ele>
        <time>2026-08-21T07:14:33.868Z</time>
      </trkpt>
      <trkpt lat="45.01382" lon="2.4369">
        <ele>810.82</ele>
        <time>2026-08-21T07:14:34.880Z</time>
      </trkpt>
      <trkpt lat="45.01384" lon="2.43692">
        <ele>811.17</ele>
        <time>2026-08-21T07:14:35.882Z</time>
      </trkpt>
      <trkpt lat="45.01385" lon="2.43694">
        <ele>811.33</ele>
        <time>2026-08-21T07:14:37.857Z</time>
      </trkpt>
      <trkpt lat="45.01387" lon="2.43697">
        <ele>811.55</ele>
        <time>2026-08-21T07:14:37.880Z</time>
      </trkpt>
      <trkpt lat="45.01389" lon="2.437">
        <ele>811.8</ele>
        <time>2026-08-21T07:14:38.879Z</time>
      </trkpt>
      <trkpt lat="45.01391" lon="2.43703">
        <ele>811.99</ele>
        <time>2026-08-21T07:14:39.873Z</time>
      </trkpt>
      <trkpt lat="45.01393" lon="2.43705">
        <ele>812.39</ele>
        <time>2026-08-21T07:14:41.852Z</time>
      </trkpt>
      <trkpt lat="45.01395" lon="2.43707">
        <ele>812.7</ele>
        <time>2026-08-21T07:14:41.876Z</time>
      </trkpt>
      <trkpt lat="45.01397" lon="2.43709">
        <ele>812.9</ele>
        <time>2026-08-21T07:14:42.880Z</time>
      </trkpt>
      <trkpt lat="45.01399" lon="2.43711">
        <ele>813.25</ele>
        <time>2026-08-21T07:14:43.874Z</time>
      </trkpt>
      <trkpt lat="45.01402" lon="2.43713">
        <ele>813.57</ele>
        <time>2026-08-21T07:14:44.890Z</time>
      </trkpt>
      <trkpt lat="45.01404" lon="2.43715">
        <ele>813.85</ele>
        <time>2026-08-21T07:14:45.878Z</time>
      </trkpt>
      <trkpt lat="45.01405" lon="2.43717">
        <ele>814.1</ele>
        <time>2026-08-21T07:14:47.857Z</time>
      </trkpt>
      <trkpt lat="45.01407" lon="2.43719">
        <ele>814.39</ele>
        <time>2026-08-21T07:14:47.881Z</time>
      </trkpt>
      <trkpt lat="45.0141" lon="2.43721">
        <ele>814.82</ele>
        <time>2026-08-21T07:14:49.877Z</time>
      </trkpt>
      <trkpt lat="45.01411" lon="2.43723">
        <ele>815.07</ele>
        <time>2026-08-21T07:14:49.882Z</time>
      </trkpt>
      <trkpt lat="45.01413" lon="2.43725">
        <ele>815.43</ele>
        <time>2026-08-21T07:14:51.881Z</time>
      </trkpt>
      <trkpt lat="45.01415" lon="2.43727">
        <ele>815.73</ele>
        <time>2026-08-21T07:14:51.891Z</time>
      </trkpt>
      <trkpt lat="45.01417" lon="2.43729">
        <ele>815.91</ele>
        <time>2026-08-21T07:14:53.849Z</time>
      </trkpt>
      <trkpt lat="45.01419" lon="2.43731">
        <ele>816.23</ele>
        <time>2026-08-21T07:14:53.890Z</time>
      </trkpt>
      <trkpt lat="45.01421" lon="2.43732">
        <ele>816.28</ele>
        <time>2026-08-21T07:14:55.889Z</time>
      </trkpt>
      <trkpt lat="45.01423" lon="2.43734">
        <ele>816.38</ele>
        <time>2026-08-21T07:14:55.919Z</time>
      </trkpt>
      <trkpt lat="45.01426" lon="2.43736">
        <ele>816.55</ele>
        <time>2026-08-21T07:14:57.390Z</time>
      </trkpt>
      <trkpt lat="45.01428" lon="2.43738">
        <ele>816.7</ele>
        <time>2026-08-21T07:14:58.408Z</time>
      </trkpt>
      <trkpt lat="45.01429" lon="2.43739">
        <ele>816.89</ele>
        <time>2026-08-21T07:14:59.885Z</time>
      </trkpt>
      <trkpt lat="45.01431" lon="2.43742">
        <ele>817.05</ele>
        <time>2026-08-21T07:15:00.419Z</time>
      </trkpt>
      <trkpt lat="45.01433" lon="2.43744">
        <ele>817.26</ele>
        <time>2026-08-21T07:15:01.887Z</time>
      </trkpt>
      <trkpt lat="45.01434" lon="2.43746">
        <ele>817.41</ele>
        <time>2026-08-21T07:15:01.958Z</time>
      </trkpt>
      <trkpt lat="45.01436" lon="2.43748">
        <ele>817.59</ele>
        <time>2026-08-21T07:15:03.878Z</time>
      </trkpt>
      <trkpt lat="45.01437" lon="2.4375">
        <ele>817.74</ele>
        <time>2026-08-21T07:15:04.710Z</time>
      </trkpt>
      <trkpt lat="45.01439" lon="2.43752">
        <ele>817.82</ele>
        <time>2026-08-21T07:15:05.856Z</time>
      </trkpt>
      <trkpt lat="45.01441" lon="2.43754">
        <ele>817.97</ele>
        <time>2026-08-21T07:15:06.896Z</time>
      </trkpt>
      <trkpt lat="45.01443" lon="2.43756">
        <ele>818.14</ele>
        <time>2026-08-21T07:15:07.708Z</time>
      </trkpt>
      <trkpt lat="45.01445" lon="2.43758">
        <ele>818.26</ele>
        <time>2026-08-21T07:15:08.882Z</time>
      </trkpt>
      <trkpt lat="45.01447" lon="2.4376">
        <ele>818.4</ele>
        <time>2026-08-21T07:15:09.882Z</time>
      </trkpt>
      <trkpt lat="45.01449" lon="2.43762">
        <ele>818.58</ele>
        <time>2026-08-21T07:15:10.055Z</time>
      </trkpt>
      <trkpt lat="45.01451" lon="2.43764">
        <ele>818.98</ele>
        <time>2026-08-21T07:15:11.893Z</time>
      </trkpt>
      <trkpt lat="45.01453" lon="2.43766">
        <ele>819.3</ele>
        <time>2026-08-21T07:15:12.889Z</time>
      </trkpt>
      <trkpt lat="45.01455" lon="2.43767">
        <ele>819.5</ele>
        <time>2026-08-21T07:15:13.889Z</time>
      </trkpt>
      <trkpt lat="45.01456" lon="2.43769">
        <ele>819.49</ele>
        <time>2026-08-21T07:15:14.875Z</time>
      </trkpt>
      <trkpt lat="45.01458" lon="2.43771">
        <ele>819.65</ele>
        <time>2026-08-21T07:15:15.784Z</time>
      </trkpt>
      <trkpt lat="45.0146" lon="2.43773">
        <ele>819.78</ele>
        <time>2026-08-21T07:15:16.895Z</time>
      </trkpt>
      <trkpt lat="45.01462" lon="2.43775">
        <ele>819.91</ele>
        <time>2026-08-21T07:15:17.896Z</time>
      </trkpt>
      <trkpt lat="45.01464" lon="2.43777">
        <ele>820.08</ele>
        <time>2026-08-21T07:15:18.897Z</time>
      </trkpt>
      <trkpt lat="45.01466" lon="2.43779">
        <ele>820.08</ele>
        <time>2026-08-21T07:15:19.771Z</time>
      </trkpt>
      <trkpt lat="45.01468" lon="2.43781">
        <ele>820.13</ele>
        <time>2026-08-21T07:15:20.898Z</time>
      </trkpt>
      <trkpt lat="45.01469" lon="2.43783">
        <ele>820.31</ele>
        <time>2026-08-21T07:15:21.900Z</time>
      </trkpt>
      <trkpt lat="45.01472" lon="2.43785">
        <ele>820.43</ele>
        <time>2026-08-21T07:15:22.900Z</time>
      </trkpt>
      <trkpt lat="45.01474" lon="2.43787">
        <ele>820.6</ele>
        <time>2026-08-21T07:15:23.902Z</time>
      </trkpt>
      <trkpt lat="45.01475" lon="2.43789">
        <ele>820.65</ele>
        <time>2026-08-21T07:15:24.898Z</time>
      </trkpt>
      <trkpt lat="45.01477" lon="2.43792">
        <ele>820.69</ele>
        <time>2026-08-21T07:15:25.905Z</time>
      </trkpt>
      <trkpt lat="45.01479" lon="2.43795">
        <ele>820.73</ele>
        <time>2026-08-21T07:15:26.905Z</time>
      </trkpt>
      <trkpt lat="45.01481" lon="2.43797">
        <ele>820.81</ele>
        <time>2026-08-21T07:15:27.907Z</time>
      </trkpt>
      <trkpt lat="45.01482" lon="2.438">
        <ele>820.81</ele>
        <time>2026-08-21T07:15:28.908Z</time>
      </trkpt>
      <trkpt lat="45.01484" lon="2.43802">
        <ele>820.91</ele>
        <time>2026-08-21T07:15:29.909Z</time>
      </trkpt>
      <trkpt lat="45.01486" lon="2.43805">
        <ele>820.88</ele>
        <time>2026-08-21T07:15:30.911Z</time>
      </trkpt>
      <trkpt lat="45.01488" lon="2.43807">
        <ele>820.94</ele>
        <time>2026-08-21T07:15:31.862Z</time>
      </trkpt>
      <trkpt lat="45.0149" lon="2.4381">
        <ele>821.2</ele>
        <time>2026-08-21T07:15:32.913Z</time>
      </trkpt>
      <trkpt lat="45.01491" lon="2.43812">
        <ele>821.22</ele>
        <time>2026-08-21T07:15:33.913Z</time>
      </trkpt>
      <trkpt lat="45.01493" lon="2.43815">
        <ele>821.34</ele>
        <time>2026-08-21T07:15:34.738Z</time>
      </trkpt>
      <trkpt lat="45.01495" lon="2.43818">
        <ele>821.48</ele>
        <time>2026-08-21T07:15:35.915Z</time>
      </trkpt>
      <trkpt lat="45.01497" lon="2.43821">
        <ele>821.67</ele>
        <time>2026-08-21T07:15:36.915Z</time>
      </trkpt>
      <trkpt lat="45.01499" lon="2.43823">
        <ele>821.61</ele>
        <time>2026-08-21T07:15:37.917Z</time>
      </trkpt>
      <trkpt lat="45.01501" lon="2.43827">
        <ele>821.69</ele>
        <time>2026-08-21T07:15:38.561Z</time>
      </trkpt>
      <trkpt lat="45.01503" lon="2.4383">
        <ele>821.91</ele>
        <time>2026-08-21T07:15:39.626Z</time>
      </trkpt>
      <trkpt lat="45.01505" lon="2.43833">
        <ele>821.83</ele>
        <time>2026-08-21T07:15:40.918Z</time>
      </trkpt>
      <trkpt lat="45.01507" lon="2.43837">
        <ele>822.16</ele>
        <time>2026-08-21T07:15:41.613Z</time>
      </trkpt>
      <trkpt lat="45.0151" lon="2.4384">
        <ele>822.16</ele>
        <time>2026-08-21T07:15:42.919Z</time>
      </trkpt>
      <trkpt lat="45.01512" lon="2.43843">
        <ele>821.84</ele>
        <time>2026-08-21T07:15:43.557Z</time>
      </trkpt>
      <trkpt lat="45.01514" lon="2.43847">
        <ele>821.73</ele>
        <time>2026-08-21T07:15:44.595Z</time>
      </trkpt>
      <trkpt lat="45.01516" lon="2.43851">
        <ele>821.76</ele>
        <time>2026-08-21T07:15:45.886Z</time>
      </trkpt>
      <trkpt lat="45.01518" lon="2.43856">
        <ele>821.65</ele>
        <time>2026-08-21T07:15:46.921Z</time>
      </trkpt>
      <trkpt lat="45.0152" lon="2.4386">
        <ele>821.97</ele>
        <time>2026-08-21T07:15:47.922Z</time>
      </trkpt>
      <trkpt lat="45.01522" lon="2.43864">
        <ele>821.97</ele>
        <time>2026-08-21T07:15:48.923Z</time>
      </trkpt>
      <trkpt lat="45.01524" lon="2.43869">
        <ele>822.05</ele>
        <time>2026-08-21T07:15:49.925Z</time>
      </trkpt>
      <trkpt lat="45.01526" lon="2.43872">
        <ele>822.12</ele>
        <time>2026-08-21T07:15:50.925Z</time>
      </trkpt>
      <trkpt lat="45.01527" lon="2.43876">
        <ele>822.12</ele>
        <time>2026-08-21T07:15:51.926Z</time>
      </trkpt>
      <trkpt lat="45.01529" lon="2.4388">
        <ele>822.24</ele>
        <time>2026-08-21T07:15:52.543Z</time>
      </trkpt>
      <trkpt lat="45.0153" lon="2.43883">
        <ele>822.18</ele>
        <time>2026-08-21T07:15:53.579Z</time>
      </trkpt>
      <trkpt lat="45.01532" lon="2.43886">
        <ele>822.28</ele>
        <time>2026-08-21T07:15:54.929Z</time>
      </trkpt>
      <trkpt lat="45.01533" lon="2.43889">
        <ele>822.4</ele>
        <time>2026-08-21T07:15:55.024Z</time>
      </trkpt>
      <trkpt lat="45.01534" lon="2.4389">
        <ele>822.43</ele>
        <time>2026-08-21T07:15:56.930Z</time>
      </trkpt>
      <trkpt lat="45.01536" lon="2.43891">
        <ele>822.39</ele>
        <time>2026-08-21T07:15:57.932Z</time>
      </trkpt>
      <trkpt lat="45.01536" lon="2.43892">
        <ele>822.41</ele>
        <time>2026-08-21T07:15:58.933Z</time>
      </trkpt>
      <trkpt lat="45.0154" lon="2.43891">
        <ele>822.73</ele>
        <time>2026-08-21T07:16:19.556Z</time>
      </trkpt>
      <trkpt lat="45.01541" lon="2.43891">
        <ele>822.48</ele>
        <time>2026-08-21T07:16:20.556Z</time>
      </trkpt>
      <trkpt lat="45.0154" lon="2.43892">
        <ele>822.42</ele>
        <time>2026-08-21T07:16:32.195Z</time>
      </trkpt>
      <trkpt lat="45.01541" lon="2.43893">
        <ele>822.59</ele>
        <time>2026-08-21T07:20:55.208Z</time>
      </trkpt>
      <trkpt lat="45.01541" lon="2.43896">
        <ele>822.64</ele>
        <time>2026-08-21T07:20:57.243Z</time>
      </trkpt>
      <trkpt lat="45.01542" lon="2.43899">
        <ele>822.72</ele>
        <time>2026-08-21T07:21:01.956Z</time>
      </trkpt>
      <trkpt lat="45.01542" lon="2.439">
        <ele>822.77</ele>
        <time>2026-08-21T07:21:42.040Z</time>
      </trkpt>
      <trkpt lat="45.01543" lon="2.43905">
        <ele>822.74</ele>
        <time>2026-08-21T07:21:43.560Z</time>
      </trkpt>
      <trkpt lat="45.01544" lon="2.43907">
        <ele>822.76</ele>
        <time>2026-08-21T07:21:44.084Z</time>
      </trkpt>
      <trkpt lat="45.01546" lon="2.4391">
        <ele>822.8</ele>
        <time>2026-08-21T07:21:47.037Z</time>
      </trkpt>
      <trkpt lat="45.01547" lon="2.43911">
        <ele>822.8</ele>
        <time>2026-08-21T07:21:48.032Z</time>
      </trkpt>
      <trkpt lat="45.01548" lon="2.43913">
        <ele>822.8</ele>
        <time>2026-08-21T07:21:48.088Z</time>
      </trkpt>
      <trkpt lat="45.01548" lon="2.43915">
        <ele>822.69</ele>
        <time>2026-08-21T07:21:50.044Z</time>
      </trkpt>
      <trkpt lat="45.01549" lon="2.43918">
        <ele>822.64</ele>
        <time>2026-08-21T07:21:50.612Z</time>
      </trkpt>
      <trkpt lat="45.0155" lon="2.43921">
        <ele>822.63</ele>
        <time>2026-08-21T07:21:51.662Z</time>
      </trkpt>
      <trkpt lat="45.01552" lon="2.43924">
        <ele>822.63</ele>
        <time>2026-08-21T07:21:52.098Z</time>
      </trkpt>
      <trkpt lat="45.01553" lon="2.43926">
        <ele>822.65</ele>
        <time>2026-08-21T07:21:54.022Z</time>
      </trkpt>
      <trkpt lat="45.01555" lon="2.43928">
        <ele>822.66</ele>
        <time>2026-08-21T07:21:54.963Z</time>
      </trkpt>
      <trkpt lat="45.01557" lon="2.43931">
        <ele>822.68</ele>
        <time>2026-08-21T07:21:55.963Z</time>
      </trkpt>
      <trkpt lat="45.01559" lon="2.43934">
        <ele>822.67</ele>
        <time>2026-08-21T07:21:56.965Z</time>
      </trkpt>
      <trkpt lat="45.01561" lon="2.43937">
        <ele>822.57</ele>
        <time>2026-08-21T07:21:57.971Z</time>
      </trkpt>
      <trkpt lat="45.01563" lon="2.43939">
        <ele>822.65</ele>
        <time>2026-08-21T07:21:58.971Z</time>
      </trkpt>
      <trkpt lat="45.01565" lon="2.43942">
        <ele>822.59</ele>
        <time>2026-08-21T07:21:59.975Z</time>
      </trkpt>
      <trkpt lat="45.01568" lon="2.43944">
        <ele>822.6</ele>
        <time>2026-08-21T07:22:00.729Z</time>
      </trkpt>
      <trkpt lat="45.01569" lon="2.43947">
        <ele>822.44</ele>
        <time>2026-08-21T07:22:01.979Z</time>
      </trkpt>
      <trkpt lat="45.01572" lon="2.4395">
        <ele>822.3</ele>
        <time>2026-08-21T07:22:02.983Z</time>
      </trkpt>
      <trkpt lat="45.01574" lon="2.43953">
        <ele>822.26</ele>
        <time>2026-08-21T07:22:03.985Z</time>
      </trkpt>
      <trkpt lat="45.01576" lon="2.43956">
        <ele>822.05</ele>
        <time>2026-08-21T07:22:04.988Z</time>
      </trkpt>
      <trkpt lat="45.01578" lon="2.43959">
        <ele>821.98</ele>
        <time>2026-08-21T07:22:05.584Z</time>
      </trkpt>
      <trkpt lat="45.0158" lon="2.43963">
        <ele>822.04</ele>
        <time>2026-08-21T07:22:06.994Z</time>
      </trkpt>
      <trkpt lat="45.01582" lon="2.43966">
        <ele>821.99</ele>
        <time>2026-08-21T07:22:07.685Z</time>
      </trkpt>
      <trkpt lat="45.01583" lon="2.4397">
        <ele>821.87</ele>
        <time>2026-08-21T07:22:08.998Z</time>
      </trkpt>
      <trkpt lat="45.01585" lon="2.43974">
        <ele>821.84</ele>
        <time>2026-08-21T07:22:10Z</time>
      </trkpt>
      <trkpt lat="45.01587" lon="2.43977">
        <ele>822.07</ele>
        <time>2026-08-21T07:22:11.003Z</time>
      </trkpt>
      <trkpt lat="45.01588" lon="2.43981">
        <ele>822.05</ele>
        <time>2026-08-21T07:22:12.005Z</time>
      </trkpt>
      <trkpt lat="45.0159" lon="2.43985">
        <ele>822.09</ele>
        <time>2026-08-21T07:22:13.010Z</time>
      </trkpt>
      <trkpt lat="45.01592" lon="2.43988">
        <ele>822.06</ele>
        <time>2026-08-21T07:22:13.541Z</time>
      </trkpt>
      <trkpt lat="45.01594" lon="2.43992">
        <ele>821.82</ele>
        <time>2026-08-21T07:22:15.060Z</time>
      </trkpt>
      <trkpt lat="45.01595" lon="2.43995">
        <ele>821.88</ele>
        <time>2026-08-21T07:22:15.606Z</time>
      </trkpt>
      <trkpt lat="45.01597" lon="2.43998">
        <ele>821.98</ele>
        <time>2026-08-21T07:22:17.014Z</time>
      </trkpt>
      <trkpt lat="45.01597" lon="2.43999">
        <ele>821.88</ele>
        <time>2026-08-21T07:22:18.017Z</time>
      </trkpt>
      <trkpt lat="45.016" lon="2.44001">
        <ele>821.84</ele>
        <time>2026-08-21T07:22:26.099Z</time>
      </trkpt>
      <trkpt lat="45.01602" lon="2.43999">
        <ele>821.87</ele>
        <time>2026-08-21T07:22:29.139Z</time>
      </trkpt>
      <trkpt lat="45.01603" lon="2.44005">
        <ele>821.87</ele>
        <time>2026-08-21T07:22:54.084Z</time>
      </trkpt>
      <trkpt lat="45.01604" lon="2.44006">
        <ele>822.24</ele>
        <time>2026-08-21T07:22:55.086Z</time>
      </trkpt>
      <trkpt lat="45.01605" lon="2.44008">
        <ele>822.3</ele>
        <time>2026-08-21T07:22:56.087Z</time>
      </trkpt>
      <trkpt lat="45.01606" lon="2.44011">
        <ele>822.21</ele>
        <time>2026-08-21T07:22:57.089Z</time>
      </trkpt>
      <trkpt lat="45.01606" lon="2.44014">
        <ele>822.3</ele>
        <time>2026-08-21T07:22:58.092Z</time>
      </trkpt>
      <trkpt lat="45.01607" lon="2.44017">
        <ele>822.29</ele>
        <time>2026-08-21T07:22:59.093Z</time>
      </trkpt>
      <trkpt lat="45.01609" lon="2.44021">
        <ele>822.22</ele>
        <time>2026-08-21T07:23:00.094Z</time>
      </trkpt>
      <trkpt lat="45.0161" lon="2.44024">
        <ele>822.22</ele>
        <time>2026-08-21T07:23:01.097Z</time>
      </trkpt>
      <trkpt lat="45.01612" lon="2.44028">
        <ele>822.44</ele>
        <time>2026-08-21T07:23:02.099Z</time>
      </trkpt>
      <trkpt lat="45.01614" lon="2.44031">
        <ele>822.52</ele>
        <time>2026-08-21T07:23:03.158Z</time>
      </trkpt>
      <trkpt lat="45.01616" lon="2.44035">
        <ele>822.44</ele>
        <time>2026-08-21T07:23:04.102Z</time>
      </trkpt>
      <trkpt lat="45.01617" lon="2.44038">
        <ele>822.16</ele>
        <time>2026-08-21T07:23:04.214Z</time>
      </trkpt>
      <trkpt lat="45.01619" lon="2.44041">
        <ele>822.06</ele>
        <time>2026-08-21T07:23:06.106Z</time>
      </trkpt>
      <trkpt lat="45.0162" lon="2.44043">
        <ele>822</ele>
        <time>2026-08-21T07:23:07.109Z</time>
      </trkpt>
      <trkpt lat="45.01622" lon="2.44046">
        <ele>822.11</ele>
        <time>2026-08-21T07:23:08.110Z</time>
      </trkpt>
      <trkpt lat="45.01624" lon="2.44048">
        <ele>822.06</ele>
        <time>2026-08-21T07:23:09.111Z</time>
      </trkpt>
      <trkpt lat="45.01625" lon="2.4405">
        <ele>822</ele>
        <time>2026-08-21T07:23:10.034Z</time>
      </trkpt>
      <trkpt lat="45.01627" lon="2.44052">
        <ele>821.98</ele>
        <time>2026-08-21T07:23:11.116Z</time>
      </trkpt>
      <trkpt lat="45.01629" lon="2.44054">
        <ele>821.96</ele>
        <time>2026-08-21T07:23:12.160Z</time>
      </trkpt>
      <trkpt lat="45.0163" lon="2.44055">
        <ele>822</ele>
        <time>2026-08-21T07:23:12.214Z</time>
      </trkpt>
      <trkpt lat="45.01632" lon="2.44057">
        <ele>822.09</ele>
        <time>2026-08-21T07:23:14.123Z</time>
      </trkpt>
      <trkpt lat="45.01634" lon="2.44061">
        <ele>822.24</ele>
        <time>2026-08-21T07:23:26.203Z</time>
      </trkpt>
      <trkpt lat="45.01634" lon="2.44062">
        <ele>822.28</ele>
        <time>2026-08-21T07:23:27.213Z</time>
      </trkpt>
      <trkpt lat="45.01635" lon="2.44064">
        <ele>822.23</ele>
        <time>2026-08-21T07:23:28.207Z</time>
      </trkpt>
      <trkpt lat="45.01636" lon="2.44067">
        <ele>822.23</ele>
        <time>2026-08-21T07:23:30.193Z</time>
      </trkpt>
      <trkpt lat="45.01637" lon="2.4407">
        <ele>822.24</ele>
        <time>2026-08-21T07:23:30.224Z</time>
      </trkpt>
      <trkpt lat="45.01638" lon="2.44074">
        <ele>822.27</ele>
        <time>2026-08-21T07:23:32.188Z</time>
      </trkpt>
      <trkpt lat="45.0164" lon="2.44078">
        <ele>821.86</ele>
        <time>2026-08-21T07:23:32.233Z</time>
      </trkpt>
      <trkpt lat="45.01641" lon="2.44082">
        <ele>822.1</ele>
        <time>2026-08-21T07:23:33.273Z</time>
      </trkpt>
      <trkpt lat="45.01643" lon="2.44086">
        <ele>822.39</ele>
        <time>2026-08-21T07:23:34.903Z</time>
      </trkpt>
      <trkpt lat="45.01644" lon="2.4409">
        <ele>821.82</ele>
        <time>2026-08-21T07:23:35.226Z</time>
      </trkpt>
      <trkpt lat="45.01646" lon="2.44094">
        <ele>821.92</ele>
        <time>2026-08-21T07:23:37.198Z</time>
      </trkpt>
      <trkpt lat="45.01648" lon="2.44098">
        <ele>821.96</ele>
        <time>2026-08-21T07:23:37.800Z</time>
      </trkpt>
      <trkpt lat="45.01649" lon="2.44102">
        <ele>822.02</ele>
        <time>2026-08-21T07:23:38.248Z</time>
      </trkpt>
      <trkpt lat="45.01651" lon="2.44107">
        <ele>822.26</ele>
        <time>2026-08-21T07:23:39.274Z</time>
      </trkpt>
      <trkpt lat="45.01653" lon="2.4411">
        <ele>822.4</ele>
        <time>2026-08-21T07:23:41.191Z</time>
      </trkpt>
      <trkpt lat="45.01654" lon="2.44115">
        <ele>823.04</ele>
        <time>2026-08-21T07:23:41.271Z</time>
      </trkpt>
      <trkpt lat="45.01656" lon="2.44119">
        <ele>823.24</ele>
        <time>2026-08-21T07:23:42.766Z</time>
      </trkpt>
      <trkpt lat="45.01658" lon="2.44124">
        <ele>823.35</ele>
        <time>2026-08-21T07:23:44.214Z</time>
      </trkpt>
      <trkpt lat="45.0166" lon="2.44128">
        <ele>823.23</ele>
        <time>2026-08-21T07:23:44.733Z</time>
      </trkpt>
      <trkpt lat="45.01663" lon="2.44135">
        <ele>822.98</ele>
        <time>2026-08-21T07:23:46.202Z</time>
      </trkpt>
      <trkpt lat="45.01664" lon="2.4414">
        <ele>823.19</ele>
        <time>2026-08-21T07:23:47.253Z</time>
      </trkpt>
      <trkpt lat="45.01665" lon="2.44143">
        <ele>823.18</ele>
        <time>2026-08-21T07:23:48.238Z</time>
      </trkpt>
      <trkpt lat="45.01667" lon="2.44151">
        <ele>823.41</ele>
        <time>2026-08-21T07:23:50.229Z</time>
      </trkpt>
      <trkpt lat="45.01668" lon="2.44155">
        <ele>823.99</ele>
        <time>2026-08-21T07:23:50.914Z</time>
      </trkpt>
      <trkpt lat="45.01669" lon="2.44159">
        <ele>824.17</ele>
        <time>2026-08-21T07:23:52.242Z</time>
      </trkpt>
      <trkpt lat="45.0167" lon="2.44163">
        <ele>824.3</ele>
        <time>2026-08-21T07:23:54.238Z</time>
      </trkpt>
      <trkpt lat="45.01671" lon="2.44167">
        <ele>824.51</ele>
        <time>2026-08-21T07:23:54.239Z</time>
      </trkpt>
      <trkpt lat="45.01673" lon="2.44175">
        <ele>824.7</ele>
        <time>2026-08-21T07:23:56.238Z</time>
      </trkpt>
      <trkpt lat="45.01675" lon="2.44179">
        <ele>825.46</ele>
        <time>2026-08-21T07:23:57.006Z</time>
      </trkpt>
      <trkpt lat="45.01677" lon="2.44188">
        <ele>825.6</ele>
        <time>2026-08-21T07:23:59.233Z</time>
      </trkpt>
      <trkpt lat="45.0168" lon="2.44195">
        <ele>825.95</ele>
        <time>2026-08-21T07:24:01.234Z</time>
      </trkpt>
      <trkpt lat="45.01681" lon="2.44199">
        <ele>826.35</ele>
        <time>2026-08-21T07:24:02.211Z</time>
      </trkpt>
      <trkpt lat="45.01683" lon="2.44203">
        <ele>826.45</ele>
        <time>2026-08-21T07:24:03.213Z</time>
      </trkpt>
      <trkpt lat="45.01685" lon="2.4421">
        <ele>826.43</ele>
        <time>2026-08-21T07:24:05.239Z</time>
      </trkpt>
      <trkpt lat="45.01687" lon="2.44214">
        <ele>826.55</ele>
        <time>2026-08-21T07:24:06.216Z</time>
      </trkpt>
      <trkpt lat="45.01688" lon="2.44219">
        <ele>826.75</ele>
        <time>2026-08-21T07:24:07.217Z</time>
      </trkpt>
      <trkpt lat="45.01689" lon="2.44223">
        <ele>826.8</ele>
        <time>2026-08-21T07:24:08.221Z</time>
      </trkpt>
      <trkpt lat="45.01691" lon="2.44227">
        <ele>827</ele>
        <time>2026-08-21T07:24:09.229Z</time>
      </trkpt>
      <trkpt lat="45.01692" lon="2.44232">
        <ele>826.93</ele>
        <time>2026-08-21T07:24:09.839Z</time>
      </trkpt>
      <trkpt lat="45.01694" lon="2.44237">
        <ele>827.07</ele>
        <time>2026-08-21T07:24:11.227Z</time>
      </trkpt>
      <trkpt lat="45.01696" lon="2.44241">
        <ele>827.13</ele>
        <time>2026-08-21T07:24:12.229Z</time>
      </trkpt>
      <trkpt lat="45.01699" lon="2.44249">
        <ele>827.23</ele>
        <time>2026-08-21T07:24:14.231Z</time>
      </trkpt>
      <trkpt lat="45.01701" lon="2.44254">
        <ele>827.14</ele>
        <time>2026-08-21T07:24:14.849Z</time>
      </trkpt>
      <trkpt lat="45.01702" lon="2.44259">
        <ele>827.19</ele>
        <time>2026-08-21T07:24:16.234Z</time>
      </trkpt>
      <trkpt lat="45.01703" lon="2.44263">
        <ele>826.99</ele>
        <time>2026-08-21T07:24:17.235Z</time>
      </trkpt>
      <trkpt lat="45.01704" lon="2.44268">
        <ele>826.89</ele>
        <time>2026-08-21T07:24:18.238Z</time>
      </trkpt>
      <trkpt lat="45.01705" lon="2.44272">
        <ele>826.95</ele>
        <time>2026-08-21T07:24:18.843Z</time>
      </trkpt>
      <trkpt lat="45.01707" lon="2.44276">
        <ele>827.02</ele>
        <time>2026-08-21T07:24:20.239Z</time>
      </trkpt>
      <trkpt lat="45.01708" lon="2.4428">
        <ele>826.97</ele>
        <time>2026-08-21T07:24:21.244Z</time>
      </trkpt>
      <trkpt lat="45.01709" lon="2.44284">
        <ele>826.86</ele>
        <time>2026-08-21T07:24:22.244Z</time>
      </trkpt>
      <trkpt lat="45.01711" lon="2.44288">
        <ele>826.84</ele>
        <time>2026-08-21T07:24:23.245Z</time>
      </trkpt>
      <trkpt lat="45.01712" lon="2.44293">
        <ele>826.74</ele>
        <time>2026-08-21T07:24:24.246Z</time>
      </trkpt>
      <trkpt lat="45.01715" lon="2.44302">
        <ele>826.86</ele>
        <time>2026-08-21T07:24:26.245Z</time>
      </trkpt>
      <trkpt lat="45.01717" lon="2.44306">
        <ele>826.31</ele>
        <time>2026-08-21T07:24:27.254Z</time>
      </trkpt>
      <trkpt lat="45.01719" lon="2.44311">
        <ele>826.3</ele>
        <time>2026-08-21T07:24:28.251Z</time>
      </trkpt>
      <trkpt lat="45.01722" lon="2.44315">
        <ele>826.61</ele>
        <time>2026-08-21T07:24:29.254Z</time>
      </trkpt>
      <trkpt lat="45.01724" lon="2.44319">
        <ele>825.33</ele>
        <time>2026-08-21T07:24:30.256Z</time>
      </trkpt>
      <trkpt lat="45.0173" lon="2.44328">
        <ele>825.57</ele>
        <time>2026-08-21T07:24:32.244Z</time>
      </trkpt>
      <trkpt lat="45.01733" lon="2.44331">
        <ele>825.39</ele>
        <time>2026-08-21T07:24:33.262Z</time>
      </trkpt>
      <trkpt lat="45.01736" lon="2.44333">
        <ele>825.4</ele>
        <time>2026-08-21T07:24:34.262Z</time>
      </trkpt>
      <trkpt lat="45.01739" lon="2.44335">
        <ele>825.48</ele>
        <time>2026-08-21T07:24:35.192Z</time>
      </trkpt>
      <trkpt lat="45.01742" lon="2.44338">
        <ele>825.49</ele>
        <time>2026-08-21T07:24:35.980Z</time>
      </trkpt>
      <trkpt lat="45.01745" lon="2.4434">
        <ele>825.59</ele>
        <time>2026-08-21T07:24:37.060Z</time>
      </trkpt>
      <trkpt lat="45.01748" lon="2.44343">
        <ele>825.64</ele>
        <time>2026-08-21T07:24:38.102Z</time>
      </trkpt>
      <trkpt lat="45.01751" lon="2.44346">
        <ele>825.57</ele>
        <time>2026-08-21T07:24:39.159Z</time>
      </trkpt>
      <trkpt lat="45.01755" lon="2.44348">
        <ele>825.58</ele>
        <time>2026-08-21T07:24:40.144Z</time>
      </trkpt>
      <trkpt lat="45.01758" lon="2.44351">
        <ele>825.47</ele>
        <time>2026-08-21T07:24:41.183Z</time>
      </trkpt>
      <trkpt lat="45.01762" lon="2.44354">
        <ele>825.53</ele>
        <time>2026-08-21T07:24:42.121Z</time>
      </trkpt>
      <trkpt lat="45.01766" lon="2.44357">
        <ele>825.37</ele>
        <time>2026-08-21T07:24:43.112Z</time>
      </trkpt>
      <trkpt lat="45.01769" lon="2.4436">
        <ele>825.24</ele>
        <time>2026-08-21T07:24:44.134Z</time>
      </trkpt>
      <trkpt lat="45.01772" lon="2.44363">
        <ele>825.2</ele>
        <time>2026-08-21T07:24:45.155Z</time>
      </trkpt>
      <trkpt lat="45.01775" lon="2.44366">
        <ele>825.05</ele>
        <time>2026-08-21T07:24:46.140Z</time>
      </trkpt>
      <trkpt lat="45.01778" lon="2.44369">
        <ele>824.88</ele>
        <time>2026-08-21T07:24:47.167Z</time>
      </trkpt>
      <trkpt lat="45.01782" lon="2.44372">
        <ele>824.84</ele>
        <time>2026-08-21T07:24:48.161Z</time>
      </trkpt>
      <trkpt lat="45.01785" lon="2.44376">
        <ele>824.8</ele>
        <time>2026-08-21T07:24:49.149Z</time>
      </trkpt>
      <trkpt lat="45.01788" lon="2.44379">
        <ele>825.06</ele>
        <time>2026-08-21T07:24:50.191Z</time>
      </trkpt>
      <trkpt lat="45.01791" lon="2.44382">
        <ele>824.77</ele>
        <time>2026-08-21T07:24:51.122Z</time>
      </trkpt>
      <trkpt lat="45.01794" lon="2.44385">
        <ele>824.8</ele>
        <time>2026-08-21T07:24:51.911Z</time>
      </trkpt>
      <trkpt lat="45.01796" lon="2.44388">
        <ele>824.69</ele>
        <time>2026-08-21T07:24:53.133Z</time>
      </trkpt>
      <trkpt lat="45.01799" lon="2.4439">
        <ele>824.75</ele>
        <time>2026-08-21T07:24:54.282Z</time>
      </trkpt>
      <trkpt lat="45.01802" lon="2.44393">
        <ele>824.71</ele>
        <time>2026-08-21T07:24:54.301Z</time>
      </trkpt>
      <trkpt lat="45.01804" lon="2.44396">
        <ele>824.77</ele>
        <time>2026-08-21T07:24:56.286Z</time>
      </trkpt>
      <trkpt lat="45.01807" lon="2.44399">
        <ele>824.68</ele>
        <time>2026-08-21T07:24:56.294Z</time>
      </trkpt>
      <trkpt lat="45.0181" lon="2.44402">
        <ele>824.05</ele>
        <time>2026-08-21T07:24:58.114Z</time>
      </trkpt>
      <trkpt lat="45.01812" lon="2.44405">
        <ele>823.84</ele>
        <time>2026-08-21T07:24:59.214Z</time>
      </trkpt>
      <trkpt lat="45.01815" lon="2.44408">
        <ele>823.84</ele>
        <time>2026-08-21T07:25:00.290Z</time>
      </trkpt>
      <trkpt lat="45.01817" lon="2.44412">
        <ele>824.15</ele>
        <time>2026-08-21T07:25:00.340Z</time>
      </trkpt>
      <trkpt lat="45.0182" lon="2.44416">
        <ele>824.34</ele>
        <time>2026-08-21T07:25:02.291Z</time>
      </trkpt>
      <trkpt lat="45.01823" lon="2.44419">
        <ele>824.63</ele>
        <time>2026-08-21T07:25:02.877Z</time>
      </trkpt>
      <trkpt lat="45.01825" lon="2.44422">
        <ele>824.76</ele>
        <time>2026-08-21T07:25:04.295Z</time>
      </trkpt>
      <trkpt lat="45.01828" lon="2.44426">
        <ele>825.07</ele>
        <time>2026-08-21T07:25:05.296Z</time>
      </trkpt>
      <trkpt lat="45.0183" lon="2.44429">
        <ele>825.4</ele>
        <time>2026-08-21T07:25:06.297Z</time>
      </trkpt>
      <trkpt lat="45.01832" lon="2.44433">
        <ele>825.89</ele>
        <time>2026-08-21T07:25:06.391Z</time>
      </trkpt>
      <trkpt lat="45.01834" lon="2.44436">
        <ele>826.11</ele>
        <time>2026-08-21T07:25:07.952Z</time>
      </trkpt>
      <trkpt lat="45.01836" lon="2.44439">
        <ele>825.85</ele>
        <time>2026-08-21T07:25:09.200Z</time>
      </trkpt>
      <trkpt lat="45.01838" lon="2.44443">
        <ele>825.95</ele>
        <time>2026-08-21T07:25:10.201Z</time>
      </trkpt>
      <trkpt lat="45.0184" lon="2.44447">
        <ele>826.07</ele>
        <time>2026-08-21T07:25:11.204Z</time>
      </trkpt>
      <trkpt lat="45.01842" lon="2.4445">
        <ele>826.4</ele>
        <time>2026-08-21T07:25:12.305Z</time>
      </trkpt>
      <trkpt lat="45.01844" lon="2.44453">
        <ele>826.67</ele>
        <time>2026-08-21T07:25:12.919Z</time>
      </trkpt>
      <trkpt lat="45.01846" lon="2.44456">
        <ele>826.89</ele>
        <time>2026-08-21T07:25:14.306Z</time>
      </trkpt>
      <trkpt lat="45.01848" lon="2.44459">
        <ele>827.2</ele>
        <time>2026-08-21T07:25:15.308Z</time>
      </trkpt>
      <trkpt lat="45.0185" lon="2.44462">
        <ele>827.46</ele>
        <time>2026-08-21T07:25:16.208Z</time>
      </trkpt>
      <trkpt lat="45.01851" lon="2.44465">
        <ele>827.78</ele>
        <time>2026-08-21T07:25:17.309Z</time>
      </trkpt>
      <trkpt lat="45.01854" lon="2.44468">
        <ele>828.03</ele>
        <time>2026-08-21T07:25:17.926Z</time>
      </trkpt>
      <trkpt lat="45.01855" lon="2.44471">
        <ele>828.3</ele>
        <time>2026-08-21T07:25:18.905Z</time>
      </trkpt>
      <trkpt lat="45.01857" lon="2.44474">
        <ele>828.52</ele>
        <time>2026-08-21T07:25:20.312Z</time>
      </trkpt>
      <trkpt lat="45.01859" lon="2.44477">
        <ele>828.86</ele>
        <time>2026-08-21T07:25:21.214Z</time>
      </trkpt>
      <trkpt lat="45.0186" lon="2.4448">
        <ele>828.98</ele>
        <time>2026-08-21T07:25:22.216Z</time>
      </trkpt>
      <trkpt lat="45.01862" lon="2.44482">
        <ele>829.25</ele>
        <time>2026-08-21T07:25:23.217Z</time>
      </trkpt>
      <trkpt lat="45.01864" lon="2.44484">
        <ele>829.36</ele>
        <time>2026-08-21T07:25:24.220Z</time>
      </trkpt>
      <trkpt lat="45.01865" lon="2.44485">
        <ele>829.5</ele>
        <time>2026-08-21T07:25:25.220Z</time>
      </trkpt>
      <trkpt lat="45.01867" lon="2.44487">
        <ele>829.61</ele>
        <time>2026-08-21T07:25:26.223Z</time>
      </trkpt>
      <trkpt lat="45.01869" lon="2.44489">
        <ele>829.85</ele>
        <time>2026-08-21T07:25:27.223Z</time>
      </trkpt>
      <trkpt lat="45.01871" lon="2.44492">
        <ele>829.97</ele>
        <time>2026-08-21T07:25:28.224Z</time>
      </trkpt>
      <trkpt lat="45.01872" lon="2.44494">
        <ele>830.14</ele>
        <time>2026-08-21T07:25:29.226Z</time>
      </trkpt>
      <trkpt lat="45.01874" lon="2.44497">
        <ele>830.3</ele>
        <time>2026-08-21T07:25:30.227Z</time>
      </trkpt>
      <trkpt lat="45.01875" lon="2.445">
        <ele>830.45</ele>
        <time>2026-08-21T07:25:31.228Z</time>
      </trkpt>
      <trkpt lat="45.01876" lon="2.44502">
        <ele>830.74</ele>
        <time>2026-08-21T07:25:32.231Z</time>
      </trkpt>
      <trkpt lat="45.01877" lon="2.44504">
        <ele>830.98</ele>
        <time>2026-08-21T07:25:33.232Z</time>
      </trkpt>
      <trkpt lat="45.01878" lon="2.44507">
        <ele>831.23</ele>
        <time>2026-08-21T07:25:34.234Z</time>
      </trkpt>
      <trkpt lat="45.01879" lon="2.44509">
        <ele>831.79</ele>
        <time>2026-08-21T07:25:35.236Z</time>
      </trkpt>
      <trkpt lat="45.0188" lon="2.44511">
        <ele>831.89</ele>
        <time>2026-08-21T07:25:36.237Z</time>
      </trkpt>
      <trkpt lat="45.01881" lon="2.44513">
        <ele>832.08</ele>
        <time>2026-08-21T07:25:37.239Z</time>
      </trkpt>
      <trkpt lat="45.01883" lon="2.44516">
        <ele>832.26</ele>
        <time>2026-08-21T07:25:38.241Z</time>
      </trkpt>
      <trkpt lat="45.01885" lon="2.44519">
        <ele>832.34</ele>
        <time>2026-08-21T07:25:39.243Z</time>
      </trkpt>
      <trkpt lat="45.01886" lon="2.44522">
        <ele>832.67</ele>
        <time>2026-08-21T07:25:40.245Z</time>
      </trkpt>
      <trkpt lat="45.01887" lon="2.44525">
        <ele>832.88</ele>
        <time>2026-08-21T07:25:41.247Z</time>
      </trkpt>
      <trkpt lat="45.01889" lon="2.44527">
        <ele>833.21</ele>
        <time>2026-08-21T07:25:42.249Z</time>
      </trkpt>
      <trkpt lat="45.01891" lon="2.4453">
        <ele>833.31</ele>
        <time>2026-08-21T07:25:43.252Z</time>
      </trkpt>
      <trkpt lat="45.01892" lon="2.44532">
        <ele>833.48</ele>
        <time>2026-08-21T07:25:44.254Z</time>
      </trkpt>
      <trkpt lat="45.01894" lon="2.44535">
        <ele>833.6</ele>
        <time>2026-08-21T07:25:45.255Z</time>
      </trkpt>
      <trkpt lat="45.01895" lon="2.44537">
        <ele>833.71</ele>
        <time>2026-08-21T07:25:46.161Z</time>
      </trkpt>
      <trkpt lat="45.01897" lon="2.4454">
        <ele>833.87</ele>
        <time>2026-08-21T07:25:47.260Z</time>
      </trkpt>
      <trkpt lat="45.01899" lon="2.44542">
        <ele>834.04</ele>
        <time>2026-08-21T07:25:48.262Z</time>
      </trkpt>
      <trkpt lat="45.01901" lon="2.44545">
        <ele>834.22</ele>
        <time>2026-08-21T07:25:49.264Z</time>
      </trkpt>
      <trkpt lat="45.01902" lon="2.44547">
        <ele>834.39</ele>
        <time>2026-08-21T07:25:50.267Z</time>
      </trkpt>
      <trkpt lat="45.01904" lon="2.44549">
        <ele>834.54</ele>
        <time>2026-08-21T07:25:51.269Z</time>
      </trkpt>
      <trkpt lat="45.01905" lon="2.44552">
        <ele>834.72</ele>
        <time>2026-08-21T07:25:52.271Z</time>
      </trkpt>
      <trkpt lat="45.01907" lon="2.44554">
        <ele>834.93</ele>
        <time>2026-08-21T07:25:53.274Z</time>
      </trkpt>
      <trkpt lat="45.01909" lon="2.44557">
        <ele>835.12</ele>
        <time>2026-08-21T07:25:54.276Z</time>
      </trkpt>
      <trkpt lat="45.0191" lon="2.4456">
        <ele>835.4</ele>
        <time>2026-08-21T07:25:55.188Z</time>
      </trkpt>
      <trkpt lat="45.01911" lon="2.44562">
        <ele>835.56</ele>
        <time>2026-08-21T07:25:56.281Z</time>
      </trkpt>
      <trkpt lat="45.01912" lon="2.44564">
        <ele>835.89</ele>
        <time>2026-08-21T07:25:57.283Z</time>
      </trkpt>
      <trkpt lat="45.01914" lon="2.44567">
        <ele>836.2</ele>
        <time>2026-08-21T07:25:58.285Z</time>
      </trkpt>
      <trkpt lat="45.01916" lon="2.4457">
        <ele>836.52</ele>
        <time>2026-08-21T07:25:59.287Z</time>
      </trkpt>
      <trkpt lat="45.01918" lon="2.44572">
        <ele>836.79</ele>
        <time>2026-08-21T07:26:00.289Z</time>
      </trkpt>
      <trkpt lat="45.0192" lon="2.44574">
        <ele>836.94</ele>
        <time>2026-08-21T07:26:01.291Z</time>
      </trkpt>
      <trkpt lat="45.01921" lon="2.44576">
        <ele>837.16</ele>
        <time>2026-08-21T07:26:02.293Z</time>
      </trkpt>
      <trkpt lat="45.01923" lon="2.44578">
        <ele>837.17</ele>
        <time>2026-08-21T07:26:03.333Z</time>
      </trkpt>
      <trkpt lat="45.01924" lon="2.4458">
        <ele>837.32</ele>
        <time>2026-08-21T07:26:04.249Z</time>
      </trkpt>
      <trkpt lat="45.01926" lon="2.44582">
        <ele>837.52</ele>
        <time>2026-08-21T07:26:05.300Z</time>
      </trkpt>
      <trkpt lat="45.01927" lon="2.44584">
        <ele>837.72</ele>
        <time>2026-08-21T07:26:06.302Z</time>
      </trkpt>
      <trkpt lat="45.01929" lon="2.44586">
        <ele>837.9</ele>
        <time>2026-08-21T07:26:07.304Z</time>
      </trkpt>
      <trkpt lat="45.01931" lon="2.44587">
        <ele>838.15</ele>
        <time>2026-08-21T07:26:08.307Z</time>
      </trkpt>
      <trkpt lat="45.01932" lon="2.44588">
        <ele>838.25</ele>
        <time>2026-08-21T07:26:09.307Z</time>
      </trkpt>
      <trkpt lat="45.01934" lon="2.4459">
        <ele>838.58</ele>
        <time>2026-08-21T07:26:10.309Z</time>
      </trkpt>
      <trkpt lat="45.01936" lon="2.44591">
        <ele>838.75</ele>
        <time>2026-08-21T07:26:11.312Z</time>
      </trkpt>
      <trkpt lat="45.01936" lon="2.44592">
        <ele>838.98</ele>
        <time>2026-08-21T07:26:11.371Z</time>
      </trkpt>
      <trkpt lat="45.01939" lon="2.44591">
        <ele>839.51</ele>
        <time>2026-08-21T07:26:18.199Z</time>
      </trkpt>
      <trkpt lat="45.01939" lon="2.44592">
        <ele>839.99</ele>
        <time>2026-08-21T07:26:23.213Z</time>
      </trkpt>
      <trkpt lat="45.0194" lon="2.44596">
        <ele>840.22</ele>
        <time>2026-08-21T07:26:46.901Z</time>
      </trkpt>
      <trkpt lat="45.01939" lon="2.44597">
        <ele>840.16</ele>
        <time>2026-08-21T07:26:47.922Z</time>
      </trkpt>
      <trkpt lat="45.0194" lon="2.44597">
        <ele>840.23</ele>
        <time>2026-08-21T07:26:48.926Z</time>
      </trkpt>
      <trkpt lat="45.0194" lon="2.44599">
        <ele>840.26</ele>
        <time>2026-08-21T07:26:50.890Z</time>
      </trkpt>
      <trkpt lat="45.01941" lon="2.44602">
        <ele>840.15</ele>
        <time>2026-08-21T07:26:51.422Z</time>
      </trkpt>
      <trkpt lat="45.01943" lon="2.44605">
        <ele>839.99</ele>
        <time>2026-08-21T07:26:52.443Z</time>
      </trkpt>
      <trkpt lat="45.01945" lon="2.4461">
        <ele>840.03</ele>
        <time>2026-08-21T07:26:53.910Z</time>
      </trkpt>
      <trkpt lat="45.01948" lon="2.44615">
        <ele>840.32</ele>
        <time>2026-08-21T07:26:54.454Z</time>
      </trkpt>
      <trkpt lat="45.0195" lon="2.44619">
        <ele>840.6</ele>
        <time>2026-08-21T07:26:55.479Z</time>
      </trkpt>
      <trkpt lat="45.01952" lon="2.44624">
        <ele>841.06</ele>
        <time>2026-08-21T07:26:56.441Z</time>
      </trkpt>
      <trkpt lat="45.01954" lon="2.44627">
        <ele>841.31</ele>
        <time>2026-08-21T07:26:57.932Z</time>
      </trkpt>
      <trkpt lat="45.01956" lon="2.4463">
        <ele>841.63</ele>
        <time>2026-08-21T07:26:58.487Z</time>
      </trkpt>
      <trkpt lat="45.01957" lon="2.44634">
        <ele>841.84</ele>
        <time>2026-08-21T07:26:59.489Z</time>
      </trkpt>
      <trkpt lat="45.0196" lon="2.44637">
        <ele>841.92</ele>
        <time>2026-08-21T07:27:00.038Z</time>
      </trkpt>
      <trkpt lat="45.01961" lon="2.44641">
        <ele>842.31</ele>
        <time>2026-08-21T07:27:01.906Z</time>
      </trkpt>
      <trkpt lat="45.01963" lon="2.44644">
        <ele>842.53</ele>
        <time>2026-08-21T07:27:02.846Z</time>
      </trkpt>
      <trkpt lat="45.01965" lon="2.44647">
        <ele>842.71</ele>
        <time>2026-08-21T07:27:03.850Z</time>
      </trkpt>
      <trkpt lat="45.01967" lon="2.4465">
        <ele>843.09</ele>
        <time>2026-08-21T07:27:04.445Z</time>
      </trkpt>
      <trkpt lat="45.01968" lon="2.44653">
        <ele>843.44</ele>
        <time>2026-08-21T07:27:05.856Z</time>
      </trkpt>
      <trkpt lat="45.0197" lon="2.44656">
        <ele>843.59</ele>
        <time>2026-08-21T07:27:06.858Z</time>
      </trkpt>
      <trkpt lat="45.01972" lon="2.44659">
        <ele>843.81</ele>
        <time>2026-08-21T07:27:07.860Z</time>
      </trkpt>
      <trkpt lat="45.01973" lon="2.44663">
        <ele>844.22</ele>
        <time>2026-08-21T07:27:08.862Z</time>
      </trkpt>
      <trkpt lat="45.01975" lon="2.44665">
        <ele>844.58</ele>
        <time>2026-08-21T07:27:09.866Z</time>
      </trkpt>
      <trkpt lat="45.01977" lon="2.44668">
        <ele>844.79</ele>
        <time>2026-08-21T07:27:10.869Z</time>
      </trkpt>
      <trkpt lat="45.01979" lon="2.44671">
        <ele>845.35</ele>
        <time>2026-08-21T07:27:11.874Z</time>
      </trkpt>
      <trkpt lat="45.0198" lon="2.44674">
        <ele>845.63</ele>
        <time>2026-08-21T07:27:12.877Z</time>
      </trkpt>
      <trkpt lat="45.01982" lon="2.44677">
        <ele>845.9</ele>
        <time>2026-08-21T07:27:13.901Z</time>
      </trkpt>
      <trkpt lat="45.01983" lon="2.4468">
        <ele>846.16</ele>
        <time>2026-08-21T07:27:14.887Z</time>
      </trkpt>
      <trkpt lat="45.01985" lon="2.44683">
        <ele>846.92</ele>
        <time>2026-08-21T07:27:15.886Z</time>
      </trkpt>
      <trkpt lat="45.01987" lon="2.44687">
        <ele>846.33</ele>
        <time>2026-08-21T07:27:16.890Z</time>
      </trkpt>
      <trkpt lat="45.01988" lon="2.44689">
        <ele>846.99</ele>
        <time>2026-08-21T07:27:17.893Z</time>
      </trkpt>
      <trkpt lat="45.0199" lon="2.44692">
        <ele>847.43</ele>
        <time>2026-08-21T07:27:18.752Z</time>
      </trkpt>
      <trkpt lat="45.01992" lon="2.44695">
        <ele>847.77</ele>
        <time>2026-08-21T07:27:19.900Z</time>
      </trkpt>
      <trkpt lat="45.01993" lon="2.44697">
        <ele>848.25</ele>
        <time>2026-08-21T07:27:20.904Z</time>
      </trkpt>
      <trkpt lat="45.01995" lon="2.44699">
        <ele>848.71</ele>
        <time>2026-08-21T07:27:21.952Z</time>
      </trkpt>
      <trkpt lat="45.01997" lon="2.44702">
        <ele>848.7</ele>
        <time>2026-08-21T07:27:22.908Z</time>
      </trkpt>
      <trkpt lat="45.01999" lon="2.44704">
        <ele>848.89</ele>
        <time>2026-08-21T07:27:23.462Z</time>
      </trkpt>
      <trkpt lat="45.02" lon="2.44706">
        <ele>849.31</ele>
        <time>2026-08-21T07:27:24.785Z</time>
      </trkpt>
      <trkpt lat="45.02002" lon="2.44708">
        <ele>849.66</ele>
        <time>2026-08-21T07:27:25.918Z</time>
      </trkpt>
      <trkpt lat="45.02004" lon="2.4471">
        <ele>850.03</ele>
        <time>2026-08-21T07:27:26.920Z</time>
      </trkpt>
      <trkpt lat="45.02005" lon="2.44712">
        <ele>850.33</ele>
        <time>2026-08-21T07:27:27.756Z</time>
      </trkpt>
      <trkpt lat="45.02007" lon="2.44714">
        <ele>850.55</ele>
        <time>2026-08-21T07:27:28.769Z</time>
      </trkpt>
      <trkpt lat="45.02008" lon="2.44716">
        <ele>850.87</ele>
        <time>2026-08-21T07:27:29.928Z</time>
      </trkpt>
      <trkpt lat="45.02011" lon="2.44718">
        <ele>850.92</ele>
        <time>2026-08-21T07:27:30.931Z</time>
      </trkpt>
      <trkpt lat="45.02013" lon="2.44721">
        <ele>850.76</ele>
        <time>2026-08-21T07:27:31.934Z</time>
      </trkpt>
      <trkpt lat="45.02015" lon="2.44723">
        <ele>850.88</ele>
        <time>2026-08-21T07:27:32.918Z</time>
      </trkpt>
      <trkpt lat="45.02016" lon="2.44725">
        <ele>851.07</ele>
        <time>2026-08-21T07:27:33.544Z</time>
      </trkpt>
      <trkpt lat="45.02018" lon="2.44727">
        <ele>851.16</ele>
        <time>2026-08-21T07:27:34.022Z</time>
      </trkpt>
      <trkpt lat="45.0202" lon="2.44729">
        <ele>851.58</ele>
        <time>2026-08-21T07:27:35.765Z</time>
      </trkpt>
      <trkpt lat="45.02021" lon="2.44731">
        <ele>851.82</ele>
        <time>2026-08-21T07:27:36.754Z</time>
      </trkpt>
      <trkpt lat="45.02024" lon="2.44733">
        <ele>852.32</ele>
        <time>2026-08-21T07:27:37.028Z</time>
      </trkpt>
      <trkpt lat="45.02026" lon="2.44735">
        <ele>852.45</ele>
        <time>2026-08-21T07:27:38.011Z</time>
      </trkpt>
      <trkpt lat="45.02028" lon="2.44737">
        <ele>852.58</ele>
        <time>2026-08-21T07:27:39.737Z</time>
      </trkpt>
      <trkpt lat="45.0203" lon="2.44739">
        <ele>852.47</ele>
        <time>2026-08-21T07:27:40.966Z</time>
      </trkpt>
      <trkpt lat="45.02032" lon="2.44741">
        <ele>852.59</ele>
        <time>2026-08-21T07:27:41.465Z</time>
      </trkpt>
      <trkpt lat="45.02034" lon="2.44744">
        <ele>852.55</ele>
        <time>2026-08-21T07:27:42.966Z</time>
      </trkpt>
      <trkpt lat="45.02036" lon="2.44745">
        <ele>852.7</ele>
        <time>2026-08-21T07:27:43.814Z</time>
      </trkpt>
      <trkpt lat="45.02038" lon="2.44748">
        <ele>852.79</ele>
        <time>2026-08-21T07:27:44.013Z</time>
      </trkpt>
      <trkpt lat="45.02039" lon="2.4475">
        <ele>852.81</ele>
        <time>2026-08-21T07:27:45.825Z</time>
      </trkpt>
      <trkpt lat="45.02041" lon="2.44752">
        <ele>852.97</ele>
        <time>2026-08-21T07:27:46.958Z</time>
      </trkpt>
      <trkpt lat="45.02042" lon="2.44755">
        <ele>852.98</ele>
        <time>2026-08-21T07:27:47.013Z</time>
      </trkpt>
      <trkpt lat="45.02044" lon="2.44758">
        <ele>853.22</ele>
        <time>2026-08-21T07:27:48.980Z</time>
      </trkpt>
      <trkpt lat="45.02046" lon="2.44761">
        <ele>853.5</ele>
        <time>2026-08-21T07:27:49.059Z</time>
      </trkpt>
      <trkpt lat="45.02047" lon="2.44764">
        <ele>853.67</ele>
        <time>2026-08-21T07:27:50.885Z</time>
      </trkpt>
      <trkpt lat="45.02049" lon="2.44767">
        <ele>853.89</ele>
        <time>2026-08-21T07:27:51.888Z</time>
      </trkpt>
      <trkpt lat="45.0205" lon="2.44769">
        <ele>854</ele>
        <time>2026-08-21T07:27:52.890Z</time>
      </trkpt>
      <trkpt lat="45.02052" lon="2.44772">
        <ele>853.96</ele>
        <time>2026-08-21T07:27:53.893Z</time>
      </trkpt>
      <trkpt lat="45.02054" lon="2.44775">
        <ele>854.24</ele>
        <time>2026-08-21T07:27:54.893Z</time>
      </trkpt>
      <trkpt lat="45.02055" lon="2.44777">
        <ele>854.58</ele>
        <time>2026-08-21T07:27:55.911Z</time>
      </trkpt>
      <trkpt lat="45.02056" lon="2.4478">
        <ele>854.44</ele>
        <time>2026-08-21T07:27:56.898Z</time>
      </trkpt>
      <trkpt lat="45.02057" lon="2.44784">
        <ele>854.62</ele>
        <time>2026-08-21T07:27:57.900Z</time>
      </trkpt>
      <trkpt lat="45.02058" lon="2.44786">
        <ele>854.75</ele>
        <time>2026-08-21T07:27:58.900Z</time>
      </trkpt>
      <trkpt lat="45.0206" lon="2.44789">
        <ele>854.81</ele>
        <time>2026-08-21T07:27:59.904Z</time>
      </trkpt>
      <trkpt lat="45.02061" lon="2.44791">
        <ele>854.78</ele>
        <time>2026-08-21T07:28:00.904Z</time>
      </trkpt>
      <trkpt lat="45.02062" lon="2.44794">
        <ele>854.83</ele>
        <time>2026-08-21T07:28:00.987Z</time>
      </trkpt>
      <trkpt lat="45.02064" lon="2.44798">
        <ele>854.95</ele>
        <time>2026-08-21T07:28:02.908Z</time>
      </trkpt>
      <trkpt lat="45.02065" lon="2.448">
        <ele>855.02</ele>
        <time>2026-08-21T07:28:03.910Z</time>
      </trkpt>
      <trkpt lat="45.02066" lon="2.44803">
        <ele>855.11</ele>
        <time>2026-08-21T07:28:04.917Z</time>
      </trkpt>
      <trkpt lat="45.02068" lon="2.44806">
        <ele>855.24</ele>
        <time>2026-08-21T07:28:05.735Z</time>
      </trkpt>
      <trkpt lat="45.02069" lon="2.44809">
        <ele>855.2</ele>
        <time>2026-08-21T07:28:06.915Z</time>
      </trkpt>
      <trkpt lat="45.02071" lon="2.44813">
        <ele>855.27</ele>
        <time>2026-08-21T07:28:07.917Z</time>
      </trkpt>
      <trkpt lat="45.02072" lon="2.44816">
        <ele>855.51</ele>
        <time>2026-08-21T07:28:08.922Z</time>
      </trkpt>
      <trkpt lat="45.02073" lon="2.44819">
        <ele>855.61</ele>
        <time>2026-08-21T07:28:09.914Z</time>
      </trkpt>
      <trkpt lat="45.02075" lon="2.44822">
        <ele>855.75</ele>
        <time>2026-08-21T07:28:10.014Z</time>
      </trkpt>
      <trkpt lat="45.02077" lon="2.44826">
        <ele>855.82</ele>
        <time>2026-08-21T07:28:11.014Z</time>
      </trkpt>
      <trkpt lat="45.02078" lon="2.44829">
        <ele>855.98</ele>
        <time>2026-08-21T07:28:12.927Z</time>
      </trkpt>
      <trkpt lat="45.0208" lon="2.44832">
        <ele>856.11</ele>
        <time>2026-08-21T07:28:13.022Z</time>
      </trkpt>
      <trkpt lat="45.02082" lon="2.44836">
        <ele>855.56</ele>
        <time>2026-08-21T07:28:14.010Z</time>
      </trkpt>
      <trkpt lat="45.02084" lon="2.44839">
        <ele>855.55</ele>
        <time>2026-08-21T07:28:15.934Z</time>
      </trkpt>
      <trkpt lat="45.02086" lon="2.44842">
        <ele>855.94</ele>
        <time>2026-08-21T07:28:16.906Z</time>
      </trkpt>
      <trkpt lat="45.02087" lon="2.44845">
        <ele>856.48</ele>
        <time>2026-08-21T07:28:17.020Z</time>
      </trkpt>
      <trkpt lat="45.02089" lon="2.44849">
        <ele>856.44</ele>
        <time>2026-08-21T07:28:18.940Z</time>
      </trkpt>
      <trkpt lat="45.02091" lon="2.44853">
        <ele>856.47</ele>
        <time>2026-08-21T07:28:19.025Z</time>
      </trkpt>
      <trkpt lat="45.02093" lon="2.44856">
        <ele>856.45</ele>
        <time>2026-08-21T07:28:20.948Z</time>
      </trkpt>
      <trkpt lat="45.02094" lon="2.44859">
        <ele>856.49</ele>
        <time>2026-08-21T07:28:21.952Z</time>
      </trkpt>
      <trkpt lat="45.02096" lon="2.44863">
        <ele>856.67</ele>
        <time>2026-08-21T07:28:22.953Z</time>
      </trkpt>
      <trkpt lat="45.02097" lon="2.44866">
        <ele>856.82</ele>
        <time>2026-08-21T07:28:23.955Z</time>
      </trkpt>
      <trkpt lat="45.02099" lon="2.44869">
        <ele>856.92</ele>
        <time>2026-08-21T07:28:24.035Z</time>
      </trkpt>
      <trkpt lat="45.021" lon="2.44873">
        <ele>857.18</ele>
        <time>2026-08-21T07:28:25.512Z</time>
      </trkpt>
      <trkpt lat="45.02101" lon="2.44876">
        <ele>857.1</ele>
        <time>2026-08-21T07:28:26.490Z</time>
      </trkpt>
      <trkpt lat="45.02103" lon="2.44879">
        <ele>857.18</ele>
        <time>2026-08-21T07:28:27.983Z</time>
      </trkpt>
      <trkpt lat="45.02104" lon="2.44883">
        <ele>857.42</ele>
        <time>2026-08-21T07:28:28.043Z</time>
      </trkpt>
      <trkpt lat="45.02106" lon="2.44886">
        <ele>857.33</ele>
        <time>2026-08-21T07:28:29.040Z</time>
      </trkpt>
      <trkpt lat="45.02107" lon="2.4489">
        <ele>857.37</ele>
        <time>2026-08-21T07:28:30.977Z</time>
      </trkpt>
      <trkpt lat="45.02109" lon="2.44893">
        <ele>857.47</ele>
        <time>2026-08-21T07:28:31.034Z</time>
      </trkpt>
      <trkpt lat="45.0211" lon="2.44896">
        <ele>857.52</ele>
        <time>2026-08-21T07:28:32.552Z</time>
      </trkpt>
      <trkpt lat="45.02112" lon="2.449">
        <ele>857.69</ele>
        <time>2026-08-21T07:28:33.043Z</time>
      </trkpt>
      <trkpt lat="45.02113" lon="2.44903">
        <ele>857.77</ele>
        <time>2026-08-21T07:28:34.983Z</time>
      </trkpt>
      <trkpt lat="45.02115" lon="2.44907">
        <ele>857.8</ele>
        <time>2026-08-21T07:28:35.986Z</time>
      </trkpt>
      <trkpt lat="45.02117" lon="2.4491">
        <ele>857.71</ele>
        <time>2026-08-21T07:28:36.989Z</time>
      </trkpt>
      <trkpt lat="45.02118" lon="2.44913">
        <ele>857.81</ele>
        <time>2026-08-21T07:28:37.990Z</time>
      </trkpt>
      <trkpt lat="45.02119" lon="2.44917">
        <ele>857.85</ele>
        <time>2026-08-21T07:28:38.995Z</time>
      </trkpt>
      <trkpt lat="45.02121" lon="2.4492">
        <ele>857.79</ele>
        <time>2026-08-21T07:28:39.994Z</time>
      </trkpt>
      <trkpt lat="45.02123" lon="2.44924">
        <ele>857.76</ele>
        <time>2026-08-21T07:28:40.069Z</time>
      </trkpt>
      <trkpt lat="45.02124" lon="2.44928">
        <ele>857.64</ele>
        <time>2026-08-21T07:28:41.690Z</time>
      </trkpt>
      <trkpt lat="45.02124" lon="2.44932">
        <ele>857.76</ele>
        <time>2026-08-21T07:28:43Z</time>
      </trkpt>
      <trkpt lat="45.02124" lon="2.44937">
        <ele>857.84</ele>
        <time>2026-08-21T07:28:44.002Z</time>
      </trkpt>
      <trkpt lat="45.02125" lon="2.44941">
        <ele>858.04</ele>
        <time>2026-08-21T07:28:44.555Z</time>
      </trkpt>
      <trkpt lat="45.02126" lon="2.44945">
        <ele>858.03</ele>
        <time>2026-08-21T07:28:46.040Z</time>
      </trkpt>
      <trkpt lat="45.02126" lon="2.44949">
        <ele>857.9</ele>
        <time>2026-08-21T07:28:46.705Z</time>
      </trkpt>
      <trkpt lat="45.02126" lon="2.44954">
        <ele>857.91</ele>
        <time>2026-08-21T07:28:48.011Z</time>
      </trkpt>
      <trkpt lat="45.02127" lon="2.44959">
        <ele>857.9</ele>
        <time>2026-08-21T07:28:49.013Z</time>
      </trkpt>
      <trkpt lat="45.02127" lon="2.44964">
        <ele>857.76</ele>
        <time>2026-08-21T07:28:50.014Z</time>
      </trkpt>
      <trkpt lat="45.02127" lon="2.44968">
        <ele>857.89</ele>
        <time>2026-08-21T07:28:50.710Z</time>
      </trkpt>
      <trkpt lat="45.02128" lon="2.44972">
        <ele>857.91</ele>
        <time>2026-08-21T07:28:52.019Z</time>
      </trkpt>
      <trkpt lat="45.02128" lon="2.44977">
        <ele>857.88</ele>
        <time>2026-08-21T07:28:53.021Z</time>
      </trkpt>
      <trkpt lat="45.02128" lon="2.44982">
        <ele>858.09</ele>
        <time>2026-08-21T07:28:53.687Z</time>
      </trkpt>
      <trkpt lat="45.02128" lon="2.44986">
        <ele>858.02</ele>
        <time>2026-08-21T07:28:55.027Z</time>
      </trkpt>
      <trkpt lat="45.02129" lon="2.44991">
        <ele>857.97</ele>
        <time>2026-08-21T07:28:56.027Z</time>
      </trkpt>
      <trkpt lat="45.02129" lon="2.44995">
        <ele>857.81</ele>
        <time>2026-08-21T07:28:57.030Z</time>
      </trkpt>
      <trkpt lat="45.02129" lon="2.45">
        <ele>857.66</ele>
        <time>2026-08-21T07:28:58.032Z</time>
      </trkpt>
      <trkpt lat="45.0213" lon="2.45005">
        <ele>857.47</ele>
        <time>2026-08-21T07:28:59.034Z</time>
      </trkpt>
      <trkpt lat="45.02131" lon="2.4501">
        <ele>857.41</ele>
        <time>2026-08-21T07:29:00.035Z</time>
      </trkpt>
      <trkpt lat="45.02131" lon="2.45015">
        <ele>857.36</ele>
        <time>2026-08-21T07:29:01.037Z</time>
      </trkpt>
      <trkpt lat="45.02131" lon="2.45022">
        <ele>857.1</ele>
        <time>2026-08-21T07:29:02.040Z</time>
      </trkpt>
      <trkpt lat="45.02132" lon="2.45028">
        <ele>857.1</ele>
        <time>2026-08-21T07:29:03.042Z</time>
      </trkpt>
      <trkpt lat="45.02134" lon="2.45033">
        <ele>856.95</ele>
        <time>2026-08-21T07:29:04.046Z</time>
      </trkpt>
      <trkpt lat="45.02135" lon="2.45038">
        <ele>857.02</ele>
        <time>2026-08-21T07:29:04.091Z</time>
      </trkpt>
      <trkpt lat="45.02136" lon="2.45043">
        <ele>856.99</ele>
        <time>2026-08-21T07:29:06.049Z</time>
      </trkpt>
      <trkpt lat="45.02137" lon="2.45048">
        <ele>856.67</ele>
        <time>2026-08-21T07:29:07.050Z</time>
      </trkpt>
      <trkpt lat="45.02139" lon="2.45053">
        <ele>856.47</ele>
        <time>2026-08-21T07:29:08.052Z</time>
      </trkpt>
      <trkpt lat="45.0214" lon="2.45057">
        <ele>856.43</ele>
        <time>2026-08-21T07:29:09.056Z</time>
      </trkpt>
      <trkpt lat="45.02141" lon="2.45062">
        <ele>856.36</ele>
        <time>2026-08-21T07:29:09.873Z</time>
      </trkpt>
      <trkpt lat="45.02142" lon="2.45067">
        <ele>856.15</ele>
        <time>2026-08-21T07:29:10.655Z</time>
      </trkpt>
      <trkpt lat="45.02144" lon="2.45071">
        <ele>856.34</ele>
        <time>2026-08-21T07:29:12.061Z</time>
      </trkpt>
      <trkpt lat="45.02145" lon="2.45076">
        <ele>856.35</ele>
        <time>2026-08-21T07:29:13.063Z</time>
      </trkpt>
      <trkpt lat="45.02146" lon="2.4508">
        <ele>856.37</ele>
        <time>2026-08-21T07:29:13.955Z</time>
      </trkpt>
      <trkpt lat="45.02147" lon="2.45084">
        <ele>855.98</ele>
        <time>2026-08-21T07:29:14.733Z</time>
      </trkpt>
      <trkpt lat="45.02148" lon="2.45088">
        <ele>856.03</ele>
        <time>2026-08-21T07:29:15.750Z</time>
      </trkpt>
      <trkpt lat="45.02149" lon="2.45093">
        <ele>855.91</ele>
        <time>2026-08-21T07:29:16.263Z</time>
      </trkpt>
      <trkpt lat="45.0215" lon="2.45097">
        <ele>856.34</ele>
        <time>2026-08-21T07:29:17.693Z</time>
      </trkpt>
      <trkpt lat="45.02152" lon="2.45101">
        <ele>856.32</ele>
        <time>2026-08-21T07:29:18.979Z</time>
      </trkpt>
      <trkpt lat="45.02153" lon="2.45105">
        <ele>856.26</ele>
        <time>2026-08-21T07:29:19.981Z</time>
      </trkpt>
      <trkpt lat="45.02155" lon="2.45109">
        <ele>856.35</ele>
        <time>2026-08-21T07:29:20.983Z</time>
      </trkpt>
      <trkpt lat="45.02156" lon="2.45113">
        <ele>856.92</ele>
        <time>2026-08-21T07:29:21.985Z</time>
      </trkpt>
      <trkpt lat="45.02158" lon="2.45117">
        <ele>856.87</ele>
        <time>2026-08-21T07:29:22.986Z</time>
      </trkpt>
      <trkpt lat="45.02158" lon="2.45122">
        <ele>856.73</ele>
        <time>2026-08-21T07:29:23.988Z</time>
      </trkpt>
      <trkpt lat="45.0216" lon="2.45126">
        <ele>857</ele>
        <time>2026-08-21T07:29:24.994Z</time>
      </trkpt>
      <trkpt lat="45.02161" lon="2.4513">
        <ele>856.99</ele>
        <time>2026-08-21T07:29:25.991Z</time>
      </trkpt>
      <trkpt lat="45.02163" lon="2.45136">
        <ele>857.11</ele>
        <time>2026-08-21T07:29:26.993Z</time>
      </trkpt>
      <trkpt lat="45.02164" lon="2.45141">
        <ele>857.05</ele>
        <time>2026-08-21T07:29:27.995Z</time>
      </trkpt>
      <trkpt lat="45.02166" lon="2.45145">
        <ele>857.06</ele>
        <time>2026-08-21T07:29:28.996Z</time>
      </trkpt>
      <trkpt lat="45.02168" lon="2.4515">
        <ele>857.37</ele>
        <time>2026-08-21T07:29:29.999Z</time>
      </trkpt>
      <trkpt lat="45.02169" lon="2.45154">
        <ele>857.28</ele>
        <time>2026-08-21T07:29:31Z</time>
      </trkpt>
      <trkpt lat="45.0217" lon="2.45158">
        <ele>857.2</ele>
        <time>2026-08-21T07:29:32.002Z</time>
      </trkpt>
      <trkpt lat="45.02172" lon="2.45162">
        <ele>857.13</ele>
        <time>2026-08-21T07:29:33.004Z</time>
      </trkpt>
      <trkpt lat="45.02173" lon="2.45167">
        <ele>857.36</ele>
        <time>2026-08-21T07:29:34.006Z</time>
      </trkpt>
      <trkpt lat="45.02174" lon="2.45172">
        <ele>857.47</ele>
        <time>2026-08-21T07:29:35.009Z</time>
      </trkpt>
      <trkpt lat="45.02175" lon="2.45176">
        <ele>857.45</ele>
        <time>2026-08-21T07:29:36.011Z</time>
      </trkpt>
      <trkpt lat="45.02176" lon="2.45181">
        <ele>857.34</ele>
        <time>2026-08-21T07:29:37.014Z</time>
      </trkpt>
      <trkpt lat="45.02177" lon="2.45185">
        <ele>857.29</ele>
        <time>2026-08-21T07:29:38.016Z</time>
      </trkpt>
      <trkpt lat="45.02179" lon="2.45189">
        <ele>857.45</ele>
        <time>2026-08-21T07:29:38.922Z</time>
      </trkpt>
      <trkpt lat="45.0218" lon="2.45193">
        <ele>857.25</ele>
        <time>2026-08-21T07:29:40.020Z</time>
      </trkpt>
      <trkpt lat="45.02181" lon="2.45198">
        <ele>857.28</ele>
        <time>2026-08-21T07:29:41.020Z</time>
      </trkpt>
      <trkpt lat="45.02183" lon="2.45203">
        <ele>857.47</ele>
        <time>2026-08-21T07:29:41.112Z</time>
      </trkpt>
      <trkpt lat="45.02184" lon="2.45207">
        <ele>856.96</ele>
        <time>2026-08-21T07:29:43.024Z</time>
      </trkpt>
      <trkpt lat="45.02186" lon="2.45212">
        <ele>856.5</ele>
        <time>2026-08-21T07:29:44.024Z</time>
      </trkpt>
      <trkpt lat="45.02188" lon="2.45218">
        <ele>856.86</ele>
        <time>2026-08-21T07:29:45.024Z</time>
      </trkpt>
      <trkpt lat="45.0219" lon="2.45223">
        <ele>856.87</ele>
        <time>2026-08-21T07:29:46.026Z</time>
      </trkpt>
      <trkpt lat="45.02192" lon="2.45229">
        <ele>856.43</ele>
        <time>2026-08-21T07:29:47.028Z</time>
      </trkpt>
      <trkpt lat="45.02194" lon="2.45234">
        <ele>856.35</ele>
        <time>2026-08-21T07:29:48.031Z</time>
      </trkpt>
      <trkpt lat="45.02196" lon="2.4524">
        <ele>856.33</ele>
        <time>2026-08-21T07:29:49.031Z</time>
      </trkpt>
      <trkpt lat="45.02198" lon="2.45244">
        <ele>856.3</ele>
        <time>2026-08-21T07:29:50.031Z</time>
      </trkpt>
      <trkpt lat="45.022" lon="2.4525">
        <ele>855.96</ele>
        <time>2026-08-21T07:29:51.034Z</time>
      </trkpt>
      <trkpt lat="45.02203" lon="2.45255">
        <ele>855.53</ele>
        <time>2026-08-21T07:29:52.037Z</time>
      </trkpt>
      <trkpt lat="45.02205" lon="2.4526">
        <ele>855.49</ele>
        <time>2026-08-21T07:29:53.040Z</time>
      </trkpt>
      <trkpt lat="45.02208" lon="2.45265">
        <ele>855.41</ele>
        <time>2026-08-21T07:29:54.040Z</time>
      </trkpt>
      <trkpt lat="45.0221" lon="2.45271">
        <ele>855.26</ele>
        <time>2026-08-21T07:29:55.040Z</time>
      </trkpt>
      <trkpt lat="45.02213" lon="2.45277">
        <ele>854.99</ele>
        <time>2026-08-21T07:29:56.042Z</time>
      </trkpt>
      <trkpt lat="45.02215" lon="2.45283">
        <ele>855.22</ele>
        <time>2026-08-21T07:29:57.043Z</time>
      </trkpt>
      <trkpt lat="45.02217" lon="2.45288">
        <ele>855.38</ele>
        <time>2026-08-21T07:29:58.048Z</time>
      </trkpt>
      <trkpt lat="45.02219" lon="2.45294">
        <ele>855.54</ele>
        <time>2026-08-21T07:29:59.047Z</time>
      </trkpt>
      <trkpt lat="45.02221" lon="2.453">
        <ele>855.51</ele>
        <time>2026-08-21T07:30:00.048Z</time>
      </trkpt>
      <trkpt lat="45.02222" lon="2.45306">
        <ele>855.24</ele>
        <time>2026-08-21T07:30:01.051Z</time>
      </trkpt>
      <trkpt lat="45.02224" lon="2.45312">
        <ele>855.68</ele>
        <time>2026-08-21T07:30:02.051Z</time>
      </trkpt>
      <trkpt lat="45.02225" lon="2.45317">
        <ele>855.04</ele>
        <time>2026-08-21T07:30:03.053Z</time>
      </trkpt>
      <trkpt lat="45.02226" lon="2.45322">
        <ele>855.19</ele>
        <time>2026-08-21T07:30:03.901Z</time>
      </trkpt>
      <trkpt lat="45.02227" lon="2.45327">
        <ele>855.01</ele>
        <time>2026-08-21T07:30:05.057Z</time>
      </trkpt>
      <trkpt lat="45.02228" lon="2.45331">
        <ele>854.91</ele>
        <time>2026-08-21T07:30:06.059Z</time>
      </trkpt>
      <trkpt lat="45.0223" lon="2.45336">
        <ele>855.05</ele>
        <time>2026-08-21T07:30:07.062Z</time>
      </trkpt>
      <trkpt lat="45.02232" lon="2.45341">
        <ele>854.91</ele>
        <time>2026-08-21T07:30:08.062Z</time>
      </trkpt>
      <trkpt lat="45.02234" lon="2.45346">
        <ele>854.96</ele>
        <time>2026-08-21T07:30:09.065Z</time>
      </trkpt>
      <trkpt lat="45.02236" lon="2.45351">
        <ele>854.95</ele>
        <time>2026-08-21T07:30:10.068Z</time>
      </trkpt>
      <trkpt lat="45.02237" lon="2.45355">
        <ele>854.95</ele>
        <time>2026-08-21T07:30:11.071Z</time>
      </trkpt>
      <trkpt lat="45.02239" lon="2.4536">
        <ele>854.95</ele>
        <time>2026-08-21T07:30:12.073Z</time>
      </trkpt>
      <trkpt lat="45.02241" lon="2.45364">
        <ele>855.13</ele>
        <time>2026-08-21T07:30:12.926Z</time>
      </trkpt>
      <trkpt lat="45.02243" lon="2.45369">
        <ele>855.1</ele>
        <time>2026-08-21T07:30:14.077Z</time>
      </trkpt>
      <trkpt lat="45.02245" lon="2.45374">
        <ele>855.2</ele>
        <time>2026-08-21T07:30:15.079Z</time>
      </trkpt>
      <trkpt lat="45.02247" lon="2.45379">
        <ele>855.49</ele>
        <time>2026-08-21T07:30:16.081Z</time>
      </trkpt>
      <trkpt lat="45.02248" lon="2.45384">
        <ele>855.52</ele>
        <time>2026-08-21T07:30:17.083Z</time>
      </trkpt>
      <trkpt lat="45.0225" lon="2.4539">
        <ele>855.4</ele>
        <time>2026-08-21T07:30:18.084Z</time>
      </trkpt>
      <trkpt lat="45.02251" lon="2.45395">
        <ele>855.61</ele>
        <time>2026-08-21T07:30:19.086Z</time>
      </trkpt>
      <trkpt lat="45.02253" lon="2.45399">
        <ele>855.41</ele>
        <time>2026-08-21T07:30:20.088Z</time>
      </trkpt>
      <trkpt lat="45.02255" lon="2.45405">
        <ele>855.87</ele>
        <time>2026-08-21T07:30:21.090Z</time>
      </trkpt>
      <trkpt lat="45.02256" lon="2.4541">
        <ele>855.68</ele>
        <time>2026-08-21T07:30:22.091Z</time>
      </trkpt>
      <trkpt lat="45.02258" lon="2.45415">
        <ele>855.86</ele>
        <time>2026-08-21T07:30:23.093Z</time>
      </trkpt>
      <trkpt lat="45.02259" lon="2.45419">
        <ele>856.29</ele>
        <time>2026-08-21T07:30:24.095Z</time>
      </trkpt>
      <trkpt lat="45.0226" lon="2.45424">
        <ele>856.38</ele>
        <time>2026-08-21T07:30:25.098Z</time>
      </trkpt>
      <trkpt lat="45.02262" lon="2.45429">
        <ele>856.9</ele>
        <time>2026-08-21T07:30:25.886Z</time>
      </trkpt>
      <trkpt lat="45.02264" lon="2.45433">
        <ele>856.6</ele>
        <time>2026-08-21T07:30:26.763Z</time>
      </trkpt>
      <trkpt lat="45.02265" lon="2.45438">
        <ele>856.93</ele>
        <time>2026-08-21T07:30:28.106Z</time>
      </trkpt>
      <trkpt lat="45.02266" lon="2.45443">
        <ele>857.33</ele>
        <time>2026-08-21T07:30:29.110Z</time>
      </trkpt>
      <trkpt lat="45.02267" lon="2.45447">
        <ele>857.67</ele>
        <time>2026-08-21T07:30:30.108Z</time>
      </trkpt>
      <trkpt lat="45.02268" lon="2.45451">
        <ele>857.81</ele>
        <time>2026-08-21T07:30:31.115Z</time>
      </trkpt>
      <trkpt lat="45.02269" lon="2.45456">
        <ele>857.72</ele>
        <time>2026-08-21T07:30:32.111Z</time>
      </trkpt>
      <trkpt lat="45.02271" lon="2.4546">
        <ele>857.73</ele>
        <time>2026-08-21T07:30:32.212Z</time>
      </trkpt>
      <trkpt lat="45.02272" lon="2.45464">
        <ele>857.82</ele>
        <time>2026-08-21T07:30:34.116Z</time>
      </trkpt>
      <trkpt lat="45.02273" lon="2.45469">
        <ele>858.18</ele>
        <time>2026-08-21T07:30:34.203Z</time>
      </trkpt>
      <trkpt lat="45.02274" lon="2.45473">
        <ele>858.31</ele>
        <time>2026-08-21T07:30:35.210Z</time>
      </trkpt>
      <trkpt lat="45.02275" lon="2.45477">
        <ele>858.42</ele>
        <time>2026-08-21T07:30:37.123Z</time>
      </trkpt>
      <trkpt lat="45.02276" lon="2.45482">
        <ele>858.46</ele>
        <time>2026-08-21T07:30:38.123Z</time>
      </trkpt>
      <trkpt lat="45.02277" lon="2.45486">
        <ele>858.47</ele>
        <time>2026-08-21T07:30:38.215Z</time>
      </trkpt>
      <trkpt lat="45.02278" lon="2.45491">
        <ele>858.49</ele>
        <time>2026-08-21T07:30:39.225Z</time>
      </trkpt>
      <trkpt lat="45.02279" lon="2.45495">
        <ele>858.54</ele>
        <time>2026-08-21T07:30:40.199Z</time>
      </trkpt>
      <trkpt lat="45.0228" lon="2.455">
        <ele>858.71</ele>
        <time>2026-08-21T07:30:41.865Z</time>
      </trkpt>
      <trkpt lat="45.02281" lon="2.45504">
        <ele>858.97</ele>
        <time>2026-08-21T07:30:42.201Z</time>
      </trkpt>
      <trkpt lat="45.02282" lon="2.45508">
        <ele>859.37</ele>
        <time>2026-08-21T07:30:43.653Z</time>
      </trkpt>
      <trkpt lat="45.02283" lon="2.45512">
        <ele>859.57</ele>
        <time>2026-08-21T07:30:44.205Z</time>
      </trkpt>
      <trkpt lat="45.02284" lon="2.45516">
        <ele>859.55</ele>
        <time>2026-08-21T07:30:45.872Z</time>
      </trkpt>
      <trkpt lat="45.02285" lon="2.45519">
        <ele>859.44</ele>
        <time>2026-08-21T07:30:46.209Z</time>
      </trkpt>
      <trkpt lat="45.02285" lon="2.45524">
        <ele>859.41</ele>
        <time>2026-08-21T07:30:48.152Z</time>
      </trkpt>
      <trkpt lat="45.02285" lon="2.45528">
        <ele>859.58</ele>
        <time>2026-08-21T07:30:48.223Z</time>
      </trkpt>
      <trkpt lat="45.02286" lon="2.45533">
        <ele>859.69</ele>
        <time>2026-08-21T07:30:50.152Z</time>
      </trkpt>
      <trkpt lat="45.02286" lon="2.45537">
        <ele>859.94</ele>
        <time>2026-08-21T07:30:50.217Z</time>
      </trkpt>
      <trkpt lat="45.02287" lon="2.45541">
        <ele>859.74</ele>
        <time>2026-08-21T07:30:51.756Z</time>
      </trkpt>
      <trkpt lat="45.02287" lon="2.45546">
        <ele>859.16</ele>
        <time>2026-08-21T07:30:52.741Z</time>
      </trkpt>
      <trkpt lat="45.02288" lon="2.4555">
        <ele>859.39</ele>
        <time>2026-08-21T07:30:53.231Z</time>
      </trkpt>
      <trkpt lat="45.02289" lon="2.45559">
        <ele>859.76</ele>
        <time>2026-08-21T07:30:54.227Z</time>
      </trkpt>
      <trkpt lat="45.0229" lon="2.45566">
        <ele>859.44</ele>
        <time>2026-08-21T07:30:55.747Z</time>
      </trkpt>
      <trkpt lat="45.02291" lon="2.45573">
        <ele>858.86</ele>
        <time>2026-08-21T07:30:56.733Z</time>
      </trkpt>
      <trkpt lat="45.02292" lon="2.45577">
        <ele>858.5</ele>
        <time>2026-08-21T07:30:57.212Z</time>
      </trkpt>
      <trkpt lat="45.02294" lon="2.4559">
        <ele>858.34</ele>
        <time>2026-08-21T07:30:58.211Z</time>
      </trkpt>
      <trkpt lat="45.02296" lon="2.45599">
        <ele>857.67</ele>
        <time>2026-08-21T07:30:59.226Z</time>
      </trkpt>
      <trkpt lat="45.02297" lon="2.45608">
        <ele>857.29</ele>
        <time>2026-08-21T07:31:00.234Z</time>
      </trkpt>
      <trkpt lat="45.02299" lon="2.45617">
        <ele>856.98</ele>
        <time>2026-08-21T07:31:01.235Z</time>
      </trkpt>
      <trkpt lat="45.023" lon="2.45625">
        <ele>856.51</ele>
        <time>2026-08-21T07:31:02.240Z</time>
      </trkpt>
      <trkpt lat="45.02301" lon="2.45636">
        <ele>857.07</ele>
        <time>2026-08-21T07:31:03.722Z</time>
      </trkpt>
      <trkpt lat="45.02303" lon="2.45647">
        <ele>856.97</ele>
        <time>2026-08-21T07:31:04.224Z</time>
      </trkpt>
      <trkpt lat="45.02303" lon="2.45656">
        <ele>857.03</ele>
        <time>2026-08-21T07:31:05.239Z</time>
      </trkpt>
      <trkpt lat="45.02304" lon="2.45666">
        <ele>856.93</ele>
        <time>2026-08-21T07:31:06.255Z</time>
      </trkpt>
      <trkpt lat="45.02305" lon="2.45676">
        <ele>856.86</ele>
        <time>2026-08-21T07:31:07.738Z</time>
      </trkpt>
      <trkpt lat="45.02305" lon="2.45681">
        <ele>856.37</ele>
        <time>2026-08-21T07:31:08.231Z</time>
      </trkpt>
      <trkpt lat="45.02306" lon="2.45695">
        <ele>855.38</ele>
        <time>2026-08-21T07:31:09.230Z</time>
      </trkpt>
      <trkpt lat="45.02306" lon="2.45707">
        <ele>854.87</ele>
        <time>2026-08-21T07:31:10.243Z</time>
      </trkpt>
      <trkpt lat="45.02307" lon="2.45716">
        <ele>855.05</ele>
        <time>2026-08-21T07:31:11.243Z</time>
      </trkpt>
      <trkpt lat="45.02308" lon="2.45734">
        <ele>855.07</ele>
        <time>2026-08-21T07:31:13.205Z</time>
      </trkpt>
      <trkpt lat="45.02308" lon="2.45744">
        <ele>854.01</ele>
        <time>2026-08-21T07:31:14.223Z</time>
      </trkpt>
      <trkpt lat="45.02308" lon="2.45753">
        <ele>853.77</ele>
        <time>2026-08-21T07:31:15.232Z</time>
      </trkpt>
      <trkpt lat="45.02308" lon="2.45762">
        <ele>853.62</ele>
        <time>2026-08-21T07:31:16.745Z</time>
      </trkpt>
      <trkpt lat="45.02308" lon="2.45765">
        <ele>853.14</ele>
        <time>2026-08-21T07:31:17.224Z</time>
      </trkpt>
      <trkpt lat="45.02307" lon="2.45778">
        <ele>853.14</ele>
        <time>2026-08-21T07:31:18.751Z</time>
      </trkpt>
      <trkpt lat="45.02307" lon="2.4578">
        <ele>851.87</ele>
        <time>2026-08-21T07:31:20.213Z</time>
      </trkpt>
      <trkpt lat="45.02306" lon="2.45795">
        <ele>852.02</ele>
        <time>2026-08-21T07:31:20.214Z</time>
      </trkpt>
      <trkpt lat="45.02306" lon="2.45803">
        <ele>851.97</ele>
        <time>2026-08-21T07:31:21.234Z</time>
      </trkpt>
      <trkpt lat="45.02307" lon="2.45811">
        <ele>851.44</ele>
        <time>2026-08-21T07:31:22.244Z</time>
      </trkpt>
      <trkpt lat="45.02308" lon="2.45818">
        <ele>851.54</ele>
        <time>2026-08-21T07:31:23.231Z</time>
      </trkpt>
      <trkpt lat="45.02308" lon="2.45825">
        <ele>851.71</ele>
        <time>2026-08-21T07:31:24.233Z</time>
      </trkpt>
      <trkpt lat="45.02308" lon="2.45832">
        <ele>851.99</ele>
        <time>2026-08-21T07:31:25.235Z</time>
      </trkpt>
      <trkpt lat="45.02308" lon="2.45839">
        <ele>851.96</ele>
        <time>2026-08-21T07:31:26.247Z</time>
      </trkpt>
      <trkpt lat="45.02308" lon="2.45854">
        <ele>852.13</ele>
        <time>2026-08-21T07:31:28.201Z</time>
      </trkpt>
      <trkpt lat="45.02308" lon="2.45862">
        <ele>852.27</ele>
        <time>2026-08-21T07:31:28.747Z</time>
      </trkpt>
      <trkpt lat="45.02306" lon="2.45869">
        <ele>852.34</ele>
        <time>2026-08-21T07:31:30.233Z</time>
      </trkpt>
      <trkpt lat="45.02305" lon="2.45883">
        <ele>852.45</ele>
        <time>2026-08-21T07:31:32.222Z</time>
      </trkpt>
      <trkpt lat="45.02304" lon="2.45891">
        <ele>851.7</ele>
        <time>2026-08-21T07:31:32.248Z</time>
      </trkpt>
      <trkpt lat="45.02303" lon="2.45904">
        <ele>851.86</ele>
        <time>2026-08-21T07:31:35.189Z</time>
      </trkpt>
      <trkpt lat="45.02301" lon="2.45914">
        <ele>852.15</ele>
        <time>2026-08-21T07:31:37.215Z</time>
      </trkpt>
      <trkpt lat="45.02301" lon="2.45924">
        <ele>852.11</ele>
        <time>2026-08-21T07:31:37.748Z</time>
      </trkpt>
      <trkpt lat="45.023" lon="2.45931">
        <ele>852.21</ele>
        <time>2026-08-21T07:31:38.754Z</time>
      </trkpt>
      <trkpt lat="45.023" lon="2.45937">
        <ele>852.24</ele>
        <time>2026-08-21T07:31:39.749Z</time>
      </trkpt>
      <trkpt lat="45.02299" lon="2.45943">
        <ele>852.3</ele>
        <time>2026-08-21T07:31:41.114Z</time>
      </trkpt>
      <trkpt lat="45.02297" lon="2.45956">
        <ele>852.2</ele>
        <time>2026-08-21T07:31:43.211Z</time>
      </trkpt>
      <trkpt lat="45.02296" lon="2.45962">
        <ele>852.47</ele>
        <time>2026-08-21T07:31:43.753Z</time>
      </trkpt>
      <trkpt lat="45.02296" lon="2.45968">
        <ele>852.43</ele>
        <time>2026-08-21T07:31:44.766Z</time>
      </trkpt>
      <trkpt lat="45.02296" lon="2.45974">
        <ele>852.64</ele>
        <time>2026-08-21T07:31:46.246Z</time>
      </trkpt>
      <trkpt lat="45.02296" lon="2.45981">
        <ele>852.75</ele>
        <time>2026-08-21T07:31:47.219Z</time>
      </trkpt>
      <trkpt lat="45.02296" lon="2.45988">
        <ele>853.75</ele>
        <time>2026-08-21T07:31:48.241Z</time>
      </trkpt>
      <trkpt lat="45.02296" lon="2.45995">
        <ele>854.12</ele>
        <time>2026-08-21T07:31:49.222Z</time>
      </trkpt>
      <trkpt lat="45.02296" lon="2.46002">
        <ele>854.15</ele>
        <time>2026-08-21T07:31:50.218Z</time>
      </trkpt>
      <trkpt lat="45.02296" lon="2.46008">
        <ele>854.19</ele>
        <time>2026-08-21T07:31:50.767Z</time>
      </trkpt>
      <trkpt lat="45.02297" lon="2.46015">
        <ele>854.16</ele>
        <time>2026-08-21T07:31:52.231Z</time>
      </trkpt>
      <trkpt lat="45.02298" lon="2.46021">
        <ele>853.87</ele>
        <time>2026-08-21T07:31:53.233Z</time>
      </trkpt>
      <trkpt lat="45.02298" lon="2.46027">
        <ele>854.06</ele>
        <time>2026-08-21T07:31:53.764Z</time>
      </trkpt>
      <trkpt lat="45.02298" lon="2.46033">
        <ele>854.03</ele>
        <time>2026-08-21T07:31:54.778Z</time>
      </trkpt>
      <trkpt lat="45.02298" lon="2.46039">
        <ele>854.12</ele>
        <time>2026-08-21T07:31:56.253Z</time>
      </trkpt>
      <trkpt lat="45.02299" lon="2.46045">
        <ele>854.28</ele>
        <time>2026-08-21T07:31:57.166Z</time>
      </trkpt>
      <trkpt lat="45.02299" lon="2.46051">
        <ele>854.35</ele>
        <time>2026-08-21T07:31:58.233Z</time>
      </trkpt>
      <trkpt lat="45.023" lon="2.46056">
        <ele>854.54</ele>
        <time>2026-08-21T07:31:59.242Z</time>
      </trkpt>
      <trkpt lat="45.023" lon="2.46062">
        <ele>854.46</ele>
        <time>2026-08-21T07:32:00.244Z</time>
      </trkpt>
      <trkpt lat="45.02301" lon="2.46068">
        <ele>854.83</ele>
        <time>2026-08-21T07:32:01.246Z</time>
      </trkpt>
      <trkpt lat="45.02301" lon="2.46074">
        <ele>855.09</ele>
        <time>2026-08-21T07:32:02.101Z</time>
      </trkpt>
      <trkpt lat="45.02301" lon="2.4608">
        <ele>855.09</ele>
        <time>2026-08-21T07:32:03.253Z</time>
      </trkpt>
      <trkpt lat="45.02301" lon="2.46086">
        <ele>855.25</ele>
        <time>2026-08-21T07:32:04.254Z</time>
      </trkpt>
      <trkpt lat="45.023" lon="2.46092">
        <ele>855.54</ele>
        <time>2026-08-21T07:32:05.256Z</time>
      </trkpt>
      <trkpt lat="45.023" lon="2.46098">
        <ele>856.08</ele>
        <time>2026-08-21T07:32:06.154Z</time>
      </trkpt>
      <trkpt lat="45.023" lon="2.46103">
        <ele>855.83</ele>
        <time>2026-08-21T07:32:07.180Z</time>
      </trkpt>
      <trkpt lat="45.023" lon="2.46109">
        <ele>855.88</ele>
        <time>2026-08-21T07:32:08.261Z</time>
      </trkpt>
      <trkpt lat="45.02299" lon="2.46115">
        <ele>855.87</ele>
        <time>2026-08-21T07:32:09.263Z</time>
      </trkpt>
      <trkpt lat="45.02298" lon="2.46122">
        <ele>856</ele>
        <time>2026-08-21T07:32:10.242Z</time>
      </trkpt>
      <trkpt lat="45.02298" lon="2.46127">
        <ele>856.58</ele>
        <time>2026-08-21T07:32:11.266Z</time>
      </trkpt>
      <trkpt lat="45.02298" lon="2.46133">
        <ele>856.13</ele>
        <time>2026-08-21T07:32:12.268Z</time>
      </trkpt>
      <trkpt lat="45.02297" lon="2.46138">
        <ele>856.08</ele>
        <time>2026-08-21T07:32:13.270Z</time>
      </trkpt>
      <trkpt lat="45.02296" lon="2.46143">
        <ele>856.15</ele>
        <time>2026-08-21T07:32:14.271Z</time>
      </trkpt>
      <trkpt lat="45.02296" lon="2.46149">
        <ele>856.65</ele>
        <time>2026-08-21T07:32:15.219Z</time>
      </trkpt>
      <trkpt lat="45.02295" lon="2.46154">
        <ele>856.61</ele>
        <time>2026-08-21T07:32:15.786Z</time>
      </trkpt>
      <trkpt lat="45.02294" lon="2.46158">
        <ele>856.82</ele>
        <time>2026-08-21T07:32:16.928Z</time>
      </trkpt>
      <trkpt lat="45.02293" lon="2.46162">
        <ele>856.82</ele>
        <time>2026-08-21T07:32:18.279Z</time>
      </trkpt>
      <trkpt lat="45.02292" lon="2.46166">
        <ele>856.98</ele>
        <time>2026-08-21T07:32:19.180Z</time>
      </trkpt>
      <trkpt lat="45.02293" lon="2.4617">
        <ele>857.14</ele>
        <time>2026-08-21T07:32:20.184Z</time>
      </trkpt>
      <trkpt lat="45.02296" lon="2.46172">
        <ele>857.31</ele>
        <time>2026-08-21T07:32:21.185Z</time>
      </trkpt>
      <trkpt lat="45.02298" lon="2.46172">
        <ele>857.46</ele>
        <time>2026-08-21T07:32:22.189Z</time>
      </trkpt>
      <trkpt lat="45.02301" lon="2.46172">
        <ele>857.67</ele>
        <time>2026-08-21T07:32:23.189Z</time>
      </trkpt>
      <trkpt lat="45.02304" lon="2.46172">
        <ele>857.54</ele>
        <time>2026-08-21T07:32:24.192Z</time>
      </trkpt>
      <trkpt lat="45.02308" lon="2.46172">
        <ele>857.78</ele>
        <time>2026-08-21T07:32:25.193Z</time>
      </trkpt>
      <trkpt lat="45.02312" lon="2.46172">
        <ele>858</ele>
        <time>2026-08-21T07:32:26.194Z</time>
      </trkpt>
      <trkpt lat="45.02316" lon="2.46172">
        <ele>858.18</ele>
        <time>2026-08-21T07:32:27.198Z</time>
      </trkpt>
      <trkpt lat="45.02319" lon="2.46172">
        <ele>858.18</ele>
        <time>2026-08-21T07:32:28.199Z</time>
      </trkpt>
      <trkpt lat="45.02326" lon="2.46172">
        <ele>857.91</ele>
        <time>2026-08-21T07:32:34.076Z</time>
      </trkpt>
      <trkpt lat="45.02329" lon="2.46172">
        <ele>858.39</ele>
        <time>2026-08-21T07:32:35.080Z</time>
      </trkpt>
      <trkpt lat="45.02331" lon="2.46171">
        <ele>858.4</ele>
        <time>2026-08-21T07:32:36.084Z</time>
      </trkpt>
      <trkpt lat="45.02335" lon="2.46171">
        <ele>858.45</ele>
        <time>2026-08-21T07:32:37.084Z</time>
      </trkpt>
      <trkpt lat="45.02338" lon="2.4617">
        <ele>858.54</ele>
        <time>2026-08-21T07:32:38.085Z</time>
      </trkpt>
      <trkpt lat="45.02342" lon="2.4617">
        <ele>858.43</ele>
        <time>2026-08-21T07:32:39.088Z</time>
      </trkpt>
      <trkpt lat="45.02347" lon="2.46169">
        <ele>858.5</ele>
        <time>2026-08-21T07:32:40.113Z</time>
      </trkpt>
      <trkpt lat="45.0235" lon="2.46169">
        <ele>858.72</ele>
        <time>2026-08-21T07:32:41.096Z</time>
      </trkpt>
      <trkpt lat="45.02354" lon="2.46168">
        <ele>858.95</ele>
        <time>2026-08-21T07:32:41.983Z</time>
      </trkpt>
      <trkpt lat="45.02357" lon="2.46168">
        <ele>859.11</ele>
        <time>2026-08-21T07:32:43.108Z</time>
      </trkpt>
      <trkpt lat="45.02361" lon="2.46167">
        <ele>859.12</ele>
        <time>2026-08-21T07:32:44.105Z</time>
      </trkpt>
      <trkpt lat="45.02364" lon="2.46166">
        <ele>858.73</ele>
        <time>2026-08-21T07:32:45.110Z</time>
      </trkpt>
      <trkpt lat="45.02368" lon="2.46165">
        <ele>858.82</ele>
        <time>2026-08-21T07:32:46.211Z</time>
      </trkpt>
      <trkpt lat="45.02371" lon="2.46165">
        <ele>858.99</ele>
        <time>2026-08-21T07:32:47.222Z</time>
      </trkpt>
      <trkpt lat="45.02374" lon="2.46164">
        <ele>859.03</ele>
        <time>2026-08-21T07:32:48.228Z</time>
      </trkpt>
      <trkpt lat="45.02378" lon="2.46164">
        <ele>859.28</ele>
        <time>2026-08-21T07:32:49.244Z</time>
      </trkpt>
      <trkpt lat="45.02381" lon="2.46163">
        <ele>859.5</ele>
        <time>2026-08-21T07:32:49.812Z</time>
      </trkpt>
      <trkpt lat="45.02385" lon="2.46163">
        <ele>859.92</ele>
        <time>2026-08-21T07:32:50.834Z</time>
      </trkpt>
      <trkpt lat="45.02388" lon="2.46162">
        <ele>859.89</ele>
        <time>2026-08-21T07:32:51.827Z</time>
      </trkpt>
      <trkpt lat="45.02392" lon="2.46162">
        <ele>859.84</ele>
        <time>2026-08-21T07:32:53.236Z</time>
      </trkpt>
      <trkpt lat="45.02395" lon="2.46161">
        <ele>859.88</ele>
        <time>2026-08-21T07:32:53.804Z</time>
      </trkpt>
      <trkpt lat="45.02399" lon="2.4616">
        <ele>860.07</ele>
        <time>2026-08-21T07:32:55.247Z</time>
      </trkpt>
      <trkpt lat="45.02402" lon="2.4616">
        <ele>860.42</ele>
        <time>2026-08-21T07:32:55.838Z</time>
      </trkpt>
      <trkpt lat="45.02406" lon="2.4616">
        <ele>860.69</ele>
        <time>2026-08-21T07:32:56.863Z</time>
      </trkpt>
      <trkpt lat="45.02409" lon="2.46159">
        <ele>861.35</ele>
        <time>2026-08-21T07:32:57.796Z</time>
      </trkpt>
      <trkpt lat="45.02412" lon="2.46159">
        <ele>861.47</ele>
        <time>2026-08-21T07:32:59.087Z</time>
      </trkpt>
      <trkpt lat="45.02416" lon="2.46158">
        <ele>861.78</ele>
        <time>2026-08-21T07:32:59.803Z</time>
      </trkpt>
      <trkpt lat="45.02419" lon="2.46158">
        <ele>862.17</ele>
        <time>2026-08-21T07:33:00.807Z</time>
      </trkpt>
      <trkpt lat="45.02424" lon="2.46158">
        <ele>862.36</ele>
        <time>2026-08-21T07:33:01.784Z</time>
      </trkpt>
      <trkpt lat="45.02427" lon="2.46158">
        <ele>862.77</ele>
        <time>2026-08-21T07:33:02.809Z</time>
      </trkpt>
      <trkpt lat="45.0243" lon="2.46158">
        <ele>863.22</ele>
        <time>2026-08-21T07:33:03.855Z</time>
      </trkpt>
      <trkpt lat="45.02434" lon="2.46157">
        <ele>863.75</ele>
        <time>2026-08-21T07:33:04.846Z</time>
      </trkpt>
      <trkpt lat="45.02437" lon="2.46157">
        <ele>864.16</ele>
        <time>2026-08-21T07:33:06.174Z</time>
      </trkpt>
      <trkpt lat="45.0244" lon="2.46156">
        <ele>864.83</ele>
        <time>2026-08-21T07:33:07.178Z</time>
      </trkpt>
      <trkpt lat="45.02443" lon="2.46156">
        <ele>864.89</ele>
        <time>2026-08-21T07:33:08.282Z</time>
      </trkpt>
      <trkpt lat="45.02447" lon="2.46155">
        <ele>865.11</ele>
        <time>2026-08-21T07:33:08.819Z</time>
      </trkpt>
      <trkpt lat="45.0245" lon="2.46154">
        <ele>865.05</ele>
        <time>2026-08-21T07:33:10.186Z</time>
      </trkpt>
      <trkpt lat="45.02453" lon="2.46154">
        <ele>865.61</ele>
        <time>2026-08-21T07:33:11.189Z</time>
      </trkpt>
      <trkpt lat="45.02456" lon="2.46154">
        <ele>865.98</ele>
        <time>2026-08-21T07:33:12.191Z</time>
      </trkpt>
      <trkpt lat="45.0246" lon="2.46154">
        <ele>866.36</ele>
        <time>2026-08-21T07:33:13.196Z</time>
      </trkpt>
      <trkpt lat="45.02463" lon="2.46153">
        <ele>866.75</ele>
        <time>2026-08-21T07:33:14.198Z</time>
      </trkpt>
      <trkpt lat="45.02466" lon="2.46153">
        <ele>866.93</ele>
        <time>2026-08-21T07:33:14.807Z</time>
      </trkpt>
      <trkpt lat="45.02469" lon="2.46153">
        <ele>867.47</ele>
        <time>2026-08-21T07:33:16.204Z</time>
      </trkpt>
      <trkpt lat="45.02472" lon="2.46152">
        <ele>868.3</ele>
        <time>2026-08-21T07:33:17.206Z</time>
      </trkpt>
      <trkpt lat="45.02476" lon="2.46152">
        <ele>868.75</ele>
        <time>2026-08-21T07:33:18.210Z</time>
      </trkpt>
      <trkpt lat="45.02479" lon="2.46152">
        <ele>869.28</ele>
        <time>2026-08-21T07:33:19.212Z</time>
      </trkpt>
      <trkpt lat="45.02482" lon="2.46152">
        <ele>869.94</ele>
        <time>2026-08-21T07:33:20.215Z</time>
      </trkpt>
      <trkpt lat="45.02486" lon="2.46151">
        <ele>870.35</ele>
        <time>2026-08-21T07:33:20.808Z</time>
      </trkpt>
      <trkpt lat="45.02489" lon="2.46151">
        <ele>870.98</ele>
        <time>2026-08-21T07:33:21.828Z</time>
      </trkpt>
      <trkpt lat="45.02493" lon="2.46151">
        <ele>871.32</ele>
        <time>2026-08-21T07:33:23.222Z</time>
      </trkpt>
      <trkpt lat="45.02496" lon="2.46151">
        <ele>871.68</ele>
        <time>2026-08-21T07:33:24.225Z</time>
      </trkpt>
      <trkpt lat="45.02499" lon="2.46151">
        <ele>871.85</ele>
        <time>2026-08-21T07:33:24.795Z</time>
      </trkpt>
      <trkpt lat="45.02502" lon="2.46151">
        <ele>872.44</ele>
        <time>2026-08-21T07:33:26.228Z</time>
      </trkpt>
      <trkpt lat="45.02506" lon="2.46151">
        <ele>873.04</ele>
        <time>2026-08-21T07:33:27.231Z</time>
      </trkpt>
      <trkpt lat="45.02509" lon="2.46151">
        <ele>873.12</ele>
        <time>2026-08-21T07:33:27.826Z</time>
      </trkpt>
      <trkpt lat="45.02512" lon="2.46151">
        <ele>873.87</ele>
        <time>2026-08-21T07:33:29.235Z</time>
      </trkpt>
      <trkpt lat="45.02516" lon="2.46151">
        <ele>874.9</ele>
        <time>2026-08-21T07:33:29.809Z</time>
      </trkpt>
      <trkpt lat="45.0252" lon="2.46151">
        <ele>875.1</ele>
        <time>2026-08-21T07:33:31.242Z</time>
      </trkpt>
      <trkpt lat="45.02523" lon="2.46151">
        <ele>875.35</ele>
        <time>2026-08-21T07:33:31.785Z</time>
      </trkpt>
      <trkpt lat="45.02526" lon="2.4615">
        <ele>875.75</ele>
        <time>2026-08-21T07:33:32.866Z</time>
      </trkpt>
      <trkpt lat="45.0253" lon="2.46149">
        <ele>876.05</ele>
        <time>2026-08-21T07:33:33.794Z</time>
      </trkpt>
      <trkpt lat="45.02533" lon="2.46149">
        <ele>876.36</ele>
        <time>2026-08-21T07:33:35.297Z</time>
      </trkpt>
      <trkpt lat="45.02536" lon="2.46148">
        <ele>877.14</ele>
        <time>2026-08-21T07:33:36.252Z</time>
      </trkpt>
      <trkpt lat="45.02539" lon="2.46147">
        <ele>877.46</ele>
        <time>2026-08-21T07:33:37.255Z</time>
      </trkpt>
      <trkpt lat="45.02541" lon="2.46145">
        <ele>877.81</ele>
        <time>2026-08-21T07:33:37.812Z</time>
      </trkpt>
      <trkpt lat="45.02544" lon="2.46143">
        <ele>878.44</ele>
        <time>2026-08-21T07:33:38.833Z</time>
      </trkpt>
      <trkpt lat="45.02547" lon="2.46141">
        <ele>878.97</ele>
        <time>2026-08-21T07:33:40.313Z</time>
      </trkpt>
      <trkpt lat="45.02549" lon="2.46138">
        <ele>879.16</ele>
        <time>2026-08-21T07:33:40.822Z</time>
      </trkpt>
      <trkpt lat="45.02552" lon="2.46136">
        <ele>879.43</ele>
        <time>2026-08-21T07:33:41.834Z</time>
      </trkpt>
      <trkpt lat="45.02554" lon="2.46134">
        <ele>880.35</ele>
        <time>2026-08-21T07:33:42.823Z</time>
      </trkpt>
      <trkpt lat="45.02556" lon="2.46131">
        <ele>880.87</ele>
        <time>2026-08-21T07:33:43.818Z</time>
      </trkpt>
      <trkpt lat="45.02558" lon="2.46128">
        <ele>881.44</ele>
        <time>2026-08-21T07:33:45.312Z</time>
      </trkpt>
      <trkpt lat="45.0256" lon="2.46125">
        <ele>882.13</ele>
        <time>2026-08-21T07:33:46.282Z</time>
      </trkpt>
      <trkpt lat="45.02562" lon="2.46122">
        <ele>883.05</ele>
        <time>2026-08-21T07:33:46.814Z</time>
      </trkpt>
      <trkpt lat="45.02564" lon="2.46119">
        <ele>883.6</ele>
        <time>2026-08-21T07:33:48.320Z</time>
      </trkpt>
      <trkpt lat="45.02565" lon="2.46115">
        <ele>883.77</ele>
        <time>2026-08-21T07:33:49.291Z</time>
      </trkpt>
      <trkpt lat="45.02567" lon="2.46111">
        <ele>884.3</ele>
        <time>2026-08-21T07:33:50.051Z</time>
      </trkpt>
      <trkpt lat="45.02568" lon="2.46107">
        <ele>884.68</ele>
        <time>2026-08-21T07:33:51.295Z</time>
      </trkpt>
      <trkpt lat="45.02569" lon="2.46104">
        <ele>885.37</ele>
        <time>2026-08-21T07:33:52.308Z</time>
      </trkpt>
      <trkpt lat="45.02571" lon="2.461">
        <ele>885.92</ele>
        <time>2026-08-21T07:33:53.300Z</time>
      </trkpt>
      <trkpt lat="45.02572" lon="2.46096">
        <ele>886.19</ele>
        <time>2026-08-21T07:33:54.304Z</time>
      </trkpt>
      <trkpt lat="45.02573" lon="2.46092">
        <ele>886.65</ele>
        <time>2026-08-21T07:33:55.306Z</time>
      </trkpt>
      <trkpt lat="45.02574" lon="2.46088">
        <ele>887</ele>
        <time>2026-08-21T07:33:56.112Z</time>
      </trkpt>
      <trkpt lat="45.02575" lon="2.46084">
        <ele>887.35</ele>
        <time>2026-08-21T07:33:56.776Z</time>
      </trkpt>
      <trkpt lat="45.02576" lon="2.46079">
        <ele>887.64</ele>
        <time>2026-08-21T07:33:58.306Z</time>
      </trkpt>
      <trkpt lat="45.02577" lon="2.46074">
        <ele>887.69</ele>
        <time>2026-08-21T07:33:59.316Z</time>
      </trkpt>
      <trkpt lat="45.02578" lon="2.46071">
        <ele>887.73</ele>
        <time>2026-08-21T07:34:00.319Z</time>
      </trkpt>
      <trkpt lat="45.02579" lon="2.46066">
        <ele>887.76</ele>
        <time>2026-08-21T07:34:01.322Z</time>
      </trkpt>
      <trkpt lat="45.0258" lon="2.46062">
        <ele>887.83</ele>
        <time>2026-08-21T07:34:02.325Z</time>
      </trkpt>
      <trkpt lat="45.02581" lon="2.46058">
        <ele>887.85</ele>
        <time>2026-08-21T07:34:03.324Z</time>
      </trkpt>
      <trkpt lat="45.02582" lon="2.46054">
        <ele>888.07</ele>
        <time>2026-08-21T07:34:03.859Z</time>
      </trkpt>
      <trkpt lat="45.02585" lon="2.4605">
        <ele>888.41</ele>
        <time>2026-08-21T07:34:04.879Z</time>
      </trkpt>
      <trkpt lat="45.02588" lon="2.46047">
        <ele>888.28</ele>
        <time>2026-08-21T07:34:05.934Z</time>
      </trkpt>
      <trkpt lat="45.02592" lon="2.46047">
        <ele>888.15</ele>
        <time>2026-08-21T07:34:07.332Z</time>
      </trkpt>
      <trkpt lat="45.02595" lon="2.46048">
        <ele>888.29</ele>
        <time>2026-08-21T07:34:08.334Z</time>
      </trkpt>
      <trkpt lat="45.02599" lon="2.46051">
        <ele>888.43</ele>
        <time>2026-08-21T07:34:09.337Z</time>
      </trkpt>
      <trkpt lat="45.02603" lon="2.46054">
        <ele>888.16</ele>
        <time>2026-08-21T07:34:10.338Z</time>
      </trkpt>
      <trkpt lat="45.02607" lon="2.46055">
        <ele>888.11</ele>
        <time>2026-08-21T07:34:11.341Z</time>
      </trkpt>
      <trkpt lat="45.02612" lon="2.46057">
        <ele>888.15</ele>
        <time>2026-08-21T07:34:12.345Z</time>
      </trkpt>
      <trkpt lat="45.02616" lon="2.46059">
        <ele>888.82</ele>
        <time>2026-08-21T07:34:13.345Z</time>
      </trkpt>
      <trkpt lat="45.02621" lon="2.46061">
        <ele>889.29</ele>
        <time>2026-08-21T07:34:14.277Z</time>
      </trkpt>
      <trkpt lat="45.02626" lon="2.46065">
        <ele>889.17</ele>
        <time>2026-08-21T07:34:15.348Z</time>
      </trkpt>
      <trkpt lat="45.02632" lon="2.46068">
        <ele>888.13</ele>
        <time>2026-08-21T07:34:16.342Z</time>
      </trkpt>
      <trkpt lat="45.02638" lon="2.46072">
        <ele>888.21</ele>
        <time>2026-08-21T07:34:17.247Z</time>
      </trkpt>
      <trkpt lat="45.02644" lon="2.46076">
        <ele>887.63</ele>
        <time>2026-08-21T07:34:18.355Z</time>
      </trkpt>
      <trkpt lat="45.02651" lon="2.46081">
        <ele>887.21</ele>
        <time>2026-08-21T07:34:19.351Z</time>
      </trkpt>
      <trkpt lat="45.02657" lon="2.46085">
        <ele>885.39</ele>
        <time>2026-08-21T07:34:20.354Z</time>
      </trkpt>
      <trkpt lat="45.02665" lon="2.4609">
        <ele>885.41</ele>
        <time>2026-08-21T07:34:21.356Z</time>
      </trkpt>
      <trkpt lat="45.02674" lon="2.46095">
        <ele>885.12</ele>
        <time>2026-08-21T07:34:22.358Z</time>
      </trkpt>
      <trkpt lat="45.02682" lon="2.46101">
        <ele>885.12</ele>
        <time>2026-08-21T07:34:23.360Z</time>
      </trkpt>
      <trkpt lat="45.02691" lon="2.46106">
        <ele>878.45</ele>
        <time>2026-08-21T07:34:24.363Z</time>
      </trkpt>
      <trkpt lat="45.02699" lon="2.46112">
        <ele>879.52</ele>
        <time>2026-08-21T07:34:25.372Z</time>
      </trkpt>
      <trkpt lat="45.02708" lon="2.46117">
        <ele>879.06</ele>
        <time>2026-08-21T07:34:26.370Z</time>
      </trkpt>
      <trkpt lat="45.02716" lon="2.46122">
        <ele>876.22</ele>
        <time>2026-08-21T07:34:27.372Z</time>
      </trkpt>
      <trkpt lat="45.02725" lon="2.46127">
        <ele>875.99</ele>
        <time>2026-08-21T07:34:28.372Z</time>
      </trkpt>
      <trkpt lat="45.02733" lon="2.4613">
        <ele>875.31</ele>
        <time>2026-08-21T07:34:29.376Z</time>
      </trkpt>
      <trkpt lat="45.02741" lon="2.46134">
        <ele>873.91</ele>
        <time>2026-08-21T07:34:30.378Z</time>
      </trkpt>
      <trkpt lat="45.02748" lon="2.46138">
        <ele>872.31</ele>
        <time>2026-08-21T07:34:31.372Z</time>
      </trkpt>
      <trkpt lat="45.02753" lon="2.46145">
        <ele>871.57</ele>
        <time>2026-08-21T07:34:32.374Z</time>
      </trkpt>
      <trkpt lat="45.02758" lon="2.46153">
        <ele>871.07</ele>
        <time>2026-08-21T07:34:33.376Z</time>
      </trkpt>
      <trkpt lat="45.02761" lon="2.46158">
        <ele>870.25</ele>
        <time>2026-08-21T07:34:34.380Z</time>
      </trkpt>
      <trkpt lat="45.02763" lon="2.46162">
        <ele>869.91</ele>
        <time>2026-08-21T07:34:35.382Z</time>
      </trkpt>
      <trkpt lat="45.02766" lon="2.46167">
        <ele>869.93</ele>
        <time>2026-08-21T07:34:35.989Z</time>
      </trkpt>
      <trkpt lat="45.02769" lon="2.4617">
        <ele>869.86</ele>
        <time>2026-08-21T07:34:37.388Z</time>
      </trkpt>
      <trkpt lat="45.02771" lon="2.46175">
        <ele>869.8</ele>
        <time>2026-08-21T07:34:38.001Z</time>
      </trkpt>
      <trkpt lat="45.02774" lon="2.46179">
        <ele>869.74</ele>
        <time>2026-08-21T07:34:39.291Z</time>
      </trkpt>
      <trkpt lat="45.02777" lon="2.46183">
        <ele>869.87</ele>
        <time>2026-08-21T07:34:40.294Z</time>
      </trkpt>
      <trkpt lat="45.0278" lon="2.46186">
        <ele>869.94</ele>
        <time>2026-08-21T07:34:41.297Z</time>
      </trkpt>
      <trkpt lat="45.02782" lon="2.4619">
        <ele>869.79</ele>
        <time>2026-08-21T07:34:42.299Z</time>
      </trkpt>
      <trkpt lat="45.02784" lon="2.46193">
        <ele>869.88</ele>
        <time>2026-08-21T07:34:43.302Z</time>
      </trkpt>
      <trkpt lat="45.02787" lon="2.46197">
        <ele>869.9</ele>
        <time>2026-08-21T07:34:44.305Z</time>
      </trkpt>
      <trkpt lat="45.02789" lon="2.462">
        <ele>869.85</ele>
        <time>2026-08-21T07:34:45.306Z</time>
      </trkpt>
      <trkpt lat="45.02791" lon="2.46203">
        <ele>869.91</ele>
        <time>2026-08-21T07:34:46.309Z</time>
      </trkpt>
      <trkpt lat="45.02793" lon="2.46206">
        <ele>870.1</ele>
        <time>2026-08-21T07:34:47.316Z</time>
      </trkpt>
      <trkpt lat="45.02795" lon="2.46208">
        <ele>870.26</ele>
        <time>2026-08-21T07:34:48.314Z</time>
      </trkpt>
      <trkpt lat="45.02797" lon="2.46211">
        <ele>870.3</ele>
        <time>2026-08-21T07:34:49.316Z</time>
      </trkpt>
      <trkpt lat="45.028" lon="2.46214">
        <ele>870.32</ele>
        <time>2026-08-21T07:34:50.321Z</time>
      </trkpt>
      <trkpt lat="45.02802" lon="2.46216">
        <ele>870.37</ele>
        <time>2026-08-21T07:34:51.322Z</time>
      </trkpt>
      <trkpt lat="45.02805" lon="2.46218">
        <ele>870.53</ele>
        <time>2026-08-21T07:34:52.325Z</time>
      </trkpt>
      <trkpt lat="45.02807" lon="2.4622">
        <ele>870.59</ele>
        <time>2026-08-21T07:34:53.329Z</time>
      </trkpt>
      <trkpt lat="45.0281" lon="2.46222">
        <ele>870.64</ele>
        <time>2026-08-21T07:34:54.332Z</time>
      </trkpt>
      <trkpt lat="45.02813" lon="2.46225">
        <ele>870.61</ele>
        <time>2026-08-21T07:34:55.335Z</time>
      </trkpt>
      <trkpt lat="45.02815" lon="2.46227">
        <ele>870.57</ele>
        <time>2026-08-21T07:34:56.338Z</time>
      </trkpt>
      <trkpt lat="45.02818" lon="2.4623">
        <ele>870.68</ele>
        <time>2026-08-21T07:34:57.339Z</time>
      </trkpt>
      <trkpt lat="45.02821" lon="2.46232">
        <ele>870.63</ele>
        <time>2026-08-21T07:34:58.343Z</time>
      </trkpt>
      <trkpt lat="45.02823" lon="2.46235">
        <ele>870.7</ele>
        <time>2026-08-21T07:34:59.347Z</time>
      </trkpt>
      <trkpt lat="45.02826" lon="2.46237">
        <ele>870.74</ele>
        <time>2026-08-21T07:35:00.233Z</time>
      </trkpt>
      <trkpt lat="45.02829" lon="2.46239">
        <ele>870.68</ele>
        <time>2026-08-21T07:35:01.351Z</time>
      </trkpt>
      <trkpt lat="45.02832" lon="2.46242">
        <ele>870.88</ele>
        <time>2026-08-21T07:35:02.355Z</time>
      </trkpt>
      <trkpt lat="45.02836" lon="2.46246">
        <ele>870.97</ele>
        <time>2026-08-21T07:35:02.927Z</time>
      </trkpt>
      <trkpt lat="45.02839" lon="2.46248">
        <ele>871.04</ele>
        <time>2026-08-21T07:35:04.306Z</time>
      </trkpt>
      <trkpt lat="45.02842" lon="2.46251">
        <ele>871.07</ele>
        <time>2026-08-21T07:35:05.362Z</time>
      </trkpt>
      <trkpt lat="45.02845" lon="2.46254">
        <ele>871.07</ele>
        <time>2026-08-21T07:35:06.364Z</time>
      </trkpt>
      <trkpt lat="45.02847" lon="2.46256">
        <ele>871.14</ele>
        <time>2026-08-21T07:35:07.365Z</time>
      </trkpt>
      <trkpt lat="45.0285" lon="2.46259">
        <ele>871.17</ele>
        <time>2026-08-21T07:35:08.368Z</time>
      </trkpt>
      <trkpt lat="45.02852" lon="2.46262">
        <ele>871.24</ele>
        <time>2026-08-21T07:35:09.369Z</time>
      </trkpt>
      <trkpt lat="45.02854" lon="2.46266">
        <ele>871.42</ele>
        <time>2026-08-21T07:35:10.375Z</time>
      </trkpt>
      <trkpt lat="45.02856" lon="2.46269">
        <ele>871.43</ele>
        <time>2026-08-21T07:35:11.376Z</time>
      </trkpt>
      <trkpt lat="45.02858" lon="2.46272">
        <ele>871.49</ele>
        <time>2026-08-21T07:35:12.236Z</time>
      </trkpt>
      <trkpt lat="45.02859" lon="2.46276">
        <ele>871.53</ele>
        <time>2026-08-21T07:35:13.379Z</time>
      </trkpt>
      <trkpt lat="45.02861" lon="2.46279">
        <ele>871.57</ele>
        <time>2026-08-21T07:35:14.383Z</time>
      </trkpt>
      <trkpt lat="45.02862" lon="2.46283">
        <ele>871.68</ele>
        <time>2026-08-21T07:35:15.383Z</time>
      </trkpt>
      <trkpt lat="45.02864" lon="2.46285">
        <ele>871.83</ele>
        <time>2026-08-21T07:35:16.385Z</time>
      </trkpt>
      <trkpt lat="45.02865" lon="2.46289">
        <ele>871.98</ele>
        <time>2026-08-21T07:35:17.145Z</time>
      </trkpt>
      <trkpt lat="45.02867" lon="2.46292">
        <ele>872.19</ele>
        <time>2026-08-21T07:35:18.391Z</time>
      </trkpt>
      <trkpt lat="45.02868" lon="2.46295">
        <ele>872.6</ele>
        <time>2026-08-21T07:35:19.393Z</time>
      </trkpt>
      <trkpt lat="45.0287" lon="2.46299">
        <ele>872.81</ele>
        <time>2026-08-21T07:35:20.395Z</time>
      </trkpt>
      <trkpt lat="45.02871" lon="2.46302">
        <ele>872.97</ele>
        <time>2026-08-21T07:35:21.258Z</time>
      </trkpt>
      <trkpt lat="45.02873" lon="2.46306">
        <ele>873.32</ele>
        <time>2026-08-21T07:35:22.399Z</time>
      </trkpt>
      <trkpt lat="45.02873" lon="2.46308">
        <ele>873.6</ele>
        <time>2026-08-21T07:35:23.402Z</time>
      </trkpt>
      <trkpt lat="45.02874" lon="2.46311">
        <ele>873.73</ele>
        <time>2026-08-21T07:35:23.756Z</time>
      </trkpt>
      <trkpt lat="45.02875" lon="2.46314">
        <ele>873.9</ele>
        <time>2026-08-21T07:35:25.284Z</time>
      </trkpt>
      <trkpt lat="45.02876" lon="2.46317">
        <ele>874</ele>
        <time>2026-08-21T07:35:26.409Z</time>
      </trkpt>
      <trkpt lat="45.02876" lon="2.4632">
        <ele>874.14</ele>
        <time>2026-08-21T07:35:27.410Z</time>
      </trkpt>
      <trkpt lat="45.02877" lon="2.46324">
        <ele>874.35</ele>
        <time>2026-08-21T07:35:28.412Z</time>
      </trkpt>
      <trkpt lat="45.02877" lon="2.46328">
        <ele>874.42</ele>
        <time>2026-08-21T07:35:29.296Z</time>
      </trkpt>
      <trkpt lat="45.02877" lon="2.46331">
        <ele>874.59</ele>
        <time>2026-08-21T07:35:29.456Z</time>
      </trkpt>
      <trkpt lat="45.02878" lon="2.46333">
        <ele>874.71</ele>
        <time>2026-08-21T07:35:31.421Z</time>
      </trkpt>
      <trkpt lat="45.02878" lon="2.46336">
        <ele>874.97</ele>
        <time>2026-08-21T07:35:31.460Z</time>
      </trkpt>
      <trkpt lat="45.02878" lon="2.4634">
        <ele>875.25</ele>
        <time>2026-08-21T07:35:33.424Z</time>
      </trkpt>
      <trkpt lat="45.02879" lon="2.46343">
        <ele>875.47</ele>
        <time>2026-08-21T07:35:33.467Z</time>
      </trkpt>
      <trkpt lat="45.02879" lon="2.46347">
        <ele>875.68</ele>
        <time>2026-08-21T07:35:35.429Z</time>
      </trkpt>
      <trkpt lat="45.02879" lon="2.4635">
        <ele>875.78</ele>
        <time>2026-08-21T07:35:35.503Z</time>
      </trkpt>
      <trkpt lat="45.0288" lon="2.46353">
        <ele>875.93</ele>
        <time>2026-08-21T07:35:37.433Z</time>
      </trkpt>
      <trkpt lat="45.02881" lon="2.46356">
        <ele>876.16</ele>
        <time>2026-08-21T07:35:37.521Z</time>
      </trkpt>
      <trkpt lat="45.02881" lon="2.4636">
        <ele>876.45</ele>
        <time>2026-08-21T07:35:39.321Z</time>
      </trkpt>
      <trkpt lat="45.02881" lon="2.46364">
        <ele>876.56</ele>
        <time>2026-08-21T07:35:39.755Z</time>
      </trkpt>
      <trkpt lat="45.02882" lon="2.46368">
        <ele>876.73</ele>
        <time>2026-08-21T07:35:41.440Z</time>
      </trkpt>
      <trkpt lat="45.02882" lon="2.46372">
        <ele>876.95</ele>
        <time>2026-08-21T07:35:42.226Z</time>
      </trkpt>
      <trkpt lat="45.02882" lon="2.46376">
        <ele>877.05</ele>
        <time>2026-08-21T07:35:43.444Z</time>
      </trkpt>
      <trkpt lat="45.02882" lon="2.46379">
        <ele>877.38</ele>
        <time>2026-08-21T07:35:44.446Z</time>
      </trkpt>
      <trkpt lat="45.02883" lon="2.46382">
        <ele>877.56</ele>
        <time>2026-08-21T07:35:45.448Z</time>
      </trkpt>
      <trkpt lat="45.02883" lon="2.46385">
        <ele>877.69</ele>
        <time>2026-08-21T07:35:46.450Z</time>
      </trkpt>
      <trkpt lat="45.02883" lon="2.46389">
        <ele>877.79</ele>
        <time>2026-08-21T07:35:47.453Z</time>
      </trkpt>
      <trkpt lat="45.02883" lon="2.46393">
        <ele>877.93</ele>
        <time>2026-08-21T07:35:48.337Z</time>
      </trkpt>
      <trkpt lat="45.02883" lon="2.46396">
        <ele>877.94</ele>
        <time>2026-08-21T07:35:49.456Z</time>
      </trkpt>
      <trkpt lat="45.02883" lon="2.464">
        <ele>878.14</ele>
        <time>2026-08-21T07:35:50.457Z</time>
      </trkpt>
      <trkpt lat="45.02883" lon="2.46404">
        <ele>878.23</ele>
        <time>2026-08-21T07:35:51.460Z</time>
      </trkpt>
      <trkpt lat="45.02883" lon="2.46407">
        <ele>878.31</ele>
        <time>2026-08-21T07:35:52.460Z</time>
      </trkpt>
      <trkpt lat="45.02883" lon="2.4641">
        <ele>878.44</ele>
        <time>2026-08-21T07:35:52.736Z</time>
      </trkpt>
      <trkpt lat="45.02883" lon="2.46415">
        <ele>878.52</ele>
        <time>2026-08-21T07:35:54.464Z</time>
      </trkpt>
      <trkpt lat="45.02883" lon="2.4642">
        <ele>878.67</ele>
        <time>2026-08-21T07:35:55.465Z</time>
      </trkpt>
      <trkpt lat="45.02884" lon="2.46424">
        <ele>878.9</ele>
        <time>2026-08-21T07:35:56.158Z</time>
      </trkpt>
      <trkpt lat="45.02884" lon="2.46429">
        <ele>879.04</ele>
        <time>2026-08-21T07:35:57.468Z</time>
      </trkpt>
      <trkpt lat="45.02884" lon="2.46433">
        <ele>879.19</ele>
        <time>2026-08-21T07:35:58.472Z</time>
      </trkpt>
      <trkpt lat="45.02885" lon="2.46437">
        <ele>878.98</ele>
        <time>2026-08-21T07:35:59.474Z</time>
      </trkpt>
      <trkpt lat="45.02885" lon="2.46442">
        <ele>879.13</ele>
        <time>2026-08-21T07:36:00.473Z</time>
      </trkpt>
      <trkpt lat="45.02886" lon="2.46446">
        <ele>879.23</ele>
        <time>2026-08-21T07:36:01.476Z</time>
      </trkpt>
      <trkpt lat="45.02887" lon="2.4645">
        <ele>879.33</ele>
        <time>2026-08-21T07:36:02.478Z</time>
      </trkpt>
      <trkpt lat="45.02887" lon="2.46454">
        <ele>879.42</ele>
        <time>2026-08-21T07:36:03.480Z</time>
      </trkpt>
      <trkpt lat="45.02888" lon="2.46459">
        <ele>879.4</ele>
        <time>2026-08-21T07:36:04.085Z</time>
      </trkpt>
      <trkpt lat="45.02889" lon="2.46464">
        <ele>879.55</ele>
        <time>2026-08-21T07:36:05.484Z</time>
      </trkpt>
      <trkpt lat="45.02889" lon="2.46468">
        <ele>879.63</ele>
        <time>2026-08-21T07:36:05.724Z</time>
      </trkpt>
      <trkpt lat="45.0289" lon="2.46473">
        <ele>879.82</ele>
        <time>2026-08-21T07:36:07.488Z</time>
      </trkpt>
      <trkpt lat="45.02891" lon="2.46478">
        <ele>879.77</ele>
        <time>2026-08-21T07:36:08.044Z</time>
      </trkpt>
      <trkpt lat="45.02892" lon="2.46482">
        <ele>879.85</ele>
        <time>2026-08-21T07:36:09.017Z</time>
      </trkpt>
      <trkpt lat="45.02893" lon="2.46488">
        <ele>880.11</ele>
        <time>2026-08-21T07:36:10.047Z</time>
      </trkpt>
      <trkpt lat="45.02893" lon="2.46493">
        <ele>880.2</ele>
        <time>2026-08-21T07:36:11.040Z</time>
      </trkpt>
      <trkpt lat="45.02894" lon="2.46498">
        <ele>880.37</ele>
        <time>2026-08-21T07:36:12.053Z</time>
      </trkpt>
      <trkpt lat="45.02895" lon="2.46503">
        <ele>880.59</ele>
        <time>2026-08-21T07:36:13.033Z</time>
      </trkpt>
      <trkpt lat="45.02897" lon="2.46508">
        <ele>880.91</ele>
        <time>2026-08-21T07:36:14.028Z</time>
      </trkpt>
      <trkpt lat="45.02897" lon="2.46512">
        <ele>881.17</ele>
        <time>2026-08-21T07:36:15.078Z</time>
      </trkpt>
      <trkpt lat="45.02898" lon="2.46517">
        <ele>881.49</ele>
        <time>2026-08-21T07:36:16.096Z</time>
      </trkpt>
      <trkpt lat="45.02899" lon="2.46522">
        <ele>881.77</ele>
        <time>2026-08-21T07:36:17.082Z</time>
      </trkpt>
      <trkpt lat="45.029" lon="2.46527">
        <ele>882.18</ele>
        <time>2026-08-21T07:36:18.103Z</time>
      </trkpt>
      <trkpt lat="45.02902" lon="2.46531">
        <ele>882.55</ele>
        <time>2026-08-21T07:36:19.513Z</time>
      </trkpt>
      <trkpt lat="45.02903" lon="2.46536">
        <ele>882.78</ele>
        <time>2026-08-21T07:36:20.088Z</time>
      </trkpt>
      <trkpt lat="45.02904" lon="2.4654">
        <ele>883.08</ele>
        <time>2026-08-21T07:36:21.417Z</time>
      </trkpt>
      <trkpt lat="45.02905" lon="2.46545">
        <ele>883.36</ele>
        <time>2026-08-21T07:36:22.418Z</time>
      </trkpt>
      <trkpt lat="45.02906" lon="2.46549">
        <ele>883.48</ele>
        <time>2026-08-21T07:36:23.423Z</time>
      </trkpt>
      <trkpt lat="45.02908" lon="2.46553">
        <ele>883.77</ele>
        <time>2026-08-21T07:36:24.424Z</time>
      </trkpt>
      <trkpt lat="45.02909" lon="2.46557">
        <ele>884.02</ele>
        <time>2026-08-21T07:36:25.425Z</time>
      </trkpt>
      <trkpt lat="45.0291" lon="2.46561">
        <ele>884.36</ele>
        <time>2026-08-21T07:36:26.092Z</time>
      </trkpt>
      <trkpt lat="45.02912" lon="2.46566">
        <ele>884.57</ele>
        <time>2026-08-21T07:36:27.430Z</time>
      </trkpt>
      <trkpt lat="45.02913" lon="2.4657">
        <ele>884.87</ele>
        <time>2026-08-21T07:36:28.431Z</time>
      </trkpt>
      <trkpt lat="45.02915" lon="2.46575">
        <ele>885.15</ele>
        <time>2026-08-21T07:36:29.434Z</time>
      </trkpt>
      <trkpt lat="45.02916" lon="2.46579">
        <ele>885.21</ele>
        <time>2026-08-21T07:36:30.437Z</time>
      </trkpt>
      <trkpt lat="45.02918" lon="2.46584">
        <ele>885.45</ele>
        <time>2026-08-21T07:36:31.440Z</time>
      </trkpt>
      <trkpt lat="45.02919" lon="2.46588">
        <ele>885.84</ele>
        <time>2026-08-21T07:36:32.161Z</time>
      </trkpt>
      <trkpt lat="45.02921" lon="2.46592">
        <ele>886.11</ele>
        <time>2026-08-21T07:36:33.444Z</time>
      </trkpt>
      <trkpt lat="45.02922" lon="2.46595">
        <ele>886.35</ele>
        <time>2026-08-21T07:36:34.446Z</time>
      </trkpt>
      <trkpt lat="45.02924" lon="2.46599">
        <ele>886.59</ele>
        <time>2026-08-21T07:36:35.446Z</time>
      </trkpt>
      <trkpt lat="45.02926" lon="2.46604">
        <ele>886.9</ele>
        <time>2026-08-21T07:36:36.449Z</time>
      </trkpt>
      <trkpt lat="45.02927" lon="2.46607">
        <ele>887.21</ele>
        <time>2026-08-21T07:36:37.451Z</time>
      </trkpt>
      <trkpt lat="45.02929" lon="2.46611">
        <ele>887.49</ele>
        <time>2026-08-21T07:36:38.452Z</time>
      </trkpt>
      <trkpt lat="45.02931" lon="2.46615">
        <ele>887.46</ele>
        <time>2026-08-21T07:36:39.494Z</time>
      </trkpt>
      <trkpt lat="45.02932" lon="2.46619">
        <ele>887.37</ele>
        <time>2026-08-21T07:36:40.455Z</time>
      </trkpt>
      <trkpt lat="45.02934" lon="2.46622">
        <ele>887.59</ele>
        <time>2026-08-21T07:36:41.246Z</time>
      </trkpt>
      <trkpt lat="45.02935" lon="2.46626">
        <ele>887.8</ele>
        <time>2026-08-21T07:36:42.461Z</time>
      </trkpt>
      <trkpt lat="45.02936" lon="2.46629">
        <ele>887.96</ele>
        <time>2026-08-21T07:36:43.461Z</time>
      </trkpt>
      <trkpt lat="45.02938" lon="2.46633">
        <ele>888.2</ele>
        <time>2026-08-21T07:36:44.465Z</time>
      </trkpt>
      <trkpt lat="45.0294" lon="2.46637">
        <ele>888.39</ele>
        <time>2026-08-21T07:36:45.465Z</time>
      </trkpt>
      <trkpt lat="45.02942" lon="2.4664">
        <ele>888.56</ele>
        <time>2026-08-21T07:36:46.467Z</time>
      </trkpt>
      <trkpt lat="45.02944" lon="2.46643">
        <ele>888.69</ele>
        <time>2026-08-21T07:36:47.385Z</time>
      </trkpt>
      <trkpt lat="45.02946" lon="2.46647">
        <ele>888.79</ele>
        <time>2026-08-21T07:36:48.471Z</time>
      </trkpt>
      <trkpt lat="45.02948" lon="2.4665">
        <ele>888.97</ele>
        <time>2026-08-21T07:36:49.472Z</time>
      </trkpt>
      <trkpt lat="45.02949" lon="2.46653">
        <ele>889.22</ele>
        <time>2026-08-21T07:36:50.539Z</time>
      </trkpt>
      <trkpt lat="45.02951" lon="2.46656">
        <ele>889.41</ele>
        <time>2026-08-21T07:36:51.523Z</time>
      </trkpt>
      <trkpt lat="45.02952" lon="2.4666">
        <ele>889.76</ele>
        <time>2026-08-21T07:36:51.558Z</time>
      </trkpt>
      <trkpt lat="45.02954" lon="2.46665">
        <ele>889.83</ele>
        <time>2026-08-21T07:36:53.053Z</time>
      </trkpt>
      <trkpt lat="45.02956" lon="2.4667">
        <ele>890</ele>
        <time>2026-08-21T07:36:54.526Z</time>
      </trkpt>
      <trkpt lat="45.02958" lon="2.46676">
        <ele>889.83</ele>
        <time>2026-08-21T07:36:55.490Z</time>
      </trkpt>
      <trkpt lat="45.02959" lon="2.46681">
        <ele>889.94</ele>
        <time>2026-08-21T07:36:56.490Z</time>
      </trkpt>
      <trkpt lat="45.02961" lon="2.46686">
        <ele>890.14</ele>
        <time>2026-08-21T07:36:57.495Z</time>
      </trkpt>
      <trkpt lat="45.02963" lon="2.4669">
        <ele>890.4</ele>
        <time>2026-08-21T07:36:58.544Z</time>
      </trkpt>
      <trkpt lat="45.02964" lon="2.46694">
        <ele>890.61</ele>
        <time>2026-08-21T07:36:59.496Z</time>
      </trkpt>
      <trkpt lat="45.02966" lon="2.46697">
        <ele>890.74</ele>
        <time>2026-08-21T07:37:00.499Z</time>
      </trkpt>
      <trkpt lat="45.02967" lon="2.46701">
        <ele>890.9</ele>
        <time>2026-08-21T07:37:01.065Z</time>
      </trkpt>
      <trkpt lat="45.02968" lon="2.46704">
        <ele>891.09</ele>
        <time>2026-08-21T07:37:02.088Z</time>
      </trkpt>
      <trkpt lat="45.0297" lon="2.46707">
        <ele>891.1</ele>
        <time>2026-08-21T07:37:03.505Z</time>
      </trkpt>
      <trkpt lat="45.02971" lon="2.46712">
        <ele>891.22</ele>
        <time>2026-08-21T07:37:04.506Z</time>
      </trkpt>
      <trkpt lat="45.02972" lon="2.46716">
        <ele>891.41</ele>
        <time>2026-08-21T07:37:05.508Z</time>
      </trkpt>
      <trkpt lat="45.02973" lon="2.46721">
        <ele>891.53</ele>
        <time>2026-08-21T07:37:06.510Z</time>
      </trkpt>
      <trkpt lat="45.02974" lon="2.46725">
        <ele>891.81</ele>
        <time>2026-08-21T07:37:07.154Z</time>
      </trkpt>
      <trkpt lat="45.02975" lon="2.4673">
        <ele>891.99</ele>
        <time>2026-08-21T07:37:08.514Z</time>
      </trkpt>
      <trkpt lat="45.02976" lon="2.46733">
        <ele>892.34</ele>
        <time>2026-08-21T07:37:09.517Z</time>
      </trkpt>
      <trkpt lat="45.02977" lon="2.46738">
        <ele>892.57</ele>
        <time>2026-08-21T07:37:10.523Z</time>
      </trkpt>
      <trkpt lat="45.02977" lon="2.46742">
        <ele>892.69</ele>
        <time>2026-08-21T07:37:11.524Z</time>
      </trkpt>
      <trkpt lat="45.02978" lon="2.46747">
        <ele>892.65</ele>
        <time>2026-08-21T07:37:12.525Z</time>
      </trkpt>
      <trkpt lat="45.02979" lon="2.46751">
        <ele>892.44</ele>
        <time>2026-08-21T07:37:13.398Z</time>
      </trkpt>
      <trkpt lat="45.02979" lon="2.46756">
        <ele>892.45</ele>
        <time>2026-08-21T07:37:14.531Z</time>
      </trkpt>
      <trkpt lat="45.0298" lon="2.4676">
        <ele>892.54</ele>
        <time>2026-08-21T07:37:15.537Z</time>
      </trkpt>
      <trkpt lat="45.0298" lon="2.46765">
        <ele>892.69</ele>
        <time>2026-08-21T07:37:16.537Z</time>
      </trkpt>
      <trkpt lat="45.0298" lon="2.46769">
        <ele>892.67</ele>
        <time>2026-08-21T07:37:17.539Z</time>
      </trkpt>
      <trkpt lat="45.02979" lon="2.46774">
        <ele>892.92</ele>
        <time>2026-08-21T07:37:18.227Z</time>
      </trkpt>
      <trkpt lat="45.02979" lon="2.46778">
        <ele>892.81</ele>
        <time>2026-08-21T07:37:19.544Z</time>
      </trkpt>
      <trkpt lat="45.02978" lon="2.46782">
        <ele>893.12</ele>
        <time>2026-08-21T07:37:20.548Z</time>
      </trkpt>
      <trkpt lat="45.02977" lon="2.46787">
        <ele>893.3</ele>
        <time>2026-08-21T07:37:21.550Z</time>
      </trkpt>
      <trkpt lat="45.02976" lon="2.46791">
        <ele>893.55</ele>
        <time>2026-08-21T07:37:22.553Z</time>
      </trkpt>
      <trkpt lat="45.02976" lon="2.46796">
        <ele>893.82</ele>
        <time>2026-08-21T07:37:23.555Z</time>
      </trkpt>
      <trkpt lat="45.02975" lon="2.468">
        <ele>894.05</ele>
        <time>2026-08-21T07:37:24.558Z</time>
      </trkpt>
      <trkpt lat="45.02974" lon="2.46805">
        <ele>894.23</ele>
        <time>2026-08-21T07:37:25.558Z</time>
      </trkpt>
      <trkpt lat="45.02974" lon="2.46811">
        <ele>894.18</ele>
        <time>2026-08-21T07:37:26.561Z</time>
      </trkpt>
      <trkpt lat="45.02973" lon="2.46817">
        <ele>894.48</ele>
        <time>2026-08-21T07:37:27.562Z</time>
      </trkpt>
      <trkpt lat="45.02972" lon="2.46822">
        <ele>894.65</ele>
        <time>2026-08-21T07:37:28.564Z</time>
      </trkpt>
      <trkpt lat="45.02972" lon="2.46827">
        <ele>894.77</ele>
        <time>2026-08-21T07:37:29.565Z</time>
      </trkpt>
      <trkpt lat="45.02972" lon="2.46833">
        <ele>894.94</ele>
        <time>2026-08-21T07:37:29.660Z</time>
      </trkpt>
      <trkpt lat="45.02972" lon="2.46838">
        <ele>895.13</ele>
        <time>2026-08-21T07:37:31.569Z</time>
      </trkpt>
      <trkpt lat="45.02972" lon="2.46843">
        <ele>895.17</ele>
        <time>2026-08-21T07:37:32.569Z</time>
      </trkpt>
      <trkpt lat="45.02972" lon="2.46847">
        <ele>895.21</ele>
        <time>2026-08-21T07:37:33.486Z</time>
      </trkpt>
      <trkpt lat="45.02972" lon="2.46852">
        <ele>894.92</ele>
        <time>2026-08-21T07:37:34.572Z</time>
      </trkpt>
      <trkpt lat="45.02973" lon="2.46856">
        <ele>895.04</ele>
        <time>2026-08-21T07:37:35.149Z</time>
      </trkpt>
      <trkpt lat="45.02974" lon="2.46862">
        <ele>895.31</ele>
        <time>2026-08-21T07:37:36.577Z</time>
      </trkpt>
      <trkpt lat="45.02974" lon="2.46867">
        <ele>895.4</ele>
        <time>2026-08-21T07:37:37.454Z</time>
      </trkpt>
      <trkpt lat="45.02974" lon="2.46871">
        <ele>895.54</ele>
        <time>2026-08-21T07:37:38.581Z</time>
      </trkpt>
      <trkpt lat="45.02976" lon="2.46877">
        <ele>895.62</ele>
        <time>2026-08-21T07:37:39.583Z</time>
      </trkpt>
      <trkpt lat="45.02977" lon="2.46882">
        <ele>895.61</ele>
        <time>2026-08-21T07:37:40.585Z</time>
      </trkpt>
      <trkpt lat="45.02978" lon="2.46886">
        <ele>895.85</ele>
        <time>2026-08-21T07:37:41.587Z</time>
      </trkpt>
      <trkpt lat="45.02979" lon="2.46891">
        <ele>895.89</ele>
        <time>2026-08-21T07:37:42.345Z</time>
      </trkpt>
      <trkpt lat="45.0298" lon="2.46895">
        <ele>895.97</ele>
        <time>2026-08-21T07:37:43.512Z</time>
      </trkpt>
      <trkpt lat="45.02982" lon="2.46899">
        <ele>896.21</ele>
        <time>2026-08-21T07:37:44.508Z</time>
      </trkpt>
      <trkpt lat="45.02984" lon="2.46902">
        <ele>896.44</ele>
        <time>2026-08-21T07:37:45.180Z</time>
      </trkpt>
      <trkpt lat="45.02986" lon="2.46906">
        <ele>896.59</ele>
        <time>2026-08-21T07:37:46.596Z</time>
      </trkpt>
      <trkpt lat="45.02987" lon="2.46911">
        <ele>896.68</ele>
        <time>2026-08-21T07:37:47.600Z</time>
      </trkpt>
      <trkpt lat="45.02989" lon="2.46916">
        <ele>896.77</ele>
        <time>2026-08-21T07:37:47.688Z</time>
      </trkpt>
      <trkpt lat="45.02991" lon="2.4692">
        <ele>896.71</ele>
        <time>2026-08-21T07:37:49.603Z</time>
      </trkpt>
      <trkpt lat="45.02992" lon="2.46924">
        <ele>896.81</ele>
        <time>2026-08-21T07:37:50.604Z</time>
      </trkpt>
      <trkpt lat="45.02994" lon="2.46928">
        <ele>896.74</ele>
        <time>2026-08-21T07:37:50.691Z</time>
      </trkpt>
      <trkpt lat="45.02995" lon="2.46933">
        <ele>896.78</ele>
        <time>2026-08-21T07:37:52.607Z</time>
      </trkpt>
      <trkpt lat="45.02996" lon="2.46937">
        <ele>896.88</ele>
        <time>2026-08-21T07:37:52.696Z</time>
      </trkpt>
      <trkpt lat="45.02998" lon="2.46941">
        <ele>897.02</ele>
        <time>2026-08-21T07:37:54.614Z</time>
      </trkpt>
      <trkpt lat="45.02999" lon="2.46945">
        <ele>897.07</ele>
        <time>2026-08-21T07:37:54.685Z</time>
      </trkpt>
      <trkpt lat="45.03" lon="2.46948">
        <ele>897.22</ele>
        <time>2026-08-21T07:37:55.699Z</time>
      </trkpt>
      <trkpt lat="45.03001" lon="2.46952">
        <ele>897.3</ele>
        <time>2026-08-21T07:37:57.617Z</time>
      </trkpt>
      <trkpt lat="45.03001" lon="2.46956">
        <ele>897.35</ele>
        <time>2026-08-21T07:37:57.706Z</time>
      </trkpt>
      <trkpt lat="45.03003" lon="2.4696">
        <ele>897.53</ele>
        <time>2026-08-21T07:37:58.663Z</time>
      </trkpt>
      <trkpt lat="45.03004" lon="2.46963">
        <ele>897.69</ele>
        <time>2026-08-21T07:38:00.478Z</time>
      </trkpt>
      <trkpt lat="45.03005" lon="2.46965">
        <ele>897.77</ele>
        <time>2026-08-21T07:38:00.709Z</time>
      </trkpt>
      <trkpt lat="45.03006" lon="2.46968">
        <ele>897.85</ele>
        <time>2026-08-21T07:38:01.697Z</time>
      </trkpt>
      <trkpt lat="45.03008" lon="2.46975">
        <ele>898.06</ele>
        <time>2026-08-21T07:38:04.533Z</time>
      </trkpt>
      <trkpt lat="45.03009" lon="2.46977">
        <ele>898.16</ele>
        <time>2026-08-21T07:38:05.635Z</time>
      </trkpt>
      <trkpt lat="45.03009" lon="2.46979">
        <ele>898.23</ele>
        <time>2026-08-21T07:38:05.716Z</time>
      </trkpt>
      <trkpt lat="45.0301" lon="2.46982">
        <ele>898.34</ele>
        <time>2026-08-21T07:38:06.708Z</time>
      </trkpt>
      <trkpt lat="45.03011" lon="2.46988">
        <ele>898.44</ele>
        <time>2026-08-21T07:38:09.544Z</time>
      </trkpt>
      <trkpt lat="45.03011" lon="2.4699">
        <ele>898.5</ele>
        <time>2026-08-21T07:38:10.550Z</time>
      </trkpt>
      <trkpt lat="45.03011" lon="2.46993">
        <ele>898.56</ele>
        <time>2026-08-21T07:38:11.549Z</time>
      </trkpt>
      <trkpt lat="45.03012" lon="2.46997">
        <ele>898.68</ele>
        <time>2026-08-21T07:38:12.551Z</time>
      </trkpt>
      <trkpt lat="45.03012" lon="2.47">
        <ele>898.74</ele>
        <time>2026-08-21T07:38:13.553Z</time>
      </trkpt>
      <trkpt lat="45.03013" lon="2.47003">
        <ele>898.79</ele>
        <time>2026-08-21T07:38:14.556Z</time>
      </trkpt>
      <trkpt lat="45.03013" lon="2.47007">
        <ele>898.9</ele>
        <time>2026-08-21T07:38:15.529Z</time>
      </trkpt>
      <trkpt lat="45.03013" lon="2.4701">
        <ele>898.98</ele>
        <time>2026-08-21T07:38:16.560Z</time>
      </trkpt>
      <trkpt lat="45.03014" lon="2.47013">
        <ele>899.03</ele>
        <time>2026-08-21T07:38:17.562Z</time>
      </trkpt>
      <trkpt lat="45.03015" lon="2.47015">
        <ele>899.17</ele>
        <time>2026-08-21T07:38:18.563Z</time>
      </trkpt>
      <trkpt lat="45.03015" lon="2.47018">
        <ele>899.29</ele>
        <time>2026-08-21T07:38:19.566Z</time>
      </trkpt>
      <trkpt lat="45.03016" lon="2.47021">
        <ele>899.4</ele>
        <time>2026-08-21T07:38:20.568Z</time>
      </trkpt>
      <trkpt lat="45.03016" lon="2.47023">
        <ele>899.52</ele>
        <time>2026-08-21T07:38:21.570Z</time>
      </trkpt>
      <trkpt lat="45.03017" lon="2.47025">
        <ele>899.6</ele>
        <time>2026-08-21T07:38:22.576Z</time>
      </trkpt>
      <trkpt lat="45.03017" lon="2.47028">
        <ele>899.7</ele>
        <time>2026-08-21T07:38:23.575Z</time>
      </trkpt>
      <trkpt lat="45.03018" lon="2.47031">
        <ele>899.8</ele>
        <time>2026-08-21T07:38:24.579Z</time>
      </trkpt>
      <trkpt lat="45.03018" lon="2.47034">
        <ele>899.9</ele>
        <time>2026-08-21T07:38:25.579Z</time>
      </trkpt>
      <trkpt lat="45.03019" lon="2.47037">
        <ele>899.92</ele>
        <time>2026-08-21T07:38:26.582Z</time>
      </trkpt>
      <trkpt lat="45.0302" lon="2.4704">
        <ele>899.97</ele>
        <time>2026-08-21T07:38:27.583Z</time>
      </trkpt>
      <trkpt lat="45.03021" lon="2.47043">
        <ele>900.06</ele>
        <time>2026-08-21T07:38:28.558Z</time>
      </trkpt>
      <trkpt lat="45.03021" lon="2.47046">
        <ele>900.19</ele>
        <time>2026-08-21T07:38:29.478Z</time>
      </trkpt>
      <trkpt lat="45.03022" lon="2.47049">
        <ele>900.24</ele>
        <time>2026-08-21T07:38:30.589Z</time>
      </trkpt>
      <trkpt lat="45.03022" lon="2.47052">
        <ele>900.29</ele>
        <time>2026-08-21T07:38:30.680Z</time>
      </trkpt>
      <trkpt lat="45.03023" lon="2.47054">
        <ele>900.38</ele>
        <time>2026-08-21T07:38:32.591Z</time>
      </trkpt>
      <trkpt lat="45.03024" lon="2.47057">
        <ele>900.41</ele>
        <time>2026-08-21T07:38:32.685Z</time>
      </trkpt>
      <trkpt lat="45.03024" lon="2.4706">
        <ele>900.49</ele>
        <time>2026-08-21T07:38:34.596Z</time>
      </trkpt>
      <trkpt lat="45.03025" lon="2.47063">
        <ele>900.53</ele>
        <time>2026-08-21T07:38:35.597Z</time>
      </trkpt>
      <trkpt lat="45.03025" lon="2.47065">
        <ele>900.56</ele>
        <time>2026-08-21T07:38:36.600Z</time>
      </trkpt>
      <trkpt lat="45.03025" lon="2.47068">
        <ele>900.55</ele>
        <time>2026-08-21T07:38:36.683Z</time>
      </trkpt>
      <trkpt lat="45.03025" lon="2.47071">
        <ele>900.61</ele>
        <time>2026-08-21T07:38:37.701Z</time>
      </trkpt>
      <trkpt lat="45.03025" lon="2.47075">
        <ele>900.65</ele>
        <time>2026-08-21T07:38:39.605Z</time>
      </trkpt>
      <trkpt lat="45.03026" lon="2.47077">
        <ele>900.7</ele>
        <time>2026-08-21T07:38:40.608Z</time>
      </trkpt>
      <trkpt lat="45.03026" lon="2.4708">
        <ele>900.74</ele>
        <time>2026-08-21T07:38:40.693Z</time>
      </trkpt>
      <trkpt lat="45.03026" lon="2.47083">
        <ele>900.8</ele>
        <time>2026-08-21T07:38:41.691Z</time>
      </trkpt>
      <trkpt lat="45.03027" lon="2.47086">
        <ele>900.87</ele>
        <time>2026-08-21T07:38:42.708Z</time>
      </trkpt>
      <trkpt lat="45.03027" lon="2.47088">
        <ele>900.96</ele>
        <time>2026-08-21T07:38:43.697Z</time>
      </trkpt>
      <trkpt lat="45.03027" lon="2.47091">
        <ele>901.02</ele>
        <time>2026-08-21T07:38:45.501Z</time>
      </trkpt>
      <trkpt lat="45.03026" lon="2.47093">
        <ele>901.08</ele>
        <time>2026-08-21T07:38:45.694Z</time>
      </trkpt>
      <trkpt lat="45.03026" lon="2.47096">
        <ele>901.14</ele>
        <time>2026-08-21T07:38:46.696Z</time>
      </trkpt>
      <trkpt lat="45.03026" lon="2.47099">
        <ele>901.2</ele>
        <time>2026-08-21T07:38:47.718Z</time>
      </trkpt>
      <trkpt lat="45.03026" lon="2.47102">
        <ele>901.3</ele>
        <time>2026-08-21T07:38:48.705Z</time>
      </trkpt>
      <trkpt lat="45.03026" lon="2.47104">
        <ele>901.37</ele>
        <time>2026-08-21T07:38:49.704Z</time>
      </trkpt>
      <trkpt lat="45.03025" lon="2.47107">
        <ele>901.45</ele>
        <time>2026-08-21T07:38:50.694Z</time>
      </trkpt>
      <trkpt lat="45.03025" lon="2.47111">
        <ele>901.49</ele>
        <time>2026-08-21T07:38:51.723Z</time>
      </trkpt>
      <trkpt lat="45.03025" lon="2.47114">
        <ele>901.51</ele>
        <time>2026-08-21T07:38:52.700Z</time>
      </trkpt>
      <trkpt lat="45.03025" lon="2.47117">
        <ele>901.52</ele>
        <time>2026-08-21T07:38:53.692Z</time>
      </trkpt>
      <trkpt lat="45.03025" lon="2.47121">
        <ele>901.53</ele>
        <time>2026-08-21T07:38:55.349Z</time>
      </trkpt>
      <trkpt lat="45.03025" lon="2.47124">
        <ele>901.58</ele>
        <time>2026-08-21T07:38:55.695Z</time>
      </trkpt>
      <trkpt lat="45.03025" lon="2.47127">
        <ele>901.62</ele>
        <time>2026-08-21T07:38:56.714Z</time>
      </trkpt>
      <trkpt lat="45.03025" lon="2.4713">
        <ele>901.64</ele>
        <time>2026-08-21T07:38:57.708Z</time>
      </trkpt>
      <trkpt lat="45.03026" lon="2.47136">
        <ele>901.71</ele>
        <time>2026-08-21T07:38:59.698Z</time>
      </trkpt>
      <trkpt lat="45.03026" lon="2.47138">
        <ele>901.76</ele>
        <time>2026-08-21T07:39:00.713Z</time>
      </trkpt>
      <trkpt lat="45.03026" lon="2.4714">
        <ele>901.78</ele>
        <time>2026-08-21T07:39:01.709Z</time>
      </trkpt>
      <trkpt lat="45.03026" lon="2.47143">
        <ele>901.86</ele>
        <time>2026-08-21T07:39:02.717Z</time>
      </trkpt>
      <trkpt lat="45.03026" lon="2.47146">
        <ele>901.92</ele>
        <time>2026-08-21T07:39:03.710Z</time>
      </trkpt>
      <trkpt lat="45.03026" lon="2.47148">
        <ele>901.98</ele>
        <time>2026-08-21T07:39:04.697Z</time>
      </trkpt>
      <trkpt lat="45.03026" lon="2.4715">
        <ele>902.03</ele>
        <time>2026-08-21T07:39:06.679Z</time>
      </trkpt>
      <trkpt lat="45.03026" lon="2.47152">
        <ele>902.07</ele>
        <time>2026-08-21T07:39:07.612Z</time>
      </trkpt>
      <trkpt lat="45.03026" lon="2.47154">
        <ele>902.07</ele>
        <time>2026-08-21T07:39:08.694Z</time>
      </trkpt>
      <trkpt lat="45.03026" lon="2.47157">
        <ele>902.1</ele>
        <time>2026-08-21T07:39:08.718Z</time>
      </trkpt>
      <trkpt lat="45.03026" lon="2.4716">
        <ele>902.15</ele>
        <time>2026-08-21T07:39:10.696Z</time>
      </trkpt>
      <trkpt lat="45.03026" lon="2.47163">
        <ele>902.17</ele>
        <time>2026-08-21T07:39:11.660Z</time>
      </trkpt>
      <trkpt lat="45.03026" lon="2.47165">
        <ele>902.2</ele>
        <time>2026-08-21T07:39:12.681Z</time>
      </trkpt>
      <trkpt lat="45.03025" lon="2.47171">
        <ele>902.31</ele>
        <time>2026-08-21T07:39:14.576Z</time>
      </trkpt>
      <trkpt lat="45.03025" lon="2.47172">
        <ele>902.35</ele>
        <time>2026-08-21T07:39:15.714Z</time>
      </trkpt>
      <trkpt lat="45.03025" lon="2.47174">
        <ele>902.37</ele>
        <time>2026-08-21T07:39:16.712Z</time>
      </trkpt>
      <trkpt lat="45.03025" lon="2.47176">
        <ele>902.4</ele>
        <time>2026-08-21T07:39:17.356Z</time>
      </trkpt>
      <trkpt lat="45.03025" lon="2.47178">
        <ele>902.49</ele>
        <time>2026-08-21T07:39:18.710Z</time>
      </trkpt>
      <trkpt lat="45.03026" lon="2.47181">
        <ele>902.58</ele>
        <time>2026-08-21T07:39:19.712Z</time>
      </trkpt>
      <trkpt lat="45.03026" lon="2.47184">
        <ele>902.7</ele>
        <time>2026-08-21T07:39:20.701Z</time>
      </trkpt>
      <trkpt lat="45.03026" lon="2.47186">
        <ele>902.77</ele>
        <time>2026-08-21T07:39:21.679Z</time>
      </trkpt>
      <trkpt lat="45.03026" lon="2.47193">
        <ele>902.92</ele>
        <time>2026-08-21T07:39:23.697Z</time>
      </trkpt>
      <trkpt lat="45.03026" lon="2.47196">
        <ele>902.99</ele>
        <time>2026-08-21T07:39:23.776Z</time>
      </trkpt>
      <trkpt lat="45.03026" lon="2.47199">
        <ele>903.07</ele>
        <time>2026-08-21T07:39:25.516Z</time>
      </trkpt>
      <trkpt lat="45.03026" lon="2.47202">
        <ele>903.16</ele>
        <time>2026-08-21T07:39:26.695Z</time>
      </trkpt>
      <trkpt lat="45.03026" lon="2.47205">
        <ele>903.23</ele>
        <time>2026-08-21T07:39:27.690Z</time>
      </trkpt>
      <trkpt lat="45.03027" lon="2.47209">
        <ele>903.31</ele>
        <time>2026-08-21T07:39:28.696Z</time>
      </trkpt>
      <trkpt lat="45.03027" lon="2.47212">
        <ele>903.39</ele>
        <time>2026-08-21T07:39:29.721Z</time>
      </trkpt>
      <trkpt lat="45.03027" lon="2.47215">
        <ele>903.49</ele>
        <time>2026-08-21T07:39:30.695Z</time>
      </trkpt>
      <trkpt lat="45.03027" lon="2.47218">
        <ele>903.61</ele>
        <time>2026-08-21T07:39:31.558Z</time>
      </trkpt>
      <trkpt lat="45.03028" lon="2.47221">
        <ele>903.65</ele>
        <time>2026-08-21T07:39:32.363Z</time>
      </trkpt>
      <trkpt lat="45.03028" lon="2.47224">
        <ele>903.69</ele>
        <time>2026-08-21T07:39:33.718Z</time>
      </trkpt>
      <trkpt lat="45.03028" lon="2.47227">
        <ele>903.78</ele>
        <time>2026-08-21T07:39:34.700Z</time>
      </trkpt>
      <trkpt lat="45.03028" lon="2.4723">
        <ele>903.8</ele>
        <time>2026-08-21T07:39:35.266Z</time>
      </trkpt>
      <trkpt lat="45.03029" lon="2.47233">
        <ele>903.89</ele>
        <time>2026-08-21T07:39:36.708Z</time>
      </trkpt>
      <trkpt lat="45.03029" lon="2.47236">
        <ele>903.93</ele>
        <time>2026-08-21T07:39:37.277Z</time>
      </trkpt>
      <trkpt lat="45.03029" lon="2.47239">
        <ele>903.96</ele>
        <time>2026-08-21T07:39:37.745Z</time>
      </trkpt>
      <trkpt lat="45.03029" lon="2.47243">
        <ele>904.05</ele>
        <time>2026-08-21T07:39:38.734Z</time>
      </trkpt>
      <trkpt lat="45.03029" lon="2.47246">
        <ele>904.05</ele>
        <time>2026-08-21T07:39:40.709Z</time>
      </trkpt>
      <trkpt lat="45.03029" lon="2.47249">
        <ele>904.09</ele>
        <time>2026-08-21T07:39:41.266Z</time>
      </trkpt>
      <trkpt lat="45.03029" lon="2.47252">
        <ele>904.13</ele>
        <time>2026-08-21T07:39:42.254Z</time>
      </trkpt>
      <trkpt lat="45.03029" lon="2.47255">
        <ele>904.19</ele>
        <time>2026-08-21T07:39:43.713Z</time>
      </trkpt>
      <trkpt lat="45.03029" lon="2.47259">
        <ele>904.25</ele>
        <time>2026-08-21T07:39:44.327Z</time>
      </trkpt>
      <trkpt lat="45.0303" lon="2.47262">
        <ele>904.36</ele>
        <time>2026-08-21T07:39:45.225Z</time>
      </trkpt>
      <trkpt lat="45.0303" lon="2.47266">
        <ele>904.41</ele>
        <time>2026-08-21T07:39:46.730Z</time>
      </trkpt>
      <trkpt lat="45.0303" lon="2.4727">
        <ele>904.48</ele>
        <time>2026-08-21T07:39:47.415Z</time>
      </trkpt>
      <trkpt lat="45.0303" lon="2.47273">
        <ele>904.58</ele>
        <time>2026-08-21T07:39:48.723Z</time>
      </trkpt>
      <trkpt lat="45.03031" lon="2.47276">
        <ele>904.64</ele>
        <time>2026-08-21T07:39:49.305Z</time>
      </trkpt>
      <trkpt lat="45.03031" lon="2.47279">
        <ele>904.67</ele>
        <time>2026-08-21T07:39:50.676Z</time>
      </trkpt>
      <trkpt lat="45.03031" lon="2.47283">
        <ele>904.67</ele>
        <time>2026-08-21T07:39:51.728Z</time>
      </trkpt>
      <trkpt lat="45.03032" lon="2.47286">
        <ele>904.7</ele>
        <time>2026-08-21T07:39:52.336Z</time>
      </trkpt>
      <trkpt lat="45.03032" lon="2.4729">
        <ele>904.74</ele>
        <time>2026-08-21T07:39:53.335Z</time>
      </trkpt>
      <trkpt lat="45.03032" lon="2.47293">
        <ele>904.79</ele>
        <time>2026-08-21T07:39:53.760Z</time>
      </trkpt>
      <trkpt lat="45.03032" lon="2.47298">
        <ele>904.84</ele>
        <time>2026-08-21T07:39:55.396Z</time>
      </trkpt>
      <trkpt lat="45.03032" lon="2.47302">
        <ele>904.85</ele>
        <time>2026-08-21T07:39:56.694Z</time>
      </trkpt>
      <trkpt lat="45.03032" lon="2.47306">
        <ele>904.88</ele>
        <time>2026-08-21T07:39:57.736Z</time>
      </trkpt>
      <trkpt lat="45.03033" lon="2.47309">
        <ele>904.91</ele>
        <time>2026-08-21T07:39:58.547Z</time>
      </trkpt>
      <trkpt lat="45.03033" lon="2.47313">
        <ele>904.92</ele>
        <time>2026-08-21T07:39:59.508Z</time>
      </trkpt>
      <trkpt lat="45.03035" lon="2.47316">
        <ele>904.92</ele>
        <time>2026-08-21T07:40:00.741Z</time>
      </trkpt>
      <trkpt lat="45.03037" lon="2.47319">
        <ele>904.88</ele>
        <time>2026-08-21T07:40:00.779Z</time>
      </trkpt>
      <trkpt lat="45.03038" lon="2.47322">
        <ele>904.96</ele>
        <time>2026-08-21T07:40:02.734Z</time>
      </trkpt>
      <trkpt lat="45.03041" lon="2.47325">
        <ele>904.77</ele>
        <time>2026-08-21T07:40:03.734Z</time>
      </trkpt>
      <trkpt lat="45.03043" lon="2.47328">
        <ele>904.68</ele>
        <time>2026-08-21T07:40:04.736Z</time>
      </trkpt>
      <trkpt lat="45.03046" lon="2.47333">
        <ele>904.47</ele>
        <time>2026-08-21T07:40:05.353Z</time>
      </trkpt>
      <trkpt lat="45.03048" lon="2.47337">
        <ele>904.16</ele>
        <time>2026-08-21T07:40:06.342Z</time>
      </trkpt>
      <trkpt lat="45.03049" lon="2.47341">
        <ele>904.17</ele>
        <time>2026-08-21T07:40:07.337Z</time>
      </trkpt>
      <trkpt lat="45.0305" lon="2.47345">
        <ele>904.15</ele>
        <time>2026-08-21T07:40:08.742Z</time>
      </trkpt>
      <trkpt lat="45.0305" lon="2.47348">
        <ele>904.14</ele>
        <time>2026-08-21T07:40:09.345Z</time>
      </trkpt>
      <trkpt lat="45.0305" lon="2.47351">
        <ele>904.07</ele>
        <time>2026-08-21T07:40:10.746Z</time>
      </trkpt>
      <trkpt lat="45.0305" lon="2.47354">
        <ele>904.07</ele>
        <time>2026-08-21T07:40:11.352Z</time>
      </trkpt>
      <trkpt lat="45.0305" lon="2.47358">
        <ele>904.05</ele>
        <time>2026-08-21T07:40:12.345Z</time>
      </trkpt>
      <trkpt lat="45.0305" lon="2.47361">
        <ele>904.08</ele>
        <time>2026-08-21T07:40:13.753Z</time>
      </trkpt>
      <trkpt lat="45.03051" lon="2.47364">
        <ele>904.16</ele>
        <time>2026-08-21T07:40:14.355Z</time>
      </trkpt>
      <trkpt lat="45.03051" lon="2.47368">
        <ele>904.18</ele>
        <time>2026-08-21T07:40:15.692Z</time>
      </trkpt>
      <trkpt lat="45.03051" lon="2.4737">
        <ele>904.22</ele>
        <time>2026-08-21T07:40:16.636Z</time>
      </trkpt>
      <trkpt lat="45.03051" lon="2.47374">
        <ele>904.23</ele>
        <time>2026-08-21T07:40:17.354Z</time>
      </trkpt>
      <trkpt lat="45.03052" lon="2.47377">
        <ele>904.34</ele>
        <time>2026-08-21T07:40:18.527Z</time>
      </trkpt>
      <trkpt lat="45.03053" lon="2.4738">
        <ele>904.43</ele>
        <time>2026-08-21T07:40:19.388Z</time>
      </trkpt>
      <trkpt lat="45.03054" lon="2.47383">
        <ele>904.47</ele>
        <time>2026-08-21T07:40:20.328Z</time>
      </trkpt>
      <trkpt lat="45.03054" lon="2.47387">
        <ele>904.58</ele>
        <time>2026-08-21T07:40:21.536Z</time>
      </trkpt>
      <trkpt lat="45.03055" lon="2.4739">
        <ele>904.75</ele>
        <time>2026-08-21T07:40:22.338Z</time>
      </trkpt>
      <trkpt lat="45.03056" lon="2.47394">
        <ele>904.87</ele>
        <time>2026-08-21T07:40:23.674Z</time>
      </trkpt>
      <trkpt lat="45.03056" lon="2.47397">
        <ele>905.06</ele>
        <time>2026-08-21T07:40:24.777Z</time>
      </trkpt>
      <trkpt lat="45.03057" lon="2.474">
        <ele>905.19</ele>
        <time>2026-08-21T07:40:25.339Z</time>
      </trkpt>
      <trkpt lat="45.03058" lon="2.47403">
        <ele>905.35</ele>
        <time>2026-08-21T07:40:26.355Z</time>
      </trkpt>
      <trkpt lat="45.03059" lon="2.47406">
        <ele>905.5</ele>
        <time>2026-08-21T07:40:27.682Z</time>
      </trkpt>
      <trkpt lat="45.0306" lon="2.47409">
        <ele>905.7</ele>
        <time>2026-08-21T07:40:28.685Z</time>
      </trkpt>
      <trkpt lat="45.03062" lon="2.47414">
        <ele>905.95</ele>
        <time>2026-08-21T07:40:29.691Z</time>
      </trkpt>
      <trkpt lat="45.03063" lon="2.47418">
        <ele>905.93</ele>
        <time>2026-08-21T07:40:30.692Z</time>
      </trkpt>
      <trkpt lat="45.03064" lon="2.47422">
        <ele>905.93</ele>
        <time>2026-08-21T07:40:31.693Z</time>
      </trkpt>
      <trkpt lat="45.03066" lon="2.47427">
        <ele>905.88</ele>
        <time>2026-08-21T07:40:32.694Z</time>
      </trkpt>
      <trkpt lat="45.03067" lon="2.4743">
        <ele>905.9</ele>
        <time>2026-08-21T07:40:33.694Z</time>
      </trkpt>
      <trkpt lat="45.03067" lon="2.47434">
        <ele>905.91</ele>
        <time>2026-08-21T07:40:34.696Z</time>
      </trkpt>
      <trkpt lat="45.03069" lon="2.47438">
        <ele>905.93</ele>
        <time>2026-08-21T07:40:35.698Z</time>
      </trkpt>
      <trkpt lat="45.0307" lon="2.47442">
        <ele>905.79</ele>
        <time>2026-08-21T07:40:36.700Z</time>
      </trkpt>
      <trkpt lat="45.03072" lon="2.47447">
        <ele>905.71</ele>
        <time>2026-08-21T07:40:37.486Z</time>
      </trkpt>
      <trkpt lat="45.03073" lon="2.4745">
        <ele>905.74</ele>
        <time>2026-08-21T07:40:38.703Z</time>
      </trkpt>
      <trkpt lat="45.03075" lon="2.47454">
        <ele>905.81</ele>
        <time>2026-08-21T07:40:39.703Z</time>
      </trkpt>
      <trkpt lat="45.03077" lon="2.4746">
        <ele>905.8</ele>
        <time>2026-08-21T07:40:40.704Z</time>
      </trkpt>
      <trkpt lat="45.03079" lon="2.47465">
        <ele>905.76</ele>
        <time>2026-08-21T07:40:41.706Z</time>
      </trkpt>
      <trkpt lat="45.03081" lon="2.4747">
        <ele>905.68</ele>
        <time>2026-08-21T07:40:42.707Z</time>
      </trkpt>
      <trkpt lat="45.03083" lon="2.47475">
        <ele>905.43</ele>
        <time>2026-08-21T07:40:43.710Z</time>
      </trkpt>
      <trkpt lat="45.03085" lon="2.4748">
        <ele>905.4</ele>
        <time>2026-08-21T07:40:44.710Z</time>
      </trkpt>
      <trkpt lat="45.03088" lon="2.47484">
        <ele>905.26</ele>
        <time>2026-08-21T07:40:45.712Z</time>
      </trkpt>
      <trkpt lat="45.0309" lon="2.47488">
        <ele>905.18</ele>
        <time>2026-08-21T07:40:46.715Z</time>
      </trkpt>
      <trkpt lat="45.03091" lon="2.47492">
        <ele>905.35</ele>
        <time>2026-08-21T07:40:47.717Z</time>
      </trkpt>
      <trkpt lat="45.03094" lon="2.47498">
        <ele>904.84</ele>
        <time>2026-08-21T07:40:48.720Z</time>
      </trkpt>
      <trkpt lat="45.03095" lon="2.47503">
        <ele>904.82</ele>
        <time>2026-08-21T07:40:49.721Z</time>
      </trkpt>
      <trkpt lat="45.03096" lon="2.47507">
        <ele>904.85</ele>
        <time>2026-08-21T07:40:50.724Z</time>
      </trkpt>
      <trkpt lat="45.03096" lon="2.47511">
        <ele>904.55</ele>
        <time>2026-08-21T07:40:51.726Z</time>
      </trkpt>
      <trkpt lat="45.03096" lon="2.47516">
        <ele>904.59</ele>
        <time>2026-08-21T07:40:52.727Z</time>
      </trkpt>
      <trkpt lat="45.03096" lon="2.4752">
        <ele>904.52</ele>
        <time>2026-08-21T07:40:52.824Z</time>
      </trkpt>
      <trkpt lat="45.03096" lon="2.47524">
        <ele>904.39</ele>
        <time>2026-08-21T07:40:54.732Z</time>
      </trkpt>
      <trkpt lat="45.03098" lon="2.47528">
        <ele>904.38</ele>
        <time>2026-08-21T07:40:54.822Z</time>
      </trkpt>
      <trkpt lat="45.03099" lon="2.47531">
        <ele>904.55</ele>
        <time>2026-08-21T07:40:56.366Z</time>
      </trkpt>
      <trkpt lat="45.031" lon="2.47533">
        <ele>904.57</ele>
        <time>2026-08-21T07:40:56.831Z</time>
      </trkpt>
      <trkpt lat="45.03102" lon="2.47536">
        <ele>904.86</ele>
        <time>2026-08-21T07:40:58.334Z</time>
      </trkpt>
      <trkpt lat="45.03104" lon="2.47538">
        <ele>904.95</ele>
        <time>2026-08-21T07:40:58.837Z</time>
      </trkpt>
      <trkpt lat="45.03106" lon="2.47541">
        <ele>904.97</ele>
        <time>2026-08-21T07:41:00.344Z</time>
      </trkpt>
      <trkpt lat="45.03108" lon="2.47543">
        <ele>905</ele>
        <time>2026-08-21T07:41:01.339Z</time>
      </trkpt>
      <trkpt lat="45.03111" lon="2.47544">
        <ele>905.01</ele>
        <time>2026-08-21T07:41:02.328Z</time>
      </trkpt>
      <trkpt lat="45.03113" lon="2.47546">
        <ele>904.91</ele>
        <time>2026-08-21T07:41:03.347Z</time>
      </trkpt>
      <trkpt lat="45.03116" lon="2.47548">
        <ele>904.94</ele>
        <time>2026-08-21T07:41:04.755Z</time>
      </trkpt>
      <trkpt lat="45.03119" lon="2.4755">
        <ele>904.98</ele>
        <time>2026-08-21T07:41:05.805Z</time>
      </trkpt>
      <trkpt lat="45.03121" lon="2.47552">
        <ele>904.96</ele>
        <time>2026-08-21T07:41:06.761Z</time>
      </trkpt>
      <trkpt lat="45.03124" lon="2.47554">
        <ele>905.03</ele>
        <time>2026-08-21T07:41:07.763Z</time>
      </trkpt>
      <trkpt lat="45.03127" lon="2.47557">
        <ele>905.14</ele>
        <time>2026-08-21T07:41:08.767Z</time>
      </trkpt>
      <trkpt lat="45.0313" lon="2.47559">
        <ele>905.13</ele>
        <time>2026-08-21T07:41:09.769Z</time>
      </trkpt>
      <trkpt lat="45.03134" lon="2.47561">
        <ele>905.15</ele>
        <time>2026-08-21T07:41:10.771Z</time>
      </trkpt>
      <trkpt lat="45.03137" lon="2.47563">
        <ele>905.09</ele>
        <time>2026-08-21T07:41:11.835Z</time>
      </trkpt>
      <trkpt lat="45.03141" lon="2.47567">
        <ele>904.84</ele>
        <time>2026-08-21T07:41:12.778Z</time>
      </trkpt>
      <trkpt lat="45.03145" lon="2.4757">
        <ele>904.5</ele>
        <time>2026-08-21T07:41:13.819Z</time>
      </trkpt>
      <trkpt lat="45.03149" lon="2.47573">
        <ele>904.73</ele>
        <time>2026-08-21T07:41:14.781Z</time>
      </trkpt>
      <trkpt lat="45.03153" lon="2.47577">
        <ele>904.77</ele>
        <time>2026-08-21T07:41:15.412Z</time>
      </trkpt>
      <trkpt lat="45.03158" lon="2.4758">
        <ele>904.9</ele>
        <time>2026-08-21T07:41:16.337Z</time>
      </trkpt>
      <trkpt lat="45.03162" lon="2.47582">
        <ele>905</ele>
        <time>2026-08-21T07:41:17.355Z</time>
      </trkpt>
      <trkpt lat="45.03166" lon="2.47585">
        <ele>904.89</ele>
        <time>2026-08-21T07:41:17.851Z</time>
      </trkpt>
      <trkpt lat="45.0317" lon="2.47588">
        <ele>904.89</ele>
        <time>2026-08-21T07:41:19.845Z</time>
      </trkpt>
      <trkpt lat="45.03175" lon="2.4759">
        <ele>904.91</ele>
        <time>2026-08-21T07:41:20.793Z</time>
      </trkpt>
      <trkpt lat="45.03179" lon="2.47592">
        <ele>904.97</ele>
        <time>2026-08-21T07:41:21.795Z</time>
      </trkpt>
      <trkpt lat="45.03183" lon="2.47594">
        <ele>905.04</ele>
        <time>2026-08-21T07:41:22.843Z</time>
      </trkpt>
      <trkpt lat="45.03187" lon="2.47595">
        <ele>904.92</ele>
        <time>2026-08-21T07:41:23.798Z</time>
      </trkpt>
      <trkpt lat="45.03192" lon="2.47597">
        <ele>904.85</ele>
        <time>2026-08-21T07:41:24.800Z</time>
      </trkpt>
      <trkpt lat="45.03196" lon="2.47599">
        <ele>904.83</ele>
        <time>2026-08-21T07:41:25.800Z</time>
      </trkpt>
      <trkpt lat="45.03202" lon="2.47601">
        <ele>904.75</ele>
        <time>2026-08-21T07:41:26.802Z</time>
      </trkpt>
      <trkpt lat="45.03207" lon="2.47604">
        <ele>904.67</ele>
        <time>2026-08-21T07:41:27.804Z</time>
      </trkpt>
      <trkpt lat="45.03213" lon="2.47607">
        <ele>904.47</ele>
        <time>2026-08-21T07:41:28.807Z</time>
      </trkpt>
      <trkpt lat="45.03214" lon="2.47607">
        <ele>904.23</ele>
        <time>2026-08-21T07:41:29.809Z</time>
      </trkpt>
      <trkpt lat="45.03227" lon="2.47615">
        <ele>904.22</ele>
        <time>2026-08-21T07:41:29.903Z</time>
      </trkpt>
      <trkpt lat="45.03234" lon="2.47619">
        <ele>904.09</ele>
        <time>2026-08-21T07:41:31.812Z</time>
      </trkpt>
      <trkpt lat="45.03238" lon="2.47622">
        <ele>904.12</ele>
        <time>2026-08-21T07:41:32.814Z</time>
      </trkpt>
      <trkpt lat="45.03244" lon="2.47627">
        <ele>904.17</ele>
        <time>2026-08-21T07:41:33.814Z</time>
      </trkpt>
      <trkpt lat="45.03248" lon="2.47629">
        <ele>904.25</ele>
        <time>2026-08-21T07:41:34.848Z</time>
      </trkpt>
      <trkpt lat="45.03252" lon="2.47631">
        <ele>904.37</ele>
        <time>2026-08-21T07:41:34.904Z</time>
      </trkpt>
      <trkpt lat="45.03257" lon="2.47633">
        <ele>904.08</ele>
        <time>2026-08-21T07:41:35.899Z</time>
      </trkpt>
      <trkpt lat="45.03262" lon="2.47635">
        <ele>903.34</ele>
        <time>2026-08-21T07:41:37.826Z</time>
      </trkpt>
      <trkpt lat="45.03267" lon="2.47636">
        <ele>902.69</ele>
        <time>2026-08-21T07:41:38.825Z</time>
      </trkpt>
      <trkpt lat="45.03271" lon="2.47637">
        <ele>902.68</ele>
        <time>2026-08-21T07:41:39.827Z</time>
      </trkpt>
      <trkpt lat="45.03276" lon="2.47639">
        <ele>902.68</ele>
        <time>2026-08-21T07:41:40.828Z</time>
      </trkpt>
      <trkpt lat="45.0328" lon="2.47638">
        <ele>902.47</ele>
        <time>2026-08-21T07:41:41.832Z</time>
      </trkpt>
      <trkpt lat="45.03285" lon="2.47637">
        <ele>902.41</ele>
        <time>2026-08-21T07:41:42.832Z</time>
      </trkpt>
      <trkpt lat="45.0329" lon="2.47637">
        <ele>901.61</ele>
        <time>2026-08-21T07:41:43.833Z</time>
      </trkpt>
      <trkpt lat="45.03295" lon="2.47638">
        <ele>901.04</ele>
        <time>2026-08-21T07:41:44.836Z</time>
      </trkpt>
      <trkpt lat="45.03297" lon="2.47638">
        <ele>899.95</ele>
        <time>2026-08-21T07:41:45.837Z</time>
      </trkpt>
      <trkpt lat="45.03309" lon="2.47639">
        <ele>899.32</ele>
        <time>2026-08-21T07:41:46.842Z</time>
      </trkpt>
      <trkpt lat="45.03315" lon="2.47641">
        <ele>898.16</ele>
        <time>2026-08-21T07:41:47.864Z</time>
      </trkpt>
      <trkpt lat="45.0332" lon="2.47641">
        <ele>897.19</ele>
        <time>2026-08-21T07:41:48.840Z</time>
      </trkpt>
      <trkpt lat="45.03324" lon="2.47643">
        <ele>896.56</ele>
        <time>2026-08-21T07:41:49.843Z</time>
      </trkpt>
      <trkpt lat="45.03328" lon="2.47644">
        <ele>895.45</ele>
        <time>2026-08-21T07:41:50.844Z</time>
      </trkpt>
      <trkpt lat="45.03341" lon="2.47647">
        <ele>895.45</ele>
        <time>2026-08-21T07:41:52.848Z</time>
      </trkpt>
      <trkpt lat="45.03345" lon="2.47648">
        <ele>889.17</ele>
        <time>2026-08-21T07:41:53.510Z</time>
      </trkpt>
      <trkpt lat="45.03349" lon="2.4765">
        <ele>888.03</ele>
        <time>2026-08-21T07:41:54.852Z</time>
      </trkpt>
      <trkpt lat="45.03352" lon="2.47653">
        <ele>886.34</ele>
        <time>2026-08-21T07:41:54.914Z</time>
      </trkpt>
      <trkpt lat="45.03355" lon="2.47657">
        <ele>885.38</ele>
        <time>2026-08-21T07:41:56.855Z</time>
      </trkpt>
      <trkpt lat="45.03357" lon="2.47661">
        <ele>884.56</ele>
        <time>2026-08-21T07:41:57.855Z</time>
      </trkpt>
      <trkpt lat="45.0336" lon="2.47664">
        <ele>883.87</ele>
        <time>2026-08-21T07:41:57.921Z</time>
      </trkpt>
      <trkpt lat="45.0337" lon="2.47678">
        <ele>882.52</ele>
        <time>2026-08-21T07:42:33.914Z</time>
      </trkpt>
      <trkpt lat="45.03371" lon="2.47679">
        <ele>880.18</ele>
        <time>2026-08-21T07:42:35.823Z</time>
      </trkpt>
      <trkpt lat="45.03371" lon="2.4768">
        <ele>880.13</ele>
        <time>2026-08-21T07:42:35.895Z</time>
      </trkpt>
      <trkpt lat="45.03371" lon="2.47681">
        <ele>880.07</ele>
        <time>2026-08-21T07:42:36.921Z</time>
      </trkpt>
      <trkpt lat="45.03372" lon="2.47683">
        <ele>880.03</ele>
        <time>2026-08-21T07:42:38.872Z</time>
      </trkpt>
      <trkpt lat="45.03373" lon="2.47686">
        <ele>879.99</ele>
        <time>2026-08-21T07:42:39.832Z</time>
      </trkpt>
      <trkpt lat="45.03374" lon="2.4769">
        <ele>879.91</ele>
        <time>2026-08-21T07:42:39.918Z</time>
      </trkpt>
      <trkpt lat="45.03375" lon="2.47693">
        <ele>879.81</ele>
        <time>2026-08-21T07:42:41.880Z</time>
      </trkpt>
      <trkpt lat="45.03375" lon="2.47698">
        <ele>879.81</ele>
        <time>2026-08-21T07:42:42.839Z</time>
      </trkpt>
      <trkpt lat="45.03376" lon="2.47704">
        <ele>879.63</ele>
        <time>2026-08-21T07:42:43.839Z</time>
      </trkpt>
      <trkpt lat="45.03378" lon="2.47711">
        <ele>879.53</ele>
        <time>2026-08-21T07:42:43.903Z</time>
      </trkpt>
      <trkpt lat="45.03378" lon="2.47714">
        <ele>879.39</ele>
        <time>2026-08-21T07:42:45.844Z</time>
      </trkpt>
      <trkpt lat="45.0338" lon="2.47726">
        <ele>879.27</ele>
        <time>2026-08-21T07:42:45.907Z</time>
      </trkpt>
      <trkpt lat="45.03382" lon="2.47734">
        <ele>878.93</ele>
        <time>2026-08-21T07:42:47.870Z</time>
      </trkpt>
      <trkpt lat="45.03382" lon="2.47737">
        <ele>878.94</ele>
        <time>2026-08-21T07:42:48.852Z</time>
      </trkpt>
      <trkpt lat="45.03383" lon="2.47751">
        <ele>878.84</ele>
        <time>2026-08-21T07:42:49.852Z</time>
      </trkpt>
      <trkpt lat="45.03383" lon="2.47757">
        <ele>878.59</ele>
        <time>2026-08-21T07:42:50.855Z</time>
      </trkpt>
      <trkpt lat="45.03383" lon="2.47763">
        <ele>878.47</ele>
        <time>2026-08-21T07:42:51.857Z</time>
      </trkpt>
      <trkpt lat="45.03381" lon="2.47772">
        <ele>878.11</ele>
        <time>2026-08-21T07:43:11.989Z</time>
      </trkpt>
      <trkpt lat="45.03383" lon="2.47772">
        <ele>876.31</ele>
        <time>2026-08-21T07:43:15.082Z</time>
      </trkpt>
      <trkpt lat="45.03389" lon="2.47769">
        <ele>874.71</ele>
        <time>2026-08-21T07:44:20.808Z</time>
      </trkpt>
      <trkpt lat="45.03389" lon="2.4777">
        <ele>874.34</ele>
        <time>2026-08-21T07:44:21.811Z</time>
      </trkpt>
      <trkpt lat="45.03393" lon="2.47774">
        <ele>874.26</ele>
        <time>2026-08-21T07:44:38.004Z</time>
      </trkpt>
      <trkpt lat="45.03394" lon="2.47775">
        <ele>873.17</ele>
        <time>2026-08-21T07:45:26.433Z</time>
      </trkpt>
      <trkpt lat="45.03396" lon="2.47776">
        <ele>873.15</ele>
        <time>2026-08-21T07:45:26.529Z</time>
      </trkpt>
      <trkpt lat="45.03399" lon="2.47778">
        <ele>873.15</ele>
        <time>2026-08-21T07:45:27.530Z</time>
      </trkpt>
      <trkpt lat="45.03403" lon="2.47779">
        <ele>873.07</ele>
        <time>2026-08-21T07:45:29.481Z</time>
      </trkpt>
      <trkpt lat="45.03408" lon="2.47781">
        <ele>872.96</ele>
        <time>2026-08-21T07:45:30.504Z</time>
      </trkpt>
      <trkpt lat="45.03414" lon="2.47784">
        <ele>872.8</ele>
        <time>2026-08-21T07:45:31.442Z</time>
      </trkpt>
      <trkpt lat="45.03421" lon="2.47787">
        <ele>872.8</ele>
        <time>2026-08-21T07:45:31.524Z</time>
      </trkpt>
      <trkpt lat="45.03425" lon="2.47789">
        <ele>872.74</ele>
        <time>2026-08-21T07:45:33.504Z</time>
      </trkpt>
      <trkpt lat="45.03436" lon="2.47795">
        <ele>872.66</ele>
        <time>2026-08-21T07:45:34.446Z</time>
      </trkpt>
      <trkpt lat="45.03439" lon="2.47796">
        <ele>872.41</ele>
        <time>2026-08-21T07:45:35.507Z</time>
      </trkpt>
      <trkpt lat="45.03446" lon="2.47799">
        <ele>872.33</ele>
        <time>2026-08-21T07:45:36.451Z</time>
      </trkpt>
      <trkpt lat="45.0346" lon="2.47806">
        <ele>872.04</ele>
        <time>2026-08-21T07:45:37.454Z</time>
      </trkpt>
      <trkpt lat="45.03463" lon="2.47807">
        <ele>871.79</ele>
        <time>2026-08-21T07:45:37.547Z</time>
      </trkpt>
      <trkpt lat="45.03476" lon="2.47812">
        <ele>871.58</ele>
        <time>2026-08-21T07:45:39.506Z</time>
      </trkpt>
      <trkpt lat="45.03478" lon="2.47814">
        <ele>871.16</ele>
        <time>2026-08-21T07:45:40.101Z</time>
      </trkpt>
      <trkpt lat="45.03489" lon="2.4782">
        <ele>870.82</ele>
        <time>2026-08-21T07:45:40.543Z</time>
      </trkpt>
      <trkpt lat="45.03494" lon="2.47822">
        <ele>870.38</ele>
        <time>2026-08-21T07:45:42.504Z</time>
      </trkpt>
      <trkpt lat="45.03508" lon="2.47833">
        <ele>869.79</ele>
        <time>2026-08-21T07:45:43.469Z</time>
      </trkpt>
      <trkpt lat="45.03513" lon="2.4784">
        <ele>869.34</ele>
        <time>2026-08-21T07:45:44.488Z</time>
      </trkpt>
      <trkpt lat="45.03514" lon="2.47848">
        <ele>868.62</ele>
        <time>2026-08-21T07:45:45.474Z</time>
      </trkpt>
      <trkpt lat="45.03515" lon="2.4785">
        <ele>868.08</ele>
        <time>2026-08-21T07:45:46.475Z</time>
      </trkpt>
      <trkpt lat="45.03516" lon="2.47861">
        <ele>868.08</ele>
        <time>2026-08-21T07:45:47.477Z</time>
      </trkpt>
      <trkpt lat="45.03518" lon="2.47865">
        <ele>866.96</ele>
        <time>2026-08-21T07:45:48.506Z</time>
      </trkpt>
      <trkpt lat="45.03519" lon="2.47869">
        <ele>865.38</ele>
        <time>2026-08-21T07:45:56.093Z</time>
      </trkpt>
      <trkpt lat="45.0352" lon="2.47867">
        <ele>865.38</ele>
        <time>2026-08-21T07:45:58.405Z</time>
      </trkpt>
      <trkpt lat="45.03523" lon="2.47866">
        <ele>865.38</ele>
        <time>2026-08-21T07:46:01.454Z</time>
      </trkpt>
      <trkpt lat="45.03522" lon="2.47866">
        <ele>865.38</ele>
        <time>2026-08-21T07:46:02.503Z</time>
      </trkpt>
      <trkpt lat="45.03523" lon="2.47866">
        <ele>865.38</ele>
        <time>2026-08-21T07:46:04.454Z</time>
      </trkpt>
      <trkpt lat="45.03523" lon="2.47865">
        <ele>865.38</ele>
        <time>2026-08-21T07:46:05.364Z</time>
      </trkpt>
      <trkpt lat="45.03522" lon="2.47864">
        <ele>865.38</ele>
        <time>2026-08-21T07:46:05.491Z</time>
      </trkpt>
      <trkpt lat="45.03519" lon="2.47866">
        <ele>865.38</ele>
        <time>2026-08-21T07:46:32.093Z</time>
      </trkpt>
      <trkpt lat="45.0352" lon="2.47865">
        <ele>865.38</ele>
        <time>2026-08-21T07:46:38.078Z</time>
      </trkpt>
      <trkpt lat="45.03522" lon="2.47866">
        <ele>865.38</ele>
        <time>2026-08-21T07:46:39.885Z</time>
      </trkpt>
      <trkpt lat="45.03524" lon="2.47866">
        <ele>865.38</ele>
        <time>2026-08-21T07:46:41.295Z</time>
      </trkpt>
      <trkpt lat="45.03526" lon="2.47868">
        <ele>865.38</ele>
        <time>2026-08-21T07:46:41.841Z</time>
      </trkpt>
      <trkpt lat="45.0353" lon="2.47871">
        <ele>865.38</ele>
        <time>2026-08-21T07:46:42.860Z</time>
      </trkpt>
      <trkpt lat="45.03535" lon="2.47874">
        <ele>865.38</ele>
        <time>2026-08-21T07:46:44.301Z</time>
      </trkpt>
      <trkpt lat="45.0354" lon="2.47878">
        <ele>865.38</ele>
        <time>2026-08-21T07:46:44.837Z</time>
      </trkpt>
      <trkpt lat="45.03545" lon="2.47881">
        <ele>865.38</ele>
        <time>2026-08-21T07:46:45.859Z</time>
      </trkpt>
      <trkpt lat="45.03549" lon="2.47883">
        <ele>865.38</ele>
        <time>2026-08-21T07:46:46.878Z</time>
      </trkpt>
      <trkpt lat="45.03554" lon="2.47885">
        <ele>852.71</ele>
        <time>2026-08-21T07:46:47.900Z</time>
      </trkpt>
      <trkpt lat="45.03557" lon="2.47887">
        <ele>852.61</ele>
        <time>2026-08-21T07:46:48.920Z</time>
      </trkpt>
      <trkpt lat="45.03561" lon="2.4789">
        <ele>852.53</ele>
        <time>2026-08-21T07:46:50.238Z</time>
      </trkpt>
      <trkpt lat="45.03563" lon="2.47891">
        <ele>852.46</ele>
        <time>2026-08-21T07:46:51.219Z</time>
      </trkpt>
      <trkpt lat="45.03566" lon="2.47893">
        <ele>852.4</ele>
        <time>2026-08-21T07:46:52.321Z</time>
      </trkpt>
      <trkpt lat="45.03568" lon="2.47895">
        <ele>852.35</ele>
        <time>2026-08-21T07:46:53.251Z</time>
      </trkpt>
      <trkpt lat="45.03569" lon="2.47897">
        <ele>852.29</ele>
        <time>2026-08-21T07:46:53.840Z</time>
      </trkpt>
      <trkpt lat="45.03572" lon="2.47899">
        <ele>852.24</ele>
        <time>2026-08-21T07:46:55.289Z</time>
      </trkpt>
      <trkpt lat="45.03574" lon="2.47901">
        <ele>852.2</ele>
        <time>2026-08-21T07:46:56.233Z</time>
      </trkpt>
      <trkpt lat="45.03576" lon="2.47903">
        <ele>852.17</ele>
        <time>2026-08-21T07:46:57.235Z</time>
      </trkpt>
      <trkpt lat="45.03578" lon="2.47905">
        <ele>852.15</ele>
        <time>2026-08-21T07:46:58.317Z</time>
      </trkpt>
      <trkpt lat="45.0358" lon="2.47906">
        <ele>852.13</ele>
        <time>2026-08-21T07:46:59.122Z</time>
      </trkpt>
      <trkpt lat="45.03582" lon="2.47908">
        <ele>852.13</ele>
        <time>2026-08-21T07:47:00.244Z</time>
      </trkpt>
      <trkpt lat="45.03585" lon="2.47911">
        <ele>852.12</ele>
        <time>2026-08-21T07:47:01.247Z</time>
      </trkpt>
      <trkpt lat="45.03587" lon="2.47913">
        <ele>852.11</ele>
        <time>2026-08-21T07:47:02.250Z</time>
      </trkpt>
      <trkpt lat="45.03589" lon="2.47914">
        <ele>852.12</ele>
        <time>2026-08-21T07:47:03.252Z</time>
      </trkpt>
      <trkpt lat="45.03591" lon="2.47916">
        <ele>852.12</ele>
        <time>2026-08-21T07:47:04.253Z</time>
      </trkpt>
      <trkpt lat="45.03593" lon="2.47918">
        <ele>852.13</ele>
        <time>2026-08-21T07:47:05.065Z</time>
      </trkpt>
      <trkpt lat="45.03595" lon="2.47919">
        <ele>852.14</ele>
        <time>2026-08-21T07:47:06.258Z</time>
      </trkpt>
      <trkpt lat="45.03598" lon="2.47921">
        <ele>852.16</ele>
        <time>2026-08-21T07:47:07.260Z</time>
      </trkpt>
      <trkpt lat="45.036" lon="2.47923">
        <ele>852.21</ele>
        <time>2026-08-21T07:47:08.174Z</time>
      </trkpt>
      <trkpt lat="45.03602" lon="2.47924">
        <ele>852.26</ele>
        <time>2026-08-21T07:47:08.897Z</time>
      </trkpt>
      <trkpt lat="45.03605" lon="2.47926">
        <ele>852.31</ele>
        <time>2026-08-21T07:47:10.268Z</time>
      </trkpt>
      <trkpt lat="45.03607" lon="2.47927">
        <ele>852.38</ele>
        <time>2026-08-21T07:47:11.294Z</time>
      </trkpt>
      <trkpt lat="45.03609" lon="2.47928">
        <ele>852.45</ele>
        <time>2026-08-21T07:47:11.875Z</time>
      </trkpt>
      <trkpt lat="45.03611" lon="2.4793">
        <ele>852.51</ele>
        <time>2026-08-21T07:47:13.097Z</time>
      </trkpt>
      <trkpt lat="45.03614" lon="2.47932">
        <ele>852.58</ele>
        <time>2026-08-21T07:47:14.281Z</time>
      </trkpt>
      <trkpt lat="45.03616" lon="2.47934">
        <ele>852.66</ele>
        <time>2026-08-21T07:47:15.283Z</time>
      </trkpt>
      <trkpt lat="45.03618" lon="2.47935">
        <ele>852.72</ele>
        <time>2026-08-21T07:47:15.864Z</time>
      </trkpt>
      <trkpt lat="45.0362" lon="2.47938">
        <ele>852.8</ele>
        <time>2026-08-21T07:47:17.188Z</time>
      </trkpt>
      <trkpt lat="45.03622" lon="2.47941">
        <ele>852.88</ele>
        <time>2026-08-21T07:47:17.836Z</time>
      </trkpt>
      <trkpt lat="45.03623" lon="2.47944">
        <ele>852.96</ele>
        <time>2026-08-21T07:47:19.285Z</time>
      </trkpt>
      <trkpt lat="45.03624" lon="2.47946">
        <ele>853.03</ele>
        <time>2026-08-21T07:47:20.297Z</time>
      </trkpt>
      <trkpt lat="45.03626" lon="2.47949">
        <ele>853.11</ele>
        <time>2026-08-21T07:47:21.297Z</time>
      </trkpt>
      <trkpt lat="45.03627" lon="2.47952">
        <ele>853.22</ele>
        <time>2026-08-21T07:47:21.862Z</time>
      </trkpt>
      <trkpt lat="45.03628" lon="2.47954">
        <ele>853.34</ele>
        <time>2026-08-21T07:47:23.252Z</time>
      </trkpt>
      <trkpt lat="45.03629" lon="2.47956">
        <ele>853.48</ele>
        <time>2026-08-21T07:47:24.307Z</time>
      </trkpt>
      <trkpt lat="45.0363" lon="2.47958">
        <ele>853.62</ele>
        <time>2026-08-21T07:47:24.373Z</time>
      </trkpt>
      <trkpt lat="45.03632" lon="2.4796">
        <ele>853.77</ele>
        <time>2026-08-21T07:47:26.358Z</time>
      </trkpt>
      <trkpt lat="45.03632" lon="2.47963">
        <ele>853.94</ele>
        <time>2026-08-21T07:47:26.380Z</time>
      </trkpt>
      <trkpt lat="45.03634" lon="2.47966">
        <ele>854.12</ele>
        <time>2026-08-21T07:47:28.336Z</time>
      </trkpt>
      <trkpt lat="45.03635" lon="2.47968">
        <ele>854.31</ele>
        <time>2026-08-21T07:47:28.395Z</time>
      </trkpt>
      <trkpt lat="45.03637" lon="2.47971">
        <ele>854.52</ele>
        <time>2026-08-21T07:47:30.323Z</time>
      </trkpt>
      <trkpt lat="45.03638" lon="2.47973">
        <ele>854.69</ele>
        <time>2026-08-21T07:47:30.853Z</time>
      </trkpt>
      <trkpt lat="45.03639" lon="2.47976">
        <ele>854.89</ele>
        <time>2026-08-21T07:47:32.357Z</time>
      </trkpt>
      <trkpt lat="45.03641" lon="2.47978">
        <ele>855.1</ele>
        <time>2026-08-21T07:47:32.417Z</time>
      </trkpt>
      <trkpt lat="45.03642" lon="2.47981">
        <ele>855.31</ele>
        <time>2026-08-21T07:47:33.859Z</time>
      </trkpt>
      <trkpt lat="45.03643" lon="2.47984">
        <ele>855.54</ele>
        <time>2026-08-21T07:47:35.362Z</time>
      </trkpt>
      <trkpt lat="45.03645" lon="2.47986">
        <ele>855.8</ele>
        <time>2026-08-21T07:47:36.340Z</time>
      </trkpt>
      <trkpt lat="45.03647" lon="2.47989">
        <ele>856.06</ele>
        <time>2026-08-21T07:47:36.876Z</time>
      </trkpt>
      <trkpt lat="45.03648" lon="2.47991">
        <ele>856.37</ele>
        <time>2026-08-21T07:47:38.360Z</time>
      </trkpt>
      <trkpt lat="45.03649" lon="2.47989">
        <ele>856.66</ele>
        <time>2026-08-21T07:47:39.346Z</time>
      </trkpt>
      <trkpt lat="45.0365" lon="2.47987">
        <ele>856.94</ele>
        <time>2026-08-21T07:47:40.348Z</time>
      </trkpt>
      <trkpt lat="45.03649" lon="2.47985">
        <ele>857.21</ele>
        <time>2026-08-21T07:47:41.361Z</time>
      </trkpt>
      <trkpt lat="45.03648" lon="2.47984">
        <ele>857.51</ele>
        <time>2026-08-21T07:47:41.417Z</time>
      </trkpt>
      <trkpt lat="45.03644" lon="2.47984">
        <ele>858</ele>
        <time>2026-08-21T07:47:44.355Z</time>
      </trkpt>
      <trkpt lat="45.03643" lon="2.47985">
        <ele>858.22</ele>
        <time>2026-08-21T07:47:45.359Z</time>
      </trkpt>
      <trkpt lat="45.03643" lon="2.47987">
        <ele>858.41</ele>
        <time>2026-08-21T07:47:46.362Z</time>
      </trkpt>
      <trkpt lat="45.03643" lon="2.47988">
        <ele>858.57</ele>
        <time>2026-08-21T07:47:47.360Z</time>
      </trkpt>
      <trkpt lat="45.03645" lon="2.47989">
        <ele>858.75</ele>
        <time>2026-08-21T07:47:48.366Z</time>
      </trkpt>
      <trkpt lat="45.03647" lon="2.47991">
        <ele>858.91</ele>
        <time>2026-08-21T07:47:49.368Z</time>
      </trkpt>
      <trkpt lat="45.03649" lon="2.47994">
        <ele>859.1</ele>
        <time>2026-08-21T07:47:50.363Z</time>
      </trkpt>
      <trkpt lat="45.0365" lon="2.47996">
        <ele>859.3</ele>
        <time>2026-08-21T07:47:50.413Z</time>
      </trkpt>
      <trkpt lat="45.03652" lon="2.47999">
        <ele>859.53</ele>
        <time>2026-08-21T07:47:52.374Z</time>
      </trkpt>
      <trkpt lat="45.03654" lon="2.48001">
        <ele>859.77</ele>
        <time>2026-08-21T07:47:53.380Z</time>
      </trkpt>
      <trkpt lat="45.03655" lon="2.48004">
        <ele>859.99</ele>
        <time>2026-08-21T07:47:54.378Z</time>
      </trkpt>
      <trkpt lat="45.03656" lon="2.48006">
        <ele>860.26</ele>
        <time>2026-08-21T07:47:55.381Z</time>
      </trkpt>
      <trkpt lat="45.03658" lon="2.48009">
        <ele>860.5</ele>
        <time>2026-08-21T07:47:56.384Z</time>
      </trkpt>
      <trkpt lat="45.03659" lon="2.48012">
        <ele>860.76</ele>
        <time>2026-08-21T07:47:57.386Z</time>
      </trkpt>
      <trkpt lat="45.03661" lon="2.48014">
        <ele>861.01</ele>
        <time>2026-08-21T07:47:58.229Z</time>
      </trkpt>
      <trkpt lat="45.03663" lon="2.48017">
        <ele>861.29</ele>
        <time>2026-08-21T07:47:59.241Z</time>
      </trkpt>
      <trkpt lat="45.03664" lon="2.4802">
        <ele>861.57</ele>
        <time>2026-08-21T07:48:00.392Z</time>
      </trkpt>
      <trkpt lat="45.03666" lon="2.48023">
        <ele>861.85</ele>
        <time>2026-08-21T07:48:01.393Z</time>
      </trkpt>
      <trkpt lat="45.03667" lon="2.48026">
        <ele>862.17</ele>
        <time>2026-08-21T07:48:02.395Z</time>
      </trkpt>
      <trkpt lat="45.03668" lon="2.48029">
        <ele>862.42</ele>
        <time>2026-08-21T07:48:03.321Z</time>
      </trkpt>
      <trkpt lat="45.03669" lon="2.48032">
        <ele>862.73</ele>
        <time>2026-08-21T07:48:04.400Z</time>
      </trkpt>
      <trkpt lat="45.03671" lon="2.48035">
        <ele>863.02</ele>
        <time>2026-08-21T07:48:05.129Z</time>
      </trkpt>
      <trkpt lat="45.03672" lon="2.48037">
        <ele>863.29</ele>
        <time>2026-08-21T07:48:06.381Z</time>
      </trkpt>
      <trkpt lat="45.03674" lon="2.4804">
        <ele>863.57</ele>
        <time>2026-08-21T07:48:07.406Z</time>
      </trkpt>
      <trkpt lat="45.03675" lon="2.48043">
        <ele>863.85</ele>
        <time>2026-08-21T07:48:08.122Z</time>
      </trkpt>
      <trkpt lat="45.03677" lon="2.48046">
        <ele>864.16</ele>
        <time>2026-08-21T07:48:09.339Z</time>
      </trkpt>
      <trkpt lat="45.03678" lon="2.48049">
        <ele>864.47</ele>
        <time>2026-08-21T07:48:10.400Z</time>
      </trkpt>
      <trkpt lat="45.03679" lon="2.48052">
        <ele>864.79</ele>
        <time>2026-08-21T07:48:11.415Z</time>
      </trkpt>
      <trkpt lat="45.03681" lon="2.48055">
        <ele>865.12</ele>
        <time>2026-08-21T07:48:12.414Z</time>
      </trkpt>
      <trkpt lat="45.03682" lon="2.48057">
        <ele>865.45</ele>
        <time>2026-08-21T07:48:13.418Z</time>
      </trkpt>
      <trkpt lat="45.03684" lon="2.4806">
        <ele>865.8</ele>
        <time>2026-08-21T07:48:14.419Z</time>
      </trkpt>
      <trkpt lat="45.03685" lon="2.48062">
        <ele>866.12</ele>
        <time>2026-08-21T07:48:15.420Z</time>
      </trkpt>
      <trkpt lat="45.03686" lon="2.48065">
        <ele>866.44</ele>
        <time>2026-08-21T07:48:16.423Z</time>
      </trkpt>
      <trkpt lat="45.03687" lon="2.48068">
        <ele>866.77</ele>
        <time>2026-08-21T07:48:17.276Z</time>
      </trkpt>
      <trkpt lat="45.03688" lon="2.4807">
        <ele>867.12</ele>
        <time>2026-08-21T07:48:18.326Z</time>
      </trkpt>
      <trkpt lat="45.03689" lon="2.48073">
        <ele>867.46</ele>
        <time>2026-08-21T07:48:19.327Z</time>
      </trkpt>
      <trkpt lat="45.0369" lon="2.48075">
        <ele>867.8</ele>
        <time>2026-08-21T07:48:20.329Z</time>
      </trkpt>
      <trkpt lat="45.03691" lon="2.48077">
        <ele>868.15</ele>
        <time>2026-08-21T07:48:21.330Z</time>
      </trkpt>
      <trkpt lat="45.03692" lon="2.4808">
        <ele>868.53</ele>
        <time>2026-08-21T07:48:22.332Z</time>
      </trkpt>
      <trkpt lat="45.03692" lon="2.48082">
        <ele>868.86</ele>
        <time>2026-08-21T07:48:23.333Z</time>
      </trkpt>
      <trkpt lat="45.03693" lon="2.48085">
        <ele>869.19</ele>
        <time>2026-08-21T07:48:24.335Z</time>
      </trkpt>
      <trkpt lat="45.03694" lon="2.48088">
        <ele>869.55</ele>
        <time>2026-08-21T07:48:25.436Z</time>
      </trkpt>
      <trkpt lat="45.03695" lon="2.48091">
        <ele>869.89</ele>
        <time>2026-08-21T07:48:26.304Z</time>
      </trkpt>
      <trkpt lat="45.03696" lon="2.48094">
        <ele>870.22</ele>
        <time>2026-08-21T07:48:27.340Z</time>
      </trkpt>
      <trkpt lat="45.03697" lon="2.48097">
        <ele>870.53</ele>
        <time>2026-08-21T07:48:28.441Z</time>
      </trkpt>
      <trkpt lat="45.03698" lon="2.481">
        <ele>870.83</ele>
        <time>2026-08-21T07:48:29.342Z</time>
      </trkpt>
      <trkpt lat="45.03698" lon="2.48103">
        <ele>871.15</ele>
        <time>2026-08-21T07:48:30.445Z</time>
      </trkpt>
      <trkpt lat="45.03699" lon="2.48106">
        <ele>871.41</ele>
        <time>2026-08-21T07:48:31.447Z</time>
      </trkpt>
      <trkpt lat="45.037" lon="2.4811">
        <ele>871.67</ele>
        <time>2026-08-21T07:48:32.181Z</time>
      </trkpt>
      <trkpt lat="45.037" lon="2.48113">
        <ele>871.96</ele>
        <time>2026-08-21T07:48:33.352Z</time>
      </trkpt>
      <trkpt lat="45.03701" lon="2.48116">
        <ele>872.2</ele>
        <time>2026-08-21T07:48:34.351Z</time>
      </trkpt>
      <trkpt lat="45.03702" lon="2.4812">
        <ele>872.48</ele>
        <time>2026-08-21T07:48:35.354Z</time>
      </trkpt>
      <trkpt lat="45.03703" lon="2.48123">
        <ele>872.74</ele>
        <time>2026-08-21T07:48:36.357Z</time>
      </trkpt>
      <trkpt lat="45.03704" lon="2.48126">
        <ele>873.02</ele>
        <time>2026-08-21T07:48:37.358Z</time>
      </trkpt>
      <trkpt lat="45.03705" lon="2.48129">
        <ele>873.28</ele>
        <time>2026-08-21T07:48:38.362Z</time>
      </trkpt>
      <trkpt lat="45.03706" lon="2.48133">
        <ele>873.55</ele>
        <time>2026-08-21T07:48:39.361Z</time>
      </trkpt>
      <trkpt lat="45.03707" lon="2.48136">
        <ele>873.8</ele>
        <time>2026-08-21T07:48:40.363Z</time>
      </trkpt>
      <trkpt lat="45.03708" lon="2.48139">
        <ele>874.08</ele>
        <time>2026-08-21T07:48:41.364Z</time>
      </trkpt>
      <trkpt lat="45.03709" lon="2.48141">
        <ele>874.3</ele>
        <time>2026-08-21T07:48:42.365Z</time>
      </trkpt>
      <trkpt lat="45.0371" lon="2.48143">
        <ele>874.57</ele>
        <time>2026-08-21T07:48:43.369Z</time>
      </trkpt>
      <trkpt lat="45.03711" lon="2.48146">
        <ele>874.82</ele>
        <time>2026-08-21T07:48:44.368Z</time>
      </trkpt>
      <trkpt lat="45.03712" lon="2.48149">
        <ele>875.06</ele>
        <time>2026-08-21T07:48:45.372Z</time>
      </trkpt>
      <trkpt lat="45.03713" lon="2.48151">
        <ele>875.31</ele>
        <time>2026-08-21T07:48:46.372Z</time>
      </trkpt>
      <trkpt lat="45.03713" lon="2.48153">
        <ele>875.57</ele>
        <time>2026-08-21T07:48:47.375Z</time>
      </trkpt>
      <trkpt lat="45.03715" lon="2.48157">
        <ele>875.83</ele>
        <time>2026-08-21T07:48:48.379Z</time>
      </trkpt>
      <trkpt lat="45.03716" lon="2.4816">
        <ele>876.07</ele>
        <time>2026-08-21T07:48:49.379Z</time>
      </trkpt>
      <trkpt lat="45.03717" lon="2.48163">
        <ele>876.28</ele>
        <time>2026-08-21T07:48:50.380Z</time>
      </trkpt>
      <trkpt lat="45.03718" lon="2.48165">
        <ele>876.53</ele>
        <time>2026-08-21T07:48:51.381Z</time>
      </trkpt>
      <trkpt lat="45.03719" lon="2.48167">
        <ele>876.76</ele>
        <time>2026-08-21T07:48:52.382Z</time>
      </trkpt>
      <trkpt lat="45.03721" lon="2.48169">
        <ele>876.98</ele>
        <time>2026-08-21T07:48:53.383Z</time>
      </trkpt>
      <trkpt lat="45.03723" lon="2.48171">
        <ele>877.21</ele>
        <time>2026-08-21T07:48:54.387Z</time>
      </trkpt>
      <trkpt lat="45.03725" lon="2.48173">
        <ele>877.41</ele>
        <time>2026-08-21T07:48:55.387Z</time>
      </trkpt>
      <trkpt lat="45.03727" lon="2.48175">
        <ele>877.63</ele>
        <time>2026-08-21T07:48:56.388Z</time>
      </trkpt>
      <trkpt lat="45.0373" lon="2.48176">
        <ele>877.84</ele>
        <time>2026-08-21T07:48:57.391Z</time>
      </trkpt>
      <trkpt lat="45.03732" lon="2.48177">
        <ele>878.05</ele>
        <time>2026-08-21T07:48:58.394Z</time>
      </trkpt>
      <trkpt lat="45.03734" lon="2.48178">
        <ele>878.27</ele>
        <time>2026-08-21T07:48:59.396Z</time>
      </trkpt>
      <trkpt lat="45.03737" lon="2.48177">
        <ele>878.47</ele>
        <time>2026-08-21T07:49:00.397Z</time>
      </trkpt>
      <trkpt lat="45.03738" lon="2.48176">
        <ele>878.72</ele>
        <time>2026-08-21T07:49:01.400Z</time>
      </trkpt>
      <trkpt lat="45.03741" lon="2.48174">
        <ele>878.96</ele>
        <time>2026-08-21T07:49:02.400Z</time>
      </trkpt>
      <trkpt lat="45.03743" lon="2.48172">
        <ele>879.23</ele>
        <time>2026-08-21T07:49:03.402Z</time>
      </trkpt>
      <trkpt lat="45.03744" lon="2.4817">
        <ele>879.46</ele>
        <time>2026-08-21T07:49:04.405Z</time>
      </trkpt>
      <trkpt lat="45.03746" lon="2.48168">
        <ele>879.72</ele>
        <time>2026-08-21T07:49:05.406Z</time>
      </trkpt>
      <trkpt lat="45.03748" lon="2.48166">
        <ele>879.97</ele>
        <time>2026-08-21T07:49:06.407Z</time>
      </trkpt>
      <trkpt lat="45.03749" lon="2.48163">
        <ele>880.22</ele>
        <time>2026-08-21T07:49:07.295Z</time>
      </trkpt>
      <trkpt lat="45.03751" lon="2.48161">
        <ele>880.46</ele>
        <time>2026-08-21T07:49:08.409Z</time>
      </trkpt>
      <trkpt lat="45.03753" lon="2.48158">
        <ele>880.74</ele>
        <time>2026-08-21T07:49:09.411Z</time>
      </trkpt>
      <trkpt lat="45.03754" lon="2.48156">
        <ele>881.02</ele>
        <time>2026-08-21T07:49:10.363Z</time>
      </trkpt>
      <trkpt lat="45.03756" lon="2.48154">
        <ele>881.3</ele>
        <time>2026-08-21T07:49:11.420Z</time>
      </trkpt>
      <trkpt lat="45.03758" lon="2.48151">
        <ele>881.6</ele>
        <time>2026-08-21T07:49:12.418Z</time>
      </trkpt>
      <trkpt lat="45.03759" lon="2.48149">
        <ele>881.88</ele>
        <time>2026-08-21T07:49:13.419Z</time>
      </trkpt>
      <trkpt lat="45.03761" lon="2.48147">
        <ele>882.2</ele>
        <time>2026-08-21T07:49:14.420Z</time>
      </trkpt>
      <trkpt lat="45.03763" lon="2.48145">
        <ele>882.51</ele>
        <time>2026-08-21T07:49:15.423Z</time>
      </trkpt>
      <trkpt lat="45.03765" lon="2.48144">
        <ele>882.84</ele>
        <time>2026-08-21T07:49:16.278Z</time>
      </trkpt>
      <trkpt lat="45.03766" lon="2.48142">
        <ele>883.17</ele>
        <time>2026-08-21T07:49:17.426Z</time>
      </trkpt>
      <trkpt lat="45.03772" lon="2.48138">
        <ele>883.49</ele>
        <time>2026-08-21T07:49:19.430Z</time>
      </trkpt>
      <trkpt lat="45.03773" lon="2.48138">
        <ele>884.02</ele>
        <time>2026-08-21T07:49:20.430Z</time>
      </trkpt>
      <trkpt lat="45.03774" lon="2.48138">
        <ele>884.32</ele>
        <time>2026-08-21T07:49:21.433Z</time>
      </trkpt>
      <trkpt lat="45.03777" lon="2.48137">
        <ele>884.65</ele>
        <time>2026-08-21T07:49:22.434Z</time>
      </trkpt>
      <trkpt lat="45.03779" lon="2.48137">
        <ele>884.97</ele>
        <time>2026-08-21T07:49:23.436Z</time>
      </trkpt>
      <trkpt lat="45.03781" lon="2.48137">
        <ele>885.23</ele>
        <time>2026-08-21T07:49:24.437Z</time>
      </trkpt>
      <trkpt lat="45.03783" lon="2.48136">
        <ele>885.55</ele>
        <time>2026-08-21T07:49:25.343Z</time>
      </trkpt>
      <trkpt lat="45.03786" lon="2.48136">
        <ele>885.85</ele>
        <time>2026-08-21T07:49:26.440Z</time>
      </trkpt>
      <trkpt lat="45.03787" lon="2.48135">
        <ele>886.18</ele>
        <time>2026-08-21T07:49:27.440Z</time>
      </trkpt>
      <trkpt lat="45.0379" lon="2.48135">
        <ele>886.52</ele>
        <time>2026-08-21T07:49:28.441Z</time>
      </trkpt>
      <trkpt lat="45.03791" lon="2.48134">
        <ele>886.89</ele>
        <time>2026-08-21T07:49:29.443Z</time>
      </trkpt>
      <trkpt lat="45.03794" lon="2.48133">
        <ele>887.21</ele>
        <time>2026-08-21T07:49:30.445Z</time>
      </trkpt>
      <trkpt lat="45.03796" lon="2.48133">
        <ele>887.53</ele>
        <time>2026-08-21T07:49:31.444Z</time>
      </trkpt>
      <trkpt lat="45.03798" lon="2.48133">
        <ele>887.8</ele>
        <time>2026-08-21T07:49:32.446Z</time>
      </trkpt>
      <trkpt lat="45.038" lon="2.48132">
        <ele>888.07</ele>
        <time>2026-08-21T07:49:33.446Z</time>
      </trkpt>
      <trkpt lat="45.03801" lon="2.48131">
        <ele>888.36</ele>
        <time>2026-08-21T07:49:34.450Z</time>
      </trkpt>
      <trkpt lat="45.03803" lon="2.48131">
        <ele>888.66</ele>
        <time>2026-08-21T07:49:35.449Z</time>
      </trkpt>
      <trkpt lat="45.03805" lon="2.48131">
        <ele>888.97</ele>
        <time>2026-08-21T07:49:36.450Z</time>
      </trkpt>
      <trkpt lat="45.03807" lon="2.4813">
        <ele>889.29</ele>
        <time>2026-08-21T07:49:37.451Z</time>
      </trkpt>
      <trkpt lat="45.03809" lon="2.4813">
        <ele>889.63</ele>
        <time>2026-08-21T07:49:38.453Z</time>
      </trkpt>
      <trkpt lat="45.03811" lon="2.48129">
        <ele>889.94</ele>
        <time>2026-08-21T07:49:39.455Z</time>
      </trkpt>
      <trkpt lat="45.03814" lon="2.48126">
        <ele>890.61</ele>
        <time>2026-08-21T07:49:41.456Z</time>
      </trkpt>
      <trkpt lat="45.03814" lon="2.48124">
        <ele>890.93</ele>
        <time>2026-08-21T07:49:42.457Z</time>
      </trkpt>
      <trkpt lat="45.03814" lon="2.48122">
        <ele>891.21</ele>
        <time>2026-08-21T07:49:43.458Z</time>
      </trkpt>
      <trkpt lat="45.03814" lon="2.4812">
        <ele>891.49</ele>
        <time>2026-08-21T07:49:44.459Z</time>
      </trkpt>
      <trkpt lat="45.03814" lon="2.48117">
        <ele>891.75</ele>
        <time>2026-08-21T07:49:45.459Z</time>
      </trkpt>
      <trkpt lat="45.03814" lon="2.48115">
        <ele>892</ele>
        <time>2026-08-21T07:49:46.461Z</time>
      </trkpt>
      <trkpt lat="45.03815" lon="2.48112">
        <ele>892.27</ele>
        <time>2026-08-21T07:49:47.463Z</time>
      </trkpt>
      <trkpt lat="45.03815" lon="2.48109">
        <ele>892.49</ele>
        <time>2026-08-21T07:49:48.463Z</time>
      </trkpt>
      <trkpt lat="45.03816" lon="2.48107">
        <ele>892.73</ele>
        <time>2026-08-21T07:49:49.465Z</time>
      </trkpt>
      <trkpt lat="45.03817" lon="2.48105">
        <ele>892.97</ele>
        <time>2026-08-21T07:49:50.465Z</time>
      </trkpt>
      <trkpt lat="45.03818" lon="2.48103">
        <ele>893.2</ele>
        <time>2026-08-21T07:49:51.468Z</time>
      </trkpt>
      <trkpt lat="45.0382" lon="2.48102">
        <ele>893.42</ele>
        <time>2026-08-21T07:49:52.353Z</time>
      </trkpt>
      <trkpt lat="45.03822" lon="2.481">
        <ele>893.64</ele>
        <time>2026-08-21T07:49:53.469Z</time>
      </trkpt>
      <trkpt lat="45.03824" lon="2.48099">
        <ele>893.84</ele>
        <time>2026-08-21T07:49:54.472Z</time>
      </trkpt>
      <trkpt lat="45.03826" lon="2.48097">
        <ele>894.09</ele>
        <time>2026-08-21T07:49:55.055Z</time>
      </trkpt>
      <trkpt lat="45.03828" lon="2.48097">
        <ele>894.31</ele>
        <time>2026-08-21T07:49:56.473Z</time>
      </trkpt>
      <trkpt lat="45.0383" lon="2.48097">
        <ele>894.53</ele>
        <time>2026-08-21T07:49:57.475Z</time>
      </trkpt>
      <trkpt lat="45.03831" lon="2.48097">
        <ele>894.74</ele>
        <time>2026-08-21T07:49:58.475Z</time>
      </trkpt>
      <trkpt lat="45.03833" lon="2.48098">
        <ele>894.98</ele>
        <time>2026-08-21T07:49:59.476Z</time>
      </trkpt>
      <trkpt lat="45.03834" lon="2.48098">
        <ele>895.2</ele>
        <time>2026-08-21T07:50:00.477Z</time>
      </trkpt>
      <trkpt lat="45.03836" lon="2.48099">
        <ele>895.42</ele>
        <time>2026-08-21T07:50:01.403Z</time>
      </trkpt>
      <trkpt lat="45.0384" lon="2.481">
        <ele>895.87</ele>
        <time>2026-08-21T07:50:03.480Z</time>
      </trkpt>
      <trkpt lat="45.03841" lon="2.481">
        <ele>896.07</ele>
        <time>2026-08-21T07:50:04.483Z</time>
      </trkpt>
      <trkpt lat="45.03842" lon="2.481">
        <ele>896.32</ele>
        <time>2026-08-21T07:50:05.485Z</time>
      </trkpt>
      <trkpt lat="45.03844" lon="2.48101">
        <ele>896.57</ele>
        <time>2026-08-21T07:50:06.485Z</time>
      </trkpt>
      <trkpt lat="45.03846" lon="2.48101">
        <ele>896.83</ele>
        <time>2026-08-21T07:50:07.488Z</time>
      </trkpt>
      <trkpt lat="45.03848" lon="2.48101">
        <ele>897.06</ele>
        <time>2026-08-21T07:50:08.488Z</time>
      </trkpt>
      <trkpt lat="45.03849" lon="2.48102">
        <ele>897.3</ele>
        <time>2026-08-21T07:50:09.494Z</time>
      </trkpt>
      <trkpt lat="45.03851" lon="2.48103">
        <ele>897.52</ele>
        <time>2026-08-21T07:50:10.492Z</time>
      </trkpt>
      <trkpt lat="45.03853" lon="2.48103">
        <ele>897.76</ele>
        <time>2026-08-21T07:50:11.493Z</time>
      </trkpt>
      <trkpt lat="45.03855" lon="2.48104">
        <ele>898.03</ele>
        <time>2026-08-21T07:50:12.497Z</time>
      </trkpt>
      <trkpt lat="45.03856" lon="2.48105">
        <ele>898.3</ele>
        <time>2026-08-21T07:50:13.499Z</time>
      </trkpt>
      <trkpt lat="45.03858" lon="2.48105">
        <ele>898.6</ele>
        <time>2026-08-21T07:50:14.501Z</time>
      </trkpt>
      <trkpt lat="45.0386" lon="2.48105">
        <ele>898.9</ele>
        <time>2026-08-21T07:50:15.379Z</time>
      </trkpt>
      <trkpt lat="45.03862" lon="2.48105">
        <ele>899.17</ele>
        <time>2026-08-21T07:50:16.503Z</time>
      </trkpt>
      <trkpt lat="45.03864" lon="2.48105">
        <ele>899.48</ele>
        <time>2026-08-21T07:50:17.507Z</time>
      </trkpt>
      <trkpt lat="45.03865" lon="2.48105">
        <ele>899.76</ele>
        <time>2026-08-21T07:50:18.509Z</time>
      </trkpt>
      <trkpt lat="45.03867" lon="2.48105">
        <ele>900.05</ele>
        <time>2026-08-21T07:50:19.511Z</time>
      </trkpt>
      <trkpt lat="45.03869" lon="2.48104">
        <ele>900.37</ele>
        <time>2026-08-21T07:50:20.513Z</time>
      </trkpt>
      <trkpt lat="45.0387" lon="2.48102">
        <ele>900.67</ele>
        <time>2026-08-21T07:50:21.515Z</time>
      </trkpt>
      <trkpt lat="45.03871" lon="2.48101">
        <ele>900.95</ele>
        <time>2026-08-21T07:50:22.516Z</time>
      </trkpt>
      <trkpt lat="45.03869" lon="2.48097">
        <ele>901.76</ele>
        <time>2026-08-21T07:50:25.521Z</time>
      </trkpt>
      <trkpt lat="45.03867" lon="2.48097">
        <ele>902.03</ele>
        <time>2026-08-21T07:50:26.522Z</time>
      </trkpt>
      <trkpt lat="45.03866" lon="2.48098">
        <ele>902.23</ele>
        <time>2026-08-21T07:50:27.525Z</time>
      </trkpt>
      <trkpt lat="45.03865" lon="2.48098">
        <ele>902.41</ele>
        <time>2026-08-21T07:50:28.526Z</time>
      </trkpt>
      <trkpt lat="45.03864" lon="2.48099">
        <ele>902.55</ele>
        <time>2026-08-21T07:50:29.530Z</time>
      </trkpt>
      <trkpt lat="45.03862" lon="2.48101">
        <ele>902.67</ele>
        <time>2026-08-21T07:50:30.140Z</time>
      </trkpt>
      <trkpt lat="45.03861" lon="2.48104">
        <ele>902.76</ele>
        <time>2026-08-21T07:50:32.540Z</time>
      </trkpt>
      <trkpt lat="45.03861" lon="2.48106">
        <ele>902.77</ele>
        <time>2026-08-21T07:50:33.438Z</time>
      </trkpt>
      <trkpt lat="45.03862" lon="2.48108">
        <ele>902.79</ele>
        <time>2026-08-21T07:50:34.513Z</time>
      </trkpt>
      <trkpt lat="45.03863" lon="2.48109">
        <ele>902.81</ele>
        <time>2026-08-21T07:50:35.541Z</time>
      </trkpt>
      <trkpt lat="45.03864" lon="2.4811">
        <ele>902.86</ele>
        <time>2026-08-21T07:50:36.543Z</time>
      </trkpt>
      <trkpt lat="45.03866" lon="2.4811">
        <ele>902.92</ele>
        <time>2026-08-21T07:50:37.544Z</time>
      </trkpt>
      <trkpt lat="45.03868" lon="2.48109">
        <ele>902.95</ele>
        <time>2026-08-21T07:50:37.588Z</time>
      </trkpt>
      <trkpt lat="45.03869" lon="2.48108">
        <ele>903</ele>
        <time>2026-08-21T07:50:39.084Z</time>
      </trkpt>
      <trkpt lat="45.0387" lon="2.48106">
        <ele>903.07</ele>
        <time>2026-08-21T07:50:40.548Z</time>
      </trkpt>
      <trkpt lat="45.03869" lon="2.48102">
        <ele>903.19</ele>
        <time>2026-08-21T07:50:42.551Z</time>
      </trkpt>
      <trkpt lat="45.03869" lon="2.48103">
        <ele>903.32</ele>
        <time>2026-08-21T07:50:44.418Z</time>
      </trkpt>
      <trkpt lat="45.0387" lon="2.481">
        <ele>903.54</ele>
        <time>2026-08-21T07:51:03.489Z</time>
      </trkpt>
      <trkpt lat="45.03869" lon="2.48097">
        <ele>904.13</ele>
        <time>2026-08-21T07:51:05.497Z</time>
      </trkpt>
      <trkpt lat="45.03868" lon="2.48096">
        <ele>904.15</ele>
        <time>2026-08-21T07:51:06.496Z</time>
      </trkpt>
      <trkpt lat="45.03867" lon="2.48095">
        <ele>904.17</ele>
        <time>2026-08-21T07:51:07.460Z</time>
      </trkpt>
      <trkpt lat="45.03864" lon="2.48095">
        <ele>904.24</ele>
        <time>2026-08-21T07:51:09.571Z</time>
      </trkpt>
      <trkpt lat="45.03864" lon="2.48096">
        <ele>904.26</ele>
        <time>2026-08-21T07:51:10.505Z</time>
      </trkpt>
      <trkpt lat="45.03863" lon="2.48098">
        <ele>904.28</ele>
        <time>2026-08-21T07:51:11.507Z</time>
      </trkpt>
      <trkpt lat="45.03864" lon="2.481">
        <ele>904.28</ele>
        <time>2026-08-21T07:51:12.510Z</time>
      </trkpt>
      <trkpt lat="45.03864" lon="2.48103">
        <ele>904.29</ele>
        <time>2026-08-21T07:51:13.511Z</time>
      </trkpt>
      <trkpt lat="45.03864" lon="2.48106">
        <ele>904.25</ele>
        <time>2026-08-21T07:51:14.547Z</time>
      </trkpt>
      <trkpt lat="45.03864" lon="2.48109">
        <ele>904.25</ele>
        <time>2026-08-21T07:51:14.598Z</time>
      </trkpt>
      <trkpt lat="45.03865" lon="2.4811">
        <ele>904.24</ele>
        <time>2026-08-21T07:51:16.517Z</time>
      </trkpt>
      <trkpt lat="45.03866" lon="2.48109">
        <ele>904.25</ele>
        <time>2026-08-21T07:51:17.538Z</time>
      </trkpt>
      <trkpt lat="45.03867" lon="2.48104">
        <ele>904.27</ele>
        <time>2026-08-21T07:51:19.524Z</time>
      </trkpt>
      <trkpt lat="45.03867" lon="2.48103">
        <ele>904.29</ele>
        <time>2026-08-21T07:51:20.525Z</time>
      </trkpt>
      <trkpt lat="45.03867" lon="2.48102">
        <ele>904.3</ele>
        <time>2026-08-21T07:51:21.529Z</time>
      </trkpt>
      <trkpt lat="45.03865" lon="2.481">
        <ele>904.31</ele>
        <time>2026-08-21T07:51:23.533Z</time>
      </trkpt>
      <trkpt lat="45.03864" lon="2.48102">
        <ele>904.33</ele>
        <time>2026-08-21T07:51:25.161Z</time>
      </trkpt>
      <trkpt lat="45.03864" lon="2.48105">
        <ele>904.33</ele>
        <time>2026-08-21T07:51:26.557Z</time>
      </trkpt>
      <trkpt lat="45.03864" lon="2.48107">
        <ele>904.33</ele>
        <time>2026-08-21T07:51:27.543Z</time>
      </trkpt>
      <trkpt lat="45.03864" lon="2.48109">
        <ele>904.34</ele>
        <time>2026-08-21T07:51:28.098Z</time>
      </trkpt>
      <trkpt lat="45.03865" lon="2.48109">
        <ele>904.34</ele>
        <time>2026-08-21T07:51:29.550Z</time>
      </trkpt>
      <trkpt lat="45.03867" lon="2.48108">
        <ele>904.33</ele>
        <time>2026-08-21T07:51:30.551Z</time>
      </trkpt>
      <trkpt lat="45.03868" lon="2.48104">
        <ele>904.32</ele>
        <time>2026-08-21T07:51:31.554Z</time>
      </trkpt>
      <trkpt lat="45.03869" lon="2.48101">
        <ele>904.33</ele>
        <time>2026-08-21T07:51:32.555Z</time>
      </trkpt>
      <trkpt lat="45.03869" lon="2.48098">
        <ele>904.36</ele>
        <time>2026-08-21T07:51:33.134Z</time>
      </trkpt>
      <trkpt lat="45.03867" lon="2.48095">
        <ele>904.38</ele>
        <time>2026-08-21T07:51:34.562Z</time>
      </trkpt>
      <trkpt lat="45.03865" lon="2.48093">
        <ele>904.4</ele>
        <time>2026-08-21T07:51:35.563Z</time>
      </trkpt>
      <trkpt lat="45.03864" lon="2.48094">
        <ele>904.42</ele>
        <time>2026-08-21T07:51:36.565Z</time>
      </trkpt>
      <trkpt lat="45.03863" lon="2.48098">
        <ele>904.44</ele>
        <time>2026-08-21T07:51:38.573Z</time>
      </trkpt>
      <trkpt lat="45.03863" lon="2.481">
        <ele>904.43</ele>
        <time>2026-08-21T07:51:39.575Z</time>
      </trkpt>
      <trkpt lat="45.03863" lon="2.48102">
        <ele>904.41</ele>
        <time>2026-08-21T07:51:40.579Z</time>
      </trkpt>
      <trkpt lat="45.03863" lon="2.48104">
        <ele>904.41</ele>
        <time>2026-08-21T07:51:41.579Z</time>
      </trkpt>
      <trkpt lat="45.03863" lon="2.48106">
        <ele>904.4</ele>
        <time>2026-08-21T07:51:42.581Z</time>
      </trkpt>
      <trkpt lat="45.03864" lon="2.48109">
        <ele>904.37</ele>
        <time>2026-08-21T07:51:43.583Z</time>
      </trkpt>
      <trkpt lat="45.03865" lon="2.4811">
        <ele>904.35</ele>
        <time>2026-08-21T07:51:44.584Z</time>
      </trkpt>
      <trkpt lat="45.03866" lon="2.48109">
        <ele>904.36</ele>
        <time>2026-08-21T07:51:45.496Z</time>
      </trkpt>
      <trkpt lat="45.03867" lon="2.48107">
        <ele>904.37</ele>
        <time>2026-08-21T07:51:46.589Z</time>
      </trkpt>
      <trkpt lat="45.03867" lon="2.48104">
        <ele>904.38</ele>
        <time>2026-08-21T07:51:47.590Z</time>
      </trkpt>
      <trkpt lat="45.03868" lon="2.48102">
        <ele>904.43</ele>
        <time>2026-08-21T07:51:48.388Z</time>
      </trkpt>
      <trkpt lat="45.03868" lon="2.48101">
        <ele>904.46</ele>
        <time>2026-08-21T07:51:49.589Z</time>
      </trkpt>
      <trkpt lat="45.03869" lon="2.48099">
        <ele>904.57</ele>
        <time>2026-08-21T07:51:58.055Z</time>
      </trkpt>
      <trkpt lat="45.03871" lon="2.48097">
        <ele>904.8</ele>
        <time>2026-08-21T07:51:59.071Z</time>
      </trkpt>
      <trkpt lat="45.03872" lon="2.48097">
        <ele>904.84</ele>
        <time>2026-08-21T07:52:01.057Z</time>
      </trkpt>
      <trkpt lat="45.03874" lon="2.48096">
        <ele>904.88</ele>
        <time>2026-08-21T07:52:01.090Z</time>
      </trkpt>
      <trkpt lat="45.03875" lon="2.48095">
        <ele>904.92</ele>
        <time>2026-08-21T07:52:02.079Z</time>
      </trkpt>
      <trkpt lat="45.03877" lon="2.48093">
        <ele>904.98</ele>
        <time>2026-08-21T07:52:04.068Z</time>
      </trkpt>
      <trkpt lat="45.03878" lon="2.48092">
        <ele>905.05</ele>
        <time>2026-08-21T07:52:04.112Z</time>
      </trkpt>
      <trkpt lat="45.03879" lon="2.48091">
        <ele>905.11</ele>
        <time>2026-08-21T07:52:05.113Z</time>
      </trkpt>
      <trkpt lat="45.0388" lon="2.4809">
        <ele>905.16</ele>
        <time>2026-08-21T07:52:06.094Z</time>
      </trkpt>
      <trkpt lat="45.03882" lon="2.48088">
        <ele>905.23</ele>
        <time>2026-08-21T07:52:07.100Z</time>
      </trkpt>
      <trkpt lat="45.03883" lon="2.48087">
        <ele>905.31</ele>
        <time>2026-08-21T07:52:09.089Z</time>
      </trkpt>
      <trkpt lat="45.03884" lon="2.48085">
        <ele>905.38</ele>
        <time>2026-08-21T07:52:09.106Z</time>
      </trkpt>
      <trkpt lat="45.03885" lon="2.48083">
        <ele>905.48</ele>
        <time>2026-08-21T07:52:10.093Z</time>
      </trkpt>
      <trkpt lat="45.03888" lon="2.48076">
        <ele>905.68</ele>
        <time>2026-08-21T07:52:12.099Z</time>
      </trkpt>
      <trkpt lat="45.03889" lon="2.48075">
        <ele>905.89</ele>
        <time>2026-08-21T07:52:14.068Z</time>
      </trkpt>
      <trkpt lat="45.0389" lon="2.48073">
        <ele>906.01</ele>
        <time>2026-08-21T07:52:14.909Z</time>
      </trkpt>
      <trkpt lat="45.03892" lon="2.48068">
        <ele>906.23</ele>
        <time>2026-08-21T07:52:16.111Z</time>
      </trkpt>
      <trkpt lat="45.03892" lon="2.48067">
        <ele>906.33</ele>
        <time>2026-08-21T07:52:18.048Z</time>
      </trkpt>
      <trkpt lat="45.03893" lon="2.48065">
        <ele>906.45</ele>
        <time>2026-08-21T07:52:19.050Z</time>
      </trkpt>
      <trkpt lat="45.03893" lon="2.48063">
        <ele>906.58</ele>
        <time>2026-08-21T07:52:20.055Z</time>
      </trkpt>
      <trkpt lat="45.03893" lon="2.4806">
        <ele>906.7</ele>
        <time>2026-08-21T07:52:21.055Z</time>
      </trkpt>
      <trkpt lat="45.03894" lon="2.48058">
        <ele>906.82</ele>
        <time>2026-08-21T07:52:22.070Z</time>
      </trkpt>
      <trkpt lat="45.03894" lon="2.48056">
        <ele>906.95</ele>
        <time>2026-08-21T07:52:23.059Z</time>
      </trkpt>
      <trkpt lat="45.03894" lon="2.48053">
        <ele>907.07</ele>
        <time>2026-08-21T07:52:24.059Z</time>
      </trkpt>
      <trkpt lat="45.03895" lon="2.48051">
        <ele>907.2</ele>
        <time>2026-08-21T07:52:26.097Z</time>
      </trkpt>
      <trkpt lat="45.03896" lon="2.48046">
        <ele>907.44</ele>
        <time>2026-08-21T07:52:27.065Z</time>
      </trkpt>
      <trkpt lat="45.03897" lon="2.48044">
        <ele>907.54</ele>
        <time>2026-08-21T07:52:29.115Z</time>
      </trkpt>
      <trkpt lat="45.03898" lon="2.4804">
        <ele>907.66</ele>
        <time>2026-08-21T07:52:30.115Z</time>
      </trkpt>
      <trkpt lat="45.03899" lon="2.48037">
        <ele>907.92</ele>
        <time>2026-08-21T07:52:30.737Z</time>
      </trkpt>
      <trkpt lat="45.039" lon="2.4803">
        <ele>908.07</ele>
        <time>2026-08-21T07:52:33.098Z</time>
      </trkpt>
      <trkpt lat="45.03901" lon="2.48023">
        <ele>908.42</ele>
        <time>2026-08-21T07:52:35.079Z</time>
      </trkpt>
      <trkpt lat="45.03901" lon="2.48022">
        <ele>908.55</ele>
        <time>2026-08-21T07:52:36.081Z</time>
      </trkpt>
      <trkpt lat="45.03901" lon="2.4802">
        <ele>908.65</ele>
        <time>2026-08-21T07:52:37.083Z</time>
      </trkpt>
      <trkpt lat="45.03902" lon="2.48018">
        <ele>908.77</ele>
        <time>2026-08-21T07:52:38.085Z</time>
      </trkpt>
      <trkpt lat="45.03902" lon="2.48015">
        <ele>908.91</ele>
        <time>2026-08-21T07:52:39.087Z</time>
      </trkpt>
      <trkpt lat="45.03903" lon="2.48013">
        <ele>909.07</ele>
        <time>2026-08-21T07:52:40.091Z</time>
      </trkpt>
      <trkpt lat="45.03904" lon="2.4801">
        <ele>909.21</ele>
        <time>2026-08-21T07:52:41.091Z</time>
      </trkpt>
      <trkpt lat="45.03904" lon="2.48008">
        <ele>909.34</ele>
        <time>2026-08-21T07:52:42.092Z</time>
      </trkpt>
      <trkpt lat="45.03905" lon="2.48006">
        <ele>909.45</ele>
        <time>2026-08-21T07:52:43.095Z</time>
      </trkpt>
      <trkpt lat="45.03906" lon="2.48003">
        <ele>909.58</ele>
        <time>2026-08-21T07:52:44.096Z</time>
      </trkpt>
      <trkpt lat="45.03907" lon="2.48">
        <ele>909.7</ele>
        <time>2026-08-21T07:52:44.918Z</time>
      </trkpt>
      <trkpt lat="45.03907" lon="2.47998">
        <ele>909.79</ele>
        <time>2026-08-21T07:52:45.684Z</time>
      </trkpt>
      <trkpt lat="45.03908" lon="2.47995">
        <ele>909.87</ele>
        <time>2026-08-21T07:52:46.159Z</time>
      </trkpt>
      <trkpt lat="45.03909" lon="2.47991">
        <ele>909.95</ele>
        <time>2026-08-21T07:52:48.086Z</time>
      </trkpt>
      <trkpt lat="45.0391" lon="2.47988">
        <ele>910.07</ele>
        <time>2026-08-21T07:52:48.798Z</time>
      </trkpt>
      <trkpt lat="45.03911" lon="2.47984">
        <ele>910.22</ele>
        <time>2026-08-21T07:52:50.109Z</time>
      </trkpt>
      <trkpt lat="45.03912" lon="2.4798">
        <ele>910.35</ele>
        <time>2026-08-21T07:52:51.110Z</time>
      </trkpt>
      <trkpt lat="45.03912" lon="2.47976">
        <ele>910.52</ele>
        <time>2026-08-21T07:52:52.112Z</time>
      </trkpt>
      <trkpt lat="45.03914" lon="2.47972">
        <ele>910.66</ele>
        <time>2026-08-21T07:52:53.115Z</time>
      </trkpt>
      <trkpt lat="45.03914" lon="2.47969">
        <ele>910.79</ele>
        <time>2026-08-21T07:52:54.116Z</time>
      </trkpt>
      <trkpt lat="45.03914" lon="2.47965">
        <ele>910.92</ele>
        <time>2026-08-21T07:52:55.121Z</time>
      </trkpt>
      <trkpt lat="45.03914" lon="2.47962">
        <ele>910.96</ele>
        <time>2026-08-21T07:52:56.062Z</time>
      </trkpt>
      <trkpt lat="45.03914" lon="2.47958">
        <ele>911.1</ele>
        <time>2026-08-21T07:52:57.021Z</time>
      </trkpt>
      <trkpt lat="45.03915" lon="2.47955">
        <ele>911.23</ele>
        <time>2026-08-21T07:52:58.126Z</time>
      </trkpt>
      <trkpt lat="45.03915" lon="2.47952">
        <ele>911.35</ele>
        <time>2026-08-21T07:52:59.138Z</time>
      </trkpt>
      <trkpt lat="45.03915" lon="2.47949">
        <ele>911.47</ele>
        <time>2026-08-21T07:52:59.964Z</time>
      </trkpt>
      <trkpt lat="45.03915" lon="2.47946">
        <ele>911.59</ele>
        <time>2026-08-21T07:53:01.131Z</time>
      </trkpt>
      <trkpt lat="45.03915" lon="2.47942">
        <ele>911.7</ele>
        <time>2026-08-21T07:53:02.133Z</time>
      </trkpt>
      <trkpt lat="45.03915" lon="2.47938">
        <ele>911.79</ele>
        <time>2026-08-21T07:53:03.135Z</time>
      </trkpt>
      <trkpt lat="45.03916" lon="2.47934">
        <ele>911.89</ele>
        <time>2026-08-21T07:53:04.061Z</time>
      </trkpt>
      <trkpt lat="45.03916" lon="2.47931">
        <ele>912</ele>
        <time>2026-08-21T07:53:05.139Z</time>
      </trkpt>
      <trkpt lat="45.03916" lon="2.47928">
        <ele>912.08</ele>
        <time>2026-08-21T07:53:06.022Z</time>
      </trkpt>
      <trkpt lat="45.03916" lon="2.47924">
        <ele>912.21</ele>
        <time>2026-08-21T07:53:07.143Z</time>
      </trkpt>
      <trkpt lat="45.03916" lon="2.47921">
        <ele>912.29</ele>
        <time>2026-08-21T07:53:07.839Z</time>
      </trkpt>
      <trkpt lat="45.03917" lon="2.47917">
        <ele>912.38</ele>
        <time>2026-08-21T07:53:09.147Z</time>
      </trkpt>
      <trkpt lat="45.03917" lon="2.47913">
        <ele>912.45</ele>
        <time>2026-08-21T07:53:10.064Z</time>
      </trkpt>
      <trkpt lat="45.03917" lon="2.47909">
        <ele>912.53</ele>
        <time>2026-08-21T07:53:10.700Z</time>
      </trkpt>
      <trkpt lat="45.03917" lon="2.47906">
        <ele>912.63</ele>
        <time>2026-08-21T07:53:11.727Z</time>
      </trkpt>
      <trkpt lat="45.03917" lon="2.47902">
        <ele>912.7</ele>
        <time>2026-08-21T07:53:13.155Z</time>
      </trkpt>
      <trkpt lat="45.03917" lon="2.47899">
        <ele>912.79</ele>
        <time>2026-08-21T07:53:14.156Z</time>
      </trkpt>
      <trkpt lat="45.03917" lon="2.47896">
        <ele>912.88</ele>
        <time>2026-08-21T07:53:15.108Z</time>
      </trkpt>
      <trkpt lat="45.03917" lon="2.47892">
        <ele>912.98</ele>
        <time>2026-08-21T07:53:16.160Z</time>
      </trkpt>
      <trkpt lat="45.03917" lon="2.47889">
        <ele>913.06</ele>
        <time>2026-08-21T07:53:17.162Z</time>
      </trkpt>
      <trkpt lat="45.03917" lon="2.47886">
        <ele>913.13</ele>
        <time>2026-08-21T07:53:17.780Z</time>
      </trkpt>
      <trkpt lat="45.03916" lon="2.47883">
        <ele>913.21</ele>
        <time>2026-08-21T07:53:19.166Z</time>
      </trkpt>
      <trkpt lat="45.03916" lon="2.4788">
        <ele>913.26</ele>
        <time>2026-08-21T07:53:20.068Z</time>
      </trkpt>
      <trkpt lat="45.03915" lon="2.47876">
        <ele>913.35</ele>
        <time>2026-08-21T07:53:21.071Z</time>
      </trkpt>
      <trkpt lat="45.03915" lon="2.47872">
        <ele>913.41</ele>
        <time>2026-08-21T07:53:22.075Z</time>
      </trkpt>
      <trkpt lat="45.03915" lon="2.47869">
        <ele>913.48</ele>
        <time>2026-08-21T07:53:23.073Z</time>
      </trkpt>
      <trkpt lat="45.03915" lon="2.47865">
        <ele>913.57</ele>
        <time>2026-08-21T07:53:24.074Z</time>
      </trkpt>
      <trkpt lat="45.03915" lon="2.47862">
        <ele>913.64</ele>
        <time>2026-08-21T07:53:25.076Z</time>
      </trkpt>
      <trkpt lat="45.03915" lon="2.47859">
        <ele>913.73</ele>
        <time>2026-08-21T07:53:26.077Z</time>
      </trkpt>
      <trkpt lat="45.03916" lon="2.47856">
        <ele>913.82</ele>
        <time>2026-08-21T07:53:27.079Z</time>
      </trkpt>
      <trkpt lat="45.03916" lon="2.47853">
        <ele>913.92</ele>
        <time>2026-08-21T07:53:28.081Z</time>
      </trkpt>
      <trkpt lat="45.03916" lon="2.4785">
        <ele>914.01</ele>
        <time>2026-08-21T07:53:29.082Z</time>
      </trkpt>
      <trkpt lat="45.03917" lon="2.47847">
        <ele>914.12</ele>
        <time>2026-08-21T07:53:30.083Z</time>
      </trkpt>
      <trkpt lat="45.03917" lon="2.47843">
        <ele>914.23</ele>
        <time>2026-08-21T07:53:31.084Z</time>
      </trkpt>
      <trkpt lat="45.03918" lon="2.47841">
        <ele>914.34</ele>
        <time>2026-08-21T07:53:32.085Z</time>
      </trkpt>
      <trkpt lat="45.03919" lon="2.47838">
        <ele>914.45</ele>
        <time>2026-08-21T07:53:33.084Z</time>
      </trkpt>
      <trkpt lat="45.03919" lon="2.47836">
        <ele>914.54</ele>
        <time>2026-08-21T07:53:34.085Z</time>
      </trkpt>
      <trkpt lat="45.0392" lon="2.47832">
        <ele>914.67</ele>
        <time>2026-08-21T07:53:35.087Z</time>
      </trkpt>
      <trkpt lat="45.03921" lon="2.47828">
        <ele>914.8</ele>
        <time>2026-08-21T07:53:36.087Z</time>
      </trkpt>
      <trkpt lat="45.03922" lon="2.47825">
        <ele>914.92</ele>
        <time>2026-08-21T07:53:37.090Z</time>
      </trkpt>
      <trkpt lat="45.03923" lon="2.47822">
        <ele>915.05</ele>
        <time>2026-08-21T07:53:38.090Z</time>
      </trkpt>
      <trkpt lat="45.03924" lon="2.47818">
        <ele>915.17</ele>
        <time>2026-08-21T07:53:39.091Z</time>
      </trkpt>
      <trkpt lat="45.03925" lon="2.47815">
        <ele>915.3</ele>
        <time>2026-08-21T07:53:40.095Z</time>
      </trkpt>
      <trkpt lat="45.03926" lon="2.47813">
        <ele>915.44</ele>
        <time>2026-08-21T07:53:41.095Z</time>
      </trkpt>
      <trkpt lat="45.03927" lon="2.4781">
        <ele>915.58</ele>
        <time>2026-08-21T07:53:42.025Z</time>
      </trkpt>
      <trkpt lat="45.03928" lon="2.47807">
        <ele>915.71</ele>
        <time>2026-08-21T07:53:43.097Z</time>
      </trkpt>
      <trkpt lat="45.03928" lon="2.47804">
        <ele>915.83</ele>
        <time>2026-08-21T07:53:44.100Z</time>
      </trkpt>
      <trkpt lat="45.0393" lon="2.47801">
        <ele>915.97</ele>
        <time>2026-08-21T07:53:45.101Z</time>
      </trkpt>
      <trkpt lat="45.0393" lon="2.47798">
        <ele>916.1</ele>
        <time>2026-08-21T07:53:46.103Z</time>
      </trkpt>
      <trkpt lat="45.03931" lon="2.47795">
        <ele>916.26</ele>
        <time>2026-08-21T07:53:47.106Z</time>
      </trkpt>
      <trkpt lat="45.03932" lon="2.47791">
        <ele>916.4</ele>
        <time>2026-08-21T07:53:48.105Z</time>
      </trkpt>
      <trkpt lat="45.03933" lon="2.47787">
        <ele>916.55</ele>
        <time>2026-08-21T07:53:49.106Z</time>
      </trkpt>
      <trkpt lat="45.03933" lon="2.47784">
        <ele>916.52</ele>
        <time>2026-08-21T07:53:50.107Z</time>
      </trkpt>
      <trkpt lat="45.03934" lon="2.47781">
        <ele>916.59</ele>
        <time>2026-08-21T07:53:51.108Z</time>
      </trkpt>
      <trkpt lat="45.03934" lon="2.47777">
        <ele>916.67</ele>
        <time>2026-08-21T07:53:52.112Z</time>
      </trkpt>
      <trkpt lat="45.03935" lon="2.47773">
        <ele>916.77</ele>
        <time>2026-08-21T07:53:53.111Z</time>
      </trkpt>
      <trkpt lat="45.03935" lon="2.47769">
        <ele>916.84</ele>
        <time>2026-08-21T07:53:54.112Z</time>
      </trkpt>
      <trkpt lat="45.03936" lon="2.47764">
        <ele>916.91</ele>
        <time>2026-08-21T07:53:55.114Z</time>
      </trkpt>
      <trkpt lat="45.03937" lon="2.47759">
        <ele>916.97</ele>
        <time>2026-08-21T07:53:56.117Z</time>
      </trkpt>
      <trkpt lat="45.03938" lon="2.47753">
        <ele>917</ele>
        <time>2026-08-21T07:53:57.117Z</time>
      </trkpt>
      <trkpt lat="45.03939" lon="2.47748">
        <ele>917.05</ele>
        <time>2026-08-21T07:53:57.678Z</time>
      </trkpt>
      <trkpt lat="45.0394" lon="2.47742">
        <ele>917.05</ele>
        <time>2026-08-21T07:53:59.119Z</time>
      </trkpt>
      <trkpt lat="45.03941" lon="2.47736">
        <ele>917.05</ele>
        <time>2026-08-21T07:54:00.120Z</time>
      </trkpt>
      <trkpt lat="45.03942" lon="2.4773">
        <ele>917.02</ele>
        <time>2026-08-21T07:54:01.121Z</time>
      </trkpt>
      <trkpt lat="45.03942" lon="2.47724">
        <ele>916.96</ele>
        <time>2026-08-21T07:54:02.176Z</time>
      </trkpt>
      <trkpt lat="45.03942" lon="2.47718">
        <ele>916.87</ele>
        <time>2026-08-21T07:54:03.123Z</time>
      </trkpt>
      <trkpt lat="45.03943" lon="2.47712">
        <ele>916.81</ele>
        <time>2026-08-21T07:54:04.124Z</time>
      </trkpt>
      <trkpt lat="45.03942" lon="2.47705">
        <ele>916.77</ele>
        <time>2026-08-21T07:54:04.700Z</time>
      </trkpt>
      <trkpt lat="45.03941" lon="2.47698">
        <ele>916.69</ele>
        <time>2026-08-21T07:54:06.126Z</time>
      </trkpt>
      <trkpt lat="45.0394" lon="2.47691">
        <ele>916.61</ele>
        <time>2026-08-21T07:54:07.126Z</time>
      </trkpt>
      <trkpt lat="45.03939" lon="2.47683">
        <ele>916.55</ele>
        <time>2026-08-21T07:54:08.129Z</time>
      </trkpt>
      <trkpt lat="45.03937" lon="2.47675">
        <ele>916.49</ele>
        <time>2026-08-21T07:54:09.119Z</time>
      </trkpt>
      <trkpt lat="45.03935" lon="2.47667">
        <ele>916.37</ele>
        <time>2026-08-21T07:54:10.121Z</time>
      </trkpt>
      <trkpt lat="45.03934" lon="2.47658">
        <ele>916.17</ele>
        <time>2026-08-21T07:54:11.127Z</time>
      </trkpt>
      <trkpt lat="45.03932" lon="2.47649">
        <ele>916.01</ele>
        <time>2026-08-21T07:54:12.123Z</time>
      </trkpt>
      <trkpt lat="45.0393" lon="2.4764">
        <ele>915.84</ele>
        <time>2026-08-21T07:54:13.130Z</time>
      </trkpt>
      <trkpt lat="45.03927" lon="2.47626">
        <ele>915.61</ele>
        <time>2026-08-21T07:54:14.126Z</time>
      </trkpt>
      <trkpt lat="45.03924" lon="2.47615">
        <ele>915.41</ele>
        <time>2026-08-21T07:54:15.127Z</time>
      </trkpt>
      <trkpt lat="45.03923" lon="2.47612">
        <ele>915.09</ele>
        <time>2026-08-21T07:54:16.129Z</time>
      </trkpt>
      <trkpt lat="45.03922" lon="2.47598">
        <ele>914.66</ele>
        <time>2026-08-21T07:54:17.131Z</time>
      </trkpt>
      <trkpt lat="45.03922" lon="2.47593">
        <ele>914.31</ele>
        <time>2026-08-21T07:54:18.134Z</time>
      </trkpt>
      <trkpt lat="45.03924" lon="2.47593">
        <ele>912.92</ele>
        <time>2026-08-21T07:54:28.090Z</time>
      </trkpt>
      <trkpt lat="45.03927" lon="2.47589">
        <ele>912.92</ele>
        <time>2026-08-21T07:54:40.969Z</time>
      </trkpt>
      <trkpt lat="45.03929" lon="2.47588">
        <ele>912.92</ele>
        <time>2026-08-21T07:54:41.541Z</time>
      </trkpt>
      <trkpt lat="45.03933" lon="2.47588">
        <ele>912.92</ele>
        <time>2026-08-21T07:54:42.508Z</time>
      </trkpt>
      <trkpt lat="45.03936" lon="2.47588">
        <ele>908.86</ele>
        <time>2026-08-21T07:54:43.994Z</time>
      </trkpt>
      <trkpt lat="45.03939" lon="2.47588">
        <ele>908.69</ele>
        <time>2026-08-21T07:54:44.977Z</time>
      </trkpt>
      <trkpt lat="45.03942" lon="2.47589">
        <ele>908.53</ele>
        <time>2026-08-21T07:54:45.984Z</time>
      </trkpt>
      <trkpt lat="45.03946" lon="2.4759">
        <ele>908.44</ele>
        <time>2026-08-21T07:54:46.983Z</time>
      </trkpt>
      <trkpt lat="45.03951" lon="2.47589">
        <ele>908.29</ele>
        <time>2026-08-21T07:54:47.956Z</time>
      </trkpt>
      <trkpt lat="45.03956" lon="2.47589">
        <ele>908.27</ele>
        <time>2026-08-21T07:54:48.439Z</time>
      </trkpt>
      <trkpt lat="45.03961" lon="2.4759">
        <ele>908.07</ele>
        <time>2026-08-21T07:54:49.012Z</time>
      </trkpt>
      <trkpt lat="45.03966" lon="2.4759">
        <ele>907.83</ele>
        <time>2026-08-21T07:54:50.961Z</time>
      </trkpt>
      <trkpt lat="45.03971" lon="2.4759">
        <ele>907.79</ele>
        <time>2026-08-21T07:54:51.859Z</time>
      </trkpt>
      <trkpt lat="45.03976" lon="2.4759">
        <ele>907.62</ele>
        <time>2026-08-21T07:54:52.879Z</time>
      </trkpt>
      <trkpt lat="45.03979" lon="2.4759">
        <ele>907.47</ele>
        <time>2026-08-21T07:54:53.843Z</time>
      </trkpt>
      <trkpt lat="45.03983" lon="2.4759">
        <ele>907.28</ele>
        <time>2026-08-21T07:54:54.863Z</time>
      </trkpt>
      <trkpt lat="45.03988" lon="2.4759">
        <ele>907.19</ele>
        <time>2026-08-21T07:54:56.007Z</time>
      </trkpt>
      <trkpt lat="45.03991" lon="2.4759">
        <ele>907.09</ele>
        <time>2026-08-21T07:54:57.006Z</time>
      </trkpt>
      <trkpt lat="45.03995" lon="2.47591">
        <ele>907</ele>
        <time>2026-08-21T07:54:57.977Z</time>
      </trkpt>
      <trkpt lat="45.03999" lon="2.47591">
        <ele>906.88</ele>
        <time>2026-08-21T07:54:58.100Z</time>
      </trkpt>
      <trkpt lat="45.04002" lon="2.47591">
        <ele>906.8</ele>
        <time>2026-08-21T07:54:59.104Z</time>
      </trkpt>
      <trkpt lat="45.04007" lon="2.47591">
        <ele>906.61</ele>
        <time>2026-08-21T07:55:01.013Z</time>
      </trkpt>
      <trkpt lat="45.04011" lon="2.47592">
        <ele>906.51</ele>
        <time>2026-08-21T07:55:01.997Z</time>
      </trkpt>
      <trkpt lat="45.04015" lon="2.47592">
        <ele>906.41</ele>
        <time>2026-08-21T07:55:03.021Z</time>
      </trkpt>
      <trkpt lat="45.04018" lon="2.47592">
        <ele>906.27</ele>
        <time>2026-08-21T07:55:03.865Z</time>
      </trkpt>
      <trkpt lat="45.04022" lon="2.47592">
        <ele>906.18</ele>
        <time>2026-08-21T07:55:04.089Z</time>
      </trkpt>
      <trkpt lat="45.04025" lon="2.47592">
        <ele>905.99</ele>
        <time>2026-08-21T07:55:05.100Z</time>
      </trkpt>
      <trkpt lat="45.04029" lon="2.47592">
        <ele>905.82</ele>
        <time>2026-08-21T07:55:06.106Z</time>
      </trkpt>
      <trkpt lat="45.04032" lon="2.47592">
        <ele>905.62</ele>
        <time>2026-08-21T07:55:07.114Z</time>
      </trkpt>
      <trkpt lat="45.04036" lon="2.47592">
        <ele>905.52</ele>
        <time>2026-08-21T07:55:09.046Z</time>
      </trkpt>
      <trkpt lat="45.04039" lon="2.47592">
        <ele>905.45</ele>
        <time>2026-08-21T07:55:09.118Z</time>
      </trkpt>
      <trkpt lat="45.04041" lon="2.47592">
        <ele>905.37</ele>
        <time>2026-08-21T07:55:10.085Z</time>
      </trkpt>
      <trkpt lat="45.04045" lon="2.47592">
        <ele>905.25</ele>
        <time>2026-08-21T07:55:11.544Z</time>
      </trkpt>
      <trkpt lat="45.04048" lon="2.47593">
        <ele>905.12</ele>
        <time>2026-08-21T07:55:13.048Z</time>
      </trkpt>
      <trkpt lat="45.0405" lon="2.47594">
        <ele>904.95</ele>
        <time>2026-08-21T07:55:13.129Z</time>
      </trkpt>
      <trkpt lat="45.04054" lon="2.47594">
        <ele>904.87</ele>
        <time>2026-08-21T07:55:15.020Z</time>
      </trkpt>
      <trkpt lat="45.04057" lon="2.47595">
        <ele>904.76</ele>
        <time>2026-08-21T07:55:15.096Z</time>
      </trkpt>
      <trkpt lat="45.0406" lon="2.47594">
        <ele>904.63</ele>
        <time>2026-08-21T07:55:16.113Z</time>
      </trkpt>
      <trkpt lat="45.04063" lon="2.47594">
        <ele>904.55</ele>
        <time>2026-08-21T07:55:17.108Z</time>
      </trkpt>
      <trkpt lat="45.04067" lon="2.47594">
        <ele>904.46</ele>
        <time>2026-08-21T07:55:18.098Z</time>
      </trkpt>
      <trkpt lat="45.0407" lon="2.47594">
        <ele>904.41</ele>
        <time>2026-08-21T07:55:19.113Z</time>
      </trkpt>
      <trkpt lat="45.04073" lon="2.47593">
        <ele>904.36</ele>
        <time>2026-08-21T07:55:20.847Z</time>
      </trkpt>
      <trkpt lat="45.04076" lon="2.47592">
        <ele>904.32</ele>
        <time>2026-08-21T07:55:21.105Z</time>
      </trkpt>
      <trkpt lat="45.04079" lon="2.47591">
        <ele>904.27</ele>
        <time>2026-08-21T07:55:22.103Z</time>
      </trkpt>
      <trkpt lat="45.04083" lon="2.4759">
        <ele>904.18</ele>
        <time>2026-08-21T07:55:23.103Z</time>
      </trkpt>
      <trkpt lat="45.04086" lon="2.47589">
        <ele>904.11</ele>
        <time>2026-08-21T07:55:24.090Z</time>
      </trkpt>
      <trkpt lat="45.04092" lon="2.47587">
        <ele>904.08</ele>
        <time>2026-08-21T07:55:25.603Z</time>
      </trkpt>
      <trkpt lat="45.04096" lon="2.47586">
        <ele>904.08</ele>
        <time>2026-08-21T07:55:27.978Z</time>
      </trkpt>
      <trkpt lat="45.04099" lon="2.47585">
        <ele>904.08</ele>
        <time>2026-08-21T07:55:28.081Z</time>
      </trkpt>
      <trkpt lat="45.04106" lon="2.47583">
        <ele>904.11</ele>
        <time>2026-08-21T07:55:30.085Z</time>
      </trkpt>
      <trkpt lat="45.04109" lon="2.47582">
        <ele>904.17</ele>
        <time>2026-08-21T07:55:31.107Z</time>
      </trkpt>
      <trkpt lat="45.04112" lon="2.4758">
        <ele>904.2</ele>
        <time>2026-08-21T07:55:32.906Z</time>
      </trkpt>
      <trkpt lat="45.04118" lon="2.47577">
        <ele>904.18</ele>
        <time>2026-08-21T07:55:34.085Z</time>
      </trkpt>
      <trkpt lat="45.04121" lon="2.47576">
        <ele>904.21</ele>
        <time>2026-08-21T07:55:35.116Z</time>
      </trkpt>
      <trkpt lat="45.04125" lon="2.47575">
        <ele>904.23</ele>
        <time>2026-08-21T07:55:36.102Z</time>
      </trkpt>
      <trkpt lat="45.04129" lon="2.47576">
        <ele>904.25</ele>
        <time>2026-08-21T07:55:38.097Z</time>
      </trkpt>
      <trkpt lat="45.04134" lon="2.4758">
        <ele>904.33</ele>
        <time>2026-08-21T07:55:40.086Z</time>
      </trkpt>
      <trkpt lat="45.04136" lon="2.47582">
        <ele>904.46</ele>
        <time>2026-08-21T07:55:41.102Z</time>
      </trkpt>
      <trkpt lat="45.0414" lon="2.47586">
        <ele>904.51</ele>
        <time>2026-08-21T07:55:43.091Z</time>
      </trkpt>
      <trkpt lat="45.04142" lon="2.47588">
        <ele>904.58</ele>
        <time>2026-08-21T07:55:44.111Z</time>
      </trkpt>
      <trkpt lat="45.04146" lon="2.47593">
        <ele>904.66</ele>
        <time>2026-08-21T07:55:46.094Z</time>
      </trkpt>
      <trkpt lat="45.04149" lon="2.47595">
        <ele>904.81</ele>
        <time>2026-08-21T07:55:47.109Z</time>
      </trkpt>
      <trkpt lat="45.04151" lon="2.47597">
        <ele>904.9</ele>
        <time>2026-08-21T07:55:48.112Z</time>
      </trkpt>
      <trkpt lat="45.04153" lon="2.47599">
        <ele>905.02</ele>
        <time>2026-08-21T07:55:48.870Z</time>
      </trkpt>
      <trkpt lat="45.04155" lon="2.47601">
        <ele>905.13</ele>
        <time>2026-08-21T07:55:50.014Z</time>
      </trkpt>
      <trkpt lat="45.04157" lon="2.47603">
        <ele>905.26</ele>
        <time>2026-08-21T07:55:51.016Z</time>
      </trkpt>
      <trkpt lat="45.04161" lon="2.47607">
        <ele>905.38</ele>
        <time>2026-08-21T07:55:53.117Z</time>
      </trkpt>
      <trkpt lat="45.04163" lon="2.4761">
        <ele>905.61</ele>
        <time>2026-08-21T07:55:54.019Z</time>
      </trkpt>
      <trkpt lat="45.04165" lon="2.47612">
        <ele>905.73</ele>
        <time>2026-08-21T07:55:55.019Z</time>
      </trkpt>
      <trkpt lat="45.04168" lon="2.47616">
        <ele>905.86</ele>
        <time>2026-08-21T07:55:57.023Z</time>
      </trkpt>
      <trkpt lat="45.04171" lon="2.47619">
        <ele>906.08</ele>
        <time>2026-08-21T07:55:58.023Z</time>
      </trkpt>
      <trkpt lat="45.04173" lon="2.47622">
        <ele>906.22</ele>
        <time>2026-08-21T07:55:59.023Z</time>
      </trkpt>
      <trkpt lat="45.04176" lon="2.47625">
        <ele>906.33</ele>
        <time>2026-08-21T07:56:00.123Z</time>
      </trkpt>
      <trkpt lat="45.04178" lon="2.47628">
        <ele>906.36</ele>
        <time>2026-08-21T07:56:00.859Z</time>
      </trkpt>
      <trkpt lat="45.0418" lon="2.47631">
        <ele>906.47</ele>
        <time>2026-08-21T07:56:02.125Z</time>
      </trkpt>
      <trkpt lat="45.04182" lon="2.47633">
        <ele>906.58</ele>
        <time>2026-08-21T07:56:03.034Z</time>
      </trkpt>
      <trkpt lat="45.04184" lon="2.47635">
        <ele>906.71</ele>
        <time>2026-08-21T07:56:04.028Z</time>
      </trkpt>
      <trkpt lat="45.04186" lon="2.47637">
        <ele>906.82</ele>
        <time>2026-08-21T07:56:05.033Z</time>
      </trkpt>
      <trkpt lat="45.04189" lon="2.4764">
        <ele>906.96</ele>
        <time>2026-08-21T07:56:06.036Z</time>
      </trkpt>
      <trkpt lat="45.04191" lon="2.47643">
        <ele>907.03</ele>
        <time>2026-08-21T07:56:07.131Z</time>
      </trkpt>
      <trkpt lat="45.04194" lon="2.47646">
        <ele>907.13</ele>
        <time>2026-08-21T07:56:07.972Z</time>
      </trkpt>
      <trkpt lat="45.04196" lon="2.47649">
        <ele>907.24</ele>
        <time>2026-08-21T07:56:09.037Z</time>
      </trkpt>
      <trkpt lat="45.04198" lon="2.47652">
        <ele>907.35</ele>
        <time>2026-08-21T07:56:10.135Z</time>
      </trkpt>
      <trkpt lat="45.04201" lon="2.47655">
        <ele>907.34</ele>
        <time>2026-08-21T07:56:11.038Z</time>
      </trkpt>
      <trkpt lat="45.04203" lon="2.47659">
        <ele>907.4</ele>
        <time>2026-08-21T07:56:12.043Z</time>
      </trkpt>
      <trkpt lat="45.04205" lon="2.47662">
        <ele>907.48</ele>
        <time>2026-08-21T07:56:13.041Z</time>
      </trkpt>
      <trkpt lat="45.04208" lon="2.47664">
        <ele>907.58</ele>
        <time>2026-08-21T07:56:14.041Z</time>
      </trkpt>
      <trkpt lat="45.0421" lon="2.47667">
        <ele>907.65</ele>
        <time>2026-08-21T07:56:15.141Z</time>
      </trkpt>
      <trkpt lat="45.04212" lon="2.4767">
        <ele>907.76</ele>
        <time>2026-08-21T07:56:16.043Z</time>
      </trkpt>
      <trkpt lat="45.04215" lon="2.47673">
        <ele>907.83</ele>
        <time>2026-08-21T07:56:17.043Z</time>
      </trkpt>
      <trkpt lat="45.04218" lon="2.47677">
        <ele>907.89</ele>
        <time>2026-08-21T07:56:18.143Z</time>
      </trkpt>
      <trkpt lat="45.04221" lon="2.4768">
        <ele>907.97</ele>
        <time>2026-08-21T07:56:18.798Z</time>
      </trkpt>
      <trkpt lat="45.04225" lon="2.47684">
        <ele>907.8</ele>
        <time>2026-08-21T07:56:19.708Z</time>
      </trkpt>
      <trkpt lat="45.04229" lon="2.47688">
        <ele>907.66</ele>
        <time>2026-08-21T07:56:21.045Z</time>
      </trkpt>
      <trkpt lat="45.04232" lon="2.47691">
        <ele>907.89</ele>
        <time>2026-08-21T07:56:22.145Z</time>
      </trkpt>
      <trkpt lat="45.04236" lon="2.47696">
        <ele>907.99</ele>
        <time>2026-08-21T07:56:23.118Z</time>
      </trkpt>
      <trkpt lat="45.0424" lon="2.477">
        <ele>908.05</ele>
        <time>2026-08-21T07:56:24.147Z</time>
      </trkpt>
      <trkpt lat="45.04245" lon="2.47704">
        <ele>907.95</ele>
        <time>2026-08-21T07:56:24.741Z</time>
      </trkpt>
      <trkpt lat="45.04249" lon="2.4771">
        <ele>907.84</ele>
        <time>2026-08-21T07:56:25.999Z</time>
      </trkpt>
      <trkpt lat="45.04254" lon="2.47715">
        <ele>907.7</ele>
        <time>2026-08-21T07:56:27.135Z</time>
      </trkpt>
      <trkpt lat="45.04259" lon="2.47721">
        <ele>907.59</ele>
        <time>2026-08-21T07:56:27.760Z</time>
      </trkpt>
      <trkpt lat="45.04264" lon="2.47726">
        <ele>907.56</ele>
        <time>2026-08-21T07:56:29.149Z</time>
      </trkpt>
      <trkpt lat="45.0427" lon="2.47732">
        <ele>907.46</ele>
        <time>2026-08-21T07:56:30.135Z</time>
      </trkpt>
      <trkpt lat="45.04276" lon="2.47737">
        <ele>907.33</ele>
        <time>2026-08-21T07:56:30.152Z</time>
      </trkpt>
      <trkpt lat="45.04283" lon="2.47743">
        <ele>907.18</ele>
        <time>2026-08-21T07:56:31.704Z</time>
      </trkpt>
      <trkpt lat="45.0429" lon="2.47751">
        <ele>906.93</ele>
        <time>2026-08-21T07:56:32.736Z</time>
      </trkpt>
      <trkpt lat="45.04295" lon="2.47758">
        <ele>906.58</ele>
        <time>2026-08-21T07:56:33.740Z</time>
      </trkpt>
      <trkpt lat="45.04298" lon="2.47766">
        <ele>906.25</ele>
        <time>2026-08-21T07:56:35.119Z</time>
      </trkpt>
      <trkpt lat="45.04298" lon="2.47776">
        <ele>905.77</ele>
        <time>2026-08-21T07:56:36.154Z</time>
      </trkpt>
      <trkpt lat="45.04297" lon="2.47785">
        <ele>905.16</ele>
        <time>2026-08-21T07:56:36.759Z</time>
      </trkpt>
      <trkpt lat="45.04294" lon="2.47794">
        <ele>904.23</ele>
        <time>2026-08-21T07:56:38.057Z</time>
      </trkpt>
      <trkpt lat="45.04292" lon="2.47803">
        <ele>903.6</ele>
        <time>2026-08-21T07:56:39.058Z</time>
      </trkpt>
      <trkpt lat="45.0429" lon="2.47813">
        <ele>902.84</ele>
        <time>2026-08-21T07:56:40.059Z</time>
      </trkpt>
      <trkpt lat="45.04289" lon="2.47824">
        <ele>901.87</ele>
        <time>2026-08-21T07:56:41.116Z</time>
      </trkpt>
      <trkpt lat="45.04289" lon="2.47835">
        <ele>900.7</ele>
        <time>2026-08-21T07:56:42.165Z</time>
      </trkpt>
      <trkpt lat="45.0429" lon="2.4785">
        <ele>899.13</ele>
        <time>2026-08-21T07:56:42.741Z</time>
      </trkpt>
      <trkpt lat="45.04292" lon="2.47861">
        <ele>896.32</ele>
        <time>2026-08-21T07:56:44.070Z</time>
      </trkpt>
      <trkpt lat="45.04294" lon="2.47875">
        <ele>894.89</ele>
        <time>2026-08-21T07:56:45.071Z</time>
      </trkpt>
      <trkpt lat="45.04297" lon="2.47891">
        <ele>894.02</ele>
        <time>2026-08-21T07:56:46.073Z</time>
      </trkpt>
      <trkpt lat="45.04298" lon="2.47897">
        <ele>892.1</ele>
        <time>2026-08-21T07:56:47.077Z</time>
      </trkpt>
      <trkpt lat="45.04304" lon="2.47919">
        <ele>891.12</ele>
        <time>2026-08-21T07:56:48.076Z</time>
      </trkpt>
      <trkpt lat="45.0431" lon="2.47928">
        <ele>890.23</ele>
        <time>2026-08-21T07:56:49.081Z</time>
      </trkpt>
      <trkpt lat="45.04315" lon="2.47933">
        <ele>888.45</ele>
        <time>2026-08-21T07:56:50.082Z</time>
      </trkpt>
      <trkpt lat="45.04321" lon="2.47936">
        <ele>887.57</ele>
        <time>2026-08-21T07:56:51.081Z</time>
      </trkpt>
      <trkpt lat="45.04326" lon="2.47939">
        <ele>886.34</ele>
        <time>2026-08-21T07:56:52.111Z</time>
      </trkpt>
      <trkpt lat="45.04332" lon="2.47941">
        <ele>885.92</ele>
        <time>2026-08-21T07:56:53.087Z</time>
      </trkpt>
      <trkpt lat="45.04338" lon="2.47944">
        <ele>885.95</ele>
        <time>2026-08-21T07:56:54.032Z</time>
      </trkpt>
      <trkpt lat="45.04344" lon="2.47946">
        <ele>885.3</ele>
        <time>2026-08-21T07:56:55.089Z</time>
      </trkpt>
      <trkpt lat="45.0435" lon="2.47949">
        <ele>884.44</ele>
        <time>2026-08-21T07:56:56.091Z</time>
      </trkpt>
      <trkpt lat="45.04355" lon="2.47953">
        <ele>883.81</ele>
        <time>2026-08-21T07:56:57.095Z</time>
      </trkpt>
      <trkpt lat="45.04361" lon="2.47957">
        <ele>883.28</ele>
        <time>2026-08-21T07:56:58.116Z</time>
      </trkpt>
      <trkpt lat="45.04366" lon="2.47963">
        <ele>882.79</ele>
        <time>2026-08-21T07:56:59.087Z</time>
      </trkpt>
      <trkpt lat="45.04371" lon="2.4797">
        <ele>882.48</ele>
        <time>2026-08-21T07:57:00.086Z</time>
      </trkpt>
      <trkpt lat="45.04375" lon="2.47977">
        <ele>881.36</ele>
        <time>2026-08-21T07:57:01.088Z</time>
      </trkpt>
      <trkpt lat="45.04378" lon="2.47982">
        <ele>880.63</ele>
        <time>2026-08-21T07:57:02.090Z</time>
      </trkpt>
      <trkpt lat="45.04382" lon="2.47986">
        <ele>880.16</ele>
        <time>2026-08-21T07:57:03.093Z</time>
      </trkpt>
      <trkpt lat="45.04386" lon="2.4799">
        <ele>879.79</ele>
        <time>2026-08-21T07:57:04.158Z</time>
      </trkpt>
      <trkpt lat="45.0439" lon="2.47994">
        <ele>879.6</ele>
        <time>2026-08-21T07:57:05.094Z</time>
      </trkpt>
      <trkpt lat="45.04395" lon="2.47997">
        <ele>879.41</ele>
        <time>2026-08-21T07:57:06.096Z</time>
      </trkpt>
      <trkpt lat="45.04398" lon="2.48001">
        <ele>879.27</ele>
        <time>2026-08-21T07:57:07.099Z</time>
      </trkpt>
      <trkpt lat="45.04402" lon="2.48005">
        <ele>878.98</ele>
        <time>2026-08-21T07:57:08.100Z</time>
      </trkpt>
      <trkpt lat="45.04405" lon="2.48009">
        <ele>878.91</ele>
        <time>2026-08-21T07:57:09.102Z</time>
      </trkpt>
      <trkpt lat="45.04408" lon="2.48014">
        <ele>878.81</ele>
        <time>2026-08-21T07:57:09.866Z</time>
      </trkpt>
      <trkpt lat="45.04411" lon="2.48018">
        <ele>878.71</ele>
        <time>2026-08-21T07:57:11.105Z</time>
      </trkpt>
      <trkpt lat="45.04415" lon="2.48021">
        <ele>878.55</ele>
        <time>2026-08-21T07:57:11.720Z</time>
      </trkpt>
      <trkpt lat="45.04419" lon="2.48024">
        <ele>878.48</ele>
        <time>2026-08-21T07:57:13.156Z</time>
      </trkpt>
      <trkpt lat="45.04422" lon="2.48026">
        <ele>878.32</ele>
        <time>2026-08-21T07:57:14.111Z</time>
      </trkpt>
      <trkpt lat="45.04426" lon="2.48026">
        <ele>878.18</ele>
        <time>2026-08-21T07:57:15.111Z</time>
      </trkpt>
      <trkpt lat="45.04429" lon="2.48027">
        <ele>878.08</ele>
        <time>2026-08-21T07:57:16.067Z</time>
      </trkpt>
      <trkpt lat="45.04433" lon="2.48027">
        <ele>878.08</ele>
        <time>2026-08-21T07:57:17.114Z</time>
      </trkpt>
      <trkpt lat="45.04435" lon="2.48027">
        <ele>877.92</ele>
        <time>2026-08-21T07:57:18.116Z</time>
      </trkpt>
      <trkpt lat="45.04438" lon="2.48027">
        <ele>877.81</ele>
        <time>2026-08-21T07:57:19.115Z</time>
      </trkpt>
      <trkpt lat="45.04441" lon="2.48026">
        <ele>877.75</ele>
        <time>2026-08-21T07:57:20.116Z</time>
      </trkpt>
      <trkpt lat="45.04445" lon="2.48025">
        <ele>877.67</ele>
        <time>2026-08-21T07:57:21.118Z</time>
      </trkpt>
      <trkpt lat="45.04448" lon="2.48024">
        <ele>877.64</ele>
        <time>2026-08-21T07:57:22.120Z</time>
      </trkpt>
      <trkpt lat="45.04453" lon="2.48024">
        <ele>877.66</ele>
        <time>2026-08-21T07:57:23.123Z</time>
      </trkpt>
      <trkpt lat="45.04457" lon="2.48023">
        <ele>877.57</ele>
        <time>2026-08-21T07:57:24.124Z</time>
      </trkpt>
      <trkpt lat="45.04461" lon="2.48022">
        <ele>877.58</ele>
        <time>2026-08-21T07:57:25.124Z</time>
      </trkpt>
      <trkpt lat="45.04464" lon="2.48021">
        <ele>877.58</ele>
        <time>2026-08-21T07:57:26.125Z</time>
      </trkpt>
      <trkpt lat="45.04468" lon="2.4802">
        <ele>877.55</ele>
        <time>2026-08-21T07:57:27.126Z</time>
      </trkpt>
      <trkpt lat="45.04472" lon="2.48019">
        <ele>877.49</ele>
        <time>2026-08-21T07:57:27.886Z</time>
      </trkpt>
      <trkpt lat="45.04475" lon="2.48018">
        <ele>877.48</ele>
        <time>2026-08-21T07:57:29.130Z</time>
      </trkpt>
      <trkpt lat="45.04478" lon="2.48018">
        <ele>877.46</ele>
        <time>2026-08-21T07:57:30.131Z</time>
      </trkpt>
      <trkpt lat="45.04481" lon="2.48018">
        <ele>877.44</ele>
        <time>2026-08-21T07:57:31.133Z</time>
      </trkpt>
      <trkpt lat="45.04487" lon="2.48016">
        <ele>877.38</ele>
        <time>2026-08-21T07:58:38.963Z</time>
      </trkpt>
      <trkpt lat="45.04488" lon="2.48011">
        <ele>876.86</ele>
        <time>2026-08-21T07:58:51.084Z</time>
      </trkpt>
      <trkpt lat="45.04489" lon="2.4801">
        <ele>876.68</ele>
        <time>2026-08-21T07:58:52.099Z</time>
      </trkpt>
      <trkpt lat="45.04489" lon="2.48009">
        <ele>876.66</ele>
        <time>2026-08-21T07:58:54.035Z</time>
      </trkpt>
      <trkpt lat="45.0449" lon="2.48007">
        <ele>876.6</ele>
        <time>2026-08-21T07:58:54.099Z</time>
      </trkpt>
      <trkpt lat="45.04491" lon="2.48004">
        <ele>876.54</ele>
        <time>2026-08-21T07:58:55.095Z</time>
      </trkpt>
      <trkpt lat="45.04494" lon="2.47999">
        <ele>876.39</ele>
        <time>2026-08-21T07:58:57.078Z</time>
      </trkpt>
      <trkpt lat="45.04496" lon="2.47995">
        <ele>876.14</ele>
        <time>2026-08-21T07:58:58.122Z</time>
      </trkpt>
      <trkpt lat="45.04498" lon="2.47992">
        <ele>875.98</ele>
        <time>2026-08-21T07:58:59.116Z</time>
      </trkpt>
      <trkpt lat="45.04501" lon="2.47988">
        <ele>875.75</ele>
        <time>2026-08-21T07:59:00.097Z</time>
      </trkpt>
      <trkpt lat="45.04506" lon="2.47982">
        <ele>875.38</ele>
        <time>2026-08-21T07:59:02.081Z</time>
      </trkpt>
      <trkpt lat="45.04509" lon="2.47979">
        <ele>874.66</ele>
        <time>2026-08-21T07:59:03.089Z</time>
      </trkpt>
      <trkpt lat="45.04515" lon="2.47972">
        <ele>874.29</ele>
        <time>2026-08-21T07:59:05.078Z</time>
      </trkpt>
      <trkpt lat="45.04524" lon="2.4796">
        <ele>873.47</ele>
        <time>2026-08-21T07:59:07.086Z</time>
      </trkpt>
      <trkpt lat="45.04527" lon="2.47954">
        <ele>872.38</ele>
        <time>2026-08-21T07:59:08.074Z</time>
      </trkpt>
      <trkpt lat="45.04531" lon="2.47948">
        <ele>871.46</ele>
        <time>2026-08-21T07:59:09.076Z</time>
      </trkpt>
      <trkpt lat="45.04534" lon="2.47941">
        <ele>870.36</ele>
        <time>2026-08-21T07:59:10.048Z</time>
      </trkpt>
      <trkpt lat="45.0454" lon="2.47926">
        <ele>869.62</ele>
        <time>2026-08-21T07:59:12.092Z</time>
      </trkpt>
      <trkpt lat="45.04543" lon="2.47918">
        <ele>868.34</ele>
        <time>2026-08-21T07:59:13.082Z</time>
      </trkpt>
      <trkpt lat="45.04545" lon="2.47912">
        <ele>867.31</ele>
        <time>2026-08-21T07:59:14.084Z</time>
      </trkpt>
      <trkpt lat="45.04548" lon="2.47906">
        <ele>866.1</ele>
        <time>2026-08-21T07:59:15.099Z</time>
      </trkpt>
      <trkpt lat="45.04549" lon="2.47902">
        <ele>865.1</ele>
        <time>2026-08-21T07:59:16.087Z</time>
      </trkpt>
      <trkpt lat="45.0455" lon="2.47899">
        <ele>864.12</ele>
        <time>2026-08-21T07:59:17.088Z</time>
      </trkpt>
      <trkpt lat="45.04554" lon="2.47896">
        <ele>864.12</ele>
        <time>2026-08-21T07:59:18.622Z</time>
      </trkpt>
      <trkpt lat="45.04554" lon="2.47893">
        <ele>864.12</ele>
        <time>2026-08-21T07:59:19.827Z</time>
      </trkpt>
      <trkpt lat="45.04556" lon="2.4789">
        <ele>864.12</ele>
        <time>2026-08-21T07:59:21.094Z</time>
      </trkpt>
      <trkpt lat="45.04558" lon="2.47886">
        <ele>864.12</ele>
        <time>2026-08-21T07:59:22.097Z</time>
      </trkpt>
      <trkpt lat="45.04561" lon="2.47884">
        <ele>858.86</ele>
        <time>2026-08-21T07:59:23.099Z</time>
      </trkpt>
      <trkpt lat="45.04562" lon="2.47882">
        <ele>858.06</ele>
        <time>2026-08-21T07:59:24.101Z</time>
      </trkpt>
      <trkpt lat="45.04565" lon="2.47879">
        <ele>857.3</ele>
        <time>2026-08-21T07:59:25.103Z</time>
      </trkpt>
      <trkpt lat="45.04567" lon="2.47877">
        <ele>856.39</ele>
        <time>2026-08-21T07:59:26.105Z</time>
      </trkpt>
      <trkpt lat="45.04569" lon="2.47873">
        <ele>855.64</ele>
        <time>2026-08-21T07:59:27.109Z</time>
      </trkpt>
      <trkpt lat="45.04572" lon="2.4787">
        <ele>854.93</ele>
        <time>2026-08-21T07:59:28.112Z</time>
      </trkpt>
      <trkpt lat="45.04574" lon="2.47867">
        <ele>854.33</ele>
        <time>2026-08-21T07:59:29.110Z</time>
      </trkpt>
      <trkpt lat="45.04576" lon="2.47863">
        <ele>853.95</ele>
        <time>2026-08-21T07:59:30.112Z</time>
      </trkpt>
      <trkpt lat="45.04583" lon="2.47856">
        <ele>849.93</ele>
        <time>2026-08-21T07:59:50.416Z</time>
      </trkpt>
      <trkpt lat="45.04584" lon="2.47855">
        <ele>849.76</ele>
        <time>2026-08-21T07:59:51.873Z</time>
      </trkpt>
      <trkpt lat="45.04586" lon="2.47853">
        <ele>849.62</ele>
        <time>2026-08-21T07:59:52.856Z</time>
      </trkpt>
      <trkpt lat="45.0459" lon="2.4785">
        <ele>849.29</ele>
        <time>2026-08-21T07:59:53.908Z</time>
      </trkpt>
      <trkpt lat="45.04594" lon="2.47845">
        <ele>848.97</ele>
        <time>2026-08-21T07:59:54.862Z</time>
      </trkpt>
      <trkpt lat="45.046" lon="2.47838">
        <ele>848.65</ele>
        <time>2026-08-21T07:59:55.885Z</time>
      </trkpt>
      <trkpt lat="45.04606" lon="2.47832">
        <ele>848.33</ele>
        <time>2026-08-21T07:59:55.956Z</time>
      </trkpt>
      <trkpt lat="45.04612" lon="2.47825">
        <ele>847.92</ele>
        <time>2026-08-21T07:59:57.869Z</time>
      </trkpt>
      <trkpt lat="45.04618" lon="2.47821">
        <ele>847.52</ele>
        <time>2026-08-21T07:59:58.868Z</time>
      </trkpt>
      <trkpt lat="45.04622" lon="2.47817">
        <ele>847.06</ele>
        <time>2026-08-21T07:59:59.417Z</time>
      </trkpt>
      <trkpt lat="45.04626" lon="2.47814">
        <ele>846.56</ele>
        <time>2026-08-21T08:00:00.866Z</time>
      </trkpt>
      <trkpt lat="45.0463" lon="2.47813">
        <ele>846.13</ele>
        <time>2026-08-21T08:00:01.877Z</time>
      </trkpt>
      <trkpt lat="45.04635" lon="2.47812">
        <ele>845.67</ele>
        <time>2026-08-21T08:00:02.415Z</time>
      </trkpt>
      <trkpt lat="45.04639" lon="2.47813">
        <ele>845.2</ele>
        <time>2026-08-21T08:00:02.946Z</time>
      </trkpt>
      <trkpt lat="45.04641" lon="2.47813">
        <ele>844.67</ele>
        <time>2026-08-21T08:00:04.891Z</time>
      </trkpt>
      <trkpt lat="45.04644" lon="2.47813">
        <ele>844.15</ele>
        <time>2026-08-21T08:00:05.885Z</time>
      </trkpt>
      <trkpt lat="45.04651" lon="2.47814">
        <ele>843.1</ele>
        <time>2026-08-21T08:00:07.891Z</time>
      </trkpt>
      <trkpt lat="45.04652" lon="2.47813">
        <ele>842.58</ele>
        <time>2026-08-21T08:00:08.895Z</time>
      </trkpt>
      <trkpt lat="45.04653" lon="2.47814">
        <ele>842.58</ele>
        <time>2026-08-21T08:00:09.895Z</time>
      </trkpt>
      <trkpt lat="45.04654" lon="2.47815">
        <ele>842.58</ele>
        <time>2026-08-21T08:00:10.898Z</time>
      </trkpt>
      <trkpt lat="45.04656" lon="2.47816">
        <ele>842.58</ele>
        <time>2026-08-21T08:00:11.908Z</time>
      </trkpt>
      <trkpt lat="45.04657" lon="2.47816">
        <ele>842.58</ele>
        <time>2026-08-21T08:00:12.904Z</time>
      </trkpt>
      <trkpt lat="45.0466" lon="2.47817">
        <ele>840.02</ele>
        <time>2026-08-21T08:00:13.525Z</time>
      </trkpt>
      <trkpt lat="45.04662" lon="2.47817">
        <ele>839.5</ele>
        <time>2026-08-21T08:00:13.985Z</time>
      </trkpt>
      <trkpt lat="45.04665" lon="2.47817">
        <ele>838.96</ele>
        <time>2026-08-21T08:00:15.916Z</time>
      </trkpt>
      <trkpt lat="45.04667" lon="2.47817">
        <ele>838.46</ele>
        <time>2026-08-21T08:00:16.914Z</time>
      </trkpt>
      <trkpt lat="45.04669" lon="2.47817">
        <ele>837.93</ele>
        <time>2026-08-21T08:00:17.917Z</time>
      </trkpt>
      <trkpt lat="45.04671" lon="2.47816">
        <ele>837.34</ele>
        <time>2026-08-21T08:00:18.921Z</time>
      </trkpt>
      <trkpt lat="45.04673" lon="2.47816">
        <ele>836.79</ele>
        <time>2026-08-21T08:00:19.923Z</time>
      </trkpt>
      <trkpt lat="45.04675" lon="2.47816">
        <ele>836.28</ele>
        <time>2026-08-21T08:00:20.925Z</time>
      </trkpt>
      <trkpt lat="45.04677" lon="2.47816">
        <ele>835.74</ele>
        <time>2026-08-21T08:00:21.929Z</time>
      </trkpt>
      <trkpt lat="45.0468" lon="2.47816">
        <ele>835.17</ele>
        <time>2026-08-21T08:00:22.585Z</time>
      </trkpt>
      <trkpt lat="45.04682" lon="2.47815">
        <ele>834.67</ele>
        <time>2026-08-21T08:00:23.936Z</time>
      </trkpt>
      <trkpt lat="45.04684" lon="2.47816">
        <ele>834.18</ele>
        <time>2026-08-21T08:00:24.920Z</time>
      </trkpt>
      <trkpt lat="45.04687" lon="2.47816">
        <ele>833.2</ele>
        <time>2026-08-21T08:00:26.911Z</time>
      </trkpt>
      <trkpt lat="45.04688" lon="2.47817">
        <ele>832.73</ele>
        <time>2026-08-21T08:00:27.944Z</time>
      </trkpt>
      <trkpt lat="45.04689" lon="2.47817">
        <ele>832.73</ele>
        <time>2026-08-21T08:00:28.948Z</time>
      </trkpt>
      <trkpt lat="45.0469" lon="2.47818">
        <ele>832.73</ele>
        <time>2026-08-21T08:00:29.948Z</time>
      </trkpt>
      <trkpt lat="45.04693" lon="2.47819">
        <ele>832.73</ele>
        <time>2026-08-21T08:00:30.952Z</time>
      </trkpt>
      <trkpt lat="45.04696" lon="2.4782">
        <ele>830.64</ele>
        <time>2026-08-21T08:00:31.954Z</time>
      </trkpt>
      <trkpt lat="45.04699" lon="2.47822">
        <ele>830.15</ele>
        <time>2026-08-21T08:00:32.956Z</time>
      </trkpt>
      <trkpt lat="45.04701" lon="2.47824">
        <ele>829.63</ele>
        <time>2026-08-21T08:00:33.958Z</time>
      </trkpt>
      <trkpt lat="45.04704" lon="2.47825">
        <ele>829.21</ele>
        <time>2026-08-21T08:00:34.583Z</time>
      </trkpt>
      <trkpt lat="45.04707" lon="2.47827">
        <ele>828.88</ele>
        <time>2026-08-21T08:00:35.962Z</time>
      </trkpt>
      <trkpt lat="45.0471" lon="2.47829">
        <ele>828.28</ele>
        <time>2026-08-21T08:00:36.964Z</time>
      </trkpt>
      <trkpt lat="45.04713" lon="2.47831">
        <ele>827.72</ele>
        <time>2026-08-21T08:00:37.968Z</time>
      </trkpt>
      <trkpt lat="45.04715" lon="2.47832">
        <ele>827.2</ele>
        <time>2026-08-21T08:00:38.594Z</time>
      </trkpt>
      <trkpt lat="45.04718" lon="2.47834">
        <ele>826.68</ele>
        <time>2026-08-21T08:00:39.872Z</time>
      </trkpt>
      <trkpt lat="45.04722" lon="2.47834">
        <ele>826.16</ele>
        <time>2026-08-21T08:00:40.874Z</time>
      </trkpt>
      <trkpt lat="45.04725" lon="2.47834">
        <ele>825.78</ele>
        <time>2026-08-21T08:00:41.876Z</time>
      </trkpt>
      <trkpt lat="45.04728" lon="2.47835">
        <ele>825.22</ele>
        <time>2026-08-21T08:00:42.878Z</time>
      </trkpt>
      <trkpt lat="45.04732" lon="2.47834">
        <ele>824.66</ele>
        <time>2026-08-21T08:00:43.882Z</time>
      </trkpt>
      <trkpt lat="45.04736" lon="2.47834">
        <ele>824.06</ele>
        <time>2026-08-21T08:00:44.884Z</time>
      </trkpt>
      <trkpt lat="45.04741" lon="2.47833">
        <ele>823.51</ele>
        <time>2026-08-21T08:00:45.887Z</time>
      </trkpt>
      <trkpt lat="45.04747" lon="2.47832">
        <ele>822.83</ele>
        <time>2026-08-21T08:00:46.889Z</time>
      </trkpt>
      <trkpt lat="45.04751" lon="2.47832">
        <ele>822.16</ele>
        <time>2026-08-21T08:00:47.889Z</time>
      </trkpt>
      <trkpt lat="45.04754" lon="2.47832">
        <ele>821.36</ele>
        <time>2026-08-21T08:00:48.892Z</time>
      </trkpt>
      <trkpt lat="45.04758" lon="2.47832">
        <ele>820.69</ele>
        <time>2026-08-21T08:00:49.894Z</time>
      </trkpt>
      <trkpt lat="45.04761" lon="2.47833">
        <ele>819.98</ele>
        <time>2026-08-21T08:00:50.896Z</time>
      </trkpt>
      <trkpt lat="45.04763" lon="2.47833">
        <ele>819.13</ele>
        <time>2026-08-21T08:00:51.898Z</time>
      </trkpt>
      <trkpt lat="45.04767" lon="2.47835">
        <ele>818.37</ele>
        <time>2026-08-21T08:00:52.900Z</time>
      </trkpt>
      <trkpt lat="45.0477" lon="2.47836">
        <ele>817.65</ele>
        <time>2026-08-21T08:00:53.903Z</time>
      </trkpt>
      <trkpt lat="45.04773" lon="2.47838">
        <ele>817</ele>
        <time>2026-08-21T08:00:54.904Z</time>
      </trkpt>
      <trkpt lat="45.04775" lon="2.47839">
        <ele>816.2</ele>
        <time>2026-08-21T08:00:55.906Z</time>
      </trkpt>
      <trkpt lat="45.04779" lon="2.47841">
        <ele>816.2</ele>
        <time>2026-08-21T08:00:56.906Z</time>
      </trkpt>
      <trkpt lat="45.04786" lon="2.47844">
        <ele>814.56</ele>
        <time>2026-08-21T08:00:57.908Z</time>
      </trkpt>
      <trkpt lat="45.04791" lon="2.47847">
        <ele>813.71</ele>
        <time>2026-08-21T08:00:58.910Z</time>
      </trkpt>
      <trkpt lat="45.04799" lon="2.47853">
        <ele>812.55</ele>
        <time>2026-08-21T08:00:59.912Z</time>
      </trkpt>
      <trkpt lat="45.04806" lon="2.47859">
        <ele>811.52</ele>
        <time>2026-08-21T08:01:00.915Z</time>
      </trkpt>
      <trkpt lat="45.04809" lon="2.47863">
        <ele>810.51</ele>
        <time>2026-08-21T08:01:01.761Z</time>
      </trkpt>
      <trkpt lat="45.04812" lon="2.47867">
        <ele>809.49</ele>
        <time>2026-08-21T08:01:02.779Z</time>
      </trkpt>
      <trkpt lat="45.04815" lon="2.47871">
        <ele>808.5</ele>
        <time>2026-08-21T08:01:03.976Z</time>
      </trkpt>
      <trkpt lat="45.04818" lon="2.47875">
        <ele>807.44</ele>
        <time>2026-08-21T08:01:04.922Z</time>
      </trkpt>
      <trkpt lat="45.04822" lon="2.47879">
        <ele>806.1</ele>
        <time>2026-08-21T08:01:05.780Z</time>
      </trkpt>
      <trkpt lat="45.04828" lon="2.47888">
        <ele>805.44</ele>
        <time>2026-08-21T08:01:06.977Z</time>
      </trkpt>
      <trkpt lat="45.04833" lon="2.47896">
        <ele>804.4</ele>
        <time>2026-08-21T08:01:07.926Z</time>
      </trkpt>
      <trkpt lat="45.04836" lon="2.479">
        <ele>803.19</ele>
        <time>2026-08-21T08:01:08.782Z</time>
      </trkpt>
      <trkpt lat="45.04838" lon="2.47905">
        <ele>802.07</ele>
        <time>2026-08-21T08:01:09.974Z</time>
      </trkpt>
      <trkpt lat="45.04845" lon="2.47921">
        <ele>801.03</ele>
        <time>2026-08-21T08:01:10.520Z</time>
      </trkpt>
      <trkpt lat="45.04846" lon="2.47927">
        <ele>799.88</ele>
        <time>2026-08-21T08:01:11.933Z</time>
      </trkpt>
      <trkpt lat="45.04847" lon="2.47932">
        <ele>798.86</ele>
        <time>2026-08-21T08:01:12.975Z</time>
      </trkpt>
      <trkpt lat="45.04848" lon="2.47939">
        <ele>796.07</ele>
        <time>2026-08-21T08:01:15.942Z</time>
      </trkpt>
      <trkpt lat="45.04848" lon="2.4794">
        <ele>795.21</ele>
        <time>2026-08-21T08:01:16.651Z</time>
      </trkpt>
      <trkpt lat="45.04848" lon="2.47942">
        <ele>795.21</ele>
        <time>2026-08-21T08:01:17.946Z</time>
      </trkpt>
      <trkpt lat="45.04848" lon="2.47945">
        <ele>795.21</ele>
        <time>2026-08-21T08:01:18.950Z</time>
      </trkpt>
      <trkpt lat="45.04847" lon="2.47948">
        <ele>795.21</ele>
        <time>2026-08-21T08:01:19.952Z</time>
      </trkpt>
      <trkpt lat="45.04847" lon="2.47953">
        <ele>795.21</ele>
        <time>2026-08-21T08:01:20.954Z</time>
      </trkpt>
      <trkpt lat="45.04847" lon="2.47957">
        <ele>795.21</ele>
        <time>2026-08-21T08:01:21.957Z</time>
      </trkpt>
      <trkpt lat="45.04847" lon="2.47961">
        <ele>795.21</ele>
        <time>2026-08-21T08:01:22.958Z</time>
      </trkpt>
      <trkpt lat="45.04848" lon="2.47964">
        <ele>795.21</ele>
        <time>2026-08-21T08:01:23.960Z</time>
      </trkpt>
      <trkpt lat="45.04849" lon="2.47969">
        <ele>795.21</ele>
        <time>2026-08-21T08:01:24.963Z</time>
      </trkpt>
      <trkpt lat="45.0485" lon="2.47973">
        <ele>787.17</ele>
        <time>2026-08-21T08:01:25.964Z</time>
      </trkpt>
      <trkpt lat="45.04851" lon="2.47978">
        <ele>786.49</ele>
        <time>2026-08-21T08:01:26.778Z</time>
      </trkpt>
      <trkpt lat="45.04852" lon="2.47981">
        <ele>785.71</ele>
        <time>2026-08-21T08:01:27.919Z</time>
      </trkpt>
      <trkpt lat="45.04852" lon="2.47985">
        <ele>784.97</ele>
        <time>2026-08-21T08:01:28.542Z</time>
      </trkpt>
      <trkpt lat="45.04853" lon="2.47989">
        <ele>784.14</ele>
        <time>2026-08-21T08:01:29.606Z</time>
      </trkpt>
      <trkpt lat="45.04854" lon="2.47994">
        <ele>783.44</ele>
        <time>2026-08-21T08:01:30.971Z</time>
      </trkpt>
      <trkpt lat="45.04854" lon="2.47999">
        <ele>782.77</ele>
        <time>2026-08-21T08:01:31.973Z</time>
      </trkpt>
      <trkpt lat="45.04854" lon="2.48007">
        <ele>782.04</ele>
        <time>2026-08-21T08:01:32.607Z</time>
      </trkpt>
      <trkpt lat="45.04854" lon="2.48011">
        <ele>781.37</ele>
        <time>2026-08-21T08:01:33.978Z</time>
      </trkpt>
      <trkpt lat="45.04854" lon="2.48021">
        <ele>780.68</ele>
        <time>2026-08-21T08:01:34.978Z</time>
      </trkpt>
      <trkpt lat="45.04855" lon="2.48035">
        <ele>780.27</ele>
        <time>2026-08-21T08:01:35.606Z</time>
      </trkpt>
      <trkpt lat="45.04855" lon="2.48041">
        <ele>779.61</ele>
        <time>2026-08-21T08:01:36.981Z</time>
      </trkpt>
      <trkpt lat="45.04855" lon="2.4805">
        <ele>779.15</ele>
        <time>2026-08-21T08:01:37.983Z</time>
      </trkpt>
      <trkpt lat="45.04855" lon="2.48058">
        <ele>778.54</ele>
        <time>2026-08-21T08:01:38.985Z</time>
      </trkpt>
      <trkpt lat="45.04854" lon="2.48064">
        <ele>777.93</ele>
        <time>2026-08-21T08:01:39.621Z</time>
      </trkpt>
      <trkpt lat="45.04854" lon="2.48068">
        <ele>776.99</ele>
        <time>2026-08-21T08:01:40.990Z</time>
      </trkpt>
      <trkpt lat="45.04854" lon="2.48073">
        <ele>776.39</ele>
        <time>2026-08-21T08:01:41.990Z</time>
      </trkpt>
      <trkpt lat="45.04854" lon="2.48078">
        <ele>775.77</ele>
        <time>2026-08-21T08:01:42.993Z</time>
      </trkpt>
      <trkpt lat="45.04855" lon="2.48083">
        <ele>775.24</ele>
        <time>2026-08-21T08:01:43.086Z</time>
      </trkpt>
      <trkpt lat="45.04855" lon="2.48089">
        <ele>774.55</ele>
        <time>2026-08-21T08:01:44.077Z</time>
      </trkpt>
      <trkpt lat="45.04855" lon="2.48094">
        <ele>773.82</ele>
        <time>2026-08-21T08:01:45.998Z</time>
      </trkpt>
      <trkpt lat="45.04855" lon="2.48099">
        <ele>773.04</ele>
        <time>2026-08-21T08:01:46.091Z</time>
      </trkpt>
      <trkpt lat="45.04855" lon="2.48106">
        <ele>772.31</ele>
        <time>2026-08-21T08:01:47.081Z</time>
      </trkpt>
      <trkpt lat="45.04855" lon="2.48113">
        <ele>771.75</ele>
        <time>2026-08-21T08:01:48.093Z</time>
      </trkpt>
      <trkpt lat="45.04855" lon="2.4812">
        <ele>771</ele>
        <time>2026-08-21T08:01:49.079Z</time>
      </trkpt>
      <trkpt lat="45.04856" lon="2.48129">
        <ele>770.16</ele>
        <time>2026-08-21T08:01:50.103Z</time>
      </trkpt>
      <trkpt lat="45.04857" lon="2.48136">
        <ele>769.46</ele>
        <time>2026-08-21T08:01:51.092Z</time>
      </trkpt>
      <trkpt lat="45.04858" lon="2.48143">
        <ele>768.8</ele>
        <time>2026-08-21T08:01:52.084Z</time>
      </trkpt>
      <trkpt lat="45.04859" lon="2.48152">
        <ele>768.27</ele>
        <time>2026-08-21T08:01:53.720Z</time>
      </trkpt>
      <trkpt lat="45.04862" lon="2.48161">
        <ele>767.39</ele>
        <time>2026-08-21T08:01:54.087Z</time>
      </trkpt>
      <trkpt lat="45.04863" lon="2.48169">
        <ele>767.07</ele>
        <time>2026-08-21T08:01:55.080Z</time>
      </trkpt>
      <trkpt lat="45.04865" lon="2.48178">
        <ele>766.46</ele>
        <time>2026-08-21T08:01:56.093Z</time>
      </trkpt>
      <trkpt lat="45.04866" lon="2.48186">
        <ele>765.63</ele>
        <time>2026-08-21T08:01:57.768Z</time>
      </trkpt>
      <trkpt lat="45.04868" lon="2.48193">
        <ele>764.77</ele>
        <time>2026-08-21T08:01:58.757Z</time>
      </trkpt>
      <trkpt lat="45.0487" lon="2.48199">
        <ele>763.91</ele>
        <time>2026-08-21T08:01:59.096Z</time>
      </trkpt>
      <trkpt lat="45.04871" lon="2.482">
        <ele>763.1</ele>
        <time>2026-08-21T08:02:00.091Z</time>
      </trkpt>
      <trkpt lat="45.04872" lon="2.482">
        <ele>763.1</ele>
        <time>2026-08-21T08:02:01.095Z</time>
      </trkpt>
      <trkpt lat="45.04873" lon="2.48199">
        <ele>763.1</ele>
        <time>2026-08-21T08:02:02.117Z</time>
      </trkpt>
      <trkpt lat="45.04874" lon="2.48196">
        <ele>763.1</ele>
        <time>2026-08-21T08:02:09.247Z</time>
      </trkpt>
      <trkpt lat="45.04876" lon="2.48194">
        <ele>763.1</ele>
        <time>2026-08-21T08:02:10.250Z</time>
      </trkpt>
      <trkpt lat="45.04877" lon="2.48193">
        <ele>763.1</ele>
        <time>2026-08-21T08:02:11.252Z</time>
      </trkpt>
      <trkpt lat="45.04879" lon="2.48192">
        <ele>763.1</ele>
        <time>2026-08-21T08:02:12.255Z</time>
      </trkpt>
      <trkpt lat="45.04881" lon="2.48189">
        <ele>763.1</ele>
        <time>2026-08-21T08:02:13.258Z</time>
      </trkpt>
      <trkpt lat="45.04884" lon="2.48186">
        <ele>763.1</ele>
        <time>2026-08-21T08:02:14.260Z</time>
      </trkpt>
      <trkpt lat="45.04889" lon="2.48183">
        <ele>763.1</ele>
        <time>2026-08-21T08:02:15.263Z</time>
      </trkpt>
      <trkpt lat="45.04897" lon="2.48178">
        <ele>763.1</ele>
        <time>2026-08-21T08:02:16.265Z</time>
      </trkpt>
      <trkpt lat="45.04904" lon="2.48175">
        <ele>751.99</ele>
        <time>2026-08-21T08:02:17.267Z</time>
      </trkpt>
      <trkpt lat="45.04912" lon="2.48172">
        <ele>751.14</ele>
        <time>2026-08-21T08:02:18.254Z</time>
      </trkpt>
      <trkpt lat="45.04919" lon="2.48169">
        <ele>750.16</ele>
        <time>2026-08-21T08:02:19.261Z</time>
      </trkpt>
      <trkpt lat="45.04925" lon="2.48168">
        <ele>749.5</ele>
        <time>2026-08-21T08:02:20.264Z</time>
      </trkpt>
      <trkpt lat="45.04931" lon="2.48166">
        <ele>748.62</ele>
        <time>2026-08-21T08:02:21.165Z</time>
      </trkpt>
      <trkpt lat="45.04937" lon="2.48165">
        <ele>747.61</ele>
        <time>2026-08-21T08:02:22.268Z</time>
      </trkpt>
      <trkpt lat="45.04943" lon="2.48163">
        <ele>746.61</ele>
        <time>2026-08-21T08:02:23.269Z</time>
      </trkpt>
      <trkpt lat="45.04949" lon="2.48162">
        <ele>745.36</ele>
        <time>2026-08-21T08:02:24.273Z</time>
      </trkpt>
      <trkpt lat="45.04954" lon="2.4816">
        <ele>744.39</ele>
        <time>2026-08-21T08:02:25.274Z</time>
      </trkpt>
      <trkpt lat="45.0496" lon="2.48158">
        <ele>742.82</ele>
        <time>2026-08-21T08:02:26.276Z</time>
      </trkpt>
      <trkpt lat="45.04965" lon="2.48155">
        <ele>741.96</ele>
        <time>2026-08-21T08:02:27.278Z</time>
      </trkpt>
      <trkpt lat="45.04973" lon="2.48154">
        <ele>740.15</ele>
        <time>2026-08-21T08:02:29.284Z</time>
      </trkpt>
      <trkpt lat="45.04974" lon="2.48155">
        <ele>737.83</ele>
        <time>2026-08-21T08:02:54.094Z</time>
      </trkpt>
      <trkpt lat="45.04977" lon="2.48156">
        <ele>737.83</ele>
        <time>2026-08-21T08:03:06.950Z</time>
      </trkpt>
      <trkpt lat="45.04977" lon="2.48157">
        <ele>737.83</ele>
        <time>2026-08-21T08:03:08.958Z</time>
      </trkpt>
      <trkpt lat="45.04978" lon="2.4816">
        <ele>737.83</ele>
        <time>2026-08-21T08:03:09.996Z</time>
      </trkpt>
      <trkpt lat="45.04979" lon="2.48161">
        <ele>737.83</ele>
        <time>2026-08-21T08:03:11.964Z</time>
      </trkpt>
      <trkpt lat="45.04979" lon="2.48163">
        <ele>737.83</ele>
        <time>2026-08-21T08:03:12.968Z</time>
      </trkpt>
      <trkpt lat="45.04979" lon="2.48165">
        <ele>737.83</ele>
        <time>2026-08-21T08:03:13.947Z</time>
      </trkpt>
      <trkpt lat="45.0498" lon="2.48167">
        <ele>737.83</ele>
        <time>2026-08-21T08:03:14.781Z</time>
      </trkpt>
      <trkpt lat="45.04981" lon="2.48171">
        <ele>737.83</ele>
        <time>2026-08-21T08:03:15.091Z</time>
      </trkpt>
      <trkpt lat="45.04982" lon="2.48173">
        <ele>737.83</ele>
        <time>2026-08-21T08:03:16.946Z</time>
      </trkpt>
      <trkpt lat="45.04984" lon="2.48177">
        <ele>737.83</ele>
        <time>2026-08-21T08:03:17.479Z</time>
      </trkpt>
      <trkpt lat="45.04985" lon="2.48181">
        <ele>737.83</ele>
        <time>2026-08-21T08:03:18.924Z</time>
      </trkpt>
      <trkpt lat="45.04985" lon="2.48183">
        <ele>737.83</ele>
        <time>2026-08-21T08:03:19.883Z</time>
      </trkpt>
      <trkpt lat="45.04985" lon="2.48185">
        <ele>728.57</ele>
        <time>2026-08-21T08:03:20.071Z</time>
      </trkpt>
      <trkpt lat="45.04987" lon="2.48188">
        <ele>728.47</ele>
        <time>2026-08-21T08:03:21.082Z</time>
      </trkpt>
      <trkpt lat="45.04988" lon="2.48191">
        <ele>728.4</ele>
        <time>2026-08-21T08:03:22.977Z</time>
      </trkpt>
      <trkpt lat="45.04989" lon="2.48195">
        <ele>728.33</ele>
        <time>2026-08-21T08:03:23.671Z</time>
      </trkpt>
      <trkpt lat="45.04991" lon="2.48199">
        <ele>728.24</ele>
        <time>2026-08-21T08:03:24.940Z</time>
      </trkpt>
      <trkpt lat="45.04993" lon="2.48202">
        <ele>728.17</ele>
        <time>2026-08-21T08:03:25.071Z</time>
      </trkpt>
      <trkpt lat="45.04994" lon="2.48206">
        <ele>728.13</ele>
        <time>2026-08-21T08:03:26.065Z</time>
      </trkpt>
      <trkpt lat="45.04997" lon="2.4821">
        <ele>728.08</ele>
        <time>2026-08-21T08:03:27.101Z</time>
      </trkpt>
      <trkpt lat="45.04999" lon="2.48214">
        <ele>728.02</ele>
        <time>2026-08-21T08:03:28.911Z</time>
      </trkpt>
      <trkpt lat="45.05" lon="2.48218">
        <ele>727.98</ele>
        <time>2026-08-21T08:03:29.913Z</time>
      </trkpt>
      <trkpt lat="45.05002" lon="2.48222">
        <ele>727.93</ele>
        <time>2026-08-21T08:03:30.916Z</time>
      </trkpt>
      <trkpt lat="45.05004" lon="2.48225">
        <ele>727.87</ele>
        <time>2026-08-21T08:03:31.919Z</time>
      </trkpt>
      <trkpt lat="45.05006" lon="2.4823">
        <ele>727.82</ele>
        <time>2026-08-21T08:03:32.922Z</time>
      </trkpt>
      <trkpt lat="45.05006" lon="2.48233">
        <ele>727.77</ele>
        <time>2026-08-21T08:03:33.924Z</time>
      </trkpt>
      <trkpt lat="45.05008" lon="2.48237">
        <ele>727.73</ele>
        <time>2026-08-21T08:03:34.928Z</time>
      </trkpt>
      <trkpt lat="45.05009" lon="2.4824">
        <ele>727.7</ele>
        <time>2026-08-21T08:03:35.933Z</time>
      </trkpt>
      <trkpt lat="45.0501" lon="2.48243">
        <ele>727.68</ele>
        <time>2026-08-21T08:03:36.934Z</time>
      </trkpt>
      <trkpt lat="45.05011" lon="2.48247">
        <ele>727.65</ele>
        <time>2026-08-21T08:03:37.020Z</time>
      </trkpt>
      <trkpt lat="45.05012" lon="2.4825">
        <ele>727.62</ele>
        <time>2026-08-21T08:03:38.941Z</time>
      </trkpt>
      <trkpt lat="45.05013" lon="2.48253">
        <ele>727.61</ele>
        <time>2026-08-21T08:03:39.942Z</time>
      </trkpt>
      <trkpt lat="45.05014" lon="2.48256">
        <ele>727.58</ele>
        <time>2026-08-21T08:03:40.946Z</time>
      </trkpt>
      <trkpt lat="45.05014" lon="2.4826">
        <ele>727.57</ele>
        <time>2026-08-21T08:03:41.947Z</time>
      </trkpt>
      <trkpt lat="45.05015" lon="2.48264">
        <ele>727.54</ele>
        <time>2026-08-21T08:03:42.950Z</time>
      </trkpt>
      <trkpt lat="45.05016" lon="2.48267">
        <ele>727.52</ele>
        <time>2026-08-21T08:03:43.640Z</time>
      </trkpt>
      <trkpt lat="45.05016" lon="2.4827">
        <ele>727.48</ele>
        <time>2026-08-21T08:03:44.956Z</time>
      </trkpt>
      <trkpt lat="45.05016" lon="2.48273">
        <ele>727.45</ele>
        <time>2026-08-21T08:03:45.959Z</time>
      </trkpt>
      <trkpt lat="45.05016" lon="2.48276">
        <ele>727.43</ele>
        <time>2026-08-21T08:03:46.962Z</time>
      </trkpt>
      <trkpt lat="45.05015" lon="2.48277">
        <ele>727.41</ele>
        <time>2026-08-21T08:03:47.965Z</time>
      </trkpt>
      <trkpt lat="45.05014" lon="2.4828">
        <ele>727.37</ele>
        <time>2026-08-21T08:03:49.970Z</time>
      </trkpt>
      <trkpt lat="45.05013" lon="2.48283">
        <ele>727.19</ele>
        <time>2026-08-21T08:04:15.022Z</time>
      </trkpt>
      <trkpt lat="45.05012" lon="2.48286">
        <ele>727.17</ele>
        <time>2026-08-21T08:04:17.935Z</time>
      </trkpt>
      <trkpt lat="45.05011" lon="2.48287">
        <ele>727.16</ele>
        <time>2026-08-21T08:04:18.561Z</time>
      </trkpt>
      <trkpt lat="45.0501" lon="2.48289">
        <ele>727.14</ele>
        <time>2026-08-21T08:04:19.940Z</time>
      </trkpt>
      <trkpt lat="45.0501" lon="2.48291">
        <ele>727.15</ele>
        <time>2026-08-21T08:04:20.779Z</time>
      </trkpt>
      <trkpt lat="45.05008" lon="2.48293">
        <ele>727.13</ele>
        <time>2026-08-21T08:04:21.685Z</time>
      </trkpt>
      <trkpt lat="45.05007" lon="2.48295">
        <ele>727.12</ele>
        <time>2026-08-21T08:04:22.943Z</time>
      </trkpt>
      <trkpt lat="45.05005" lon="2.48299">
        <ele>727.11</ele>
        <time>2026-08-21T08:04:23.847Z</time>
      </trkpt>
      <trkpt lat="45.05003" lon="2.48302">
        <ele>727.08</ele>
        <time>2026-08-21T08:04:23.944Z</time>
      </trkpt>
      <trkpt lat="45.05002" lon="2.48306">
        <ele>727.06</ele>
        <time>2026-08-21T08:04:25.852Z</time>
      </trkpt>
      <trkpt lat="45.05001" lon="2.4831">
        <ele>727.05</ele>
        <time>2026-08-21T08:04:26.852Z</time>
      </trkpt>
      <trkpt lat="45.05" lon="2.48313">
        <ele>727.03</ele>
        <time>2026-08-21T08:04:27.855Z</time>
      </trkpt>
      <trkpt lat="45.04999" lon="2.48316">
        <ele>727.02</ele>
        <time>2026-08-21T08:04:28.857Z</time>
      </trkpt>
      <trkpt lat="45.04998" lon="2.48319">
        <ele>727.01</ele>
        <time>2026-08-21T08:04:29.959Z</time>
      </trkpt>
      <trkpt lat="45.04997" lon="2.48321">
        <ele>726.99</ele>
        <time>2026-08-21T08:04:30.674Z</time>
      </trkpt>
      <trkpt lat="45.04996" lon="2.48325">
        <ele>726.96</ele>
        <time>2026-08-21T08:04:32.967Z</time>
      </trkpt>
      <trkpt lat="45.04996" lon="2.48329">
        <ele>726.93</ele>
        <time>2026-08-21T08:04:34.970Z</time>
      </trkpt>
      <trkpt lat="45.04995" lon="2.48332">
        <ele>726.89</ele>
        <time>2026-08-21T08:04:36.069Z</time>
      </trkpt>
      <trkpt lat="45.04997" lon="2.48337">
        <ele>726.83</ele>
        <time>2026-08-21T08:05:09.093Z</time>
      </trkpt>
      <trkpt lat="45.04998" lon="2.48333">
        <ele>726.4</ele>
        <time>2026-08-21T08:05:54.801Z</time>
      </trkpt>
      <trkpt lat="45.04998" lon="2.4833">
        <ele>726.17</ele>
        <time>2026-08-21T08:05:59.101Z</time>
      </trkpt>
      <trkpt lat="45.04999" lon="2.48327">
        <ele>726.16</ele>
        <time>2026-08-21T08:06:03.938Z</time>
      </trkpt>
      <trkpt lat="45.04998" lon="2.48324">
        <ele>726.15</ele>
        <time>2026-08-21T08:06:24.980Z</time>
      </trkpt>
      <trkpt lat="45.04998" lon="2.48318">
        <ele>726.13</ele>
        <time>2026-08-21T08:06:50.793Z</time>
      </trkpt>
      <trkpt lat="45.04999" lon="2.48315">
        <ele>726.13</ele>
        <time>2026-08-21T08:06:52.643Z</time>
      </trkpt>
      <trkpt lat="45.05" lon="2.48313">
        <ele>726.12</ele>
        <time>2026-08-21T08:06:53.786Z</time>
      </trkpt>
      <trkpt lat="45.05001" lon="2.4831">
        <ele>726.11</ele>
        <time>2026-08-21T08:06:54.789Z</time>
      </trkpt>
      <trkpt lat="45.05002" lon="2.48308">
        <ele>726.11</ele>
        <time>2026-08-21T08:06:55.756Z</time>
      </trkpt>
      <trkpt lat="45.05003" lon="2.48305">
        <ele>726.11</ele>
        <time>2026-08-21T08:06:56.792Z</time>
      </trkpt>
      <trkpt lat="45.05004" lon="2.48303">
        <ele>726.09</ele>
        <time>2026-08-21T08:06:57.199Z</time>
      </trkpt>
      <trkpt lat="45.05005" lon="2.483">
        <ele>726.08</ele>
        <time>2026-08-21T08:06:58.763Z</time>
      </trkpt>
      <trkpt lat="45.05006" lon="2.48298">
        <ele>726.08</ele>
        <time>2026-08-21T08:06:59.360Z</time>
      </trkpt>
      <trkpt lat="45.05007" lon="2.48295">
        <ele>726.07</ele>
        <time>2026-08-21T08:07:00.702Z</time>
      </trkpt>
      <trkpt lat="45.05008" lon="2.48292">
        <ele>726.06</ele>
        <time>2026-08-21T08:07:01.705Z</time>
      </trkpt>
      <trkpt lat="45.05009" lon="2.48289">
        <ele>726.05</ele>
        <time>2026-08-21T08:07:02.710Z</time>
      </trkpt>
      <trkpt lat="45.0501" lon="2.48286">
        <ele>726</ele>
        <time>2026-08-21T08:07:03.712Z</time>
      </trkpt>
      <trkpt lat="45.05011" lon="2.48283">
        <ele>726</ele>
        <time>2026-08-21T08:07:04.713Z</time>
      </trkpt>
      <trkpt lat="45.05012" lon="2.4828">
        <ele>726.02</ele>
        <time>2026-08-21T08:07:05.715Z</time>
      </trkpt>
      <trkpt lat="45.05013" lon="2.48277">
        <ele>726.02</ele>
        <time>2026-08-21T08:07:06.717Z</time>
      </trkpt>
      <trkpt lat="45.05014" lon="2.48274">
        <ele>726.01</ele>
        <time>2026-08-21T08:07:07.720Z</time>
      </trkpt>
      <trkpt lat="45.05014" lon="2.48271">
        <ele>725.98</ele>
        <time>2026-08-21T08:07:08.721Z</time>
      </trkpt>
      <trkpt lat="45.05014" lon="2.48268">
        <ele>725.94</ele>
        <time>2026-08-21T08:07:09.722Z</time>
      </trkpt>
      <trkpt lat="45.05013" lon="2.48266">
        <ele>725.9</ele>
        <time>2026-08-21T08:07:09.819Z</time>
      </trkpt>
      <trkpt lat="45.05011" lon="2.48262">
        <ele>725.85</ele>
        <time>2026-08-21T08:07:12.725Z</time>
      </trkpt>
      <trkpt lat="45.05011" lon="2.48259">
        <ele>725.67</ele>
        <time>2026-08-21T08:07:18.434Z</time>
      </trkpt>
      <trkpt lat="45.05011" lon="2.48257">
        <ele>725.64</ele>
        <time>2026-08-21T08:07:19.280Z</time>
      </trkpt>
      <trkpt lat="45.05011" lon="2.48255">
        <ele>725.61</ele>
        <time>2026-08-21T08:07:19.528Z</time>
      </trkpt>
      <trkpt lat="45.05011" lon="2.48253">
        <ele>725.58</ele>
        <time>2026-08-21T08:07:21.439Z</time>
      </trkpt>
      <trkpt lat="45.05011" lon="2.4825">
        <ele>725.55</ele>
        <time>2026-08-21T08:07:21.533Z</time>
      </trkpt>
      <trkpt lat="45.0501" lon="2.48247">
        <ele>725.52</ele>
        <time>2026-08-21T08:07:22.530Z</time>
      </trkpt>
      <trkpt lat="45.05009" lon="2.48244">
        <ele>725.5</ele>
        <time>2026-08-21T08:07:24.439Z</time>
      </trkpt>
      <trkpt lat="45.05008" lon="2.48241">
        <ele>725.47</ele>
        <time>2026-08-21T08:07:25.440Z</time>
      </trkpt>
      <trkpt lat="45.05007" lon="2.48238">
        <ele>725.44</ele>
        <time>2026-08-21T08:07:25.515Z</time>
      </trkpt>
      <trkpt lat="45.05006" lon="2.48236">
        <ele>725.41</ele>
        <time>2026-08-21T08:07:27.443Z</time>
      </trkpt>
      <trkpt lat="45.05004" lon="2.48232">
        <ele>725.35</ele>
        <time>2026-08-21T08:07:27.520Z</time>
      </trkpt>
      <trkpt lat="45.05002" lon="2.48229">
        <ele>725.27</ele>
        <time>2026-08-21T08:07:28.519Z</time>
      </trkpt>
      <trkpt lat="45.05" lon="2.48225">
        <ele>725.22</ele>
        <time>2026-08-21T08:07:30.502Z</time>
      </trkpt>
      <trkpt lat="45.05" lon="2.4822">
        <ele>725.2</ele>
        <time>2026-08-21T08:07:30.527Z</time>
      </trkpt>
      <trkpt lat="45.04998" lon="2.48216">
        <ele>725.18</ele>
        <time>2026-08-21T08:07:32.485Z</time>
      </trkpt>
      <trkpt lat="45.04996" lon="2.48212">
        <ele>725.16</ele>
        <time>2026-08-21T08:07:33.451Z</time>
      </trkpt>
      <trkpt lat="45.04994" lon="2.48207">
        <ele>725.15</ele>
        <time>2026-08-21T08:07:34.453Z</time>
      </trkpt>
      <trkpt lat="45.04992" lon="2.48202">
        <ele>725.16</ele>
        <time>2026-08-21T08:07:34.524Z</time>
      </trkpt>
      <trkpt lat="45.04991" lon="2.48197">
        <ele>725.13</ele>
        <time>2026-08-21T08:07:36.455Z</time>
      </trkpt>
      <trkpt lat="45.04989" lon="2.48193">
        <ele>725.1</ele>
        <time>2026-08-21T08:07:37.457Z</time>
      </trkpt>
      <trkpt lat="45.04987" lon="2.48188">
        <ele>725.08</ele>
        <time>2026-08-21T08:07:37.533Z</time>
      </trkpt>
      <trkpt lat="45.04985" lon="2.48184">
        <ele>725.03</ele>
        <time>2026-08-21T08:07:39.501Z</time>
      </trkpt>
      <trkpt lat="45.04984" lon="2.48179">
        <ele>724.97</ele>
        <time>2026-08-21T08:07:40.461Z</time>
      </trkpt>
      <trkpt lat="45.04982" lon="2.48174">
        <ele>724.95</ele>
        <time>2026-08-21T08:07:41.500Z</time>
      </trkpt>
      <trkpt lat="45.0498" lon="2.48168">
        <ele>724.91</ele>
        <time>2026-08-21T08:07:42.463Z</time>
      </trkpt>
      <trkpt lat="45.04978" lon="2.48162">
        <ele>724.9</ele>
        <time>2026-08-21T08:07:43.465Z</time>
      </trkpt>
      <trkpt lat="45.04976" lon="2.48157">
        <ele>724.91</ele>
        <time>2026-08-21T08:07:44.466Z</time>
      </trkpt>
      <trkpt lat="45.04973" lon="2.48151">
        <ele>724.92</ele>
        <time>2026-08-21T08:07:45.501Z</time>
      </trkpt>
      <trkpt lat="45.04972" lon="2.48146">
        <ele>724.88</ele>
        <time>2026-08-21T08:07:46.467Z</time>
      </trkpt>
      <trkpt lat="45.0497" lon="2.4814">
        <ele>724.84</ele>
        <time>2026-08-21T08:07:47.537Z</time>
      </trkpt>
      <trkpt lat="45.04968" lon="2.48134">
        <ele>724.8</ele>
        <time>2026-08-21T08:07:48.472Z</time>
      </trkpt>
      <trkpt lat="45.04968" lon="2.48128">
        <ele>724.73</ele>
        <time>2026-08-21T08:07:49.475Z</time>
      </trkpt>
      <trkpt lat="45.04967" lon="2.48123">
        <ele>724.7</ele>
        <time>2026-08-21T08:07:50.474Z</time>
      </trkpt>
      <trkpt lat="45.04968" lon="2.48118">
        <ele>724.67</ele>
        <time>2026-08-21T08:07:51.473Z</time>
      </trkpt>
      <trkpt lat="45.0497" lon="2.48114">
        <ele>724.64</ele>
        <time>2026-08-21T08:07:52.475Z</time>
      </trkpt>
      <trkpt lat="45.04972" lon="2.48111">
        <ele>724.62</ele>
        <time>2026-08-21T08:07:53.474Z</time>
      </trkpt>
      <trkpt lat="45.04974" lon="2.48108">
        <ele>724.56</ele>
        <time>2026-08-21T08:07:54.501Z</time>
      </trkpt>
      <trkpt lat="45.04978" lon="2.48105">
        <ele>724.5</ele>
        <time>2026-08-21T08:07:55.476Z</time>
      </trkpt>
      <trkpt lat="45.04982" lon="2.48103">
        <ele>724.45</ele>
        <time>2026-08-21T08:07:56.477Z</time>
      </trkpt>
      <trkpt lat="45.04986" lon="2.48102">
        <ele>724.41</ele>
        <time>2026-08-21T08:07:57.506Z</time>
      </trkpt>
      <trkpt lat="45.04991" lon="2.48101">
        <ele>724.42</ele>
        <time>2026-08-21T08:07:58.479Z</time>
      </trkpt>
      <trkpt lat="45.04995" lon="2.48101">
        <ele>724.41</ele>
        <time>2026-08-21T08:07:59.417Z</time>
      </trkpt>
      <trkpt lat="45.04998" lon="2.48102">
        <ele>724.39</ele>
        <time>2026-08-21T08:08:00.480Z</time>
      </trkpt>
      <trkpt lat="45.05002" lon="2.48103">
        <ele>724.35</ele>
        <time>2026-08-21T08:08:01.481Z</time>
      </trkpt>
      <trkpt lat="45.05006" lon="2.48104">
        <ele>724.34</ele>
        <time>2026-08-21T08:08:02.481Z</time>
      </trkpt>
      <trkpt lat="45.0501" lon="2.48105">
        <ele>724.34</ele>
        <time>2026-08-21T08:08:03.541Z</time>
      </trkpt>
      <trkpt lat="45.05013" lon="2.48106">
        <ele>724.33</ele>
        <time>2026-08-21T08:08:04.482Z</time>
      </trkpt>
      <trkpt lat="45.05017" lon="2.48107">
        <ele>724.34</ele>
        <time>2026-08-21T08:08:05.545Z</time>
      </trkpt>
      <trkpt lat="45.0502" lon="2.48108">
        <ele>724.35</ele>
        <time>2026-08-21T08:08:06.483Z</time>
      </trkpt>
      <trkpt lat="45.05024" lon="2.48109">
        <ele>724.25</ele>
        <time>2026-08-21T08:08:07.484Z</time>
      </trkpt>
      <trkpt lat="45.05027" lon="2.4811">
        <ele>724.25</ele>
        <time>2026-08-21T08:08:08.060Z</time>
      </trkpt>
      <trkpt lat="45.05031" lon="2.4811">
        <ele>724.22</ele>
        <time>2026-08-21T08:08:09.525Z</time>
      </trkpt>
      <trkpt lat="45.05035" lon="2.48109">
        <ele>724.22</ele>
        <time>2026-08-21T08:08:10.487Z</time>
      </trkpt>
      <trkpt lat="45.05039" lon="2.48108">
        <ele>724.22</ele>
        <time>2026-08-21T08:08:11.489Z</time>
      </trkpt>
      <trkpt lat="45.05042" lon="2.48106">
        <ele>724.22</ele>
        <time>2026-08-21T08:08:12.488Z</time>
      </trkpt>
      <trkpt lat="45.05045" lon="2.48104">
        <ele>724.26</ele>
        <time>2026-08-21T08:08:13.490Z</time>
      </trkpt>
      <trkpt lat="45.05048" lon="2.48102">
        <ele>724.27</ele>
        <time>2026-08-21T08:08:14.491Z</time>
      </trkpt>
      <trkpt lat="45.05051" lon="2.481">
        <ele>724.29</ele>
        <time>2026-08-21T08:08:15.491Z</time>
      </trkpt>
      <trkpt lat="45.05053" lon="2.48097">
        <ele>724.31</ele>
        <time>2026-08-21T08:08:16.491Z</time>
      </trkpt>
      <trkpt lat="45.05055" lon="2.48094">
        <ele>724.36</ele>
        <time>2026-08-21T08:08:17.493Z</time>
      </trkpt>
      <trkpt lat="45.05057" lon="2.4809">
        <ele>724.4</ele>
        <time>2026-08-21T08:08:18.494Z</time>
      </trkpt>
      <trkpt lat="45.05059" lon="2.48087">
        <ele>724.46</ele>
        <time>2026-08-21T08:08:19.494Z</time>
      </trkpt>
      <trkpt lat="45.05061" lon="2.48084">
        <ele>724.52</ele>
        <time>2026-08-21T08:08:20.485Z</time>
      </trkpt>
      <trkpt lat="45.05063" lon="2.48081">
        <ele>724.58</ele>
        <time>2026-08-21T08:08:21.485Z</time>
      </trkpt>
      <trkpt lat="45.05064" lon="2.48077">
        <ele>724.64</ele>
        <time>2026-08-21T08:08:22.486Z</time>
      </trkpt>
      <trkpt lat="45.05067" lon="2.48074">
        <ele>724.68</ele>
        <time>2026-08-21T08:08:23.488Z</time>
      </trkpt>
      <trkpt lat="45.05069" lon="2.48071">
        <ele>724.77</ele>
        <time>2026-08-21T08:08:24.488Z</time>
      </trkpt>
      <trkpt lat="45.05071" lon="2.48069">
        <ele>724.9</ele>
        <time>2026-08-21T08:08:25.488Z</time>
      </trkpt>
      <trkpt lat="45.05074" lon="2.48066">
        <ele>725.01</ele>
        <time>2026-08-21T08:08:26.421Z</time>
      </trkpt>
      <trkpt lat="45.05076" lon="2.48064">
        <ele>725.13</ele>
        <time>2026-08-21T08:08:27.491Z</time>
      </trkpt>
      <trkpt lat="45.05079" lon="2.48061">
        <ele>725.2</ele>
        <time>2026-08-21T08:08:28.489Z</time>
      </trkpt>
      <trkpt lat="45.05081" lon="2.48059">
        <ele>725.32</ele>
        <time>2026-08-21T08:08:29.490Z</time>
      </trkpt>
      <trkpt lat="45.05083" lon="2.48056">
        <ele>725.47</ele>
        <time>2026-08-21T08:08:30.490Z</time>
      </trkpt>
      <trkpt lat="45.05085" lon="2.48054">
        <ele>725.64</ele>
        <time>2026-08-21T08:08:31.491Z</time>
      </trkpt>
      <trkpt lat="45.05088" lon="2.48051">
        <ele>725.76</ele>
        <time>2026-08-21T08:08:32.493Z</time>
      </trkpt>
      <trkpt lat="45.0509" lon="2.48049">
        <ele>725.93</ele>
        <time>2026-08-21T08:08:33.493Z</time>
      </trkpt>
      <trkpt lat="45.05093" lon="2.48047">
        <ele>726.11</ele>
        <time>2026-08-21T08:08:34.493Z</time>
      </trkpt>
      <trkpt lat="45.05095" lon="2.48044">
        <ele>726.28</ele>
        <time>2026-08-21T08:08:35.493Z</time>
      </trkpt>
      <trkpt lat="45.05098" lon="2.48042">
        <ele>726.59</ele>
        <time>2026-08-21T08:08:36.495Z</time>
      </trkpt>
      <trkpt lat="45.051" lon="2.4804">
        <ele>726.79</ele>
        <time>2026-08-21T08:08:37.494Z</time>
      </trkpt>
      <trkpt lat="45.05103" lon="2.48037">
        <ele>727.01</ele>
        <time>2026-08-21T08:08:38.586Z</time>
      </trkpt>
      <trkpt lat="45.05105" lon="2.48036">
        <ele>727.2</ele>
        <time>2026-08-21T08:08:39.141Z</time>
      </trkpt>
      <trkpt lat="45.05108" lon="2.48034">
        <ele>727.35</ele>
        <time>2026-08-21T08:08:40.283Z</time>
      </trkpt>
      <trkpt lat="45.05111" lon="2.48032">
        <ele>727.54</ele>
        <time>2026-08-21T08:08:41.562Z</time>
      </trkpt>
      <trkpt lat="45.05113" lon="2.48031">
        <ele>727.71</ele>
        <time>2026-08-21T08:08:42.589Z</time>
      </trkpt>
      <trkpt lat="45.05116" lon="2.48029">
        <ele>727.88</ele>
        <time>2026-08-21T08:08:43.591Z</time>
      </trkpt>
      <trkpt lat="45.0512" lon="2.48028">
        <ele>728.05</ele>
        <time>2026-08-21T08:08:44.298Z</time>
      </trkpt>
      <trkpt lat="45.05123" lon="2.48028">
        <ele>728.2</ele>
        <time>2026-08-21T08:08:45.378Z</time>
      </trkpt>
      <trkpt lat="45.05126" lon="2.48027">
        <ele>728.33</ele>
        <time>2026-08-21T08:08:46.472Z</time>
      </trkpt>
      <trkpt lat="45.0513" lon="2.48027">
        <ele>728.46</ele>
        <time>2026-08-21T08:08:47.568Z</time>
      </trkpt>
      <trkpt lat="45.05133" lon="2.48026">
        <ele>728.58</ele>
        <time>2026-08-21T08:08:48.532Z</time>
      </trkpt>
      <trkpt lat="45.05137" lon="2.48026">
        <ele>728.64</ele>
        <time>2026-08-21T08:08:49.545Z</time>
      </trkpt>
      <trkpt lat="45.05139" lon="2.48026">
        <ele>728.77</ele>
        <time>2026-08-21T08:08:50.495Z</time>
      </trkpt>
      <trkpt lat="45.05142" lon="2.48027">
        <ele>728.88</ele>
        <time>2026-08-21T08:08:51.267Z</time>
      </trkpt>
      <trkpt lat="45.05145" lon="2.48027">
        <ele>729.01</ele>
        <time>2026-08-21T08:08:52.588Z</time>
      </trkpt>
      <trkpt lat="45.05148" lon="2.48027">
        <ele>729.15</ele>
        <time>2026-08-21T08:08:53.589Z</time>
      </trkpt>
      <trkpt lat="45.05151" lon="2.48027">
        <ele>729.25</ele>
        <time>2026-08-21T08:08:54.591Z</time>
      </trkpt>
      <trkpt lat="45.05154" lon="2.48027">
        <ele>729.32</ele>
        <time>2026-08-21T08:08:55.455Z</time>
      </trkpt>
      <trkpt lat="45.05158" lon="2.48027">
        <ele>729.45</ele>
        <time>2026-08-21T08:08:56.592Z</time>
      </trkpt>
      <trkpt lat="45.05161" lon="2.48028">
        <ele>729.56</ele>
        <time>2026-08-21T08:08:57.593Z</time>
      </trkpt>
      <trkpt lat="45.05163" lon="2.48027">
        <ele>729.66</ele>
        <time>2026-08-21T08:08:58.594Z</time>
      </trkpt>
      <trkpt lat="45.05166" lon="2.48028">
        <ele>729.8</ele>
        <time>2026-08-21T08:08:59.595Z</time>
      </trkpt>
      <trkpt lat="45.05168" lon="2.48027">
        <ele>729.96</ele>
        <time>2026-08-21T08:09:00.596Z</time>
      </trkpt>
      <trkpt lat="45.05172" lon="2.48027">
        <ele>730.08</ele>
        <time>2026-08-21T08:09:01.597Z</time>
      </trkpt>
      <trkpt lat="45.05174" lon="2.48026">
        <ele>730.18</ele>
        <time>2026-08-21T08:09:02.299Z</time>
      </trkpt>
      <trkpt lat="45.05177" lon="2.48025">
        <ele>730.28</ele>
        <time>2026-08-21T08:09:03.599Z</time>
      </trkpt>
      <trkpt lat="45.0518" lon="2.48024">
        <ele>730.41</ele>
        <time>2026-08-21T08:09:04.516Z</time>
      </trkpt>
      <trkpt lat="45.05183" lon="2.48023">
        <ele>730.53</ele>
        <time>2026-08-21T08:09:05.593Z</time>
      </trkpt>
      <trkpt lat="45.05185" lon="2.48021">
        <ele>730.66</ele>
        <time>2026-08-21T08:09:06.593Z</time>
      </trkpt>
      <trkpt lat="45.05188" lon="2.48019">
        <ele>730.78</ele>
        <time>2026-08-21T08:09:07.593Z</time>
      </trkpt>
      <trkpt lat="45.05191" lon="2.48017">
        <ele>730.91</ele>
        <time>2026-08-21T08:09:08.595Z</time>
      </trkpt>
      <trkpt lat="45.05193" lon="2.48014">
        <ele>731.02</ele>
        <time>2026-08-21T08:09:09.595Z</time>
      </trkpt>
      <trkpt lat="45.05195" lon="2.48012">
        <ele>731.15</ele>
        <time>2026-08-21T08:09:10.583Z</time>
      </trkpt>
      <trkpt lat="45.05197" lon="2.4801">
        <ele>731.3</ele>
        <time>2026-08-21T08:09:11.596Z</time>
      </trkpt>
      <trkpt lat="45.05198" lon="2.48007">
        <ele>731.4</ele>
        <time>2026-08-21T08:09:12.596Z</time>
      </trkpt>
      <trkpt lat="45.052" lon="2.48004">
        <ele>731.53</ele>
        <time>2026-08-21T08:09:13.522Z</time>
      </trkpt>
      <trkpt lat="45.05202" lon="2.48001">
        <ele>731.69</ele>
        <time>2026-08-21T08:09:14.597Z</time>
      </trkpt>
      <trkpt lat="45.05204" lon="2.47998">
        <ele>731.85</ele>
        <time>2026-08-21T08:09:15.598Z</time>
      </trkpt>
      <trkpt lat="45.05206" lon="2.47994">
        <ele>731.99</ele>
        <time>2026-08-21T08:09:16.598Z</time>
      </trkpt>
      <trkpt lat="45.05207" lon="2.47991">
        <ele>732.16</ele>
        <time>2026-08-21T08:09:17.598Z</time>
      </trkpt>
      <trkpt lat="45.05209" lon="2.47989">
        <ele>732.37</ele>
        <time>2026-08-21T08:09:18.337Z</time>
      </trkpt>
      <trkpt lat="45.05211" lon="2.47987">
        <ele>732.55</ele>
        <time>2026-08-21T08:09:19.600Z</time>
      </trkpt>
      <trkpt lat="45.05214" lon="2.47986">
        <ele>732.72</ele>
        <time>2026-08-21T08:09:20.600Z</time>
      </trkpt>
      <trkpt lat="45.05216" lon="2.47986">
        <ele>732.9</ele>
        <time>2026-08-21T08:09:21.601Z</time>
      </trkpt>
      <trkpt lat="45.05218" lon="2.47988">
        <ele>733.1</ele>
        <time>2026-08-21T08:09:22.535Z</time>
      </trkpt>
      <trkpt lat="45.0522" lon="2.47991">
        <ele>733.28</ele>
        <time>2026-08-21T08:09:23.602Z</time>
      </trkpt>
      <trkpt lat="45.0522" lon="2.47994">
        <ele>733.48</ele>
        <time>2026-08-21T08:09:24.603Z</time>
      </trkpt>
      <trkpt lat="45.05222" lon="2.47997">
        <ele>733.67</ele>
        <time>2026-08-21T08:09:25.402Z</time>
      </trkpt>
      <trkpt lat="45.05223" lon="2.48">
        <ele>733.85</ele>
        <time>2026-08-21T08:09:26.602Z</time>
      </trkpt>
      <trkpt lat="45.05224" lon="2.48002">
        <ele>734.03</ele>
        <time>2026-08-21T08:09:27.446Z</time>
      </trkpt>
      <trkpt lat="45.05225" lon="2.48005">
        <ele>734.21</ele>
        <time>2026-08-21T08:09:28.603Z</time>
      </trkpt>
      <trkpt lat="45.05227" lon="2.48008">
        <ele>734.39</ele>
        <time>2026-08-21T08:09:29.604Z</time>
      </trkpt>
      <trkpt lat="45.05228" lon="2.48011">
        <ele>734.61</ele>
        <time>2026-08-21T08:09:30.604Z</time>
      </trkpt>
      <trkpt lat="45.05229" lon="2.48013">
        <ele>734.78</ele>
        <time>2026-08-21T08:09:31.604Z</time>
      </trkpt>
      <trkpt lat="45.05231" lon="2.48016">
        <ele>734.96</ele>
        <time>2026-08-21T08:09:32.605Z</time>
      </trkpt>
      <trkpt lat="45.05232" lon="2.48019">
        <ele>735.15</ele>
        <time>2026-08-21T08:09:33.609Z</time>
      </trkpt>
      <trkpt lat="45.05233" lon="2.48022">
        <ele>735.35</ele>
        <time>2026-08-21T08:09:34.605Z</time>
      </trkpt>
      <trkpt lat="45.05235" lon="2.48025">
        <ele>735.53</ele>
        <time>2026-08-21T08:09:35.605Z</time>
      </trkpt>
      <trkpt lat="45.05236" lon="2.48028">
        <ele>735.71</ele>
        <time>2026-08-21T08:09:36.439Z</time>
      </trkpt>
      <trkpt lat="45.05237" lon="2.48031">
        <ele>735.91</ele>
        <time>2026-08-21T08:09:37.398Z</time>
      </trkpt>
      <trkpt lat="45.05238" lon="2.48034">
        <ele>736.11</ele>
        <time>2026-08-21T08:09:38.608Z</time>
      </trkpt>
      <trkpt lat="45.05239" lon="2.48036">
        <ele>736.3</ele>
        <time>2026-08-21T08:09:39.608Z</time>
      </trkpt>
      <trkpt lat="45.0524" lon="2.48039">
        <ele>736.5</ele>
        <time>2026-08-21T08:09:40.607Z</time>
      </trkpt>
      <trkpt lat="45.0524" lon="2.48043">
        <ele>736.69</ele>
        <time>2026-08-21T08:09:41.606Z</time>
      </trkpt>
      <trkpt lat="45.0524" lon="2.48046">
        <ele>736.88</ele>
        <time>2026-08-21T08:09:42.608Z</time>
      </trkpt>
      <trkpt lat="45.0524" lon="2.48049">
        <ele>737.07</ele>
        <time>2026-08-21T08:09:43.609Z</time>
      </trkpt>
      <trkpt lat="45.0524" lon="2.48052">
        <ele>737.28</ele>
        <time>2026-08-21T08:09:43.644Z</time>
      </trkpt>
      <trkpt lat="45.0524" lon="2.48055">
        <ele>737.48</ele>
        <time>2026-08-21T08:09:45.504Z</time>
      </trkpt>
      <trkpt lat="45.0524" lon="2.48058">
        <ele>737.71</ele>
        <time>2026-08-21T08:09:46.481Z</time>
      </trkpt>
      <trkpt lat="45.05239" lon="2.48062">
        <ele>737.93</ele>
        <time>2026-08-21T08:09:47.608Z</time>
      </trkpt>
      <trkpt lat="45.05238" lon="2.48065">
        <ele>738.16</ele>
        <time>2026-08-21T08:09:47.662Z</time>
      </trkpt>
      <trkpt lat="45.05237" lon="2.48067">
        <ele>738.37</ele>
        <time>2026-08-21T08:09:49.610Z</time>
      </trkpt>
      <trkpt lat="45.05236" lon="2.4807">
        <ele>738.59</ele>
        <time>2026-08-21T08:09:49.699Z</time>
      </trkpt>
      <trkpt lat="45.05235" lon="2.48074">
        <ele>738.82</ele>
        <time>2026-08-21T08:09:51.610Z</time>
      </trkpt>
      <trkpt lat="45.05234" lon="2.48077">
        <ele>739.06</ele>
        <time>2026-08-21T08:09:51.679Z</time>
      </trkpt>
      <trkpt lat="45.05233" lon="2.48079">
        <ele>739.29</ele>
        <time>2026-08-21T08:09:53.611Z</time>
      </trkpt>
      <trkpt lat="45.05232" lon="2.48082">
        <ele>739.53</ele>
        <time>2026-08-21T08:09:54.612Z</time>
      </trkpt>
      <trkpt lat="45.05231" lon="2.48086">
        <ele>739.77</ele>
        <time>2026-08-21T08:09:55.613Z</time>
      </trkpt>
      <trkpt lat="45.0523" lon="2.48089">
        <ele>740</ele>
        <time>2026-08-21T08:09:55.699Z</time>
      </trkpt>
      <trkpt lat="45.05229" lon="2.48091">
        <ele>740.25</ele>
        <time>2026-08-21T08:09:57.200Z</time>
      </trkpt>
      <trkpt lat="45.05228" lon="2.48093">
        <ele>740.51</ele>
        <time>2026-08-21T08:09:58.159Z</time>
      </trkpt>
      <trkpt lat="45.05227" lon="2.48095">
        <ele>740.77</ele>
        <time>2026-08-21T08:09:59.491Z</time>
      </trkpt>
      <trkpt lat="45.05227" lon="2.48098">
        <ele>741.06</ele>
        <time>2026-08-21T08:10:00.616Z</time>
      </trkpt>
      <trkpt lat="45.05227" lon="2.481">
        <ele>741.27</ele>
        <time>2026-08-21T08:10:01.616Z</time>
      </trkpt>
      <trkpt lat="45.05227" lon="2.48103">
        <ele>741.49</ele>
        <time>2026-08-21T08:10:02.616Z</time>
      </trkpt>
      <trkpt lat="45.05227" lon="2.48106">
        <ele>741.74</ele>
        <time>2026-08-21T08:10:03.632Z</time>
      </trkpt>
      <trkpt lat="45.05226" lon="2.48109">
        <ele>741.97</ele>
        <time>2026-08-21T08:10:04.616Z</time>
      </trkpt>
      <trkpt lat="45.05225" lon="2.48112">
        <ele>742.19</ele>
        <time>2026-08-21T08:10:05.617Z</time>
      </trkpt>
      <trkpt lat="45.05225" lon="2.48114">
        <ele>742.41</ele>
        <time>2026-08-21T08:10:06.617Z</time>
      </trkpt>
      <trkpt lat="45.05225" lon="2.48117">
        <ele>742.64</ele>
        <time>2026-08-21T08:10:07.619Z</time>
      </trkpt>
      <trkpt lat="45.05225" lon="2.4812">
        <ele>742.86</ele>
        <time>2026-08-21T08:10:08.619Z</time>
      </trkpt>
      <trkpt lat="45.05224" lon="2.48122">
        <ele>743.05</ele>
        <time>2026-08-21T08:10:09.619Z</time>
      </trkpt>
      <trkpt lat="45.05223" lon="2.48125">
        <ele>743.25</ele>
        <time>2026-08-21T08:10:10.620Z</time>
      </trkpt>
      <trkpt lat="45.05222" lon="2.48127">
        <ele>743.42</ele>
        <time>2026-08-21T08:10:11.622Z</time>
      </trkpt>
      <trkpt lat="45.05221" lon="2.48129">
        <ele>743.63</ele>
        <time>2026-08-21T08:10:12.623Z</time>
      </trkpt>
      <trkpt lat="45.0522" lon="2.48131">
        <ele>743.83</ele>
        <time>2026-08-21T08:10:13.622Z</time>
      </trkpt>
      <trkpt lat="45.05219" lon="2.48134">
        <ele>744.03</ele>
        <time>2026-08-21T08:10:14.623Z</time>
      </trkpt>
      <trkpt lat="45.05218" lon="2.48137">
        <ele>744.28</ele>
        <time>2026-08-21T08:10:15.623Z</time>
      </trkpt>
      <trkpt lat="45.05217" lon="2.48139">
        <ele>744.49</ele>
        <time>2026-08-21T08:10:16.624Z</time>
      </trkpt>
      <trkpt lat="45.05216" lon="2.48141">
        <ele>744.69</ele>
        <time>2026-08-21T08:10:17.184Z</time>
      </trkpt>
      <trkpt lat="45.05215" lon="2.48144">
        <ele>744.92</ele>
        <time>2026-08-21T08:10:18.626Z</time>
      </trkpt>
      <trkpt lat="45.05213" lon="2.48147">
        <ele>745.12</ele>
        <time>2026-08-21T08:10:19.626Z</time>
      </trkpt>
      <trkpt lat="45.05212" lon="2.48149">
        <ele>745.33</ele>
        <time>2026-08-21T08:10:20.245Z</time>
      </trkpt>
      <trkpt lat="45.05211" lon="2.48152">
        <ele>745.53</ele>
        <time>2026-08-21T08:10:21.560Z</time>
      </trkpt>
      <trkpt lat="45.05209" lon="2.48154">
        <ele>745.77</ele>
        <time>2026-08-21T08:10:22.628Z</time>
      </trkpt>
      <trkpt lat="45.05208" lon="2.48157">
        <ele>746.01</ele>
        <time>2026-08-21T08:10:23.628Z</time>
      </trkpt>
      <trkpt lat="45.05207" lon="2.48159">
        <ele>746.24</ele>
        <time>2026-08-21T08:10:24.630Z</time>
      </trkpt>
      <trkpt lat="45.05206" lon="2.48161">
        <ele>746.47</ele>
        <time>2026-08-21T08:10:25.630Z</time>
      </trkpt>
      <trkpt lat="45.05205" lon="2.48164">
        <ele>746.71</ele>
        <time>2026-08-21T08:10:26.481Z</time>
      </trkpt>
      <trkpt lat="45.05204" lon="2.48166">
        <ele>746.97</ele>
        <time>2026-08-21T08:10:27.632Z</time>
      </trkpt>
      <trkpt lat="45.05203" lon="2.48168">
        <ele>747.21</ele>
        <time>2026-08-21T08:10:28.633Z</time>
      </trkpt>
      <trkpt lat="45.05202" lon="2.48171">
        <ele>747.44</ele>
        <time>2026-08-21T08:10:29.634Z</time>
      </trkpt>
      <trkpt lat="45.05201" lon="2.48173">
        <ele>747.7</ele>
        <time>2026-08-21T08:10:30.634Z</time>
      </trkpt>
      <trkpt lat="45.05199" lon="2.48175">
        <ele>747.97</ele>
        <time>2026-08-21T08:10:31.635Z</time>
      </trkpt>
      <trkpt lat="45.05198" lon="2.48178">
        <ele>748.22</ele>
        <time>2026-08-21T08:10:32.636Z</time>
      </trkpt>
      <trkpt lat="45.05196" lon="2.48181">
        <ele>748.46</ele>
        <time>2026-08-21T08:10:33.637Z</time>
      </trkpt>
      <trkpt lat="45.05195" lon="2.48183">
        <ele>748.71</ele>
        <time>2026-08-21T08:10:34.637Z</time>
      </trkpt>
      <trkpt lat="45.05194" lon="2.48186">
        <ele>748.98</ele>
        <time>2026-08-21T08:10:35.483Z</time>
      </trkpt>
      <trkpt lat="45.05192" lon="2.48188">
        <ele>749.2</ele>
        <time>2026-08-21T08:10:36.640Z</time>
      </trkpt>
      <trkpt lat="45.05191" lon="2.48191">
        <ele>749.44</ele>
        <time>2026-08-21T08:10:37.642Z</time>
      </trkpt>
      <trkpt lat="45.0519" lon="2.48193">
        <ele>749.68</ele>
        <time>2026-08-21T08:10:38.641Z</time>
      </trkpt>
      <trkpt lat="45.0519" lon="2.48195">
        <ele>749.96</ele>
        <time>2026-08-21T08:10:39.643Z</time>
      </trkpt>
      <trkpt lat="45.05188" lon="2.48198">
        <ele>750.22</ele>
        <time>2026-08-21T08:10:40.643Z</time>
      </trkpt>
      <trkpt lat="45.05187" lon="2.48199">
        <ele>750.5</ele>
        <time>2026-08-21T08:10:41.643Z</time>
      </trkpt>
      <trkpt lat="45.05186" lon="2.48202">
        <ele>750.71</ele>
        <time>2026-08-21T08:10:42.642Z</time>
      </trkpt>
      <trkpt lat="45.05185" lon="2.48204">
        <ele>750.93</ele>
        <time>2026-08-21T08:10:43.643Z</time>
      </trkpt>
      <trkpt lat="45.05184" lon="2.48207">
        <ele>751.16</ele>
        <time>2026-08-21T08:10:44.542Z</time>
      </trkpt>
      <trkpt lat="45.05183" lon="2.48209">
        <ele>751.44</ele>
        <time>2026-08-21T08:10:45.646Z</time>
      </trkpt>
      <trkpt lat="45.05182" lon="2.48212">
        <ele>751.66</ele>
        <time>2026-08-21T08:10:46.647Z</time>
      </trkpt>
      <trkpt lat="45.0518" lon="2.48215">
        <ele>751.87</ele>
        <time>2026-08-21T08:10:47.647Z</time>
      </trkpt>
      <trkpt lat="45.05179" lon="2.48217">
        <ele>752.08</ele>
        <time>2026-08-21T08:10:48.649Z</time>
      </trkpt>
      <trkpt lat="45.05178" lon="2.48221">
        <ele>752.29</ele>
        <time>2026-08-21T08:10:49.648Z</time>
      </trkpt>
      <trkpt lat="45.05177" lon="2.48224">
        <ele>752.51</ele>
        <time>2026-08-21T08:10:50.648Z</time>
      </trkpt>
      <trkpt lat="45.05175" lon="2.48226">
        <ele>752.73</ele>
        <time>2026-08-21T08:10:51.649Z</time>
      </trkpt>
      <trkpt lat="45.05174" lon="2.48229">
        <ele>752.95</ele>
        <time>2026-08-21T08:10:52.217Z</time>
      </trkpt>
      <trkpt lat="45.05174" lon="2.48231">
        <ele>753.15</ele>
        <time>2026-08-21T08:10:53.651Z</time>
      </trkpt>
      <trkpt lat="45.05171" lon="2.48236">
        <ele>753.59</ele>
        <time>2026-08-21T08:10:55.654Z</time>
      </trkpt>
      <trkpt lat="45.05169" lon="2.4824">
        <ele>753.78</ele>
        <time>2026-08-21T08:10:57.658Z</time>
      </trkpt>
      <trkpt lat="45.05168" lon="2.48243">
        <ele>754.15</ele>
        <time>2026-08-21T08:10:58.661Z</time>
      </trkpt>
      <trkpt lat="45.05167" lon="2.48246">
        <ele>754.33</ele>
        <time>2026-08-21T08:10:59.661Z</time>
      </trkpt>
      <trkpt lat="45.05166" lon="2.48249">
        <ele>754.52</ele>
        <time>2026-08-21T08:11:00.663Z</time>
      </trkpt>
      <trkpt lat="45.05165" lon="2.48252">
        <ele>754.69</ele>
        <time>2026-08-21T08:11:01.661Z</time>
      </trkpt>
      <trkpt lat="45.05164" lon="2.48254">
        <ele>754.84</ele>
        <time>2026-08-21T08:11:02.534Z</time>
      </trkpt>
      <trkpt lat="45.05163" lon="2.48256">
        <ele>755.04</ele>
        <time>2026-08-21T08:11:03.655Z</time>
      </trkpt>
      <trkpt lat="45.05163" lon="2.48259">
        <ele>755.22</ele>
        <time>2026-08-21T08:11:04.651Z</time>
      </trkpt>
      <trkpt lat="45.05162" lon="2.48262">
        <ele>755.4</ele>
        <time>2026-08-21T08:11:05.651Z</time>
      </trkpt>
      <trkpt lat="45.05162" lon="2.48265">
        <ele>755.58</ele>
        <time>2026-08-21T08:11:06.656Z</time>
      </trkpt>
      <trkpt lat="45.05162" lon="2.48268">
        <ele>755.73</ele>
        <time>2026-08-21T08:11:07.752Z</time>
      </trkpt>
      <trkpt lat="45.05162" lon="2.48271">
        <ele>755.9</ele>
        <time>2026-08-21T08:11:08.751Z</time>
      </trkpt>
      <trkpt lat="45.05162" lon="2.48274">
        <ele>756</ele>
        <time>2026-08-21T08:11:09.753Z</time>
      </trkpt>
      <trkpt lat="45.05161" lon="2.48277">
        <ele>756.12</ele>
        <time>2026-08-21T08:11:10.754Z</time>
      </trkpt>
      <trkpt lat="45.05161" lon="2.48281">
        <ele>756.25</ele>
        <time>2026-08-21T08:11:11.595Z</time>
      </trkpt>
      <trkpt lat="45.05161" lon="2.48285">
        <ele>756.39</ele>
        <time>2026-08-21T08:11:12.755Z</time>
      </trkpt>
      <trkpt lat="45.05161" lon="2.48288">
        <ele>756.53</ele>
        <time>2026-08-21T08:11:13.754Z</time>
      </trkpt>
      <trkpt lat="45.0516" lon="2.48292">
        <ele>756.68</ele>
        <time>2026-08-21T08:11:14.756Z</time>
      </trkpt>
      <trkpt lat="45.0516" lon="2.48295">
        <ele>756.84</ele>
        <time>2026-08-21T08:11:15.680Z</time>
      </trkpt>
      <trkpt lat="45.0516" lon="2.48299">
        <ele>756.98</ele>
        <time>2026-08-21T08:11:16.753Z</time>
      </trkpt>
      <trkpt lat="45.0516" lon="2.48302">
        <ele>757.14</ele>
        <time>2026-08-21T08:11:17.540Z</time>
      </trkpt>
      <trkpt lat="45.0516" lon="2.48305">
        <ele>757.31</ele>
        <time>2026-08-21T08:11:18.754Z</time>
      </trkpt>
      <trkpt lat="45.0516" lon="2.48308">
        <ele>757.47</ele>
        <time>2026-08-21T08:11:19.751Z</time>
      </trkpt>
      <trkpt lat="45.05159" lon="2.48312">
        <ele>757.61</ele>
        <time>2026-08-21T08:11:20.615Z</time>
      </trkpt>
      <trkpt lat="45.05159" lon="2.48315">
        <ele>757.75</ele>
        <time>2026-08-21T08:11:21.335Z</time>
      </trkpt>
      <trkpt lat="45.05159" lon="2.48319">
        <ele>757.9</ele>
        <time>2026-08-21T08:11:22.587Z</time>
      </trkpt>
      <trkpt lat="45.05159" lon="2.48322">
        <ele>758.07</ele>
        <time>2026-08-21T08:11:23.746Z</time>
      </trkpt>
      <trkpt lat="45.05159" lon="2.48326">
        <ele>758.21</ele>
        <time>2026-08-21T08:11:24.748Z</time>
      </trkpt>
      <trkpt lat="45.05159" lon="2.48329">
        <ele>758.36</ele>
        <time>2026-08-21T08:11:25.747Z</time>
      </trkpt>
      <trkpt lat="45.05159" lon="2.48332">
        <ele>758.51</ele>
        <time>2026-08-21T08:11:26.745Z</time>
      </trkpt>
      <trkpt lat="45.05159" lon="2.48335">
        <ele>758.65</ele>
        <time>2026-08-21T08:11:27.744Z</time>
      </trkpt>
      <trkpt lat="45.05158" lon="2.48339">
        <ele>758.79</ele>
        <time>2026-08-21T08:11:28.744Z</time>
      </trkpt>
      <trkpt lat="45.05158" lon="2.48342">
        <ele>758.93</ele>
        <time>2026-08-21T08:11:29.605Z</time>
      </trkpt>
      <trkpt lat="45.05157" lon="2.48346">
        <ele>759.08</ele>
        <time>2026-08-21T08:11:30.740Z</time>
      </trkpt>
      <trkpt lat="45.05156" lon="2.48349">
        <ele>759.21</ele>
        <time>2026-08-21T08:11:31.738Z</time>
      </trkpt>
      <trkpt lat="45.05156" lon="2.48352">
        <ele>759.34</ele>
        <time>2026-08-21T08:11:32.379Z</time>
      </trkpt>
      <trkpt lat="45.05156" lon="2.48355">
        <ele>759.51</ele>
        <time>2026-08-21T08:11:33.626Z</time>
      </trkpt>
      <trkpt lat="45.05155" lon="2.48358">
        <ele>759.68</ele>
        <time>2026-08-21T08:11:34.734Z</time>
      </trkpt>
      <trkpt lat="45.05155" lon="2.48362">
        <ele>759.86</ele>
        <time>2026-08-21T08:11:35.732Z</time>
      </trkpt>
      <trkpt lat="45.05154" lon="2.48365">
        <ele>760.01</ele>
        <time>2026-08-21T08:11:36.736Z</time>
      </trkpt>
      <trkpt lat="45.05154" lon="2.48367">
        <ele>760.15</ele>
        <time>2026-08-21T08:11:37.731Z</time>
      </trkpt>
      <trkpt lat="45.05153" lon="2.48371">
        <ele>760.3</ele>
        <time>2026-08-21T08:11:38.676Z</time>
      </trkpt>
      <trkpt lat="45.05153" lon="2.48374">
        <ele>760.48</ele>
        <time>2026-08-21T08:11:39.718Z</time>
      </trkpt>
      <trkpt lat="45.05152" lon="2.48377">
        <ele>760.62</ele>
        <time>2026-08-21T08:11:40.717Z</time>
      </trkpt>
      <trkpt lat="45.05152" lon="2.4838">
        <ele>760.77</ele>
        <time>2026-08-21T08:11:41.717Z</time>
      </trkpt>
      <trkpt lat="45.05151" lon="2.48383">
        <ele>760.91</ele>
        <time>2026-08-21T08:11:42.715Z</time>
      </trkpt>
      <trkpt lat="45.0515" lon="2.48386">
        <ele>761.07</ele>
        <time>2026-08-21T08:11:43.812Z</time>
      </trkpt>
      <trkpt lat="45.05149" lon="2.48389">
        <ele>761.26</ele>
        <time>2026-08-21T08:11:44.812Z</time>
      </trkpt>
      <trkpt lat="45.05148" lon="2.48392">
        <ele>761.44</ele>
        <time>2026-08-21T08:11:44.836Z</time>
      </trkpt>
      <trkpt lat="45.05147" lon="2.48395">
        <ele>761.59</ele>
        <time>2026-08-21T08:11:46.811Z</time>
      </trkpt>
      <trkpt lat="45.05146" lon="2.48398">
        <ele>761.73</ele>
        <time>2026-08-21T08:11:46.876Z</time>
      </trkpt>
      <trkpt lat="45.05146" lon="2.48401">
        <ele>761.89</ele>
        <time>2026-08-21T08:11:48.803Z</time>
      </trkpt>
      <trkpt lat="45.05145" lon="2.48403">
        <ele>762.04</ele>
        <time>2026-08-21T08:11:48.884Z</time>
      </trkpt>
      <trkpt lat="45.05144" lon="2.48406">
        <ele>762.24</ele>
        <time>2026-08-21T08:11:50.799Z</time>
      </trkpt>
      <trkpt lat="45.05143" lon="2.48408">
        <ele>762.41</ele>
        <time>2026-08-21T08:11:51.798Z</time>
      </trkpt>
      <trkpt lat="45.05142" lon="2.48411">
        <ele>762.65</ele>
        <time>2026-08-21T08:11:52.799Z</time>
      </trkpt>
      <trkpt lat="45.05142" lon="2.48414">
        <ele>762.82</ele>
        <time>2026-08-21T08:11:52.882Z</time>
      </trkpt>
      <trkpt lat="45.05141" lon="2.48417">
        <ele>763.03</ele>
        <time>2026-08-21T08:11:53.898Z</time>
      </trkpt>
      <trkpt lat="45.05141" lon="2.4842">
        <ele>763.22</ele>
        <time>2026-08-21T08:11:55.800Z</time>
      </trkpt>
      <trkpt lat="45.0514" lon="2.48423">
        <ele>763.41</ele>
        <time>2026-08-21T08:11:56.665Z</time>
      </trkpt>
      <trkpt lat="45.0514" lon="2.48426">
        <ele>763.58</ele>
        <time>2026-08-21T08:11:57.801Z</time>
      </trkpt>
      <trkpt lat="45.05139" lon="2.48429">
        <ele>763.76</ele>
        <time>2026-08-21T08:11:58.804Z</time>
      </trkpt>
      <trkpt lat="45.05138" lon="2.48432">
        <ele>763.93</ele>
        <time>2026-08-21T08:11:59.805Z</time>
      </trkpt>
      <trkpt lat="45.05138" lon="2.48435">
        <ele>764.12</ele>
        <time>2026-08-21T08:12:00.806Z</time>
      </trkpt>
      <trkpt lat="45.05138" lon="2.48438">
        <ele>764.31</ele>
        <time>2026-08-21T08:12:01.808Z</time>
      </trkpt>
      <trkpt lat="45.05138" lon="2.48441">
        <ele>764.54</ele>
        <time>2026-08-21T08:12:02.809Z</time>
      </trkpt>
      <trkpt lat="45.05137" lon="2.48445">
        <ele>764.73</ele>
        <time>2026-08-21T08:12:02.899Z</time>
      </trkpt>
      <trkpt lat="45.05137" lon="2.48448">
        <ele>764.95</ele>
        <time>2026-08-21T08:12:04.814Z</time>
      </trkpt>
      <trkpt lat="45.05137" lon="2.48451">
        <ele>765.15</ele>
        <time>2026-08-21T08:12:05.717Z</time>
      </trkpt>
      <trkpt lat="45.05137" lon="2.48454">
        <ele>765.37</ele>
        <time>2026-08-21T08:12:05.904Z</time>
      </trkpt>
      <trkpt lat="45.05137" lon="2.48458">
        <ele>765.59</ele>
        <time>2026-08-21T08:12:07.821Z</time>
      </trkpt>
      <trkpt lat="45.05136" lon="2.48462">
        <ele>765.81</ele>
        <time>2026-08-21T08:12:08.603Z</time>
      </trkpt>
      <trkpt lat="45.05136" lon="2.48465">
        <ele>766</ele>
        <time>2026-08-21T08:12:08.913Z</time>
      </trkpt>
      <trkpt lat="45.05135" lon="2.48468">
        <ele>766.19</ele>
        <time>2026-08-21T08:12:10.639Z</time>
      </trkpt>
      <trkpt lat="45.05135" lon="2.48472">
        <ele>766.34</ele>
        <time>2026-08-21T08:12:11.717Z</time>
      </trkpt>
      <trkpt lat="45.05135" lon="2.48475">
        <ele>766.53</ele>
        <time>2026-08-21T08:12:12.437Z</time>
      </trkpt>
      <trkpt lat="45.05135" lon="2.48479">
        <ele>766.74</ele>
        <time>2026-08-21T08:12:13.830Z</time>
      </trkpt>
      <trkpt lat="45.05135" lon="2.48483">
        <ele>766.96</ele>
        <time>2026-08-21T08:12:14.720Z</time>
      </trkpt>
      <trkpt lat="45.05135" lon="2.48486">
        <ele>767.15</ele>
        <time>2026-08-21T08:12:14.899Z</time>
      </trkpt>
      <trkpt lat="45.05135" lon="2.4849">
        <ele>767.34</ele>
        <time>2026-08-21T08:12:16.454Z</time>
      </trkpt>
      <trkpt lat="45.05135" lon="2.48493">
        <ele>767.55</ele>
        <time>2026-08-21T08:12:17.356Z</time>
      </trkpt>
      <trkpt lat="45.05135" lon="2.48497">
        <ele>767.77</ele>
        <time>2026-08-21T08:12:18.841Z</time>
      </trkpt>
      <trkpt lat="45.05135" lon="2.485">
        <ele>767.98</ele>
        <time>2026-08-21T08:12:19.640Z</time>
      </trkpt>
      <trkpt lat="45.05136" lon="2.48503">
        <ele>768.19</ele>
        <time>2026-08-21T08:12:20.845Z</time>
      </trkpt>
      <trkpt lat="45.05136" lon="2.48507">
        <ele>768.39</ele>
        <time>2026-08-21T08:12:20.921Z</time>
      </trkpt>
      <trkpt lat="45.05137" lon="2.4851">
        <ele>768.6</ele>
        <time>2026-08-21T08:12:22.729Z</time>
      </trkpt>
      <trkpt lat="45.05137" lon="2.48513">
        <ele>768.8</ele>
        <time>2026-08-21T08:12:23.850Z</time>
      </trkpt>
      <trkpt lat="45.05137" lon="2.48517">
        <ele>769.04</ele>
        <time>2026-08-21T08:12:24.852Z</time>
      </trkpt>
      <trkpt lat="45.05138" lon="2.4852">
        <ele>769.25</ele>
        <time>2026-08-21T08:12:25.458Z</time>
      </trkpt>
      <trkpt lat="45.05139" lon="2.48522">
        <ele>769.47</ele>
        <time>2026-08-21T08:12:26.416Z</time>
      </trkpt>
      <trkpt lat="45.0514" lon="2.48525">
        <ele>769.7</ele>
        <time>2026-08-21T08:12:26.922Z</time>
      </trkpt>
      <trkpt lat="45.05141" lon="2.48528">
        <ele>769.91</ele>
        <time>2026-08-21T08:12:28.702Z</time>
      </trkpt>
      <trkpt lat="45.05143" lon="2.48531">
        <ele>770.11</ele>
        <time>2026-08-21T08:12:29.475Z</time>
      </trkpt>
      <trkpt lat="45.05144" lon="2.48533">
        <ele>770.33</ele>
        <time>2026-08-21T08:12:29.909Z</time>
      </trkpt>
      <trkpt lat="45.05145" lon="2.48536">
        <ele>770.54</ele>
        <time>2026-08-21T08:12:31.466Z</time>
      </trkpt>
      <trkpt lat="45.05146" lon="2.48538">
        <ele>770.74</ele>
        <time>2026-08-21T08:12:31.907Z</time>
      </trkpt>
      <trkpt lat="45.05148" lon="2.4854">
        <ele>770.95</ele>
        <time>2026-08-21T08:12:33.864Z</time>
      </trkpt>
      <trkpt lat="45.0515" lon="2.48543">
        <ele>771.16</ele>
        <time>2026-08-21T08:12:33.926Z</time>
      </trkpt>
      <trkpt lat="45.05151" lon="2.48545">
        <ele>771.36</ele>
        <time>2026-08-21T08:12:35.868Z</time>
      </trkpt>
      <trkpt lat="45.05153" lon="2.48547">
        <ele>771.57</ele>
        <time>2026-08-21T08:12:35.910Z</time>
      </trkpt>
      <trkpt lat="45.05154" lon="2.48549">
        <ele>771.77</ele>
        <time>2026-08-21T08:12:37.708Z</time>
      </trkpt>
      <trkpt lat="45.05156" lon="2.48551">
        <ele>771.98</ele>
        <time>2026-08-21T08:12:38.873Z</time>
      </trkpt>
      <trkpt lat="45.05158" lon="2.48552">
        <ele>772.21</ele>
        <time>2026-08-21T08:12:39.434Z</time>
      </trkpt>
      <trkpt lat="45.05159" lon="2.48554">
        <ele>772.41</ele>
        <time>2026-08-21T08:12:40.454Z</time>
      </trkpt>
      <trkpt lat="45.05161" lon="2.48555">
        <ele>772.63</ele>
        <time>2026-08-21T08:12:40.940Z</time>
      </trkpt>
      <trkpt lat="45.05163" lon="2.48557">
        <ele>772.81</ele>
        <time>2026-08-21T08:12:42.435Z</time>
      </trkpt>
      <trkpt lat="45.05165" lon="2.48559">
        <ele>773</ele>
        <time>2026-08-21T08:12:42.930Z</time>
      </trkpt>
      <trkpt lat="45.05167" lon="2.4856">
        <ele>773.25</ele>
        <time>2026-08-21T08:12:44.419Z</time>
      </trkpt>
      <trkpt lat="45.05169" lon="2.48561">
        <ele>773.46</ele>
        <time>2026-08-21T08:12:44.901Z</time>
      </trkpt>
      <trkpt lat="45.0517" lon="2.48562">
        <ele>773.67</ele>
        <time>2026-08-21T08:12:46.759Z</time>
      </trkpt>
      <trkpt lat="45.05172" lon="2.48563">
        <ele>773.88</ele>
        <time>2026-08-21T08:12:46.970Z</time>
      </trkpt>
      <trkpt lat="45.05173" lon="2.48563">
        <ele>774.07</ele>
        <time>2026-08-21T08:12:48.436Z</time>
      </trkpt>
      <trkpt lat="45.05175" lon="2.48564">
        <ele>774.27</ele>
        <time>2026-08-21T08:12:49.460Z</time>
      </trkpt>
      <trkpt lat="45.05178" lon="2.48565">
        <ele>774.64</ele>
        <time>2026-08-21T08:12:51.434Z</time>
      </trkpt>
      <trkpt lat="45.05179" lon="2.48566">
        <ele>774.81</ele>
        <time>2026-08-21T08:12:52.458Z</time>
      </trkpt>
      <trkpt lat="45.0518" lon="2.48567">
        <ele>775</ele>
        <time>2026-08-21T08:12:52.945Z</time>
      </trkpt>
      <trkpt lat="45.05182" lon="2.48568">
        <ele>775.16</ele>
        <time>2026-08-21T08:12:54.433Z</time>
      </trkpt>
      <trkpt lat="45.05183" lon="2.4857">
        <ele>775.33</ele>
        <time>2026-08-21T08:12:55.401Z</time>
      </trkpt>
      <trkpt lat="45.05185" lon="2.48575">
        <ele>775.63</ele>
        <time>2026-08-21T08:12:57.433Z</time>
      </trkpt>
      <trkpt lat="45.05185" lon="2.48577">
        <ele>775.74</ele>
        <time>2026-08-21T08:12:58.807Z</time>
      </trkpt>
      <trkpt lat="45.05186" lon="2.48579">
        <ele>775.88</ele>
        <time>2026-08-21T08:12:59.808Z</time>
      </trkpt>
      <trkpt lat="45.05187" lon="2.48582">
        <ele>776.01</ele>
        <time>2026-08-21T08:13:00.816Z</time>
      </trkpt>
      <trkpt lat="45.05187" lon="2.48585">
        <ele>776.09</ele>
        <time>2026-08-21T08:13:01.814Z</time>
      </trkpt>
      <trkpt lat="45.05187" lon="2.4859">
        <ele>776.17</ele>
        <time>2026-08-21T08:13:02.817Z</time>
      </trkpt>
      <trkpt lat="45.05187" lon="2.48596">
        <ele>776.21</ele>
        <time>2026-08-21T08:13:03.818Z</time>
      </trkpt>
      <trkpt lat="45.05187" lon="2.48602">
        <ele>776.26</ele>
        <time>2026-08-21T08:13:04.818Z</time>
      </trkpt>
      <trkpt lat="45.05187" lon="2.48609">
        <ele>776.29</ele>
        <time>2026-08-21T08:13:05.819Z</time>
      </trkpt>
      <trkpt lat="45.05187" lon="2.48618">
        <ele>776.31</ele>
        <time>2026-08-21T08:13:06.822Z</time>
      </trkpt>
      <trkpt lat="45.05187" lon="2.48626">
        <ele>776.3</ele>
        <time>2026-08-21T08:13:07.824Z</time>
      </trkpt>
      <trkpt lat="45.05187" lon="2.48636">
        <ele>776.27</ele>
        <time>2026-08-21T08:13:08.822Z</time>
      </trkpt>
      <trkpt lat="45.05187" lon="2.48644">
        <ele>776.2</ele>
        <time>2026-08-21T08:13:09.821Z</time>
      </trkpt>
      <trkpt lat="45.05184" lon="2.48655">
        <ele>776.09</ele>
        <time>2026-08-21T08:13:10.821Z</time>
      </trkpt>
      <trkpt lat="45.05181" lon="2.48663">
        <ele>776</ele>
        <time>2026-08-21T08:13:11.822Z</time>
      </trkpt>
      <trkpt lat="45.05178" lon="2.48671">
        <ele>775.89</ele>
        <time>2026-08-21T08:13:12.825Z</time>
      </trkpt>
      <trkpt lat="45.05173" lon="2.4868">
        <ele>775.82</ele>
        <time>2026-08-21T08:13:13.823Z</time>
      </trkpt>
      <trkpt lat="45.05169" lon="2.48687">
        <ele>775.74</ele>
        <time>2026-08-21T08:13:14.824Z</time>
      </trkpt>
      <trkpt lat="45.05164" lon="2.48696">
        <ele>775.66</ele>
        <time>2026-08-21T08:13:15.824Z</time>
      </trkpt>
      <trkpt lat="45.0516" lon="2.48704">
        <ele>775.58</ele>
        <time>2026-08-21T08:13:16.913Z</time>
      </trkpt>
      <trkpt lat="45.05156" lon="2.48712">
        <ele>775.51</ele>
        <time>2026-08-21T08:13:17.906Z</time>
      </trkpt>
      <trkpt lat="45.05153" lon="2.48721">
        <ele>775.45</ele>
        <time>2026-08-21T08:13:18.449Z</time>
      </trkpt>
      <trkpt lat="45.05151" lon="2.48729">
        <ele>775.38</ele>
        <time>2026-08-21T08:13:19.403Z</time>
      </trkpt>
      <trkpt lat="45.05148" lon="2.48738">
        <ele>775.3</ele>
        <time>2026-08-21T08:13:20.427Z</time>
      </trkpt>
      <trkpt lat="45.05146" lon="2.48746">
        <ele>775.22</ele>
        <time>2026-08-21T08:13:21.457Z</time>
      </trkpt>
      <trkpt lat="45.05143" lon="2.48757">
        <ele>775.11</ele>
        <time>2026-08-21T08:13:22.431Z</time>
      </trkpt>
      <trkpt lat="45.05141" lon="2.48765">
        <ele>774.98</ele>
        <time>2026-08-21T08:13:23.906Z</time>
      </trkpt>
      <trkpt lat="45.05138" lon="2.48775">
        <ele>774.86</ele>
        <time>2026-08-21T08:13:24.921Z</time>
      </trkpt>
      <trkpt lat="45.05136" lon="2.48783">
        <ele>774.75</ele>
        <time>2026-08-21T08:13:25.908Z</time>
      </trkpt>
      <trkpt lat="45.05133" lon="2.48793">
        <ele>774.61</ele>
        <time>2026-08-21T08:13:26.899Z</time>
      </trkpt>
      <trkpt lat="45.0513" lon="2.48801">
        <ele>774.49</ele>
        <time>2026-08-21T08:13:27.449Z</time>
      </trkpt>
      <trkpt lat="45.05127" lon="2.4881">
        <ele>774.35</ele>
        <time>2026-08-21T08:13:28.456Z</time>
      </trkpt>
      <trkpt lat="45.05124" lon="2.48819">
        <ele>774.2</ele>
        <time>2026-08-21T08:13:29.919Z</time>
      </trkpt>
      <trkpt lat="45.05121" lon="2.48826">
        <ele>774.06</ele>
        <time>2026-08-21T08:13:30.469Z</time>
      </trkpt>
      <trkpt lat="45.05118" lon="2.48834">
        <ele>773.9</ele>
        <time>2026-08-21T08:13:31.456Z</time>
      </trkpt>
      <trkpt lat="45.05115" lon="2.48842">
        <ele>773.77</ele>
        <time>2026-08-21T08:13:32.477Z</time>
      </trkpt>
      <trkpt lat="45.05113" lon="2.48849">
        <ele>773.68</ele>
        <time>2026-08-21T08:13:33.451Z</time>
      </trkpt>
      <trkpt lat="45.05111" lon="2.48855">
        <ele>773.56</ele>
        <time>2026-08-21T08:13:34.455Z</time>
      </trkpt>
      <trkpt lat="45.05109" lon="2.48862">
        <ele>773.42</ele>
        <time>2026-08-21T08:13:35.941Z</time>
      </trkpt>
      <trkpt lat="45.05108" lon="2.48868">
        <ele>773.3</ele>
        <time>2026-08-21T08:13:36.913Z</time>
      </trkpt>
      <trkpt lat="45.05108" lon="2.48874">
        <ele>773.2</ele>
        <time>2026-08-21T08:13:37.456Z</time>
      </trkpt>
      <trkpt lat="45.05107" lon="2.48881">
        <ele>773.09</ele>
        <time>2026-08-21T08:13:38.416Z</time>
      </trkpt>
      <trkpt lat="45.05108" lon="2.48886">
        <ele>773.01</ele>
        <time>2026-08-21T08:13:39.922Z</time>
      </trkpt>
      <trkpt lat="45.05108" lon="2.48891">
        <ele>772.92</ele>
        <time>2026-08-21T08:13:40.913Z</time>
      </trkpt>
      <trkpt lat="45.05107" lon="2.48895">
        <ele>772.86</ele>
        <time>2026-08-21T08:13:41.929Z</time>
      </trkpt>
      <trkpt lat="45.05108" lon="2.48899">
        <ele>772.78</ele>
        <time>2026-08-21T08:13:42.905Z</time>
      </trkpt>
      <trkpt lat="45.05108" lon="2.48901">
        <ele>772.72</ele>
        <time>2026-08-21T08:13:43.905Z</time>
      </trkpt>
      <trkpt lat="45.05109" lon="2.48905">
        <ele>772.7</ele>
        <time>2026-08-21T08:13:44.926Z</time>
      </trkpt>
      <trkpt lat="45.05109" lon="2.48907">
        <ele>772.66</ele>
        <time>2026-08-21T08:13:45.905Z</time>
      </trkpt>
      <trkpt lat="45.0511" lon="2.48911">
        <ele>772.67</ele>
        <time>2026-08-21T08:13:46.905Z</time>
      </trkpt>
      <trkpt lat="45.0511" lon="2.48914">
        <ele>772.68</ele>
        <time>2026-08-21T08:13:47.907Z</time>
      </trkpt>
      <trkpt lat="45.0511" lon="2.48917">
        <ele>772.7</ele>
        <time>2026-08-21T08:13:48.908Z</time>
      </trkpt>
      <trkpt lat="45.05111" lon="2.4892">
        <ele>772.7</ele>
        <time>2026-08-21T08:13:49.953Z</time>
      </trkpt>
      <trkpt lat="45.05111" lon="2.48923">
        <ele>772.73</ele>
        <time>2026-08-21T08:13:50.908Z</time>
      </trkpt>
      <trkpt lat="45.05112" lon="2.48926">
        <ele>772.73</ele>
        <time>2026-08-21T08:13:51.908Z</time>
      </trkpt>
      <trkpt lat="45.05113" lon="2.48928">
        <ele>772.76</ele>
        <time>2026-08-21T08:13:52.953Z</time>
      </trkpt>
      <trkpt lat="45.05114" lon="2.48931">
        <ele>772.78</ele>
        <time>2026-08-21T08:13:53.908Z</time>
      </trkpt>
      <trkpt lat="45.05114" lon="2.48933">
        <ele>772.82</ele>
        <time>2026-08-21T08:13:54.909Z</time>
      </trkpt>
      <trkpt lat="45.05115" lon="2.48936">
        <ele>772.85</ele>
        <time>2026-08-21T08:13:55.912Z</time>
      </trkpt>
      <trkpt lat="45.05116" lon="2.48939">
        <ele>772.9</ele>
        <time>2026-08-21T08:13:56.666Z</time>
      </trkpt>
      <trkpt lat="45.05116" lon="2.48942">
        <ele>772.94</ele>
        <time>2026-08-21T08:13:57.911Z</time>
      </trkpt>
      <trkpt lat="45.05117" lon="2.48945">
        <ele>772.98</ele>
        <time>2026-08-21T08:13:58.913Z</time>
      </trkpt>
      <trkpt lat="45.05117" lon="2.48948">
        <ele>773.03</ele>
        <time>2026-08-21T08:13:59.914Z</time>
      </trkpt>
      <trkpt lat="45.05118" lon="2.48951">
        <ele>773.06</ele>
        <time>2026-08-21T08:14:00.916Z</time>
      </trkpt>
      <trkpt lat="45.05119" lon="2.48954">
        <ele>773.11</ele>
        <time>2026-08-21T08:14:01.963Z</time>
      </trkpt>
      <trkpt lat="45.05119" lon="2.48957">
        <ele>773.16</ele>
        <time>2026-08-21T08:14:02.918Z</time>
      </trkpt>
      <trkpt lat="45.05119" lon="2.4896">
        <ele>773.21</ele>
        <time>2026-08-21T08:14:03.919Z</time>
      </trkpt>
      <trkpt lat="45.0512" lon="2.48963">
        <ele>773.27</ele>
        <time>2026-08-21T08:14:04.920Z</time>
      </trkpt>
      <trkpt lat="45.05121" lon="2.48966">
        <ele>773.33</ele>
        <time>2026-08-21T08:14:05.920Z</time>
      </trkpt>
      <trkpt lat="45.05121" lon="2.48969">
        <ele>773.42</ele>
        <time>2026-08-21T08:14:06.921Z</time>
      </trkpt>
      <trkpt lat="45.05122" lon="2.48972">
        <ele>773.48</ele>
        <time>2026-08-21T08:14:07.940Z</time>
      </trkpt>
      <trkpt lat="45.05122" lon="2.48974">
        <ele>773.56</ele>
        <time>2026-08-21T08:14:08.921Z</time>
      </trkpt>
      <trkpt lat="45.05123" lon="2.48977">
        <ele>773.62</ele>
        <time>2026-08-21T08:14:09.926Z</time>
      </trkpt>
      <trkpt lat="45.05124" lon="2.4898">
        <ele>773.7</ele>
        <time>2026-08-21T08:14:10.924Z</time>
      </trkpt>
      <trkpt lat="45.05125" lon="2.48983">
        <ele>773.78</ele>
        <time>2026-08-21T08:14:11.924Z</time>
      </trkpt>
      <trkpt lat="45.05127" lon="2.48987">
        <ele>773.86</ele>
        <time>2026-08-21T08:14:12.864Z</time>
      </trkpt>
      <trkpt lat="45.05128" lon="2.48989">
        <ele>773.94</ele>
        <time>2026-08-21T08:14:13.924Z</time>
      </trkpt>
      <trkpt lat="45.05129" lon="2.48992">
        <ele>774.03</ele>
        <time>2026-08-21T08:14:14.925Z</time>
      </trkpt>
      <trkpt lat="45.05129" lon="2.48995">
        <ele>774.12</ele>
        <time>2026-08-21T08:14:15.926Z</time>
      </trkpt>
      <trkpt lat="45.0513" lon="2.48998">
        <ele>774.2</ele>
        <time>2026-08-21T08:14:16.796Z</time>
      </trkpt>
      <trkpt lat="45.0513" lon="2.49002">
        <ele>774.29</ele>
        <time>2026-08-21T08:14:17.539Z</time>
      </trkpt>
      <trkpt lat="45.05132" lon="2.49005">
        <ele>774.41</ele>
        <time>2026-08-21T08:14:18.926Z</time>
      </trkpt>
      <trkpt lat="45.05132" lon="2.49009">
        <ele>774.51</ele>
        <time>2026-08-21T08:14:19.927Z</time>
      </trkpt>
      <trkpt lat="45.05133" lon="2.49012">
        <ele>774.63</ele>
        <time>2026-08-21T08:14:20.599Z</time>
      </trkpt>
      <trkpt lat="45.05134" lon="2.49016">
        <ele>774.72</ele>
        <time>2026-08-21T08:14:21.928Z</time>
      </trkpt>
      <trkpt lat="45.05134" lon="2.49019">
        <ele>774.85</ele>
        <time>2026-08-21T08:14:22.928Z</time>
      </trkpt>
      <trkpt lat="45.05135" lon="2.49023">
        <ele>774.99</ele>
        <time>2026-08-21T08:14:23.929Z</time>
      </trkpt>
      <trkpt lat="45.05136" lon="2.49027">
        <ele>775.11</ele>
        <time>2026-08-21T08:14:24.930Z</time>
      </trkpt>
      <trkpt lat="45.05136" lon="2.49032">
        <ele>775.24</ele>
        <time>2026-08-21T08:14:25.932Z</time>
      </trkpt>
      <trkpt lat="45.05136" lon="2.49036">
        <ele>775.35</ele>
        <time>2026-08-21T08:14:26.933Z</time>
      </trkpt>
      <trkpt lat="45.05137" lon="2.4904">
        <ele>775.5</ele>
        <time>2026-08-21T08:14:27.934Z</time>
      </trkpt>
      <trkpt lat="45.05137" lon="2.49044">
        <ele>775.62</ele>
        <time>2026-08-21T08:14:28.937Z</time>
      </trkpt>
      <trkpt lat="45.05137" lon="2.49048">
        <ele>775.81</ele>
        <time>2026-08-21T08:14:29.491Z</time>
      </trkpt>
      <trkpt lat="45.05137" lon="2.49053">
        <ele>775.94</ele>
        <time>2026-08-21T08:14:30.936Z</time>
      </trkpt>
      <trkpt lat="45.05137" lon="2.49058">
        <ele>776</ele>
        <time>2026-08-21T08:14:31.940Z</time>
      </trkpt>
      <trkpt lat="45.05137" lon="2.49063">
        <ele>776.16</ele>
        <time>2026-08-21T08:14:32.937Z</time>
      </trkpt>
      <trkpt lat="45.05135" lon="2.49069">
        <ele>776.1</ele>
        <time>2026-08-21T08:14:33.939Z</time>
      </trkpt>
      <trkpt lat="45.05135" lon="2.49075">
        <ele>776.18</ele>
        <time>2026-08-21T08:14:34.943Z</time>
      </trkpt>
      <trkpt lat="45.05135" lon="2.4908">
        <ele>776.21</ele>
        <time>2026-08-21T08:14:35.499Z</time>
      </trkpt>
      <trkpt lat="45.05134" lon="2.49085">
        <ele>776.27</ele>
        <time>2026-08-21T08:14:37.005Z</time>
      </trkpt>
      <trkpt lat="45.05134" lon="2.49089">
        <ele>776.37</ele>
        <time>2026-08-21T08:14:38.002Z</time>
      </trkpt>
      <trkpt lat="45.05133" lon="2.49093">
        <ele>776.44</ele>
        <time>2026-08-21T08:14:38.940Z</time>
      </trkpt>
      <trkpt lat="45.05133" lon="2.49096">
        <ele>776.52</ele>
        <time>2026-08-21T08:14:39.992Z</time>
      </trkpt>
      <trkpt lat="45.05133" lon="2.491">
        <ele>776.57</ele>
        <time>2026-08-21T08:14:40.940Z</time>
      </trkpt>
      <trkpt lat="45.05132" lon="2.49103">
        <ele>776.58</ele>
        <time>2026-08-21T08:14:41.942Z</time>
      </trkpt>
      <trkpt lat="45.05132" lon="2.49107">
        <ele>776.64</ele>
        <time>2026-08-21T08:14:42.941Z</time>
      </trkpt>
      <trkpt lat="45.05131" lon="2.4911">
        <ele>776.68</ele>
        <time>2026-08-21T08:14:43.943Z</time>
      </trkpt>
      <trkpt lat="45.05131" lon="2.49113">
        <ele>776.74</ele>
        <time>2026-08-21T08:14:44.960Z</time>
      </trkpt>
      <trkpt lat="45.0513" lon="2.49117">
        <ele>776.78</ele>
        <time>2026-08-21T08:14:45.944Z</time>
      </trkpt>
      <trkpt lat="45.0513" lon="2.49121">
        <ele>776.82</ele>
        <time>2026-08-21T08:14:46.945Z</time>
      </trkpt>
      <trkpt lat="45.05129" lon="2.49124">
        <ele>776.88</ele>
        <time>2026-08-21T08:14:47.948Z</time>
      </trkpt>
      <trkpt lat="45.05128" lon="2.49127">
        <ele>776.92</ele>
        <time>2026-08-21T08:14:48.948Z</time>
      </trkpt>
      <trkpt lat="45.05128" lon="2.49131">
        <ele>776.92</ele>
        <time>2026-08-21T08:14:50.002Z</time>
      </trkpt>
      <trkpt lat="45.05127" lon="2.49135">
        <ele>777</ele>
        <time>2026-08-21T08:14:50.952Z</time>
      </trkpt>
      <trkpt lat="45.05128" lon="2.49139">
        <ele>777.03</ele>
        <time>2026-08-21T08:14:51.953Z</time>
      </trkpt>
      <trkpt lat="45.05127" lon="2.49143">
        <ele>777.05</ele>
        <time>2026-08-21T08:14:52.954Z</time>
      </trkpt>
      <trkpt lat="45.05127" lon="2.49146">
        <ele>777.04</ele>
        <time>2026-08-21T08:14:53.958Z</time>
      </trkpt>
      <trkpt lat="45.05127" lon="2.49151">
        <ele>777.05</ele>
        <time>2026-08-21T08:14:54.959Z</time>
      </trkpt>
      <trkpt lat="45.05126" lon="2.49155">
        <ele>777.01</ele>
        <time>2026-08-21T08:14:55.961Z</time>
      </trkpt>
      <trkpt lat="45.05125" lon="2.49162">
        <ele>777.03</ele>
        <time>2026-08-21T08:14:56.964Z</time>
      </trkpt>
      <trkpt lat="45.05122" lon="2.49168">
        <ele>777</ele>
        <time>2026-08-21T08:14:57.966Z</time>
      </trkpt>
      <trkpt lat="45.05119" lon="2.49174">
        <ele>777.02</ele>
        <time>2026-08-21T08:14:58.971Z</time>
      </trkpt>
      <trkpt lat="45.05116" lon="2.4918">
        <ele>776.89</ele>
        <time>2026-08-21T08:14:59.972Z</time>
      </trkpt>
      <trkpt lat="45.05113" lon="2.49186">
        <ele>776.83</ele>
        <time>2026-08-21T08:15:00.974Z</time>
      </trkpt>
      <trkpt lat="45.0511" lon="2.49193">
        <ele>776.87</ele>
        <time>2026-08-21T08:15:01.977Z</time>
      </trkpt>
      <trkpt lat="45.05107" lon="2.49199">
        <ele>776.84</ele>
        <time>2026-08-21T08:15:02.981Z</time>
      </trkpt>
      <trkpt lat="45.05105" lon="2.49205">
        <ele>776.76</ele>
        <time>2026-08-21T08:15:03.979Z</time>
      </trkpt>
      <trkpt lat="45.05103" lon="2.49211">
        <ele>776.69</ele>
        <time>2026-08-21T08:15:04.983Z</time>
      </trkpt>
      <trkpt lat="45.051" lon="2.49216">
        <ele>776.57</ele>
        <time>2026-08-21T08:15:05.986Z</time>
      </trkpt>
      <trkpt lat="45.05098" lon="2.49221">
        <ele>776.45</ele>
        <time>2026-08-21T08:15:06.986Z</time>
      </trkpt>
      <trkpt lat="45.05095" lon="2.49226">
        <ele>776.3</ele>
        <time>2026-08-21T08:15:07.990Z</time>
      </trkpt>
      <trkpt lat="45.05093" lon="2.49229">
        <ele>776.09</ele>
        <time>2026-08-21T08:15:08.991Z</time>
      </trkpt>
      <trkpt lat="45.05091" lon="2.49232">
        <ele>775.96</ele>
        <time>2026-08-21T08:15:09.994Z</time>
      </trkpt>
      <trkpt lat="45.05089" lon="2.49235">
        <ele>775.85</ele>
        <time>2026-08-21T08:15:10.997Z</time>
      </trkpt>
      <trkpt lat="45.05087" lon="2.49238">
        <ele>775.68</ele>
        <time>2026-08-21T08:15:11.998Z</time>
      </trkpt>
      <trkpt lat="45.05085" lon="2.49241">
        <ele>775.53</ele>
        <time>2026-08-21T08:15:13.001Z</time>
      </trkpt>
      <trkpt lat="45.05083" lon="2.49244">
        <ele>775.37</ele>
        <time>2026-08-21T08:15:14.002Z</time>
      </trkpt>
      <trkpt lat="45.05082" lon="2.49247">
        <ele>775.21</ele>
        <time>2026-08-21T08:15:15.004Z</time>
      </trkpt>
      <trkpt lat="45.05082" lon="2.4925">
        <ele>775.07</ele>
        <time>2026-08-21T08:15:15.078Z</time>
      </trkpt>
      <trkpt lat="45.05081" lon="2.49252">
        <ele>774.92</ele>
        <time>2026-08-21T08:15:16.087Z</time>
      </trkpt>
      <trkpt lat="45.0508" lon="2.49255">
        <ele>774.78</ele>
        <time>2026-08-21T08:15:17.077Z</time>
      </trkpt>
      <trkpt lat="45.0508" lon="2.49257">
        <ele>774.66</ele>
        <time>2026-08-21T08:15:18.105Z</time>
      </trkpt>
      <trkpt lat="45.0508" lon="2.4926">
        <ele>774.54</ele>
        <time>2026-08-21T08:15:19.071Z</time>
      </trkpt>
      <trkpt lat="45.0508" lon="2.49265">
        <ele>774.42</ele>
        <time>2026-08-21T08:15:21.066Z</time>
      </trkpt>
      <trkpt lat="45.0508" lon="2.49267">
        <ele>774.23</ele>
        <time>2026-08-21T08:15:22.087Z</time>
      </trkpt>
      <trkpt lat="45.0508" lon="2.4927">
        <ele>774.15</ele>
        <time>2026-08-21T08:15:23.089Z</time>
      </trkpt>
      <trkpt lat="45.0508" lon="2.49275">
        <ele>774.05</ele>
        <time>2026-08-21T08:15:25.053Z</time>
      </trkpt>
      <trkpt lat="45.0508" lon="2.49278">
        <ele>773.9</ele>
        <time>2026-08-21T08:15:26.089Z</time>
      </trkpt>
      <trkpt lat="45.0508" lon="2.4928">
        <ele>773.84</ele>
        <time>2026-08-21T08:15:27.078Z</time>
      </trkpt>
      <trkpt lat="45.05081" lon="2.49283">
        <ele>773.79</ele>
        <time>2026-08-21T08:15:28.102Z</time>
      </trkpt>
      <trkpt lat="45.05081" lon="2.49285">
        <ele>773.74</ele>
        <time>2026-08-21T08:15:29.085Z</time>
      </trkpt>
      <trkpt lat="45.05082" lon="2.49288">
        <ele>773.71</ele>
        <time>2026-08-21T08:15:30.622Z</time>
      </trkpt>
      <trkpt lat="45.05084" lon="2.49292">
        <ele>773.67</ele>
        <time>2026-08-21T08:15:32.064Z</time>
      </trkpt>
      <trkpt lat="45.05086" lon="2.49292">
        <ele>773.62</ele>
        <time>2026-08-21T08:15:33.083Z</time>
      </trkpt>
      <trkpt lat="45.0509" lon="2.49291">
        <ele>773.6</ele>
        <time>2026-08-21T08:15:35.081Z</time>
      </trkpt>
      <trkpt lat="45.05093" lon="2.4929">
        <ele>773.56</ele>
        <time>2026-08-21T08:15:36.095Z</time>
      </trkpt>
      <trkpt lat="45.05094" lon="2.49289">
        <ele>773.56</ele>
        <time>2026-08-21T08:15:37.094Z</time>
      </trkpt>
      <trkpt lat="45.05098" lon="2.49288">
        <ele>773.56</ele>
        <time>2026-08-21T08:15:39.090Z</time>
      </trkpt>
      <trkpt lat="45.05102" lon="2.49287">
        <ele>773.59</ele>
        <time>2026-08-21T08:15:41.092Z</time>
      </trkpt>
      <trkpt lat="45.05104" lon="2.49286">
        <ele>773.61</ele>
        <time>2026-08-21T08:15:42.050Z</time>
      </trkpt>
      <trkpt lat="45.05106" lon="2.49286">
        <ele>773.65</ele>
        <time>2026-08-21T08:15:43.051Z</time>
      </trkpt>
      <trkpt lat="45.05108" lon="2.49285">
        <ele>773.68</ele>
        <time>2026-08-21T08:15:43.946Z</time>
      </trkpt>
      <trkpt lat="45.0511" lon="2.49285">
        <ele>773.7</ele>
        <time>2026-08-21T08:15:45.053Z</time>
      </trkpt>
      <trkpt lat="45.05113" lon="2.49285">
        <ele>773.74</ele>
        <time>2026-08-21T08:15:46.643Z</time>
      </trkpt>
      <trkpt lat="45.05117" lon="2.49284">
        <ele>773.83</ele>
        <time>2026-08-21T08:15:48.113Z</time>
      </trkpt>
      <trkpt lat="45.0512" lon="2.49283">
        <ele>773.87</ele>
        <time>2026-08-21T08:15:49.468Z</time>
      </trkpt>
      <trkpt lat="45.05122" lon="2.49282">
        <ele>773.97</ele>
        <time>2026-08-21T08:15:51.061Z</time>
      </trkpt>
      <trkpt lat="45.05125" lon="2.49282">
        <ele>774.04</ele>
        <time>2026-08-21T08:15:52.110Z</time>
      </trkpt>
      <trkpt lat="45.05129" lon="2.4928">
        <ele>774.09</ele>
        <time>2026-08-21T08:15:54.105Z</time>
      </trkpt>
      <trkpt lat="45.0513" lon="2.4928">
        <ele>774.24</ele>
        <time>2026-08-21T08:15:55.063Z</time>
      </trkpt>
      <trkpt lat="45.05132" lon="2.4928">
        <ele>774.32</ele>
        <time>2026-08-21T08:15:55.469Z</time>
      </trkpt>
      <trkpt lat="45.05134" lon="2.49279">
        <ele>774.41</ele>
        <time>2026-08-21T08:15:57.067Z</time>
      </trkpt>
      <trkpt lat="45.05136" lon="2.49279">
        <ele>774.51</ele>
        <time>2026-08-21T08:15:57.138Z</time>
      </trkpt>
      <trkpt lat="45.05137" lon="2.49278">
        <ele>774.58</ele>
        <time>2026-08-21T08:15:59.071Z</time>
      </trkpt>
      <trkpt lat="45.05139" lon="2.49278">
        <ele>774.66</ele>
        <time>2026-08-21T08:15:59.749Z</time>
      </trkpt>
      <trkpt lat="45.05143" lon="2.49277">
        <ele>774.76</ele>
        <time>2026-08-21T08:16:02.092Z</time>
      </trkpt>
      <trkpt lat="45.05145" lon="2.49279">
        <ele>775.03</ele>
        <time>2026-08-21T08:16:03.075Z</time>
      </trkpt>
      <trkpt lat="45.05146" lon="2.49279">
        <ele>775.16</ele>
        <time>2026-08-21T08:16:03.702Z</time>
      </trkpt>
      <trkpt lat="45.05148" lon="2.49281">
        <ele>775.32</ele>
        <time>2026-08-21T08:16:04.760Z</time>
      </trkpt>
      <trkpt lat="45.05149" lon="2.49283">
        <ele>775.48</ele>
        <time>2026-08-21T08:16:06.030Z</time>
      </trkpt>
      <trkpt lat="45.0515" lon="2.49285">
        <ele>775.65</ele>
        <time>2026-08-21T08:16:07.081Z</time>
      </trkpt>
      <trkpt lat="45.05151" lon="2.49287">
        <ele>775.82</ele>
        <time>2026-08-21T08:16:08.083Z</time>
      </trkpt>
      <trkpt lat="45.05153" lon="2.4929">
        <ele>776.06</ele>
        <time>2026-08-21T08:16:09.084Z</time>
      </trkpt>
      <trkpt lat="45.05154" lon="2.49292">
        <ele>776.28</ele>
        <time>2026-08-21T08:16:10.086Z</time>
      </trkpt>
      <trkpt lat="45.05155" lon="2.49294">
        <ele>776.53</ele>
        <time>2026-08-21T08:16:11.087Z</time>
      </trkpt>
      <trkpt lat="45.05156" lon="2.49296">
        <ele>776.78</ele>
        <time>2026-08-21T08:16:12.089Z</time>
      </trkpt>
      <trkpt lat="45.05158" lon="2.49298">
        <ele>777.04</ele>
        <time>2026-08-21T08:16:13.090Z</time>
      </trkpt>
      <trkpt lat="45.05159" lon="2.493">
        <ele>777.29</ele>
        <time>2026-08-21T08:16:14.092Z</time>
      </trkpt>
      <trkpt lat="45.0516" lon="2.49301">
        <ele>777.55</ele>
        <time>2026-08-21T08:16:14.987Z</time>
      </trkpt>
      <trkpt lat="45.05161" lon="2.49303">
        <ele>777.82</ele>
        <time>2026-08-21T08:16:16.096Z</time>
      </trkpt>
      <trkpt lat="45.05162" lon="2.49305">
        <ele>778.09</ele>
        <time>2026-08-21T08:16:17.099Z</time>
      </trkpt>
      <trkpt lat="45.05163" lon="2.49307">
        <ele>778.41</ele>
        <time>2026-08-21T08:16:18.101Z</time>
      </trkpt>
      <trkpt lat="45.05164" lon="2.49309">
        <ele>778.7</ele>
        <time>2026-08-21T08:16:19.062Z</time>
      </trkpt>
      <trkpt lat="45.05165" lon="2.49311">
        <ele>779.02</ele>
        <time>2026-08-21T08:16:20.104Z</time>
      </trkpt>
      <trkpt lat="45.05166" lon="2.49313">
        <ele>779.31</ele>
        <time>2026-08-21T08:16:21.106Z</time>
      </trkpt>
      <trkpt lat="45.05167" lon="2.49315">
        <ele>779.61</ele>
        <time>2026-08-21T08:16:22.108Z</time>
      </trkpt>
      <trkpt lat="45.05169" lon="2.49319">
        <ele>780.25</ele>
        <time>2026-08-21T08:16:23.966Z</time>
      </trkpt>
      <trkpt lat="45.05168" lon="2.49321">
        <ele>781.19</ele>
        <time>2026-08-21T08:16:34.825Z</time>
      </trkpt>
      <trkpt lat="45.05169" lon="2.49323">
        <ele>781.19</ele>
        <time>2026-08-21T08:16:55.696Z</time>
      </trkpt>
      <trkpt lat="45.05168" lon="2.49325">
        <ele>781.19</ele>
        <time>2026-08-21T08:16:59.562Z</time>
      </trkpt>
      <trkpt lat="45.05169" lon="2.49327">
        <ele>781.19</ele>
        <time>2026-08-21T08:17:23.097Z</time>
      </trkpt>
      <trkpt lat="45.0517" lon="2.49329">
        <ele>781.19</ele>
        <time>2026-08-21T08:17:24.744Z</time>
      </trkpt>
      <trkpt lat="45.0517" lon="2.49331">
        <ele>781.19</ele>
        <time>2026-08-21T08:17:27.008Z</time>
      </trkpt>
      <trkpt lat="45.0517" lon="2.49333">
        <ele>781.19</ele>
        <time>2026-08-21T08:17:27.090Z</time>
      </trkpt>
      <trkpt lat="45.05171" lon="2.49339">
        <ele>781.19</ele>
        <time>2026-08-21T08:17:28.118Z</time>
      </trkpt>
      <trkpt lat="45.05171" lon="2.49342">
        <ele>785.76</ele>
        <time>2026-08-21T08:17:30.978Z</time>
      </trkpt>
      <trkpt lat="45.05171" lon="2.49347">
        <ele>786.08</ele>
        <time>2026-08-21T08:17:46.770Z</time>
      </trkpt>
      <trkpt lat="45.05171" lon="2.4935">
        <ele>787</ele>
        <time>2026-08-21T08:17:48.768Z</time>
      </trkpt>
      <trkpt lat="45.05171" lon="2.49352">
        <ele>787.05</ele>
        <time>2026-08-21T08:17:49.770Z</time>
      </trkpt>
      <trkpt lat="45.05171" lon="2.49355">
        <ele>787.14</ele>
        <time>2026-08-21T08:17:49.824Z</time>
      </trkpt>
      <trkpt lat="45.05171" lon="2.49358">
        <ele>787.24</ele>
        <time>2026-08-21T08:17:50.803Z</time>
      </trkpt>
      <trkpt lat="45.05171" lon="2.4936">
        <ele>787.34</ele>
        <time>2026-08-21T08:17:52.532Z</time>
      </trkpt>
      <trkpt lat="45.05172" lon="2.49363">
        <ele>787.41</ele>
        <time>2026-08-21T08:17:53.783Z</time>
      </trkpt>
      <trkpt lat="45.05172" lon="2.49366">
        <ele>787.51</ele>
        <time>2026-08-21T08:17:53.822Z</time>
      </trkpt>
      <trkpt lat="45.05172" lon="2.49368">
        <ele>787.64</ele>
        <time>2026-08-21T08:17:55.775Z</time>
      </trkpt>
      <trkpt lat="45.05172" lon="2.49372">
        <ele>787.73</ele>
        <time>2026-08-21T08:17:56.787Z</time>
      </trkpt>
      <trkpt lat="45.05171" lon="2.49376">
        <ele>787.86</ele>
        <time>2026-08-21T08:17:56.874Z</time>
      </trkpt>
      <trkpt lat="45.05172" lon="2.4938">
        <ele>788.01</ele>
        <time>2026-08-21T08:17:57.818Z</time>
      </trkpt>
      <trkpt lat="45.05172" lon="2.49383">
        <ele>788.14</ele>
        <time>2026-08-21T08:17:59.782Z</time>
      </trkpt>
      <trkpt lat="45.05172" lon="2.49387">
        <ele>788.33</ele>
        <time>2026-08-21T08:18:00.381Z</time>
      </trkpt>
      <trkpt lat="45.05173" lon="2.49391">
        <ele>788.44</ele>
        <time>2026-08-21T08:18:00.881Z</time>
      </trkpt>
      <trkpt lat="45.05173" lon="2.49395">
        <ele>788.54</ele>
        <time>2026-08-21T08:18:02.788Z</time>
      </trkpt>
      <trkpt lat="45.05174" lon="2.49399">
        <ele>788.72</ele>
        <time>2026-08-21T08:18:03.497Z</time>
      </trkpt>
      <trkpt lat="45.05174" lon="2.49403">
        <ele>788.91</ele>
        <time>2026-08-21T08:18:03.817Z</time>
      </trkpt>
      <trkpt lat="45.05174" lon="2.49406">
        <ele>789.07</ele>
        <time>2026-08-21T08:18:05.787Z</time>
      </trkpt>
      <trkpt lat="45.05175" lon="2.4941">
        <ele>789.22</ele>
        <time>2026-08-21T08:18:06.811Z</time>
      </trkpt>
      <trkpt lat="45.05175" lon="2.49413">
        <ele>789.39</ele>
        <time>2026-08-21T08:18:06.827Z</time>
      </trkpt>
      <trkpt lat="45.05175" lon="2.49417">
        <ele>789.65</ele>
        <time>2026-08-21T08:18:08.784Z</time>
      </trkpt>
      <trkpt lat="45.05175" lon="2.4942">
        <ele>789.91</ele>
        <time>2026-08-21T08:18:08.906Z</time>
      </trkpt>
      <trkpt lat="45.05175" lon="2.49423">
        <ele>790.25</ele>
        <time>2026-08-21T08:18:10.277Z</time>
      </trkpt>
      <trkpt lat="45.05175" lon="2.49426">
        <ele>790.6</ele>
        <time>2026-08-21T08:18:11.799Z</time>
      </trkpt>
      <trkpt lat="45.05175" lon="2.49429">
        <ele>790.9</ele>
        <time>2026-08-21T08:18:12.729Z</time>
      </trkpt>
      <trkpt lat="45.05175" lon="2.49432">
        <ele>791.3</ele>
        <time>2026-08-21T08:18:13.732Z</time>
      </trkpt>
      <trkpt lat="45.05175" lon="2.49435">
        <ele>791.59</ele>
        <time>2026-08-21T08:18:14.737Z</time>
      </trkpt>
      <trkpt lat="45.05174" lon="2.49438">
        <ele>791.94</ele>
        <time>2026-08-21T08:18:15.737Z</time>
      </trkpt>
      <trkpt lat="45.05174" lon="2.49441">
        <ele>792.34</ele>
        <time>2026-08-21T08:18:16.772Z</time>
      </trkpt>
      <trkpt lat="45.05174" lon="2.49443">
        <ele>792.71</ele>
        <time>2026-08-21T08:18:17.743Z</time>
      </trkpt>
      <trkpt lat="45.05174" lon="2.49445">
        <ele>793.23</ele>
        <time>2026-08-21T08:18:18.818Z</time>
      </trkpt>
      <trkpt lat="45.05173" lon="2.49447">
        <ele>793.65</ele>
        <time>2026-08-21T08:18:19.748Z</time>
      </trkpt>
      <trkpt lat="45.05172" lon="2.4945">
        <ele>794.08</ele>
        <time>2026-08-21T08:18:20.789Z</time>
      </trkpt>
      <trkpt lat="45.05172" lon="2.49452">
        <ele>794.53</ele>
        <time>2026-08-21T08:18:21.752Z</time>
      </trkpt>
      <trkpt lat="45.05171" lon="2.49454">
        <ele>795.02</ele>
        <time>2026-08-21T08:18:22.756Z</time>
      </trkpt>
      <trkpt lat="45.05171" lon="2.49457">
        <ele>795.37</ele>
        <time>2026-08-21T08:18:23.756Z</time>
      </trkpt>
      <trkpt lat="45.0517" lon="2.4946">
        <ele>795.74</ele>
        <time>2026-08-21T08:18:24.758Z</time>
      </trkpt>
      <trkpt lat="45.0517" lon="2.49463">
        <ele>796.14</ele>
        <time>2026-08-21T08:18:25.188Z</time>
      </trkpt>
      <trkpt lat="45.05169" lon="2.49466">
        <ele>796.57</ele>
        <time>2026-08-21T08:18:26.785Z</time>
      </trkpt>
      <trkpt lat="45.05169" lon="2.49469">
        <ele>797.03</ele>
        <time>2026-08-21T08:18:27.767Z</time>
      </trkpt>
      <trkpt lat="45.05168" lon="2.49472">
        <ele>797.42</ele>
        <time>2026-08-21T08:18:28.770Z</time>
      </trkpt>
      <trkpt lat="45.05167" lon="2.49475">
        <ele>797.84</ele>
        <time>2026-08-21T08:18:29.769Z</time>
      </trkpt>
      <trkpt lat="45.05167" lon="2.49478">
        <ele>798.23</ele>
        <time>2026-08-21T08:18:30.771Z</time>
      </trkpt>
      <trkpt lat="45.05167" lon="2.49482">
        <ele>798.67</ele>
        <time>2026-08-21T08:18:31.708Z</time>
      </trkpt>
      <trkpt lat="45.05167" lon="2.49485">
        <ele>799.04</ele>
        <time>2026-08-21T08:18:32.775Z</time>
      </trkpt>
      <trkpt lat="45.05167" lon="2.49488">
        <ele>799.39</ele>
        <time>2026-08-21T08:18:33.778Z</time>
      </trkpt>
      <trkpt lat="45.05167" lon="2.49492">
        <ele>799.71</ele>
        <time>2026-08-21T08:18:34.832Z</time>
      </trkpt>
      <trkpt lat="45.05167" lon="2.49495">
        <ele>799.98</ele>
        <time>2026-08-21T08:18:35.720Z</time>
      </trkpt>
      <trkpt lat="45.05167" lon="2.49497">
        <ele>800.31</ele>
        <time>2026-08-21T08:18:36.783Z</time>
      </trkpt>
      <trkpt lat="45.05167" lon="2.495">
        <ele>800.67</ele>
        <time>2026-08-21T08:18:37.784Z</time>
      </trkpt>
      <trkpt lat="45.05168" lon="2.49502">
        <ele>801</ele>
        <time>2026-08-21T08:18:38.785Z</time>
      </trkpt>
      <trkpt lat="45.05169" lon="2.49503">
        <ele>801.29</ele>
        <time>2026-08-21T08:18:39.786Z</time>
      </trkpt>
      <trkpt lat="45.0517" lon="2.49506">
        <ele>801.59</ele>
        <time>2026-08-21T08:18:40.401Z</time>
      </trkpt>
      <trkpt lat="45.05171" lon="2.49508">
        <ele>801.87</ele>
        <time>2026-08-21T08:18:41.825Z</time>
      </trkpt>
      <trkpt lat="45.05172" lon="2.4951">
        <ele>802.12</ele>
        <time>2026-08-21T08:18:42.790Z</time>
      </trkpt>
      <trkpt lat="45.05173" lon="2.49512">
        <ele>802.38</ele>
        <time>2026-08-21T08:18:43.790Z</time>
      </trkpt>
      <trkpt lat="45.05174" lon="2.49514">
        <ele>802.61</ele>
        <time>2026-08-21T08:18:43.882Z</time>
      </trkpt>
      <trkpt lat="45.05175" lon="2.49516">
        <ele>802.9</ele>
        <time>2026-08-21T08:18:45.791Z</time>
      </trkpt>
      <trkpt lat="45.05178" lon="2.49521">
        <ele>803.44</ele>
        <time>2026-08-21T08:18:47.721Z</time>
      </trkpt>
      <trkpt lat="45.05179" lon="2.49522">
        <ele>803.67</ele>
        <time>2026-08-21T08:18:48.814Z</time>
      </trkpt>
      <trkpt lat="45.0518" lon="2.49524">
        <ele>803.9</ele>
        <time>2026-08-21T08:18:49.795Z</time>
      </trkpt>
      <trkpt lat="45.05181" lon="2.49525">
        <ele>804.12</ele>
        <time>2026-08-21T08:18:50.796Z</time>
      </trkpt>
      <trkpt lat="45.05182" lon="2.49527">
        <ele>804.34</ele>
        <time>2026-08-21T08:18:51.798Z</time>
      </trkpt>
      <trkpt lat="45.05184" lon="2.49528">
        <ele>804.6</ele>
        <time>2026-08-21T08:18:52.800Z</time>
      </trkpt>
      <trkpt lat="45.05186" lon="2.49529">
        <ele>804.82</ele>
        <time>2026-08-21T08:18:53.827Z</time>
      </trkpt>
      <trkpt lat="45.05188" lon="2.49529">
        <ele>805.05</ele>
        <time>2026-08-21T08:18:54.801Z</time>
      </trkpt>
      <trkpt lat="45.05189" lon="2.4953">
        <ele>805.27</ele>
        <time>2026-08-21T08:18:55.773Z</time>
      </trkpt>
      <trkpt lat="45.05191" lon="2.49531">
        <ele>805.5</ele>
        <time>2026-08-21T08:18:56.660Z</time>
      </trkpt>
      <trkpt lat="45.05193" lon="2.49532">
        <ele>805.71</ele>
        <time>2026-08-21T08:18:56.883Z</time>
      </trkpt>
      <trkpt lat="45.05195" lon="2.49533">
        <ele>805.88</ele>
        <time>2026-08-21T08:18:58.808Z</time>
      </trkpt>
      <trkpt lat="45.05196" lon="2.49534">
        <ele>806.05</ele>
        <time>2026-08-21T08:18:59.809Z</time>
      </trkpt>
      <trkpt lat="45.05199" lon="2.49535">
        <ele>806.27</ele>
        <time>2026-08-21T08:19:00.810Z</time>
      </trkpt>
      <trkpt lat="45.05201" lon="2.49536">
        <ele>806.45</ele>
        <time>2026-08-21T08:19:01.782Z</time>
      </trkpt>
      <trkpt lat="45.05202" lon="2.49537">
        <ele>806.68</ele>
        <time>2026-08-21T08:19:01.899Z</time>
      </trkpt>
      <trkpt lat="45.05204" lon="2.49537">
        <ele>806.91</ele>
        <time>2026-08-21T08:19:02.902Z</time>
      </trkpt>
      <trkpt lat="45.05206" lon="2.49538">
        <ele>807.14</ele>
        <time>2026-08-21T08:19:04.815Z</time>
      </trkpt>
      <trkpt lat="45.05207" lon="2.49539">
        <ele>807.37</ele>
        <time>2026-08-21T08:19:04.884Z</time>
      </trkpt>
      <trkpt lat="45.05209" lon="2.49539">
        <ele>807.58</ele>
        <time>2026-08-21T08:19:05.914Z</time>
      </trkpt>
      <trkpt lat="45.05211" lon="2.4954">
        <ele>807.83</ele>
        <time>2026-08-21T08:19:06.884Z</time>
      </trkpt>
      <trkpt lat="45.05212" lon="2.49541">
        <ele>808.1</ele>
        <time>2026-08-21T08:19:07.896Z</time>
      </trkpt>
      <trkpt lat="45.05214" lon="2.49541">
        <ele>808.39</ele>
        <time>2026-08-21T08:19:08.909Z</time>
      </trkpt>
      <trkpt lat="45.05216" lon="2.49542">
        <ele>808.6</ele>
        <time>2026-08-21T08:19:10.823Z</time>
      </trkpt>
      <trkpt lat="45.05217" lon="2.49542">
        <ele>808.88</ele>
        <time>2026-08-21T08:19:11.825Z</time>
      </trkpt>
      <trkpt lat="45.05219" lon="2.49543">
        <ele>809.2</ele>
        <time>2026-08-21T08:19:11.903Z</time>
      </trkpt>
      <trkpt lat="45.0522" lon="2.49544">
        <ele>809.52</ele>
        <time>2026-08-21T08:19:13.827Z</time>
      </trkpt>
      <trkpt lat="45.05225" lon="2.49545">
        <ele>810.17</ele>
        <time>2026-08-21T08:19:15.831Z</time>
      </trkpt>
      <trkpt lat="45.05227" lon="2.49545">
        <ele>810.46</ele>
        <time>2026-08-21T08:19:15.927Z</time>
      </trkpt>
      <trkpt lat="45.05228" lon="2.49544">
        <ele>810.8</ele>
        <time>2026-08-21T08:19:16.895Z</time>
      </trkpt>
      <trkpt lat="45.0523" lon="2.49544">
        <ele>811.08</ele>
        <time>2026-08-21T08:19:18.835Z</time>
      </trkpt>
      <trkpt lat="45.05232" lon="2.49543">
        <ele>811.38</ele>
        <time>2026-08-21T08:19:18.930Z</time>
      </trkpt>
      <trkpt lat="45.05233" lon="2.49543">
        <ele>811.69</ele>
        <time>2026-08-21T08:19:20.840Z</time>
      </trkpt>
      <trkpt lat="45.05235" lon="2.49542">
        <ele>811.95</ele>
        <time>2026-08-21T08:19:21.744Z</time>
      </trkpt>
      <trkpt lat="45.05236" lon="2.49542">
        <ele>812.26</ele>
        <time>2026-08-21T08:19:21.926Z</time>
      </trkpt>
      <trkpt lat="45.05239" lon="2.49541">
        <ele>812.58</ele>
        <time>2026-08-21T08:19:22.940Z</time>
      </trkpt>
      <trkpt lat="45.05241" lon="2.4954">
        <ele>812.86</ele>
        <time>2026-08-21T08:19:24.845Z</time>
      </trkpt>
      <trkpt lat="45.05242" lon="2.4954">
        <ele>813.16</ele>
        <time>2026-08-21T08:19:25.524Z</time>
      </trkpt>
      <trkpt lat="45.05244" lon="2.49539">
        <ele>813.43</ele>
        <time>2026-08-21T08:19:25.945Z</time>
      </trkpt>
      <trkpt lat="45.05245" lon="2.49539">
        <ele>813.72</ele>
        <time>2026-08-21T08:19:26.922Z</time>
      </trkpt>
      <trkpt lat="45.05247" lon="2.49539">
        <ele>814.04</ele>
        <time>2026-08-21T08:19:28.847Z</time>
      </trkpt>
      <trkpt lat="45.05249" lon="2.49538">
        <ele>814.34</ele>
        <time>2026-08-21T08:19:29.850Z</time>
      </trkpt>
      <trkpt lat="45.05251" lon="2.49537">
        <ele>814.61</ele>
        <time>2026-08-21T08:19:30.851Z</time>
      </trkpt>
      <trkpt lat="45.05253" lon="2.49536">
        <ele>814.85</ele>
        <time>2026-08-21T08:19:31.887Z</time>
      </trkpt>
      <trkpt lat="45.05254" lon="2.49535">
        <ele>815.1</ele>
        <time>2026-08-21T08:19:32.855Z</time>
      </trkpt>
      <trkpt lat="45.05256" lon="2.49535">
        <ele>815.38</ele>
        <time>2026-08-21T08:19:33.856Z</time>
      </trkpt>
      <trkpt lat="45.05258" lon="2.49534">
        <ele>815.67</ele>
        <time>2026-08-21T08:19:34.461Z</time>
      </trkpt>
      <trkpt lat="45.05259" lon="2.49534">
        <ele>815.99</ele>
        <time>2026-08-21T08:19:35.856Z</time>
      </trkpt>
      <trkpt lat="45.05261" lon="2.49534">
        <ele>816.28</ele>
        <time>2026-08-21T08:19:36.858Z</time>
      </trkpt>
      <trkpt lat="45.05266" lon="2.49532">
        <ele>816.88</ele>
        <time>2026-08-21T08:19:38.859Z</time>
      </trkpt>
      <trkpt lat="45.05267" lon="2.49532">
        <ele>817.19</ele>
        <time>2026-08-21T08:19:39.859Z</time>
      </trkpt>
      <trkpt lat="45.05268" lon="2.49531">
        <ele>817.49</ele>
        <time>2026-08-21T08:19:39.928Z</time>
      </trkpt>
      <trkpt lat="45.0527" lon="2.4953">
        <ele>817.78</ele>
        <time>2026-08-21T08:19:41.910Z</time>
      </trkpt>
      <trkpt lat="45.05271" lon="2.4953">
        <ele>818.08</ele>
        <time>2026-08-21T08:19:42.861Z</time>
      </trkpt>
      <trkpt lat="45.05273" lon="2.49529">
        <ele>818.39</ele>
        <time>2026-08-21T08:19:42.941Z</time>
      </trkpt>
      <trkpt lat="45.05275" lon="2.49528">
        <ele>818.68</ele>
        <time>2026-08-21T08:19:44.865Z</time>
      </trkpt>
      <trkpt lat="45.05276" lon="2.49527">
        <ele>818.98</ele>
        <time>2026-08-21T08:19:45.499Z</time>
      </trkpt>
      <trkpt lat="45.05278" lon="2.49526">
        <ele>819.32</ele>
        <time>2026-08-21T08:19:46.889Z</time>
      </trkpt>
      <trkpt lat="45.0528" lon="2.49526">
        <ele>819.66</ele>
        <time>2026-08-21T08:19:47.868Z</time>
      </trkpt>
      <trkpt lat="45.05281" lon="2.49525">
        <ele>819.96</ele>
        <time>2026-08-21T08:19:48.868Z</time>
      </trkpt>
      <trkpt lat="45.05283" lon="2.49524">
        <ele>820.29</ele>
        <time>2026-08-21T08:19:49.869Z</time>
      </trkpt>
      <trkpt lat="45.05285" lon="2.49523">
        <ele>820.62</ele>
        <time>2026-08-21T08:19:50.905Z</time>
      </trkpt>
      <trkpt lat="45.05288" lon="2.49521">
        <ele>821.29</ele>
        <time>2026-08-21T08:19:52.871Z</time>
      </trkpt>
      <trkpt lat="45.05289" lon="2.49521">
        <ele>821.64</ele>
        <time>2026-08-21T08:19:53.873Z</time>
      </trkpt>
      <trkpt lat="45.0529" lon="2.49521">
        <ele>822.04</ele>
        <time>2026-08-21T08:19:54.872Z</time>
      </trkpt>
      <trkpt lat="45.05292" lon="2.49521">
        <ele>822.39</ele>
        <time>2026-08-21T08:19:54.936Z</time>
      </trkpt>
      <trkpt lat="45.05293" lon="2.49521">
        <ele>822.73</ele>
        <time>2026-08-21T08:19:56.913Z</time>
      </trkpt>
      <trkpt lat="45.05294" lon="2.49521">
        <ele>823.08</ele>
        <time>2026-08-21T08:19:57.440Z</time>
      </trkpt>
      <trkpt lat="45.05296" lon="2.49521">
        <ele>823.43</ele>
        <time>2026-08-21T08:19:58.462Z</time>
      </trkpt>
      <trkpt lat="45.05299" lon="2.49521">
        <ele>824.11</ele>
        <time>2026-08-21T08:20:00.797Z</time>
      </trkpt>
      <trkpt lat="45.05301" lon="2.49521">
        <ele>824.38</ele>
        <time>2026-08-21T08:20:01.885Z</time>
      </trkpt>
      <trkpt lat="45.05302" lon="2.49521">
        <ele>824.71</ele>
        <time>2026-08-21T08:20:01.953Z</time>
      </trkpt>
      <trkpt lat="45.05305" lon="2.49522">
        <ele>825.31</ele>
        <time>2026-08-21T08:20:04.880Z</time>
      </trkpt>
      <trkpt lat="45.05306" lon="2.49523">
        <ele>825.64</ele>
        <time>2026-08-21T08:20:05.881Z</time>
      </trkpt>
      <trkpt lat="45.05307" lon="2.49525">
        <ele>826.29</ele>
        <time>2026-08-21T08:20:07.886Z</time>
      </trkpt>
      <trkpt lat="45.0531" lon="2.49525">
        <ele>827.3</ele>
        <time>2026-08-21T08:20:20.906Z</time>
      </trkpt>
      <trkpt lat="45.0531" lon="2.49526">
        <ele>827.3</ele>
        <time>2026-08-21T08:20:45.952Z</time>
      </trkpt>
      <trkpt lat="45.05312" lon="2.4953">
        <ele>827.3</ele>
        <time>2026-08-21T08:21:14.087Z</time>
      </trkpt>
      <trkpt lat="45.05312" lon="2.49533">
        <ele>827.3</ele>
        <time>2026-08-21T08:21:18.079Z</time>
      </trkpt>
      <trkpt lat="45.05313" lon="2.49536">
        <ele>827.3</ele>
        <time>2026-08-21T08:22:37.111Z</time>
      </trkpt>
      <trkpt lat="45.05312" lon="2.49536">
        <ele>827.3</ele>
        <time>2026-08-21T08:22:38.951Z</time>
      </trkpt>
      <trkpt lat="45.05313" lon="2.49536">
        <ele>827.3</ele>
        <time>2026-08-21T08:22:43.852Z</time>
      </trkpt>
      <trkpt lat="45.05312" lon="2.49535">
        <ele>827.3</ele>
        <time>2026-08-21T08:22:45.866Z</time>
      </trkpt>
      <trkpt lat="45.05312" lon="2.49531">
        <ele>827.3</ele>
        <time>2026-08-21T08:22:50.051Z</time>
      </trkpt>
      <trkpt lat="45.05312" lon="2.4953">
        <ele>827.3</ele>
        <time>2026-08-21T08:23:08.554Z</time>
      </trkpt>
      <trkpt lat="45.05311" lon="2.49529">
        <ele>827.3</ele>
        <time>2026-08-21T08:23:38.107Z</time>
      </trkpt>
      <trkpt lat="45.05309" lon="2.4953">
        <ele>827.3</ele>
        <time>2026-08-21T08:23:41.035Z</time>
      </trkpt>
      <trkpt lat="45.05307" lon="2.49529">
        <ele>827.3</ele>
        <time>2026-08-21T08:23:42.042Z</time>
      </trkpt>
      <trkpt lat="45.05303" lon="2.49526">
        <ele>827.3</ele>
        <time>2026-08-21T08:23:43.037Z</time>
      </trkpt>
      <trkpt lat="45.05299" lon="2.49525">
        <ele>827.3</ele>
        <time>2026-08-21T08:23:44.040Z</time>
      </trkpt>
      <trkpt lat="45.05294" lon="2.49524">
        <ele>827.3</ele>
        <time>2026-08-21T08:23:45.041Z</time>
      </trkpt>
      <trkpt lat="45.0529" lon="2.49524">
        <ele>827.3</ele>
        <time>2026-08-21T08:23:46.041Z</time>
      </trkpt>
      <trkpt lat="45.05285" lon="2.49525">
        <ele>833.4</ele>
        <time>2026-08-21T08:23:47.044Z</time>
      </trkpt>
      <trkpt lat="45.0528" lon="2.49527">
        <ele>832.89</ele>
        <time>2026-08-21T08:23:48.041Z</time>
      </trkpt>
      <trkpt lat="45.05274" lon="2.49529">
        <ele>832.76</ele>
        <time>2026-08-21T08:23:48.693Z</time>
      </trkpt>
      <trkpt lat="45.05268" lon="2.49531">
        <ele>832.34</ele>
        <time>2026-08-21T08:23:50.041Z</time>
      </trkpt>
      <trkpt lat="45.0526" lon="2.49535">
        <ele>832.1</ele>
        <time>2026-08-21T08:23:51.044Z</time>
      </trkpt>
      <trkpt lat="45.05252" lon="2.49539">
        <ele>831.43</ele>
        <time>2026-08-21T08:23:52.044Z</time>
      </trkpt>
      <trkpt lat="45.05243" lon="2.49542">
        <ele>831.1</ele>
        <time>2026-08-21T08:23:53.043Z</time>
      </trkpt>
      <trkpt lat="45.05233" lon="2.49544">
        <ele>830.47</ele>
        <time>2026-08-21T08:23:54.045Z</time>
      </trkpt>
      <trkpt lat="45.05225" lon="2.49545">
        <ele>830</ele>
        <time>2026-08-21T08:23:55.046Z</time>
      </trkpt>
      <trkpt lat="45.05217" lon="2.49543">
        <ele>829.42</ele>
        <time>2026-08-21T08:23:56.045Z</time>
      </trkpt>
      <trkpt lat="45.05207" lon="2.49541">
        <ele>828.76</ele>
        <time>2026-08-21T08:23:57.044Z</time>
      </trkpt>
      <trkpt lat="45.05199" lon="2.49538">
        <ele>828.53</ele>
        <time>2026-08-21T08:23:58.048Z</time>
      </trkpt>
      <trkpt lat="45.0519" lon="2.49534">
        <ele>828.12</ele>
        <time>2026-08-21T08:23:59.049Z</time>
      </trkpt>
      <trkpt lat="45.05182" lon="2.49528">
        <ele>827.64</ele>
        <time>2026-08-21T08:24:00.139Z</time>
      </trkpt>
      <trkpt lat="45.05175" lon="2.49522">
        <ele>827.17</ele>
        <time>2026-08-21T08:24:01.140Z</time>
      </trkpt>
      <trkpt lat="45.05171" lon="2.49515">
        <ele>826.63</ele>
        <time>2026-08-21T08:24:01.641Z</time>
      </trkpt>
      <trkpt lat="45.05169" lon="2.49507">
        <ele>826.21</ele>
        <time>2026-08-21T08:24:02.659Z</time>
      </trkpt>
      <trkpt lat="45.05167" lon="2.49501">
        <ele>825.73</ele>
        <time>2026-08-21T08:24:03.689Z</time>
      </trkpt>
      <trkpt lat="45.05167" lon="2.49496">
        <ele>825.19</ele>
        <time>2026-08-21T08:24:05.144Z</time>
      </trkpt>
      <trkpt lat="45.05167" lon="2.49494">
        <ele>824.68</ele>
        <time>2026-08-21T08:24:06.046Z</time>
      </trkpt>
      <trkpt lat="45.05168" lon="2.49492">
        <ele>824.2</ele>
        <time>2026-08-21T08:24:07.145Z</time>
      </trkpt>
      <trkpt lat="45.05169" lon="2.4949">
        <ele>823.72</ele>
        <time>2026-08-21T08:24:08.145Z</time>
      </trkpt>
      <trkpt lat="45.05169" lon="2.49488">
        <ele>823.21</ele>
        <time>2026-08-21T08:24:09.099Z</time>
      </trkpt>
      <trkpt lat="45.0517" lon="2.49486">
        <ele>822.75</ele>
        <time>2026-08-21T08:24:10.146Z</time>
      </trkpt>
      <trkpt lat="45.05171" lon="2.49484">
        <ele>822.29</ele>
        <time>2026-08-21T08:24:11.146Z</time>
      </trkpt>
      <trkpt lat="45.05172" lon="2.49482">
        <ele>821.84</ele>
        <time>2026-08-21T08:24:12.148Z</time>
      </trkpt>
      <trkpt lat="45.05174" lon="2.49476">
        <ele>821.02</ele>
        <time>2026-08-21T08:24:14.148Z</time>
      </trkpt>
      <trkpt lat="45.05175" lon="2.49475">
        <ele>820.65</ele>
        <time>2026-08-21T08:24:15.149Z</time>
      </trkpt>
      <trkpt lat="45.05176" lon="2.49473">
        <ele>820.3</ele>
        <time>2026-08-21T08:24:16.150Z</time>
      </trkpt>
      <trkpt lat="45.05177" lon="2.49471">
        <ele>819.94</ele>
        <time>2026-08-21T08:24:17.150Z</time>
      </trkpt>
      <trkpt lat="45.05178" lon="2.49469">
        <ele>819.58</ele>
        <time>2026-08-21T08:24:18.152Z</time>
      </trkpt>
      <trkpt lat="45.05179" lon="2.49467">
        <ele>819.23</ele>
        <time>2026-08-21T08:24:19.151Z</time>
      </trkpt>
      <trkpt lat="45.0518" lon="2.49466">
        <ele>818.94</ele>
        <time>2026-08-21T08:24:20.151Z</time>
      </trkpt>
      <trkpt lat="45.05182" lon="2.49464">
        <ele>818.7</ele>
        <time>2026-08-21T08:24:21.038Z</time>
      </trkpt>
      <trkpt lat="45.05183" lon="2.49463">
        <ele>818.42</ele>
        <time>2026-08-21T08:24:22.152Z</time>
      </trkpt>
      <trkpt lat="45.05183" lon="2.49461">
        <ele>818.13</ele>
        <time>2026-08-21T08:24:22.778Z</time>
      </trkpt>
      <trkpt lat="45.05185" lon="2.49459">
        <ele>817.9</ele>
        <time>2026-08-21T08:24:24.153Z</time>
      </trkpt>
      <trkpt lat="45.05188" lon="2.49456">
        <ele>817.53</ele>
        <time>2026-08-21T08:24:25.167Z</time>
      </trkpt>
      <trkpt lat="45.05188" lon="2.49455">
        <ele>817.35</ele>
        <time>2026-08-21T08:24:26.252Z</time>
      </trkpt>
      <trkpt lat="45.0519" lon="2.49455">
        <ele>817.2</ele>
        <time>2026-08-21T08:24:28.153Z</time>
      </trkpt>
      <trkpt lat="45.0519" lon="2.49454">
        <ele>817.07</ele>
        <time>2026-08-21T08:24:29.153Z</time>
      </trkpt>
      <trkpt lat="45.05191" lon="2.49453">
        <ele>816.97</ele>
        <time>2026-08-21T08:24:30.083Z</time>
      </trkpt>
      <trkpt lat="45.05193" lon="2.49451">
        <ele>816.89</ele>
        <time>2026-08-21T08:24:30.701Z</time>
      </trkpt>
      <trkpt lat="45.05194" lon="2.4945">
        <ele>816.83</ele>
        <time>2026-08-21T08:24:31.712Z</time>
      </trkpt>
      <trkpt lat="45.05195" lon="2.49449">
        <ele>816.77</ele>
        <time>2026-08-21T08:24:32.188Z</time>
      </trkpt>
      <trkpt lat="45.05196" lon="2.49447">
        <ele>816.7</ele>
        <time>2026-08-21T08:24:34.153Z</time>
      </trkpt>
      <trkpt lat="45.05198" lon="2.49446">
        <ele>816.68</ele>
        <time>2026-08-21T08:24:35.098Z</time>
      </trkpt>
      <trkpt lat="45.05199" lon="2.49444">
        <ele>816.67</ele>
        <time>2026-08-21T08:24:35.726Z</time>
      </trkpt>
      <trkpt lat="45.052" lon="2.49442">
        <ele>816.69</ele>
        <time>2026-08-21T08:24:37.155Z</time>
      </trkpt>
      <trkpt lat="45.052" lon="2.4944">
        <ele>816.69</ele>
        <time>2026-08-21T08:24:37.956Z</time>
      </trkpt>
      <trkpt lat="45.05201" lon="2.49437">
        <ele>816.74</ele>
        <time>2026-08-21T08:24:39.154Z</time>
      </trkpt>
      <trkpt lat="45.05202" lon="2.49435">
        <ele>816.79</ele>
        <time>2026-08-21T08:24:40.155Z</time>
      </trkpt>
      <trkpt lat="45.05203" lon="2.49432">
        <ele>816.86</ele>
        <time>2026-08-21T08:24:41.155Z</time>
      </trkpt>
      <trkpt lat="45.05204" lon="2.4943">
        <ele>816.9</ele>
        <time>2026-08-21T08:24:42.029Z</time>
      </trkpt>
      <trkpt lat="45.05205" lon="2.49427">
        <ele>816.98</ele>
        <time>2026-08-21T08:24:43.156Z</time>
      </trkpt>
      <trkpt lat="45.05206" lon="2.49425">
        <ele>817.04</ele>
        <time>2026-08-21T08:24:44.156Z</time>
      </trkpt>
      <trkpt lat="45.05206" lon="2.49423">
        <ele>817.1</ele>
        <time>2026-08-21T08:24:45.156Z</time>
      </trkpt>
      <trkpt lat="45.05208" lon="2.4942">
        <ele>817.19</ele>
        <time>2026-08-21T08:24:45.932Z</time>
      </trkpt>
      <trkpt lat="45.05209" lon="2.49418">
        <ele>817.25</ele>
        <time>2026-08-21T08:24:47.159Z</time>
      </trkpt>
      <trkpt lat="45.0521" lon="2.49417">
        <ele>817.33</ele>
        <time>2026-08-21T08:24:48.159Z</time>
      </trkpt>
      <trkpt lat="45.05211" lon="2.49415">
        <ele>817.42</ele>
        <time>2026-08-21T08:24:49.161Z</time>
      </trkpt>
      <trkpt lat="45.05212" lon="2.49414">
        <ele>817.51</ele>
        <time>2026-08-21T08:24:50.161Z</time>
      </trkpt>
      <trkpt lat="45.05213" lon="2.49412">
        <ele>817.61</ele>
        <time>2026-08-21T08:24:51.163Z</time>
      </trkpt>
      <trkpt lat="45.05214" lon="2.49409">
        <ele>817.72</ele>
        <time>2026-08-21T08:24:52.163Z</time>
      </trkpt>
      <trkpt lat="45.05216" lon="2.49407">
        <ele>817.82</ele>
        <time>2026-08-21T08:24:53.164Z</time>
      </trkpt>
      <trkpt lat="45.05216" lon="2.49405">
        <ele>817.91</ele>
        <time>2026-08-21T08:24:54.167Z</time>
      </trkpt>
      <trkpt lat="45.05217" lon="2.49402">
        <ele>818.01</ele>
        <time>2026-08-21T08:24:55.166Z</time>
      </trkpt>
      <trkpt lat="45.05218" lon="2.494">
        <ele>818.11</ele>
        <time>2026-08-21T08:24:56.168Z</time>
      </trkpt>
      <trkpt lat="45.0522" lon="2.49397">
        <ele>818.28</ele>
        <time>2026-08-21T08:24:58.173Z</time>
      </trkpt>
      <trkpt lat="45.05221" lon="2.49396">
        <ele>818.36</ele>
        <time>2026-08-21T08:24:58.637Z</time>
      </trkpt>
      <trkpt lat="45.05222" lon="2.49394">
        <ele>818.49</ele>
        <time>2026-08-21T08:25:00.263Z</time>
      </trkpt>
      <trkpt lat="45.05222" lon="2.49386">
        <ele>819.21</ele>
        <time>2026-08-21T08:25:15.794Z</time>
      </trkpt>
      <trkpt lat="45.05222" lon="2.49385">
        <ele>819.28</ele>
        <time>2026-08-21T08:25:16.790Z</time>
      </trkpt>
      <trkpt lat="45.05223" lon="2.49383">
        <ele>819.39</ele>
        <time>2026-08-21T08:25:18.795Z</time>
      </trkpt>
      <trkpt lat="45.05224" lon="2.49381">
        <ele>819.45</ele>
        <time>2026-08-21T08:25:19.403Z</time>
      </trkpt>
      <trkpt lat="45.05224" lon="2.49378">
        <ele>819.51</ele>
        <time>2026-08-21T08:25:20.781Z</time>
      </trkpt>
      <trkpt lat="45.05225" lon="2.49375">
        <ele>819.57</ele>
        <time>2026-08-21T08:25:21.403Z</time>
      </trkpt>
      <trkpt lat="45.05227" lon="2.49372">
        <ele>819.62</ele>
        <time>2026-08-21T08:25:21.813Z</time>
      </trkpt>
      <trkpt lat="45.05228" lon="2.49369">
        <ele>819.69</ele>
        <time>2026-08-21T08:25:23.801Z</time>
      </trkpt>
      <trkpt lat="45.0523" lon="2.49365">
        <ele>819.75</ele>
        <time>2026-08-21T08:25:24.445Z</time>
      </trkpt>
      <trkpt lat="45.05232" lon="2.49362">
        <ele>819.82</ele>
        <time>2026-08-21T08:25:25.804Z</time>
      </trkpt>
      <trkpt lat="45.05233" lon="2.49359">
        <ele>819.9</ele>
        <time>2026-08-21T08:25:26.795Z</time>
      </trkpt>
      <trkpt lat="45.05235" lon="2.49356">
        <ele>819.96</ele>
        <time>2026-08-21T08:25:27.805Z</time>
      </trkpt>
      <trkpt lat="45.05236" lon="2.49352">
        <ele>820.02</ele>
        <time>2026-08-21T08:25:28.806Z</time>
      </trkpt>
      <trkpt lat="45.05238" lon="2.49348">
        <ele>820.06</ele>
        <time>2026-08-21T08:25:29.815Z</time>
      </trkpt>
      <trkpt lat="45.0524" lon="2.49344">
        <ele>820.12</ele>
        <time>2026-08-21T08:25:30.385Z</time>
      </trkpt>
      <trkpt lat="45.05241" lon="2.49339">
        <ele>820.16</ele>
        <time>2026-08-21T08:25:31.807Z</time>
      </trkpt>
      <trkpt lat="45.05243" lon="2.49335">
        <ele>820.21</ele>
        <time>2026-08-21T08:25:32.809Z</time>
      </trkpt>
      <trkpt lat="45.05244" lon="2.49331">
        <ele>820.21</ele>
        <time>2026-08-21T08:25:33.810Z</time>
      </trkpt>
      <trkpt lat="45.05246" lon="2.49327">
        <ele>820.25</ele>
        <time>2026-08-21T08:25:34.808Z</time>
      </trkpt>
      <trkpt lat="45.05247" lon="2.49325">
        <ele>820.29</ele>
        <time>2026-08-21T08:25:35.809Z</time>
      </trkpt>
      <trkpt lat="45.05248" lon="2.49322">
        <ele>820.32</ele>
        <time>2026-08-21T08:25:36.810Z</time>
      </trkpt>
      <trkpt lat="45.05249" lon="2.49319">
        <ele>820.37</ele>
        <time>2026-08-21T08:25:37.809Z</time>
      </trkpt>
      <trkpt lat="45.05249" lon="2.49315">
        <ele>820.4</ele>
        <time>2026-08-21T08:25:38.663Z</time>
      </trkpt>
      <trkpt lat="45.05249" lon="2.49311">
        <ele>820.43</ele>
        <time>2026-08-21T08:25:39.811Z</time>
      </trkpt>
      <trkpt lat="45.05247" lon="2.49304">
        <ele>820.48</ele>
        <time>2026-08-21T08:25:41.812Z</time>
      </trkpt>
      <trkpt lat="45.05247" lon="2.49301">
        <ele>820.5</ele>
        <time>2026-08-21T08:25:42.812Z</time>
      </trkpt>
      <trkpt lat="45.05246" lon="2.49299">
        <ele>820.52</ele>
        <time>2026-08-21T08:25:43.813Z</time>
      </trkpt>
      <trkpt lat="45.05246" lon="2.49296">
        <ele>820.55</ele>
        <time>2026-08-21T08:25:44.813Z</time>
      </trkpt>
      <trkpt lat="45.05246" lon="2.49293">
        <ele>820.57</ele>
        <time>2026-08-21T08:25:44.911Z</time>
      </trkpt>
      <trkpt lat="45.05246" lon="2.4929">
        <ele>820.58</ele>
        <time>2026-08-21T08:25:46.816Z</time>
      </trkpt>
      <trkpt lat="45.05246" lon="2.49286">
        <ele>820.61</ele>
        <time>2026-08-21T08:25:47.668Z</time>
      </trkpt>
      <trkpt lat="45.05246" lon="2.49283">
        <ele>820.63</ele>
        <time>2026-08-21T08:25:48.816Z</time>
      </trkpt>
      <trkpt lat="45.05246" lon="2.4928">
        <ele>820.66</ele>
        <time>2026-08-21T08:25:49.819Z</time>
      </trkpt>
      <trkpt lat="45.05247" lon="2.49276">
        <ele>820.69</ele>
        <time>2026-08-21T08:25:50.309Z</time>
      </trkpt>
      <trkpt lat="45.05248" lon="2.49269">
        <ele>820.76</ele>
        <time>2026-08-21T08:25:51.856Z</time>
      </trkpt>
      <trkpt lat="45.05248" lon="2.49266">
        <ele>820.79</ele>
        <time>2026-08-21T08:25:52.890Z</time>
      </trkpt>
      <trkpt lat="45.05248" lon="2.49262">
        <ele>820.83</ele>
        <time>2026-08-21T08:25:54.456Z</time>
      </trkpt>
      <trkpt lat="45.05249" lon="2.4926">
        <ele>820.85</ele>
        <time>2026-08-21T08:25:55.816Z</time>
      </trkpt>
      <trkpt lat="45.05251" lon="2.49258">
        <ele>820.88</ele>
        <time>2026-08-21T08:25:56.815Z</time>
      </trkpt>
      <trkpt lat="45.05252" lon="2.49258">
        <ele>820.92</ele>
        <time>2026-08-21T08:25:56.909Z</time>
      </trkpt>
      <trkpt lat="45.05253" lon="2.49259">
        <ele>820.97</ele>
        <time>2026-08-21T08:25:58.817Z</time>
      </trkpt>
      <trkpt lat="45.05254" lon="2.49259">
        <ele>821.02</ele>
        <time>2026-08-21T08:25:59.663Z</time>
      </trkpt>
      <trkpt lat="45.05256" lon="2.4926">
        <ele>821.07</ele>
        <time>2026-08-21T08:25:59.910Z</time>
      </trkpt>
      <trkpt lat="45.05256" lon="2.49262">
        <ele>821.14</ele>
        <time>2026-08-21T08:26:01.814Z</time>
      </trkpt>
      <trkpt lat="45.05257" lon="2.49263">
        <ele>821.21</ele>
        <time>2026-08-21T08:26:02.814Z</time>
      </trkpt>
      <trkpt lat="45.05258" lon="2.49265">
        <ele>821.29</ele>
        <time>2026-08-21T08:26:03.386Z</time>
      </trkpt>
      <trkpt lat="45.05259" lon="2.49267">
        <ele>821.38</ele>
        <time>2026-08-21T08:26:04.400Z</time>
      </trkpt>
      <trkpt lat="45.05259" lon="2.4927">
        <ele>821.48</ele>
        <time>2026-08-21T08:26:05.807Z</time>
      </trkpt>
      <trkpt lat="45.0526" lon="2.49272">
        <ele>821.58</ele>
        <time>2026-08-21T08:26:05.909Z</time>
      </trkpt>
      <trkpt lat="45.0526" lon="2.49274">
        <ele>821.69</ele>
        <time>2026-08-21T08:26:07.814Z</time>
      </trkpt>
      <trkpt lat="45.05261" lon="2.49277">
        <ele>821.81</ele>
        <time>2026-08-21T08:26:08.813Z</time>
      </trkpt>
      <trkpt lat="45.05261" lon="2.49279">
        <ele>821.92</ele>
        <time>2026-08-21T08:26:09.817Z</time>
      </trkpt>
      <trkpt lat="45.05262" lon="2.4928">
        <ele>822.03</ele>
        <time>2026-08-21T08:26:10.814Z</time>
      </trkpt>
      <trkpt lat="45.05263" lon="2.49281">
        <ele>822.14</ele>
        <time>2026-08-21T08:26:10.889Z</time>
      </trkpt>
      <trkpt lat="45.05264" lon="2.49282">
        <ele>822.26</ele>
        <time>2026-08-21T08:26:11.912Z</time>
      </trkpt>
      <trkpt lat="45.05265" lon="2.49281">
        <ele>822.4</ele>
        <time>2026-08-21T08:26:13.811Z</time>
      </trkpt>
      <trkpt lat="45.05266" lon="2.49281">
        <ele>822.55</ele>
        <time>2026-08-21T08:26:14.811Z</time>
      </trkpt>
      <trkpt lat="45.05267" lon="2.4928">
        <ele>822.7</ele>
        <time>2026-08-21T08:26:15.812Z</time>
      </trkpt>
      <trkpt lat="45.05267" lon="2.49278">
        <ele>822.88</ele>
        <time>2026-08-21T08:26:16.812Z</time>
      </trkpt>
      <trkpt lat="45.05267" lon="2.49276">
        <ele>823.06</ele>
        <time>2026-08-21T08:26:17.812Z</time>
      </trkpt>
      <trkpt lat="45.05267" lon="2.49274">
        <ele>823.23</ele>
        <time>2026-08-21T08:26:17.909Z</time>
      </trkpt>
      <trkpt lat="45.05269" lon="2.49272">
        <ele>823.42</ele>
        <time>2026-08-21T08:26:19.812Z</time>
      </trkpt>
      <trkpt lat="45.05269" lon="2.4927">
        <ele>823.63</ele>
        <time>2026-08-21T08:26:20.812Z</time>
      </trkpt>
      <trkpt lat="45.05269" lon="2.49269">
        <ele>823.84</ele>
        <time>2026-08-21T08:26:20.909Z</time>
      </trkpt>
      <trkpt lat="45.0527" lon="2.49266">
        <ele>824.04</ele>
        <time>2026-08-21T08:26:22.813Z</time>
      </trkpt>
      <trkpt lat="45.0527" lon="2.49263">
        <ele>824.26</ele>
        <time>2026-08-21T08:26:23.812Z</time>
      </trkpt>
      <trkpt lat="45.0527" lon="2.49257">
        <ele>824.69</ele>
        <time>2026-08-21T08:26:25.814Z</time>
      </trkpt>
      <trkpt lat="45.0527" lon="2.49256">
        <ele>824.89</ele>
        <time>2026-08-21T08:26:26.813Z</time>
      </trkpt>
      <trkpt lat="45.0527" lon="2.49254">
        <ele>825.1</ele>
        <time>2026-08-21T08:26:27.815Z</time>
      </trkpt>
      <trkpt lat="45.05271" lon="2.49252">
        <ele>825.31</ele>
        <time>2026-08-21T08:26:28.814Z</time>
      </trkpt>
      <trkpt lat="45.05272" lon="2.4925">
        <ele>825.53</ele>
        <time>2026-08-21T08:26:29.813Z</time>
      </trkpt>
      <trkpt lat="45.05273" lon="2.49248">
        <ele>825.73</ele>
        <time>2026-08-21T08:26:29.905Z</time>
      </trkpt>
      <trkpt lat="45.05274" lon="2.49246">
        <ele>825.93</ele>
        <time>2026-08-21T08:26:31.804Z</time>
      </trkpt>
      <trkpt lat="45.05275" lon="2.49244">
        <ele>826.13</ele>
        <time>2026-08-21T08:26:32.806Z</time>
      </trkpt>
      <trkpt lat="45.05277" lon="2.49242">
        <ele>826.35</ele>
        <time>2026-08-21T08:26:33.804Z</time>
      </trkpt>
      <trkpt lat="45.05277" lon="2.49241">
        <ele>826.55</ele>
        <time>2026-08-21T08:26:34.806Z</time>
      </trkpt>
      <trkpt lat="45.0528" lon="2.49237">
        <ele>826.95</ele>
        <time>2026-08-21T08:26:36.806Z</time>
      </trkpt>
      <trkpt lat="45.0528" lon="2.49236">
        <ele>827.14</ele>
        <time>2026-08-21T08:26:37.804Z</time>
      </trkpt>
      <trkpt lat="45.05282" lon="2.49235">
        <ele>827.52</ele>
        <time>2026-08-21T08:26:39.804Z</time>
      </trkpt>
      <trkpt lat="45.05283" lon="2.49234">
        <ele>827.71</ele>
        <time>2026-08-21T08:26:40.802Z</time>
      </trkpt>
      <trkpt lat="45.05284" lon="2.49233">
        <ele>827.91</ele>
        <time>2026-08-21T08:26:41.803Z</time>
      </trkpt>
      <trkpt lat="45.05285" lon="2.49232">
        <ele>828.1</ele>
        <time>2026-08-21T08:26:42.804Z</time>
      </trkpt>
      <trkpt lat="45.05286" lon="2.49231">
        <ele>828.4</ele>
        <time>2026-08-21T08:26:43.802Z</time>
      </trkpt>
      <trkpt lat="45.05287" lon="2.4923">
        <ele>828.59</ele>
        <time>2026-08-21T08:26:44.802Z</time>
      </trkpt>
      <trkpt lat="45.05288" lon="2.49228">
        <ele>828.78</ele>
        <time>2026-08-21T08:26:45.802Z</time>
      </trkpt>
      <trkpt lat="45.05289" lon="2.49226">
        <ele>828.98</ele>
        <time>2026-08-21T08:26:46.802Z</time>
      </trkpt>
      <trkpt lat="45.0529" lon="2.49224">
        <ele>829.17</ele>
        <time>2026-08-21T08:26:47.804Z</time>
      </trkpt>
      <trkpt lat="45.05291" lon="2.49221">
        <ele>829.32</ele>
        <time>2026-08-21T08:26:48.806Z</time>
      </trkpt>
      <trkpt lat="45.05294" lon="2.49215">
        <ele>829.71</ele>
        <time>2026-08-21T08:26:50.805Z</time>
      </trkpt>
      <trkpt lat="45.05294" lon="2.49213">
        <ele>829.89</ele>
        <time>2026-08-21T08:26:51.808Z</time>
      </trkpt>
      <trkpt lat="45.05295" lon="2.49211">
        <ele>830.07</ele>
        <time>2026-08-21T08:26:52.807Z</time>
      </trkpt>
      <trkpt lat="45.05296" lon="2.4921">
        <ele>830.21</ele>
        <time>2026-08-21T08:26:53.811Z</time>
      </trkpt>
      <trkpt lat="45.05297" lon="2.49208">
        <ele>830.37</ele>
        <time>2026-08-21T08:26:54.808Z</time>
      </trkpt>
      <trkpt lat="45.05299" lon="2.49205">
        <ele>830.56</ele>
        <time>2026-08-21T08:26:55.809Z</time>
      </trkpt>
      <trkpt lat="45.053" lon="2.49203">
        <ele>830.76</ele>
        <time>2026-08-21T08:26:56.809Z</time>
      </trkpt>
      <trkpt lat="45.05302" lon="2.49201">
        <ele>830.98</ele>
        <time>2026-08-21T08:26:57.910Z</time>
      </trkpt>
      <trkpt lat="45.05304" lon="2.492">
        <ele>831.2</ele>
        <time>2026-08-21T08:26:57.929Z</time>
      </trkpt>
      <trkpt lat="45.05305" lon="2.49198">
        <ele>831.44</ele>
        <time>2026-08-21T08:26:59.906Z</time>
      </trkpt>
      <trkpt lat="45.05306" lon="2.49195">
        <ele>831.72</ele>
        <time>2026-08-21T08:27:00.501Z</time>
      </trkpt>
      <trkpt lat="45.05308" lon="2.49192">
        <ele>832.01</ele>
        <time>2026-08-21T08:27:01.893Z</time>
      </trkpt>
      <trkpt lat="45.05309" lon="2.4919">
        <ele>832.3</ele>
        <time>2026-08-21T08:27:02.483Z</time>
      </trkpt>
      <trkpt lat="45.05309" lon="2.49188">
        <ele>832.57</ele>
        <time>2026-08-21T08:27:03.767Z</time>
      </trkpt>
      <trkpt lat="45.0531" lon="2.49184">
        <ele>833.11</ele>
        <time>2026-08-21T08:27:04.951Z</time>
      </trkpt>
      <trkpt lat="45.0531" lon="2.49177">
        <ele>833.67</ele>
        <time>2026-08-21T08:27:17.613Z</time>
      </trkpt>
      <trkpt lat="45.0531" lon="2.49174">
        <ele>837.73</ele>
        <time>2026-08-21T08:27:44.348Z</time>
      </trkpt>
      <trkpt lat="45.0531" lon="2.49173">
        <ele>837.8</ele>
        <time>2026-08-21T08:27:45.349Z</time>
      </trkpt>
      <trkpt lat="45.0531" lon="2.49171">
        <ele>837.87</ele>
        <time>2026-08-21T08:27:46.350Z</time>
      </trkpt>
      <trkpt lat="45.0531" lon="2.49168">
        <ele>837.96</ele>
        <time>2026-08-21T08:27:47.352Z</time>
      </trkpt>
      <trkpt lat="45.0531" lon="2.49166">
        <ele>838.03</ele>
        <time>2026-08-21T08:27:48.352Z</time>
      </trkpt>
      <trkpt lat="45.0531" lon="2.49163">
        <ele>838.13</ele>
        <time>2026-08-21T08:27:48.451Z</time>
      </trkpt>
      <trkpt lat="45.05309" lon="2.49161">
        <ele>838.22</ele>
        <time>2026-08-21T08:27:50.356Z</time>
      </trkpt>
      <trkpt lat="45.05309" lon="2.49157">
        <ele>838.29</ele>
        <time>2026-08-21T08:27:51.354Z</time>
      </trkpt>
      <trkpt lat="45.05308" lon="2.49154">
        <ele>838.36</ele>
        <time>2026-08-21T08:27:52.355Z</time>
      </trkpt>
      <trkpt lat="45.05307" lon="2.4915">
        <ele>838.44</ele>
        <time>2026-08-21T08:27:53.358Z</time>
      </trkpt>
      <trkpt lat="45.05306" lon="2.49147">
        <ele>838.52</ele>
        <time>2026-08-21T08:27:54.359Z</time>
      </trkpt>
      <trkpt lat="45.05306" lon="2.49142">
        <ele>838.58</ele>
        <time>2026-08-21T08:27:55.361Z</time>
      </trkpt>
      <trkpt lat="45.05307" lon="2.49138">
        <ele>838.64</ele>
        <time>2026-08-21T08:27:56.363Z</time>
      </trkpt>
      <trkpt lat="45.05309" lon="2.49135">
        <ele>838.7</ele>
        <time>2026-08-21T08:27:57.364Z</time>
      </trkpt>
      <trkpt lat="45.05311" lon="2.49134">
        <ele>838.78</ele>
        <time>2026-08-21T08:27:58.366Z</time>
      </trkpt>
      <trkpt lat="45.05313" lon="2.49132">
        <ele>838.86</ele>
        <time>2026-08-21T08:27:59.366Z</time>
      </trkpt>
      <trkpt lat="45.05314" lon="2.4913">
        <ele>838.95</ele>
        <time>2026-08-21T08:28:00.368Z</time>
      </trkpt>
      <trkpt lat="45.05316" lon="2.49129">
        <ele>839.06</ele>
        <time>2026-08-21T08:28:01.369Z</time>
      </trkpt>
      <trkpt lat="45.05317" lon="2.49127">
        <ele>839.17</ele>
        <time>2026-08-21T08:28:02.426Z</time>
      </trkpt>
      <trkpt lat="45.05319" lon="2.49126">
        <ele>839.32</ele>
        <time>2026-08-21T08:28:03.371Z</time>
      </trkpt>
      <trkpt lat="45.0532" lon="2.49124">
        <ele>839.44</ele>
        <time>2026-08-21T08:28:04.374Z</time>
      </trkpt>
      <trkpt lat="45.05321" lon="2.49122">
        <ele>839.58</ele>
        <time>2026-08-21T08:28:05.120Z</time>
      </trkpt>
      <trkpt lat="45.05322" lon="2.49119">
        <ele>839.74</ele>
        <time>2026-08-21T08:28:06.377Z</time>
      </trkpt>
      <trkpt lat="45.05323" lon="2.49117">
        <ele>839.88</ele>
        <time>2026-08-21T08:28:07.381Z</time>
      </trkpt>
      <trkpt lat="45.05323" lon="2.49109">
        <ele>840.35</ele>
        <time>2026-08-21T08:28:30.082Z</time>
      </trkpt>
      <trkpt lat="45.05323" lon="2.49108">
        <ele>842.25</ele>
        <time>2026-08-21T08:28:31.202Z</time>
      </trkpt>
      <trkpt lat="45.05324" lon="2.49106">
        <ele>842.32</ele>
        <time>2026-08-21T08:28:32.202Z</time>
      </trkpt>
      <trkpt lat="45.05324" lon="2.49104">
        <ele>842.46</ele>
        <time>2026-08-21T08:28:33.210Z</time>
      </trkpt>
      <trkpt lat="45.05325" lon="2.491">
        <ele>842.61</ele>
        <time>2026-08-21T08:28:34.206Z</time>
      </trkpt>
      <trkpt lat="45.05326" lon="2.49094">
        <ele>842.5</ele>
        <time>2026-08-21T08:28:35.205Z</time>
      </trkpt>
      <trkpt lat="45.05326" lon="2.49089">
        <ele>842.44</ele>
        <time>2026-08-21T08:28:36.208Z</time>
      </trkpt>
      <trkpt lat="45.05327" lon="2.4907">
        <ele>842.32</ele>
        <time>2026-08-21T08:28:38.209Z</time>
      </trkpt>
      <trkpt lat="45.05327" lon="2.49059">
        <ele>842.28</ele>
        <time>2026-08-21T08:28:39.211Z</time>
      </trkpt>
      <trkpt lat="45.05327" lon="2.49048">
        <ele>842.25</ele>
        <time>2026-08-21T08:28:40.220Z</time>
      </trkpt>
      <trkpt lat="45.05327" lon="2.49049">
        <ele>842.26</ele>
        <time>2026-08-21T08:28:41.212Z</time>
      </trkpt>
      <trkpt lat="45.05328" lon="2.4903">
        <ele>842.29</ele>
        <time>2026-08-21T08:28:42.212Z</time>
      </trkpt>
      <trkpt lat="45.0533" lon="2.49015">
        <ele>842.24</ele>
        <time>2026-08-21T08:28:43.216Z</time>
      </trkpt>
      <trkpt lat="45.0533" lon="2.49007">
        <ele>842.3</ele>
        <time>2026-08-21T08:28:44.216Z</time>
      </trkpt>
      <trkpt lat="45.05332" lon="2.48991">
        <ele>842.31</ele>
        <time>2026-08-21T08:28:45.216Z</time>
      </trkpt>
      <trkpt lat="45.05335" lon="2.48975">
        <ele>842.24</ele>
        <time>2026-08-21T08:28:46.217Z</time>
      </trkpt>
      <trkpt lat="45.05337" lon="2.48965">
        <ele>842.09</ele>
        <time>2026-08-21T08:28:47.220Z</time>
      </trkpt>
      <trkpt lat="45.05339" lon="2.48956">
        <ele>842.08</ele>
        <time>2026-08-21T08:28:48.221Z</time>
      </trkpt>
      <trkpt lat="45.05339" lon="2.48953">
        <ele>841.97</ele>
        <time>2026-08-21T08:28:49.247Z</time>
      </trkpt>
      <trkpt lat="45.05341" lon="2.48938">
        <ele>841.83</ele>
        <time>2026-08-21T08:28:50.220Z</time>
      </trkpt>
      <trkpt lat="45.05341" lon="2.48929">
        <ele>841.79</ele>
        <time>2026-08-21T08:28:51.222Z</time>
      </trkpt>
      <trkpt lat="45.05341" lon="2.48921">
        <ele>841.76</ele>
        <time>2026-08-21T08:28:52.223Z</time>
      </trkpt>
      <trkpt lat="45.05343" lon="2.48913">
        <ele>841.66</ele>
        <time>2026-08-21T08:28:53.222Z</time>
      </trkpt>
      <trkpt lat="45.05346" lon="2.48904">
        <ele>841.63</ele>
        <time>2026-08-21T08:28:54.215Z</time>
      </trkpt>
      <trkpt lat="45.05349" lon="2.48895">
        <ele>841.52</ele>
        <time>2026-08-21T08:28:55.216Z</time>
      </trkpt>
      <trkpt lat="45.05352" lon="2.48887">
        <ele>841.47</ele>
        <time>2026-08-21T08:28:56.217Z</time>
      </trkpt>
      <trkpt lat="45.05354" lon="2.48878">
        <ele>841.43</ele>
        <time>2026-08-21T08:28:57.218Z</time>
      </trkpt>
      <trkpt lat="45.05356" lon="2.48871">
        <ele>841.39</ele>
        <time>2026-08-21T08:28:58.219Z</time>
      </trkpt>
      <trkpt lat="45.05358" lon="2.48865">
        <ele>841.35</ele>
        <time>2026-08-21T08:28:59.219Z</time>
      </trkpt>
      <trkpt lat="45.05361" lon="2.48854">
        <ele>841.28</ele>
        <time>2026-08-21T08:29:00.221Z</time>
      </trkpt>
      <trkpt lat="45.05362" lon="2.4885">
        <ele>841.23</ele>
        <time>2026-08-21T08:29:01.212Z</time>
      </trkpt>
      <trkpt lat="45.05365" lon="2.48842">
        <ele>841.14</ele>
        <time>2026-08-21T08:29:02.213Z</time>
      </trkpt>
      <trkpt lat="45.05366" lon="2.48837">
        <ele>839.33</ele>
        <time>2026-08-21T08:29:43.863Z</time>
      </trkpt>
      <trkpt lat="45.05366" lon="2.48836">
        <ele>839.29</ele>
        <time>2026-08-21T08:29:44.864Z</time>
      </trkpt>
      <trkpt lat="45.05366" lon="2.48834">
        <ele>839.25</ele>
        <time>2026-08-21T08:29:44.960Z</time>
      </trkpt>
      <trkpt lat="45.05366" lon="2.48832">
        <ele>839.16</ele>
        <time>2026-08-21T08:29:46.868Z</time>
      </trkpt>
      <trkpt lat="45.05366" lon="2.48828">
        <ele>839.06</ele>
        <time>2026-08-21T08:29:47.870Z</time>
      </trkpt>
      <trkpt lat="45.05367" lon="2.48824">
        <ele>838.84</ele>
        <time>2026-08-21T08:29:48.870Z</time>
      </trkpt>
      <trkpt lat="45.05368" lon="2.48819">
        <ele>838.75</ele>
        <time>2026-08-21T08:29:49.873Z</time>
      </trkpt>
      <trkpt lat="45.05369" lon="2.48816">
        <ele>838.67</ele>
        <time>2026-08-21T08:29:50.874Z</time>
      </trkpt>
      <trkpt lat="45.0537" lon="2.48811">
        <ele>838.51</ele>
        <time>2026-08-21T08:29:50.970Z</time>
      </trkpt>
      <trkpt lat="45.05372" lon="2.48806">
        <ele>838.42</ele>
        <time>2026-08-21T08:29:52.877Z</time>
      </trkpt>
      <trkpt lat="45.05374" lon="2.488">
        <ele>838.32</ele>
        <time>2026-08-21T08:29:53.878Z</time>
      </trkpt>
      <trkpt lat="45.05373" lon="2.48798">
        <ele>838.23</ele>
        <time>2026-08-21T08:29:54.879Z</time>
      </trkpt>
      <trkpt lat="45.05376" lon="2.48776">
        <ele>838.14</ele>
        <time>2026-08-21T08:29:55.880Z</time>
      </trkpt>
      <trkpt lat="45.05378" lon="2.48762">
        <ele>837.66</ele>
        <time>2026-08-21T08:29:56.883Z</time>
      </trkpt>
      <trkpt lat="45.05379" lon="2.48752">
        <ele>837.63</ele>
        <time>2026-08-21T08:29:57.882Z</time>
      </trkpt>
      <trkpt lat="45.0538" lon="2.48743">
        <ele>837.37</ele>
        <time>2026-08-21T08:29:58.885Z</time>
      </trkpt>
      <trkpt lat="45.05381" lon="2.48734">
        <ele>837.11</ele>
        <time>2026-08-21T08:29:59.884Z</time>
      </trkpt>
      <trkpt lat="45.05381" lon="2.48723">
        <ele>836.88</ele>
        <time>2026-08-21T08:30:00.886Z</time>
      </trkpt>
      <trkpt lat="45.05382" lon="2.48714">
        <ele>836.34</ele>
        <time>2026-08-21T08:30:01.952Z</time>
      </trkpt>
      <trkpt lat="45.05383" lon="2.48705">
        <ele>836.1</ele>
        <time>2026-08-21T08:30:02.888Z</time>
      </trkpt>
      <trkpt lat="45.05383" lon="2.487">
        <ele>835.71</ele>
        <time>2026-08-21T08:30:03.892Z</time>
      </trkpt>
      <trkpt lat="45.05386" lon="2.48685">
        <ele>835.46</ele>
        <time>2026-08-21T08:30:03.983Z</time>
      </trkpt>
      <trkpt lat="45.05386" lon="2.48676">
        <ele>835.2</ele>
        <time>2026-08-21T08:30:05.895Z</time>
      </trkpt>
      <trkpt lat="45.05386" lon="2.48668">
        <ele>834.81</ele>
        <time>2026-08-21T08:30:06.896Z</time>
      </trkpt>
      <trkpt lat="45.05385" lon="2.4866">
        <ele>834.39</ele>
        <time>2026-08-21T08:30:07.898Z</time>
      </trkpt>
      <trkpt lat="45.05385" lon="2.48655">
        <ele>834.03</ele>
        <time>2026-08-21T08:30:08.901Z</time>
      </trkpt>
      <trkpt lat="45.05384" lon="2.48638">
        <ele>833.59</ele>
        <time>2026-08-21T08:30:09.901Z</time>
      </trkpt>
      <trkpt lat="45.05384" lon="2.48627">
        <ele>833.33</ele>
        <time>2026-08-21T08:30:09.992Z</time>
      </trkpt>
      <trkpt lat="45.05385" lon="2.48622">
        <ele>833.39</ele>
        <time>2026-08-21T08:30:11.905Z</time>
      </trkpt>
      <trkpt lat="45.05386" lon="2.48608">
        <ele>833.08</ele>
        <time>2026-08-21T08:30:12.983Z</time>
      </trkpt>
      <trkpt lat="45.05387" lon="2.48595">
        <ele>832.84</ele>
        <time>2026-08-21T08:30:13.909Z</time>
      </trkpt>
      <trkpt lat="45.05387" lon="2.48587">
        <ele>832.65</ele>
        <time>2026-08-21T08:30:14.964Z</time>
      </trkpt>
      <trkpt lat="45.05387" lon="2.48579">
        <ele>832.39</ele>
        <time>2026-08-21T08:30:15.914Z</time>
      </trkpt>
      <trkpt lat="45.05386" lon="2.48572">
        <ele>832.12</ele>
        <time>2026-08-21T08:30:16.578Z</time>
      </trkpt>
      <trkpt lat="45.05386" lon="2.48568">
        <ele>831.85</ele>
        <time>2026-08-21T08:30:17.906Z</time>
      </trkpt>
      <trkpt lat="45.05385" lon="2.48564">
        <ele>831.59</ele>
        <time>2026-08-21T08:30:18.909Z</time>
      </trkpt>
      <trkpt lat="45.05388" lon="2.4856">
        <ele>831.11</ele>
        <time>2026-08-21T08:30:20.910Z</time>
      </trkpt>
      <trkpt lat="45.05388" lon="2.48561">
        <ele>830.9</ele>
        <time>2026-08-21T08:30:21.912Z</time>
      </trkpt>
      <trkpt lat="45.05388" lon="2.48563">
        <ele>830.69</ele>
        <time>2026-08-21T08:30:22.915Z</time>
      </trkpt>
      <trkpt lat="45.05388" lon="2.48565">
        <ele>830.48</ele>
        <time>2026-08-21T08:30:23.995Z</time>
      </trkpt>
      <trkpt lat="45.05388" lon="2.48569">
        <ele>830.25</ele>
        <time>2026-08-21T08:30:24.920Z</time>
      </trkpt>
      <trkpt lat="45.05389" lon="2.48572">
        <ele>830.08</ele>
        <time>2026-08-21T08:30:25.953Z</time>
      </trkpt>
      <trkpt lat="45.05389" lon="2.48575">
        <ele>829.93</ele>
        <time>2026-08-21T08:30:26.188Z</time>
      </trkpt>
      <trkpt lat="45.05391" lon="2.48577">
        <ele>829.83</ele>
        <time>2026-08-21T08:30:27.016Z</time>
      </trkpt>
      <trkpt lat="45.05392" lon="2.4858">
        <ele>829.75</ele>
        <time>2026-08-21T08:30:28.164Z</time>
      </trkpt>
      <trkpt lat="45.05393" lon="2.48582">
        <ele>829.7</ele>
        <time>2026-08-21T08:30:29.928Z</time>
      </trkpt>
      <trkpt lat="45.05394" lon="2.48584">
        <ele>829.65</ele>
        <time>2026-08-21T08:30:30.928Z</time>
      </trkpt>
      <trkpt lat="45.05396" lon="2.48583">
        <ele>829.58</ele>
        <time>2026-08-21T08:30:32.027Z</time>
      </trkpt>
      <trkpt lat="45.05397" lon="2.48583">
        <ele>829.56</ele>
        <time>2026-08-21T08:30:33.935Z</time>
      </trkpt>
      <trkpt lat="45.05397" lon="2.48581">
        <ele>829.54</ele>
        <time>2026-08-21T08:30:34.941Z</time>
      </trkpt>
      <trkpt lat="45.05398" lon="2.4858">
        <ele>829.51</ele>
        <time>2026-08-21T08:30:36.016Z</time>
      </trkpt>
      <trkpt lat="45.05399" lon="2.48578">
        <ele>829.53</ele>
        <time>2026-08-21T08:30:36.505Z</time>
      </trkpt>
      <trkpt lat="45.054" lon="2.48577">
        <ele>829.55</ele>
        <time>2026-08-21T08:30:37.034Z</time>
      </trkpt>
      <trkpt lat="45.05402" lon="2.48576">
        <ele>829.58</ele>
        <time>2026-08-21T08:30:38.965Z</time>
      </trkpt>
      <trkpt lat="45.05404" lon="2.48574">
        <ele>829.61</ele>
        <time>2026-08-21T08:30:39.032Z</time>
      </trkpt>
      <trkpt lat="45.05405" lon="2.48573">
        <ele>829.63</ele>
        <time>2026-08-21T08:30:40.959Z</time>
      </trkpt>
      <trkpt lat="45.05407" lon="2.48571">
        <ele>829.66</ele>
        <time>2026-08-21T08:30:41.025Z</time>
      </trkpt>
      <trkpt lat="45.05408" lon="2.4857">
        <ele>829.7</ele>
        <time>2026-08-21T08:30:42.033Z</time>
      </trkpt>
      <trkpt lat="45.05409" lon="2.48568">
        <ele>829.73</ele>
        <time>2026-08-21T08:30:43.034Z</time>
      </trkpt>
      <trkpt lat="45.0541" lon="2.48566">
        <ele>829.76</ele>
        <time>2026-08-21T08:30:44.249Z</time>
      </trkpt>
      <trkpt lat="45.05411" lon="2.48559">
        <ele>829.85</ele>
        <time>2026-08-21T08:30:46.959Z</time>
      </trkpt>
      <trkpt lat="45.05411" lon="2.48557">
        <ele>829.88</ele>
        <time>2026-08-21T08:30:48.009Z</time>
      </trkpt>
      <trkpt lat="45.05412" lon="2.48555">
        <ele>829.92</ele>
        <time>2026-08-21T08:30:49.009Z</time>
      </trkpt>
      <trkpt lat="45.05412" lon="2.48552">
        <ele>829.98</ele>
        <time>2026-08-21T08:30:49.035Z</time>
      </trkpt>
      <trkpt lat="45.05413" lon="2.48549">
        <ele>830.05</ele>
        <time>2026-08-21T08:30:50.310Z</time>
      </trkpt>
      <trkpt lat="45.05414" lon="2.48547">
        <ele>830.11</ele>
        <time>2026-08-21T08:30:52.005Z</time>
      </trkpt>
      <trkpt lat="45.05415" lon="2.48544">
        <ele>830.18</ele>
        <time>2026-08-21T08:30:52.522Z</time>
      </trkpt>
      <trkpt lat="45.05415" lon="2.48542">
        <ele>830.25</ele>
        <time>2026-08-21T08:30:53.961Z</time>
      </trkpt>
      <trkpt lat="45.05416" lon="2.48539">
        <ele>830.32</ele>
        <time>2026-08-21T08:30:54.052Z</time>
      </trkpt>
      <trkpt lat="45.05417" lon="2.48536">
        <ele>830.38</ele>
        <time>2026-08-21T08:30:55.058Z</time>
      </trkpt>
      <trkpt lat="45.05418" lon="2.48533">
        <ele>830.43</ele>
        <time>2026-08-21T08:30:56.054Z</time>
      </trkpt>
      <trkpt lat="45.05419" lon="2.48531">
        <ele>830.49</ele>
        <time>2026-08-21T08:30:57.965Z</time>
      </trkpt>
      <trkpt lat="45.05419" lon="2.48528">
        <ele>830.56</ele>
        <time>2026-08-21T08:30:58.965Z</time>
      </trkpt>
      <trkpt lat="45.05421" lon="2.48522">
        <ele>830.62</ele>
        <time>2026-08-21T08:30:59.423Z</time>
      </trkpt>
      <trkpt lat="45.05421" lon="2.48521">
        <ele>830.73</ele>
        <time>2026-08-21T08:31:01.523Z</time>
      </trkpt>
      <trkpt lat="45.05422" lon="2.4852">
        <ele>830.78</ele>
        <time>2026-08-21T08:31:02.065Z</time>
      </trkpt>
      <trkpt lat="45.05423" lon="2.48519">
        <ele>830.84</ele>
        <time>2026-08-21T08:31:03.967Z</time>
      </trkpt>
      <trkpt lat="45.05425" lon="2.48522">
        <ele>830.96</ele>
        <time>2026-08-21T08:31:05.969Z</time>
      </trkpt>
      <trkpt lat="45.05425" lon="2.48523">
        <ele>831.04</ele>
        <time>2026-08-21T08:31:06.540Z</time>
      </trkpt>
      <trkpt lat="45.05425" lon="2.48525">
        <ele>831.12</ele>
        <time>2026-08-21T08:31:08.047Z</time>
      </trkpt>
      <trkpt lat="45.05426" lon="2.48528">
        <ele>831.21</ele>
        <time>2026-08-21T08:31:08.972Z</time>
      </trkpt>
      <trkpt lat="45.05426" lon="2.4853">
        <ele>831.32</ele>
        <time>2026-08-21T08:31:09.973Z</time>
      </trkpt>
      <trkpt lat="45.05426" lon="2.48533">
        <ele>831.42</ele>
        <time>2026-08-21T08:31:10.974Z</time>
      </trkpt>
      <trkpt lat="45.05426" lon="2.48536">
        <ele>831.54</ele>
        <time>2026-08-21T08:31:11.977Z</time>
      </trkpt>
      <trkpt lat="45.05427" lon="2.48539">
        <ele>831.69</ele>
        <time>2026-08-21T08:31:12.975Z</time>
      </trkpt>
      <trkpt lat="45.05427" lon="2.48542">
        <ele>831.83</ele>
        <time>2026-08-21T08:31:13.069Z</time>
      </trkpt>
      <trkpt lat="45.05428" lon="2.48544">
        <ele>832.01</ele>
        <time>2026-08-21T08:31:14.066Z</time>
      </trkpt>
      <trkpt lat="45.05429" lon="2.48547">
        <ele>832.2</ele>
        <time>2026-08-21T08:31:15.977Z</time>
      </trkpt>
      <trkpt lat="45.05431" lon="2.4855">
        <ele>832.6</ele>
        <time>2026-08-21T08:31:17.979Z</time>
      </trkpt>
      <trkpt lat="45.05432" lon="2.4855">
        <ele>832.81</ele>
        <time>2026-08-21T08:31:18.069Z</time>
      </trkpt>
      <trkpt lat="45.05432" lon="2.48548">
        <ele>833.04</ele>
        <time>2026-08-21T08:31:20.982Z</time>
      </trkpt>
      <trkpt lat="45.05433" lon="2.48546">
        <ele>833.04</ele>
        <time>2026-08-21T08:31:22.011Z</time>
      </trkpt>
      <trkpt lat="45.05433" lon="2.48541">
        <ele>833.81</ele>
        <time>2026-08-21T08:31:22.983Z</time>
      </trkpt>
      <trkpt lat="45.05433" lon="2.48538">
        <ele>834.36</ele>
        <time>2026-08-21T08:31:24.081Z</time>
      </trkpt>
      <trkpt lat="45.05433" lon="2.48535">
        <ele>834.65</ele>
        <time>2026-08-21T08:31:25.080Z</time>
      </trkpt>
      <trkpt lat="45.05434" lon="2.4853">
        <ele>834.94</ele>
        <time>2026-08-21T08:31:26.987Z</time>
      </trkpt>
      <trkpt lat="45.05434" lon="2.48527">
        <ele>835.51</ele>
        <time>2026-08-21T08:31:27.989Z</time>
      </trkpt>
      <trkpt lat="45.05435" lon="2.48524">
        <ele>835.84</ele>
        <time>2026-08-21T08:31:29.991Z</time>
      </trkpt>
      <trkpt lat="45.05436" lon="2.48522">
        <ele>836.17</ele>
        <time>2026-08-21T08:31:30.088Z</time>
      </trkpt>
      <trkpt lat="45.05437" lon="2.4852">
        <ele>836.51</ele>
        <time>2026-08-21T08:31:32.072Z</time>
      </trkpt>
      <trkpt lat="45.05438" lon="2.48518">
        <ele>836.84</ele>
        <time>2026-08-21T08:31:32.087Z</time>
      </trkpt>
      <trkpt lat="45.05439" lon="2.48516">
        <ele>837.2</ele>
        <time>2026-08-21T08:31:33.087Z</time>
      </trkpt>
      <trkpt lat="45.05439" lon="2.48511">
        <ele>837.56</ele>
        <time>2026-08-21T08:31:35.082Z</time>
      </trkpt>
      <trkpt lat="45.0544" lon="2.48509">
        <ele>838.29</ele>
        <time>2026-08-21T08:31:35.997Z</time>
      </trkpt>
      <trkpt lat="45.05441" lon="2.48507">
        <ele>838.65</ele>
        <time>2026-08-21T08:31:36.998Z</time>
      </trkpt>
      <trkpt lat="45.05441" lon="2.48503">
        <ele>839.03</ele>
        <time>2026-08-21T08:31:39.080Z</time>
      </trkpt>
      <trkpt lat="45.05441" lon="2.48501">
        <ele>839.8</ele>
        <time>2026-08-21T08:31:40.095Z</time>
      </trkpt>
      <trkpt lat="45.05442" lon="2.485">
        <ele>840.2</ele>
        <time>2026-08-21T08:31:41.844Z</time>
      </trkpt>
      <trkpt lat="45.05444" lon="2.48501">
        <ele>840.2</ele>
        <time>2026-08-21T08:31:43.089Z</time>
      </trkpt>
      <trkpt lat="45.05446" lon="2.48502">
        <ele>840.2</ele>
        <time>2026-08-21T08:31:46.089Z</time>
      </trkpt>
      <trkpt lat="45.05447" lon="2.48504">
        <ele>840.2</ele>
        <time>2026-08-21T08:31:48.004Z</time>
      </trkpt>
      <trkpt lat="45.05448" lon="2.48504">
        <ele>840.2</ele>
        <time>2026-08-21T08:31:49.005Z</time>
      </trkpt>
      <trkpt lat="45.05449" lon="2.48505">
        <ele>840.2</ele>
        <time>2026-08-21T08:31:50.006Z</time>
      </trkpt>
      <trkpt lat="45.0545" lon="2.48504">
        <ele>840.2</ele>
        <time>2026-08-21T08:31:53.078Z</time>
      </trkpt>
      <trkpt lat="45.0545" lon="2.48499">
        <ele>840.2</ele>
        <time>2026-08-21T08:31:55.010Z</time>
      </trkpt>
      <trkpt lat="45.05451" lon="2.48495">
        <ele>840.2</ele>
        <time>2026-08-21T08:31:57.015Z</time>
      </trkpt>
      <trkpt lat="45.05452" lon="2.48494">
        <ele>840.2</ele>
        <time>2026-08-21T08:31:57.928Z</time>
      </trkpt>
      <trkpt lat="45.05454" lon="2.48493">
        <ele>840.2</ele>
        <time>2026-08-21T08:32:00.068Z</time>
      </trkpt>
      <trkpt lat="45.05454" lon="2.48494">
        <ele>840.2</ele>
        <time>2026-08-21T08:32:01.014Z</time>
      </trkpt>
      <trkpt lat="45.05455" lon="2.48495">
        <ele>840.2</ele>
        <time>2026-08-21T08:32:02.014Z</time>
      </trkpt>
      <trkpt lat="45.05456" lon="2.48498">
        <ele>840.2</ele>
        <time>2026-08-21T08:32:04.015Z</time>
      </trkpt>
      <trkpt lat="45.05456" lon="2.485">
        <ele>840.2</ele>
        <time>2026-08-21T08:32:04.960Z</time>
      </trkpt>
      <trkpt lat="45.05457" lon="2.48502">
        <ele>840.2</ele>
        <time>2026-08-21T08:32:06.018Z</time>
      </trkpt>
      <trkpt lat="45.05457" lon="2.48506">
        <ele>840.2</ele>
        <time>2026-08-21T08:32:08.076Z</time>
      </trkpt>
      <trkpt lat="45.05458" lon="2.48508">
        <ele>840.2</ele>
        <time>2026-08-21T08:32:09.020Z</time>
      </trkpt>
      <trkpt lat="45.05458" lon="2.48511">
        <ele>840.2</ele>
        <time>2026-08-21T08:32:10.021Z</time>
      </trkpt>
      <trkpt lat="45.05458" lon="2.4852">
        <ele>840.2</ele>
        <time>2026-08-21T08:32:20.100Z</time>
      </trkpt>
      <trkpt lat="45.0546" lon="2.48522">
        <ele>840.2</ele>
        <time>2026-08-21T08:32:26.437Z</time>
      </trkpt>
      <trkpt lat="45.05459" lon="2.48527">
        <ele>840.2</ele>
        <time>2026-08-21T08:32:33.443Z</time>
      </trkpt>
      <trkpt lat="45.05461" lon="2.48527">
        <ele>840.2</ele>
        <time>2026-08-21T08:32:36.445Z</time>
      </trkpt>
      <trkpt lat="45.05462" lon="2.48524">
        <ele>840.2</ele>
        <time>2026-08-21T08:33:08.083Z</time>
      </trkpt>
      <trkpt lat="45.05461" lon="2.48525">
        <ele>840.2</ele>
        <time>2026-08-21T08:34:02.786Z</time>
      </trkpt>
      <trkpt lat="45.0546" lon="2.48525">
        <ele>840.2</ele>
        <time>2026-08-21T08:41:53.541Z</time>
      </trkpt>
      <trkpt lat="45.05461" lon="2.48524">
        <ele>840.2</ele>
        <time>2026-08-21T08:41:54.541Z</time>
      </trkpt>
      <trkpt lat="45.05462" lon="2.48522">
        <ele>840.2</ele>
        <time>2026-08-21T08:41:56.547Z</time>
      </trkpt>
      <trkpt lat="45.05462" lon="2.4852">
        <ele>840.2</ele>
        <time>2026-08-21T08:41:57.545Z</time>
      </trkpt>
      <trkpt lat="45.05463" lon="2.48519">
        <ele>840.2</ele>
        <time>2026-08-21T08:41:58.547Z</time>
      </trkpt>
      <trkpt lat="45.05463" lon="2.48517">
        <ele>840.2</ele>
        <time>2026-08-21T08:41:59.549Z</time>
      </trkpt>
      <trkpt lat="45.05463" lon="2.48515">
        <ele>840.2</ele>
        <time>2026-08-21T08:42:00.551Z</time>
      </trkpt>
      <trkpt lat="45.05463" lon="2.48512">
        <ele>840.2</ele>
        <time>2026-08-21T08:42:01.102Z</time>
      </trkpt>
      <trkpt lat="45.05463" lon="2.4851">
        <ele>840.2</ele>
        <time>2026-08-21T08:42:02.556Z</time>
      </trkpt>
      <trkpt lat="45.05464" lon="2.48505">
        <ele>840.2</ele>
        <time>2026-08-21T08:42:03.557Z</time>
      </trkpt>
      <trkpt lat="45.05463" lon="2.48502">
        <ele>840.2</ele>
        <time>2026-08-21T08:42:04.559Z</time>
      </trkpt>
      <trkpt lat="45.05463" lon="2.48497">
        <ele>840.2</ele>
        <time>2026-08-21T08:42:05.561Z</time>
      </trkpt>
      <trkpt lat="45.05463" lon="2.48492">
        <ele>840.2</ele>
        <time>2026-08-21T08:42:06.509Z</time>
      </trkpt>
      <trkpt lat="45.05462" lon="2.48488">
        <ele>840.2</ele>
        <time>2026-08-21T08:42:07.565Z</time>
      </trkpt>
      <trkpt lat="45.05462" lon="2.48485">
        <ele>840.2</ele>
        <time>2026-08-21T08:42:08.567Z</time>
      </trkpt>
      <trkpt lat="45.05462" lon="2.48482">
        <ele>840.2</ele>
        <time>2026-08-21T08:42:09.568Z</time>
      </trkpt>
      <trkpt lat="45.05463" lon="2.4848">
        <ele>840.2</ele>
        <time>2026-08-21T08:42:10.571Z</time>
      </trkpt>
      <trkpt lat="45.05463" lon="2.48477">
        <ele>840.2</ele>
        <time>2026-08-21T08:42:11.576Z</time>
      </trkpt>
      <trkpt lat="45.05464" lon="2.48474">
        <ele>840.2</ele>
        <time>2026-08-21T08:42:12.577Z</time>
      </trkpt>
      <trkpt lat="45.05465" lon="2.48471">
        <ele>840.2</ele>
        <time>2026-08-21T08:42:13.579Z</time>
      </trkpt>
      <trkpt lat="45.05465" lon="2.48466">
        <ele>840.2</ele>
        <time>2026-08-21T08:42:14.589Z</time>
      </trkpt>
      <trkpt lat="45.05465" lon="2.48462">
        <ele>840.2</ele>
        <time>2026-08-21T08:42:15.583Z</time>
      </trkpt>
      <trkpt lat="45.05465" lon="2.48458">
        <ele>840.2</ele>
        <time>2026-08-21T08:42:16.586Z</time>
      </trkpt>
      <trkpt lat="45.05466" lon="2.48454">
        <ele>840.2</ele>
        <time>2026-08-21T08:42:17.588Z</time>
      </trkpt>
      <trkpt lat="45.05466" lon="2.48449">
        <ele>840.2</ele>
        <time>2026-08-21T08:42:18.592Z</time>
      </trkpt>
      <trkpt lat="45.05467" lon="2.48426">
        <ele>840.2</ele>
        <time>2026-08-21T08:43:26.098Z</time>
      </trkpt>
      <trkpt lat="45.05467" lon="2.48421">
        <ele>860.84</ele>
        <time>2026-08-21T08:43:47.581Z</time>
      </trkpt>
      <trkpt lat="45.05467" lon="2.4842">
        <ele>860.8</ele>
        <time>2026-08-21T08:43:48.633Z</time>
      </trkpt>
      <trkpt lat="45.05466" lon="2.48418">
        <ele>860.7</ele>
        <time>2026-08-21T08:43:50.581Z</time>
      </trkpt>
      <trkpt lat="45.05465" lon="2.48419">
        <ele>860.58</ele>
        <time>2026-08-21T08:43:52.580Z</time>
      </trkpt>
      <trkpt lat="45.05464" lon="2.4842">
        <ele>860.36</ele>
        <time>2026-08-21T08:43:55.583Z</time>
      </trkpt>
      <trkpt lat="45.0546" lon="2.48421">
        <ele>856.53</ele>
        <time>2026-08-21T08:46:48.388Z</time>
      </trkpt>
      <trkpt lat="45.0546" lon="2.48422">
        <ele>856.51</ele>
        <time>2026-08-21T08:46:49.410Z</time>
      </trkpt>
      <trkpt lat="45.05459" lon="2.48423">
        <ele>856.49</ele>
        <time>2026-08-21T08:46:50.377Z</time>
      </trkpt>
      <trkpt lat="45.05458" lon="2.48424">
        <ele>856.46</ele>
        <time>2026-08-21T08:46:51.393Z</time>
      </trkpt>
      <trkpt lat="45.05457" lon="2.48426">
        <ele>856.43</ele>
        <time>2026-08-21T08:46:52.363Z</time>
      </trkpt>
      <trkpt lat="45.05455" lon="2.48428">
        <ele>856.39</ele>
        <time>2026-08-21T08:46:53.363Z</time>
      </trkpt>
      <trkpt lat="45.05454" lon="2.48429">
        <ele>856.35</ele>
        <time>2026-08-21T08:46:54.387Z</time>
      </trkpt>
      <trkpt lat="45.05452" lon="2.4843">
        <ele>856.3</ele>
        <time>2026-08-21T08:46:55.354Z</time>
      </trkpt>
      <trkpt lat="45.0545" lon="2.4843">
        <ele>856.24</ele>
        <time>2026-08-21T08:46:55.438Z</time>
      </trkpt>
      <trkpt lat="45.05448" lon="2.48429">
        <ele>856.17</ele>
        <time>2026-08-21T08:46:57.383Z</time>
      </trkpt>
      <trkpt lat="45.05447" lon="2.48428">
        <ele>856.1</ele>
        <time>2026-08-21T08:46:58.355Z</time>
      </trkpt>
      <trkpt lat="45.05447" lon="2.48426">
        <ele>856.01</ele>
        <time>2026-08-21T08:46:59.354Z</time>
      </trkpt>
      <trkpt lat="45.05447" lon="2.48425">
        <ele>855.93</ele>
        <time>2026-08-21T08:46:59.433Z</time>
      </trkpt>
      <trkpt lat="45.05449" lon="2.48421">
        <ele>855.74</ele>
        <time>2026-08-21T08:47:02.353Z</time>
      </trkpt>
      <trkpt lat="45.05449" lon="2.48419">
        <ele>855.64</ele>
        <time>2026-08-21T08:47:03.353Z</time>
      </trkpt>
      <trkpt lat="45.05449" lon="2.48417">
        <ele>855.43</ele>
        <time>2026-08-21T08:47:05.352Z</time>
      </trkpt>
      <trkpt lat="45.05449" lon="2.48415">
        <ele>855.32</ele>
        <time>2026-08-21T08:47:06.352Z</time>
      </trkpt>
      <trkpt lat="45.05449" lon="2.48413">
        <ele>855.21</ele>
        <time>2026-08-21T08:47:07.353Z</time>
      </trkpt>
      <trkpt lat="45.0545" lon="2.4841">
        <ele>855.1</ele>
        <time>2026-08-21T08:47:08.352Z</time>
      </trkpt>
      <trkpt lat="45.0545" lon="2.48408">
        <ele>854.98</ele>
        <time>2026-08-21T08:47:09.353Z</time>
      </trkpt>
      <trkpt lat="45.0545" lon="2.48406">
        <ele>854.87</ele>
        <time>2026-08-21T08:47:10.353Z</time>
      </trkpt>
      <trkpt lat="45.0545" lon="2.48403">
        <ele>854.74</ele>
        <time>2026-08-21T08:47:11.354Z</time>
      </trkpt>
      <trkpt lat="45.0545" lon="2.48399">
        <ele>854.61</ele>
        <time>2026-08-21T08:47:12.353Z</time>
      </trkpt>
      <trkpt lat="45.05449" lon="2.48394">
        <ele>854.48</ele>
        <time>2026-08-21T08:47:13.356Z</time>
      </trkpt>
      <trkpt lat="45.05448" lon="2.4839">
        <ele>854.37</ele>
        <time>2026-08-21T08:47:14.356Z</time>
      </trkpt>
      <trkpt lat="45.05446" lon="2.48377">
        <ele>854.27</ele>
        <time>2026-08-21T08:47:15.356Z</time>
      </trkpt>
      <trkpt lat="45.05444" lon="2.48368">
        <ele>854.13</ele>
        <time>2026-08-21T08:47:16.360Z</time>
      </trkpt>
      <trkpt lat="45.05442" lon="2.48361">
        <ele>853.85</ele>
        <time>2026-08-21T08:47:17.359Z</time>
      </trkpt>
      <trkpt lat="45.05442" lon="2.48353">
        <ele>853.46</ele>
        <time>2026-08-21T08:47:18.457Z</time>
      </trkpt>
      <trkpt lat="45.05443" lon="2.48343">
        <ele>852.96</ele>
        <time>2026-08-21T08:47:19.417Z</time>
      </trkpt>
      <trkpt lat="45.05444" lon="2.48334">
        <ele>852.59</ele>
        <time>2026-08-21T08:47:20.443Z</time>
      </trkpt>
      <trkpt lat="45.05445" lon="2.48324">
        <ele>852.33</ele>
        <time>2026-08-21T08:47:21.036Z</time>
      </trkpt>
      <trkpt lat="45.05446" lon="2.48315">
        <ele>852.14</ele>
        <time>2026-08-21T08:47:22.423Z</time>
      </trkpt>
      <trkpt lat="45.05448" lon="2.48307">
        <ele>851.76</ele>
        <time>2026-08-21T08:47:23.011Z</time>
      </trkpt>
      <trkpt lat="45.05449" lon="2.48299">
        <ele>851.42</ele>
        <time>2026-08-21T08:47:24.446Z</time>
      </trkpt>
      <trkpt lat="45.0545" lon="2.4829">
        <ele>851.31</ele>
        <time>2026-08-21T08:47:25.067Z</time>
      </trkpt>
      <trkpt lat="45.05452" lon="2.48282">
        <ele>851.04</ele>
        <time>2026-08-21T08:47:26.435Z</time>
      </trkpt>
      <trkpt lat="45.05453" lon="2.48276">
        <ele>850.81</ele>
        <time>2026-08-21T08:47:27.050Z</time>
      </trkpt>
      <trkpt lat="45.05454" lon="2.48269">
        <ele>850.43</ele>
        <time>2026-08-21T08:47:28.441Z</time>
      </trkpt>
      <trkpt lat="45.05453" lon="2.48265">
        <ele>850.01</ele>
        <time>2026-08-21T08:47:29.431Z</time>
      </trkpt>
      <trkpt lat="45.05454" lon="2.48262">
        <ele>849.61</ele>
        <time>2026-08-21T08:47:30.440Z</time>
      </trkpt>
      <trkpt lat="45.05454" lon="2.4826">
        <ele>849.19</ele>
        <time>2026-08-21T08:47:31.441Z</time>
      </trkpt>
      <trkpt lat="45.05455" lon="2.48254">
        <ele>848.35</ele>
        <time>2026-08-21T08:47:33.439Z</time>
      </trkpt>
      <trkpt lat="45.05457" lon="2.4825">
        <ele>847.46</ele>
        <time>2026-08-21T08:47:35.073Z</time>
      </trkpt>
      <trkpt lat="45.05457" lon="2.48247">
        <ele>847.02</ele>
        <time>2026-08-21T08:47:36.431Z</time>
      </trkpt>
      <trkpt lat="45.05456" lon="2.48244">
        <ele>846.62</ele>
        <time>2026-08-21T08:47:37.438Z</time>
      </trkpt>
      <trkpt lat="45.05455" lon="2.48239">
        <ele>846.11</ele>
        <time>2026-08-21T08:47:38.432Z</time>
      </trkpt>
      <trkpt lat="45.05455" lon="2.48235">
        <ele>845.66</ele>
        <time>2026-08-21T08:47:39.431Z</time>
      </trkpt>
      <trkpt lat="45.05457" lon="2.48232">
        <ele>845.22</ele>
        <time>2026-08-21T08:47:40.431Z</time>
      </trkpt>
      <trkpt lat="45.05459" lon="2.48231">
        <ele>844.79</ele>
        <time>2026-08-21T08:47:41.090Z</time>
      </trkpt>
      <trkpt lat="45.0546" lon="2.48229">
        <ele>844.38</ele>
        <time>2026-08-21T08:47:42.430Z</time>
      </trkpt>
      <trkpt lat="45.05461" lon="2.48227">
        <ele>843.99</ele>
        <time>2026-08-21T08:47:42.515Z</time>
      </trkpt>
      <trkpt lat="45.05462" lon="2.48226">
        <ele>843.61</ele>
        <time>2026-08-21T08:47:44.075Z</time>
      </trkpt>
      <trkpt lat="45.05466" lon="2.48224">
        <ele>842.91</ele>
        <time>2026-08-21T08:47:46.431Z</time>
      </trkpt>
      <trkpt lat="45.05467" lon="2.48224">
        <ele>842.57</ele>
        <time>2026-08-21T08:47:47.428Z</time>
      </trkpt>
      <trkpt lat="45.05468" lon="2.48223">
        <ele>842.26</ele>
        <time>2026-08-21T08:47:48.425Z</time>
      </trkpt>
      <trkpt lat="45.0547" lon="2.48223">
        <ele>841.97</ele>
        <time>2026-08-21T08:47:49.425Z</time>
      </trkpt>
      <trkpt lat="45.05472" lon="2.48223">
        <ele>841.65</ele>
        <time>2026-08-21T08:47:50.426Z</time>
      </trkpt>
      <trkpt lat="45.05474" lon="2.48223">
        <ele>841.35</ele>
        <time>2026-08-21T08:47:51.423Z</time>
      </trkpt>
      <trkpt lat="45.05476" lon="2.48222">
        <ele>841.05</ele>
        <time>2026-08-21T08:47:52.422Z</time>
      </trkpt>
      <trkpt lat="45.0548" lon="2.48222">
        <ele>840.5</ele>
        <time>2026-08-21T08:47:54.035Z</time>
      </trkpt>
      <trkpt lat="45.05481" lon="2.48223">
        <ele>840.26</ele>
        <time>2026-08-21T08:47:55.518Z</time>
      </trkpt>
      <trkpt lat="45.05482" lon="2.48223">
        <ele>840</ele>
        <time>2026-08-21T08:47:56.064Z</time>
      </trkpt>
      <trkpt lat="45.05485" lon="2.48225">
        <ele>839.55</ele>
        <time>2026-08-21T08:47:58.358Z</time>
      </trkpt>
      <trkpt lat="45.05486" lon="2.48226">
        <ele>839.34</ele>
        <time>2026-08-21T08:47:58.569Z</time>
      </trkpt>
      <trkpt lat="45.05487" lon="2.48227">
        <ele>839.13</ele>
        <time>2026-08-21T08:48:00.060Z</time>
      </trkpt>
      <trkpt lat="45.05489" lon="2.48228">
        <ele>838.95</ele>
        <time>2026-08-21T08:48:01.056Z</time>
      </trkpt>
      <trkpt lat="45.05492" lon="2.4823">
        <ele>838.61</ele>
        <time>2026-08-21T08:48:03.042Z</time>
      </trkpt>
      <trkpt lat="45.05493" lon="2.48231">
        <ele>838.45</ele>
        <time>2026-08-21T08:48:04.514Z</time>
      </trkpt>
      <trkpt lat="45.05494" lon="2.48232">
        <ele>838.32</ele>
        <time>2026-08-21T08:48:04.531Z</time>
      </trkpt>
      <trkpt lat="45.05497" lon="2.48234">
        <ele>838.07</ele>
        <time>2026-08-21T08:48:07.420Z</time>
      </trkpt>
      <trkpt lat="45.05498" lon="2.48235">
        <ele>837.95</ele>
        <time>2026-08-21T08:48:08.514Z</time>
      </trkpt>
      <trkpt lat="45.05499" lon="2.48236">
        <ele>837.84</ele>
        <time>2026-08-21T08:48:09.079Z</time>
      </trkpt>
      <trkpt lat="45.05502" lon="2.48239">
        <ele>837.66</ele>
        <time>2026-08-21T08:48:11.008Z</time>
      </trkpt>
      <trkpt lat="45.05503" lon="2.4824">
        <ele>837.58</ele>
        <time>2026-08-21T08:48:11.543Z</time>
      </trkpt>
      <trkpt lat="45.05504" lon="2.48241">
        <ele>837.5</ele>
        <time>2026-08-21T08:48:13.526Z</time>
      </trkpt>
      <trkpt lat="45.05506" lon="2.48244">
        <ele>837.36</ele>
        <time>2026-08-21T08:48:15.057Z</time>
      </trkpt>
      <trkpt lat="45.05507" lon="2.48244">
        <ele>837.3</ele>
        <time>2026-08-21T08:48:16.526Z</time>
      </trkpt>
      <trkpt lat="45.05507" lon="2.48245">
        <ele>837.25</ele>
        <time>2026-08-21T08:48:17.511Z</time>
      </trkpt>
      <trkpt lat="45.0551" lon="2.48248">
        <ele>837.15</ele>
        <time>2026-08-21T08:48:19.527Z</time>
      </trkpt>
      <trkpt lat="45.0551" lon="2.4825">
        <ele>837.12</ele>
        <time>2026-08-21T08:48:20.510Z</time>
      </trkpt>
      <trkpt lat="45.05513" lon="2.48253">
        <ele>837.04</ele>
        <time>2026-08-21T08:48:22.522Z</time>
      </trkpt>
      <trkpt lat="45.05513" lon="2.48254">
        <ele>837</ele>
        <time>2026-08-21T08:48:23.511Z</time>
      </trkpt>
      <trkpt lat="45.05514" lon="2.48256">
        <ele>836.98</ele>
        <time>2026-08-21T08:48:24.046Z</time>
      </trkpt>
      <trkpt lat="45.05515" lon="2.48257">
        <ele>836.95</ele>
        <time>2026-08-21T08:48:25.094Z</time>
      </trkpt>
      <trkpt lat="45.05518" lon="2.48261">
        <ele>836.9</ele>
        <time>2026-08-21T08:48:27.040Z</time>
      </trkpt>
      <trkpt lat="45.05519" lon="2.48262">
        <ele>836.88</ele>
        <time>2026-08-21T08:48:28.529Z</time>
      </trkpt>
      <trkpt lat="45.0552" lon="2.48263">
        <ele>836.87</ele>
        <time>2026-08-21T08:48:29.513Z</time>
      </trkpt>
      <trkpt lat="45.05523" lon="2.48267">
        <ele>836.85</ele>
        <time>2026-08-21T08:48:31.534Z</time>
      </trkpt>
      <trkpt lat="45.05523" lon="2.48268">
        <ele>836.83</ele>
        <time>2026-08-21T08:48:32.514Z</time>
      </trkpt>
      <trkpt lat="45.05524" lon="2.48269">
        <ele>836.82</ele>
        <time>2026-08-21T08:48:33.034Z</time>
      </trkpt>
      <trkpt lat="45.05526" lon="2.48273">
        <ele>836.82</ele>
        <time>2026-08-21T08:48:35.514Z</time>
      </trkpt>
      <trkpt lat="45.05526" lon="2.48274">
        <ele>836.82</ele>
        <time>2026-08-21T08:48:36.515Z</time>
      </trkpt>
      <trkpt lat="45.05526" lon="2.48275">
        <ele>836.82</ele>
        <time>2026-08-21T08:48:37.535Z</time>
      </trkpt>
      <trkpt lat="45.05529" lon="2.48278">
        <ele>836.82</ele>
        <time>2026-08-21T08:48:39.047Z</time>
      </trkpt>
      <trkpt lat="45.05529" lon="2.48279">
        <ele>836.83</ele>
        <time>2026-08-21T08:48:40.532Z</time>
      </trkpt>
      <trkpt lat="45.0553" lon="2.4828">
        <ele>836.84</ele>
        <time>2026-08-21T08:48:41.519Z</time>
      </trkpt>
      <trkpt lat="45.05531" lon="2.48281">
        <ele>836.84</ele>
        <time>2026-08-21T08:48:42.434Z</time>
      </trkpt>
      <trkpt lat="45.05534" lon="2.48285">
        <ele>836.86</ele>
        <time>2026-08-21T08:48:44.548Z</time>
      </trkpt>
      <trkpt lat="45.05535" lon="2.48286">
        <ele>836.87</ele>
        <time>2026-08-21T08:48:45.521Z</time>
      </trkpt>
      <trkpt lat="45.05536" lon="2.48287">
        <ele>836.88</ele>
        <time>2026-08-21T08:48:46.529Z</time>
      </trkpt>
      <trkpt lat="45.05539" lon="2.48291">
        <ele>836.91</ele>
        <time>2026-08-21T08:48:48.524Z</time>
      </trkpt>
      <trkpt lat="45.05541" lon="2.48292">
        <ele>836.93</ele>
        <time>2026-08-21T08:48:49.524Z</time>
      </trkpt>
      <trkpt lat="45.05542" lon="2.48293">
        <ele>836.93</ele>
        <time>2026-08-21T08:48:50.526Z</time>
      </trkpt>
      <trkpt lat="45.05544" lon="2.48295">
        <ele>836.93</ele>
        <time>2026-08-21T08:48:51.497Z</time>
      </trkpt>
      <trkpt lat="45.05545" lon="2.48296">
        <ele>836.94</ele>
        <time>2026-08-21T08:48:52.536Z</time>
      </trkpt>
      <trkpt lat="45.05547" lon="2.48297">
        <ele>836.95</ele>
        <time>2026-08-21T08:48:53.530Z</time>
      </trkpt>
      <trkpt lat="45.05548" lon="2.48299">
        <ele>836.95</ele>
        <time>2026-08-21T08:48:53.610Z</time>
      </trkpt>
      <trkpt lat="45.0555" lon="2.483">
        <ele>836.96</ele>
        <time>2026-08-21T08:48:55.179Z</time>
      </trkpt>
      <trkpt lat="45.05551" lon="2.48302">
        <ele>836.97</ele>
        <time>2026-08-21T08:48:56.535Z</time>
      </trkpt>
      <trkpt lat="45.05552" lon="2.48303">
        <ele>836.99</ele>
        <time>2026-08-21T08:48:57.535Z</time>
      </trkpt>
      <trkpt lat="45.05553" lon="2.48305">
        <ele>837</ele>
        <time>2026-08-21T08:48:58.540Z</time>
      </trkpt>
      <trkpt lat="45.05557" lon="2.48309">
        <ele>837.02</ele>
        <time>2026-08-21T08:49:00.270Z</time>
      </trkpt>
      <trkpt lat="45.05558" lon="2.48311">
        <ele>837.04</ele>
        <time>2026-08-21T08:49:01.538Z</time>
      </trkpt>
      <trkpt lat="45.05559" lon="2.48312">
        <ele>837.06</ele>
        <time>2026-08-21T08:49:02.538Z</time>
      </trkpt>
      <trkpt lat="45.0556" lon="2.48314">
        <ele>837.08</ele>
        <time>2026-08-21T08:49:03.539Z</time>
      </trkpt>
      <trkpt lat="45.05561" lon="2.48315">
        <ele>837.1</ele>
        <time>2026-08-21T08:49:04.482Z</time>
      </trkpt>
      <trkpt lat="45.05563" lon="2.48316">
        <ele>837.11</ele>
        <time>2026-08-21T08:49:05.540Z</time>
      </trkpt>
      <trkpt lat="45.05565" lon="2.48317">
        <ele>837.14</ele>
        <time>2026-08-21T08:49:06.542Z</time>
      </trkpt>
      <trkpt lat="45.0557" lon="2.48319">
        <ele>837.2</ele>
        <time>2026-08-21T08:49:09.546Z</time>
      </trkpt>
      <trkpt lat="45.05571" lon="2.48318">
        <ele>837.24</ele>
        <time>2026-08-21T08:49:11.549Z</time>
      </trkpt>
      <trkpt lat="45.05572" lon="2.48319">
        <ele>837.25</ele>
        <time>2026-08-21T08:49:11.616Z</time>
      </trkpt>
      <trkpt lat="45.05573" lon="2.4832">
        <ele>837.25</ele>
        <time>2026-08-21T08:49:13.551Z</time>
      </trkpt>
      <trkpt lat="45.05577" lon="2.48318">
        <ele>837.29</ele>
        <time>2026-08-21T08:49:23.102Z</time>
      </trkpt>
      <trkpt lat="45.05576" lon="2.48317">
        <ele>837.32</ele>
        <time>2026-08-21T08:49:24.054Z</time>
      </trkpt>
      <trkpt lat="45.05576" lon="2.48316">
        <ele>837.32</ele>
        <time>2026-08-21T08:49:25.053Z</time>
      </trkpt>
      <trkpt lat="45.05575" lon="2.48313">
        <ele>837.32</ele>
        <time>2026-08-21T08:49:27.046Z</time>
      </trkpt>
      <trkpt lat="45.05575" lon="2.48312">
        <ele>837.31</ele>
        <time>2026-08-21T08:49:29.092Z</time>
      </trkpt>
      <trkpt lat="45.05575" lon="2.48311">
        <ele>837.32</ele>
        <time>2026-08-21T08:49:30.045Z</time>
      </trkpt>
      <trkpt lat="45.05576" lon="2.48307">
        <ele>837.31</ele>
        <time>2026-08-21T08:49:31.212Z</time>
      </trkpt>
      <trkpt lat="45.05576" lon="2.48305">
        <ele>837.31</ele>
        <time>2026-08-21T08:49:33.046Z</time>
      </trkpt>
      <trkpt lat="45.05576" lon="2.48304">
        <ele>837.32</ele>
        <time>2026-08-21T08:49:34.115Z</time>
      </trkpt>
      <trkpt lat="45.05576" lon="2.48302">
        <ele>837.32</ele>
        <time>2026-08-21T08:49:35.050Z</time>
      </trkpt>
      <trkpt lat="45.05576" lon="2.483">
        <ele>837.32</ele>
        <time>2026-08-21T08:49:36.046Z</time>
      </trkpt>
      <trkpt lat="45.05576" lon="2.48295">
        <ele>837.33</ele>
        <time>2026-08-21T08:49:37.142Z</time>
      </trkpt>
      <trkpt lat="45.05576" lon="2.48294">
        <ele>837.34</ele>
        <time>2026-08-21T08:49:38.143Z</time>
      </trkpt>
      <trkpt lat="45.05576" lon="2.48293">
        <ele>837.34</ele>
        <time>2026-08-21T08:49:40.047Z</time>
      </trkpt>
      <trkpt lat="45.05577" lon="2.48292">
        <ele>837.35</ele>
        <time>2026-08-21T08:49:41.046Z</time>
      </trkpt>
      <trkpt lat="45.05577" lon="2.4829">
        <ele>837.36</ele>
        <time>2026-08-21T08:49:42.046Z</time>
      </trkpt>
      <trkpt lat="45.05577" lon="2.48289">
        <ele>837.36</ele>
        <time>2026-08-21T08:49:43.044Z</time>
      </trkpt>
      <trkpt lat="45.05577" lon="2.48287">
        <ele>837.37</ele>
        <time>2026-08-21T08:49:44.126Z</time>
      </trkpt>
      <trkpt lat="45.05578" lon="2.48283">
        <ele>837.41</ele>
        <time>2026-08-21T08:49:46.048Z</time>
      </trkpt>
      <trkpt lat="45.05578" lon="2.48281">
        <ele>837.44</ele>
        <time>2026-08-21T08:49:47.048Z</time>
      </trkpt>
      <trkpt lat="45.05578" lon="2.48279">
        <ele>837.46</ele>
        <time>2026-08-21T08:49:48.049Z</time>
      </trkpt>
      <trkpt lat="45.05578" lon="2.48277">
        <ele>837.49</ele>
        <time>2026-08-21T08:49:49.112Z</time>
      </trkpt>
      <trkpt lat="45.05578" lon="2.48275">
        <ele>837.51</ele>
        <time>2026-08-21T08:49:50.148Z</time>
      </trkpt>
      <trkpt lat="45.05578" lon="2.48273">
        <ele>837.53</ele>
        <time>2026-08-21T08:49:51.149Z</time>
      </trkpt>
      <trkpt lat="45.05578" lon="2.48271">
        <ele>837.57</ele>
        <time>2026-08-21T08:49:52.053Z</time>
      </trkpt>
      <trkpt lat="45.05578" lon="2.48268">
        <ele>837.61</ele>
        <time>2026-08-21T08:49:53.053Z</time>
      </trkpt>
      <trkpt lat="45.05577" lon="2.48265">
        <ele>837.65</ele>
        <time>2026-08-21T08:49:54.152Z</time>
      </trkpt>
      <trkpt lat="45.05577" lon="2.48263">
        <ele>837.71</ele>
        <time>2026-08-21T08:49:55.051Z</time>
      </trkpt>
      <trkpt lat="45.05576" lon="2.48261">
        <ele>837.76</ele>
        <time>2026-08-21T08:49:56.152Z</time>
      </trkpt>
      <trkpt lat="45.05574" lon="2.48257">
        <ele>837.9</ele>
        <time>2026-08-21T08:49:57.628Z</time>
      </trkpt>
      <trkpt lat="45.05573" lon="2.48243">
        <ele>840.78</ele>
        <time>2026-08-21T08:52:39.512Z</time>
      </trkpt>
      <trkpt lat="45.05573" lon="2.48241">
        <ele>840.81</ele>
        <time>2026-08-21T08:52:41.514Z</time>
      </trkpt>
      <trkpt lat="45.05572" lon="2.4824">
        <ele>840.83</ele>
        <time>2026-08-21T08:52:42.587Z</time>
      </trkpt>
      <trkpt lat="45.05571" lon="2.48236">
        <ele>840.87</ele>
        <time>2026-08-21T08:52:44.587Z</time>
      </trkpt>
      <trkpt lat="45.05571" lon="2.48235">
        <ele>840.9</ele>
        <time>2026-08-21T08:52:45.213Z</time>
      </trkpt>
      <trkpt lat="45.05571" lon="2.48233">
        <ele>840.93</ele>
        <time>2026-08-21T08:52:45.615Z</time>
      </trkpt>
      <trkpt lat="45.05571" lon="2.48231">
        <ele>840.97</ele>
        <time>2026-08-21T08:52:47.592Z</time>
      </trkpt>
      <trkpt lat="45.05571" lon="2.48228">
        <ele>841</ele>
        <time>2026-08-21T08:52:48.089Z</time>
      </trkpt>
      <trkpt lat="45.05571" lon="2.48226">
        <ele>841.04</ele>
        <time>2026-08-21T08:52:49.567Z</time>
      </trkpt>
      <trkpt lat="45.0557" lon="2.48224">
        <ele>841.07</ele>
        <time>2026-08-21T08:52:50.528Z</time>
      </trkpt>
      <trkpt lat="45.0557" lon="2.48221">
        <ele>841.12</ele>
        <time>2026-08-21T08:52:51.531Z</time>
      </trkpt>
      <trkpt lat="45.0557" lon="2.48219">
        <ele>841.17</ele>
        <time>2026-08-21T08:52:52.533Z</time>
      </trkpt>
      <trkpt lat="45.0557" lon="2.48213">
        <ele>841.29</ele>
        <time>2026-08-21T08:52:54.539Z</time>
      </trkpt>
      <trkpt lat="45.0557" lon="2.4821">
        <ele>841.36</ele>
        <time>2026-08-21T08:52:55.543Z</time>
      </trkpt>
      <trkpt lat="45.0557" lon="2.48208">
        <ele>841.41</ele>
        <time>2026-08-21T08:52:56.080Z</time>
      </trkpt>
      <trkpt lat="45.05569" lon="2.48205">
        <ele>841.49</ele>
        <time>2026-08-21T08:52:57.548Z</time>
      </trkpt>
      <trkpt lat="45.05569" lon="2.48202">
        <ele>841.58</ele>
        <time>2026-08-21T08:52:58.491Z</time>
      </trkpt>
      <trkpt lat="45.05568" lon="2.48198">
        <ele>841.66</ele>
        <time>2026-08-21T08:52:59.553Z</time>
      </trkpt>
      <trkpt lat="45.05568" lon="2.48195">
        <ele>841.77</ele>
        <time>2026-08-21T08:53:00.612Z</time>
      </trkpt>
      <trkpt lat="45.05568" lon="2.48192">
        <ele>841.9</ele>
        <time>2026-08-21T08:53:01.559Z</time>
      </trkpt>
      <trkpt lat="45.05569" lon="2.48189">
        <ele>842.01</ele>
        <time>2026-08-21T08:53:02.565Z</time>
      </trkpt>
      <trkpt lat="45.05569" lon="2.48186">
        <ele>842.14</ele>
        <time>2026-08-21T08:53:03.335Z</time>
      </trkpt>
      <trkpt lat="45.0557" lon="2.48182">
        <ele>842.3</ele>
        <time>2026-08-21T08:53:03.629Z</time>
      </trkpt>
      <trkpt lat="45.0557" lon="2.48179">
        <ele>842.47</ele>
        <time>2026-08-21T08:53:05.600Z</time>
      </trkpt>
      <trkpt lat="45.05571" lon="2.48176">
        <ele>842.67</ele>
        <time>2026-08-21T08:53:06.145Z</time>
      </trkpt>
      <trkpt lat="45.05571" lon="2.48173">
        <ele>842.88</ele>
        <time>2026-08-21T08:53:07.612Z</time>
      </trkpt>
      <trkpt lat="45.05571" lon="2.4817">
        <ele>843.12</ele>
        <time>2026-08-21T08:53:08.237Z</time>
      </trkpt>
      <trkpt lat="45.05572" lon="2.48167">
        <ele>843.36</ele>
        <time>2026-08-21T08:53:09.612Z</time>
      </trkpt>
      <trkpt lat="45.05572" lon="2.48164">
        <ele>843.63</ele>
        <time>2026-08-21T08:53:10.599Z</time>
      </trkpt>
      <trkpt lat="45.05573" lon="2.48162">
        <ele>843.91</ele>
        <time>2026-08-21T08:53:11.579Z</time>
      </trkpt>
      <trkpt lat="45.05573" lon="2.4816">
        <ele>844.2</ele>
        <time>2026-08-21T08:53:12.354Z</time>
      </trkpt>
      <trkpt lat="45.05574" lon="2.48159">
        <ele>844.51</ele>
        <time>2026-08-21T08:53:12.642Z</time>
      </trkpt>
      <trkpt lat="45.05576" lon="2.48159">
        <ele>844.83</ele>
        <time>2026-08-21T08:53:13.663Z</time>
      </trkpt>
      <trkpt lat="45.05577" lon="2.4816">
        <ele>845.16</ele>
        <time>2026-08-21T08:53:15.613Z</time>
      </trkpt>
      <trkpt lat="45.05578" lon="2.48162">
        <ele>845.51</ele>
        <time>2026-08-21T08:53:16.579Z</time>
      </trkpt>
      <trkpt lat="45.0558" lon="2.48164">
        <ele>845.86</ele>
        <time>2026-08-21T08:53:17.124Z</time>
      </trkpt>
      <trkpt lat="45.05581" lon="2.48165">
        <ele>846.23</ele>
        <time>2026-08-21T08:53:18.621Z</time>
      </trkpt>
      <trkpt lat="45.05583" lon="2.48166">
        <ele>846.61</ele>
        <time>2026-08-21T08:53:19.629Z</time>
      </trkpt>
      <trkpt lat="45.05587" lon="2.48167">
        <ele>847.38</ele>
        <time>2026-08-21T08:53:21.591Z</time>
      </trkpt>
      <trkpt lat="45.05588" lon="2.48166">
        <ele>847.77</ele>
        <time>2026-08-21T08:53:22.592Z</time>
      </trkpt>
      <trkpt lat="45.05589" lon="2.48161">
        <ele>848.53</ele>
        <time>2026-08-21T08:53:23.642Z</time>
      </trkpt>
      <trkpt lat="45.05588" lon="2.48159">
        <ele>848.92</ele>
        <time>2026-08-21T08:53:25.598Z</time>
      </trkpt>
      <trkpt lat="45.05588" lon="2.48157">
        <ele>849.31</ele>
        <time>2026-08-21T08:53:25.651Z</time>
      </trkpt>
      <trkpt lat="45.05588" lon="2.48155">
        <ele>849.68</ele>
        <time>2026-08-21T08:53:27.583Z</time>
      </trkpt>
      <trkpt lat="45.05587" lon="2.48152">
        <ele>850.06</ele>
        <time>2026-08-21T08:53:28.598Z</time>
      </trkpt>
      <trkpt lat="45.05587" lon="2.4815">
        <ele>850.43</ele>
        <time>2026-08-21T08:53:29.603Z</time>
      </trkpt>
      <trkpt lat="45.05587" lon="2.48144">
        <ele>851.19</ele>
        <time>2026-08-21T08:53:31.607Z</time>
      </trkpt>
      <trkpt lat="45.05587" lon="2.48142">
        <ele>851.56</ele>
        <time>2026-08-21T08:53:31.652Z</time>
      </trkpt>
      <trkpt lat="45.05587" lon="2.4814">
        <ele>851.95</ele>
        <time>2026-08-21T08:53:33.609Z</time>
      </trkpt>
      <trkpt lat="45.05588" lon="2.48138">
        <ele>852.34</ele>
        <time>2026-08-21T08:53:33.684Z</time>
      </trkpt>
      <trkpt lat="45.05589" lon="2.48136">
        <ele>852.73</ele>
        <time>2026-08-21T08:53:35.216Z</time>
      </trkpt>
      <trkpt lat="45.05589" lon="2.48135">
        <ele>853.1</ele>
        <time>2026-08-21T08:53:35.694Z</time>
      </trkpt>
      <trkpt lat="45.0559" lon="2.48133">
        <ele>853.48</ele>
        <time>2026-08-21T08:53:37.618Z</time>
      </trkpt>
      <trkpt lat="45.05593" lon="2.48129">
        <ele>854.22</ele>
        <time>2026-08-21T08:53:39.621Z</time>
      </trkpt>
      <trkpt lat="45.05594" lon="2.48128">
        <ele>854.58</ele>
        <time>2026-08-21T08:53:40.622Z</time>
      </trkpt>
      <trkpt lat="45.05595" lon="2.48126">
        <ele>854.96</ele>
        <time>2026-08-21T08:53:41.623Z</time>
      </trkpt>
      <trkpt lat="45.05595" lon="2.48125">
        <ele>855.33</ele>
        <time>2026-08-21T08:53:42.619Z</time>
      </trkpt>
      <trkpt lat="45.05597" lon="2.48123">
        <ele>855.68</ele>
        <time>2026-08-21T08:53:43.626Z</time>
      </trkpt>
      <trkpt lat="45.05598" lon="2.48121">
        <ele>856.02</ele>
        <time>2026-08-21T08:53:44.625Z</time>
      </trkpt>
      <trkpt lat="45.05599" lon="2.48119">
        <ele>856.35</ele>
        <time>2026-08-21T08:53:45.626Z</time>
      </trkpt>
      <trkpt lat="45.05601" lon="2.48117">
        <ele>856.66</ele>
        <time>2026-08-21T08:53:46.627Z</time>
      </trkpt>
      <trkpt lat="45.05602" lon="2.48116">
        <ele>856.97</ele>
        <time>2026-08-21T08:53:47.198Z</time>
      </trkpt>
      <trkpt lat="45.05603" lon="2.48114">
        <ele>857.28</ele>
        <time>2026-08-21T08:53:48.204Z</time>
      </trkpt>
      <trkpt lat="45.05605" lon="2.48112">
        <ele>857.59</ele>
        <time>2026-08-21T08:53:49.631Z</time>
      </trkpt>
      <trkpt lat="45.05606" lon="2.4811">
        <ele>857.9</ele>
        <time>2026-08-21T08:53:50.630Z</time>
      </trkpt>
      <trkpt lat="45.05607" lon="2.48109">
        <ele>858.19</ele>
        <time>2026-08-21T08:53:51.581Z</time>
      </trkpt>
      <trkpt lat="45.0561" lon="2.48104">
        <ele>858.79</ele>
        <time>2026-08-21T08:53:53.582Z</time>
      </trkpt>
      <trkpt lat="45.05611" lon="2.48103">
        <ele>859.08</ele>
        <time>2026-08-21T08:53:54.540Z</time>
      </trkpt>
      <trkpt lat="45.05611" lon="2.48101">
        <ele>859.37</ele>
        <time>2026-08-21T08:53:55.560Z</time>
      </trkpt>
      <trkpt lat="45.05613" lon="2.48099">
        <ele>859.63</ele>
        <time>2026-08-21T08:53:56.638Z</time>
      </trkpt>
      <trkpt lat="45.05614" lon="2.48098">
        <ele>859.89</ele>
        <time>2026-08-21T08:53:57.582Z</time>
      </trkpt>
      <trkpt lat="45.05615" lon="2.48096">
        <ele>860.16</ele>
        <time>2026-08-21T08:53:58.640Z</time>
      </trkpt>
      <trkpt lat="45.05616" lon="2.48094">
        <ele>860.43</ele>
        <time>2026-08-21T08:53:58.704Z</time>
      </trkpt>
      <trkpt lat="45.05617" lon="2.48092">
        <ele>860.68</ele>
        <time>2026-08-21T08:54:00.643Z</time>
      </trkpt>
      <trkpt lat="45.05618" lon="2.48091">
        <ele>860.93</ele>
        <time>2026-08-21T08:54:00.716Z</time>
      </trkpt>
      <trkpt lat="45.05619" lon="2.48088">
        <ele>861.18</ele>
        <time>2026-08-21T08:54:02.646Z</time>
      </trkpt>
      <trkpt lat="45.0562" lon="2.48086">
        <ele>861.43</ele>
        <time>2026-08-21T08:54:02.724Z</time>
      </trkpt>
      <trkpt lat="45.05621" lon="2.48084">
        <ele>861.68</ele>
        <time>2026-08-21T08:54:04.649Z</time>
      </trkpt>
      <trkpt lat="45.05622" lon="2.48081">
        <ele>861.91</ele>
        <time>2026-08-21T08:54:05.650Z</time>
      </trkpt>
      <trkpt lat="45.05623" lon="2.48079">
        <ele>862.15</ele>
        <time>2026-08-21T08:54:06.651Z</time>
      </trkpt>
      <trkpt lat="45.05624" lon="2.48076">
        <ele>862.38</ele>
        <time>2026-08-21T08:54:07.655Z</time>
      </trkpt>
      <trkpt lat="45.05625" lon="2.48074">
        <ele>862.59</ele>
        <time>2026-08-21T08:54:08.631Z</time>
      </trkpt>
      <trkpt lat="45.05627" lon="2.48072">
        <ele>862.81</ele>
        <time>2026-08-21T08:54:09.654Z</time>
      </trkpt>
      <trkpt lat="45.05628" lon="2.4807">
        <ele>863.03</ele>
        <time>2026-08-21T08:54:10.656Z</time>
      </trkpt>
      <trkpt lat="45.0563" lon="2.48067">
        <ele>863.26</ele>
        <time>2026-08-21T08:54:11.655Z</time>
      </trkpt>
      <trkpt lat="45.05631" lon="2.48065">
        <ele>863.48</ele>
        <time>2026-08-21T08:54:12.656Z</time>
      </trkpt>
      <trkpt lat="45.05633" lon="2.48063">
        <ele>863.7</ele>
        <time>2026-08-21T08:54:13.657Z</time>
      </trkpt>
      <trkpt lat="45.05634" lon="2.48061">
        <ele>863.9</ele>
        <time>2026-08-21T08:54:14.659Z</time>
      </trkpt>
      <trkpt lat="45.05636" lon="2.48059">
        <ele>864.13</ele>
        <time>2026-08-21T08:54:15.660Z</time>
      </trkpt>
      <trkpt lat="45.05637" lon="2.48057">
        <ele>864.33</ele>
        <time>2026-08-21T08:54:16.539Z</time>
      </trkpt>
      <trkpt lat="45.05639" lon="2.48055">
        <ele>864.52</ele>
        <time>2026-08-21T08:54:16.707Z</time>
      </trkpt>
      <trkpt lat="45.0564" lon="2.48054">
        <ele>864.71</ele>
        <time>2026-08-21T08:54:17.705Z</time>
      </trkpt>
      <trkpt lat="45.05641" lon="2.48053">
        <ele>864.92</ele>
        <time>2026-08-21T08:54:18.719Z</time>
      </trkpt>
      <trkpt lat="45.05643" lon="2.48051">
        <ele>865.1</ele>
        <time>2026-08-21T08:54:20.275Z</time>
      </trkpt>
      <trkpt lat="45.05644" lon="2.4805">
        <ele>865.3</ele>
        <time>2026-08-21T08:54:21.663Z</time>
      </trkpt>
      <trkpt lat="45.05645" lon="2.48049">
        <ele>865.5</ele>
        <time>2026-08-21T08:54:22.664Z</time>
      </trkpt>
      <trkpt lat="45.0565" lon="2.48044">
        <ele>865.88</ele>
        <time>2026-08-21T08:54:24.665Z</time>
      </trkpt>
      <trkpt lat="45.05652" lon="2.48043">
        <ele>866.27</ele>
        <time>2026-08-21T08:54:26.667Z</time>
      </trkpt>
      <trkpt lat="45.05653" lon="2.48042">
        <ele>866.45</ele>
        <time>2026-08-21T08:54:27.668Z</time>
      </trkpt>
      <trkpt lat="45.05654" lon="2.48041">
        <ele>866.63</ele>
        <time>2026-08-21T08:54:27.721Z</time>
      </trkpt>
      <trkpt lat="45.05655" lon="2.4804">
        <ele>866.82</ele>
        <time>2026-08-21T08:54:28.757Z</time>
      </trkpt>
      <trkpt lat="45.05656" lon="2.48039">
        <ele>866.99</ele>
        <time>2026-08-21T08:54:30.669Z</time>
      </trkpt>
      <trkpt lat="45.05658" lon="2.48038">
        <ele>867.14</ele>
        <time>2026-08-21T08:54:31.671Z</time>
      </trkpt>
      <trkpt lat="45.05661" lon="2.48036">
        <ele>867.45</ele>
        <time>2026-08-21T08:54:33.671Z</time>
      </trkpt>
      <trkpt lat="45.05662" lon="2.48035">
        <ele>867.6</ele>
        <time>2026-08-21T08:54:34.412Z</time>
      </trkpt>
      <trkpt lat="45.05663" lon="2.48034">
        <ele>867.76</ele>
        <time>2026-08-21T08:54:35.671Z</time>
      </trkpt>
      <trkpt lat="45.05664" lon="2.48033">
        <ele>867.91</ele>
        <time>2026-08-21T08:54:36.672Z</time>
      </trkpt>
      <trkpt lat="45.05666" lon="2.48032">
        <ele>868.08</ele>
        <time>2026-08-21T08:54:37.673Z</time>
      </trkpt>
      <trkpt lat="45.05667" lon="2.48031">
        <ele>868.21</ele>
        <time>2026-08-21T08:54:38.674Z</time>
      </trkpt>
      <trkpt lat="45.05669" lon="2.4803">
        <ele>868.35</ele>
        <time>2026-08-21T08:54:39.674Z</time>
      </trkpt>
      <trkpt lat="45.0567" lon="2.48028">
        <ele>868.49</ele>
        <time>2026-08-21T08:54:40.676Z</time>
      </trkpt>
      <trkpt lat="45.05671" lon="2.48027">
        <ele>868.66</ele>
        <time>2026-08-21T08:54:41.246Z</time>
      </trkpt>
      <trkpt lat="45.05673" lon="2.48025">
        <ele>868.81</ele>
        <time>2026-08-21T08:54:42.678Z</time>
      </trkpt>
      <trkpt lat="45.05674" lon="2.48023">
        <ele>868.97</ele>
        <time>2026-08-21T08:54:43.679Z</time>
      </trkpt>
      <trkpt lat="45.05676" lon="2.48022">
        <ele>869.12</ele>
        <time>2026-08-21T08:54:44.679Z</time>
      </trkpt>
      <trkpt lat="45.05679" lon="2.48018">
        <ele>869.42</ele>
        <time>2026-08-21T08:54:46.681Z</time>
      </trkpt>
      <trkpt lat="45.05679" lon="2.48017">
        <ele>869.58</ele>
        <time>2026-08-21T08:54:47.679Z</time>
      </trkpt>
      <trkpt lat="45.05682" lon="2.48013">
        <ele>869.88</ele>
        <time>2026-08-21T08:54:49.680Z</time>
      </trkpt>
      <trkpt lat="45.05684" lon="2.48012">
        <ele>870.03</ele>
        <time>2026-08-21T08:54:50.681Z</time>
      </trkpt>
      <trkpt lat="45.05685" lon="2.4801">
        <ele>870.18</ele>
        <time>2026-08-21T08:54:51.681Z</time>
      </trkpt>
      <trkpt lat="45.05686" lon="2.48009">
        <ele>870.34</ele>
        <time>2026-08-21T08:54:52.603Z</time>
      </trkpt>
      <trkpt lat="45.05687" lon="2.48007">
        <ele>870.49</ele>
        <time>2026-08-21T08:54:53.683Z</time>
      </trkpt>
      <trkpt lat="45.05688" lon="2.48005">
        <ele>870.65</ele>
        <time>2026-08-21T08:54:54.682Z</time>
      </trkpt>
      <trkpt lat="45.05689" lon="2.48003">
        <ele>870.81</ele>
        <time>2026-08-21T08:54:55.683Z</time>
      </trkpt>
      <trkpt lat="45.05689" lon="2.48001">
        <ele>870.96</ele>
        <time>2026-08-21T08:54:56.684Z</time>
      </trkpt>
      <trkpt lat="45.0569" lon="2.47998">
        <ele>871.09</ele>
        <time>2026-08-21T08:54:57.685Z</time>
      </trkpt>
      <trkpt lat="45.05691" lon="2.47996">
        <ele>871.25</ele>
        <time>2026-08-21T08:54:58.688Z</time>
      </trkpt>
      <trkpt lat="45.05692" lon="2.47994">
        <ele>871.39</ele>
        <time>2026-08-21T08:54:59.685Z</time>
      </trkpt>
      <trkpt lat="45.05693" lon="2.47992">
        <ele>871.55</ele>
        <time>2026-08-21T08:55:00.687Z</time>
      </trkpt>
      <trkpt lat="45.05693" lon="2.4799">
        <ele>871.71</ele>
        <time>2026-08-21T08:55:01.613Z</time>
      </trkpt>
      <trkpt lat="45.05693" lon="2.47987">
        <ele>871.87</ele>
        <time>2026-08-21T08:55:02.690Z</time>
      </trkpt>
      <trkpt lat="45.05694" lon="2.47985">
        <ele>872.02</ele>
        <time>2026-08-21T08:55:03.690Z</time>
      </trkpt>
      <trkpt lat="45.05694" lon="2.47982">
        <ele>872.17</ele>
        <time>2026-08-21T08:55:04.261Z</time>
      </trkpt>
      <trkpt lat="45.05694" lon="2.47979">
        <ele>872.33</ele>
        <time>2026-08-21T08:55:04.836Z</time>
      </trkpt>
      <trkpt lat="45.05694" lon="2.47977">
        <ele>872.48</ele>
        <time>2026-08-21T08:55:06.693Z</time>
      </trkpt>
      <trkpt lat="45.05695" lon="2.47973">
        <ele>872.64</ele>
        <time>2026-08-21T08:55:07.694Z</time>
      </trkpt>
      <trkpt lat="45.05695" lon="2.4797">
        <ele>872.8</ele>
        <time>2026-08-21T08:55:08.693Z</time>
      </trkpt>
      <trkpt lat="45.05695" lon="2.47968">
        <ele>872.96</ele>
        <time>2026-08-21T08:55:09.695Z</time>
      </trkpt>
      <trkpt lat="45.05695" lon="2.47965">
        <ele>873.12</ele>
        <time>2026-08-21T08:55:10.547Z</time>
      </trkpt>
      <trkpt lat="45.05695" lon="2.47962">
        <ele>873.28</ele>
        <time>2026-08-21T08:55:11.697Z</time>
      </trkpt>
      <trkpt lat="45.05695" lon="2.47959">
        <ele>873.45</ele>
        <time>2026-08-21T08:55:12.698Z</time>
      </trkpt>
      <trkpt lat="45.05694" lon="2.47957">
        <ele>873.6</ele>
        <time>2026-08-21T08:55:13.699Z</time>
      </trkpt>
      <trkpt lat="45.05694" lon="2.47954">
        <ele>873.76</ele>
        <time>2026-08-21T08:55:14.668Z</time>
      </trkpt>
      <trkpt lat="45.05694" lon="2.47951">
        <ele>873.93</ele>
        <time>2026-08-21T08:55:15.701Z</time>
      </trkpt>
      <trkpt lat="45.05694" lon="2.47949">
        <ele>874.09</ele>
        <time>2026-08-21T08:55:16.702Z</time>
      </trkpt>
      <trkpt lat="45.05694" lon="2.47946">
        <ele>874.25</ele>
        <time>2026-08-21T08:55:17.703Z</time>
      </trkpt>
      <trkpt lat="45.05694" lon="2.47943">
        <ele>874.43</ele>
        <time>2026-08-21T08:55:17.795Z</time>
      </trkpt>
      <trkpt lat="45.05694" lon="2.4794">
        <ele>874.6</ele>
        <time>2026-08-21T08:55:19.408Z</time>
      </trkpt>
      <trkpt lat="45.05694" lon="2.47938">
        <ele>874.77</ele>
        <time>2026-08-21T08:55:20.707Z</time>
      </trkpt>
      <trkpt lat="45.05694" lon="2.47935">
        <ele>874.94</ele>
        <time>2026-08-21T08:55:21.710Z</time>
      </trkpt>
      <trkpt lat="45.05694" lon="2.47932">
        <ele>875.09</ele>
        <time>2026-08-21T08:55:22.711Z</time>
      </trkpt>
      <trkpt lat="45.05694" lon="2.4793">
        <ele>875.26</ele>
        <time>2026-08-21T08:55:23.714Z</time>
      </trkpt>
      <trkpt lat="45.05695" lon="2.47927">
        <ele>875.43</ele>
        <time>2026-08-21T08:55:24.718Z</time>
      </trkpt>
      <trkpt lat="45.05695" lon="2.47925">
        <ele>875.59</ele>
        <time>2026-08-21T08:55:25.717Z</time>
      </trkpt>
      <trkpt lat="45.05695" lon="2.47923">
        <ele>875.76</ele>
        <time>2026-08-21T08:55:26.720Z</time>
      </trkpt>
      <trkpt lat="45.05696" lon="2.47921">
        <ele>875.93</ele>
        <time>2026-08-21T08:55:27.597Z</time>
      </trkpt>
      <trkpt lat="45.05697" lon="2.47919">
        <ele>876.1</ele>
        <time>2026-08-21T08:55:28.723Z</time>
      </trkpt>
      <trkpt lat="45.05697" lon="2.47916">
        <ele>876.27</ele>
        <time>2026-08-21T08:55:29.727Z</time>
      </trkpt>
      <trkpt lat="45.05697" lon="2.47914">
        <ele>876.43</ele>
        <time>2026-08-21T08:55:30.728Z</time>
      </trkpt>
      <trkpt lat="45.05697" lon="2.47911">
        <ele>876.59</ele>
        <time>2026-08-21T08:55:30.778Z</time>
      </trkpt>
      <trkpt lat="45.05698" lon="2.47909">
        <ele>876.75</ele>
        <time>2026-08-21T08:55:32.732Z</time>
      </trkpt>
      <trkpt lat="45.05699" lon="2.47903">
        <ele>877.09</ele>
        <time>2026-08-21T08:55:34.733Z</time>
      </trkpt>
      <trkpt lat="45.05699" lon="2.47901">
        <ele>877.25</ele>
        <time>2026-08-21T08:55:34.774Z</time>
      </trkpt>
      <trkpt lat="45.057" lon="2.47899">
        <ele>877.43</ele>
        <time>2026-08-21T08:55:36.620Z</time>
      </trkpt>
      <trkpt lat="45.057" lon="2.47897">
        <ele>877.59</ele>
        <time>2026-08-21T08:55:36.778Z</time>
      </trkpt>
      <trkpt lat="45.057" lon="2.47895">
        <ele>877.76</ele>
        <time>2026-08-21T08:55:38.367Z</time>
      </trkpt>
      <trkpt lat="45.057" lon="2.47893">
        <ele>877.93</ele>
        <time>2026-08-21T08:55:38.788Z</time>
      </trkpt>
      <trkpt lat="45.057" lon="2.4789">
        <ele>878.11</ele>
        <time>2026-08-21T08:55:40.743Z</time>
      </trkpt>
      <trkpt lat="45.05701" lon="2.47888">
        <ele>878.27</ele>
        <time>2026-08-21T08:55:40.797Z</time>
      </trkpt>
      <trkpt lat="45.05701" lon="2.47885">
        <ele>878.44</ele>
        <time>2026-08-21T08:55:42.746Z</time>
      </trkpt>
      <trkpt lat="45.05701" lon="2.47883">
        <ele>878.6</ele>
        <time>2026-08-21T08:55:42.805Z</time>
      </trkpt>
      <trkpt lat="45.05701" lon="2.47881">
        <ele>878.75</ele>
        <time>2026-08-21T08:55:44.310Z</time>
      </trkpt>
      <trkpt lat="45.05701" lon="2.47879">
        <ele>878.91</ele>
        <time>2026-08-21T08:55:45.631Z</time>
      </trkpt>
      <trkpt lat="45.05701" lon="2.47877">
        <ele>879.07</ele>
        <time>2026-08-21T08:55:46.753Z</time>
      </trkpt>
      <trkpt lat="45.05701" lon="2.47874">
        <ele>879.23</ele>
        <time>2026-08-21T08:55:46.829Z</time>
      </trkpt>
      <trkpt lat="45.05701" lon="2.47871">
        <ele>879.4</ele>
        <time>2026-08-21T08:55:48.656Z</time>
      </trkpt>
      <trkpt lat="45.05701" lon="2.47868">
        <ele>879.56</ele>
        <time>2026-08-21T08:55:49.759Z</time>
      </trkpt>
      <trkpt lat="45.05701" lon="2.47865">
        <ele>879.73</ele>
        <time>2026-08-21T08:55:50.760Z</time>
      </trkpt>
      <trkpt lat="45.057" lon="2.47862">
        <ele>879.9</ele>
        <time>2026-08-21T08:55:51.764Z</time>
      </trkpt>
      <trkpt lat="45.057" lon="2.47859">
        <ele>880.06</ele>
        <time>2026-08-21T08:55:52.763Z</time>
      </trkpt>
      <trkpt lat="45.05698" lon="2.47852">
        <ele>880.39</ele>
        <time>2026-08-21T08:55:54.632Z</time>
      </trkpt>
      <trkpt lat="45.05698" lon="2.4785">
        <ele>880.55</ele>
        <time>2026-08-21T08:55:55.769Z</time>
      </trkpt>
      <trkpt lat="45.05697" lon="2.47847">
        <ele>880.73</ele>
        <time>2026-08-21T08:55:56.773Z</time>
      </trkpt>
      <trkpt lat="45.05697" lon="2.47845">
        <ele>880.88</ele>
        <time>2026-08-21T08:55:57.772Z</time>
      </trkpt>
      <trkpt lat="45.05696" lon="2.47842">
        <ele>881.05</ele>
        <time>2026-08-21T08:55:58.774Z</time>
      </trkpt>
      <trkpt lat="45.05696" lon="2.4784">
        <ele>881.21</ele>
        <time>2026-08-21T08:55:59.776Z</time>
      </trkpt>
      <trkpt lat="45.05695" lon="2.47837">
        <ele>881.36</ele>
        <time>2026-08-21T08:56:00.781Z</time>
      </trkpt>
      <trkpt lat="45.05695" lon="2.47835">
        <ele>881.54</ele>
        <time>2026-08-21T08:56:01.781Z</time>
      </trkpt>
      <trkpt lat="45.05695" lon="2.47832">
        <ele>881.71</ele>
        <time>2026-08-21T08:56:02.487Z</time>
      </trkpt>
      <trkpt lat="45.05695" lon="2.4783">
        <ele>881.88</ele>
        <time>2026-08-21T08:56:03.671Z</time>
      </trkpt>
      <trkpt lat="45.05695" lon="2.47827">
        <ele>882.04</ele>
        <time>2026-08-21T08:56:04.783Z</time>
      </trkpt>
      <trkpt lat="45.05694" lon="2.47825">
        <ele>882.2</ele>
        <time>2026-08-21T08:56:05.785Z</time>
      </trkpt>
      <trkpt lat="45.05694" lon="2.47823">
        <ele>882.37</ele>
        <time>2026-08-21T08:56:06.416Z</time>
      </trkpt>
      <trkpt lat="45.05695" lon="2.47821">
        <ele>882.88</ele>
        <time>2026-08-21T08:59:40.095Z</time>
      </trkpt>
      <trkpt lat="45.05696" lon="2.47818">
        <ele>883.05</ele>
        <time>2026-08-21T09:01:56.820Z</time>
      </trkpt>
      <trkpt lat="45.05697" lon="2.47816">
        <ele>883.05</ele>
        <time>2026-08-21T09:02:00.769Z</time>
      </trkpt>
      <trkpt lat="45.05698" lon="2.47813">
        <ele>883.05</ele>
        <time>2026-08-21T09:02:02.607Z</time>
      </trkpt>
      <trkpt lat="45.05699" lon="2.47813">
        <ele>883.05</ele>
        <time>2026-08-21T09:02:03.740Z</time>
      </trkpt>
      <trkpt lat="45.05702" lon="2.4781">
        <ele>883.05</ele>
        <time>2026-08-21T09:02:05.743Z</time>
      </trkpt>
      <trkpt lat="45.05703" lon="2.47809">
        <ele>883.05</ele>
        <time>2026-08-21T09:02:06.745Z</time>
      </trkpt>
      <trkpt lat="45.05705" lon="2.47809">
        <ele>883.05</ele>
        <time>2026-08-21T09:02:07.747Z</time>
      </trkpt>
      <trkpt lat="45.05706" lon="2.47808">
        <ele>888.15</ele>
        <time>2026-08-21T09:02:08.748Z</time>
      </trkpt>
      <trkpt lat="45.05708" lon="2.47808">
        <ele>888.16</ele>
        <time>2026-08-21T09:02:09.067Z</time>
      </trkpt>
      <trkpt lat="45.0571" lon="2.47808">
        <ele>888.16</ele>
        <time>2026-08-21T09:02:10.779Z</time>
      </trkpt>
      <trkpt lat="45.05711" lon="2.47808">
        <ele>888.16</ele>
        <time>2026-08-21T09:02:11.756Z</time>
      </trkpt>
      <trkpt lat="45.05715" lon="2.47809">
        <ele>888.18</ele>
        <time>2026-08-21T09:02:13.652Z</time>
      </trkpt>
      <trkpt lat="45.05716" lon="2.47809">
        <ele>888.19</ele>
        <time>2026-08-21T09:02:14.569Z</time>
      </trkpt>
      <trkpt lat="45.05718" lon="2.47809">
        <ele>888.2</ele>
        <time>2026-08-21T09:02:15.763Z</time>
      </trkpt>
      <trkpt lat="45.05719" lon="2.47809">
        <ele>888.21</ele>
        <time>2026-08-21T09:02:15.838Z</time>
      </trkpt>
      <trkpt lat="45.05721" lon="2.47809">
        <ele>888.22</ele>
        <time>2026-08-21T09:02:17.766Z</time>
      </trkpt>
      <trkpt lat="45.05722" lon="2.4781">
        <ele>888.23</ele>
        <time>2026-08-21T09:02:18.605Z</time>
      </trkpt>
      <trkpt lat="45.05724" lon="2.4781">
        <ele>888.24</ele>
        <time>2026-08-21T09:02:19.384Z</time>
      </trkpt>
      <trkpt lat="45.05728" lon="2.4781">
        <ele>888.27</ele>
        <time>2026-08-21T09:02:21.773Z</time>
      </trkpt>
      <trkpt lat="45.05729" lon="2.4781">
        <ele>888.29</ele>
        <time>2026-08-21T09:02:22.774Z</time>
      </trkpt>
      <trkpt lat="45.0573" lon="2.47811">
        <ele>888.31</ele>
        <time>2026-08-21T09:02:23.776Z</time>
      </trkpt>
      <trkpt lat="45.05734" lon="2.47809">
        <ele>888.35</ele>
        <time>2026-08-21T09:02:25.782Z</time>
      </trkpt>
      <trkpt lat="45.05735" lon="2.47809">
        <ele>888.38</ele>
        <time>2026-08-21T09:02:26.780Z</time>
      </trkpt>
      <trkpt lat="45.05736" lon="2.47809">
        <ele>888.4</ele>
        <time>2026-08-21T09:02:27.782Z</time>
      </trkpt>
      <trkpt lat="45.05738" lon="2.4781">
        <ele>888.42</ele>
        <time>2026-08-21T09:02:28.324Z</time>
      </trkpt>
      <trkpt lat="45.0574" lon="2.4781">
        <ele>888.45</ele>
        <time>2026-08-21T09:02:29.786Z</time>
      </trkpt>
      <trkpt lat="45.05743" lon="2.47811">
        <ele>888.52</ele>
        <time>2026-08-21T09:02:31.789Z</time>
      </trkpt>
      <trkpt lat="45.05745" lon="2.47811">
        <ele>888.55</ele>
        <time>2026-08-21T09:02:32.526Z</time>
      </trkpt>
      <trkpt lat="45.05746" lon="2.47812">
        <ele>888.59</ele>
        <time>2026-08-21T09:02:33.790Z</time>
      </trkpt>
      <trkpt lat="45.05747" lon="2.47812">
        <ele>888.63</ele>
        <time>2026-08-21T09:02:34.794Z</time>
      </trkpt>
      <trkpt lat="45.05749" lon="2.47812">
        <ele>888.67</ele>
        <time>2026-08-21T09:02:35.793Z</time>
      </trkpt>
      <trkpt lat="45.0575" lon="2.47812">
        <ele>888.72</ele>
        <time>2026-08-21T09:02:36.680Z</time>
      </trkpt>
      <trkpt lat="45.05755" lon="2.47813">
        <ele>888.82</ele>
        <time>2026-08-21T09:02:38.799Z</time>
      </trkpt>
      <trkpt lat="45.05756" lon="2.47813">
        <ele>888.87</ele>
        <time>2026-08-21T09:02:39.803Z</time>
      </trkpt>
      <trkpt lat="45.05757" lon="2.47813">
        <ele>888.92</ele>
        <time>2026-08-21T09:02:40.803Z</time>
      </trkpt>
      <trkpt lat="45.05759" lon="2.47814">
        <ele>888.97</ele>
        <time>2026-08-21T09:02:41.805Z</time>
      </trkpt>
      <trkpt lat="45.0576" lon="2.47814">
        <ele>889.03</ele>
        <time>2026-08-21T09:02:41.832Z</time>
      </trkpt>
      <trkpt lat="45.05762" lon="2.47815">
        <ele>889.09</ele>
        <time>2026-08-21T09:02:42.903Z</time>
      </trkpt>
      <trkpt lat="45.05763" lon="2.47815">
        <ele>889.15</ele>
        <time>2026-08-21T09:02:44.808Z</time>
      </trkpt>
      <trkpt lat="45.05767" lon="2.47817">
        <ele>889.27</ele>
        <time>2026-08-21T09:02:46.811Z</time>
      </trkpt>
      <trkpt lat="45.05769" lon="2.47817">
        <ele>889.34</ele>
        <time>2026-08-21T09:02:47.595Z</time>
      </trkpt>
      <trkpt lat="45.0577" lon="2.47818">
        <ele>889.41</ele>
        <time>2026-08-21T09:02:48.814Z</time>
      </trkpt>
      <trkpt lat="45.05772" lon="2.47818">
        <ele>889.48</ele>
        <time>2026-08-21T09:02:48.909Z</time>
      </trkpt>
      <trkpt lat="45.05773" lon="2.47819">
        <ele>889.56</ele>
        <time>2026-08-21T09:02:49.866Z</time>
      </trkpt>
      <trkpt lat="45.05775" lon="2.4782">
        <ele>889.64</ele>
        <time>2026-08-21T09:02:51.818Z</time>
      </trkpt>
      <trkpt lat="45.05779" lon="2.47823">
        <ele>889.79</ele>
        <time>2026-08-21T09:02:52.902Z</time>
      </trkpt>
      <trkpt lat="45.05781" lon="2.47824">
        <ele>889.97</ele>
        <time>2026-08-21T09:02:55.481Z</time>
      </trkpt>
      <trkpt lat="45.05782" lon="2.47824">
        <ele>890.06</ele>
        <time>2026-08-21T09:02:56.827Z</time>
      </trkpt>
      <trkpt lat="45.05784" lon="2.47825">
        <ele>890.15</ele>
        <time>2026-08-21T09:02:56.924Z</time>
      </trkpt>
      <trkpt lat="45.05785" lon="2.47826">
        <ele>890.25</ele>
        <time>2026-08-21T09:02:58.831Z</time>
      </trkpt>
      <trkpt lat="45.05787" lon="2.47828">
        <ele>890.35</ele>
        <time>2026-08-21T09:02:59.834Z</time>
      </trkpt>
      <trkpt lat="45.05788" lon="2.47828">
        <ele>890.45</ele>
        <time>2026-08-21T09:03:00.389Z</time>
      </trkpt>
      <trkpt lat="45.05792" lon="2.4783">
        <ele>890.65</ele>
        <time>2026-08-21T09:03:01.925Z</time>
      </trkpt>
      <trkpt lat="45.05793" lon="2.47831">
        <ele>890.75</ele>
        <time>2026-08-21T09:03:03.722Z</time>
      </trkpt>
      <trkpt lat="45.05795" lon="2.47832">
        <ele>890.87</ele>
        <time>2026-08-21T09:03:04.450Z</time>
      </trkpt>
      <trkpt lat="45.05796" lon="2.47833">
        <ele>890.98</ele>
        <time>2026-08-21T09:03:05.843Z</time>
      </trkpt>
      <trkpt lat="45.05798" lon="2.47834">
        <ele>891.09</ele>
        <time>2026-08-21T09:03:05.917Z</time>
      </trkpt>
      <trkpt lat="45.058" lon="2.47835">
        <ele>891.19</ele>
        <time>2026-08-21T09:03:07.745Z</time>
      </trkpt>
      <trkpt lat="45.05801" lon="2.47837">
        <ele>891.29</ele>
        <time>2026-08-21T09:03:08.748Z</time>
      </trkpt>
      <trkpt lat="45.05802" lon="2.47838">
        <ele>891.39</ele>
        <time>2026-08-21T09:03:09.748Z</time>
      </trkpt>
      <trkpt lat="45.05804" lon="2.47839">
        <ele>891.49</ele>
        <time>2026-08-21T09:03:10.749Z</time>
      </trkpt>
      <trkpt lat="45.05808" lon="2.47841">
        <ele>891.68</ele>
        <time>2026-08-21T09:03:12.689Z</time>
      </trkpt>
      <trkpt lat="45.05809" lon="2.47842">
        <ele>891.79</ele>
        <time>2026-08-21T09:03:13.848Z</time>
      </trkpt>
      <trkpt lat="45.0581" lon="2.47842">
        <ele>891.89</ele>
        <time>2026-08-21T09:03:14.848Z</time>
      </trkpt>
      <trkpt lat="45.05811" lon="2.47843">
        <ele>892</ele>
        <time>2026-08-21T09:03:14.915Z</time>
      </trkpt>
      <trkpt lat="45.05813" lon="2.47844">
        <ele>892.1</ele>
        <time>2026-08-21T09:03:15.913Z</time>
      </trkpt>
      <trkpt lat="45.05814" lon="2.47845">
        <ele>892.21</ele>
        <time>2026-08-21T09:03:17.679Z</time>
      </trkpt>
      <trkpt lat="45.05818" lon="2.47849">
        <ele>892.45</ele>
        <time>2026-08-21T09:03:19.755Z</time>
      </trkpt>
      <trkpt lat="45.05819" lon="2.47849">
        <ele>892.56</ele>
        <time>2026-08-21T09:03:20.758Z</time>
      </trkpt>
      <trkpt lat="45.05821" lon="2.4785">
        <ele>892.69</ele>
        <time>2026-08-21T09:03:21.757Z</time>
      </trkpt>
      <trkpt lat="45.05822" lon="2.47851">
        <ele>892.82</ele>
        <time>2026-08-21T09:03:22.760Z</time>
      </trkpt>
      <trkpt lat="45.05823" lon="2.47853">
        <ele>892.95</ele>
        <time>2026-08-21T09:03:23.764Z</time>
      </trkpt>
      <trkpt lat="45.05824" lon="2.47854">
        <ele>893.08</ele>
        <time>2026-08-21T09:03:24.764Z</time>
      </trkpt>
      <trkpt lat="45.05827" lon="2.47856">
        <ele>893.33</ele>
        <time>2026-08-21T09:03:26.765Z</time>
      </trkpt>
      <trkpt lat="45.05828" lon="2.47857">
        <ele>893.46</ele>
        <time>2026-08-21T09:03:27.768Z</time>
      </trkpt>
      <trkpt lat="45.05829" lon="2.47857">
        <ele>893.59</ele>
        <time>2026-08-21T09:03:28.768Z</time>
      </trkpt>
      <trkpt lat="45.05833" lon="2.47858">
        <ele>893.85</ele>
        <time>2026-08-21T09:03:30.772Z</time>
      </trkpt>
      <trkpt lat="45.05833" lon="2.47859">
        <ele>893.99</ele>
        <time>2026-08-21T09:03:31.774Z</time>
      </trkpt>
      <trkpt lat="45.05835" lon="2.4786">
        <ele>894.12</ele>
        <time>2026-08-21T09:03:32.779Z</time>
      </trkpt>
      <trkpt lat="45.05837" lon="2.47862">
        <ele>894.38</ele>
        <time>2026-08-21T09:03:34.074Z</time>
      </trkpt>
      <trkpt lat="45.05838" lon="2.47865">
        <ele>894.66</ele>
        <time>2026-08-21T09:03:36.783Z</time>
      </trkpt>
      <trkpt lat="45.05839" lon="2.47865">
        <ele>894.8</ele>
        <time>2026-08-21T09:03:37.783Z</time>
      </trkpt>
      <trkpt lat="45.05841" lon="2.47865">
        <ele>894.94</ele>
        <time>2026-08-21T09:03:38.787Z</time>
      </trkpt>
      <trkpt lat="45.05842" lon="2.47866">
        <ele>895.09</ele>
        <time>2026-08-21T09:03:39.788Z</time>
      </trkpt>
      <trkpt lat="45.05845" lon="2.47869">
        <ele>895.38</ele>
        <time>2026-08-21T09:03:41.788Z</time>
      </trkpt>
      <trkpt lat="45.05846" lon="2.47869">
        <ele>895.52</ele>
        <time>2026-08-21T09:03:42.790Z</time>
      </trkpt>
      <trkpt lat="45.05847" lon="2.4787">
        <ele>895.67</ele>
        <time>2026-08-21T09:03:43.791Z</time>
      </trkpt>
      <trkpt lat="45.05848" lon="2.47871">
        <ele>895.81</ele>
        <time>2026-08-21T09:03:44.795Z</time>
      </trkpt>
      <trkpt lat="45.05851" lon="2.47875">
        <ele>896.1</ele>
        <time>2026-08-21T09:03:46.798Z</time>
      </trkpt>
      <trkpt lat="45.05852" lon="2.47875">
        <ele>896.26</ele>
        <time>2026-08-21T09:03:47.799Z</time>
      </trkpt>
      <trkpt lat="45.05853" lon="2.47876">
        <ele>896.41</ele>
        <time>2026-08-21T09:03:48.800Z</time>
      </trkpt>
      <trkpt lat="45.05855" lon="2.47877">
        <ele>896.55</ele>
        <time>2026-08-21T09:03:49.802Z</time>
      </trkpt>
      <trkpt lat="45.05856" lon="2.47878">
        <ele>896.69</ele>
        <time>2026-08-21T09:03:50.803Z</time>
      </trkpt>
      <trkpt lat="45.05858" lon="2.47879">
        <ele>896.84</ele>
        <time>2026-08-21T09:03:51.804Z</time>
      </trkpt>
      <trkpt lat="45.05862" lon="2.4788">
        <ele>897.14</ele>
        <time>2026-08-21T09:03:53.807Z</time>
      </trkpt>
      <trkpt lat="45.05863" lon="2.47881">
        <ele>897.3</ele>
        <time>2026-08-21T09:03:54.807Z</time>
      </trkpt>
      <trkpt lat="45.05864" lon="2.47882">
        <ele>897.45</ele>
        <time>2026-08-21T09:03:55.694Z</time>
      </trkpt>
      <trkpt lat="45.05866" lon="2.47883">
        <ele>897.61</ele>
        <time>2026-08-21T09:03:55.892Z</time>
      </trkpt>
      <trkpt lat="45.05867" lon="2.47884">
        <ele>897.76</ele>
        <time>2026-08-21T09:03:57.811Z</time>
      </trkpt>
      <trkpt lat="45.05869" lon="2.47884">
        <ele>897.91</ele>
        <time>2026-08-21T09:03:58.812Z</time>
      </trkpt>
      <trkpt lat="45.0587" lon="2.47886">
        <ele>898.06</ele>
        <time>2026-08-21T09:03:59.814Z</time>
      </trkpt>
      <trkpt lat="45.05872" lon="2.47887">
        <ele>898.21</ele>
        <time>2026-08-21T09:04:00.815Z</time>
      </trkpt>
      <trkpt lat="45.05874" lon="2.47888">
        <ele>898.37</ele>
        <time>2026-08-21T09:04:01.816Z</time>
      </trkpt>
      <trkpt lat="45.05876" lon="2.47889">
        <ele>898.51</ele>
        <time>2026-08-21T09:04:02.817Z</time>
      </trkpt>
      <trkpt lat="45.05878" lon="2.4789">
        <ele>898.66</ele>
        <time>2026-08-21T09:04:02.913Z</time>
      </trkpt>
      <trkpt lat="45.0588" lon="2.47892">
        <ele>898.84</ele>
        <time>2026-08-21T09:04:04.818Z</time>
      </trkpt>
      <trkpt lat="45.05882" lon="2.47893">
        <ele>899.01</ele>
        <time>2026-08-21T09:04:05.820Z</time>
      </trkpt>
      <trkpt lat="45.05883" lon="2.47893">
        <ele>899.17</ele>
        <time>2026-08-21T09:04:06.821Z</time>
      </trkpt>
      <trkpt lat="45.05885" lon="2.47894">
        <ele>899.33</ele>
        <time>2026-08-21T09:04:07.410Z</time>
      </trkpt>
      <trkpt lat="45.05886" lon="2.47895">
        <ele>899.52</ele>
        <time>2026-08-21T09:04:08.825Z</time>
      </trkpt>
      <trkpt lat="45.0589" lon="2.47898">
        <ele>899.91</ele>
        <time>2026-08-21T09:04:10.826Z</time>
      </trkpt>
      <trkpt lat="45.05891" lon="2.47899">
        <ele>900.1</ele>
        <time>2026-08-21T09:04:10.922Z</time>
      </trkpt>
      <trkpt lat="45.05892" lon="2.47899">
        <ele>900.29</ele>
        <time>2026-08-21T09:04:12.829Z</time>
      </trkpt>
      <trkpt lat="45.05894" lon="2.479">
        <ele>900.49</ele>
        <time>2026-08-21T09:04:13.830Z</time>
      </trkpt>
      <trkpt lat="45.05895" lon="2.47901">
        <ele>900.68</ele>
        <time>2026-08-21T09:04:14.831Z</time>
      </trkpt>
      <trkpt lat="45.05897" lon="2.47902">
        <ele>900.88</ele>
        <time>2026-08-21T09:04:15.832Z</time>
      </trkpt>
      <trkpt lat="45.05899" lon="2.47903">
        <ele>901.06</ele>
        <time>2026-08-21T09:04:16.834Z</time>
      </trkpt>
      <trkpt lat="45.05901" lon="2.47904">
        <ele>901.25</ele>
        <time>2026-08-21T09:04:17.835Z</time>
      </trkpt>
      <trkpt lat="45.05903" lon="2.47905">
        <ele>901.44</ele>
        <time>2026-08-21T09:04:18.837Z</time>
      </trkpt>
      <trkpt lat="45.05904" lon="2.47906">
        <ele>901.63</ele>
        <time>2026-08-21T09:04:19.837Z</time>
      </trkpt>
      <trkpt lat="45.05906" lon="2.47907">
        <ele>901.82</ele>
        <time>2026-08-21T09:04:20.840Z</time>
      </trkpt>
      <trkpt lat="45.05907" lon="2.47908">
        <ele>902.01</ele>
        <time>2026-08-21T09:04:21.841Z</time>
      </trkpt>
      <trkpt lat="45.05909" lon="2.47909">
        <ele>902.19</ele>
        <time>2026-08-21T09:04:22.843Z</time>
      </trkpt>
      <trkpt lat="45.05911" lon="2.4791">
        <ele>902.39</ele>
        <time>2026-08-21T09:04:22.940Z</time>
      </trkpt>
      <trkpt lat="45.05913" lon="2.47911">
        <ele>902.57</ele>
        <time>2026-08-21T09:04:24.846Z</time>
      </trkpt>
      <trkpt lat="45.05914" lon="2.47912">
        <ele>902.75</ele>
        <time>2026-08-21T09:04:25.849Z</time>
      </trkpt>
      <trkpt lat="45.05916" lon="2.47914">
        <ele>902.94</ele>
        <time>2026-08-21T09:04:26.851Z</time>
      </trkpt>
      <trkpt lat="45.05917" lon="2.47915">
        <ele>903.12</ele>
        <time>2026-08-21T09:04:27.852Z</time>
      </trkpt>
      <trkpt lat="45.05922" lon="2.47917">
        <ele>903.5</ele>
        <time>2026-08-21T09:04:29.856Z</time>
      </trkpt>
      <trkpt lat="45.05923" lon="2.47918">
        <ele>903.7</ele>
        <time>2026-08-21T09:04:30.859Z</time>
      </trkpt>
      <trkpt lat="45.05925" lon="2.47919">
        <ele>903.89</ele>
        <time>2026-08-21T09:04:31.859Z</time>
      </trkpt>
      <trkpt lat="45.05929" lon="2.47922">
        <ele>904.28</ele>
        <time>2026-08-21T09:04:33.863Z</time>
      </trkpt>
      <trkpt lat="45.0593" lon="2.47923">
        <ele>904.47</ele>
        <time>2026-08-21T09:04:34.863Z</time>
      </trkpt>
      <trkpt lat="45.05931" lon="2.47924">
        <ele>904.66</ele>
        <time>2026-08-21T09:04:35.865Z</time>
      </trkpt>
      <trkpt lat="45.05933" lon="2.47925">
        <ele>904.85</ele>
        <time>2026-08-21T09:04:36.866Z</time>
      </trkpt>
      <trkpt lat="45.05934" lon="2.47926">
        <ele>905.04</ele>
        <time>2026-08-21T09:04:37.868Z</time>
      </trkpt>
      <trkpt lat="45.05936" lon="2.47927">
        <ele>905.23</ele>
        <time>2026-08-21T09:04:38.870Z</time>
      </trkpt>
      <trkpt lat="45.05937" lon="2.47928">
        <ele>905.41</ele>
        <time>2026-08-21T09:04:39.872Z</time>
      </trkpt>
      <trkpt lat="45.05939" lon="2.4793">
        <ele>905.6</ele>
        <time>2026-08-21T09:04:40.871Z</time>
      </trkpt>
      <trkpt lat="45.05941" lon="2.47931">
        <ele>905.79</ele>
        <time>2026-08-21T09:04:41.874Z</time>
      </trkpt>
      <trkpt lat="45.05942" lon="2.47932">
        <ele>905.99</ele>
        <time>2026-08-21T09:04:42.875Z</time>
      </trkpt>
      <trkpt lat="45.05944" lon="2.47934">
        <ele>906.17</ele>
        <time>2026-08-21T09:04:43.935Z</time>
      </trkpt>
      <trkpt lat="45.05946" lon="2.47935">
        <ele>906.36</ele>
        <time>2026-08-21T09:04:44.876Z</time>
      </trkpt>
      <trkpt lat="45.05948" lon="2.47937">
        <ele>906.57</ele>
        <time>2026-08-21T09:04:45.819Z</time>
      </trkpt>
      <trkpt lat="45.05949" lon="2.47938">
        <ele>906.76</ele>
        <time>2026-08-21T09:04:46.879Z</time>
      </trkpt>
      <trkpt lat="45.05951" lon="2.47939">
        <ele>906.95</ele>
        <time>2026-08-21T09:04:46.979Z</time>
      </trkpt>
      <trkpt lat="45.05953" lon="2.4794">
        <ele>907.15</ele>
        <time>2026-08-21T09:04:47.969Z</time>
      </trkpt>
      <trkpt lat="45.05955" lon="2.47941">
        <ele>907.35</ele>
        <time>2026-08-21T09:04:49.883Z</time>
      </trkpt>
      <trkpt lat="45.05956" lon="2.47942">
        <ele>907.52</ele>
        <time>2026-08-21T09:04:50.884Z</time>
      </trkpt>
      <trkpt lat="45.05958" lon="2.47943">
        <ele>907.72</ele>
        <time>2026-08-21T09:04:51.952Z</time>
      </trkpt>
      <trkpt lat="45.0596" lon="2.47943">
        <ele>907.91</ele>
        <time>2026-08-21T09:04:52.886Z</time>
      </trkpt>
      <trkpt lat="45.05962" lon="2.47944">
        <ele>908.11</ele>
        <time>2026-08-21T09:04:53.889Z</time>
      </trkpt>
      <trkpt lat="45.05964" lon="2.47945">
        <ele>908.3</ele>
        <time>2026-08-21T09:04:54.888Z</time>
      </trkpt>
      <trkpt lat="45.05965" lon="2.47945">
        <ele>908.49</ele>
        <time>2026-08-21T09:04:55.889Z</time>
      </trkpt>
      <trkpt lat="45.05967" lon="2.47946">
        <ele>908.67</ele>
        <time>2026-08-21T09:04:56.729Z</time>
      </trkpt>
      <trkpt lat="45.05969" lon="2.47946">
        <ele>908.86</ele>
        <time>2026-08-21T09:04:57.894Z</time>
      </trkpt>
      <trkpt lat="45.05971" lon="2.47946">
        <ele>909.05</ele>
        <time>2026-08-21T09:04:58.923Z</time>
      </trkpt>
      <trkpt lat="45.05973" lon="2.47946">
        <ele>909.23</ele>
        <time>2026-08-21T09:04:59.897Z</time>
      </trkpt>
      <trkpt lat="45.05975" lon="2.47946">
        <ele>909.42</ele>
        <time>2026-08-21T09:05:00.896Z</time>
      </trkpt>
      <trkpt lat="45.05977" lon="2.47946">
        <ele>909.6</ele>
        <time>2026-08-21T09:05:01.897Z</time>
      </trkpt>
      <trkpt lat="45.05979" lon="2.47946">
        <ele>909.77</ele>
        <time>2026-08-21T09:05:02.898Z</time>
      </trkpt>
      <trkpt lat="45.05981" lon="2.47946">
        <ele>909.96</ele>
        <time>2026-08-21T09:05:03.900Z</time>
      </trkpt>
      <trkpt lat="45.05983" lon="2.47946">
        <ele>910.14</ele>
        <time>2026-08-21T09:05:04.835Z</time>
      </trkpt>
      <trkpt lat="45.05985" lon="2.47946">
        <ele>910.32</ele>
        <time>2026-08-21T09:05:05.904Z</time>
      </trkpt>
      <trkpt lat="45.05987" lon="2.47946">
        <ele>910.49</ele>
        <time>2026-08-21T09:05:06.904Z</time>
      </trkpt>
      <trkpt lat="45.05989" lon="2.47945">
        <ele>910.67</ele>
        <time>2026-08-21T09:05:06.993Z</time>
      </trkpt>
      <trkpt lat="45.0599" lon="2.47945">
        <ele>910.87</ele>
        <time>2026-08-21T09:05:07.985Z</time>
      </trkpt>
      <trkpt lat="45.05992" lon="2.47945">
        <ele>911.07</ele>
        <time>2026-08-21T09:05:09.784Z</time>
      </trkpt>
      <trkpt lat="45.05994" lon="2.47944">
        <ele>911.27</ele>
        <time>2026-08-21T09:05:10.952Z</time>
      </trkpt>
      <trkpt lat="45.05996" lon="2.47943">
        <ele>911.47</ele>
        <time>2026-08-21T09:05:11.975Z</time>
      </trkpt>
      <trkpt lat="45.05998" lon="2.47943">
        <ele>911.68</ele>
        <time>2026-08-21T09:05:12.461Z</time>
      </trkpt>
      <trkpt lat="45.05999" lon="2.47942">
        <ele>911.88</ele>
        <time>2026-08-21T09:05:13.821Z</time>
      </trkpt>
      <trkpt lat="45.06001" lon="2.4794">
        <ele>912.09</ele>
        <time>2026-08-21T09:05:14.938Z</time>
      </trkpt>
      <trkpt lat="45.06003" lon="2.47939">
        <ele>912.29</ele>
        <time>2026-08-21T09:05:15.004Z</time>
      </trkpt>
      <trkpt lat="45.06005" lon="2.47938">
        <ele>912.48</ele>
        <time>2026-08-21T09:05:16.916Z</time>
      </trkpt>
      <trkpt lat="45.06007" lon="2.47936">
        <ele>912.66</ele>
        <time>2026-08-21T09:05:17.916Z</time>
      </trkpt>
      <trkpt lat="45.06009" lon="2.47935">
        <ele>912.85</ele>
        <time>2026-08-21T09:05:18.916Z</time>
      </trkpt>
      <trkpt lat="45.0601" lon="2.47933">
        <ele>913.03</ele>
        <time>2026-08-21T09:05:19.977Z</time>
      </trkpt>
      <trkpt lat="45.06011" lon="2.47931">
        <ele>913.21</ele>
        <time>2026-08-21T09:05:20.522Z</time>
      </trkpt>
      <trkpt lat="45.06012" lon="2.47929">
        <ele>913.41</ele>
        <time>2026-08-21T09:05:21.921Z</time>
      </trkpt>
      <trkpt lat="45.06015" lon="2.47925">
        <ele>913.77</ele>
        <time>2026-08-21T09:05:23.922Z</time>
      </trkpt>
      <trkpt lat="45.06017" lon="2.47924">
        <ele>913.95</ele>
        <time>2026-08-21T09:05:24.923Z</time>
      </trkpt>
      <trkpt lat="45.06017" lon="2.47922">
        <ele>914.12</ele>
        <time>2026-08-21T09:05:25.924Z</time>
      </trkpt>
      <trkpt lat="45.06018" lon="2.4792">
        <ele>914.31</ele>
        <time>2026-08-21T09:05:26.924Z</time>
      </trkpt>
      <trkpt lat="45.0602" lon="2.47918">
        <ele>914.48</ele>
        <time>2026-08-21T09:05:27.926Z</time>
      </trkpt>
      <trkpt lat="45.06021" lon="2.47916">
        <ele>914.66</ele>
        <time>2026-08-21T09:05:28.538Z</time>
      </trkpt>
      <trkpt lat="45.06022" lon="2.47914">
        <ele>914.84</ele>
        <time>2026-08-21T09:05:29.929Z</time>
      </trkpt>
      <trkpt lat="45.06023" lon="2.47912">
        <ele>915.01</ele>
        <time>2026-08-21T09:05:30.965Z</time>
      </trkpt>
      <trkpt lat="45.06024" lon="2.47909">
        <ele>915.17</ele>
        <time>2026-08-21T09:05:31.931Z</time>
      </trkpt>
      <trkpt lat="45.06025" lon="2.47907">
        <ele>915.34</ele>
        <time>2026-08-21T09:05:32.932Z</time>
      </trkpt>
      <trkpt lat="45.06027" lon="2.47905">
        <ele>915.5</ele>
        <time>2026-08-21T09:05:33.931Z</time>
      </trkpt>
      <trkpt lat="45.06027" lon="2.47903">
        <ele>915.66</ele>
        <time>2026-08-21T09:05:34.827Z</time>
      </trkpt>
      <trkpt lat="45.06028" lon="2.479">
        <ele>915.83</ele>
        <time>2026-08-21T09:05:35.935Z</time>
      </trkpt>
      <trkpt lat="45.0603" lon="2.47898">
        <ele>916</ele>
        <time>2026-08-21T09:05:36.933Z</time>
      </trkpt>
      <trkpt lat="45.06031" lon="2.47895">
        <ele>916.17</ele>
        <time>2026-08-21T09:05:37.936Z</time>
      </trkpt>
      <trkpt lat="45.06032" lon="2.47893">
        <ele>916.34</ele>
        <time>2026-08-21T09:05:38.936Z</time>
      </trkpt>
      <trkpt lat="45.06033" lon="2.47891">
        <ele>916.5</ele>
        <time>2026-08-21T09:05:39.939Z</time>
      </trkpt>
      <trkpt lat="45.06034" lon="2.47889">
        <ele>916.66</ele>
        <time>2026-08-21T09:05:40.941Z</time>
      </trkpt>
      <trkpt lat="45.06035" lon="2.47887">
        <ele>916.85</ele>
        <time>2026-08-21T09:05:41.942Z</time>
      </trkpt>
      <trkpt lat="45.06036" lon="2.47884">
        <ele>917.03</ele>
        <time>2026-08-21T09:05:42.942Z</time>
      </trkpt>
      <trkpt lat="45.06038" lon="2.47882">
        <ele>917.2</ele>
        <time>2026-08-21T09:05:43.944Z</time>
      </trkpt>
      <trkpt lat="45.06039" lon="2.4788">
        <ele>917.38</ele>
        <time>2026-08-21T09:05:44.948Z</time>
      </trkpt>
      <trkpt lat="45.06039" lon="2.47878">
        <ele>917.56</ele>
        <time>2026-08-21T09:05:45.946Z</time>
      </trkpt>
      <trkpt lat="45.06041" lon="2.47876">
        <ele>917.73</ele>
        <time>2026-08-21T09:05:46.950Z</time>
      </trkpt>
      <trkpt lat="45.06042" lon="2.47873">
        <ele>917.9</ele>
        <time>2026-08-21T09:05:47.950Z</time>
      </trkpt>
      <trkpt lat="45.06043" lon="2.47871">
        <ele>918.08</ele>
        <time>2026-08-21T09:05:48.953Z</time>
      </trkpt>
      <trkpt lat="45.06044" lon="2.47869">
        <ele>918.25</ele>
        <time>2026-08-21T09:05:49.953Z</time>
      </trkpt>
      <trkpt lat="45.06046" lon="2.47866">
        <ele>918.42</ele>
        <time>2026-08-21T09:05:50.955Z</time>
      </trkpt>
      <trkpt lat="45.06047" lon="2.47864">
        <ele>918.58</ele>
        <time>2026-08-21T09:05:51.956Z</time>
      </trkpt>
      <trkpt lat="45.06048" lon="2.47862">
        <ele>918.76</ele>
        <time>2026-08-21T09:05:53.058Z</time>
      </trkpt>
      <trkpt lat="45.06049" lon="2.47859">
        <ele>918.92</ele>
        <time>2026-08-21T09:05:54.059Z</time>
      </trkpt>
      <trkpt lat="45.06051" lon="2.47857">
        <ele>919.11</ele>
        <time>2026-08-21T09:05:54.847Z</time>
      </trkpt>
      <trkpt lat="45.06052" lon="2.47855">
        <ele>919.27</ele>
        <time>2026-08-21T09:05:55.104Z</time>
      </trkpt>
      <trkpt lat="45.06053" lon="2.47852">
        <ele>919.42</ele>
        <time>2026-08-21T09:05:56.576Z</time>
      </trkpt>
      <trkpt lat="45.06055" lon="2.4785">
        <ele>919.58</ele>
        <time>2026-08-21T09:05:57.964Z</time>
      </trkpt>
      <trkpt lat="45.06056" lon="2.47847">
        <ele>919.75</ele>
        <time>2026-08-21T09:05:58.966Z</time>
      </trkpt>
      <trkpt lat="45.06057" lon="2.47845">
        <ele>919.91</ele>
        <time>2026-08-21T09:06:00.067Z</time>
      </trkpt>
      <trkpt lat="45.0606" lon="2.47843">
        <ele>920.08</ele>
        <time>2026-08-21T09:06:00.082Z</time>
      </trkpt>
      <trkpt lat="45.06061" lon="2.47842">
        <ele>920.26</ele>
        <time>2026-08-21T09:06:01.970Z</time>
      </trkpt>
      <trkpt lat="45.06063" lon="2.47841">
        <ele>920.44</ele>
        <time>2026-08-21T09:06:02.973Z</time>
      </trkpt>
      <trkpt lat="45.06065" lon="2.47839">
        <ele>920.63</ele>
        <time>2026-08-21T09:06:03.973Z</time>
      </trkpt>
      <trkpt lat="45.06068" lon="2.47839">
        <ele>920.79</ele>
        <time>2026-08-21T09:06:04.975Z</time>
      </trkpt>
      <trkpt lat="45.0607" lon="2.47838">
        <ele>920.96</ele>
        <time>2026-08-21T09:06:05.976Z</time>
      </trkpt>
      <trkpt lat="45.06072" lon="2.47838">
        <ele>921.13</ele>
        <time>2026-08-21T09:06:07.079Z</time>
      </trkpt>
      <trkpt lat="45.06074" lon="2.47837">
        <ele>921.31</ele>
        <time>2026-08-21T09:06:07.104Z</time>
      </trkpt>
      <trkpt lat="45.06078" lon="2.47837">
        <ele>921.47</ele>
        <time>2026-08-21T09:06:09.080Z</time>
      </trkpt>
      <trkpt lat="45.06082" lon="2.47837">
        <ele>921.8</ele>
        <time>2026-08-21T09:06:11.081Z</time>
      </trkpt>
      <trkpt lat="45.06084" lon="2.47837">
        <ele>922.15</ele>
        <time>2026-08-21T09:06:13.087Z</time>
      </trkpt>
      <trkpt lat="45.06086" lon="2.47837">
        <ele>922.32</ele>
        <time>2026-08-21T09:06:13.117Z</time>
      </trkpt>
      <trkpt lat="45.06091" lon="2.47838">
        <ele>922.49</ele>
        <time>2026-08-21T09:06:15.071Z</time>
      </trkpt>
      <trkpt lat="45.06093" lon="2.47837">
        <ele>922.81</ele>
        <time>2026-08-21T09:06:17.091Z</time>
      </trkpt>
      <trkpt lat="45.06097" lon="2.47838">
        <ele>922.98</ele>
        <time>2026-08-21T09:06:18.093Z</time>
      </trkpt>
      <trkpt lat="45.06101" lon="2.47838">
        <ele>923.29</ele>
        <time>2026-08-21T09:06:20.092Z</time>
      </trkpt>
      <trkpt lat="45.06102" lon="2.47838">
        <ele>923.62</ele>
        <time>2026-08-21T09:06:21.094Z</time>
      </trkpt>
      <trkpt lat="45.06105" lon="2.47839">
        <ele>923.77</ele>
        <time>2026-08-21T09:06:22.096Z</time>
      </trkpt>
      <trkpt lat="45.06107" lon="2.47839">
        <ele>923.95</ele>
        <time>2026-08-21T09:06:23.098Z</time>
      </trkpt>
      <trkpt lat="45.06109" lon="2.4784">
        <ele>924.12</ele>
        <time>2026-08-21T09:06:24.099Z</time>
      </trkpt>
      <trkpt lat="45.06111" lon="2.47841">
        <ele>924.29</ele>
        <time>2026-08-21T09:06:25.104Z</time>
      </trkpt>
      <trkpt lat="45.06114" lon="2.47841">
        <ele>924.45</ele>
        <time>2026-08-21T09:06:27.106Z</time>
      </trkpt>
      <trkpt lat="45.06117" lon="2.4784">
        <ele>924.78</ele>
        <time>2026-08-21T09:06:28.103Z</time>
      </trkpt>
      <trkpt lat="45.0612" lon="2.47839">
        <ele>924.92</ele>
        <time>2026-08-21T09:06:30.096Z</time>
      </trkpt>
      <trkpt lat="45.06124" lon="2.47838">
        <ele>925.23</ele>
        <time>2026-08-21T09:06:32.072Z</time>
      </trkpt>
      <trkpt lat="45.06126" lon="2.47837">
        <ele>925.54</ele>
        <time>2026-08-21T09:06:33.056Z</time>
      </trkpt>
      <trkpt lat="45.0613" lon="2.47836">
        <ele>925.69</ele>
        <time>2026-08-21T09:06:35.092Z</time>
      </trkpt>
      <trkpt lat="45.06131" lon="2.47835">
        <ele>926</ele>
        <time>2026-08-21T09:06:36.117Z</time>
      </trkpt>
      <trkpt lat="45.06133" lon="2.47834">
        <ele>926.15</ele>
        <time>2026-08-21T09:06:37.118Z</time>
      </trkpt>
      <trkpt lat="45.06134" lon="2.47833">
        <ele>926.3</ele>
        <time>2026-08-21T09:06:37.872Z</time>
      </trkpt>
      <trkpt lat="45.06136" lon="2.47832">
        <ele>926.46</ele>
        <time>2026-08-21T09:06:39.123Z</time>
      </trkpt>
      <trkpt lat="45.06138" lon="2.47829">
        <ele>926.77</ele>
        <time>2026-08-21T09:06:40.720Z</time>
      </trkpt>
      <trkpt lat="45.06139" lon="2.47828">
        <ele>926.92</ele>
        <time>2026-08-21T09:06:42.027Z</time>
      </trkpt>
      <trkpt lat="45.06139" lon="2.47826">
        <ele>927.05</ele>
        <time>2026-08-21T09:06:43.039Z</time>
      </trkpt>
      <trkpt lat="45.06139" lon="2.47824">
        <ele>927.18</ele>
        <time>2026-08-21T09:06:44.031Z</time>
      </trkpt>
      <trkpt lat="45.06139" lon="2.47822">
        <ele>927.31</ele>
        <time>2026-08-21T09:06:45.031Z</time>
      </trkpt>
      <trkpt lat="45.06139" lon="2.47819">
        <ele>927.4</ele>
        <time>2026-08-21T09:06:46.033Z</time>
      </trkpt>
      <trkpt lat="45.06139" lon="2.47817">
        <ele>927.49</ele>
        <time>2026-08-21T09:06:47.036Z</time>
      </trkpt>
      <trkpt lat="45.06138" lon="2.47814">
        <ele>927.58</ele>
        <time>2026-08-21T09:06:48.036Z</time>
      </trkpt>
      <trkpt lat="45.06138" lon="2.47811">
        <ele>927.66</ele>
        <time>2026-08-21T09:06:49.039Z</time>
      </trkpt>
      <trkpt lat="45.06136" lon="2.47807">
        <ele>927.74</ele>
        <time>2026-08-21T09:06:50.048Z</time>
      </trkpt>
      <trkpt lat="45.06136" lon="2.47804">
        <ele>927.84</ele>
        <time>2026-08-21T09:06:51.040Z</time>
      </trkpt>
      <trkpt lat="45.06134" lon="2.47799">
        <ele>927.93</ele>
        <time>2026-08-21T09:06:52.042Z</time>
      </trkpt>
      <trkpt lat="45.06133" lon="2.47795">
        <ele>927.95</ele>
        <time>2026-08-21T09:06:53.044Z</time>
      </trkpt>
      <trkpt lat="45.06131" lon="2.47791">
        <ele>927.99</ele>
        <time>2026-08-21T09:06:54.045Z</time>
      </trkpt>
      <trkpt lat="45.0613" lon="2.47785">
        <ele>928.09</ele>
        <time>2026-08-21T09:06:55.047Z</time>
      </trkpt>
      <trkpt lat="45.06128" lon="2.47779">
        <ele>928.15</ele>
        <time>2026-08-21T09:06:56.047Z</time>
      </trkpt>
      <trkpt lat="45.06127" lon="2.47773">
        <ele>928.2</ele>
        <time>2026-08-21T09:06:57.049Z</time>
      </trkpt>
      <trkpt lat="45.06125" lon="2.47767">
        <ele>928.25</ele>
        <time>2026-08-21T09:06:58.050Z</time>
      </trkpt>
      <trkpt lat="45.06124" lon="2.47761">
        <ele>928.27</ele>
        <time>2026-08-21T09:06:59.053Z</time>
      </trkpt>
      <trkpt lat="45.06123" lon="2.47755">
        <ele>928.31</ele>
        <time>2026-08-21T09:07:00.053Z</time>
      </trkpt>
      <trkpt lat="45.06121" lon="2.4775">
        <ele>928.34</ele>
        <time>2026-08-21T09:07:01.054Z</time>
      </trkpt>
      <trkpt lat="45.0612" lon="2.47745">
        <ele>928.29</ele>
        <time>2026-08-21T09:07:02.054Z</time>
      </trkpt>
      <trkpt lat="45.06119" lon="2.4774">
        <ele>928.32</ele>
        <time>2026-08-21T09:07:03.056Z</time>
      </trkpt>
      <trkpt lat="45.06118" lon="2.47735">
        <ele>928.45</ele>
        <time>2026-08-21T09:07:04.056Z</time>
      </trkpt>
      <trkpt lat="45.06117" lon="2.47729">
        <ele>928.47</ele>
        <time>2026-08-21T09:07:05.057Z</time>
      </trkpt>
      <trkpt lat="45.06115" lon="2.47724">
        <ele>928.5</ele>
        <time>2026-08-21T09:07:06.057Z</time>
      </trkpt>
      <trkpt lat="45.06114" lon="2.47718">
        <ele>928.43</ele>
        <time>2026-08-21T09:07:07.060Z</time>
      </trkpt>
      <trkpt lat="45.06113" lon="2.47713">
        <ele>928.44</ele>
        <time>2026-08-21T09:07:08.071Z</time>
      </trkpt>
      <trkpt lat="45.06112" lon="2.47708">
        <ele>928.45</ele>
        <time>2026-08-21T09:07:09.063Z</time>
      </trkpt>
      <trkpt lat="45.06111" lon="2.47703">
        <ele>928.47</ele>
        <time>2026-08-21T09:07:09.742Z</time>
      </trkpt>
      <trkpt lat="45.0611" lon="2.47697">
        <ele>928.51</ele>
        <time>2026-08-21T09:07:11.063Z</time>
      </trkpt>
      <trkpt lat="45.06108" lon="2.47691">
        <ele>928.52</ele>
        <time>2026-08-21T09:07:12.063Z</time>
      </trkpt>
      <trkpt lat="45.06107" lon="2.47688">
        <ele>928.52</ele>
        <time>2026-08-21T09:07:13.065Z</time>
      </trkpt>
      <trkpt lat="45.06106" lon="2.47682">
        <ele>928.55</ele>
        <time>2026-08-21T09:07:14.065Z</time>
      </trkpt>
      <trkpt lat="45.06104" lon="2.47676">
        <ele>928.54</ele>
        <time>2026-08-21T09:07:15.067Z</time>
      </trkpt>
      <trkpt lat="45.06104" lon="2.47672">
        <ele>928.55</ele>
        <time>2026-08-21T09:07:16.067Z</time>
      </trkpt>
      <trkpt lat="45.06102" lon="2.47663">
        <ele>928.53</ele>
        <time>2026-08-21T09:07:17.070Z</time>
      </trkpt>
      <trkpt lat="45.06101" lon="2.47657">
        <ele>928.52</ele>
        <time>2026-08-21T09:07:18.068Z</time>
      </trkpt>
      <trkpt lat="45.06099" lon="2.47651">
        <ele>928.52</ele>
        <time>2026-08-21T09:07:19.075Z</time>
      </trkpt>
      <trkpt lat="45.06099" lon="2.47646">
        <ele>928.44</ele>
        <time>2026-08-21T09:07:20.071Z</time>
      </trkpt>
      <trkpt lat="45.06097" lon="2.47641">
        <ele>928.39</ele>
        <time>2026-08-21T09:07:21.072Z</time>
      </trkpt>
      <trkpt lat="45.06096" lon="2.47636">
        <ele>928.37</ele>
        <time>2026-08-21T09:07:22.077Z</time>
      </trkpt>
      <trkpt lat="45.06095" lon="2.47631">
        <ele>928.33</ele>
        <time>2026-08-21T09:07:22.764Z</time>
      </trkpt>
      <trkpt lat="45.06094" lon="2.47624">
        <ele>928.33</ele>
        <time>2026-08-21T09:07:24.077Z</time>
      </trkpt>
      <trkpt lat="45.06093" lon="2.47618">
        <ele>928.33</ele>
        <time>2026-08-21T09:07:25.078Z</time>
      </trkpt>
      <trkpt lat="45.06091" lon="2.47612">
        <ele>928.27</ele>
        <time>2026-08-21T09:07:26.076Z</time>
      </trkpt>
      <trkpt lat="45.06089" lon="2.47605">
        <ele>928.26</ele>
        <time>2026-08-21T09:07:27.080Z</time>
      </trkpt>
      <trkpt lat="45.06088" lon="2.476">
        <ele>928.27</ele>
        <time>2026-08-21T09:07:28.082Z</time>
      </trkpt>
      <trkpt lat="45.06086" lon="2.47594">
        <ele>928.28</ele>
        <time>2026-08-21T09:07:29.081Z</time>
      </trkpt>
      <trkpt lat="45.06085" lon="2.47588">
        <ele>928.27</ele>
        <time>2026-08-21T09:07:30.103Z</time>
      </trkpt>
      <trkpt lat="45.06084" lon="2.47583">
        <ele>928.27</ele>
        <time>2026-08-21T09:07:31.085Z</time>
      </trkpt>
      <trkpt lat="45.06083" lon="2.47576">
        <ele>928.24</ele>
        <time>2026-08-21T09:07:32.084Z</time>
      </trkpt>
      <trkpt lat="45.06081" lon="2.4757">
        <ele>928.23</ele>
        <time>2026-08-21T09:07:33.085Z</time>
      </trkpt>
      <trkpt lat="45.0608" lon="2.47564">
        <ele>928.21</ele>
        <time>2026-08-21T09:07:34.087Z</time>
      </trkpt>
      <trkpt lat="45.06078" lon="2.47559">
        <ele>928.2</ele>
        <time>2026-08-21T09:07:35.094Z</time>
      </trkpt>
      <trkpt lat="45.06076" lon="2.47552">
        <ele>928.21</ele>
        <time>2026-08-21T09:07:36.090Z</time>
      </trkpt>
      <trkpt lat="45.06075" lon="2.47547">
        <ele>928.19</ele>
        <time>2026-08-21T09:07:37.105Z</time>
      </trkpt>
      <trkpt lat="45.06074" lon="2.47542">
        <ele>928.21</ele>
        <time>2026-08-21T09:07:38.091Z</time>
      </trkpt>
      <trkpt lat="45.06072" lon="2.47536">
        <ele>928.21</ele>
        <time>2026-08-21T09:07:39.095Z</time>
      </trkpt>
      <trkpt lat="45.06071" lon="2.4753">
        <ele>928.21</ele>
        <time>2026-08-21T09:07:40.098Z</time>
      </trkpt>
      <trkpt lat="45.06069" lon="2.47525">
        <ele>928.23</ele>
        <time>2026-08-21T09:07:41.097Z</time>
      </trkpt>
      <trkpt lat="45.06068" lon="2.47519">
        <ele>928.25</ele>
        <time>2026-08-21T09:07:42.105Z</time>
      </trkpt>
      <trkpt lat="45.06066" lon="2.47514">
        <ele>928.24</ele>
        <time>2026-08-21T09:07:43.099Z</time>
      </trkpt>
      <trkpt lat="45.06065" lon="2.47509">
        <ele>928.29</ele>
        <time>2026-08-21T09:07:44.104Z</time>
      </trkpt>
      <trkpt lat="45.06064" lon="2.47503">
        <ele>928.3</ele>
        <time>2026-08-21T09:07:45.103Z</time>
      </trkpt>
      <trkpt lat="45.06062" lon="2.47498">
        <ele>928.31</ele>
        <time>2026-08-21T09:07:46.104Z</time>
      </trkpt>
      <trkpt lat="45.06061" lon="2.47493">
        <ele>928.33</ele>
        <time>2026-08-21T09:07:47.106Z</time>
      </trkpt>
      <trkpt lat="45.06058" lon="2.47487">
        <ele>928.36</ele>
        <time>2026-08-21T09:07:48.108Z</time>
      </trkpt>
      <trkpt lat="45.06056" lon="2.47482">
        <ele>928.39</ele>
        <time>2026-08-21T09:07:49.107Z</time>
      </trkpt>
      <trkpt lat="45.06054" lon="2.47477">
        <ele>928.41</ele>
        <time>2026-08-21T09:07:50.112Z</time>
      </trkpt>
      <trkpt lat="45.06052" lon="2.47472">
        <ele>928.41</ele>
        <time>2026-08-21T09:07:51.112Z</time>
      </trkpt>
      <trkpt lat="45.0605" lon="2.47466">
        <ele>928.39</ele>
        <time>2026-08-21T09:07:52.114Z</time>
      </trkpt>
      <trkpt lat="45.06048" lon="2.47462">
        <ele>928.42</ele>
        <time>2026-08-21T09:07:53.114Z</time>
      </trkpt>
      <trkpt lat="45.06046" lon="2.47456">
        <ele>928.44</ele>
        <time>2026-08-21T09:07:54.115Z</time>
      </trkpt>
      <trkpt lat="45.06044" lon="2.47452">
        <ele>928.46</ele>
        <time>2026-08-21T09:07:55.115Z</time>
      </trkpt>
      <trkpt lat="45.06041" lon="2.47445">
        <ele>928.48</ele>
        <time>2026-08-21T09:07:56.116Z</time>
      </trkpt>
      <trkpt lat="45.06039" lon="2.4744">
        <ele>928.5</ele>
        <time>2026-08-21T09:07:57.119Z</time>
      </trkpt>
      <trkpt lat="45.06036" lon="2.47434">
        <ele>928.52</ele>
        <time>2026-08-21T09:07:58.120Z</time>
      </trkpt>
      <trkpt lat="45.06034" lon="2.47428">
        <ele>928.54</ele>
        <time>2026-08-21T09:07:59.121Z</time>
      </trkpt>
      <trkpt lat="45.06032" lon="2.47423">
        <ele>928.55</ele>
        <time>2026-08-21T09:08:00.130Z</time>
      </trkpt>
      <trkpt lat="45.06031" lon="2.47419">
        <ele>928.57</ele>
        <time>2026-08-21T09:08:01.126Z</time>
      </trkpt>
      <trkpt lat="45.06028" lon="2.47411">
        <ele>928.59</ele>
        <time>2026-08-21T09:08:02.128Z</time>
      </trkpt>
      <trkpt lat="45.06027" lon="2.47407">
        <ele>928.61</ele>
        <time>2026-08-21T09:08:03.065Z</time>
      </trkpt>
      <trkpt lat="45.06024" lon="2.474">
        <ele>928.62</ele>
        <time>2026-08-21T09:08:04.146Z</time>
      </trkpt>
      <trkpt lat="45.06022" lon="2.47395">
        <ele>928.64</ele>
        <time>2026-08-21T09:08:05.133Z</time>
      </trkpt>
      <trkpt lat="45.06019" lon="2.4739">
        <ele>928.66</ele>
        <time>2026-08-21T09:08:06.134Z</time>
      </trkpt>
      <trkpt lat="45.06018" lon="2.47385">
        <ele>928.69</ele>
        <time>2026-08-21T09:08:07.136Z</time>
      </trkpt>
      <trkpt lat="45.06016" lon="2.4738">
        <ele>928.69</ele>
        <time>2026-08-21T09:08:08.138Z</time>
      </trkpt>
      <trkpt lat="45.06014" lon="2.47375">
        <ele>928.68</ele>
        <time>2026-08-21T09:08:09.141Z</time>
      </trkpt>
      <trkpt lat="45.06013" lon="2.47369">
        <ele>928.68</ele>
        <time>2026-08-21T09:08:10.141Z</time>
      </trkpt>
      <trkpt lat="45.0601" lon="2.47365">
        <ele>928.7</ele>
        <time>2026-08-21T09:08:11.142Z</time>
      </trkpt>
      <trkpt lat="45.06009" lon="2.4736">
        <ele>928.69</ele>
        <time>2026-08-21T09:08:12.145Z</time>
      </trkpt>
      <trkpt lat="45.06007" lon="2.47356">
        <ele>928.7</ele>
        <time>2026-08-21T09:08:12.788Z</time>
      </trkpt>
      <trkpt lat="45.06005" lon="2.4735">
        <ele>928.72</ele>
        <time>2026-08-21T09:08:14.146Z</time>
      </trkpt>
      <trkpt lat="45.06004" lon="2.47346">
        <ele>928.73</ele>
        <time>2026-08-21T09:08:15.148Z</time>
      </trkpt>
      <trkpt lat="45.06002" lon="2.47342">
        <ele>928.74</ele>
        <time>2026-08-21T09:08:16.150Z</time>
      </trkpt>
      <trkpt lat="45.06001" lon="2.47337">
        <ele>928.76</ele>
        <time>2026-08-21T09:08:17.088Z</time>
      </trkpt>
      <trkpt lat="45.05999" lon="2.47334">
        <ele>928.78</ele>
        <time>2026-08-21T09:08:18.153Z</time>
      </trkpt>
      <trkpt lat="45.05998" lon="2.47329">
        <ele>928.79</ele>
        <time>2026-08-21T09:08:19.153Z</time>
      </trkpt>
      <trkpt lat="45.05997" lon="2.47325">
        <ele>928.81</ele>
        <time>2026-08-21T09:08:20.156Z</time>
      </trkpt>
      <trkpt lat="45.05996" lon="2.47321">
        <ele>928.83</ele>
        <time>2026-08-21T09:08:20.775Z</time>
      </trkpt>
      <trkpt lat="45.05994" lon="2.47316">
        <ele>928.85</ele>
        <time>2026-08-21T09:08:22.159Z</time>
      </trkpt>
      <trkpt lat="45.05993" lon="2.47312">
        <ele>928.87</ele>
        <time>2026-08-21T09:08:23.161Z</time>
      </trkpt>
      <trkpt lat="45.05991" lon="2.47307">
        <ele>928.9</ele>
        <time>2026-08-21T09:08:24.162Z</time>
      </trkpt>
      <trkpt lat="45.0599" lon="2.47303">
        <ele>928.84</ele>
        <time>2026-08-21T09:08:25.164Z</time>
      </trkpt>
      <trkpt lat="45.05988" lon="2.47298">
        <ele>928.87</ele>
        <time>2026-08-21T09:08:25.754Z</time>
      </trkpt>
      <trkpt lat="45.05986" lon="2.47294">
        <ele>928.88</ele>
        <time>2026-08-21T09:08:27.166Z</time>
      </trkpt>
      <trkpt lat="45.05983" lon="2.4729">
        <ele>928.89</ele>
        <time>2026-08-21T09:08:28.167Z</time>
      </trkpt>
      <trkpt lat="45.05981" lon="2.47286">
        <ele>928.89</ele>
        <time>2026-08-21T09:08:29.168Z</time>
      </trkpt>
      <trkpt lat="45.05978" lon="2.47281">
        <ele>928.87</ele>
        <time>2026-08-21T09:08:30.170Z</time>
      </trkpt>
      <trkpt lat="45.05975" lon="2.47276">
        <ele>928.87</ele>
        <time>2026-08-21T09:08:31.171Z</time>
      </trkpt>
      <trkpt lat="45.05972" lon="2.47271">
        <ele>928.86</ele>
        <time>2026-08-21T09:08:32.172Z</time>
      </trkpt>
      <trkpt lat="45.0597" lon="2.47267">
        <ele>928.87</ele>
        <time>2026-08-21T09:08:33.174Z</time>
      </trkpt>
      <trkpt lat="45.05968" lon="2.47262">
        <ele>928.87</ele>
        <time>2026-08-21T09:08:34.174Z</time>
      </trkpt>
      <trkpt lat="45.05966" lon="2.47258">
        <ele>928.87</ele>
        <time>2026-08-21T09:08:35.176Z</time>
      </trkpt>
      <trkpt lat="45.05964" lon="2.47253">
        <ele>928.88</ele>
        <time>2026-08-21T09:08:36.180Z</time>
      </trkpt>
      <trkpt lat="45.05962" lon="2.47248">
        <ele>928.89</ele>
        <time>2026-08-21T09:08:37.180Z</time>
      </trkpt>
      <trkpt lat="45.0596" lon="2.47244">
        <ele>928.88</ele>
        <time>2026-08-21T09:08:38.182Z</time>
      </trkpt>
      <trkpt lat="45.05957" lon="2.47238">
        <ele>928.91</ele>
        <time>2026-08-21T09:08:39.184Z</time>
      </trkpt>
      <trkpt lat="45.05955" lon="2.47233">
        <ele>928.88</ele>
        <time>2026-08-21T09:08:40.185Z</time>
      </trkpt>
      <trkpt lat="45.05952" lon="2.47228">
        <ele>928.91</ele>
        <time>2026-08-21T09:08:41.186Z</time>
      </trkpt>
      <trkpt lat="45.0595" lon="2.47224">
        <ele>928.9</ele>
        <time>2026-08-21T09:08:41.254Z</time>
      </trkpt>
      <trkpt lat="45.05948" lon="2.47219">
        <ele>928.9</ele>
        <time>2026-08-21T09:08:43.190Z</time>
      </trkpt>
      <trkpt lat="45.05946" lon="2.47214">
        <ele>928.92</ele>
        <time>2026-08-21T09:08:44.190Z</time>
      </trkpt>
      <trkpt lat="45.05943" lon="2.47209">
        <ele>928.91</ele>
        <time>2026-08-21T09:08:45.194Z</time>
      </trkpt>
      <trkpt lat="45.05941" lon="2.47204">
        <ele>928.92</ele>
        <time>2026-08-21T09:08:46.193Z</time>
      </trkpt>
      <trkpt lat="45.05938" lon="2.47199">
        <ele>928.93</ele>
        <time>2026-08-21T09:08:47.195Z</time>
      </trkpt>
      <trkpt lat="45.05936" lon="2.47195">
        <ele>928.93</ele>
        <time>2026-08-21T09:08:48.198Z</time>
      </trkpt>
      <trkpt lat="45.05933" lon="2.4719">
        <ele>928.94</ele>
        <time>2026-08-21T09:08:49.197Z</time>
      </trkpt>
      <trkpt lat="45.05932" lon="2.47186">
        <ele>928.92</ele>
        <time>2026-08-21T09:08:50.201Z</time>
      </trkpt>
      <trkpt lat="45.0593" lon="2.47182">
        <ele>928.92</ele>
        <time>2026-08-21T09:08:51.200Z</time>
      </trkpt>
      <trkpt lat="45.05927" lon="2.47177">
        <ele>928.9</ele>
        <time>2026-08-21T09:08:52.202Z</time>
      </trkpt>
      <trkpt lat="45.05925" lon="2.47172">
        <ele>928.9</ele>
        <time>2026-08-21T09:08:53.204Z</time>
      </trkpt>
      <trkpt lat="45.05923" lon="2.47168">
        <ele>928.91</ele>
        <time>2026-08-21T09:08:54.205Z</time>
      </trkpt>
      <trkpt lat="45.0592" lon="2.47164">
        <ele>928.9</ele>
        <time>2026-08-21T09:08:55.206Z</time>
      </trkpt>
      <trkpt lat="45.05919" lon="2.47159">
        <ele>928.88</ele>
        <time>2026-08-21T09:08:56.207Z</time>
      </trkpt>
      <trkpt lat="45.05917" lon="2.47157">
        <ele>928.87</ele>
        <time>2026-08-21T09:08:57.209Z</time>
      </trkpt>
      <trkpt lat="45.05916" lon="2.47154">
        <ele>928.87</ele>
        <time>2026-08-21T09:08:58.209Z</time>
      </trkpt>
      <trkpt lat="45.05914" lon="2.47152">
        <ele>928.82</ele>
        <time>2026-08-21T09:09:14.428Z</time>
      </trkpt>
      <trkpt lat="45.05913" lon="2.4715">
        <ele>928.82</ele>
        <time>2026-08-21T09:09:46.095Z</time>
      </trkpt>
      <trkpt lat="45.05912" lon="2.47146">
        <ele>928.68</ele>
        <time>2026-08-21T09:09:48.363Z</time>
      </trkpt>
      <trkpt lat="45.05911" lon="2.47145">
        <ele>928.66</ele>
        <time>2026-08-21T09:09:49.364Z</time>
      </trkpt>
      <trkpt lat="45.05909" lon="2.47142">
        <ele>928.69</ele>
        <time>2026-08-21T09:09:50.366Z</time>
      </trkpt>
      <trkpt lat="45.05906" lon="2.47138">
        <ele>928.47</ele>
        <time>2026-08-21T09:09:51.445Z</time>
      </trkpt>
      <trkpt lat="45.05904" lon="2.47134">
        <ele>928.48</ele>
        <time>2026-08-21T09:09:52.369Z</time>
      </trkpt>
      <trkpt lat="45.05901" lon="2.47129">
        <ele>928.48</ele>
        <time>2026-08-21T09:09:52.465Z</time>
      </trkpt>
      <trkpt lat="45.05898" lon="2.47124">
        <ele>928.58</ele>
        <time>2026-08-21T09:09:54.446Z</time>
      </trkpt>
      <trkpt lat="45.05895" lon="2.47118">
        <ele>928.45</ele>
        <time>2026-08-21T09:09:55.372Z</time>
      </trkpt>
      <trkpt lat="45.05892" lon="2.47111">
        <ele>928.38</ele>
        <time>2026-08-21T09:09:56.373Z</time>
      </trkpt>
      <trkpt lat="45.05889" lon="2.47104">
        <ele>928.33</ele>
        <time>2026-08-21T09:09:57.374Z</time>
      </trkpt>
      <trkpt lat="45.05886" lon="2.47097">
        <ele>928.28</ele>
        <time>2026-08-21T09:09:58.448Z</time>
      </trkpt>
      <trkpt lat="45.05883" lon="2.47089">
        <ele>928.26</ele>
        <time>2026-08-21T09:09:59.377Z</time>
      </trkpt>
      <trkpt lat="45.05881" lon="2.47082">
        <ele>928.24</ele>
        <time>2026-08-21T09:10:00.378Z</time>
      </trkpt>
      <trkpt lat="45.05879" lon="2.47074">
        <ele>928</ele>
        <time>2026-08-21T09:10:01.379Z</time>
      </trkpt>
      <trkpt lat="45.05877" lon="2.47067">
        <ele>927.96</ele>
        <time>2026-08-21T09:10:02.381Z</time>
      </trkpt>
      <trkpt lat="45.05875" lon="2.47059">
        <ele>927.69</ele>
        <time>2026-08-21T09:10:03.383Z</time>
      </trkpt>
      <trkpt lat="45.05873" lon="2.47052">
        <ele>927.86</ele>
        <time>2026-08-21T09:10:04.384Z</time>
      </trkpt>
      <trkpt lat="45.05871" lon="2.47046">
        <ele>927.82</ele>
        <time>2026-08-21T09:10:05.386Z</time>
      </trkpt>
      <trkpt lat="45.05869" lon="2.47039">
        <ele>927.83</ele>
        <time>2026-08-21T09:10:06.386Z</time>
      </trkpt>
      <trkpt lat="45.05867" lon="2.47033">
        <ele>927.64</ele>
        <time>2026-08-21T09:10:07.391Z</time>
      </trkpt>
      <trkpt lat="45.05865" lon="2.47027">
        <ele>927.54</ele>
        <time>2026-08-21T09:10:08.389Z</time>
      </trkpt>
      <trkpt lat="45.05863" lon="2.47022">
        <ele>927.51</ele>
        <time>2026-08-21T09:10:09.389Z</time>
      </trkpt>
      <trkpt lat="45.05861" lon="2.47016">
        <ele>927.42</ele>
        <time>2026-08-21T09:10:10.391Z</time>
      </trkpt>
      <trkpt lat="45.05859" lon="2.4701">
        <ele>927.24</ele>
        <time>2026-08-21T09:10:11.391Z</time>
      </trkpt>
      <trkpt lat="45.05858" lon="2.47004">
        <ele>927.1</ele>
        <time>2026-08-21T09:10:12.393Z</time>
      </trkpt>
      <trkpt lat="45.05856" lon="2.46998">
        <ele>926.87</ele>
        <time>2026-08-21T09:10:13.394Z</time>
      </trkpt>
      <trkpt lat="45.05854" lon="2.46992">
        <ele>926.8</ele>
        <time>2026-08-21T09:10:14.397Z</time>
      </trkpt>
      <trkpt lat="45.05853" lon="2.46986">
        <ele>926.68</ele>
        <time>2026-08-21T09:10:15.396Z</time>
      </trkpt>
      <trkpt lat="45.05851" lon="2.4698">
        <ele>926.31</ele>
        <time>2026-08-21T09:10:16.396Z</time>
      </trkpt>
      <trkpt lat="45.05848" lon="2.46974">
        <ele>925.79</ele>
        <time>2026-08-21T09:10:17.398Z</time>
      </trkpt>
      <trkpt lat="45.05846" lon="2.46968">
        <ele>925.37</ele>
        <time>2026-08-21T09:10:18.399Z</time>
      </trkpt>
      <trkpt lat="45.05845" lon="2.46962">
        <ele>924.93</ele>
        <time>2026-08-21T09:10:19.400Z</time>
      </trkpt>
      <trkpt lat="45.05843" lon="2.46955">
        <ele>924.62</ele>
        <time>2026-08-21T09:10:20.402Z</time>
      </trkpt>
      <trkpt lat="45.05841" lon="2.46949">
        <ele>924.34</ele>
        <time>2026-08-21T09:10:21.403Z</time>
      </trkpt>
      <trkpt lat="45.0584" lon="2.46943">
        <ele>924.08</ele>
        <time>2026-08-21T09:10:22.404Z</time>
      </trkpt>
      <trkpt lat="45.05838" lon="2.46938">
        <ele>923.69</ele>
        <time>2026-08-21T09:10:23.407Z</time>
      </trkpt>
      <trkpt lat="45.05837" lon="2.46932">
        <ele>923.36</ele>
        <time>2026-08-21T09:10:24.407Z</time>
      </trkpt>
      <trkpt lat="45.05835" lon="2.46927">
        <ele>923.16</ele>
        <time>2026-08-21T09:10:25.420Z</time>
      </trkpt>
      <trkpt lat="45.05834" lon="2.46923">
        <ele>923.03</ele>
        <time>2026-08-21T09:10:26.407Z</time>
      </trkpt>
      <trkpt lat="45.05833" lon="2.4692">
        <ele>922.92</ele>
        <time>2026-08-21T09:10:27.414Z</time>
      </trkpt>
      <trkpt lat="45.05833" lon="2.46918">
        <ele>922.8</ele>
        <time>2026-08-21T09:10:28.412Z</time>
      </trkpt>
      <trkpt lat="45.05832" lon="2.46916">
        <ele>922.56</ele>
        <time>2026-08-21T09:10:30.415Z</time>
      </trkpt>
      <trkpt lat="45.05832" lon="2.46913">
        <ele>922.34</ele>
        <time>2026-08-21T09:10:31.509Z</time>
      </trkpt>
      <trkpt lat="45.05832" lon="2.4691">
        <ele>922.15</ele>
        <time>2026-08-21T09:10:34.423Z</time>
      </trkpt>
      <trkpt lat="45.0583" lon="2.46906">
        <ele>921.91</ele>
        <time>2026-08-21T09:11:17.126Z</time>
      </trkpt>
      <trkpt lat="45.0583" lon="2.46902">
        <ele>920.84</ele>
        <time>2026-08-21T09:11:27.329Z</time>
      </trkpt>
      <trkpt lat="45.05829" lon="2.46901">
        <ele>920.83</ele>
        <time>2026-08-21T09:11:29.307Z</time>
      </trkpt>
      <trkpt lat="45.05828" lon="2.46899">
        <ele>920.81</ele>
        <time>2026-08-21T09:11:30.303Z</time>
      </trkpt>
      <trkpt lat="45.05827" lon="2.46896">
        <ele>920.79</ele>
        <time>2026-08-21T09:11:30.333Z</time>
      </trkpt>
      <trkpt lat="45.05826" lon="2.46892">
        <ele>920.78</ele>
        <time>2026-08-21T09:11:31.324Z</time>
      </trkpt>
      <trkpt lat="45.05825" lon="2.46888">
        <ele>920.74</ele>
        <time>2026-08-21T09:11:33.303Z</time>
      </trkpt>
      <trkpt lat="45.05824" lon="2.46884">
        <ele>920.7</ele>
        <time>2026-08-21T09:11:34.083Z</time>
      </trkpt>
      <trkpt lat="45.05822" lon="2.4688">
        <ele>920.66</ele>
        <time>2026-08-21T09:11:35.320Z</time>
      </trkpt>
      <trkpt lat="45.05821" lon="2.46875">
        <ele>920.63</ele>
        <time>2026-08-21T09:11:36.012Z</time>
      </trkpt>
      <trkpt lat="45.0582" lon="2.4687">
        <ele>920.55</ele>
        <time>2026-08-21T09:11:37.318Z</time>
      </trkpt>
      <trkpt lat="45.05818" lon="2.46865">
        <ele>920.52</ele>
        <time>2026-08-21T09:11:38.065Z</time>
      </trkpt>
      <trkpt lat="45.05817" lon="2.46859">
        <ele>920.39</ele>
        <time>2026-08-21T09:11:38.342Z</time>
      </trkpt>
      <trkpt lat="45.05816" lon="2.46854">
        <ele>920.36</ele>
        <time>2026-08-21T09:11:40.323Z</time>
      </trkpt>
      <trkpt lat="45.05815" lon="2.46848">
        <ele>920.37</ele>
        <time>2026-08-21T09:11:41.315Z</time>
      </trkpt>
      <trkpt lat="45.05814" lon="2.46843">
        <ele>920.38</ele>
        <time>2026-08-21T09:11:42.178Z</time>
      </trkpt>
      <trkpt lat="45.05812" lon="2.46838">
        <ele>920.32</ele>
        <time>2026-08-21T09:11:43.325Z</time>
      </trkpt>
      <trkpt lat="45.05811" lon="2.46834">
        <ele>920.27</ele>
        <time>2026-08-21T09:11:44.315Z</time>
      </trkpt>
      <trkpt lat="45.0581" lon="2.46828">
        <ele>920.22</ele>
        <time>2026-08-21T09:11:45.326Z</time>
      </trkpt>
      <trkpt lat="45.05809" lon="2.46823">
        <ele>920.18</ele>
        <time>2026-08-21T09:11:46.322Z</time>
      </trkpt>
      <trkpt lat="45.05808" lon="2.46818">
        <ele>920.18</ele>
        <time>2026-08-21T09:11:46.332Z</time>
      </trkpt>
      <trkpt lat="45.05806" lon="2.46813">
        <ele>920.06</ele>
        <time>2026-08-21T09:11:48.305Z</time>
      </trkpt>
      <trkpt lat="45.05805" lon="2.46807">
        <ele>920.06</ele>
        <time>2026-08-21T09:11:49.228Z</time>
      </trkpt>
      <trkpt lat="45.05804" lon="2.46803">
        <ele>920.04</ele>
        <time>2026-08-21T09:11:50.174Z</time>
      </trkpt>
      <trkpt lat="45.05803" lon="2.46797">
        <ele>920.01</ele>
        <time>2026-08-21T09:11:51.302Z</time>
      </trkpt>
      <trkpt lat="45.05802" lon="2.46792">
        <ele>920.03</ele>
        <time>2026-08-21T09:11:52.330Z</time>
      </trkpt>
      <trkpt lat="45.05801" lon="2.46786">
        <ele>920.02</ele>
        <time>2026-08-21T09:11:53.331Z</time>
      </trkpt>
      <trkpt lat="45.058" lon="2.46781">
        <ele>919.97</ele>
        <time>2026-08-21T09:11:54.094Z</time>
      </trkpt>
      <trkpt lat="45.058" lon="2.46776">
        <ele>919.99</ele>
        <time>2026-08-21T09:11:55.325Z</time>
      </trkpt>
      <trkpt lat="45.05798" lon="2.46771">
        <ele>919.92</ele>
        <time>2026-08-21T09:11:56.329Z</time>
      </trkpt>
      <trkpt lat="45.05798" lon="2.46766">
        <ele>919.89</ele>
        <time>2026-08-21T09:11:57.335Z</time>
      </trkpt>
      <trkpt lat="45.05797" lon="2.4676">
        <ele>919.85</ele>
        <time>2026-08-21T09:11:58.323Z</time>
      </trkpt>
      <trkpt lat="45.05796" lon="2.46755">
        <ele>919.8</ele>
        <time>2026-08-21T09:11:59.336Z</time>
      </trkpt>
      <trkpt lat="45.05795" lon="2.46748">
        <ele>919.75</ele>
        <time>2026-08-21T09:12:00.336Z</time>
      </trkpt>
      <trkpt lat="45.05795" lon="2.46742">
        <ele>919.77</ele>
        <time>2026-08-21T09:12:01.329Z</time>
      </trkpt>
      <trkpt lat="45.05793" lon="2.46737">
        <ele>919.79</ele>
        <time>2026-08-21T09:12:02.335Z</time>
      </trkpt>
      <trkpt lat="45.05791" lon="2.46728">
        <ele>919.74</ele>
        <time>2026-08-21T09:12:03.342Z</time>
      </trkpt>
      <trkpt lat="45.05789" lon="2.46722">
        <ele>919.68</ele>
        <time>2026-08-21T09:12:04.329Z</time>
      </trkpt>
      <trkpt lat="45.05787" lon="2.46715">
        <ele>919.62</ele>
        <time>2026-08-21T09:12:05.345Z</time>
      </trkpt>
      <trkpt lat="45.05785" lon="2.46708">
        <ele>919.48</ele>
        <time>2026-08-21T09:12:06.335Z</time>
      </trkpt>
      <trkpt lat="45.05783" lon="2.46703">
        <ele>919.34</ele>
        <time>2026-08-21T09:12:07.345Z</time>
      </trkpt>
      <trkpt lat="45.05781" lon="2.46696">
        <ele>918.71</ele>
        <time>2026-08-21T09:12:08.347Z</time>
      </trkpt>
      <trkpt lat="45.05779" lon="2.46689">
        <ele>918.45</ele>
        <time>2026-08-21T09:12:09.347Z</time>
      </trkpt>
      <trkpt lat="45.05777" lon="2.46683">
        <ele>918.45</ele>
        <time>2026-08-21T09:12:10.347Z</time>
      </trkpt>
      <trkpt lat="45.05775" lon="2.46676">
        <ele>918.27</ele>
        <time>2026-08-21T09:12:11.348Z</time>
      </trkpt>
      <trkpt lat="45.05773" lon="2.4667">
        <ele>918.25</ele>
        <time>2026-08-21T09:12:12.348Z</time>
      </trkpt>
      <trkpt lat="45.05771" lon="2.46663">
        <ele>918.08</ele>
        <time>2026-08-21T09:12:13.349Z</time>
      </trkpt>
      <trkpt lat="45.05769" lon="2.46657">
        <ele>917.97</ele>
        <time>2026-08-21T09:12:14.350Z</time>
      </trkpt>
      <trkpt lat="45.05767" lon="2.46651">
        <ele>917.83</ele>
        <time>2026-08-21T09:12:15.351Z</time>
      </trkpt>
      <trkpt lat="45.05765" lon="2.46645">
        <ele>917.69</ele>
        <time>2026-08-21T09:12:16.352Z</time>
      </trkpt>
      <trkpt lat="45.05763" lon="2.46638">
        <ele>917.49</ele>
        <time>2026-08-21T09:12:17.355Z</time>
      </trkpt>
      <trkpt lat="45.05761" lon="2.46632">
        <ele>917.12</ele>
        <time>2026-08-21T09:12:18.352Z</time>
      </trkpt>
      <trkpt lat="45.0576" lon="2.46625">
        <ele>916.95</ele>
        <time>2026-08-21T09:12:19.353Z</time>
      </trkpt>
      <trkpt lat="45.05758" lon="2.46619">
        <ele>916.75</ele>
        <time>2026-08-21T09:12:20.353Z</time>
      </trkpt>
      <trkpt lat="45.05756" lon="2.46613">
        <ele>916.51</ele>
        <time>2026-08-21T09:12:21.354Z</time>
      </trkpt>
      <trkpt lat="45.05754" lon="2.46608">
        <ele>916.37</ele>
        <time>2026-08-21T09:12:22.355Z</time>
      </trkpt>
      <trkpt lat="45.05752" lon="2.46601">
        <ele>916.27</ele>
        <time>2026-08-21T09:12:22.988Z</time>
      </trkpt>
      <trkpt lat="45.05751" lon="2.46594">
        <ele>916.15</ele>
        <time>2026-08-21T09:12:24.356Z</time>
      </trkpt>
      <trkpt lat="45.0575" lon="2.46587">
        <ele>915.83</ele>
        <time>2026-08-21T09:12:25.332Z</time>
      </trkpt>
      <trkpt lat="45.05748" lon="2.4658">
        <ele>915.67</ele>
        <time>2026-08-21T09:12:26.357Z</time>
      </trkpt>
      <trkpt lat="45.05746" lon="2.46573">
        <ele>915.39</ele>
        <time>2026-08-21T09:12:27.357Z</time>
      </trkpt>
      <trkpt lat="45.05744" lon="2.46566">
        <ele>915.37</ele>
        <time>2026-08-21T09:12:28.358Z</time>
      </trkpt>
      <trkpt lat="45.05742" lon="2.46558">
        <ele>915.21</ele>
        <time>2026-08-21T09:12:28.414Z</time>
      </trkpt>
      <trkpt lat="45.0574" lon="2.46552">
        <ele>914.9</ele>
        <time>2026-08-21T09:12:30.359Z</time>
      </trkpt>
      <trkpt lat="45.05738" lon="2.46545">
        <ele>914.71</ele>
        <time>2026-08-21T09:12:31.359Z</time>
      </trkpt>
      <trkpt lat="45.05735" lon="2.46539">
        <ele>914.57</ele>
        <time>2026-08-21T09:12:32.360Z</time>
      </trkpt>
      <trkpt lat="45.05732" lon="2.46532">
        <ele>914.42</ele>
        <time>2026-08-21T09:12:33.361Z</time>
      </trkpt>
      <trkpt lat="45.0573" lon="2.46524">
        <ele>914.31</ele>
        <time>2026-08-21T09:12:33.449Z</time>
      </trkpt>
      <trkpt lat="45.05728" lon="2.46517">
        <ele>914.32</ele>
        <time>2026-08-21T09:12:35.362Z</time>
      </trkpt>
      <trkpt lat="45.05726" lon="2.4651">
        <ele>914.05</ele>
        <time>2026-08-21T09:12:36.362Z</time>
      </trkpt>
      <trkpt lat="45.05725" lon="2.46502">
        <ele>913.63</ele>
        <time>2026-08-21T09:12:37.363Z</time>
      </trkpt>
      <trkpt lat="45.05723" lon="2.46494">
        <ele>913.24</ele>
        <time>2026-08-21T09:12:38.364Z</time>
      </trkpt>
      <trkpt lat="45.05722" lon="2.46487">
        <ele>913.24</ele>
        <time>2026-08-21T09:12:39.364Z</time>
      </trkpt>
      <trkpt lat="45.05721" lon="2.4648">
        <ele>913.31</ele>
        <time>2026-08-21T09:12:40.363Z</time>
      </trkpt>
      <trkpt lat="45.05721" lon="2.46473">
        <ele>913.21</ele>
        <time>2026-08-21T09:12:41.364Z</time>
      </trkpt>
      <trkpt lat="45.05721" lon="2.46466">
        <ele>912.82</ele>
        <time>2026-08-21T09:12:42.365Z</time>
      </trkpt>
      <trkpt lat="45.05721" lon="2.46459">
        <ele>912.54</ele>
        <time>2026-08-21T09:12:43.365Z</time>
      </trkpt>
      <trkpt lat="45.05721" lon="2.46452">
        <ele>912.32</ele>
        <time>2026-08-21T09:12:44.364Z</time>
      </trkpt>
      <trkpt lat="45.05721" lon="2.46445">
        <ele>911.93</ele>
        <time>2026-08-21T09:12:45.365Z</time>
      </trkpt>
      <trkpt lat="45.05721" lon="2.46438">
        <ele>912.02</ele>
        <time>2026-08-21T09:12:46.368Z</time>
      </trkpt>
      <trkpt lat="45.05719" lon="2.4643">
        <ele>911.93</ele>
        <time>2026-08-21T09:12:47.366Z</time>
      </trkpt>
      <trkpt lat="45.05719" lon="2.46423">
        <ele>911.54</ele>
        <time>2026-08-21T09:12:48.367Z</time>
      </trkpt>
      <trkpt lat="45.05718" lon="2.46416">
        <ele>911.57</ele>
        <time>2026-08-21T09:12:49.368Z</time>
      </trkpt>
      <trkpt lat="45.05716" lon="2.46409">
        <ele>911.36</ele>
        <time>2026-08-21T09:12:50.371Z</time>
      </trkpt>
      <trkpt lat="45.05715" lon="2.46402">
        <ele>911.2</ele>
        <time>2026-08-21T09:12:51.370Z</time>
      </trkpt>
      <trkpt lat="45.05714" lon="2.46395">
        <ele>911.01</ele>
        <time>2026-08-21T09:12:52.369Z</time>
      </trkpt>
      <trkpt lat="45.05713" lon="2.46387">
        <ele>910.57</ele>
        <time>2026-08-21T09:12:53.369Z</time>
      </trkpt>
      <trkpt lat="45.05712" lon="2.4638">
        <ele>910.16</ele>
        <time>2026-08-21T09:12:54.369Z</time>
      </trkpt>
      <trkpt lat="45.05712" lon="2.46373">
        <ele>909.87</ele>
        <time>2026-08-21T09:12:55.373Z</time>
      </trkpt>
      <trkpt lat="45.05712" lon="2.46365">
        <ele>909.75</ele>
        <time>2026-08-21T09:12:56.371Z</time>
      </trkpt>
      <trkpt lat="45.05712" lon="2.46357">
        <ele>909.58</ele>
        <time>2026-08-21T09:12:57.372Z</time>
      </trkpt>
      <trkpt lat="45.05712" lon="2.46349">
        <ele>909.27</ele>
        <time>2026-08-21T09:12:58.373Z</time>
      </trkpt>
      <trkpt lat="45.05712" lon="2.46341">
        <ele>908.81</ele>
        <time>2026-08-21T09:12:59.374Z</time>
      </trkpt>
      <trkpt lat="45.05711" lon="2.46333">
        <ele>907.76</ele>
        <time>2026-08-21T09:13:00.374Z</time>
      </trkpt>
      <trkpt lat="45.05709" lon="2.46325">
        <ele>907.33</ele>
        <time>2026-08-21T09:13:01.376Z</time>
      </trkpt>
      <trkpt lat="45.05707" lon="2.46317">
        <ele>907.02</ele>
        <time>2026-08-21T09:13:02.376Z</time>
      </trkpt>
      <trkpt lat="45.05706" lon="2.46309">
        <ele>907.15</ele>
        <time>2026-08-21T09:13:03.376Z</time>
      </trkpt>
      <trkpt lat="45.05706" lon="2.46298">
        <ele>906.56</ele>
        <time>2026-08-21T09:13:04.378Z</time>
      </trkpt>
      <trkpt lat="45.05706" lon="2.46287">
        <ele>905.69</ele>
        <time>2026-08-21T09:13:05.380Z</time>
      </trkpt>
      <trkpt lat="45.05707" lon="2.46276">
        <ele>905.13</ele>
        <time>2026-08-21T09:13:06.379Z</time>
      </trkpt>
      <trkpt lat="45.05708" lon="2.46266">
        <ele>904.8</ele>
        <time>2026-08-21T09:13:07.380Z</time>
      </trkpt>
      <trkpt lat="45.0571" lon="2.46252">
        <ele>904.75</ele>
        <time>2026-08-21T09:13:08.380Z</time>
      </trkpt>
      <trkpt lat="45.05713" lon="2.46239">
        <ele>904.31</ele>
        <time>2026-08-21T09:13:09.380Z</time>
      </trkpt>
      <trkpt lat="45.05716" lon="2.46227">
        <ele>903.66</ele>
        <time>2026-08-21T09:13:10.381Z</time>
      </trkpt>
      <trkpt lat="45.05719" lon="2.46213">
        <ele>902.96</ele>
        <time>2026-08-21T09:13:11.382Z</time>
      </trkpt>
      <trkpt lat="45.05722" lon="2.46199">
        <ele>902.73</ele>
        <time>2026-08-21T09:13:12.382Z</time>
      </trkpt>
      <trkpt lat="45.05724" lon="2.46186">
        <ele>901.98</ele>
        <time>2026-08-21T09:13:13.382Z</time>
      </trkpt>
      <trkpt lat="45.05727" lon="2.46172">
        <ele>901.21</ele>
        <time>2026-08-21T09:13:14.383Z</time>
      </trkpt>
      <trkpt lat="45.0573" lon="2.46161">
        <ele>899.49</ele>
        <time>2026-08-21T09:13:15.383Z</time>
      </trkpt>
      <trkpt lat="45.05735" lon="2.46143">
        <ele>897.95</ele>
        <time>2026-08-21T09:13:16.382Z</time>
      </trkpt>
      <trkpt lat="45.05739" lon="2.46128">
        <ele>896.57</ele>
        <time>2026-08-21T09:13:17.373Z</time>
      </trkpt>
      <trkpt lat="45.05743" lon="2.46113">
        <ele>895.39</ele>
        <time>2026-08-21T09:13:18.365Z</time>
      </trkpt>
      <trkpt lat="45.05745" lon="2.46103">
        <ele>893.77</ele>
        <time>2026-08-21T09:13:19.365Z</time>
      </trkpt>
      <trkpt lat="45.05747" lon="2.4608">
        <ele>891.08</ele>
        <time>2026-08-21T09:13:20.365Z</time>
      </trkpt>
      <trkpt lat="45.05747" lon="2.46075">
        <ele>890.2</ele>
        <time>2026-08-21T09:13:21.367Z</time>
      </trkpt>
      <trkpt lat="45.05747" lon="2.4607">
        <ele>890.2</ele>
        <time>2026-08-21T09:13:22.358Z</time>
      </trkpt>
      <trkpt lat="45.05748" lon="2.46028">
        <ele>890.2</ele>
        <time>2026-08-21T09:13:23.359Z</time>
      </trkpt>
      <trkpt lat="45.0575" lon="2.46013">
        <ele>883.81</ele>
        <time>2026-08-21T09:13:24.358Z</time>
      </trkpt>
      <trkpt lat="45.05753" lon="2.45998">
        <ele>881.21</ele>
        <time>2026-08-21T09:13:25.359Z</time>
      </trkpt>
      <trkpt lat="45.05759" lon="2.45984">
        <ele>878.9</ele>
        <time>2026-08-21T09:13:26.360Z</time>
      </trkpt>
      <trkpt lat="45.05764" lon="2.45971">
        <ele>878.5</ele>
        <time>2026-08-21T09:13:27.360Z</time>
      </trkpt>
      <trkpt lat="45.05768" lon="2.45959">
        <ele>878.19</ele>
        <time>2026-08-21T09:13:28.360Z</time>
      </trkpt>
      <trkpt lat="45.05772" lon="2.45948">
        <ele>877.25</ele>
        <time>2026-08-21T09:13:29.359Z</time>
      </trkpt>
      <trkpt lat="45.05777" lon="2.45939">
        <ele>876.98</ele>
        <time>2026-08-21T09:13:30.360Z</time>
      </trkpt>
      <trkpt lat="45.0578" lon="2.45931">
        <ele>876.3</ele>
        <time>2026-08-21T09:13:31.361Z</time>
      </trkpt>
      <trkpt lat="45.05783" lon="2.45925">
        <ele>875.83</ele>
        <time>2026-08-21T09:13:32.157Z</time>
      </trkpt>
      <trkpt lat="45.05784" lon="2.45921">
        <ele>875.31</ele>
        <time>2026-08-21T09:13:33.177Z</time>
      </trkpt>
      <trkpt lat="45.05785" lon="2.45919">
        <ele>874.82</ele>
        <time>2026-08-21T09:13:34.406Z</time>
      </trkpt>
      <trkpt lat="45.05786" lon="2.45916">
        <ele>874.33</ele>
        <time>2026-08-21T09:13:35.361Z</time>
      </trkpt>
      <trkpt lat="45.05789" lon="2.45911">
        <ele>872.99</ele>
        <time>2026-08-21T09:13:50.057Z</time>
      </trkpt>
      <trkpt lat="45.05791" lon="2.45909">
        <ele>872.6</ele>
        <time>2026-08-21T09:13:52.688Z</time>
      </trkpt>
      <trkpt lat="45.05792" lon="2.45907">
        <ele>872.6</ele>
        <time>2026-08-21T09:13:53.674Z</time>
      </trkpt>
      <trkpt lat="45.05793" lon="2.45904">
        <ele>869.4</ele>
        <time>2026-08-21T09:13:54.686Z</time>
      </trkpt>
      <trkpt lat="45.05795" lon="2.459">
        <ele>869.2</ele>
        <time>2026-08-21T09:13:55.676Z</time>
      </trkpt>
      <trkpt lat="45.05796" lon="2.45897">
        <ele>869.03</ele>
        <time>2026-08-21T09:13:56.670Z</time>
      </trkpt>
      <trkpt lat="45.05797" lon="2.45893">
        <ele>868.86</ele>
        <time>2026-08-21T09:13:57.115Z</time>
      </trkpt>
      <trkpt lat="45.05798" lon="2.45888">
        <ele>868.66</ele>
        <time>2026-08-21T09:13:57.710Z</time>
      </trkpt>
      <trkpt lat="45.058" lon="2.45881">
        <ele>868.54</ele>
        <time>2026-08-21T09:13:59.309Z</time>
      </trkpt>
      <trkpt lat="45.058" lon="2.45875">
        <ele>868.39</ele>
        <time>2026-08-21T09:14:00.700Z</time>
      </trkpt>
      <trkpt lat="45.05801" lon="2.45869">
        <ele>868.26</ele>
        <time>2026-08-21T09:14:01.685Z</time>
      </trkpt>
      <trkpt lat="45.05802" lon="2.45864">
        <ele>868.11</ele>
        <time>2026-08-21T09:14:02.687Z</time>
      </trkpt>
      <trkpt lat="45.05803" lon="2.45859">
        <ele>867.81</ele>
        <time>2026-08-21T09:14:03.695Z</time>
      </trkpt>
      <trkpt lat="45.05804" lon="2.45854">
        <ele>867.61</ele>
        <time>2026-08-21T09:14:04.231Z</time>
      </trkpt>
      <trkpt lat="45.05805" lon="2.45848">
        <ele>867.54</ele>
        <time>2026-08-21T09:14:05.518Z</time>
      </trkpt>
      <trkpt lat="45.05807" lon="2.45841">
        <ele>867.4</ele>
        <time>2026-08-21T09:14:06.709Z</time>
      </trkpt>
      <trkpt lat="45.05808" lon="2.45836">
        <ele>867.38</ele>
        <time>2026-08-21T09:14:07.690Z</time>
      </trkpt>
      <trkpt lat="45.05809" lon="2.45831">
        <ele>867.28</ele>
        <time>2026-08-21T09:14:08.698Z</time>
      </trkpt>
      <trkpt lat="45.05811" lon="2.45826">
        <ele>867.22</ele>
        <time>2026-08-21T09:14:09.701Z</time>
      </trkpt>
      <trkpt lat="45.05812" lon="2.45822">
        <ele>867.08</ele>
        <time>2026-08-21T09:14:10.703Z</time>
      </trkpt>
      <trkpt lat="45.05814" lon="2.45818">
        <ele>866.98</ele>
        <time>2026-08-21T09:14:10.724Z</time>
      </trkpt>
      <trkpt lat="45.05815" lon="2.45813">
        <ele>866.93</ele>
        <time>2026-08-21T09:14:12.707Z</time>
      </trkpt>
      <trkpt lat="45.05817" lon="2.45809">
        <ele>866.9</ele>
        <time>2026-08-21T09:14:13.417Z</time>
      </trkpt>
      <trkpt lat="45.05817" lon="2.45805">
        <ele>866.89</ele>
        <time>2026-08-21T09:14:14.720Z</time>
      </trkpt>
      <trkpt lat="45.05818" lon="2.458">
        <ele>866.86</ele>
        <time>2026-08-21T09:14:15.712Z</time>
      </trkpt>
      <trkpt lat="45.05819" lon="2.45797">
        <ele>866.83</ele>
        <time>2026-08-21T09:14:16.715Z</time>
      </trkpt>
      <trkpt lat="45.0582" lon="2.45793">
        <ele>866.8</ele>
        <time>2026-08-21T09:14:17.689Z</time>
      </trkpt>
      <trkpt lat="45.05821" lon="2.45789">
        <ele>866.79</ele>
        <time>2026-08-21T09:14:18.508Z</time>
      </trkpt>
      <trkpt lat="45.05822" lon="2.45786">
        <ele>866.8</ele>
        <time>2026-08-21T09:14:19.724Z</time>
      </trkpt>
      <trkpt lat="45.05824" lon="2.45782">
        <ele>866.8</ele>
        <time>2026-08-21T09:14:20.283Z</time>
      </trkpt>
      <trkpt lat="45.05825" lon="2.45778">
        <ele>866.84</ele>
        <time>2026-08-21T09:14:21.282Z</time>
      </trkpt>
      <trkpt lat="45.05826" lon="2.45774">
        <ele>866.91</ele>
        <time>2026-08-21T09:14:22.728Z</time>
      </trkpt>
      <trkpt lat="45.05827" lon="2.45771">
        <ele>866.95</ele>
        <time>2026-08-21T09:14:23.403Z</time>
      </trkpt>
      <trkpt lat="45.05828" lon="2.45766">
        <ele>866.99</ele>
        <time>2026-08-21T09:14:24.421Z</time>
      </trkpt>
      <trkpt lat="45.05829" lon="2.45763">
        <ele>867.02</ele>
        <time>2026-08-21T09:14:25.438Z</time>
      </trkpt>
      <trkpt lat="45.0583" lon="2.45759">
        <ele>867.05</ele>
        <time>2026-08-21T09:14:26.720Z</time>
      </trkpt>
      <trkpt lat="45.05832" lon="2.45755">
        <ele>867.1</ele>
        <time>2026-08-21T09:14:27.733Z</time>
      </trkpt>
      <trkpt lat="45.05833" lon="2.45752">
        <ele>867.15</ele>
        <time>2026-08-21T09:14:28.735Z</time>
      </trkpt>
      <trkpt lat="45.05834" lon="2.45747">
        <ele>867.21</ele>
        <time>2026-08-21T09:14:29.734Z</time>
      </trkpt>
      <trkpt lat="45.05835" lon="2.45743">
        <ele>867.25</ele>
        <time>2026-08-21T09:14:30.736Z</time>
      </trkpt>
      <trkpt lat="45.05837" lon="2.45739">
        <ele>867.28</ele>
        <time>2026-08-21T09:14:31.738Z</time>
      </trkpt>
      <trkpt lat="45.05838" lon="2.45736">
        <ele>867.33</ele>
        <time>2026-08-21T09:14:32.737Z</time>
      </trkpt>
      <trkpt lat="45.0584" lon="2.45731">
        <ele>867.38</ele>
        <time>2026-08-21T09:14:33.269Z</time>
      </trkpt>
      <trkpt lat="45.05841" lon="2.45728">
        <ele>867.44</ele>
        <time>2026-08-21T09:14:34.293Z</time>
      </trkpt>
      <trkpt lat="45.05843" lon="2.45723">
        <ele>867.48</ele>
        <time>2026-08-21T09:14:35.373Z</time>
      </trkpt>
      <trkpt lat="45.05844" lon="2.4572">
        <ele>867.51</ele>
        <time>2026-08-21T09:14:36.704Z</time>
      </trkpt>
      <trkpt lat="45.05845" lon="2.45716">
        <ele>867.57</ele>
        <time>2026-08-21T09:14:37.411Z</time>
      </trkpt>
      <trkpt lat="45.05847" lon="2.45712">
        <ele>867.61</ele>
        <time>2026-08-21T09:14:38.745Z</time>
      </trkpt>
      <trkpt lat="45.05848" lon="2.45709">
        <ele>867.66</ele>
        <time>2026-08-21T09:14:39.745Z</time>
      </trkpt>
      <trkpt lat="45.0585" lon="2.45706">
        <ele>867.69</ele>
        <time>2026-08-21T09:14:40.748Z</time>
      </trkpt>
      <trkpt lat="45.05851" lon="2.45703">
        <ele>867.69</ele>
        <time>2026-08-21T09:14:41.315Z</time>
      </trkpt>
      <trkpt lat="45.05853" lon="2.457">
        <ele>867.73</ele>
        <time>2026-08-21T09:14:42.342Z</time>
      </trkpt>
      <trkpt lat="45.05854" lon="2.45697">
        <ele>867.76</ele>
        <time>2026-08-21T09:14:43.439Z</time>
      </trkpt>
      <trkpt lat="45.05856" lon="2.45694">
        <ele>867.82</ele>
        <time>2026-08-21T09:14:44.751Z</time>
      </trkpt>
      <trkpt lat="45.05858" lon="2.45691">
        <ele>867.84</ele>
        <time>2026-08-21T09:14:45.753Z</time>
      </trkpt>
      <trkpt lat="45.05861" lon="2.45687">
        <ele>867.87</ele>
        <time>2026-08-21T09:14:46.754Z</time>
      </trkpt>
      <trkpt lat="45.05862" lon="2.45684">
        <ele>867.91</ele>
        <time>2026-08-21T09:14:47.754Z</time>
      </trkpt>
      <trkpt lat="45.05864" lon="2.45681">
        <ele>867.96</ele>
        <time>2026-08-21T09:14:48.756Z</time>
      </trkpt>
      <trkpt lat="45.05866" lon="2.45678">
        <ele>867.99</ele>
        <time>2026-08-21T09:14:49.756Z</time>
      </trkpt>
      <trkpt lat="45.05867" lon="2.45675">
        <ele>868.01</ele>
        <time>2026-08-21T09:14:50.757Z</time>
      </trkpt>
      <trkpt lat="45.05869" lon="2.45672">
        <ele>868.04</ele>
        <time>2026-08-21T09:14:51.534Z</time>
      </trkpt>
      <trkpt lat="45.0587" lon="2.45668">
        <ele>868.07</ele>
        <time>2026-08-21T09:14:52.761Z</time>
      </trkpt>
      <trkpt lat="45.05872" lon="2.45663">
        <ele>868.12</ele>
        <time>2026-08-21T09:14:53.762Z</time>
      </trkpt>
      <trkpt lat="45.05874" lon="2.45659">
        <ele>868.17</ele>
        <time>2026-08-21T09:14:54.764Z</time>
      </trkpt>
      <trkpt lat="45.05875" lon="2.45654">
        <ele>868.21</ele>
        <time>2026-08-21T09:14:55.259Z</time>
      </trkpt>
      <trkpt lat="45.05876" lon="2.4565">
        <ele>868.23</ele>
        <time>2026-08-21T09:14:56.767Z</time>
      </trkpt>
      <trkpt lat="45.05877" lon="2.45645">
        <ele>868.28</ele>
        <time>2026-08-21T09:14:57.419Z</time>
      </trkpt>
      <trkpt lat="45.05878" lon="2.45641">
        <ele>868.31</ele>
        <time>2026-08-21T09:14:58.696Z</time>
      </trkpt>
      <trkpt lat="45.05878" lon="2.45637">
        <ele>868.36</ele>
        <time>2026-08-21T09:14:59.771Z</time>
      </trkpt>
      <trkpt lat="45.05879" lon="2.45633">
        <ele>868.41</ele>
        <time>2026-08-21T09:15:00.456Z</time>
      </trkpt>
      <trkpt lat="45.05879" lon="2.45629">
        <ele>868.46</ele>
        <time>2026-08-21T09:15:01.703Z</time>
      </trkpt>
      <trkpt lat="45.0588" lon="2.45624">
        <ele>868.5</ele>
        <time>2026-08-21T09:15:02.775Z</time>
      </trkpt>
      <trkpt lat="45.0588" lon="2.45619">
        <ele>868.55</ele>
        <time>2026-08-21T09:15:03.775Z</time>
      </trkpt>
      <trkpt lat="45.05879" lon="2.45615">
        <ele>868.58</ele>
        <time>2026-08-21T09:15:04.702Z</time>
      </trkpt>
      <trkpt lat="45.05878" lon="2.45609">
        <ele>868.62</ele>
        <time>2026-08-21T09:15:05.779Z</time>
      </trkpt>
      <trkpt lat="45.05877" lon="2.45603">
        <ele>868.61</ele>
        <time>2026-08-21T09:15:06.779Z</time>
      </trkpt>
      <trkpt lat="45.05876" lon="2.45598">
        <ele>868.61</ele>
        <time>2026-08-21T09:15:07.780Z</time>
      </trkpt>
      <trkpt lat="45.05875" lon="2.45593">
        <ele>868.67</ele>
        <time>2026-08-21T09:15:08.781Z</time>
      </trkpt>
      <trkpt lat="45.05874" lon="2.45587">
        <ele>868.69</ele>
        <time>2026-08-21T09:15:09.781Z</time>
      </trkpt>
      <trkpt lat="45.05874" lon="2.45581">
        <ele>868.72</ele>
        <time>2026-08-21T09:15:10.500Z</time>
      </trkpt>
      <trkpt lat="45.05873" lon="2.45573">
        <ele>868.72</ele>
        <time>2026-08-21T09:15:11.783Z</time>
      </trkpt>
      <trkpt lat="45.05873" lon="2.45565">
        <ele>868.78</ele>
        <time>2026-08-21T09:15:12.785Z</time>
      </trkpt>
      <trkpt lat="45.05873" lon="2.45557">
        <ele>868.79</ele>
        <time>2026-08-21T09:15:13.786Z</time>
      </trkpt>
      <trkpt lat="45.05873" lon="2.45548">
        <ele>868.96</ele>
        <time>2026-08-21T09:15:14.786Z</time>
      </trkpt>
      <trkpt lat="45.05872" lon="2.4554">
        <ele>869</ele>
        <time>2026-08-21T09:15:15.788Z</time>
      </trkpt>
      <trkpt lat="45.05871" lon="2.45533">
        <ele>868.99</ele>
        <time>2026-08-21T09:15:16.790Z</time>
      </trkpt>
      <trkpt lat="45.0587" lon="2.45525">
        <ele>869.04</ele>
        <time>2026-08-21T09:15:17.790Z</time>
      </trkpt>
      <trkpt lat="45.05868" lon="2.45518">
        <ele>868.93</ele>
        <time>2026-08-21T09:15:18.791Z</time>
      </trkpt>
      <trkpt lat="45.05867" lon="2.4551">
        <ele>868.91</ele>
        <time>2026-08-21T09:15:19.792Z</time>
      </trkpt>
      <trkpt lat="45.05865" lon="2.45502">
        <ele>868.89</ele>
        <time>2026-08-21T09:15:20.792Z</time>
      </trkpt>
      <trkpt lat="45.05863" lon="2.45493">
        <ele>868.85</ele>
        <time>2026-08-21T09:15:21.794Z</time>
      </trkpt>
      <trkpt lat="45.05862" lon="2.45484">
        <ele>868.77</ele>
        <time>2026-08-21T09:15:22.795Z</time>
      </trkpt>
      <trkpt lat="45.05863" lon="2.45473">
        <ele>868.74</ele>
        <time>2026-08-21T09:15:23.796Z</time>
      </trkpt>
      <trkpt lat="45.05864" lon="2.45464">
        <ele>868.72</ele>
        <time>2026-08-21T09:15:24.796Z</time>
      </trkpt>
      <trkpt lat="45.05865" lon="2.45454">
        <ele>868.64</ele>
        <time>2026-08-21T09:15:25.799Z</time>
      </trkpt>
      <trkpt lat="45.05866" lon="2.45444">
        <ele>868.66</ele>
        <time>2026-08-21T09:15:26.799Z</time>
      </trkpt>
      <trkpt lat="45.05867" lon="2.45434">
        <ele>868.62</ele>
        <time>2026-08-21T09:15:27.800Z</time>
      </trkpt>
      <trkpt lat="45.05868" lon="2.45424">
        <ele>868.55</ele>
        <time>2026-08-21T09:15:28.801Z</time>
      </trkpt>
      <trkpt lat="45.0587" lon="2.45412">
        <ele>868.52</ele>
        <time>2026-08-21T09:15:29.803Z</time>
      </trkpt>
      <trkpt lat="45.05872" lon="2.45401">
        <ele>868.41</ele>
        <time>2026-08-21T09:15:30.803Z</time>
      </trkpt>
      <trkpt lat="45.05873" lon="2.4539">
        <ele>868.22</ele>
        <time>2026-08-21T09:15:31.805Z</time>
      </trkpt>
      <trkpt lat="45.05875" lon="2.45379">
        <ele>868.21</ele>
        <time>2026-08-21T09:15:32.352Z</time>
      </trkpt>
      <trkpt lat="45.05876" lon="2.45367">
        <ele>868.07</ele>
        <time>2026-08-21T09:15:33.335Z</time>
      </trkpt>
      <trkpt lat="45.05877" lon="2.45356">
        <ele>867.98</ele>
        <time>2026-08-21T09:15:34.797Z</time>
      </trkpt>
      <trkpt lat="45.05879" lon="2.45345">
        <ele>867.87</ele>
        <time>2026-08-21T09:15:35.340Z</time>
      </trkpt>
      <trkpt lat="45.05881" lon="2.45335">
        <ele>867.69</ele>
        <time>2026-08-21T09:15:36.305Z</time>
      </trkpt>
      <trkpt lat="45.05883" lon="2.45324">
        <ele>867.55</ele>
        <time>2026-08-21T09:15:37.809Z</time>
      </trkpt>
      <trkpt lat="45.05885" lon="2.45315">
        <ele>867.35</ele>
        <time>2026-08-21T09:15:38.809Z</time>
      </trkpt>
      <trkpt lat="45.05887" lon="2.45307">
        <ele>867.36</ele>
        <time>2026-08-21T09:15:39.809Z</time>
      </trkpt>
      <trkpt lat="45.05889" lon="2.45295">
        <ele>867.17</ele>
        <time>2026-08-21T09:15:40.811Z</time>
      </trkpt>
      <trkpt lat="45.05891" lon="2.45287">
        <ele>866.67</ele>
        <time>2026-08-21T09:15:41.811Z</time>
      </trkpt>
      <trkpt lat="45.05892" lon="2.45279">
        <ele>866.52</ele>
        <time>2026-08-21T09:15:42.811Z</time>
      </trkpt>
      <trkpt lat="45.05893" lon="2.45271">
        <ele>866.38</ele>
        <time>2026-08-21T09:15:43.698Z</time>
      </trkpt>
      <trkpt lat="45.05893" lon="2.45264">
        <ele>866.17</ele>
        <time>2026-08-21T09:15:43.834Z</time>
      </trkpt>
      <trkpt lat="45.05894" lon="2.45259">
        <ele>865.98</ele>
        <time>2026-08-21T09:15:45.814Z</time>
      </trkpt>
      <trkpt lat="45.05894" lon="2.45253">
        <ele>865.66</ele>
        <time>2026-08-21T09:15:46.681Z</time>
      </trkpt>
      <trkpt lat="45.05895" lon="2.45247">
        <ele>865.23</ele>
        <time>2026-08-21T09:15:47.813Z</time>
      </trkpt>
      <trkpt lat="45.05895" lon="2.45242">
        <ele>865.03</ele>
        <time>2026-08-21T09:15:47.857Z</time>
      </trkpt>
      <trkpt lat="45.05895" lon="2.45236">
        <ele>864.57</ele>
        <time>2026-08-21T09:15:49.816Z</time>
      </trkpt>
      <trkpt lat="45.05895" lon="2.4523">
        <ele>864.4</ele>
        <time>2026-08-21T09:15:50.817Z</time>
      </trkpt>
      <trkpt lat="45.05895" lon="2.45224">
        <ele>864.18</ele>
        <time>2026-08-21T09:15:51.816Z</time>
      </trkpt>
      <trkpt lat="45.05896" lon="2.45219">
        <ele>864.07</ele>
        <time>2026-08-21T09:15:52.589Z</time>
      </trkpt>
      <trkpt lat="45.05897" lon="2.45215">
        <ele>863.93</ele>
        <time>2026-08-21T09:15:52.890Z</time>
      </trkpt>
      <trkpt lat="45.05899" lon="2.45211">
        <ele>863.85</ele>
        <time>2026-08-21T09:15:54.596Z</time>
      </trkpt>
      <trkpt lat="45.05901" lon="2.45208">
        <ele>863.81</ele>
        <time>2026-08-21T09:15:54.918Z</time>
      </trkpt>
      <trkpt lat="45.05903" lon="2.45205">
        <ele>863.76</ele>
        <time>2026-08-21T09:15:55.893Z</time>
      </trkpt>
      <trkpt lat="45.05906" lon="2.45202">
        <ele>863.73</ele>
        <time>2026-08-21T09:15:57.823Z</time>
      </trkpt>
      <trkpt lat="45.05907" lon="2.45199">
        <ele>863.71</ele>
        <time>2026-08-21T09:15:58.825Z</time>
      </trkpt>
      <trkpt lat="45.0591" lon="2.45196">
        <ele>863.71</ele>
        <time>2026-08-21T09:15:59.824Z</time>
      </trkpt>
      <trkpt lat="45.05912" lon="2.45193">
        <ele>863.76</ele>
        <time>2026-08-21T09:16:00.826Z</time>
      </trkpt>
      <trkpt lat="45.05915" lon="2.4519">
        <ele>863.77</ele>
        <time>2026-08-21T09:16:01.809Z</time>
      </trkpt>
      <trkpt lat="45.05917" lon="2.45188">
        <ele>863.78</ele>
        <time>2026-08-21T09:16:02.639Z</time>
      </trkpt>
      <trkpt lat="45.05919" lon="2.45184">
        <ele>863.81</ele>
        <time>2026-08-21T09:16:03.829Z</time>
      </trkpt>
      <trkpt lat="45.05921" lon="2.45182">
        <ele>863.87</ele>
        <time>2026-08-21T09:16:04.799Z</time>
      </trkpt>
      <trkpt lat="45.05923" lon="2.45179">
        <ele>863.89</ele>
        <time>2026-08-21T09:16:04.895Z</time>
      </trkpt>
      <trkpt lat="45.05925" lon="2.45175">
        <ele>863.95</ele>
        <time>2026-08-21T09:16:06.481Z</time>
      </trkpt>
      <trkpt lat="45.05927" lon="2.45172">
        <ele>863.99</ele>
        <time>2026-08-21T09:16:07.833Z</time>
      </trkpt>
      <trkpt lat="45.05928" lon="2.45169">
        <ele>864.04</ele>
        <time>2026-08-21T09:16:08.833Z</time>
      </trkpt>
      <trkpt lat="45.0593" lon="2.45166">
        <ele>864.09</ele>
        <time>2026-08-21T09:16:08.912Z</time>
      </trkpt>
      <trkpt lat="45.05932" lon="2.45162">
        <ele>864.14</ele>
        <time>2026-08-21T09:16:10.591Z</time>
      </trkpt>
      <trkpt lat="45.05933" lon="2.45159">
        <ele>864.2</ele>
        <time>2026-08-21T09:16:10.922Z</time>
      </trkpt>
      <trkpt lat="45.05935" lon="2.45155">
        <ele>864.24</ele>
        <time>2026-08-21T09:16:12.836Z</time>
      </trkpt>
      <trkpt lat="45.05936" lon="2.45152">
        <ele>864.22</ele>
        <time>2026-08-21T09:16:13.837Z</time>
      </trkpt>
      <trkpt lat="45.05938" lon="2.4515">
        <ele>864.27</ele>
        <time>2026-08-21T09:16:13.894Z</time>
      </trkpt>
      <trkpt lat="45.05939" lon="2.45147">
        <ele>864.32</ele>
        <time>2026-08-21T09:16:15.715Z</time>
      </trkpt>
      <trkpt lat="45.0594" lon="2.45144">
        <ele>864.36</ele>
        <time>2026-08-21T09:16:16.839Z</time>
      </trkpt>
      <trkpt lat="45.05942" lon="2.4514">
        <ele>864.41</ele>
        <time>2026-08-21T09:16:17.842Z</time>
      </trkpt>
      <trkpt lat="45.05943" lon="2.45136">
        <ele>864.46</ele>
        <time>2026-08-21T09:16:18.568Z</time>
      </trkpt>
      <trkpt lat="45.05944" lon="2.45132">
        <ele>864.53</ele>
        <time>2026-08-21T09:16:19.846Z</time>
      </trkpt>
      <trkpt lat="45.05945" lon="2.45128">
        <ele>864.57</ele>
        <time>2026-08-21T09:16:19.937Z</time>
      </trkpt>
      <trkpt lat="45.05946" lon="2.45125">
        <ele>864.61</ele>
        <time>2026-08-21T09:16:21.847Z</time>
      </trkpt>
      <trkpt lat="45.05946" lon="2.45121">
        <ele>864.65</ele>
        <time>2026-08-21T09:16:22.623Z</time>
      </trkpt>
      <trkpt lat="45.05947" lon="2.45117">
        <ele>864.68</ele>
        <time>2026-08-21T09:16:23.641Z</time>
      </trkpt>
      <trkpt lat="45.05947" lon="2.45114">
        <ele>864.72</ele>
        <time>2026-08-21T09:16:23.918Z</time>
      </trkpt>
      <trkpt lat="45.05947" lon="2.4511">
        <ele>864.74</ele>
        <time>2026-08-21T09:16:25.708Z</time>
      </trkpt>
      <trkpt lat="45.05948" lon="2.45107">
        <ele>864.77</ele>
        <time>2026-08-21T09:16:25.890Z</time>
      </trkpt>
      <trkpt lat="45.05948" lon="2.45103">
        <ele>864.79</ele>
        <time>2026-08-21T09:16:27.755Z</time>
      </trkpt>
      <trkpt lat="45.05948" lon="2.45099">
        <ele>864.82</ele>
        <time>2026-08-21T09:16:28.856Z</time>
      </trkpt>
      <trkpt lat="45.05948" lon="2.45095">
        <ele>864.85</ele>
        <time>2026-08-21T09:16:29.690Z</time>
      </trkpt>
      <trkpt lat="45.05948" lon="2.45091">
        <ele>864.88</ele>
        <time>2026-08-21T09:16:30.858Z</time>
      </trkpt>
      <trkpt lat="45.05949" lon="2.45088">
        <ele>864.91</ele>
        <time>2026-08-21T09:16:30.953Z</time>
      </trkpt>
      <trkpt lat="45.05949" lon="2.45084">
        <ele>864.95</ele>
        <time>2026-08-21T09:16:32.435Z</time>
      </trkpt>
      <trkpt lat="45.0595" lon="2.4508">
        <ele>864.97</ele>
        <time>2026-08-21T09:16:33.861Z</time>
      </trkpt>
      <trkpt lat="45.05951" lon="2.45076">
        <ele>865.01</ele>
        <time>2026-08-21T09:16:34.625Z</time>
      </trkpt>
      <trkpt lat="45.05951" lon="2.45072">
        <ele>865.05</ele>
        <time>2026-08-21T09:16:35.763Z</time>
      </trkpt>
      <trkpt lat="45.05952" lon="2.45068">
        <ele>865.07</ele>
        <time>2026-08-21T09:16:36.765Z</time>
      </trkpt>
      <trkpt lat="45.05952" lon="2.45064">
        <ele>865.1</ele>
        <time>2026-08-21T09:16:37.766Z</time>
      </trkpt>
      <trkpt lat="45.05953" lon="2.4506">
        <ele>865.12</ele>
        <time>2026-08-21T09:16:38.867Z</time>
      </trkpt>
      <trkpt lat="45.05953" lon="2.45056">
        <ele>865.16</ele>
        <time>2026-08-21T09:16:39.768Z</time>
      </trkpt>
      <trkpt lat="45.05953" lon="2.45053">
        <ele>865.2</ele>
        <time>2026-08-21T09:16:40.870Z</time>
      </trkpt>
      <trkpt lat="45.05954" lon="2.45049">
        <ele>865.24</ele>
        <time>2026-08-21T09:16:41.870Z</time>
      </trkpt>
      <trkpt lat="45.05954" lon="2.45045">
        <ele>865.27</ele>
        <time>2026-08-21T09:16:41.925Z</time>
      </trkpt>
      <trkpt lat="45.05954" lon="2.45042">
        <ele>865.31</ele>
        <time>2026-08-21T09:16:43.873Z</time>
      </trkpt>
      <trkpt lat="45.05954" lon="2.45039">
        <ele>865.35</ele>
        <time>2026-08-21T09:16:43.933Z</time>
      </trkpt>
      <trkpt lat="45.05955" lon="2.45036">
        <ele>865.39</ele>
        <time>2026-08-21T09:16:45.874Z</time>
      </trkpt>
      <trkpt lat="45.05955" lon="2.45034">
        <ele>865.44</ele>
        <time>2026-08-21T09:16:46.776Z</time>
      </trkpt>
      <trkpt lat="45.05956" lon="2.45031">
        <ele>865.48</ele>
        <time>2026-08-21T09:16:47.877Z</time>
      </trkpt>
      <trkpt lat="45.05957" lon="2.45028">
        <ele>865.52</ele>
        <time>2026-08-21T09:16:48.877Z</time>
      </trkpt>
      <trkpt lat="45.05957" lon="2.45024">
        <ele>865.57</ele>
        <time>2026-08-21T09:16:49.651Z</time>
      </trkpt>
      <trkpt lat="45.05958" lon="2.45021">
        <ele>865.61</ele>
        <time>2026-08-21T09:16:50.397Z</time>
      </trkpt>
      <trkpt lat="45.05958" lon="2.45017">
        <ele>865.65</ele>
        <time>2026-08-21T09:16:51.700Z</time>
      </trkpt>
      <trkpt lat="45.05959" lon="2.45014">
        <ele>865.7</ele>
        <time>2026-08-21T09:16:51.939Z</time>
      </trkpt>
      <trkpt lat="45.0596" lon="2.45009">
        <ele>865.74</ele>
        <time>2026-08-21T09:16:53.781Z</time>
      </trkpt>
      <trkpt lat="45.05961" lon="2.45005">
        <ele>865.78</ele>
        <time>2026-08-21T09:16:54.881Z</time>
      </trkpt>
      <trkpt lat="45.05962" lon="2.45001">
        <ele>865.82</ele>
        <time>2026-08-21T09:16:55.626Z</time>
      </trkpt>
      <trkpt lat="45.05962" lon="2.44997">
        <ele>865.85</ele>
        <time>2026-08-21T09:16:55.920Z</time>
      </trkpt>
      <trkpt lat="45.05963" lon="2.44993">
        <ele>865.88</ele>
        <time>2026-08-21T09:16:57.884Z</time>
      </trkpt>
      <trkpt lat="45.05964" lon="2.4499">
        <ele>865.91</ele>
        <time>2026-08-21T09:16:58.691Z</time>
      </trkpt>
      <trkpt lat="45.05965" lon="2.44985">
        <ele>865.93</ele>
        <time>2026-08-21T09:16:59.440Z</time>
      </trkpt>
      <trkpt lat="45.05965" lon="2.44981">
        <ele>865.95</ele>
        <time>2026-08-21T09:17:00.427Z</time>
      </trkpt>
      <trkpt lat="45.05967" lon="2.44977">
        <ele>865.97</ele>
        <time>2026-08-21T09:17:01.503Z</time>
      </trkpt>
      <trkpt lat="45.05967" lon="2.44973">
        <ele>865.99</ele>
        <time>2026-08-21T09:17:01.977Z</time>
      </trkpt>
      <trkpt lat="45.05968" lon="2.44969">
        <ele>866.02</ele>
        <time>2026-08-21T09:17:02.921Z</time>
      </trkpt>
      <trkpt lat="45.0597" lon="2.44964">
        <ele>866.05</ele>
        <time>2026-08-21T09:17:04.885Z</time>
      </trkpt>
      <trkpt lat="45.05971" lon="2.4496">
        <ele>866.08</ele>
        <time>2026-08-21T09:17:05.885Z</time>
      </trkpt>
      <trkpt lat="45.05972" lon="2.44956">
        <ele>866.12</ele>
        <time>2026-08-21T09:17:06.451Z</time>
      </trkpt>
      <trkpt lat="45.05973" lon="2.4495">
        <ele>866.12</ele>
        <time>2026-08-21T09:17:07.501Z</time>
      </trkpt>
      <trkpt lat="45.05974" lon="2.44944">
        <ele>866.16</ele>
        <time>2026-08-21T09:17:08.521Z</time>
      </trkpt>
      <trkpt lat="45.05976" lon="2.44939">
        <ele>866.18</ele>
        <time>2026-08-21T09:17:09.511Z</time>
      </trkpt>
      <trkpt lat="45.05977" lon="2.44933">
        <ele>866.25</ele>
        <time>2026-08-21T09:17:10.502Z</time>
      </trkpt>
      <trkpt lat="45.05977" lon="2.44927">
        <ele>866.24</ele>
        <time>2026-08-21T09:17:11.520Z</time>
      </trkpt>
      <trkpt lat="45.05978" lon="2.44921">
        <ele>866.25</ele>
        <time>2026-08-21T09:17:12.511Z</time>
      </trkpt>
      <trkpt lat="45.05978" lon="2.44915">
        <ele>866.24</ele>
        <time>2026-08-21T09:17:13.500Z</time>
      </trkpt>
      <trkpt lat="45.05978" lon="2.44908">
        <ele>866.23</ele>
        <time>2026-08-21T09:17:14.517Z</time>
      </trkpt>
      <trkpt lat="45.05979" lon="2.44901">
        <ele>866.23</ele>
        <time>2026-08-21T09:17:15.513Z</time>
      </trkpt>
      <trkpt lat="45.05979" lon="2.44893">
        <ele>866.08</ele>
        <time>2026-08-21T09:17:16.505Z</time>
      </trkpt>
      <trkpt lat="45.05978" lon="2.44886">
        <ele>866.07</ele>
        <time>2026-08-21T09:17:17.517Z</time>
      </trkpt>
      <trkpt lat="45.05977" lon="2.44879">
        <ele>866.04</ele>
        <time>2026-08-21T09:17:18.513Z</time>
      </trkpt>
      <trkpt lat="45.05975" lon="2.44871">
        <ele>866.01</ele>
        <time>2026-08-21T09:17:19.503Z</time>
      </trkpt>
      <trkpt lat="45.05974" lon="2.44862">
        <ele>866.06</ele>
        <time>2026-08-21T09:17:20.519Z</time>
      </trkpt>
      <trkpt lat="45.05975" lon="2.44853">
        <ele>866.11</ele>
        <time>2026-08-21T09:17:21.513Z</time>
      </trkpt>
      <trkpt lat="45.05976" lon="2.44845">
        <ele>866.13</ele>
        <time>2026-08-21T09:17:22.409Z</time>
      </trkpt>
      <trkpt lat="45.05978" lon="2.44836">
        <ele>866.11</ele>
        <time>2026-08-21T09:17:23.433Z</time>
      </trkpt>
      <trkpt lat="45.0598" lon="2.44827">
        <ele>866.07</ele>
        <time>2026-08-21T09:17:23.925Z</time>
      </trkpt>
      <trkpt lat="45.05981" lon="2.44818">
        <ele>866.03</ele>
        <time>2026-08-21T09:17:25.409Z</time>
      </trkpt>
      <trkpt lat="45.05982" lon="2.44808">
        <ele>865.98</ele>
        <time>2026-08-21T09:17:26.429Z</time>
      </trkpt>
      <trkpt lat="45.05983" lon="2.44797">
        <ele>865.95</ele>
        <time>2026-08-21T09:17:27.419Z</time>
      </trkpt>
      <trkpt lat="45.05984" lon="2.44787">
        <ele>865.94</ele>
        <time>2026-08-21T09:17:28.410Z</time>
      </trkpt>
      <trkpt lat="45.05985" lon="2.44775">
        <ele>865.88</ele>
        <time>2026-08-21T09:17:29.429Z</time>
      </trkpt>
      <trkpt lat="45.05985" lon="2.44763">
        <ele>865.78</ele>
        <time>2026-08-21T09:17:30.420Z</time>
      </trkpt>
      <trkpt lat="45.05986" lon="2.44752">
        <ele>865.68</ele>
        <time>2026-08-21T09:17:31.409Z</time>
      </trkpt>
      <trkpt lat="45.05987" lon="2.44739">
        <ele>865.62</ele>
        <time>2026-08-21T09:17:32.429Z</time>
      </trkpt>
      <trkpt lat="45.05987" lon="2.44729">
        <ele>865.56</ele>
        <time>2026-08-21T09:17:33.421Z</time>
      </trkpt>
      <trkpt lat="45.05988" lon="2.44715">
        <ele>865.47</ele>
        <time>2026-08-21T09:17:34.437Z</time>
      </trkpt>
      <trkpt lat="45.05988" lon="2.44702">
        <ele>865.25</ele>
        <time>2026-08-21T09:17:35.429Z</time>
      </trkpt>
      <trkpt lat="45.05989" lon="2.44689">
        <ele>865.11</ele>
        <time>2026-08-21T09:17:36.422Z</time>
      </trkpt>
      <trkpt lat="45.05991" lon="2.44676">
        <ele>864.95</ele>
        <time>2026-08-21T09:17:37.925Z</time>
      </trkpt>
      <trkpt lat="45.05993" lon="2.44663">
        <ele>864.76</ele>
        <time>2026-08-21T09:17:38.881Z</time>
      </trkpt>
      <trkpt lat="45.05995" lon="2.4465">
        <ele>864.56</ele>
        <time>2026-08-21T09:17:39.883Z</time>
      </trkpt>
      <trkpt lat="45.05998" lon="2.44637">
        <ele>864.15</ele>
        <time>2026-08-21T09:17:40.924Z</time>
      </trkpt>
      <trkpt lat="45.06001" lon="2.44626">
        <ele>864.14</ele>
        <time>2026-08-21T09:17:41.885Z</time>
      </trkpt>
      <trkpt lat="45.06006" lon="2.44609">
        <ele>863.76</ele>
        <time>2026-08-21T09:17:42.887Z</time>
      </trkpt>
      <trkpt lat="45.0601" lon="2.44596">
        <ele>863.23</ele>
        <time>2026-08-21T09:17:43.888Z</time>
      </trkpt>
      <trkpt lat="45.06016" lon="2.44584">
        <ele>862.68</ele>
        <time>2026-08-21T09:17:44.888Z</time>
      </trkpt>
      <trkpt lat="45.06022" lon="2.44572">
        <ele>862.17</ele>
        <time>2026-08-21T09:17:45.889Z</time>
      </trkpt>
      <trkpt lat="45.06027" lon="2.44561">
        <ele>861.54</ele>
        <time>2026-08-21T09:17:46.892Z</time>
      </trkpt>
      <trkpt lat="45.06033" lon="2.4455">
        <ele>860.99</ele>
        <time>2026-08-21T09:17:47.912Z</time>
      </trkpt>
      <trkpt lat="45.06039" lon="2.44539">
        <ele>860.31</ele>
        <time>2026-08-21T09:17:48.890Z</time>
      </trkpt>
      <trkpt lat="45.06046" lon="2.44527">
        <ele>859.82</ele>
        <time>2026-08-21T09:17:49.895Z</time>
      </trkpt>
      <trkpt lat="45.06052" lon="2.44516">
        <ele>859.13</ele>
        <time>2026-08-21T09:17:50.893Z</time>
      </trkpt>
      <trkpt lat="45.06057" lon="2.44505">
        <ele>858.18</ele>
        <time>2026-08-21T09:17:51.896Z</time>
      </trkpt>
      <trkpt lat="45.06064" lon="2.44494">
        <ele>858.06</ele>
        <time>2026-08-21T09:17:52.897Z</time>
      </trkpt>
      <trkpt lat="45.0607" lon="2.44482">
        <ele>856.69</ele>
        <time>2026-08-21T09:17:53.898Z</time>
      </trkpt>
      <trkpt lat="45.06075" lon="2.44471">
        <ele>855.05</ele>
        <time>2026-08-21T09:17:54.899Z</time>
      </trkpt>
      <trkpt lat="45.06078" lon="2.44458">
        <ele>854.04</ele>
        <time>2026-08-21T09:17:55.901Z</time>
      </trkpt>
      <trkpt lat="45.06081" lon="2.44448">
        <ele>853.04</ele>
        <time>2026-08-21T09:17:56.901Z</time>
      </trkpt>
      <trkpt lat="45.06085" lon="2.44431">
        <ele>852.01</ele>
        <time>2026-08-21T09:17:57.903Z</time>
      </trkpt>
      <trkpt lat="45.06089" lon="2.44418">
        <ele>850.93</ele>
        <time>2026-08-21T09:17:58.905Z</time>
      </trkpt>
      <trkpt lat="45.0609" lon="2.4441">
        <ele>849.67</ele>
        <time>2026-08-21T09:17:59.905Z</time>
      </trkpt>
      <trkpt lat="45.06093" lon="2.44391">
        <ele>848.29</ele>
        <time>2026-08-21T09:18:00.908Z</time>
      </trkpt>
      <trkpt lat="45.06093" lon="2.44377">
        <ele>847.23</ele>
        <time>2026-08-21T09:18:01.907Z</time>
      </trkpt>
      <trkpt lat="45.06094" lon="2.4437">
        <ele>846.39</ele>
        <time>2026-08-21T09:18:02.908Z</time>
      </trkpt>
      <trkpt lat="45.06099" lon="2.44352">
        <ele>844.62</ele>
        <time>2026-08-21T09:18:03.909Z</time>
      </trkpt>
      <trkpt lat="45.06104" lon="2.44342">
        <ele>843.5</ele>
        <time>2026-08-21T09:18:04.910Z</time>
      </trkpt>
      <trkpt lat="45.06109" lon="2.44333">
        <ele>842.41</ele>
        <time>2026-08-21T09:18:05.912Z</time>
      </trkpt>
      <trkpt lat="45.06113" lon="2.44324">
        <ele>841.16</ele>
        <time>2026-08-21T09:18:06.912Z</time>
      </trkpt>
      <trkpt lat="45.06117" lon="2.44316">
        <ele>840.14</ele>
        <time>2026-08-21T09:18:07.917Z</time>
      </trkpt>
      <trkpt lat="45.06122" lon="2.44307">
        <ele>839</ele>
        <time>2026-08-21T09:18:08.915Z</time>
      </trkpt>
      <trkpt lat="45.06126" lon="2.44298">
        <ele>837.92</ele>
        <time>2026-08-21T09:18:09.915Z</time>
      </trkpt>
      <trkpt lat="45.06131" lon="2.44288">
        <ele>835.98</ele>
        <time>2026-08-21T09:18:10.919Z</time>
      </trkpt>
      <trkpt lat="45.06135" lon="2.44278">
        <ele>834.69</ele>
        <time>2026-08-21T09:18:11.918Z</time>
      </trkpt>
      <trkpt lat="45.0614" lon="2.44268">
        <ele>833.74</ele>
        <time>2026-08-21T09:18:12.919Z</time>
      </trkpt>
      <trkpt lat="45.06145" lon="2.44258">
        <ele>831.97</ele>
        <time>2026-08-21T09:18:13.921Z</time>
      </trkpt>
      <trkpt lat="45.0615" lon="2.44248">
        <ele>830.37</ele>
        <time>2026-08-21T09:18:14.921Z</time>
      </trkpt>
      <trkpt lat="45.06156" lon="2.44239">
        <ele>828.9</ele>
        <time>2026-08-21T09:18:15.923Z</time>
      </trkpt>
      <trkpt lat="45.06157" lon="2.44237">
        <ele>827.22</ele>
        <time>2026-08-21T09:18:16.925Z</time>
      </trkpt>
      <trkpt lat="45.06164" lon="2.44223">
        <ele>827.22</ele>
        <time>2026-08-21T09:18:17.967Z</time>
      </trkpt>
      <trkpt lat="45.06167" lon="2.44215">
        <ele>824.78</ele>
        <time>2026-08-21T09:18:18.927Z</time>
      </trkpt>
      <trkpt lat="45.06167" lon="2.44208">
        <ele>822.6</ele>
        <time>2026-08-21T09:18:19.952Z</time>
      </trkpt>
      <trkpt lat="45.06168" lon="2.442">
        <ele>821.23</ele>
        <time>2026-08-21T09:18:20.930Z</time>
      </trkpt>
      <trkpt lat="45.06168" lon="2.4419">
        <ele>821.23</ele>
        <time>2026-08-21T09:18:21.931Z</time>
      </trkpt>
      <trkpt lat="45.06167" lon="2.44184">
        <ele>817.04</ele>
        <time>2026-08-21T09:18:22.931Z</time>
      </trkpt>
      <trkpt lat="45.06165" lon="2.44177">
        <ele>815.34</ele>
        <time>2026-08-21T09:18:23.935Z</time>
      </trkpt>
      <trkpt lat="45.06162" lon="2.44166">
        <ele>813.73</ele>
        <time>2026-08-21T09:18:24.934Z</time>
      </trkpt>
      <trkpt lat="45.0616" lon="2.4416">
        <ele>812.41</ele>
        <time>2026-08-21T09:18:25.936Z</time>
      </trkpt>
      <trkpt lat="45.06157" lon="2.44155">
        <ele>811.13</ele>
        <time>2026-08-21T09:18:26.937Z</time>
      </trkpt>
      <trkpt lat="45.06155" lon="2.4415">
        <ele>809.63</ele>
        <time>2026-08-21T09:18:27.938Z</time>
      </trkpt>
      <trkpt lat="45.06152" lon="2.44145">
        <ele>808.64</ele>
        <time>2026-08-21T09:18:28.939Z</time>
      </trkpt>
      <trkpt lat="45.06148" lon="2.44142">
        <ele>807.43</ele>
        <time>2026-08-21T09:18:29.940Z</time>
      </trkpt>
      <trkpt lat="45.06146" lon="2.44141">
        <ele>806.09</ele>
        <time>2026-08-21T09:18:30.939Z</time>
      </trkpt>
      <trkpt lat="45.06142" lon="2.4414">
        <ele>806.09</ele>
        <time>2026-08-21T09:18:31.941Z</time>
      </trkpt>
      <trkpt lat="45.06139" lon="2.4414">
        <ele>806.09</ele>
        <time>2026-08-21T09:18:32.940Z</time>
      </trkpt>
      <trkpt lat="45.06136" lon="2.4414">
        <ele>806.09</ele>
        <time>2026-08-21T09:18:33.940Z</time>
      </trkpt>
      <trkpt lat="45.06131" lon="2.4414">
        <ele>806.09</ele>
        <time>2026-08-21T09:18:34.942Z</time>
      </trkpt>
      <trkpt lat="45.06125" lon="2.44139">
        <ele>806.09</ele>
        <time>2026-08-21T09:18:35.942Z</time>
      </trkpt>
      <trkpt lat="45.06121" lon="2.44138">
        <ele>797.74</ele>
        <time>2026-08-21T09:18:36.934Z</time>
      </trkpt>
      <trkpt lat="45.06119" lon="2.44136">
        <ele>796.71</ele>
        <time>2026-08-21T09:18:37.936Z</time>
      </trkpt>
      <trkpt lat="45.06118" lon="2.44133">
        <ele>796.71</ele>
        <time>2026-08-21T09:18:38.934Z</time>
      </trkpt>
      <trkpt lat="45.06118" lon="2.4413">
        <ele>796.71</ele>
        <time>2026-08-21T09:18:39.934Z</time>
      </trkpt>
      <trkpt lat="45.06118" lon="2.44128">
        <ele>796.71</ele>
        <time>2026-08-21T09:18:40.936Z</time>
      </trkpt>
      <trkpt lat="45.0612" lon="2.44126">
        <ele>796.71</ele>
        <time>2026-08-21T09:18:42.935Z</time>
      </trkpt>
      <trkpt lat="45.06121" lon="2.44124">
        <ele>796.71</ele>
        <time>2026-08-21T09:19:56.115Z</time>
      </trkpt>
      <trkpt lat="45.06121" lon="2.44123">
        <ele>796.71</ele>
        <time>2026-08-21T09:19:57.298Z</time>
      </trkpt>
      <trkpt lat="45.06123" lon="2.44121">
        <ele>796.71</ele>
        <time>2026-08-21T09:19:58.307Z</time>
      </trkpt>
      <trkpt lat="45.06128" lon="2.44118">
        <ele>796.71</ele>
        <time>2026-08-21T09:19:59.309Z</time>
      </trkpt>
      <trkpt lat="45.06133" lon="2.44115">
        <ele>796.71</ele>
        <time>2026-08-21T09:20:00.309Z</time>
      </trkpt>
      <trkpt lat="45.06138" lon="2.44111">
        <ele>796.71</ele>
        <time>2026-08-21T09:20:01.213Z</time>
      </trkpt>
      <trkpt lat="45.06144" lon="2.44108">
        <ele>796.71</ele>
        <time>2026-08-21T09:20:02.216Z</time>
      </trkpt>
      <trkpt lat="45.06149" lon="2.44104">
        <ele>796.71</ele>
        <time>2026-08-21T09:20:02.313Z</time>
      </trkpt>
      <trkpt lat="45.06152" lon="2.44103">
        <ele>796.71</ele>
        <time>2026-08-21T09:20:04.222Z</time>
      </trkpt>
      <trkpt lat="45.06154" lon="2.44102">
        <ele>796.71</ele>
        <time>2026-08-21T09:20:04.318Z</time>
      </trkpt>
      <trkpt lat="45.06156" lon="2.44102">
        <ele>796.71</ele>
        <time>2026-08-21T09:20:06.227Z</time>
      </trkpt>
      <trkpt lat="45.06158" lon="2.44102">
        <ele>779.9</ele>
        <time>2026-08-21T09:20:07.230Z</time>
      </trkpt>
      <trkpt lat="45.0616" lon="2.44101">
        <ele>779.7</ele>
        <time>2026-08-21T09:20:08.231Z</time>
      </trkpt>
      <trkpt lat="45.06162" lon="2.44101">
        <ele>779.56</ele>
        <time>2026-08-21T09:20:09.234Z</time>
      </trkpt>
      <trkpt lat="45.06163" lon="2.44101">
        <ele>779.15</ele>
        <time>2026-08-21T09:20:10.236Z</time>
      </trkpt>
      <trkpt lat="45.06166" lon="2.441">
        <ele>778.9</ele>
        <time>2026-08-21T09:20:11.237Z</time>
      </trkpt>
      <trkpt lat="45.06168" lon="2.44099">
        <ele>778.62</ele>
        <time>2026-08-21T09:20:12.240Z</time>
      </trkpt>
      <trkpt lat="45.0617" lon="2.44097">
        <ele>778.3</ele>
        <time>2026-08-21T09:20:13.241Z</time>
      </trkpt>
      <trkpt lat="45.0617" lon="2.44093">
        <ele>778.02</ele>
        <time>2026-08-21T09:20:14.244Z</time>
      </trkpt>
      <trkpt lat="45.0617" lon="2.4409">
        <ele>777.79</ele>
        <time>2026-08-21T09:20:15.246Z</time>
      </trkpt>
      <trkpt lat="45.06169" lon="2.44087">
        <ele>777.44</ele>
        <time>2026-08-21T09:20:16.301Z</time>
      </trkpt>
      <trkpt lat="45.06167" lon="2.44084">
        <ele>777.18</ele>
        <time>2026-08-21T09:20:17.251Z</time>
      </trkpt>
      <trkpt lat="45.06164" lon="2.44081">
        <ele>776.79</ele>
        <time>2026-08-21T09:20:18.254Z</time>
      </trkpt>
      <trkpt lat="45.06162" lon="2.44077">
        <ele>776.42</ele>
        <time>2026-08-21T09:20:19.255Z</time>
      </trkpt>
      <trkpt lat="45.06158" lon="2.44074">
        <ele>776.25</ele>
        <time>2026-08-21T09:20:19.353Z</time>
      </trkpt>
      <trkpt lat="45.06154" lon="2.44072">
        <ele>776.02</ele>
        <time>2026-08-21T09:20:21.302Z</time>
      </trkpt>
      <trkpt lat="45.06149" lon="2.44071">
        <ele>775.75</ele>
        <time>2026-08-21T09:20:22.264Z</time>
      </trkpt>
      <trkpt lat="45.06144" lon="2.44072">
        <ele>775.42</ele>
        <time>2026-08-21T09:20:23.265Z</time>
      </trkpt>
      <trkpt lat="45.06139" lon="2.44073">
        <ele>775.35</ele>
        <time>2026-08-21T09:20:24.269Z</time>
      </trkpt>
      <trkpt lat="45.06133" lon="2.44076">
        <ele>775</ele>
        <time>2026-08-21T09:20:25.270Z</time>
      </trkpt>
      <trkpt lat="45.06126" lon="2.44078">
        <ele>774.29</ele>
        <time>2026-08-21T09:20:26.274Z</time>
      </trkpt>
      <trkpt lat="45.0612" lon="2.4408">
        <ele>773.36</ele>
        <time>2026-08-21T09:20:27.268Z</time>
      </trkpt>
      <trkpt lat="45.06116" lon="2.44079">
        <ele>772.9</ele>
        <time>2026-08-21T09:20:28.272Z</time>
      </trkpt>
      <trkpt lat="45.06111" lon="2.44078">
        <ele>772.25</ele>
        <time>2026-08-21T09:20:29.277Z</time>
      </trkpt>
      <trkpt lat="45.06106" lon="2.44075">
        <ele>771.85</ele>
        <time>2026-08-21T09:20:30.276Z</time>
      </trkpt>
      <trkpt lat="45.061" lon="2.4407">
        <ele>770.92</ele>
        <time>2026-08-21T09:20:31.277Z</time>
      </trkpt>
      <trkpt lat="45.06093" lon="2.44062">
        <ele>770.04</ele>
        <time>2026-08-21T09:20:32.282Z</time>
      </trkpt>
      <trkpt lat="45.06085" lon="2.44054">
        <ele>769.34</ele>
        <time>2026-08-21T09:20:33.285Z</time>
      </trkpt>
      <trkpt lat="45.06077" lon="2.44045">
        <ele>767.92</ele>
        <time>2026-08-21T09:20:34.285Z</time>
      </trkpt>
      <trkpt lat="45.06073" lon="2.44039">
        <ele>766.88</ele>
        <time>2026-08-21T09:20:35.287Z</time>
      </trkpt>
      <trkpt lat="45.06064" lon="2.44028">
        <ele>766.2</ele>
        <time>2026-08-21T09:20:36.290Z</time>
      </trkpt>
      <trkpt lat="45.06058" lon="2.4402">
        <ele>765.29</ele>
        <time>2026-08-21T09:20:37.294Z</time>
      </trkpt>
      <trkpt lat="45.06052" lon="2.44014">
        <ele>764.35</ele>
        <time>2026-08-21T09:20:38.294Z</time>
      </trkpt>
      <trkpt lat="45.06047" lon="2.44009">
        <ele>763.38</ele>
        <time>2026-08-21T09:20:39.296Z</time>
      </trkpt>
      <trkpt lat="45.06041" lon="2.44003">
        <ele>762.44</ele>
        <time>2026-08-21T09:20:40.298Z</time>
      </trkpt>
      <trkpt lat="45.06037" lon="2.43997">
        <ele>761.42</ele>
        <time>2026-08-21T09:20:41.300Z</time>
      </trkpt>
      <trkpt lat="45.06037" lon="2.43992">
        <ele>760.5</ele>
        <time>2026-08-21T09:20:42.303Z</time>
      </trkpt>
      <trkpt lat="45.06037" lon="2.43987">
        <ele>759.46</ele>
        <time>2026-08-21T09:20:43.305Z</time>
      </trkpt>
      <trkpt lat="45.06037" lon="2.43985">
        <ele>758.46</ele>
        <time>2026-08-21T09:20:44.307Z</time>
      </trkpt>
      <trkpt lat="45.06038" lon="2.4398">
        <ele>758.46</ele>
        <time>2026-08-21T09:20:46.311Z</time>
      </trkpt>
      <trkpt lat="45.06038" lon="2.43979">
        <ele>758.46</ele>
        <time>2026-08-21T09:20:47.313Z</time>
      </trkpt>
      <trkpt lat="45.06038" lon="2.43976">
        <ele>758.46</ele>
        <time>2026-08-21T09:20:49.300Z</time>
      </trkpt>
      <trkpt lat="45.06039" lon="2.43974">
        <ele>758.46</ele>
        <time>2026-08-21T09:20:51.322Z</time>
      </trkpt>
      <trkpt lat="45.06041" lon="2.43971">
        <ele>758.46</ele>
        <time>2026-08-21T09:20:53.328Z</time>
      </trkpt>
      <trkpt lat="45.06042" lon="2.43969">
        <ele>758.46</ele>
        <time>2026-08-21T09:20:54.339Z</time>
      </trkpt>
      <trkpt lat="45.06043" lon="2.43965">
        <ele>758.46</ele>
        <time>2026-08-21T09:20:55.307Z</time>
      </trkpt>
      <trkpt lat="45.06045" lon="2.43963">
        <ele>758.46</ele>
        <time>2026-08-21T09:20:55.410Z</time>
      </trkpt>
      <trkpt lat="45.06046" lon="2.43961">
        <ele>758.46</ele>
        <time>2026-08-21T09:20:56.397Z</time>
      </trkpt>
      <trkpt lat="45.06047" lon="2.4396">
        <ele>758.46</ele>
        <time>2026-08-21T09:20:57.900Z</time>
      </trkpt>
      <trkpt lat="45.0605" lon="2.43959">
        <ele>758.46</ele>
        <time>2026-08-21T09:21:00.343Z</time>
      </trkpt>
      <trkpt lat="45.06052" lon="2.43958">
        <ele>758.46</ele>
        <time>2026-08-21T09:21:01.345Z</time>
      </trkpt>
      <trkpt lat="45.06054" lon="2.43958">
        <ele>758.46</ele>
        <time>2026-08-21T09:21:02.169Z</time>
      </trkpt>
      <trkpt lat="45.06057" lon="2.43957">
        <ele>758.46</ele>
        <time>2026-08-21T09:21:03.349Z</time>
      </trkpt>
      <trkpt lat="45.06061" lon="2.43957">
        <ele>758.46</ele>
        <time>2026-08-21T09:21:04.351Z</time>
      </trkpt>
      <trkpt lat="45.06065" lon="2.43956">
        <ele>758.46</ele>
        <time>2026-08-21T09:21:05.352Z</time>
      </trkpt>
      <trkpt lat="45.06068" lon="2.43955">
        <ele>758.46</ele>
        <time>2026-08-21T09:21:06.356Z</time>
      </trkpt>
      <trkpt lat="45.06073" lon="2.43953">
        <ele>758.46</ele>
        <time>2026-08-21T09:21:07.356Z</time>
      </trkpt>
      <trkpt lat="45.06076" lon="2.43949">
        <ele>742.52</ele>
        <time>2026-08-21T09:21:08.357Z</time>
      </trkpt>
      <trkpt lat="45.0608" lon="2.43945">
        <ele>742.09</ele>
        <time>2026-08-21T09:21:09.360Z</time>
      </trkpt>
      <trkpt lat="45.06084" lon="2.43941">
        <ele>741.8</ele>
        <time>2026-08-21T09:21:10.362Z</time>
      </trkpt>
      <trkpt lat="45.06088" lon="2.43937">
        <ele>741.66</ele>
        <time>2026-08-21T09:21:11.362Z</time>
      </trkpt>
      <trkpt lat="45.06091" lon="2.43933">
        <ele>741.15</ele>
        <time>2026-08-21T09:21:12.365Z</time>
      </trkpt>
      <trkpt lat="45.06096" lon="2.43929">
        <ele>740.96</ele>
        <time>2026-08-21T09:21:13.365Z</time>
      </trkpt>
      <trkpt lat="45.06099" lon="2.43925">
        <ele>740.48</ele>
        <time>2026-08-21T09:21:14.365Z</time>
      </trkpt>
      <trkpt lat="45.06103" lon="2.43922">
        <ele>740.23</ele>
        <time>2026-08-21T09:21:15.369Z</time>
      </trkpt>
      <trkpt lat="45.06107" lon="2.43919">
        <ele>739.87</ele>
        <time>2026-08-21T09:21:16.369Z</time>
      </trkpt>
      <trkpt lat="45.06111" lon="2.43917">
        <ele>739.49</ele>
        <time>2026-08-21T09:21:17.369Z</time>
      </trkpt>
      <trkpt lat="45.06116" lon="2.43917">
        <ele>739.17</ele>
        <time>2026-08-21T09:21:18.371Z</time>
      </trkpt>
      <trkpt lat="45.0612" lon="2.43917">
        <ele>738.47</ele>
        <time>2026-08-21T09:21:19.374Z</time>
      </trkpt>
      <trkpt lat="45.06126" lon="2.43918">
        <ele>738.44</ele>
        <time>2026-08-21T09:21:20.371Z</time>
      </trkpt>
      <trkpt lat="45.0613" lon="2.4392">
        <ele>738.12</ele>
        <time>2026-08-21T09:21:21.373Z</time>
      </trkpt>
      <trkpt lat="45.06136" lon="2.43922">
        <ele>737.5</ele>
        <time>2026-08-21T09:21:22.373Z</time>
      </trkpt>
      <trkpt lat="45.06141" lon="2.43924">
        <ele>737.39</ele>
        <time>2026-08-21T09:21:23.374Z</time>
      </trkpt>
      <trkpt lat="45.06145" lon="2.43926">
        <ele>737.18</ele>
        <time>2026-08-21T09:21:24.374Z</time>
      </trkpt>
      <trkpt lat="45.0615" lon="2.43929">
        <ele>736.5</ele>
        <time>2026-08-21T09:21:25.374Z</time>
      </trkpt>
      <trkpt lat="45.06155" lon="2.43931">
        <ele>736.13</ele>
        <time>2026-08-21T09:21:26.375Z</time>
      </trkpt>
      <trkpt lat="45.0616" lon="2.43935">
        <ele>736.08</ele>
        <time>2026-08-21T09:21:27.377Z</time>
      </trkpt>
      <trkpt lat="45.06165" lon="2.43937">
        <ele>735.38</ele>
        <time>2026-08-21T09:21:28.377Z</time>
      </trkpt>
      <trkpt lat="45.06169" lon="2.4394">
        <ele>735.02</ele>
        <time>2026-08-21T09:21:29.369Z</time>
      </trkpt>
      <trkpt lat="45.06174" lon="2.43941">
        <ele>734.58</ele>
        <time>2026-08-21T09:21:30.371Z</time>
      </trkpt>
      <trkpt lat="45.0618" lon="2.43942">
        <ele>734.22</ele>
        <time>2026-08-21T09:21:31.370Z</time>
      </trkpt>
      <trkpt lat="45.06186" lon="2.43943">
        <ele>734.07</ele>
        <time>2026-08-21T09:21:32.370Z</time>
      </trkpt>
      <trkpt lat="45.06191" lon="2.43943">
        <ele>733.99</ele>
        <time>2026-08-21T09:21:33.371Z</time>
      </trkpt>
      <trkpt lat="45.06197" lon="2.43943">
        <ele>733.8</ele>
        <time>2026-08-21T09:21:34.370Z</time>
      </trkpt>
      <trkpt lat="45.06204" lon="2.43945">
        <ele>733.44</ele>
        <time>2026-08-21T09:21:35.372Z</time>
      </trkpt>
      <trkpt lat="45.06211" lon="2.43947">
        <ele>733.31</ele>
        <time>2026-08-21T09:21:36.373Z</time>
      </trkpt>
      <trkpt lat="45.06218" lon="2.4395">
        <ele>733.03</ele>
        <time>2026-08-21T09:21:37.373Z</time>
      </trkpt>
      <trkpt lat="45.06224" lon="2.4395">
        <ele>732.91</ele>
        <time>2026-08-21T09:21:38.376Z</time>
      </trkpt>
      <trkpt lat="45.06231" lon="2.43949">
        <ele>732.49</ele>
        <time>2026-08-21T09:21:39.377Z</time>
      </trkpt>
      <trkpt lat="45.06236" lon="2.43945">
        <ele>732.05</ele>
        <time>2026-08-21T09:21:40.375Z</time>
      </trkpt>
      <trkpt lat="45.06236" lon="2.4394">
        <ele>731.74</ele>
        <time>2026-08-21T09:21:41.375Z</time>
      </trkpt>
      <trkpt lat="45.06234" lon="2.43935">
        <ele>731.2</ele>
        <time>2026-08-21T09:21:42.378Z</time>
      </trkpt>
      <trkpt lat="45.06231" lon="2.43929">
        <ele>730.81</ele>
        <time>2026-08-21T09:21:43.377Z</time>
      </trkpt>
      <trkpt lat="45.06228" lon="2.43923">
        <ele>730.38</ele>
        <time>2026-08-21T09:21:44.377Z</time>
      </trkpt>
      <trkpt lat="45.06224" lon="2.43918">
        <ele>730.01</ele>
        <time>2026-08-21T09:21:45.379Z</time>
      </trkpt>
      <trkpt lat="45.0622" lon="2.43914">
        <ele>729.6</ele>
        <time>2026-08-21T09:21:46.380Z</time>
      </trkpt>
      <trkpt lat="45.06216" lon="2.43911">
        <ele>729.04</ele>
        <time>2026-08-21T09:21:47.380Z</time>
      </trkpt>
      <trkpt lat="45.06211" lon="2.43908">
        <ele>728.68</ele>
        <time>2026-08-21T09:21:48.381Z</time>
      </trkpt>
      <trkpt lat="45.06206" lon="2.43906">
        <ele>728.48</ele>
        <time>2026-08-21T09:21:49.382Z</time>
      </trkpt>
      <trkpt lat="45.06201" lon="2.43903">
        <ele>728.29</ele>
        <time>2026-08-21T09:21:50.382Z</time>
      </trkpt>
      <trkpt lat="45.06196" lon="2.43899">
        <ele>728.01</ele>
        <time>2026-08-21T09:21:51.385Z</time>
      </trkpt>
      <trkpt lat="45.06192" lon="2.43895">
        <ele>727.76</ele>
        <time>2026-08-21T09:21:52.384Z</time>
      </trkpt>
      <trkpt lat="45.06188" lon="2.43892">
        <ele>727.67</ele>
        <time>2026-08-21T09:21:53.384Z</time>
      </trkpt>
      <trkpt lat="45.06185" lon="2.43886">
        <ele>727.45</ele>
        <time>2026-08-21T09:21:54.386Z</time>
      </trkpt>
      <trkpt lat="45.0618" lon="2.43881">
        <ele>727.24</ele>
        <time>2026-08-21T09:21:55.385Z</time>
      </trkpt>
      <trkpt lat="45.06176" lon="2.43876">
        <ele>726.96</ele>
        <time>2026-08-21T09:21:56.386Z</time>
      </trkpt>
      <trkpt lat="45.06172" lon="2.43869">
        <ele>726.73</ele>
        <time>2026-08-21T09:21:57.387Z</time>
      </trkpt>
      <trkpt lat="45.06168" lon="2.43863">
        <ele>726.49</ele>
        <time>2026-08-21T09:21:58.388Z</time>
      </trkpt>
      <trkpt lat="45.06163" lon="2.43857">
        <ele>726.23</ele>
        <time>2026-08-21T09:21:59.016Z</time>
      </trkpt>
      <trkpt lat="45.06158" lon="2.43851">
        <ele>726.01</ele>
        <time>2026-08-21T09:22:00.388Z</time>
      </trkpt>
      <trkpt lat="45.06153" lon="2.43844">
        <ele>725.78</ele>
        <time>2026-08-21T09:22:01.039Z</time>
      </trkpt>
      <trkpt lat="45.06148" lon="2.43837">
        <ele>725.45</ele>
        <time>2026-08-21T09:22:02.388Z</time>
      </trkpt>
      <trkpt lat="45.06143" lon="2.4383">
        <ele>725.13</ele>
        <time>2026-08-21T09:22:03.009Z</time>
      </trkpt>
      <trkpt lat="45.06138" lon="2.43821">
        <ele>724.8</ele>
        <time>2026-08-21T09:22:04.392Z</time>
      </trkpt>
      <trkpt lat="45.06133" lon="2.4381">
        <ele>724.44</ele>
        <time>2026-08-21T09:22:05.393Z</time>
      </trkpt>
      <trkpt lat="45.0613" lon="2.43802">
        <ele>723.89</ele>
        <time>2026-08-21T09:22:06.009Z</time>
      </trkpt>
      <trkpt lat="45.06125" lon="2.43797">
        <ele>723.5</ele>
        <time>2026-08-21T09:22:07.394Z</time>
      </trkpt>
      <trkpt lat="45.06121" lon="2.43793">
        <ele>723.06</ele>
        <time>2026-08-21T09:22:08.397Z</time>
      </trkpt>
      <trkpt lat="45.06119" lon="2.4379">
        <ele>722.67</ele>
        <time>2026-08-21T09:22:09.397Z</time>
      </trkpt>
      <trkpt lat="45.06118" lon="2.43786">
        <ele>722.24</ele>
        <time>2026-08-21T09:22:10.108Z</time>
      </trkpt>
      <trkpt lat="45.0612" lon="2.43781">
        <ele>721.84</ele>
        <time>2026-08-21T09:22:11.398Z</time>
      </trkpt>
      <trkpt lat="45.06122" lon="2.43777">
        <ele>721.45</ele>
        <time>2026-08-21T09:22:12.088Z</time>
      </trkpt>
      <trkpt lat="45.06125" lon="2.43773">
        <ele>721.03</ele>
        <time>2026-08-21T09:22:13.398Z</time>
      </trkpt>
      <trkpt lat="45.06128" lon="2.43768">
        <ele>720.62</ele>
        <time>2026-08-21T09:22:14.096Z</time>
      </trkpt>
      <trkpt lat="45.06131" lon="2.43763">
        <ele>720.2</ele>
        <time>2026-08-21T09:22:15.400Z</time>
      </trkpt>
      <trkpt lat="45.06134" lon="2.43758">
        <ele>719.79</ele>
        <time>2026-08-21T09:22:16.401Z</time>
      </trkpt>
      <trkpt lat="45.06137" lon="2.43752">
        <ele>719.24</ele>
        <time>2026-08-21T09:22:17.402Z</time>
      </trkpt>
      <trkpt lat="45.0614" lon="2.43746">
        <ele>718.8</ele>
        <time>2026-08-21T09:22:18.409Z</time>
      </trkpt>
      <trkpt lat="45.06143" lon="2.43741">
        <ele>718.41</ele>
        <time>2026-08-21T09:22:19.076Z</time>
      </trkpt>
      <trkpt lat="45.06146" lon="2.43736">
        <ele>718.06</ele>
        <time>2026-08-21T09:22:20.403Z</time>
      </trkpt>
      <trkpt lat="45.06149" lon="2.43732">
        <ele>717.65</ele>
        <time>2026-08-21T09:22:21.403Z</time>
      </trkpt>
      <trkpt lat="45.06152" lon="2.43727">
        <ele>717.29</ele>
        <time>2026-08-21T09:22:22.404Z</time>
      </trkpt>
      <trkpt lat="45.06155" lon="2.43723">
        <ele>716.97</ele>
        <time>2026-08-21T09:22:23.404Z</time>
      </trkpt>
      <trkpt lat="45.06159" lon="2.43718">
        <ele>716.66</ele>
        <time>2026-08-21T09:22:24.405Z</time>
      </trkpt>
      <trkpt lat="45.06162" lon="2.43715">
        <ele>716.32</ele>
        <time>2026-08-21T09:22:25.404Z</time>
      </trkpt>
      <trkpt lat="45.06165" lon="2.43712">
        <ele>716.01</ele>
        <time>2026-08-21T09:22:26.404Z</time>
      </trkpt>
      <trkpt lat="45.06168" lon="2.43708">
        <ele>715.72</ele>
        <time>2026-08-21T09:22:27.406Z</time>
      </trkpt>
      <trkpt lat="45.06172" lon="2.43705">
        <ele>715.45</ele>
        <time>2026-08-21T09:22:28.407Z</time>
      </trkpt>
      <trkpt lat="45.06175" lon="2.43702">
        <ele>715.16</ele>
        <time>2026-08-21T09:22:29.407Z</time>
      </trkpt>
      <trkpt lat="45.06178" lon="2.43699">
        <ele>714.87</ele>
        <time>2026-08-21T09:22:30.409Z</time>
      </trkpt>
      <trkpt lat="45.06181" lon="2.43696">
        <ele>714.61</ele>
        <time>2026-08-21T09:22:31.409Z</time>
      </trkpt>
      <trkpt lat="45.06185" lon="2.43693">
        <ele>714.35</ele>
        <time>2026-08-21T09:22:32.409Z</time>
      </trkpt>
      <trkpt lat="45.06188" lon="2.4369">
        <ele>714.1</ele>
        <time>2026-08-21T09:22:33.411Z</time>
      </trkpt>
      <trkpt lat="45.06192" lon="2.43688">
        <ele>713.86</ele>
        <time>2026-08-21T09:22:34.410Z</time>
      </trkpt>
      <trkpt lat="45.06195" lon="2.43686">
        <ele>713.65</ele>
        <time>2026-08-21T09:22:35.411Z</time>
      </trkpt>
      <trkpt lat="45.06199" lon="2.43684">
        <ele>713.42</ele>
        <time>2026-08-21T09:22:36.412Z</time>
      </trkpt>
      <trkpt lat="45.06203" lon="2.43683">
        <ele>713.21</ele>
        <time>2026-08-21T09:22:37.415Z</time>
      </trkpt>
      <trkpt lat="45.06208" lon="2.43682">
        <ele>712.98</ele>
        <time>2026-08-21T09:22:38.414Z</time>
      </trkpt>
      <trkpt lat="45.06212" lon="2.43682">
        <ele>712.76</ele>
        <time>2026-08-21T09:22:39.415Z</time>
      </trkpt>
      <trkpt lat="45.06216" lon="2.43682">
        <ele>712.55</ele>
        <time>2026-08-21T09:22:40.415Z</time>
      </trkpt>
      <trkpt lat="45.06221" lon="2.43683">
        <ele>712.32</ele>
        <time>2026-08-21T09:22:41.416Z</time>
      </trkpt>
      <trkpt lat="45.06226" lon="2.43684">
        <ele>712.14</ele>
        <time>2026-08-21T09:22:42.417Z</time>
      </trkpt>
      <trkpt lat="45.06231" lon="2.43685">
        <ele>711.98</ele>
        <time>2026-08-21T09:22:43.417Z</time>
      </trkpt>
      <trkpt lat="45.06236" lon="2.43686">
        <ele>711.73</ele>
        <time>2026-08-21T09:22:44.419Z</time>
      </trkpt>
      <trkpt lat="45.0624" lon="2.43687">
        <ele>711.49</ele>
        <time>2026-08-21T09:22:45.421Z</time>
      </trkpt>
      <trkpt lat="45.06246" lon="2.43687">
        <ele>711.25</ele>
        <time>2026-08-21T09:22:46.421Z</time>
      </trkpt>
      <trkpt lat="45.06252" lon="2.43688">
        <ele>710.97</ele>
        <time>2026-08-21T09:22:47.421Z</time>
      </trkpt>
      <trkpt lat="45.0626" lon="2.43687">
        <ele>710.7</ele>
        <time>2026-08-21T09:22:48.425Z</time>
      </trkpt>
      <trkpt lat="45.06269" lon="2.43686">
        <ele>710.38</ele>
        <time>2026-08-21T09:22:49.422Z</time>
      </trkpt>
      <trkpt lat="45.06278" lon="2.43684">
        <ele>710.04</ele>
        <time>2026-08-21T09:22:50.423Z</time>
      </trkpt>
      <trkpt lat="45.06287" lon="2.43682">
        <ele>709.75</ele>
        <time>2026-08-21T09:22:51.423Z</time>
      </trkpt>
      <trkpt lat="45.06295" lon="2.43678">
        <ele>709.45</ele>
        <time>2026-08-21T09:22:52.424Z</time>
      </trkpt>
      <trkpt lat="45.06305" lon="2.43674">
        <ele>708.99</ele>
        <time>2026-08-21T09:22:53.424Z</time>
      </trkpt>
      <trkpt lat="45.06314" lon="2.4367">
        <ele>708.65</ele>
        <time>2026-08-21T09:22:54.424Z</time>
      </trkpt>
      <trkpt lat="45.06323" lon="2.43668">
        <ele>708.16</ele>
        <time>2026-08-21T09:22:55.423Z</time>
      </trkpt>
      <trkpt lat="45.06332" lon="2.43668">
        <ele>707.88</ele>
        <time>2026-08-21T09:22:56.424Z</time>
      </trkpt>
      <trkpt lat="45.06341" lon="2.43668">
        <ele>707.56</ele>
        <time>2026-08-21T09:22:57.424Z</time>
      </trkpt>
      <trkpt lat="45.0635" lon="2.4367">
        <ele>706.96</ele>
        <time>2026-08-21T09:22:58.425Z</time>
      </trkpt>
      <trkpt lat="45.06359" lon="2.43672">
        <ele>706.56</ele>
        <time>2026-08-21T09:22:59.425Z</time>
      </trkpt>
      <trkpt lat="45.06368" lon="2.43675">
        <ele>706.25</ele>
        <time>2026-08-21T09:23:00.425Z</time>
      </trkpt>
      <trkpt lat="45.06377" lon="2.43677">
        <ele>705.77</ele>
        <time>2026-08-21T09:23:01.424Z</time>
      </trkpt>
      <trkpt lat="45.06386" lon="2.43676">
        <ele>705.35</ele>
        <time>2026-08-21T09:23:02.424Z</time>
      </trkpt>
      <trkpt lat="45.06395" lon="2.43671">
        <ele>704.91</ele>
        <time>2026-08-21T09:23:03.426Z</time>
      </trkpt>
      <trkpt lat="45.06402" lon="2.43665">
        <ele>704.67</ele>
        <time>2026-08-21T09:23:04.425Z</time>
      </trkpt>
      <trkpt lat="45.06407" lon="2.43654">
        <ele>704.08</ele>
        <time>2026-08-21T09:23:05.426Z</time>
      </trkpt>
      <trkpt lat="45.06412" lon="2.43643">
        <ele>703.57</ele>
        <time>2026-08-21T09:23:06.426Z</time>
      </trkpt>
      <trkpt lat="45.06415" lon="2.4363">
        <ele>703.12</ele>
        <time>2026-08-21T09:23:07.427Z</time>
      </trkpt>
      <trkpt lat="45.06419" lon="2.43618">
        <ele>702.62</ele>
        <time>2026-08-21T09:23:08.428Z</time>
      </trkpt>
      <trkpt lat="45.06423" lon="2.43602">
        <ele>702.13</ele>
        <time>2026-08-21T09:23:09.429Z</time>
      </trkpt>
      <trkpt lat="45.06425" lon="2.43595">
        <ele>701.54</ele>
        <time>2026-08-21T09:23:10.429Z</time>
      </trkpt>
      <trkpt lat="45.0643" lon="2.43573">
        <ele>700.86</ele>
        <time>2026-08-21T09:23:11.429Z</time>
      </trkpt>
      <trkpt lat="45.06434" lon="2.43559">
        <ele>700.27</ele>
        <time>2026-08-21T09:23:12.431Z</time>
      </trkpt>
      <trkpt lat="45.06438" lon="2.43543">
        <ele>699.61</ele>
        <time>2026-08-21T09:23:13.431Z</time>
      </trkpt>
      <trkpt lat="45.0644" lon="2.43528">
        <ele>698.85</ele>
        <time>2026-08-21T09:23:14.430Z</time>
      </trkpt>
      <trkpt lat="45.06439" lon="2.43518">
        <ele>698.14</ele>
        <time>2026-08-21T09:23:15.432Z</time>
      </trkpt>
      <trkpt lat="45.06437" lon="2.43498">
        <ele>697.42</ele>
        <time>2026-08-21T09:23:16.431Z</time>
      </trkpt>
      <trkpt lat="45.06434" lon="2.43483">
        <ele>696.7</ele>
        <time>2026-08-21T09:23:17.434Z</time>
      </trkpt>
      <trkpt lat="45.06432" lon="2.43474">
        <ele>695.84</ele>
        <time>2026-08-21T09:23:18.433Z</time>
      </trkpt>
      <trkpt lat="45.06426" lon="2.43455">
        <ele>695.01</ele>
        <time>2026-08-21T09:23:19.433Z</time>
      </trkpt>
      <trkpt lat="45.06419" lon="2.43443">
        <ele>694.28</ele>
        <time>2026-08-21T09:23:20.433Z</time>
      </trkpt>
      <trkpt lat="45.0641" lon="2.43434">
        <ele>693.05</ele>
        <time>2026-08-21T09:23:21.434Z</time>
      </trkpt>
      <trkpt lat="45.06401" lon="2.43426">
        <ele>692.14</ele>
        <time>2026-08-21T09:23:22.434Z</time>
      </trkpt>
      <trkpt lat="45.06391" lon="2.43419">
        <ele>691.22</ele>
        <time>2026-08-21T09:23:23.435Z</time>
      </trkpt>
      <trkpt lat="45.06381" lon="2.43413">
        <ele>690.31</ele>
        <time>2026-08-21T09:23:24.434Z</time>
      </trkpt>
      <trkpt lat="45.0637" lon="2.43409">
        <ele>689.28</ele>
        <time>2026-08-21T09:23:25.434Z</time>
      </trkpt>
      <trkpt lat="45.06361" lon="2.43402">
        <ele>688.4</ele>
        <time>2026-08-21T09:23:26.435Z</time>
      </trkpt>
      <trkpt lat="45.06353" lon="2.4339">
        <ele>687.33</ele>
        <time>2026-08-21T09:23:27.437Z</time>
      </trkpt>
      <trkpt lat="45.06349" lon="2.43377">
        <ele>686.28</ele>
        <time>2026-08-21T09:23:28.438Z</time>
      </trkpt>
      <trkpt lat="45.06348" lon="2.43364">
        <ele>685.57</ele>
        <time>2026-08-21T09:23:29.440Z</time>
      </trkpt>
      <trkpt lat="45.06349" lon="2.43347">
        <ele>684.6</ele>
        <time>2026-08-21T09:23:30.442Z</time>
      </trkpt>
      <trkpt lat="45.0635" lon="2.43328">
        <ele>683.35</ele>
        <time>2026-08-21T09:23:31.443Z</time>
      </trkpt>
      <trkpt lat="45.06349" lon="2.43313">
        <ele>682.39</ele>
        <time>2026-08-21T09:23:32.446Z</time>
      </trkpt>
      <trkpt lat="45.06348" lon="2.43302">
        <ele>681.44</ele>
        <time>2026-08-21T09:23:33.448Z</time>
      </trkpt>
      <trkpt lat="45.06347" lon="2.43284">
        <ele>680.49</ele>
        <time>2026-08-21T09:23:34.450Z</time>
      </trkpt>
      <trkpt lat="45.06345" lon="2.4327">
        <ele>679.86</ele>
        <time>2026-08-21T09:23:35.452Z</time>
      </trkpt>
      <trkpt lat="45.06343" lon="2.43259">
        <ele>678.86</ele>
        <time>2026-08-21T09:23:36.457Z</time>
      </trkpt>
      <trkpt lat="45.0634" lon="2.43244">
        <ele>678.43</ele>
        <time>2026-08-21T09:23:37.459Z</time>
      </trkpt>
      <trkpt lat="45.06336" lon="2.43232">
        <ele>677.63</ele>
        <time>2026-08-21T09:23:38.460Z</time>
      </trkpt>
      <trkpt lat="45.06332" lon="2.43215">
        <ele>676.84</ele>
        <time>2026-08-21T09:23:39.461Z</time>
      </trkpt>
      <trkpt lat="45.06328" lon="2.43201">
        <ele>675.95</ele>
        <time>2026-08-21T09:23:40.055Z</time>
      </trkpt>
      <trkpt lat="45.06324" lon="2.43188">
        <ele>675.09</ele>
        <time>2026-08-21T09:23:41.465Z</time>
      </trkpt>
      <trkpt lat="45.06322" lon="2.43178">
        <ele>674.18</ele>
        <time>2026-08-21T09:23:42.468Z</time>
      </trkpt>
      <trkpt lat="45.06317" lon="2.43162">
        <ele>673.3</ele>
        <time>2026-08-21T09:23:43.471Z</time>
      </trkpt>
      <trkpt lat="45.06313" lon="2.43145">
        <ele>672.49</ele>
        <time>2026-08-21T09:23:44.464Z</time>
      </trkpt>
      <trkpt lat="45.0631" lon="2.43132">
        <ele>671.62</ele>
        <time>2026-08-21T09:23:45.465Z</time>
      </trkpt>
      <trkpt lat="45.06308" lon="2.43124">
        <ele>670.88</ele>
        <time>2026-08-21T09:23:46.467Z</time>
      </trkpt>
      <trkpt lat="45.06304" lon="2.43102">
        <ele>670.07</ele>
        <time>2026-08-21T09:23:47.469Z</time>
      </trkpt>
      <trkpt lat="45.06303" lon="2.43092">
        <ele>669.1</ele>
        <time>2026-08-21T09:23:48.471Z</time>
      </trkpt>
      <trkpt lat="45.06301" lon="2.43073">
        <ele>667.45</ele>
        <time>2026-08-21T09:23:49.473Z</time>
      </trkpt>
      <trkpt lat="45.06301" lon="2.43063">
        <ele>666.44</ele>
        <time>2026-08-21T09:23:50.476Z</time>
      </trkpt>
      <trkpt lat="45.06302" lon="2.43044">
        <ele>665.56</ele>
        <time>2026-08-21T09:23:51.480Z</time>
      </trkpt>
      <trkpt lat="45.06304" lon="2.43035">
        <ele>664.75</ele>
        <time>2026-08-21T09:23:52.480Z</time>
      </trkpt>
      <trkpt lat="45.06308" lon="2.43016">
        <ele>664</ele>
        <time>2026-08-21T09:23:53.483Z</time>
      </trkpt>
      <trkpt lat="45.06312" lon="2.43002">
        <ele>663.29</ele>
        <time>2026-08-21T09:23:54.486Z</time>
      </trkpt>
      <trkpt lat="45.06316" lon="2.42989">
        <ele>662.5</ele>
        <time>2026-08-21T09:23:55.489Z</time>
      </trkpt>
      <trkpt lat="45.0632" lon="2.42977">
        <ele>661.72</ele>
        <time>2026-08-21T09:23:56.492Z</time>
      </trkpt>
      <trkpt lat="45.06324" lon="2.42967">
        <ele>661.19</ele>
        <time>2026-08-21T09:23:57.496Z</time>
      </trkpt>
      <trkpt lat="45.06329" lon="2.42953">
        <ele>660.43</ele>
        <time>2026-08-21T09:23:58.495Z</time>
      </trkpt>
      <trkpt lat="45.06334" lon="2.42944">
        <ele>660.05</ele>
        <time>2026-08-21T09:23:59.497Z</time>
      </trkpt>
      <trkpt lat="45.06338" lon="2.42935">
        <ele>659.4</ele>
        <time>2026-08-21T09:24:00.501Z</time>
      </trkpt>
      <trkpt lat="45.06341" lon="2.42926">
        <ele>658.91</ele>
        <time>2026-08-21T09:24:01.501Z</time>
      </trkpt>
      <trkpt lat="45.06343" lon="2.42918">
        <ele>658.46</ele>
        <time>2026-08-21T09:24:02.503Z</time>
      </trkpt>
      <trkpt lat="45.06343" lon="2.4291">
        <ele>658.06</ele>
        <time>2026-08-21T09:24:03.505Z</time>
      </trkpt>
      <trkpt lat="45.06341" lon="2.42905">
        <ele>657.65</ele>
        <time>2026-08-21T09:24:04.507Z</time>
      </trkpt>
      <trkpt lat="45.06339" lon="2.42902">
        <ele>657.38</ele>
        <time>2026-08-21T09:24:05.511Z</time>
      </trkpt>
      <trkpt lat="45.06337" lon="2.42902">
        <ele>657.09</ele>
        <time>2026-08-21T09:24:06.125Z</time>
      </trkpt>
      <trkpt lat="45.06334" lon="2.42902">
        <ele>656.72</ele>
        <time>2026-08-21T09:24:07.512Z</time>
      </trkpt>
      <trkpt lat="45.06332" lon="2.42902">
        <ele>656.4</ele>
        <time>2026-08-21T09:24:08.514Z</time>
      </trkpt>
      <trkpt lat="45.0633" lon="2.42903">
        <ele>656.12</ele>
        <time>2026-08-21T09:24:09.516Z</time>
      </trkpt>
      <trkpt lat="45.06328" lon="2.42903">
        <ele>655.84</ele>
        <time>2026-08-21T09:24:10.345Z</time>
      </trkpt>
      <trkpt lat="45.06326" lon="2.42904">
        <ele>655.59</ele>
        <time>2026-08-21T09:24:11.522Z</time>
      </trkpt>
      <trkpt lat="45.06325" lon="2.42904">
        <ele>655.43</ele>
        <time>2026-08-21T09:24:12.525Z</time>
      </trkpt>
      <trkpt lat="45.06323" lon="2.42905">
        <ele>655.24</ele>
        <time>2026-08-21T09:24:13.416Z</time>
      </trkpt>
      <trkpt lat="45.06321" lon="2.42904">
        <ele>655.01</ele>
        <time>2026-08-21T09:24:14.371Z</time>
      </trkpt>
      <trkpt lat="45.06318" lon="2.42903">
        <ele>654.86</ele>
        <time>2026-08-21T09:24:15.528Z</time>
      </trkpt>
      <trkpt lat="45.06316" lon="2.42902">
        <ele>654.68</ele>
        <time>2026-08-21T09:24:16.529Z</time>
      </trkpt>
      <trkpt lat="45.06315" lon="2.42901">
        <ele>654.52</ele>
        <time>2026-08-21T09:24:17.096Z</time>
      </trkpt>
      <trkpt lat="45.06314" lon="2.42899">
        <ele>654.36</ele>
        <time>2026-08-21T09:24:18.359Z</time>
      </trkpt>
      <trkpt lat="45.06313" lon="2.42896">
        <ele>654.16</ele>
        <time>2026-08-21T09:24:19.536Z</time>
      </trkpt>
      <trkpt lat="45.06313" lon="2.42892">
        <ele>654.04</ele>
        <time>2026-08-21T09:24:20.437Z</time>
      </trkpt>
      <trkpt lat="45.06313" lon="2.42888">
        <ele>653.91</ele>
        <time>2026-08-21T09:24:21.438Z</time>
      </trkpt>
      <trkpt lat="45.06313" lon="2.42883">
        <ele>653.76</ele>
        <time>2026-08-21T09:24:22.441Z</time>
      </trkpt>
      <trkpt lat="45.06312" lon="2.42879">
        <ele>653.64</ele>
        <time>2026-08-21T09:24:23.444Z</time>
      </trkpt>
      <trkpt lat="45.06313" lon="2.42875">
        <ele>653.52</ele>
        <time>2026-08-21T09:24:24.448Z</time>
      </trkpt>
      <trkpt lat="45.06316" lon="2.42872">
        <ele>653.36</ele>
        <time>2026-08-21T09:24:25.447Z</time>
      </trkpt>
      <trkpt lat="45.06319" lon="2.4287">
        <ele>653.19</ele>
        <time>2026-08-21T09:24:26.448Z</time>
      </trkpt>
      <trkpt lat="45.06322" lon="2.42866">
        <ele>653.1</ele>
        <time>2026-08-21T09:24:27.453Z</time>
      </trkpt>
      <trkpt lat="45.06323" lon="2.42863">
        <ele>652.96</ele>
        <time>2026-08-21T09:24:28.453Z</time>
      </trkpt>
      <trkpt lat="45.06325" lon="2.4286">
        <ele>652.79</ele>
        <time>2026-08-21T09:24:29.454Z</time>
      </trkpt>
      <trkpt lat="45.06324" lon="2.42859">
        <ele>652.65</ele>
        <time>2026-08-21T09:24:30.458Z</time>
      </trkpt>
      <trkpt lat="45.06322" lon="2.42859">
        <ele>652.56</ele>
        <time>2026-08-21T09:24:31.459Z</time>
      </trkpt>
      <trkpt lat="45.0632" lon="2.42859">
        <ele>652.39</ele>
        <time>2026-08-21T09:24:32.460Z</time>
      </trkpt>
      <trkpt lat="45.06317" lon="2.42859">
        <ele>652.3</ele>
        <time>2026-08-21T09:24:33.462Z</time>
      </trkpt>
      <trkpt lat="45.06315" lon="2.42859">
        <ele>652.2</ele>
        <time>2026-08-21T09:24:34.465Z</time>
      </trkpt>
      <trkpt lat="45.06312" lon="2.42859">
        <ele>652.11</ele>
        <time>2026-08-21T09:24:35.362Z</time>
      </trkpt>
      <trkpt lat="45.0631" lon="2.42859">
        <ele>651.99</ele>
        <time>2026-08-21T09:24:36.470Z</time>
      </trkpt>
      <trkpt lat="45.06307" lon="2.42859">
        <ele>651.89</ele>
        <time>2026-08-21T09:24:37.473Z</time>
      </trkpt>
      <trkpt lat="45.06304" lon="2.42858">
        <ele>651.82</ele>
        <time>2026-08-21T09:24:38.473Z</time>
      </trkpt>
      <trkpt lat="45.06301" lon="2.42858">
        <ele>651.72</ele>
        <time>2026-08-21T09:24:39.474Z</time>
      </trkpt>
      <trkpt lat="45.06298" lon="2.42857">
        <ele>651.65</ele>
        <time>2026-08-21T09:24:40.403Z</time>
      </trkpt>
      <trkpt lat="45.06295" lon="2.42857">
        <ele>651.57</ele>
        <time>2026-08-21T09:24:41.479Z</time>
      </trkpt>
      <trkpt lat="45.06294" lon="2.42857">
        <ele>651.52</ele>
        <time>2026-08-21T09:24:42.480Z</time>
      </trkpt>
      <trkpt lat="45.06291" lon="2.42856">
        <ele>651.47</ele>
        <time>2026-08-21T09:24:43.481Z</time>
      </trkpt>
      <trkpt lat="45.06288" lon="2.42856">
        <ele>651.37</ele>
        <time>2026-08-21T09:24:44.483Z</time>
      </trkpt>
      <trkpt lat="45.06286" lon="2.42855">
        <ele>651.33</ele>
        <time>2026-08-21T09:24:45.484Z</time>
      </trkpt>
      <trkpt lat="45.06283" lon="2.42855">
        <ele>651.27</ele>
        <time>2026-08-21T09:24:46.487Z</time>
      </trkpt>
      <trkpt lat="45.0628" lon="2.42854">
        <ele>651.21</ele>
        <time>2026-08-21T09:24:47.492Z</time>
      </trkpt>
      <trkpt lat="45.06279" lon="2.42853">
        <ele>651.17</ele>
        <time>2026-08-21T09:24:48.490Z</time>
      </trkpt>
      <trkpt lat="45.06276" lon="2.42852">
        <ele>651.13</ele>
        <time>2026-08-21T09:24:49.491Z</time>
      </trkpt>
      <trkpt lat="45.06274" lon="2.42852">
        <ele>651.09</ele>
        <time>2026-08-21T09:24:50.492Z</time>
      </trkpt>
      <trkpt lat="45.06272" lon="2.42851">
        <ele>651.04</ele>
        <time>2026-08-21T09:24:51.494Z</time>
      </trkpt>
      <trkpt lat="45.0627" lon="2.4285">
        <ele>651.01</ele>
        <time>2026-08-21T09:24:52.497Z</time>
      </trkpt>
      <trkpt lat="45.06268" lon="2.42849">
        <ele>650.96</ele>
        <time>2026-08-21T09:24:53.499Z</time>
      </trkpt>
      <trkpt lat="45.06266" lon="2.42847">
        <ele>650.92</ele>
        <time>2026-08-21T09:24:54.499Z</time>
      </trkpt>
      <trkpt lat="45.06264" lon="2.42846">
        <ele>650.89</ele>
        <time>2026-08-21T09:24:55.502Z</time>
      </trkpt>
      <trkpt lat="45.06263" lon="2.42846">
        <ele>650.86</ele>
        <time>2026-08-21T09:24:56.502Z</time>
      </trkpt>
      <trkpt lat="45.0626" lon="2.42844">
        <ele>650.82</ele>
        <time>2026-08-21T09:24:57.365Z</time>
      </trkpt>
      <trkpt lat="45.06259" lon="2.42842">
        <ele>650.8</ele>
        <time>2026-08-21T09:24:58.508Z</time>
      </trkpt>
      <trkpt lat="45.06257" lon="2.4284">
        <ele>650.79</ele>
        <time>2026-08-21T09:24:59.507Z</time>
      </trkpt>
      <trkpt lat="45.06256" lon="2.42838">
        <ele>650.78</ele>
        <time>2026-08-21T09:25:00.509Z</time>
      </trkpt>
      <trkpt lat="45.06254" lon="2.42836">
        <ele>650.78</ele>
        <time>2026-08-21T09:25:01.512Z</time>
      </trkpt>
      <trkpt lat="45.06252" lon="2.42834">
        <ele>650.76</ele>
        <time>2026-08-21T09:25:02.513Z</time>
      </trkpt>
      <trkpt lat="45.06251" lon="2.42831">
        <ele>650.76</ele>
        <time>2026-08-21T09:25:03.390Z</time>
      </trkpt>
      <trkpt lat="45.06249" lon="2.42828">
        <ele>650.75</ele>
        <time>2026-08-21T09:25:04.517Z</time>
      </trkpt>
      <trkpt lat="45.06247" lon="2.42825">
        <ele>650.76</ele>
        <time>2026-08-21T09:25:05.516Z</time>
      </trkpt>
      <trkpt lat="45.06246" lon="2.42823">
        <ele>650.76</ele>
        <time>2026-08-21T09:25:06.518Z</time>
      </trkpt>
      <trkpt lat="45.06245" lon="2.4282">
        <ele>650.77</ele>
        <time>2026-08-21T09:25:07.521Z</time>
      </trkpt>
      <trkpt lat="45.06244" lon="2.42817">
        <ele>650.79</ele>
        <time>2026-08-21T09:25:08.544Z</time>
      </trkpt>
      <trkpt lat="45.06242" lon="2.42814">
        <ele>650.79</ele>
        <time>2026-08-21T09:25:09.523Z</time>
      </trkpt>
      <trkpt lat="45.06241" lon="2.42812">
        <ele>650.81</ele>
        <time>2026-08-21T09:25:10.525Z</time>
      </trkpt>
      <trkpt lat="45.0624" lon="2.42809">
        <ele>650.84</ele>
        <time>2026-08-21T09:25:11.428Z</time>
      </trkpt>
      <trkpt lat="45.06238" lon="2.42807">
        <ele>650.87</ele>
        <time>2026-08-21T09:25:12.527Z</time>
      </trkpt>
      <trkpt lat="45.06237" lon="2.42804">
        <ele>650.89</ele>
        <time>2026-08-21T09:25:13.530Z</time>
      </trkpt>
      <trkpt lat="45.06236" lon="2.42802">
        <ele>650.92</ele>
        <time>2026-08-21T09:25:14.128Z</time>
      </trkpt>
      <trkpt lat="45.06235" lon="2.428">
        <ele>650.95</ele>
        <time>2026-08-21T09:25:15.533Z</time>
      </trkpt>
      <trkpt lat="45.06234" lon="2.42797">
        <ele>650.97</ele>
        <time>2026-08-21T09:25:16.140Z</time>
      </trkpt>
      <trkpt lat="45.06233" lon="2.42794">
        <ele>650.99</ele>
        <time>2026-08-21T09:25:17.129Z</time>
      </trkpt>
      <trkpt lat="45.06232" lon="2.42791">
        <ele>651.02</ele>
        <time>2026-08-21T09:25:18.597Z</time>
      </trkpt>
      <trkpt lat="45.06231" lon="2.42788">
        <ele>651.04</ele>
        <time>2026-08-21T09:25:18.608Z</time>
      </trkpt>
      <trkpt lat="45.06231" lon="2.42786">
        <ele>651.06</ele>
        <time>2026-08-21T09:25:20.135Z</time>
      </trkpt>
      <trkpt lat="45.0623" lon="2.42783">
        <ele>651.09</ele>
        <time>2026-08-21T09:25:21.544Z</time>
      </trkpt>
      <trkpt lat="45.06229" lon="2.42781">
        <ele>651.11</ele>
        <time>2026-08-21T09:25:22.137Z</time>
      </trkpt>
      <trkpt lat="45.06228" lon="2.42779">
        <ele>651.14</ele>
        <time>2026-08-21T09:25:23.129Z</time>
      </trkpt>
      <trkpt lat="45.06227" lon="2.42775">
        <ele>651.18</ele>
        <time>2026-08-21T09:25:24.117Z</time>
      </trkpt>
      <trkpt lat="45.06226" lon="2.42772">
        <ele>651.2</ele>
        <time>2026-08-21T09:25:25.550Z</time>
      </trkpt>
      <trkpt lat="45.06224" lon="2.42771">
        <ele>651.23</ele>
        <time>2026-08-21T09:25:26.552Z</time>
      </trkpt>
      <trkpt lat="45.06223" lon="2.4277">
        <ele>651.27</ele>
        <time>2026-08-21T09:25:27.554Z</time>
      </trkpt>
      <trkpt lat="45.06221" lon="2.4277">
        <ele>651.29</ele>
        <time>2026-08-21T09:25:28.113Z</time>
      </trkpt>
      <trkpt lat="45.0622" lon="2.42771">
        <ele>651.32</ele>
        <time>2026-08-21T09:25:29.126Z</time>
      </trkpt>
      <trkpt lat="45.06218" lon="2.42773">
        <ele>651.35</ele>
        <time>2026-08-21T09:25:30.120Z</time>
      </trkpt>
      <trkpt lat="45.06217" lon="2.42776">
        <ele>651.38</ele>
        <time>2026-08-21T09:25:31.139Z</time>
      </trkpt>
      <trkpt lat="45.06216" lon="2.4278">
        <ele>651.4</ele>
        <time>2026-08-21T09:25:32.611Z</time>
      </trkpt>
      <trkpt lat="45.06216" lon="2.42783">
        <ele>651.43</ele>
        <time>2026-08-21T09:25:33.560Z</time>
      </trkpt>
      <trkpt lat="45.06216" lon="2.42786">
        <ele>651.45</ele>
        <time>2026-08-21T09:25:34.107Z</time>
      </trkpt>
      <trkpt lat="45.06216" lon="2.42789">
        <ele>651.47</ele>
        <time>2026-08-21T09:25:35.609Z</time>
      </trkpt>
      <trkpt lat="45.06216" lon="2.42793">
        <ele>651.49</ele>
        <time>2026-08-21T09:25:36.564Z</time>
      </trkpt>
      <trkpt lat="45.06216" lon="2.42796">
        <ele>651.5</ele>
        <time>2026-08-21T09:25:37.621Z</time>
      </trkpt>
      <trkpt lat="45.06216" lon="2.42799">
        <ele>651.52</ele>
        <time>2026-08-21T09:25:38.567Z</time>
      </trkpt>
      <trkpt lat="45.06217" lon="2.42803">
        <ele>651.55</ele>
        <time>2026-08-21T09:25:39.628Z</time>
      </trkpt>
      <trkpt lat="45.06217" lon="2.42805">
        <ele>651.57</ele>
        <time>2026-08-21T09:25:40.569Z</time>
      </trkpt>
      <trkpt lat="45.06218" lon="2.42809">
        <ele>651.6</ele>
        <time>2026-08-21T09:25:41.613Z</time>
      </trkpt>
      <trkpt lat="45.06219" lon="2.42812">
        <ele>651.62</ele>
        <time>2026-08-21T09:25:42.570Z</time>
      </trkpt>
      <trkpt lat="45.0622" lon="2.42815">
        <ele>651.65</ele>
        <time>2026-08-21T09:25:43.142Z</time>
      </trkpt>
      <trkpt lat="45.06221" lon="2.42818">
        <ele>651.68</ele>
        <time>2026-08-21T09:25:44.130Z</time>
      </trkpt>
      <trkpt lat="45.06223" lon="2.42821">
        <ele>651.71</ele>
        <time>2026-08-21T09:25:45.630Z</time>
      </trkpt>
      <trkpt lat="45.06224" lon="2.42825">
        <ele>651.74</ele>
        <time>2026-08-21T09:25:46.576Z</time>
      </trkpt>
      <trkpt lat="45.06226" lon="2.42827">
        <ele>651.77</ele>
        <time>2026-08-21T09:25:47.126Z</time>
      </trkpt>
      <trkpt lat="45.06226" lon="2.4283">
        <ele>651.8</ele>
        <time>2026-08-21T09:25:48.456Z</time>
      </trkpt>
      <trkpt lat="45.06227" lon="2.42833">
        <ele>651.83</ele>
        <time>2026-08-21T09:25:49.619Z</time>
      </trkpt>
      <trkpt lat="45.06227" lon="2.42836">
        <ele>651.87</ele>
        <time>2026-08-21T09:25:50.584Z</time>
      </trkpt>
      <trkpt lat="45.06226" lon="2.42839">
        <ele>651.91</ele>
        <time>2026-08-21T09:25:51.632Z</time>
      </trkpt>
      <trkpt lat="45.06226" lon="2.42841">
        <ele>651.96</ele>
        <time>2026-08-21T09:25:52.471Z</time>
      </trkpt>
      <trkpt lat="45.06226" lon="2.42845">
        <ele>652</ele>
        <time>2026-08-21T09:25:53.644Z</time>
      </trkpt>
      <trkpt lat="45.06225" lon="2.42848">
        <ele>652.05</ele>
        <time>2026-08-21T09:25:54.588Z</time>
      </trkpt>
      <trkpt lat="45.06224" lon="2.4285">
        <ele>652.1</ele>
        <time>2026-08-21T09:25:55.590Z</time>
      </trkpt>
      <trkpt lat="45.06223" lon="2.42852">
        <ele>652.15</ele>
        <time>2026-08-21T09:25:56.591Z</time>
      </trkpt>
      <trkpt lat="45.06222" lon="2.42853">
        <ele>652.2</ele>
        <time>2026-08-21T09:25:57.594Z</time>
      </trkpt>
      <trkpt lat="45.06221" lon="2.42855">
        <ele>652.26</ele>
        <time>2026-08-21T09:25:58.594Z</time>
      </trkpt>
      <trkpt lat="45.0622" lon="2.42857">
        <ele>652.32</ele>
        <time>2026-08-21T09:25:59.595Z</time>
      </trkpt>
      <trkpt lat="45.06218" lon="2.42858">
        <ele>652.39</ele>
        <time>2026-08-21T09:26:00.597Z</time>
      </trkpt>
      <trkpt lat="45.06214" lon="2.42862">
        <ele>652.51</ele>
        <time>2026-08-21T09:26:02.598Z</time>
      </trkpt>
      <trkpt lat="45.06213" lon="2.42863">
        <ele>652.58</ele>
        <time>2026-08-21T09:26:03.601Z</time>
      </trkpt>
      <trkpt lat="45.06212" lon="2.42864">
        <ele>652.65</ele>
        <time>2026-08-21T09:26:04.601Z</time>
      </trkpt>
      <trkpt lat="45.0621" lon="2.42866">
        <ele>652.72</ele>
        <time>2026-08-21T09:26:05.603Z</time>
      </trkpt>
      <trkpt lat="45.06209" lon="2.42868">
        <ele>652.79</ele>
        <time>2026-08-21T09:26:06.633Z</time>
      </trkpt>
      <trkpt lat="45.06208" lon="2.42869">
        <ele>652.88</ele>
        <time>2026-08-21T09:26:07.607Z</time>
      </trkpt>
      <trkpt lat="45.06207" lon="2.4287">
        <ele>652.96</ele>
        <time>2026-08-21T09:26:08.607Z</time>
      </trkpt>
      <trkpt lat="45.06205" lon="2.42871">
        <ele>653.06</ele>
        <time>2026-08-21T09:26:09.181Z</time>
      </trkpt>
      <trkpt lat="45.06204" lon="2.42872">
        <ele>653.15</ele>
        <time>2026-08-21T09:26:10.647Z</time>
      </trkpt>
      <trkpt lat="45.06203" lon="2.42873">
        <ele>653.26</ele>
        <time>2026-08-21T09:26:11.610Z</time>
      </trkpt>
      <trkpt lat="45.06202" lon="2.42875">
        <ele>653.36</ele>
        <time>2026-08-21T09:26:12.614Z</time>
      </trkpt>
      <trkpt lat="45.06199" lon="2.42877">
        <ele>653.6</ele>
        <time>2026-08-21T09:26:14.615Z</time>
      </trkpt>
      <trkpt lat="45.06198" lon="2.42878">
        <ele>653.74</ele>
        <time>2026-08-21T09:26:15.618Z</time>
      </trkpt>
      <trkpt lat="45.06197" lon="2.42879">
        <ele>653.89</ele>
        <time>2026-08-21T09:26:16.619Z</time>
      </trkpt>
      <trkpt lat="45.06195" lon="2.4288">
        <ele>654.02</ele>
        <time>2026-08-21T09:26:17.643Z</time>
      </trkpt>
      <trkpt lat="45.06194" lon="2.42881">
        <ele>654.16</ele>
        <time>2026-08-21T09:26:18.623Z</time>
      </trkpt>
      <trkpt lat="45.06192" lon="2.42882">
        <ele>654.32</ele>
        <time>2026-08-21T09:26:19.499Z</time>
      </trkpt>
      <trkpt lat="45.06191" lon="2.42884">
        <ele>654.49</ele>
        <time>2026-08-21T09:26:20.623Z</time>
      </trkpt>
      <trkpt lat="45.06189" lon="2.42885">
        <ele>654.66</ele>
        <time>2026-08-21T09:26:21.633Z</time>
      </trkpt>
      <trkpt lat="45.06187" lon="2.42886">
        <ele>654.85</ele>
        <time>2026-08-21T09:26:22.627Z</time>
      </trkpt>
      <trkpt lat="45.06185" lon="2.42887">
        <ele>655.05</ele>
        <time>2026-08-21T09:26:23.628Z</time>
      </trkpt>
      <trkpt lat="45.06183" lon="2.42889">
        <ele>655.26</ele>
        <time>2026-08-21T09:26:24.631Z</time>
      </trkpt>
      <trkpt lat="45.06181" lon="2.42891">
        <ele>655.47</ele>
        <time>2026-08-21T09:26:25.632Z</time>
      </trkpt>
      <trkpt lat="45.06177" lon="2.42893">
        <ele>655.9</ele>
        <time>2026-08-21T09:26:27.632Z</time>
      </trkpt>
      <trkpt lat="45.06175" lon="2.42893">
        <ele>656.15</ele>
        <time>2026-08-21T09:26:28.504Z</time>
      </trkpt>
      <trkpt lat="45.06174" lon="2.42894">
        <ele>656.38</ele>
        <time>2026-08-21T09:26:29.637Z</time>
      </trkpt>
      <trkpt lat="45.06172" lon="2.42895">
        <ele>656.66</ele>
        <time>2026-08-21T09:26:30.634Z</time>
      </trkpt>
      <trkpt lat="45.0617" lon="2.42896">
        <ele>656.93</ele>
        <time>2026-08-21T09:26:31.635Z</time>
      </trkpt>
      <trkpt lat="45.06168" lon="2.42897">
        <ele>657.2</ele>
        <time>2026-08-21T09:26:32.634Z</time>
      </trkpt>
      <trkpt lat="45.06166" lon="2.42897">
        <ele>657.5</ele>
        <time>2026-08-21T09:26:33.636Z</time>
      </trkpt>
      <trkpt lat="45.06163" lon="2.42898">
        <ele>657.79</ele>
        <time>2026-08-21T09:26:34.638Z</time>
      </trkpt>
      <trkpt lat="45.06162" lon="2.42898">
        <ele>658.1</ele>
        <time>2026-08-21T09:26:34.743Z</time>
      </trkpt>
      <trkpt lat="45.0616" lon="2.42898">
        <ele>658.41</ele>
        <time>2026-08-21T09:26:36.664Z</time>
      </trkpt>
      <trkpt lat="45.06158" lon="2.42898">
        <ele>658.71</ele>
        <time>2026-08-21T09:26:37.534Z</time>
      </trkpt>
      <trkpt lat="45.06157" lon="2.42897">
        <ele>659</ele>
        <time>2026-08-21T09:26:38.642Z</time>
      </trkpt>
      <trkpt lat="45.06155" lon="2.42897">
        <ele>659.31</ele>
        <time>2026-08-21T09:26:39.638Z</time>
      </trkpt>
      <trkpt lat="45.06153" lon="2.42897">
        <ele>659.64</ele>
        <time>2026-08-21T09:26:40.640Z</time>
      </trkpt>
      <trkpt lat="45.06152" lon="2.42897">
        <ele>659.94</ele>
        <time>2026-08-21T09:26:41.639Z</time>
      </trkpt>
      <trkpt lat="45.0615" lon="2.42897">
        <ele>660.22</ele>
        <time>2026-08-21T09:26:42.640Z</time>
      </trkpt>
      <trkpt lat="45.06148" lon="2.42897">
        <ele>660.55</ele>
        <time>2026-08-21T09:26:43.640Z</time>
      </trkpt>
      <trkpt lat="45.06146" lon="2.42897">
        <ele>660.89</ele>
        <time>2026-08-21T09:26:44.642Z</time>
      </trkpt>
      <trkpt lat="45.06142" lon="2.42897">
        <ele>661.59</ele>
        <time>2026-08-21T09:26:46.533Z</time>
      </trkpt>
      <trkpt lat="45.06141" lon="2.42897">
        <ele>661.95</ele>
        <time>2026-08-21T09:26:47.643Z</time>
      </trkpt>
      <trkpt lat="45.06139" lon="2.42897">
        <ele>661.95</ele>
        <time>2026-08-21T09:26:49.645Z</time>
      </trkpt>
      <trkpt lat="45.06135" lon="2.42896">
        <ele>663.42</ele>
        <time>2026-08-21T09:26:51.645Z</time>
      </trkpt>
      <trkpt lat="45.06134" lon="2.42896">
        <ele>663.81</ele>
        <time>2026-08-21T09:26:52.648Z</time>
      </trkpt>
      <trkpt lat="45.06133" lon="2.42896">
        <ele>664.21</ele>
        <time>2026-08-21T09:26:53.646Z</time>
      </trkpt>
      <trkpt lat="45.06132" lon="2.42896">
        <ele>664.21</ele>
        <time>2026-08-21T09:26:54.647Z</time>
      </trkpt>
      <trkpt lat="45.0613" lon="2.42895">
        <ele>665.03</ele>
        <time>2026-08-21T09:26:55.655Z</time>
      </trkpt>
      <trkpt lat="45.06129" lon="2.42895">
        <ele>665.42</ele>
        <time>2026-08-21T09:26:56.650Z</time>
      </trkpt>
      <trkpt lat="45.06125" lon="2.42893">
        <ele>666.23</ele>
        <time>2026-08-21T09:26:58.653Z</time>
      </trkpt>
      <trkpt lat="45.06123" lon="2.42894">
        <ele>666.65</ele>
        <time>2026-08-21T09:26:59.652Z</time>
      </trkpt>
      <trkpt lat="45.06122" lon="2.42893">
        <ele>667.06</ele>
        <time>2026-08-21T09:27:00.655Z</time>
      </trkpt>
      <trkpt lat="45.06121" lon="2.42893">
        <ele>667.48</ele>
        <time>2026-08-21T09:27:01.440Z</time>
      </trkpt>
      <trkpt lat="45.06119" lon="2.42893">
        <ele>667.93</ele>
        <time>2026-08-21T09:27:02.656Z</time>
      </trkpt>
      <trkpt lat="45.06117" lon="2.42893">
        <ele>668.35</ele>
        <time>2026-08-21T09:27:03.657Z</time>
      </trkpt>
      <trkpt lat="45.06115" lon="2.42893">
        <ele>668.66</ele>
        <time>2026-08-21T09:27:04.658Z</time>
      </trkpt>
      <trkpt lat="45.06113" lon="2.42893">
        <ele>669.05</ele>
        <time>2026-08-21T09:27:05.658Z</time>
      </trkpt>
      <trkpt lat="45.06111" lon="2.42893">
        <ele>669.45</ele>
        <time>2026-08-21T09:27:06.660Z</time>
      </trkpt>
      <trkpt lat="45.06109" lon="2.42893">
        <ele>669.87</ele>
        <time>2026-08-21T09:27:07.660Z</time>
      </trkpt>
      <trkpt lat="45.06107" lon="2.42892">
        <ele>670.31</ele>
        <time>2026-08-21T09:27:08.661Z</time>
      </trkpt>
      <trkpt lat="45.06105" lon="2.42892">
        <ele>670.77</ele>
        <time>2026-08-21T09:27:09.661Z</time>
      </trkpt>
      <trkpt lat="45.06104" lon="2.42892">
        <ele>671.19</ele>
        <time>2026-08-21T09:27:10.664Z</time>
      </trkpt>
      <trkpt lat="45.06102" lon="2.42892">
        <ele>671.63</ele>
        <time>2026-08-21T09:27:11.665Z</time>
      </trkpt>
      <trkpt lat="45.061" lon="2.42892">
        <ele>672.05</ele>
        <time>2026-08-21T09:27:12.666Z</time>
      </trkpt>
      <trkpt lat="45.06099" lon="2.42892">
        <ele>672.43</ele>
        <time>2026-08-21T09:27:13.297Z</time>
      </trkpt>
      <trkpt lat="45.06097" lon="2.42892">
        <ele>672.82</ele>
        <time>2026-08-21T09:27:14.668Z</time>
      </trkpt>
      <trkpt lat="45.06096" lon="2.42891">
        <ele>673.19</ele>
        <time>2026-08-21T09:27:15.667Z</time>
      </trkpt>
      <trkpt lat="45.06095" lon="2.4289">
        <ele>673.53</ele>
        <time>2026-08-21T09:27:16.669Z</time>
      </trkpt>
      <trkpt lat="45.06094" lon="2.42889">
        <ele>673.89</ele>
        <time>2026-08-21T09:27:17.668Z</time>
      </trkpt>
      <trkpt lat="45.06094" lon="2.42888">
        <ele>674.28</ele>
        <time>2026-08-21T09:27:18.458Z</time>
      </trkpt>
      <trkpt lat="45.06093" lon="2.42886">
        <ele>674.64</ele>
        <time>2026-08-21T09:27:19.670Z</time>
      </trkpt>
      <trkpt lat="45.06092" lon="2.42884">
        <ele>674.99</ele>
        <time>2026-08-21T09:27:20.670Z</time>
      </trkpt>
      <trkpt lat="45.06091" lon="2.42883">
        <ele>675.35</ele>
        <time>2026-08-21T09:27:21.672Z</time>
      </trkpt>
      <trkpt lat="45.06091" lon="2.42881">
        <ele>675.7</ele>
        <time>2026-08-21T09:27:22.674Z</time>
      </trkpt>
      <trkpt lat="45.06091" lon="2.42879">
        <ele>676.08</ele>
        <time>2026-08-21T09:27:23.672Z</time>
      </trkpt>
      <trkpt lat="45.06091" lon="2.42876">
        <ele>676.38</ele>
        <time>2026-08-21T09:27:24.672Z</time>
      </trkpt>
      <trkpt lat="45.0609" lon="2.42874">
        <ele>676.75</ele>
        <time>2026-08-21T09:27:25.672Z</time>
      </trkpt>
      <trkpt lat="45.0609" lon="2.42872">
        <ele>677.16</ele>
        <time>2026-08-21T09:27:25.755Z</time>
      </trkpt>
      <trkpt lat="45.0609" lon="2.42869">
        <ele>677.53</ele>
        <time>2026-08-21T09:27:27.673Z</time>
      </trkpt>
      <trkpt lat="45.06089" lon="2.42867">
        <ele>677.87</ele>
        <time>2026-08-21T09:27:28.676Z</time>
      </trkpt>
      <trkpt lat="45.06088" lon="2.42864">
        <ele>678.2</ele>
        <time>2026-08-21T09:27:29.675Z</time>
      </trkpt>
      <trkpt lat="45.06087" lon="2.42862">
        <ele>678.52</ele>
        <time>2026-08-21T09:27:30.675Z</time>
      </trkpt>
      <trkpt lat="45.06086" lon="2.42859">
        <ele>678.83</ele>
        <time>2026-08-21T09:27:31.675Z</time>
      </trkpt>
      <trkpt lat="45.06085" lon="2.42856">
        <ele>679.18</ele>
        <time>2026-08-21T09:27:32.676Z</time>
      </trkpt>
      <trkpt lat="45.06084" lon="2.42854">
        <ele>679.53</ele>
        <time>2026-08-21T09:27:33.675Z</time>
      </trkpt>
      <trkpt lat="45.06083" lon="2.42852">
        <ele>679.85</ele>
        <time>2026-08-21T09:27:34.677Z</time>
      </trkpt>
      <trkpt lat="45.06083" lon="2.4285">
        <ele>680.1</ele>
        <time>2026-08-21T09:27:35.677Z</time>
      </trkpt>
      <trkpt lat="45.06082" lon="2.42847">
        <ele>680.38</ele>
        <time>2026-08-21T09:27:36.678Z</time>
      </trkpt>
      <trkpt lat="45.06081" lon="2.42845">
        <ele>680.68</ele>
        <time>2026-08-21T09:27:37.679Z</time>
      </trkpt>
      <trkpt lat="45.0608" lon="2.42843">
        <ele>681</ele>
        <time>2026-08-21T09:27:38.680Z</time>
      </trkpt>
      <trkpt lat="45.0608" lon="2.42841">
        <ele>681.31</ele>
        <time>2026-08-21T09:27:39.679Z</time>
      </trkpt>
      <trkpt lat="45.06078" lon="2.42839">
        <ele>681.6</ele>
        <time>2026-08-21T09:27:40.681Z</time>
      </trkpt>
      <trkpt lat="45.06078" lon="2.42837">
        <ele>681.91</ele>
        <time>2026-08-21T09:27:41.680Z</time>
      </trkpt>
      <trkpt lat="45.06077" lon="2.42833">
        <ele>682.41</ele>
        <time>2026-08-21T09:27:43.683Z</time>
      </trkpt>
      <trkpt lat="45.06076" lon="2.42832">
        <ele>682.67</ele>
        <time>2026-08-21T09:27:44.684Z</time>
      </trkpt>
      <trkpt lat="45.06075" lon="2.42831">
        <ele>682.96</ele>
        <time>2026-08-21T09:27:45.688Z</time>
      </trkpt>
      <trkpt lat="45.06075" lon="2.4283">
        <ele>683.21</ele>
        <time>2026-08-21T09:27:46.278Z</time>
      </trkpt>
      <trkpt lat="45.06074" lon="2.42828">
        <ele>683.5</ele>
        <time>2026-08-21T09:27:47.662Z</time>
      </trkpt>
      <trkpt lat="45.06073" lon="2.42826">
        <ele>683.77</ele>
        <time>2026-08-21T09:27:48.280Z</time>
      </trkpt>
      <trkpt lat="45.06073" lon="2.42823">
        <ele>684.05</ele>
        <time>2026-08-21T09:27:49.687Z</time>
      </trkpt>
      <trkpt lat="45.06072" lon="2.42821">
        <ele>684.35</ele>
        <time>2026-08-21T09:27:50.688Z</time>
      </trkpt>
      <trkpt lat="45.06072" lon="2.42818">
        <ele>684.65</ele>
        <time>2026-08-21T09:27:51.688Z</time>
      </trkpt>
      <trkpt lat="45.06072" lon="2.42816">
        <ele>684.94</ele>
        <time>2026-08-21T09:27:51.778Z</time>
      </trkpt>
      <trkpt lat="45.06071" lon="2.42814">
        <ele>685.27</ele>
        <time>2026-08-21T09:27:53.706Z</time>
      </trkpt>
      <trkpt lat="45.0607" lon="2.42812">
        <ele>685.55</ele>
        <time>2026-08-21T09:27:54.694Z</time>
      </trkpt>
      <trkpt lat="45.0607" lon="2.4281">
        <ele>685.86</ele>
        <time>2026-08-21T09:27:55.694Z</time>
      </trkpt>
      <trkpt lat="45.06069" lon="2.42807">
        <ele>686.2</ele>
        <time>2026-08-21T09:27:56.695Z</time>
      </trkpt>
      <trkpt lat="45.06068" lon="2.42805">
        <ele>686.49</ele>
        <time>2026-08-21T09:27:57.698Z</time>
      </trkpt>
      <trkpt lat="45.06068" lon="2.42804">
        <ele>686.81</ele>
        <time>2026-08-21T09:27:58.766Z</time>
      </trkpt>
      <trkpt lat="45.06067" lon="2.42801">
        <ele>687.12</ele>
        <time>2026-08-21T09:27:59.700Z</time>
      </trkpt>
      <trkpt lat="45.06065" lon="2.42799">
        <ele>687.44</ele>
        <time>2026-08-21T09:28:00.336Z</time>
      </trkpt>
      <trkpt lat="45.06065" lon="2.42796">
        <ele>687.78</ele>
        <time>2026-08-21T09:28:01.702Z</time>
      </trkpt>
      <trkpt lat="45.06064" lon="2.42794">
        <ele>688.09</ele>
        <time>2026-08-21T09:28:02.702Z</time>
      </trkpt>
      <trkpt lat="45.06063" lon="2.42793">
        <ele>688.41</ele>
        <time>2026-08-21T09:28:03.703Z</time>
      </trkpt>
      <trkpt lat="45.06062" lon="2.4279">
        <ele>688.72</ele>
        <time>2026-08-21T09:28:04.705Z</time>
      </trkpt>
      <trkpt lat="45.0606" lon="2.42789">
        <ele>689.04</ele>
        <time>2026-08-21T09:28:05.705Z</time>
      </trkpt>
      <trkpt lat="45.06059" lon="2.42787">
        <ele>689.36</ele>
        <time>2026-08-21T09:28:06.707Z</time>
      </trkpt>
      <trkpt lat="45.06058" lon="2.42786">
        <ele>689.66</ele>
        <time>2026-08-21T09:28:07.708Z</time>
      </trkpt>
      <trkpt lat="45.06056" lon="2.42784">
        <ele>689.98</ele>
        <time>2026-08-21T09:28:08.709Z</time>
      </trkpt>
      <trkpt lat="45.06054" lon="2.42783">
        <ele>690.29</ele>
        <time>2026-08-21T09:28:09.711Z</time>
      </trkpt>
      <trkpt lat="45.06053" lon="2.42781">
        <ele>690.6</ele>
        <time>2026-08-21T09:28:10.713Z</time>
      </trkpt>
      <trkpt lat="45.06051" lon="2.42781">
        <ele>690.93</ele>
        <time>2026-08-21T09:28:11.714Z</time>
      </trkpt>
      <trkpt lat="45.06049" lon="2.4278">
        <ele>691.24</ele>
        <time>2026-08-21T09:28:12.716Z</time>
      </trkpt>
      <trkpt lat="45.06047" lon="2.42779">
        <ele>691.53</ele>
        <time>2026-08-21T09:28:13.717Z</time>
      </trkpt>
      <trkpt lat="45.06045" lon="2.42778">
        <ele>691.96</ele>
        <time>2026-08-21T09:28:14.719Z</time>
      </trkpt>
      <trkpt lat="45.06043" lon="2.42778">
        <ele>692.29</ele>
        <time>2026-08-21T09:28:15.721Z</time>
      </trkpt>
      <trkpt lat="45.06041" lon="2.42777">
        <ele>692.54</ele>
        <time>2026-08-21T09:28:16.722Z</time>
      </trkpt>
      <trkpt lat="45.06039" lon="2.42776">
        <ele>692.84</ele>
        <time>2026-08-21T09:28:17.722Z</time>
      </trkpt>
      <trkpt lat="45.06038" lon="2.42775">
        <ele>693.18</ele>
        <time>2026-08-21T09:28:18.724Z</time>
      </trkpt>
      <trkpt lat="45.06036" lon="2.42775">
        <ele>693.51</ele>
        <time>2026-08-21T09:28:19.728Z</time>
      </trkpt>
      <trkpt lat="45.06034" lon="2.42774">
        <ele>693.84</ele>
        <time>2026-08-21T09:28:20.726Z</time>
      </trkpt>
      <trkpt lat="45.06032" lon="2.42774">
        <ele>694.13</ele>
        <time>2026-08-21T09:28:21.727Z</time>
      </trkpt>
      <trkpt lat="45.0603" lon="2.42773">
        <ele>694.45</ele>
        <time>2026-08-21T09:28:22.738Z</time>
      </trkpt>
      <trkpt lat="45.06028" lon="2.42772">
        <ele>694.79</ele>
        <time>2026-08-21T09:28:23.701Z</time>
      </trkpt>
      <trkpt lat="45.06026" lon="2.42772">
        <ele>694.97</ele>
        <time>2026-08-21T09:28:24.732Z</time>
      </trkpt>
      <trkpt lat="45.06024" lon="2.42771">
        <ele>695.28</ele>
        <time>2026-08-21T09:28:25.735Z</time>
      </trkpt>
      <trkpt lat="45.06022" lon="2.42771">
        <ele>695.61</ele>
        <time>2026-08-21T09:28:26.739Z</time>
      </trkpt>
      <trkpt lat="45.06021" lon="2.42771">
        <ele>695.92</ele>
        <time>2026-08-21T09:28:27.736Z</time>
      </trkpt>
      <trkpt lat="45.06019" lon="2.4277">
        <ele>696.24</ele>
        <time>2026-08-21T09:28:28.738Z</time>
      </trkpt>
      <trkpt lat="45.06017" lon="2.4277">
        <ele>696.54</ele>
        <time>2026-08-21T09:28:28.833Z</time>
      </trkpt>
      <trkpt lat="45.06015" lon="2.42769">
        <ele>696.88</ele>
        <time>2026-08-21T09:28:30.669Z</time>
      </trkpt>
      <trkpt lat="45.06013" lon="2.42769">
        <ele>697.16</ele>
        <time>2026-08-21T09:28:31.744Z</time>
      </trkpt>
      <trkpt lat="45.06009" lon="2.42767">
        <ele>697.8</ele>
        <time>2026-08-21T09:28:33.747Z</time>
      </trkpt>
      <trkpt lat="45.06008" lon="2.42767">
        <ele>698.12</ele>
        <time>2026-08-21T09:28:34.749Z</time>
      </trkpt>
      <trkpt lat="45.06007" lon="2.42766">
        <ele>698.45</ele>
        <time>2026-08-21T09:28:35.751Z</time>
      </trkpt>
      <trkpt lat="45.06005" lon="2.42766">
        <ele>698.81</ele>
        <time>2026-08-21T09:28:36.752Z</time>
      </trkpt>
      <trkpt lat="45.06003" lon="2.42766">
        <ele>699.15</ele>
        <time>2026-08-21T09:28:37.754Z</time>
      </trkpt>
      <trkpt lat="45.06002" lon="2.42766">
        <ele>699.5</ele>
        <time>2026-08-21T09:28:38.755Z</time>
      </trkpt>
      <trkpt lat="45.06" lon="2.42765">
        <ele>699.79</ele>
        <time>2026-08-21T09:28:39.757Z</time>
      </trkpt>
      <trkpt lat="45.05996" lon="2.42764">
        <ele>700.36</ele>
        <time>2026-08-21T09:28:41.762Z</time>
      </trkpt>
      <trkpt lat="45.05994" lon="2.42765">
        <ele>700.63</ele>
        <time>2026-08-21T09:28:42.456Z</time>
      </trkpt>
      <trkpt lat="45.05993" lon="2.42765">
        <ele>700.93</ele>
        <time>2026-08-21T09:28:43.764Z</time>
      </trkpt>
      <trkpt lat="45.05991" lon="2.42765">
        <ele>701.23</ele>
        <time>2026-08-21T09:28:44.763Z</time>
      </trkpt>
      <trkpt lat="45.05989" lon="2.42765">
        <ele>701.56</ele>
        <time>2026-08-21T09:28:45.765Z</time>
      </trkpt>
      <trkpt lat="45.05987" lon="2.42764">
        <ele>701.89</ele>
        <time>2026-08-21T09:28:46.769Z</time>
      </trkpt>
      <trkpt lat="45.05986" lon="2.42764">
        <ele>702.13</ele>
        <time>2026-08-21T09:28:47.769Z</time>
      </trkpt>
      <trkpt lat="45.05984" lon="2.42764">
        <ele>702.45</ele>
        <time>2026-08-21T09:28:48.771Z</time>
      </trkpt>
      <trkpt lat="45.0598" lon="2.42764">
        <ele>703.09</ele>
        <time>2026-08-21T09:28:50.775Z</time>
      </trkpt>
      <trkpt lat="45.05979" lon="2.42764">
        <ele>703.36</ele>
        <time>2026-08-21T09:28:51.777Z</time>
      </trkpt>
      <trkpt lat="45.05978" lon="2.42764">
        <ele>703.65</ele>
        <time>2026-08-21T09:28:52.530Z</time>
      </trkpt>
      <trkpt lat="45.05977" lon="2.42764">
        <ele>703.88</ele>
        <time>2026-08-21T09:28:53.668Z</time>
      </trkpt>
      <trkpt lat="45.05975" lon="2.42763">
        <ele>704.15</ele>
        <time>2026-08-21T09:28:54.785Z</time>
      </trkpt>
      <trkpt lat="45.05973" lon="2.42762">
        <ele>704.4</ele>
        <time>2026-08-21T09:28:55.789Z</time>
      </trkpt>
      <trkpt lat="45.05972" lon="2.42761">
        <ele>704.69</ele>
        <time>2026-08-21T09:28:56.788Z</time>
      </trkpt>
      <trkpt lat="45.0597" lon="2.42761">
        <ele>704.93</ele>
        <time>2026-08-21T09:28:57.693Z</time>
      </trkpt>
      <trkpt lat="45.05969" lon="2.4276">
        <ele>705.2</ele>
        <time>2026-08-21T09:28:58.794Z</time>
      </trkpt>
      <trkpt lat="45.05967" lon="2.42759">
        <ele>705.47</ele>
        <time>2026-08-21T09:28:59.796Z</time>
      </trkpt>
      <trkpt lat="45.05965" lon="2.42758">
        <ele>705.69</ele>
        <time>2026-08-21T09:29:00.797Z</time>
      </trkpt>
      <trkpt lat="45.05964" lon="2.42758">
        <ele>705.98</ele>
        <time>2026-08-21T09:29:01.799Z</time>
      </trkpt>
      <trkpt lat="45.05959" lon="2.42756">
        <ele>706.5</ele>
        <time>2026-08-21T09:29:03.803Z</time>
      </trkpt>
      <trkpt lat="45.05956" lon="2.42754">
        <ele>706.98</ele>
        <time>2026-08-21T09:29:05.805Z</time>
      </trkpt>
      <trkpt lat="45.05954" lon="2.42753">
        <ele>707.2</ele>
        <time>2026-08-21T09:29:06.697Z</time>
      </trkpt>
      <trkpt lat="45.05953" lon="2.42753">
        <ele>707.39</ele>
        <time>2026-08-21T09:29:07.811Z</time>
      </trkpt>
      <trkpt lat="45.05951" lon="2.42752">
        <ele>707.62</ele>
        <time>2026-08-21T09:29:08.813Z</time>
      </trkpt>
      <trkpt lat="45.05949" lon="2.42751">
        <ele>707.87</ele>
        <time>2026-08-21T09:29:09.814Z</time>
      </trkpt>
      <trkpt lat="45.05948" lon="2.4275">
        <ele>708.11</ele>
        <time>2026-08-21T09:29:10.816Z</time>
      </trkpt>
      <trkpt lat="45.05946" lon="2.4275">
        <ele>708.36</ele>
        <time>2026-08-21T09:29:11.816Z</time>
      </trkpt>
      <trkpt lat="45.05944" lon="2.42749">
        <ele>708.59</ele>
        <time>2026-08-21T09:29:12.819Z</time>
      </trkpt>
      <trkpt lat="45.05942" lon="2.42748">
        <ele>708.85</ele>
        <time>2026-08-21T09:29:13.821Z</time>
      </trkpt>
      <trkpt lat="45.0594" lon="2.42747">
        <ele>709.09</ele>
        <time>2026-08-21T09:29:14.821Z</time>
      </trkpt>
      <trkpt lat="45.05939" lon="2.42746">
        <ele>709.31</ele>
        <time>2026-08-21T09:29:15.691Z</time>
      </trkpt>
      <trkpt lat="45.05936" lon="2.42745">
        <ele>709.53</ele>
        <time>2026-08-21T09:29:15.899Z</time>
      </trkpt>
      <trkpt lat="45.05935" lon="2.42745">
        <ele>709.78</ele>
        <time>2026-08-21T09:29:17.826Z</time>
      </trkpt>
      <trkpt lat="45.05933" lon="2.42744">
        <ele>709.98</ele>
        <time>2026-08-21T09:29:17.896Z</time>
      </trkpt>
      <trkpt lat="45.05931" lon="2.42743">
        <ele>710.21</ele>
        <time>2026-08-21T09:29:18.905Z</time>
      </trkpt>
      <trkpt lat="45.05929" lon="2.42742">
        <ele>710.45</ele>
        <time>2026-08-21T09:29:20.832Z</time>
      </trkpt>
      <trkpt lat="45.05927" lon="2.42741">
        <ele>710.9</ele>
        <time>2026-08-21T09:29:22.835Z</time>
      </trkpt>
      <trkpt lat="45.05926" lon="2.42741">
        <ele>711.06</ele>
        <time>2026-08-21T09:29:22.927Z</time>
      </trkpt>
      <trkpt lat="45.05925" lon="2.42741">
        <ele>711.24</ele>
        <time>2026-08-21T09:29:23.929Z</time>
      </trkpt>
      <trkpt lat="45.05925" lon="2.4274">
        <ele>711.45</ele>
        <time>2026-08-21T09:29:24.940Z</time>
      </trkpt>
      <trkpt lat="45.0592" lon="2.42739">
        <ele>711.45</ele>
        <time>2026-08-21T09:29:26.914Z</time>
      </trkpt>
      <trkpt lat="45.05919" lon="2.42738">
        <ele>712.14</ele>
        <time>2026-08-21T09:29:28.717Z</time>
      </trkpt>
      <trkpt lat="45.05917" lon="2.42737">
        <ele>712.37</ele>
        <time>2026-08-21T09:29:28.926Z</time>
      </trkpt>
      <trkpt lat="45.05916" lon="2.42736">
        <ele>712.6</ele>
        <time>2026-08-21T09:29:29.922Z</time>
      </trkpt>
      <trkpt lat="45.05914" lon="2.42735">
        <ele>712.86</ele>
        <time>2026-08-21T09:29:30.920Z</time>
      </trkpt>
      <trkpt lat="45.05912" lon="2.42734">
        <ele>713.08</ele>
        <time>2026-08-21T09:29:31.932Z</time>
      </trkpt>
      <trkpt lat="45.05911" lon="2.42733">
        <ele>713.32</ele>
        <time>2026-08-21T09:29:32.945Z</time>
      </trkpt>
      <trkpt lat="45.05908" lon="2.42732">
        <ele>713.53</ele>
        <time>2026-08-21T09:29:34.491Z</time>
      </trkpt>
      <trkpt lat="45.05907" lon="2.42731">
        <ele>713.75</ele>
        <time>2026-08-21T09:29:34.916Z</time>
      </trkpt>
      <trkpt lat="45.05905" lon="2.42729">
        <ele>713.98</ele>
        <time>2026-08-21T09:29:35.918Z</time>
      </trkpt>
      <trkpt lat="45.05904" lon="2.42728">
        <ele>714.23</ele>
        <time>2026-08-21T09:29:37.720Z</time>
      </trkpt>
      <trkpt lat="45.05902" lon="2.42727">
        <ele>714.43</ele>
        <time>2026-08-21T09:29:37.922Z</time>
      </trkpt>
      <trkpt lat="45.05901" lon="2.42725">
        <ele>714.61</ele>
        <time>2026-08-21T09:29:39.263Z</time>
      </trkpt>
      <trkpt lat="45.05899" lon="2.42724">
        <ele>714.84</ele>
        <time>2026-08-21T09:29:39.909Z</time>
      </trkpt>
      <trkpt lat="45.05896" lon="2.4272">
        <ele>715.29</ele>
        <time>2026-08-21T09:29:42.771Z</time>
      </trkpt>
      <trkpt lat="45.05895" lon="2.42719">
        <ele>715.52</ele>
        <time>2026-08-21T09:29:43.774Z</time>
      </trkpt>
      <trkpt lat="45.05894" lon="2.42718">
        <ele>715.71</ele>
        <time>2026-08-21T09:29:44.776Z</time>
      </trkpt>
      <trkpt lat="45.05893" lon="2.42717">
        <ele>715.92</ele>
        <time>2026-08-21T09:29:45.776Z</time>
      </trkpt>
      <trkpt lat="45.05891" lon="2.42715">
        <ele>716.16</ele>
        <time>2026-08-21T09:29:46.778Z</time>
      </trkpt>
      <trkpt lat="45.05891" lon="2.42713">
        <ele>716.42</ele>
        <time>2026-08-21T09:29:47.780Z</time>
      </trkpt>
      <trkpt lat="45.0589" lon="2.42712">
        <ele>716.65</ele>
        <time>2026-08-21T09:29:48.784Z</time>
      </trkpt>
      <trkpt lat="45.05889" lon="2.4271">
        <ele>716.9</ele>
        <time>2026-08-21T09:29:49.785Z</time>
      </trkpt>
      <trkpt lat="45.05886" lon="2.42706">
        <ele>717.33</ele>
        <time>2026-08-21T09:29:51.788Z</time>
      </trkpt>
      <trkpt lat="45.05886" lon="2.42704">
        <ele>717.51</ele>
        <time>2026-08-21T09:29:52.791Z</time>
      </trkpt>
      <trkpt lat="45.05885" lon="2.42703">
        <ele>717.72</ele>
        <time>2026-08-21T09:29:53.792Z</time>
      </trkpt>
      <trkpt lat="45.05884" lon="2.42702">
        <ele>717.87</ele>
        <time>2026-08-21T09:29:54.794Z</time>
      </trkpt>
      <trkpt lat="45.05883" lon="2.427">
        <ele>718.07</ele>
        <time>2026-08-21T09:29:55.796Z</time>
      </trkpt>
      <trkpt lat="45.05883" lon="2.42698">
        <ele>718.26</ele>
        <time>2026-08-21T09:29:56.798Z</time>
      </trkpt>
      <trkpt lat="45.05882" lon="2.42696">
        <ele>718.46</ele>
        <time>2026-08-21T09:29:57.800Z</time>
      </trkpt>
      <trkpt lat="45.05881" lon="2.42694">
        <ele>718.69</ele>
        <time>2026-08-21T09:29:57.899Z</time>
      </trkpt>
      <trkpt lat="45.05881" lon="2.42692">
        <ele>718.91</ele>
        <time>2026-08-21T09:29:59.804Z</time>
      </trkpt>
      <trkpt lat="45.0588" lon="2.42687">
        <ele>719.31</ele>
        <time>2026-08-21T09:30:01.809Z</time>
      </trkpt>
      <trkpt lat="45.0588" lon="2.42685">
        <ele>719.53</ele>
        <time>2026-08-21T09:30:02.811Z</time>
      </trkpt>
      <trkpt lat="45.05879" lon="2.42683">
        <ele>719.7</ele>
        <time>2026-08-21T09:30:03.813Z</time>
      </trkpt>
      <trkpt lat="45.05878" lon="2.42681">
        <ele>719.9</ele>
        <time>2026-08-21T09:30:03.910Z</time>
      </trkpt>
      <trkpt lat="45.05878" lon="2.42679">
        <ele>720.13</ele>
        <time>2026-08-21T09:30:05.819Z</time>
      </trkpt>
      <trkpt lat="45.05877" lon="2.42677">
        <ele>720.35</ele>
        <time>2026-08-21T09:30:06.823Z</time>
      </trkpt>
      <trkpt lat="45.05877" lon="2.42676">
        <ele>720.57</ele>
        <time>2026-08-21T09:30:07.822Z</time>
      </trkpt>
      <trkpt lat="45.05876" lon="2.42674">
        <ele>720.78</ele>
        <time>2026-08-21T09:30:08.826Z</time>
      </trkpt>
      <trkpt lat="45.05876" lon="2.42672">
        <ele>720.98</ele>
        <time>2026-08-21T09:30:09.421Z</time>
      </trkpt>
      <trkpt lat="45.05875" lon="2.42671">
        <ele>721.17</ele>
        <time>2026-08-21T09:30:09.923Z</time>
      </trkpt>
      <trkpt lat="45.05875" lon="2.42669">
        <ele>721.4</ele>
        <time>2026-08-21T09:30:11.830Z</time>
      </trkpt>
      <trkpt lat="45.05875" lon="2.42667">
        <ele>721.59</ele>
        <time>2026-08-21T09:30:12.830Z</time>
      </trkpt>
      <trkpt lat="45.05874" lon="2.42665">
        <ele>721.79</ele>
        <time>2026-08-21T09:30:12.917Z</time>
      </trkpt>
      <trkpt lat="45.05874" lon="2.42662">
        <ele>721.99</ele>
        <time>2026-08-21T09:30:13.920Z</time>
      </trkpt>
      <trkpt lat="45.05873" lon="2.4266">
        <ele>722.21</ele>
        <time>2026-08-21T09:30:14.919Z</time>
      </trkpt>
      <trkpt lat="45.05873" lon="2.42658">
        <ele>722.42</ele>
        <time>2026-08-21T09:30:16.839Z</time>
      </trkpt>
      <trkpt lat="45.05872" lon="2.42655">
        <ele>722.63</ele>
        <time>2026-08-21T09:30:17.853Z</time>
      </trkpt>
      <trkpt lat="45.05872" lon="2.42653">
        <ele>722.79</ele>
        <time>2026-08-21T09:30:18.841Z</time>
      </trkpt>
      <trkpt lat="45.05871" lon="2.4265">
        <ele>723.02</ele>
        <time>2026-08-21T09:30:18.904Z</time>
      </trkpt>
      <trkpt lat="45.0587" lon="2.42648">
        <ele>723.25</ele>
        <time>2026-08-21T09:30:19.939Z</time>
      </trkpt>
      <trkpt lat="45.05869" lon="2.42645">
        <ele>723.45</ele>
        <time>2026-08-21T09:30:21.847Z</time>
      </trkpt>
      <trkpt lat="45.05869" lon="2.42643">
        <ele>723.69</ele>
        <time>2026-08-21T09:30:21.911Z</time>
      </trkpt>
      <trkpt lat="45.05867" lon="2.4264">
        <ele>723.89</ele>
        <time>2026-08-21T09:30:23.851Z</time>
      </trkpt>
      <trkpt lat="45.05867" lon="2.42638">
        <ele>724.1</ele>
        <time>2026-08-21T09:30:23.934Z</time>
      </trkpt>
      <trkpt lat="45.05866" lon="2.42635">
        <ele>724.29</ele>
        <time>2026-08-21T09:30:24.919Z</time>
      </trkpt>
      <trkpt lat="45.05865" lon="2.42632">
        <ele>724.49</ele>
        <time>2026-08-21T09:30:25.944Z</time>
      </trkpt>
      <trkpt lat="45.05864" lon="2.4263">
        <ele>724.7</ele>
        <time>2026-08-21T09:30:27.858Z</time>
      </trkpt>
      <trkpt lat="45.05863" lon="2.42627">
        <ele>724.92</ele>
        <time>2026-08-21T09:30:27.933Z</time>
      </trkpt>
      <trkpt lat="45.05861" lon="2.42619">
        <ele>725.36</ele>
        <time>2026-08-21T09:30:30.862Z</time>
      </trkpt>
      <trkpt lat="45.05861" lon="2.42617">
        <ele>725.58</ele>
        <time>2026-08-21T09:30:31.862Z</time>
      </trkpt>
      <trkpt lat="45.0586" lon="2.42614">
        <ele>725.81</ele>
        <time>2026-08-21T09:30:31.925Z</time>
      </trkpt>
      <trkpt lat="45.05859" lon="2.42611">
        <ele>726.03</ele>
        <time>2026-08-21T09:30:33.865Z</time>
      </trkpt>
      <trkpt lat="45.05858" lon="2.42608">
        <ele>726.24</ele>
        <time>2026-08-21T09:30:34.744Z</time>
      </trkpt>
      <trkpt lat="45.05857" lon="2.42605">
        <ele>726.44</ele>
        <time>2026-08-21T09:30:34.929Z</time>
      </trkpt>
      <trkpt lat="45.05854" lon="2.42599">
        <ele>726.81</ele>
        <time>2026-08-21T09:30:37.874Z</time>
      </trkpt>
      <trkpt lat="45.05853" lon="2.42598">
        <ele>727.02</ele>
        <time>2026-08-21T09:30:38.923Z</time>
      </trkpt>
      <trkpt lat="45.05851" lon="2.42596">
        <ele>727.22</ele>
        <time>2026-08-21T09:30:39.877Z</time>
      </trkpt>
      <trkpt lat="45.05848" lon="2.42592">
        <ele>727.62</ele>
        <time>2026-08-21T09:30:41.883Z</time>
      </trkpt>
      <trkpt lat="45.05847" lon="2.4259">
        <ele>727.82</ele>
        <time>2026-08-21T09:30:42.905Z</time>
      </trkpt>
      <trkpt lat="45.05846" lon="2.42589">
        <ele>728.02</ele>
        <time>2026-08-21T09:30:43.885Z</time>
      </trkpt>
      <trkpt lat="45.05845" lon="2.42587">
        <ele>728.22</ele>
        <time>2026-08-21T09:30:44.887Z</time>
      </trkpt>
      <trkpt lat="45.05843" lon="2.42585">
        <ele>728.42</ele>
        <time>2026-08-21T09:30:45.891Z</time>
      </trkpt>
      <trkpt lat="45.05842" lon="2.42583">
        <ele>728.63</ele>
        <time>2026-08-21T09:30:46.891Z</time>
      </trkpt>
      <trkpt lat="45.05841" lon="2.42581">
        <ele>728.81</ele>
        <time>2026-08-21T09:30:47.893Z</time>
      </trkpt>
      <trkpt lat="45.0584" lon="2.42578">
        <ele>729.01</ele>
        <time>2026-08-21T09:30:48.896Z</time>
      </trkpt>
      <trkpt lat="45.05838" lon="2.42576">
        <ele>729.22</ele>
        <time>2026-08-21T09:30:49.898Z</time>
      </trkpt>
      <trkpt lat="45.05835" lon="2.42571">
        <ele>729.65</ele>
        <time>2026-08-21T09:30:51.904Z</time>
      </trkpt>
      <trkpt lat="45.05834" lon="2.42569">
        <ele>729.87</ele>
        <time>2026-08-21T09:30:52.902Z</time>
      </trkpt>
      <trkpt lat="45.05832" lon="2.42568">
        <ele>730.11</ele>
        <time>2026-08-21T09:30:53.906Z</time>
      </trkpt>
      <trkpt lat="45.05831" lon="2.42565">
        <ele>730.31</ele>
        <time>2026-08-21T09:30:54.906Z</time>
      </trkpt>
      <trkpt lat="45.0583" lon="2.42563">
        <ele>730.52</ele>
        <time>2026-08-21T09:30:55.908Z</time>
      </trkpt>
      <trkpt lat="45.05829" lon="2.42561">
        <ele>730.71</ele>
        <time>2026-08-21T09:30:56.910Z</time>
      </trkpt>
      <trkpt lat="45.05827" lon="2.42558">
        <ele>730.91</ele>
        <time>2026-08-21T09:30:57.912Z</time>
      </trkpt>
      <trkpt lat="45.05826" lon="2.42556">
        <ele>731.12</ele>
        <time>2026-08-21T09:30:58.656Z</time>
      </trkpt>
      <trkpt lat="45.05824" lon="2.42554">
        <ele>731.33</ele>
        <time>2026-08-21T09:30:59.915Z</time>
      </trkpt>
      <trkpt lat="45.05823" lon="2.42552">
        <ele>731.55</ele>
        <time>2026-08-21T09:31:00.916Z</time>
      </trkpt>
      <trkpt lat="45.05822" lon="2.4255">
        <ele>731.74</ele>
        <time>2026-08-21T09:31:01.923Z</time>
      </trkpt>
      <trkpt lat="45.05821" lon="2.42547">
        <ele>731.97</ele>
        <time>2026-08-21T09:31:02.919Z</time>
      </trkpt>
      <trkpt lat="45.0582" lon="2.42545">
        <ele>732.2</ele>
        <time>2026-08-21T09:31:03.919Z</time>
      </trkpt>
      <trkpt lat="45.05819" lon="2.42543">
        <ele>732.39</ele>
        <time>2026-08-21T09:31:04.929Z</time>
      </trkpt>
      <trkpt lat="45.05817" lon="2.42541">
        <ele>732.6</ele>
        <time>2026-08-21T09:31:05.471Z</time>
      </trkpt>
      <trkpt lat="45.05816" lon="2.42539">
        <ele>732.79</ele>
        <time>2026-08-21T09:31:06.926Z</time>
      </trkpt>
      <trkpt lat="45.05814" lon="2.42534">
        <ele>733.19</ele>
        <time>2026-08-21T09:31:08.932Z</time>
      </trkpt>
      <trkpt lat="45.05813" lon="2.42532">
        <ele>733.4</ele>
        <time>2026-08-21T09:31:09.931Z</time>
      </trkpt>
      <trkpt lat="45.05813" lon="2.4253">
        <ele>733.62</ele>
        <time>2026-08-21T09:31:10.774Z</time>
      </trkpt>
      <trkpt lat="45.05812" lon="2.42528">
        <ele>733.84</ele>
        <time>2026-08-21T09:31:11.931Z</time>
      </trkpt>
      <trkpt lat="45.05811" lon="2.42525">
        <ele>734</ele>
        <time>2026-08-21T09:31:12.932Z</time>
      </trkpt>
      <trkpt lat="45.05809" lon="2.42523">
        <ele>734.2</ele>
        <time>2026-08-21T09:31:13.935Z</time>
      </trkpt>
      <trkpt lat="45.05808" lon="2.42522">
        <ele>734.37</ele>
        <time>2026-08-21T09:31:14.882Z</time>
      </trkpt>
      <trkpt lat="45.05807" lon="2.4252">
        <ele>734.54</ele>
        <time>2026-08-21T09:31:15.937Z</time>
      </trkpt>
      <trkpt lat="45.05806" lon="2.42517">
        <ele>734.74</ele>
        <time>2026-08-21T09:31:16.940Z</time>
      </trkpt>
      <trkpt lat="45.05805" lon="2.42515">
        <ele>734.93</ele>
        <time>2026-08-21T09:31:17.613Z</time>
      </trkpt>
      <trkpt lat="45.05804" lon="2.42513">
        <ele>735.13</ele>
        <time>2026-08-21T09:31:18.942Z</time>
      </trkpt>
      <trkpt lat="45.05803" lon="2.42511">
        <ele>735.33</ele>
        <time>2026-08-21T09:31:19.769Z</time>
      </trkpt>
      <trkpt lat="45.05802" lon="2.42509">
        <ele>735.52</ele>
        <time>2026-08-21T09:31:20.944Z</time>
      </trkpt>
      <trkpt lat="45.05801" lon="2.42506">
        <ele>735.71</ele>
        <time>2026-08-21T09:31:21.943Z</time>
      </trkpt>
      <trkpt lat="45.058" lon="2.42504">
        <ele>735.91</ele>
        <time>2026-08-21T09:31:22.951Z</time>
      </trkpt>
      <trkpt lat="45.05799" lon="2.42503">
        <ele>736.11</ele>
        <time>2026-08-21T09:31:23.958Z</time>
      </trkpt>
      <trkpt lat="45.05797" lon="2.42501">
        <ele>736.32</ele>
        <time>2026-08-21T09:31:24.939Z</time>
      </trkpt>
      <trkpt lat="45.05796" lon="2.425">
        <ele>736.52</ele>
        <time>2026-08-21T09:31:25.951Z</time>
      </trkpt>
      <trkpt lat="45.05793" lon="2.42496">
        <ele>736.87</ele>
        <time>2026-08-21T09:31:27.955Z</time>
      </trkpt>
      <trkpt lat="45.05791" lon="2.42492">
        <ele>737.2</ele>
        <time>2026-08-21T09:31:29.958Z</time>
      </trkpt>
      <trkpt lat="45.05788" lon="2.42489">
        <ele>737.57</ele>
        <time>2026-08-21T09:31:31.041Z</time>
      </trkpt>
      <trkpt lat="45.05785" lon="2.42485">
        <ele>737.92</ele>
        <time>2026-08-21T09:31:33.489Z</time>
      </trkpt>
      <trkpt lat="45.05783" lon="2.42482">
        <ele>738.3</ele>
        <time>2026-08-21T09:31:35.582Z</time>
      </trkpt>
      <trkpt lat="45.05782" lon="2.42481">
        <ele>738.51</ele>
        <time>2026-08-21T09:31:36.007Z</time>
      </trkpt>
      <trkpt lat="45.05781" lon="2.4248">
        <ele>738.69</ele>
        <time>2026-08-21T09:31:37.068Z</time>
      </trkpt>
      <trkpt lat="45.0578" lon="2.42479">
        <ele>738.88</ele>
        <time>2026-08-21T09:31:38.046Z</time>
      </trkpt>
      <trkpt lat="45.05779" lon="2.42477">
        <ele>739.07</ele>
        <time>2026-08-21T09:31:39.073Z</time>
      </trkpt>
      <trkpt lat="45.05777" lon="2.42475">
        <ele>739.26</ele>
        <time>2026-08-21T09:31:40.051Z</time>
      </trkpt>
      <trkpt lat="45.05776" lon="2.42474">
        <ele>739.44</ele>
        <time>2026-08-21T09:31:41.049Z</time>
      </trkpt>
      <trkpt lat="45.05774" lon="2.42473">
        <ele>739.62</ele>
        <time>2026-08-21T09:31:42.046Z</time>
      </trkpt>
      <trkpt lat="45.05772" lon="2.42471">
        <ele>739.79</ele>
        <time>2026-08-21T09:31:43.072Z</time>
      </trkpt>
      <trkpt lat="45.05771" lon="2.4247">
        <ele>739.99</ele>
        <time>2026-08-21T09:31:44.067Z</time>
      </trkpt>
      <trkpt lat="45.0577" lon="2.42468">
        <ele>740.2</ele>
        <time>2026-08-21T09:31:45.033Z</time>
      </trkpt>
      <trkpt lat="45.05767" lon="2.42463">
        <ele>740.58</ele>
        <time>2026-08-21T09:31:47.066Z</time>
      </trkpt>
      <trkpt lat="45.05766" lon="2.42461">
        <ele>740.78</ele>
        <time>2026-08-21T09:31:48.071Z</time>
      </trkpt>
      <trkpt lat="45.05765" lon="2.4246">
        <ele>740.98</ele>
        <time>2026-08-21T09:31:49.056Z</time>
      </trkpt>
      <trkpt lat="45.05763" lon="2.42459">
        <ele>741.2</ele>
        <time>2026-08-21T09:31:50.942Z</time>
      </trkpt>
      <trkpt lat="45.05762" lon="2.42458">
        <ele>741.41</ele>
        <time>2026-08-21T09:31:51.080Z</time>
      </trkpt>
      <trkpt lat="45.05761" lon="2.42457">
        <ele>741.64</ele>
        <time>2026-08-21T09:31:52.063Z</time>
      </trkpt>
      <trkpt lat="45.05759" lon="2.42455">
        <ele>741.88</ele>
        <time>2026-08-21T09:31:53.092Z</time>
      </trkpt>
      <trkpt lat="45.05758" lon="2.42454">
        <ele>742.1</ele>
        <time>2026-08-21T09:31:54.077Z</time>
      </trkpt>
      <trkpt lat="45.05756" lon="2.42453">
        <ele>742.31</ele>
        <time>2026-08-21T09:31:55.083Z</time>
      </trkpt>
      <trkpt lat="45.05755" lon="2.42451">
        <ele>742.52</ele>
        <time>2026-08-21T09:31:56.071Z</time>
      </trkpt>
      <trkpt lat="45.05753" lon="2.4245">
        <ele>742.74</ele>
        <time>2026-08-21T09:31:57.949Z</time>
      </trkpt>
      <trkpt lat="45.05751" lon="2.42449">
        <ele>742.97</ele>
        <time>2026-08-21T09:31:58.068Z</time>
      </trkpt>
      <trkpt lat="45.0575" lon="2.42447">
        <ele>743.18</ele>
        <time>2026-08-21T09:31:59.081Z</time>
      </trkpt>
      <trkpt lat="45.05748" lon="2.42446">
        <ele>743.4</ele>
        <time>2026-08-21T09:32:00.075Z</time>
      </trkpt>
      <trkpt lat="45.05747" lon="2.42444">
        <ele>743.64</ele>
        <time>2026-08-21T09:32:01.057Z</time>
      </trkpt>
      <trkpt lat="45.05745" lon="2.42443">
        <ele>743.87</ele>
        <time>2026-08-21T09:32:02.072Z</time>
      </trkpt>
      <trkpt lat="45.05743" lon="2.42441">
        <ele>744.1</ele>
        <time>2026-08-21T09:32:03.068Z</time>
      </trkpt>
      <trkpt lat="45.05742" lon="2.42439">
        <ele>744.33</ele>
        <time>2026-08-21T09:32:04.078Z</time>
      </trkpt>
      <trkpt lat="45.05741" lon="2.42438">
        <ele>744.58</ele>
        <time>2026-08-21T09:32:05.077Z</time>
      </trkpt>
      <trkpt lat="45.05739" lon="2.42436">
        <ele>744.81</ele>
        <time>2026-08-21T09:32:06.083Z</time>
      </trkpt>
      <trkpt lat="45.05737" lon="2.42435">
        <ele>745.04</ele>
        <time>2026-08-21T09:32:07.074Z</time>
      </trkpt>
      <trkpt lat="45.05736" lon="2.42433">
        <ele>745.27</ele>
        <time>2026-08-21T09:32:08.076Z</time>
      </trkpt>
      <trkpt lat="45.05735" lon="2.42432">
        <ele>745.51</ele>
        <time>2026-08-21T09:32:09.063Z</time>
      </trkpt>
      <trkpt lat="45.05733" lon="2.4243">
        <ele>745.75</ele>
        <time>2026-08-21T09:32:10.079Z</time>
      </trkpt>
      <trkpt lat="45.05732" lon="2.42429">
        <ele>745.99</ele>
        <time>2026-08-21T09:32:11.076Z</time>
      </trkpt>
      <trkpt lat="45.0573" lon="2.42427">
        <ele>746.22</ele>
        <time>2026-08-21T09:32:12.077Z</time>
      </trkpt>
      <trkpt lat="45.05727" lon="2.42423">
        <ele>746.45</ele>
        <time>2026-08-21T09:32:14.059Z</time>
      </trkpt>
      <trkpt lat="45.05726" lon="2.42421">
        <ele>746.88</ele>
        <time>2026-08-21T09:32:15.065Z</time>
      </trkpt>
      <trkpt lat="45.05724" lon="2.42419">
        <ele>747.12</ele>
        <time>2026-08-21T09:32:16.066Z</time>
      </trkpt>
      <trkpt lat="45.05723" lon="2.42417">
        <ele>747.34</ele>
        <time>2026-08-21T09:32:17.074Z</time>
      </trkpt>
      <trkpt lat="45.05721" lon="2.42415">
        <ele>747.56</ele>
        <time>2026-08-21T09:32:18.076Z</time>
      </trkpt>
      <trkpt lat="45.05718" lon="2.42411">
        <ele>747.8</ele>
        <time>2026-08-21T09:32:20.062Z</time>
      </trkpt>
      <trkpt lat="45.05717" lon="2.42409">
        <ele>748.25</ele>
        <time>2026-08-21T09:32:20.941Z</time>
      </trkpt>
      <trkpt lat="45.05716" lon="2.42407">
        <ele>748.48</ele>
        <time>2026-08-21T09:32:22.083Z</time>
      </trkpt>
      <trkpt lat="45.05714" lon="2.42405">
        <ele>748.7</ele>
        <time>2026-08-21T09:32:23.075Z</time>
      </trkpt>
      <trkpt lat="45.05711" lon="2.424">
        <ele>749.16</ele>
        <time>2026-08-21T09:32:25.862Z</time>
      </trkpt>
      <trkpt lat="45.05708" lon="2.42396">
        <ele>749.63</ele>
        <time>2026-08-21T09:32:28.070Z</time>
      </trkpt>
      <trkpt lat="45.05706" lon="2.42394">
        <ele>750.08</ele>
        <time>2026-08-21T09:32:29.073Z</time>
      </trkpt>
      <trkpt lat="45.05704" lon="2.42391">
        <ele>750.31</ele>
        <time>2026-08-21T09:32:31.077Z</time>
      </trkpt>
      <trkpt lat="45.05703" lon="2.4239">
        <ele>750.8</ele>
        <time>2026-08-21T09:32:32.069Z</time>
      </trkpt>
      <trkpt lat="45.05699" lon="2.42386">
        <ele>751.29</ele>
        <time>2026-08-21T09:32:33.603Z</time>
      </trkpt>
      <trkpt lat="45.05697" lon="2.42383">
        <ele>751.5</ele>
        <time>2026-08-21T09:32:36.061Z</time>
      </trkpt>
      <trkpt lat="45.05696" lon="2.42382">
        <ele>751.92</ele>
        <time>2026-08-21T09:32:36.662Z</time>
      </trkpt>
      <trkpt lat="45.05694" lon="2.4238">
        <ele>752.15</ele>
        <time>2026-08-21T09:32:37.654Z</time>
      </trkpt>
      <trkpt lat="45.05693" lon="2.42379">
        <ele>752.38</ele>
        <time>2026-08-21T09:32:38.679Z</time>
      </trkpt>
      <trkpt lat="45.05692" lon="2.42377">
        <ele>752.59</ele>
        <time>2026-08-21T09:32:39.635Z</time>
      </trkpt>
      <trkpt lat="45.0569" lon="2.42376">
        <ele>752.82</ele>
        <time>2026-08-21T09:32:40.674Z</time>
      </trkpt>
      <trkpt lat="45.05689" lon="2.42374">
        <ele>753.04</ele>
        <time>2026-08-21T09:32:41.643Z</time>
      </trkpt>
      <trkpt lat="45.05688" lon="2.42372">
        <ele>753.24</ele>
        <time>2026-08-21T09:32:42.660Z</time>
      </trkpt>
      <trkpt lat="45.05687" lon="2.4237">
        <ele>753.45</ele>
        <time>2026-08-21T09:32:43.681Z</time>
      </trkpt>
      <trkpt lat="45.05686" lon="2.42367">
        <ele>753.65</ele>
        <time>2026-08-21T09:32:44.671Z</time>
      </trkpt>
      <trkpt lat="45.05685" lon="2.42365">
        <ele>753.85</ele>
        <time>2026-08-21T09:32:45.662Z</time>
      </trkpt>
      <trkpt lat="45.05685" lon="2.42362">
        <ele>754.04</ele>
        <time>2026-08-21T09:32:47.093Z</time>
      </trkpt>
      <trkpt lat="45.05685" lon="2.4236">
        <ele>754.22</ele>
        <time>2026-08-21T09:32:47.880Z</time>
      </trkpt>
      <trkpt lat="45.05686" lon="2.42357">
        <ele>754.4</ele>
        <time>2026-08-21T09:32:48.629Z</time>
      </trkpt>
      <trkpt lat="45.05687" lon="2.42355">
        <ele>754.61</ele>
        <time>2026-08-21T09:32:50.099Z</time>
      </trkpt>
      <trkpt lat="45.05689" lon="2.42353">
        <ele>754.8</ele>
        <time>2026-08-21T09:32:50.668Z</time>
      </trkpt>
      <trkpt lat="45.0569" lon="2.42351">
        <ele>755</ele>
        <time>2026-08-21T09:32:52.001Z</time>
      </trkpt>
      <trkpt lat="45.05691" lon="2.42349">
        <ele>755.21</ele>
        <time>2026-08-21T09:32:53.003Z</time>
      </trkpt>
      <trkpt lat="45.05694" lon="2.42344">
        <ele>755.6</ele>
        <time>2026-08-21T09:32:55.104Z</time>
      </trkpt>
      <trkpt lat="45.05695" lon="2.42342">
        <ele>755.83</ele>
        <time>2026-08-21T09:32:55.659Z</time>
      </trkpt>
      <trkpt lat="45.05696" lon="2.4234">
        <ele>756.04</ele>
        <time>2026-08-21T09:32:56.887Z</time>
      </trkpt>
      <trkpt lat="45.05697" lon="2.42338">
        <ele>756.24</ele>
        <time>2026-08-21T09:32:58.009Z</time>
      </trkpt>
      <trkpt lat="45.05698" lon="2.42337">
        <ele>756.44</ele>
        <time>2026-08-21T09:32:59.010Z</time>
      </trkpt>
      <trkpt lat="45.057" lon="2.42335">
        <ele>756.61</ele>
        <time>2026-08-21T09:33:00.014Z</time>
      </trkpt>
      <trkpt lat="45.05701" lon="2.42333">
        <ele>756.8</ele>
        <time>2026-08-21T09:33:01.013Z</time>
      </trkpt>
      <trkpt lat="45.05702" lon="2.42331">
        <ele>756.98</ele>
        <time>2026-08-21T09:33:02.014Z</time>
      </trkpt>
      <trkpt lat="45.05703" lon="2.42329">
        <ele>757.17</ele>
        <time>2026-08-21T09:33:03.030Z</time>
      </trkpt>
      <trkpt lat="45.05705" lon="2.42327">
        <ele>757.34</ele>
        <time>2026-08-21T09:33:04.024Z</time>
      </trkpt>
      <trkpt lat="45.05706" lon="2.42325">
        <ele>757.53</ele>
        <time>2026-08-21T09:33:05.019Z</time>
      </trkpt>
      <trkpt lat="45.05707" lon="2.42322">
        <ele>757.71</ele>
        <time>2026-08-21T09:33:06.022Z</time>
      </trkpt>
      <trkpt lat="45.05708" lon="2.4232">
        <ele>757.89</ele>
        <time>2026-08-21T09:33:07.022Z</time>
      </trkpt>
      <trkpt lat="45.0571" lon="2.42317">
        <ele>758.07</ele>
        <time>2026-08-21T09:33:08.024Z</time>
      </trkpt>
      <trkpt lat="45.05711" lon="2.42315">
        <ele>758.25</ele>
        <time>2026-08-21T09:33:09.025Z</time>
      </trkpt>
      <trkpt lat="45.05712" lon="2.42313">
        <ele>758.41</ele>
        <time>2026-08-21T09:33:10.028Z</time>
      </trkpt>
      <trkpt lat="45.05714" lon="2.4231">
        <ele>758.59</ele>
        <time>2026-08-21T09:33:11.028Z</time>
      </trkpt>
      <trkpt lat="45.05715" lon="2.42308">
        <ele>758.75</ele>
        <time>2026-08-21T09:33:12.033Z</time>
      </trkpt>
      <trkpt lat="45.05716" lon="2.42306">
        <ele>758.91</ele>
        <time>2026-08-21T09:33:13.035Z</time>
      </trkpt>
      <trkpt lat="45.05717" lon="2.42304">
        <ele>759.07</ele>
        <time>2026-08-21T09:33:14.034Z</time>
      </trkpt>
      <trkpt lat="45.05718" lon="2.42302">
        <ele>759.22</ele>
        <time>2026-08-21T09:33:15.035Z</time>
      </trkpt>
      <trkpt lat="45.05719" lon="2.423">
        <ele>759.37</ele>
        <time>2026-08-21T09:33:16.044Z</time>
      </trkpt>
      <trkpt lat="45.05721" lon="2.42295">
        <ele>759.68</ele>
        <time>2026-08-21T09:33:17.668Z</time>
      </trkpt>
      <trkpt lat="45.05722" lon="2.42294">
        <ele>759.84</ele>
        <time>2026-08-21T09:33:19.047Z</time>
      </trkpt>
      <trkpt lat="45.05722" lon="2.42293">
        <ele>759.99</ele>
        <time>2026-08-21T09:33:19.681Z</time>
      </trkpt>
      <trkpt lat="45.05723" lon="2.42291">
        <ele>760.14</ele>
        <time>2026-08-21T09:33:20.672Z</time>
      </trkpt>
      <trkpt lat="45.05724" lon="2.42289">
        <ele>760.27</ele>
        <time>2026-08-21T09:33:22.051Z</time>
      </trkpt>
      <trkpt lat="45.05723" lon="2.42285">
        <ele>760.73</ele>
        <time>2026-08-21T09:33:26.129Z</time>
      </trkpt>
      <trkpt lat="45.05721" lon="2.42282">
        <ele>760.94</ele>
        <time>2026-08-21T09:33:27.660Z</time>
      </trkpt>
      <trkpt lat="45.0572" lon="2.42281">
        <ele>761.05</ele>
        <time>2026-08-21T09:33:29.065Z</time>
      </trkpt>
      <trkpt lat="45.05718" lon="2.42278">
        <ele>761.27</ele>
        <time>2026-08-21T09:33:30.666Z</time>
      </trkpt>
      <trkpt lat="45.05716" lon="2.42278">
        <ele>761.37</ele>
        <time>2026-08-21T09:33:31.653Z</time>
      </trkpt>
      <trkpt lat="45.05715" lon="2.42277">
        <ele>761.47</ele>
        <time>2026-08-21T09:33:32.913Z</time>
      </trkpt>
      <trkpt lat="45.05714" lon="2.42277">
        <ele>761.57</ele>
        <time>2026-08-21T09:33:33.664Z</time>
      </trkpt>
      <trkpt lat="45.0571" lon="2.42278">
        <ele>761.76</ele>
        <time>2026-08-21T09:33:35.675Z</time>
      </trkpt>
      <trkpt lat="45.05709" lon="2.42278">
        <ele>761.86</ele>
        <time>2026-08-21T09:33:36.659Z</time>
      </trkpt>
      <trkpt lat="45.05707" lon="2.42279">
        <ele>761.95</ele>
        <time>2026-08-21T09:33:37.652Z</time>
      </trkpt>
      <trkpt lat="45.05705" lon="2.4228">
        <ele>762.04</ele>
        <time>2026-08-21T09:33:39.125Z</time>
      </trkpt>
      <trkpt lat="45.05703" lon="2.42281">
        <ele>762.13</ele>
        <time>2026-08-21T09:33:39.661Z</time>
      </trkpt>
      <trkpt lat="45.05701" lon="2.42282">
        <ele>762.2</ele>
        <time>2026-08-21T09:33:41.130Z</time>
      </trkpt>
      <trkpt lat="45.057" lon="2.42282">
        <ele>762.32</ele>
        <time>2026-08-21T09:33:42.088Z</time>
      </trkpt>
      <trkpt lat="45.05698" lon="2.42284">
        <ele>762.42</ele>
        <time>2026-08-21T09:33:43.090Z</time>
      </trkpt>
      <trkpt lat="45.05695" lon="2.42286">
        <ele>762.52</ele>
        <time>2026-08-21T09:33:43.653Z</time>
      </trkpt>
      <trkpt lat="45.05691" lon="2.42288">
        <ele>762.59</ele>
        <time>2026-08-21T09:33:45.094Z</time>
      </trkpt>
      <trkpt lat="45.05687" lon="2.4229">
        <ele>762.65</ele>
        <time>2026-08-21T09:33:46.095Z</time>
      </trkpt>
      <trkpt lat="45.05684" lon="2.42292">
        <ele>762.76</ele>
        <time>2026-08-21T09:33:47.100Z</time>
      </trkpt>
      <trkpt lat="45.05682" lon="2.42294">
        <ele>762.84</ele>
        <time>2026-08-21T09:33:48.099Z</time>
      </trkpt>
      <trkpt lat="45.05679" lon="2.42296">
        <ele>762.9</ele>
        <time>2026-08-21T09:33:49.138Z</time>
      </trkpt>
      <trkpt lat="45.05677" lon="2.42297">
        <ele>762.99</ele>
        <time>2026-08-21T09:33:49.200Z</time>
      </trkpt>
      <trkpt lat="45.05675" lon="2.42299">
        <ele>763.08</ele>
        <time>2026-08-21T09:33:51.150Z</time>
      </trkpt>
      <trkpt lat="45.05673" lon="2.42299">
        <ele>763.18</ele>
        <time>2026-08-21T09:33:52.108Z</time>
      </trkpt>
      <trkpt lat="45.05672" lon="2.423">
        <ele>763.27</ele>
        <time>2026-08-21T09:33:53.110Z</time>
      </trkpt>
      <trkpt lat="45.0567" lon="2.42301">
        <ele>763.36</ele>
        <time>2026-08-21T09:33:54.154Z</time>
      </trkpt>
      <trkpt lat="45.05668" lon="2.42303">
        <ele>763.52</ele>
        <time>2026-08-21T09:33:56.122Z</time>
      </trkpt>
      <trkpt lat="45.05665" lon="2.42305">
        <ele>763.67</ele>
        <time>2026-08-21T09:33:57.180Z</time>
      </trkpt>
      <trkpt lat="45.05664" lon="2.42305">
        <ele>763.75</ele>
        <time>2026-08-21T09:33:59.122Z</time>
      </trkpt>
      <trkpt lat="45.05663" lon="2.42306">
        <ele>763.83</ele>
        <time>2026-08-21T09:34:00.124Z</time>
      </trkpt>
      <trkpt lat="45.05659" lon="2.42309">
        <ele>763.98</ele>
        <time>2026-08-21T09:34:01.201Z</time>
      </trkpt>
      <trkpt lat="45.05658" lon="2.42309">
        <ele>764.05</ele>
        <time>2026-08-21T09:34:02.981Z</time>
      </trkpt>
      <trkpt lat="45.05656" lon="2.4231">
        <ele>764.13</ele>
        <time>2026-08-21T09:34:03.217Z</time>
      </trkpt>
      <trkpt lat="45.05655" lon="2.42311">
        <ele>764.21</ele>
        <time>2026-08-21T09:34:05.133Z</time>
      </trkpt>
      <trkpt lat="45.05653" lon="2.42311">
        <ele>764.28</ele>
        <time>2026-08-21T09:34:05.219Z</time>
      </trkpt>
      <trkpt lat="45.05651" lon="2.42312">
        <ele>764.35</ele>
        <time>2026-08-21T09:34:07.136Z</time>
      </trkpt>
      <trkpt lat="45.05649" lon="2.42314">
        <ele>764.42</ele>
        <time>2026-08-21T09:34:07.229Z</time>
      </trkpt>
      <trkpt lat="45.05647" lon="2.42314">
        <ele>764.5</ele>
        <time>2026-08-21T09:34:08.222Z</time>
      </trkpt>
      <trkpt lat="45.05645" lon="2.42315">
        <ele>764.57</ele>
        <time>2026-08-21T09:34:09.807Z</time>
      </trkpt>
      <trkpt lat="45.05643" lon="2.42316">
        <ele>764.64</ele>
        <time>2026-08-21T09:34:10.207Z</time>
      </trkpt>
      <trkpt lat="45.05642" lon="2.42317">
        <ele>764.7</ele>
        <time>2026-08-21T09:34:11.220Z</time>
      </trkpt>
      <trkpt lat="45.05639" lon="2.42318">
        <ele>764.78</ele>
        <time>2026-08-21T09:34:12.216Z</time>
      </trkpt>
      <trkpt lat="45.05637" lon="2.42319">
        <ele>764.84</ele>
        <time>2026-08-21T09:34:13.230Z</time>
      </trkpt>
      <trkpt lat="45.05635" lon="2.42319">
        <ele>764.89</ele>
        <time>2026-08-21T09:34:14.231Z</time>
      </trkpt>
      <trkpt lat="45.05633" lon="2.4232">
        <ele>764.96</ele>
        <time>2026-08-21T09:34:15.241Z</time>
      </trkpt>
      <trkpt lat="45.05631" lon="2.4232">
        <ele>765.03</ele>
        <time>2026-08-21T09:34:16.207Z</time>
      </trkpt>
      <trkpt lat="45.05628" lon="2.42321">
        <ele>765.1</ele>
        <time>2026-08-21T09:34:17.910Z</time>
      </trkpt>
      <trkpt lat="45.05626" lon="2.42321">
        <ele>765.17</ele>
        <time>2026-08-21T09:34:18.215Z</time>
      </trkpt>
      <trkpt lat="45.05624" lon="2.42321">
        <ele>765.24</ele>
        <time>2026-08-21T09:34:19.234Z</time>
      </trkpt>
      <trkpt lat="45.05622" lon="2.42322">
        <ele>765.3</ele>
        <time>2026-08-21T09:34:20.233Z</time>
      </trkpt>
      <trkpt lat="45.05619" lon="2.42323">
        <ele>765.36</ele>
        <time>2026-08-21T09:34:21.688Z</time>
      </trkpt>
      <trkpt lat="45.05617" lon="2.42323">
        <ele>765.43</ele>
        <time>2026-08-21T09:34:22.266Z</time>
      </trkpt>
      <trkpt lat="45.05615" lon="2.42324">
        <ele>765.5</ele>
        <time>2026-08-21T09:34:23.219Z</time>
      </trkpt>
      <trkpt lat="45.05612" lon="2.42324">
        <ele>765.55</ele>
        <time>2026-08-21T09:34:24.182Z</time>
      </trkpt>
      <trkpt lat="45.0561" lon="2.42325">
        <ele>765.62</ele>
        <time>2026-08-21T09:34:25.207Z</time>
      </trkpt>
      <trkpt lat="45.05608" lon="2.42325">
        <ele>765.69</ele>
        <time>2026-08-21T09:34:26.702Z</time>
      </trkpt>
      <trkpt lat="45.05606" lon="2.42326">
        <ele>765.75</ele>
        <time>2026-08-21T09:34:27.212Z</time>
      </trkpt>
      <trkpt lat="45.05603" lon="2.42326">
        <ele>765.8</ele>
        <time>2026-08-21T09:34:28.234Z</time>
      </trkpt>
      <trkpt lat="45.05601" lon="2.42327">
        <ele>765.86</ele>
        <time>2026-08-21T09:34:29.223Z</time>
      </trkpt>
      <trkpt lat="45.05599" lon="2.42328">
        <ele>765.92</ele>
        <time>2026-08-21T09:34:30.246Z</time>
      </trkpt>
      <trkpt lat="45.05596" lon="2.42329">
        <ele>765.97</ele>
        <time>2026-08-21T09:34:31.211Z</time>
      </trkpt>
      <trkpt lat="45.05594" lon="2.42329">
        <ele>766.03</ele>
        <time>2026-08-21T09:34:32.223Z</time>
      </trkpt>
      <trkpt lat="45.05592" lon="2.4233">
        <ele>766.09</ele>
        <time>2026-08-21T09:34:33.215Z</time>
      </trkpt>
      <trkpt lat="45.05589" lon="2.42331">
        <ele>766.14</ele>
        <time>2026-08-21T09:34:34.237Z</time>
      </trkpt>
      <trkpt lat="45.05587" lon="2.42332">
        <ele>766.19</ele>
        <time>2026-08-21T09:34:35.225Z</time>
      </trkpt>
      <trkpt lat="45.05586" lon="2.42333">
        <ele>766.25</ele>
        <time>2026-08-21T09:34:36.212Z</time>
      </trkpt>
      <trkpt lat="45.05583" lon="2.42334">
        <ele>766.31</ele>
        <time>2026-08-21T09:34:37.231Z</time>
      </trkpt>
      <trkpt lat="45.05581" lon="2.42335">
        <ele>766.36</ele>
        <time>2026-08-21T09:34:38.194Z</time>
      </trkpt>
      <trkpt lat="45.05579" lon="2.42335">
        <ele>766.42</ele>
        <time>2026-08-21T09:34:39.214Z</time>
      </trkpt>
      <trkpt lat="45.05577" lon="2.42336">
        <ele>766.47</ele>
        <time>2026-08-21T09:34:40.205Z</time>
      </trkpt>
      <trkpt lat="45.05574" lon="2.42337">
        <ele>766.52</ele>
        <time>2026-08-21T09:34:41.223Z</time>
      </trkpt>
      <trkpt lat="45.05572" lon="2.42337">
        <ele>766.58</ele>
        <time>2026-08-21T09:34:42.218Z</time>
      </trkpt>
      <trkpt lat="45.0557" lon="2.42338">
        <ele>766.63</ele>
        <time>2026-08-21T09:34:43.229Z</time>
      </trkpt>
      <trkpt lat="45.05567" lon="2.42338">
        <ele>766.69</ele>
        <time>2026-08-21T09:34:44.226Z</time>
      </trkpt>
      <trkpt lat="45.05565" lon="2.42339">
        <ele>766.74</ele>
        <time>2026-08-21T09:34:45.745Z</time>
      </trkpt>
      <trkpt lat="45.05563" lon="2.42339">
        <ele>766.78</ele>
        <time>2026-08-21T09:34:46.838Z</time>
      </trkpt>
      <trkpt lat="45.0556" lon="2.4234">
        <ele>766.84</ele>
        <time>2026-08-21T09:34:47.224Z</time>
      </trkpt>
      <trkpt lat="45.05557" lon="2.4234">
        <ele>766.9</ele>
        <time>2026-08-21T09:34:48.245Z</time>
      </trkpt>
      <trkpt lat="45.05555" lon="2.42341">
        <ele>766.93</ele>
        <time>2026-08-21T09:34:50.198Z</time>
      </trkpt>
      <trkpt lat="45.05553" lon="2.42341">
        <ele>766.96</ele>
        <time>2026-08-21T09:34:50.251Z</time>
      </trkpt>
      <trkpt lat="45.0555" lon="2.42342">
        <ele>766.99</ele>
        <time>2026-08-21T09:34:51.219Z</time>
      </trkpt>
      <trkpt lat="45.05548" lon="2.42342">
        <ele>767.03</ele>
        <time>2026-08-21T09:34:52.237Z</time>
      </trkpt>
      <trkpt lat="45.05546" lon="2.42343">
        <ele>767.06</ele>
        <time>2026-08-21T09:34:53.234Z</time>
      </trkpt>
      <trkpt lat="45.05544" lon="2.42343">
        <ele>767.11</ele>
        <time>2026-08-21T09:34:55.110Z</time>
      </trkpt>
      <trkpt lat="45.05542" lon="2.42344">
        <ele>767.14</ele>
        <time>2026-08-21T09:34:56.111Z</time>
      </trkpt>
      <trkpt lat="45.05539" lon="2.42345">
        <ele>767.18</ele>
        <time>2026-08-21T09:34:57.115Z</time>
      </trkpt>
      <trkpt lat="45.05537" lon="2.42346">
        <ele>767.22</ele>
        <time>2026-08-21T09:34:58.117Z</time>
      </trkpt>
      <trkpt lat="45.05535" lon="2.42347">
        <ele>767.27</ele>
        <time>2026-08-21T09:34:59.119Z</time>
      </trkpt>
      <trkpt lat="45.05533" lon="2.42347">
        <ele>767.32</ele>
        <time>2026-08-21T09:35:00.120Z</time>
      </trkpt>
      <trkpt lat="45.05531" lon="2.42348">
        <ele>767.36</ele>
        <time>2026-08-21T09:35:00.218Z</time>
      </trkpt>
      <trkpt lat="45.05528" lon="2.42348">
        <ele>767.4</ele>
        <time>2026-08-21T09:35:02.126Z</time>
      </trkpt>
      <trkpt lat="45.05526" lon="2.42349">
        <ele>767.45</ele>
        <time>2026-08-21T09:35:03.124Z</time>
      </trkpt>
      <trkpt lat="45.05523" lon="2.42349">
        <ele>767.5</ele>
        <time>2026-08-21T09:35:04.125Z</time>
      </trkpt>
      <trkpt lat="45.05521" lon="2.4235">
        <ele>767.55</ele>
        <time>2026-08-21T09:35:05.224Z</time>
      </trkpt>
      <trkpt lat="45.05519" lon="2.42351">
        <ele>767.59</ele>
        <time>2026-08-21T09:35:06.228Z</time>
      </trkpt>
      <trkpt lat="45.05517" lon="2.42351">
        <ele>767.64</ele>
        <time>2026-08-21T09:35:06.251Z</time>
      </trkpt>
      <trkpt lat="45.05515" lon="2.42352">
        <ele>767.69</ele>
        <time>2026-08-21T09:35:08.229Z</time>
      </trkpt>
      <trkpt lat="45.05513" lon="2.42353">
        <ele>767.73</ele>
        <time>2026-08-21T09:35:09.218Z</time>
      </trkpt>
      <trkpt lat="45.05511" lon="2.42353">
        <ele>767.78</ele>
        <time>2026-08-21T09:35:10.232Z</time>
      </trkpt>
      <trkpt lat="45.05509" lon="2.42354">
        <ele>767.83</ele>
        <time>2026-08-21T09:35:11.224Z</time>
      </trkpt>
      <trkpt lat="45.05507" lon="2.42354">
        <ele>767.89</ele>
        <time>2026-08-21T09:35:11.235Z</time>
      </trkpt>
      <trkpt lat="45.05505" lon="2.42355">
        <ele>767.94</ele>
        <time>2026-08-21T09:35:13.230Z</time>
      </trkpt>
      <trkpt lat="45.05503" lon="2.42355">
        <ele>767.98</ele>
        <time>2026-08-21T09:35:13.238Z</time>
      </trkpt>
      <trkpt lat="45.05501" lon="2.42355">
        <ele>768.03</ele>
        <time>2026-08-21T09:35:15.217Z</time>
      </trkpt>
      <trkpt lat="45.05499" lon="2.42356">
        <ele>768.08</ele>
        <time>2026-08-21T09:35:16.237Z</time>
      </trkpt>
      <trkpt lat="45.05497" lon="2.42356">
        <ele>768.13</ele>
        <time>2026-08-21T09:35:16.839Z</time>
      </trkpt>
      <trkpt lat="45.05495" lon="2.42356">
        <ele>768.17</ele>
        <time>2026-08-21T09:35:18.212Z</time>
      </trkpt>
      <trkpt lat="45.05493" lon="2.42357">
        <ele>768.22</ele>
        <time>2026-08-21T09:35:19.112Z</time>
      </trkpt>
      <trkpt lat="45.05491" lon="2.42358">
        <ele>768.26</ele>
        <time>2026-08-21T09:35:20.228Z</time>
      </trkpt>
      <trkpt lat="45.05489" lon="2.42358">
        <ele>768.31</ele>
        <time>2026-08-21T09:35:21.241Z</time>
      </trkpt>
      <trkpt lat="45.05487" lon="2.42359">
        <ele>768.35</ele>
        <time>2026-08-21T09:35:22.230Z</time>
      </trkpt>
      <trkpt lat="45.05484" lon="2.4236">
        <ele>768.4</ele>
        <time>2026-08-21T09:35:22.262Z</time>
      </trkpt>
      <trkpt lat="45.05483" lon="2.4236">
        <ele>768.45</ele>
        <time>2026-08-21T09:35:24.215Z</time>
      </trkpt>
      <trkpt lat="45.0548" lon="2.42361">
        <ele>768.51</ele>
        <time>2026-08-21T09:35:25.242Z</time>
      </trkpt>
      <trkpt lat="45.05478" lon="2.42361">
        <ele>768.56</ele>
        <time>2026-08-21T09:35:26.242Z</time>
      </trkpt>
      <trkpt lat="45.05476" lon="2.42361">
        <ele>768.61</ele>
        <time>2026-08-21T09:35:27.243Z</time>
      </trkpt>
      <trkpt lat="45.05475" lon="2.42362">
        <ele>768.66</ele>
        <time>2026-08-21T09:35:28.245Z</time>
      </trkpt>
      <trkpt lat="45.05473" lon="2.42362">
        <ele>768.72</ele>
        <time>2026-08-21T09:35:29.232Z</time>
      </trkpt>
      <trkpt lat="45.0547" lon="2.42362">
        <ele>768.77</ele>
        <time>2026-08-21T09:35:29.791Z</time>
      </trkpt>
      <trkpt lat="45.05468" lon="2.42362">
        <ele>768.82</ele>
        <time>2026-08-21T09:35:31.207Z</time>
      </trkpt>
      <trkpt lat="45.05466" lon="2.42363">
        <ele>768.88</ele>
        <time>2026-08-21T09:35:32.248Z</time>
      </trkpt>
      <trkpt lat="45.05464" lon="2.42363">
        <ele>768.93</ele>
        <time>2026-08-21T09:35:33.249Z</time>
      </trkpt>
      <trkpt lat="45.05462" lon="2.42363">
        <ele>768.98</ele>
        <time>2026-08-21T09:35:34.251Z</time>
      </trkpt>
      <trkpt lat="45.0546" lon="2.42364">
        <ele>769.03</ele>
        <time>2026-08-21T09:35:35.040Z</time>
      </trkpt>
      <trkpt lat="45.05457" lon="2.42364">
        <ele>769.09</ele>
        <time>2026-08-21T09:35:36.253Z</time>
      </trkpt>
      <trkpt lat="45.05455" lon="2.42365">
        <ele>769.14</ele>
        <time>2026-08-21T09:35:37.256Z</time>
      </trkpt>
      <trkpt lat="45.05453" lon="2.42366">
        <ele>769.27</ele>
        <time>2026-08-21T09:35:38.241Z</time>
      </trkpt>
      <trkpt lat="45.05451" lon="2.42366">
        <ele>769.41</ele>
        <time>2026-08-21T09:35:39.119Z</time>
      </trkpt>
      <trkpt lat="45.05449" lon="2.42367">
        <ele>769.53</ele>
        <time>2026-08-21T09:35:40.048Z</time>
      </trkpt>
      <trkpt lat="45.05447" lon="2.42368">
        <ele>769.63</ele>
        <time>2026-08-21T09:35:41.257Z</time>
      </trkpt>
      <trkpt lat="45.05444" lon="2.42368">
        <ele>769.76</ele>
        <time>2026-08-21T09:35:42.118Z</time>
      </trkpt>
      <trkpt lat="45.05442" lon="2.42369">
        <ele>769.88</ele>
        <time>2026-08-21T09:35:43.259Z</time>
      </trkpt>
      <trkpt lat="45.05437" lon="2.4237">
        <ele>770.11</ele>
        <time>2026-08-21T09:35:45.259Z</time>
      </trkpt>
      <trkpt lat="45.05434" lon="2.42371">
        <ele>770.22</ele>
        <time>2026-08-21T09:35:46.262Z</time>
      </trkpt>
      <trkpt lat="45.05433" lon="2.42371">
        <ele>770.33</ele>
        <time>2026-08-21T09:35:47.233Z</time>
      </trkpt>
      <trkpt lat="45.05431" lon="2.42371">
        <ele>770.42</ele>
        <time>2026-08-21T09:35:48.264Z</time>
      </trkpt>
      <trkpt lat="45.05428" lon="2.42372">
        <ele>770.55</ele>
        <time>2026-08-21T09:35:49.267Z</time>
      </trkpt>
      <trkpt lat="45.05426" lon="2.42372">
        <ele>770.67</ele>
        <time>2026-08-21T09:35:49.858Z</time>
      </trkpt>
      <trkpt lat="45.05425" lon="2.42373">
        <ele>770.79</ele>
        <time>2026-08-21T09:35:51.190Z</time>
      </trkpt>
      <trkpt lat="45.05423" lon="2.42373">
        <ele>770.93</ele>
        <time>2026-08-21T09:35:52.269Z</time>
      </trkpt>
      <trkpt lat="45.05421" lon="2.42373">
        <ele>771.05</ele>
        <time>2026-08-21T09:35:53.270Z</time>
      </trkpt>
      <trkpt lat="45.05419" lon="2.42373">
        <ele>771.17</ele>
        <time>2026-08-21T09:35:54.274Z</time>
      </trkpt>
      <trkpt lat="45.05417" lon="2.42373">
        <ele>771.3</ele>
        <time>2026-08-21T09:35:55.111Z</time>
      </trkpt>
      <trkpt lat="45.05415" lon="2.42373">
        <ele>771.43</ele>
        <time>2026-08-21T09:35:55.287Z</time>
      </trkpt>
      <trkpt lat="45.05413" lon="2.42373">
        <ele>771.56</ele>
        <time>2026-08-21T09:35:57.277Z</time>
      </trkpt>
      <trkpt lat="45.05411" lon="2.42374">
        <ele>771.69</ele>
        <time>2026-08-21T09:35:58.180Z</time>
      </trkpt>
      <trkpt lat="45.0541" lon="2.42374">
        <ele>771.82</ele>
        <time>2026-08-21T09:35:59.280Z</time>
      </trkpt>
      <trkpt lat="45.05408" lon="2.42375">
        <ele>771.95</ele>
        <time>2026-08-21T09:35:59.336Z</time>
      </trkpt>
      <trkpt lat="45.05406" lon="2.42375">
        <ele>772.07</ele>
        <time>2026-08-21T09:36:01.284Z</time>
      </trkpt>
      <trkpt lat="45.05404" lon="2.42375">
        <ele>772.18</ele>
        <time>2026-08-21T09:36:01.348Z</time>
      </trkpt>
      <trkpt lat="45.05402" lon="2.42376">
        <ele>772.27</ele>
        <time>2026-08-21T09:36:03.287Z</time>
      </trkpt>
      <trkpt lat="45.054" lon="2.42376">
        <ele>772.37</ele>
        <time>2026-08-21T09:36:04.113Z</time>
      </trkpt>
      <trkpt lat="45.05398" lon="2.42376">
        <ele>772.47</ele>
        <time>2026-08-21T09:36:05.191Z</time>
      </trkpt>
      <trkpt lat="45.05396" lon="2.42377">
        <ele>772.56</ele>
        <time>2026-08-21T09:36:06.192Z</time>
      </trkpt>
      <trkpt lat="45.05394" lon="2.42377">
        <ele>772.65</ele>
        <time>2026-08-21T09:36:07.195Z</time>
      </trkpt>
      <trkpt lat="45.05392" lon="2.42378">
        <ele>772.76</ele>
        <time>2026-08-21T09:36:08.295Z</time>
      </trkpt>
      <trkpt lat="45.0539" lon="2.42378">
        <ele>772.84</ele>
        <time>2026-08-21T09:36:09.089Z</time>
      </trkpt>
      <trkpt lat="45.05387" lon="2.42379">
        <ele>772.95</ele>
        <time>2026-08-21T09:36:10.200Z</time>
      </trkpt>
      <trkpt lat="45.05385" lon="2.4238">
        <ele>773.07</ele>
        <time>2026-08-21T09:36:11.301Z</time>
      </trkpt>
      <trkpt lat="45.05384" lon="2.42381">
        <ele>773.15</ele>
        <time>2026-08-21T09:36:12.301Z</time>
      </trkpt>
      <trkpt lat="45.05382" lon="2.42382">
        <ele>773.28</ele>
        <time>2026-08-21T09:36:13.156Z</time>
      </trkpt>
      <trkpt lat="45.0538" lon="2.42383">
        <ele>773.37</ele>
        <time>2026-08-21T09:36:14.204Z</time>
      </trkpt>
      <trkpt lat="45.05378" lon="2.42383">
        <ele>773.48</ele>
        <time>2026-08-21T09:36:15.206Z</time>
      </trkpt>
      <trkpt lat="45.05376" lon="2.42384">
        <ele>773.57</ele>
        <time>2026-08-21T09:36:16.206Z</time>
      </trkpt>
      <trkpt lat="45.05374" lon="2.42385">
        <ele>773.64</ele>
        <time>2026-08-21T09:36:17.208Z</time>
      </trkpt>
      <trkpt lat="45.05371" lon="2.42386">
        <ele>773.75</ele>
        <time>2026-08-21T09:36:18.213Z</time>
      </trkpt>
      <trkpt lat="45.05369" lon="2.42387">
        <ele>773.83</ele>
        <time>2026-08-21T09:36:19.211Z</time>
      </trkpt>
      <trkpt lat="45.05368" lon="2.42387">
        <ele>773.9</ele>
        <time>2026-08-21T09:36:20.211Z</time>
      </trkpt>
      <trkpt lat="45.05366" lon="2.42388">
        <ele>773.99</ele>
        <time>2026-08-21T09:36:21.213Z</time>
      </trkpt>
      <trkpt lat="45.05364" lon="2.42389">
        <ele>774.08</ele>
        <time>2026-08-21T09:36:22.215Z</time>
      </trkpt>
      <trkpt lat="45.05361" lon="2.4239">
        <ele>774.15</ele>
        <time>2026-08-21T09:36:23.219Z</time>
      </trkpt>
      <trkpt lat="45.05359" lon="2.42391">
        <ele>774.25</ele>
        <time>2026-08-21T09:36:24.218Z</time>
      </trkpt>
      <trkpt lat="45.05357" lon="2.42392">
        <ele>774.33</ele>
        <time>2026-08-21T09:36:25.219Z</time>
      </trkpt>
      <trkpt lat="45.05355" lon="2.42393">
        <ele>774.44</ele>
        <time>2026-08-21T09:36:26.220Z</time>
      </trkpt>
      <trkpt lat="45.05352" lon="2.42394">
        <ele>774.53</ele>
        <time>2026-08-21T09:36:27.221Z</time>
      </trkpt>
      <trkpt lat="45.0535" lon="2.42395">
        <ele>774.62</ele>
        <time>2026-08-21T09:36:28.224Z</time>
      </trkpt>
      <trkpt lat="45.05348" lon="2.42396">
        <ele>774.71</ele>
        <time>2026-08-21T09:36:29.224Z</time>
      </trkpt>
      <trkpt lat="45.05346" lon="2.42397">
        <ele>774.8</ele>
        <time>2026-08-21T09:36:30.226Z</time>
      </trkpt>
      <trkpt lat="45.05344" lon="2.42399">
        <ele>774.87</ele>
        <time>2026-08-21T09:36:31.228Z</time>
      </trkpt>
      <trkpt lat="45.05342" lon="2.424">
        <ele>774.96</ele>
        <time>2026-08-21T09:36:32.228Z</time>
      </trkpt>
      <trkpt lat="45.05339" lon="2.42401">
        <ele>775.04</ele>
        <time>2026-08-21T09:36:33.228Z</time>
      </trkpt>
      <trkpt lat="45.05337" lon="2.42402">
        <ele>775.13</ele>
        <time>2026-08-21T09:36:34.230Z</time>
      </trkpt>
      <trkpt lat="45.05335" lon="2.42404">
        <ele>775.2</ele>
        <time>2026-08-21T09:36:35.231Z</time>
      </trkpt>
      <trkpt lat="45.05333" lon="2.42405">
        <ele>775.3</ele>
        <time>2026-08-21T09:36:36.233Z</time>
      </trkpt>
      <trkpt lat="45.0533" lon="2.42407">
        <ele>775.4</ele>
        <time>2026-08-21T09:36:37.233Z</time>
      </trkpt>
      <trkpt lat="45.05328" lon="2.42408">
        <ele>775.5</ele>
        <time>2026-08-21T09:36:38.236Z</time>
      </trkpt>
      <trkpt lat="45.05326" lon="2.42409">
        <ele>775.6</ele>
        <time>2026-08-21T09:36:39.235Z</time>
      </trkpt>
      <trkpt lat="45.05323" lon="2.4241">
        <ele>775.68</ele>
        <time>2026-08-21T09:36:40.236Z</time>
      </trkpt>
      <trkpt lat="45.05322" lon="2.42411">
        <ele>775.79</ele>
        <time>2026-08-21T09:36:41.238Z</time>
      </trkpt>
      <trkpt lat="45.0532" lon="2.42413">
        <ele>775.9</ele>
        <time>2026-08-21T09:36:42.241Z</time>
      </trkpt>
      <trkpt lat="45.05317" lon="2.42414">
        <ele>776</ele>
        <time>2026-08-21T09:36:43.240Z</time>
      </trkpt>
      <trkpt lat="45.05315" lon="2.42415">
        <ele>776.08</ele>
        <time>2026-08-21T09:36:44.241Z</time>
      </trkpt>
      <trkpt lat="45.05313" lon="2.42417">
        <ele>776.17</ele>
        <time>2026-08-21T09:36:45.175Z</time>
      </trkpt>
      <trkpt lat="45.05311" lon="2.42419">
        <ele>776.26</ele>
        <time>2026-08-21T09:36:46.244Z</time>
      </trkpt>
      <trkpt lat="45.05309" lon="2.42421">
        <ele>776.34</ele>
        <time>2026-08-21T09:36:47.245Z</time>
      </trkpt>
      <trkpt lat="45.05307" lon="2.42422">
        <ele>776.41</ele>
        <time>2026-08-21T09:36:48.246Z</time>
      </trkpt>
      <trkpt lat="45.05305" lon="2.42424">
        <ele>776.51</ele>
        <time>2026-08-21T09:36:49.248Z</time>
      </trkpt>
      <trkpt lat="45.05303" lon="2.42426">
        <ele>776.63</ele>
        <time>2026-08-21T09:36:50.250Z</time>
      </trkpt>
      <trkpt lat="45.05301" lon="2.42428">
        <ele>776.75</ele>
        <time>2026-08-21T09:36:51.252Z</time>
      </trkpt>
      <trkpt lat="45.05299" lon="2.42429">
        <ele>776.88</ele>
        <time>2026-08-21T09:36:52.255Z</time>
      </trkpt>
      <trkpt lat="45.05298" lon="2.42431">
        <ele>777</ele>
        <time>2026-08-21T09:36:53.254Z</time>
      </trkpt>
      <trkpt lat="45.05296" lon="2.42433">
        <ele>777.11</ele>
        <time>2026-08-21T09:36:54.280Z</time>
      </trkpt>
      <trkpt lat="45.05294" lon="2.42435">
        <ele>777.21</ele>
        <time>2026-08-21T09:36:55.259Z</time>
      </trkpt>
      <trkpt lat="45.05292" lon="2.42437">
        <ele>777.32</ele>
        <time>2026-08-21T09:36:56.259Z</time>
      </trkpt>
      <trkpt lat="45.05291" lon="2.42439">
        <ele>777.43</ele>
        <time>2026-08-21T09:36:57.260Z</time>
      </trkpt>
      <trkpt lat="45.05289" lon="2.42441">
        <ele>777.53</ele>
        <time>2026-08-21T09:36:58.261Z</time>
      </trkpt>
      <trkpt lat="45.05287" lon="2.42442">
        <ele>777.62</ele>
        <time>2026-08-21T09:36:59.262Z</time>
      </trkpt>
      <trkpt lat="45.05285" lon="2.42444">
        <ele>777.73</ele>
        <time>2026-08-21T09:37:00.264Z</time>
      </trkpt>
      <trkpt lat="45.05284" lon="2.42445">
        <ele>777.84</ele>
        <time>2026-08-21T09:37:01.265Z</time>
      </trkpt>
      <trkpt lat="45.05282" lon="2.42447">
        <ele>777.93</ele>
        <time>2026-08-21T09:37:02.266Z</time>
      </trkpt>
      <trkpt lat="45.05281" lon="2.42449">
        <ele>778.04</ele>
        <time>2026-08-21T09:37:03.268Z</time>
      </trkpt>
      <trkpt lat="45.05279" lon="2.42452">
        <ele>778.15</ele>
        <time>2026-08-21T09:37:04.269Z</time>
      </trkpt>
      <trkpt lat="45.05278" lon="2.42453">
        <ele>778.24</ele>
        <time>2026-08-21T09:37:05.272Z</time>
      </trkpt>
      <trkpt lat="45.05277" lon="2.42455">
        <ele>778.34</ele>
        <time>2026-08-21T09:37:06.272Z</time>
      </trkpt>
      <trkpt lat="45.05275" lon="2.42457">
        <ele>778.42</ele>
        <time>2026-08-21T09:37:07.274Z</time>
      </trkpt>
      <trkpt lat="45.05273" lon="2.42458">
        <ele>778.52</ele>
        <time>2026-08-21T09:37:08.276Z</time>
      </trkpt>
      <trkpt lat="45.05272" lon="2.42458">
        <ele>778.61</ele>
        <time>2026-08-21T09:37:09.276Z</time>
      </trkpt>
      <trkpt lat="45.05268" lon="2.42462">
        <ele>778.78</ele>
        <time>2026-08-21T09:37:11.209Z</time>
      </trkpt>
      <trkpt lat="45.05267" lon="2.42463">
        <ele>778.85</ele>
        <time>2026-08-21T09:37:12.281Z</time>
      </trkpt>
      <trkpt lat="45.05265" lon="2.42465">
        <ele>778.91</ele>
        <time>2026-08-21T09:37:13.281Z</time>
      </trkpt>
      <trkpt lat="45.05264" lon="2.42466">
        <ele>778.99</ele>
        <time>2026-08-21T09:37:13.905Z</time>
      </trkpt>
      <trkpt lat="45.05262" lon="2.42467">
        <ele>779.07</ele>
        <time>2026-08-21T09:37:14.893Z</time>
      </trkpt>
      <trkpt lat="45.05261" lon="2.42468">
        <ele>779.15</ele>
        <time>2026-08-21T09:37:16.285Z</time>
      </trkpt>
      <trkpt lat="45.05257" lon="2.42472">
        <ele>779.31</ele>
        <time>2026-08-21T09:37:18.287Z</time>
      </trkpt>
      <trkpt lat="45.05256" lon="2.42472">
        <ele>779.37</ele>
        <time>2026-08-21T09:37:19.289Z</time>
      </trkpt>
      <trkpt lat="45.05254" lon="2.42473">
        <ele>779.44</ele>
        <time>2026-08-21T09:37:20.291Z</time>
      </trkpt>
      <trkpt lat="45.05253" lon="2.42474">
        <ele>779.5</ele>
        <time>2026-08-21T09:37:21.291Z</time>
      </trkpt>
      <trkpt lat="45.05251" lon="2.42475">
        <ele>779.58</ele>
        <time>2026-08-21T09:37:22.292Z</time>
      </trkpt>
      <trkpt lat="45.05249" lon="2.42476">
        <ele>779.66</ele>
        <time>2026-08-21T09:37:23.282Z</time>
      </trkpt>
      <trkpt lat="45.05248" lon="2.42478">
        <ele>779.73</ele>
        <time>2026-08-21T09:37:24.214Z</time>
      </trkpt>
      <trkpt lat="45.05246" lon="2.42479">
        <ele>779.8</ele>
        <time>2026-08-21T09:37:25.295Z</time>
      </trkpt>
      <trkpt lat="45.05244" lon="2.4248">
        <ele>779.89</ele>
        <time>2026-08-21T09:37:26.297Z</time>
      </trkpt>
      <trkpt lat="45.05242" lon="2.42481">
        <ele>779.98</ele>
        <time>2026-08-21T09:37:27.298Z</time>
      </trkpt>
      <trkpt lat="45.0524" lon="2.42483">
        <ele>780.07</ele>
        <time>2026-08-21T09:37:28.299Z</time>
      </trkpt>
      <trkpt lat="45.05238" lon="2.42484">
        <ele>780.13</ele>
        <time>2026-08-21T09:37:29.303Z</time>
      </trkpt>
      <trkpt lat="45.05236" lon="2.42485">
        <ele>780.21</ele>
        <time>2026-08-21T09:37:30.233Z</time>
      </trkpt>
      <trkpt lat="45.05235" lon="2.42486">
        <ele>780.29</ele>
        <time>2026-08-21T09:37:31.303Z</time>
      </trkpt>
      <trkpt lat="45.05233" lon="2.42487">
        <ele>780.37</ele>
        <time>2026-08-21T09:37:32.304Z</time>
      </trkpt>
      <trkpt lat="45.0523" lon="2.42489">
        <ele>780.46</ele>
        <time>2026-08-21T09:37:33.306Z</time>
      </trkpt>
      <trkpt lat="45.05228" lon="2.4249">
        <ele>780.54</ele>
        <time>2026-08-21T09:37:34.305Z</time>
      </trkpt>
      <trkpt lat="45.05227" lon="2.42491">
        <ele>780.63</ele>
        <time>2026-08-21T09:37:35.305Z</time>
      </trkpt>
      <trkpt lat="45.05225" lon="2.42492">
        <ele>780.72</ele>
        <time>2026-08-21T09:37:36.261Z</time>
      </trkpt>
      <trkpt lat="45.05223" lon="2.42493">
        <ele>780.81</ele>
        <time>2026-08-21T09:37:37.307Z</time>
      </trkpt>
      <trkpt lat="45.05221" lon="2.42494">
        <ele>780.88</ele>
        <time>2026-08-21T09:37:38.308Z</time>
      </trkpt>
      <trkpt lat="45.05219" lon="2.42495">
        <ele>780.96</ele>
        <time>2026-08-21T09:37:39.311Z</time>
      </trkpt>
      <trkpt lat="45.05217" lon="2.42497">
        <ele>781.04</ele>
        <time>2026-08-21T09:37:40.311Z</time>
      </trkpt>
      <trkpt lat="45.05215" lon="2.42498">
        <ele>781.12</ele>
        <time>2026-08-21T09:37:41.314Z</time>
      </trkpt>
      <trkpt lat="45.05213" lon="2.42499">
        <ele>781.21</ele>
        <time>2026-08-21T09:37:42.316Z</time>
      </trkpt>
      <trkpt lat="45.05211" lon="2.42501">
        <ele>781.29</ele>
        <time>2026-08-21T09:37:43.316Z</time>
      </trkpt>
      <trkpt lat="45.05209" lon="2.42502">
        <ele>781.37</ele>
        <time>2026-08-21T09:37:44.318Z</time>
      </trkpt>
      <trkpt lat="45.05207" lon="2.42504">
        <ele>781.46</ele>
        <time>2026-08-21T09:37:45.319Z</time>
      </trkpt>
      <trkpt lat="45.05206" lon="2.42505">
        <ele>781.53</ele>
        <time>2026-08-21T09:37:46.322Z</time>
      </trkpt>
      <trkpt lat="45.05203" lon="2.42506">
        <ele>781.61</ele>
        <time>2026-08-21T09:37:47.322Z</time>
      </trkpt>
      <trkpt lat="45.05201" lon="2.42507">
        <ele>781.69</ele>
        <time>2026-08-21T09:37:48.324Z</time>
      </trkpt>
      <trkpt lat="45.05199" lon="2.42509">
        <ele>781.78</ele>
        <time>2026-08-21T09:37:49.328Z</time>
      </trkpt>
      <trkpt lat="45.05197" lon="2.4251">
        <ele>781.86</ele>
        <time>2026-08-21T09:37:50.327Z</time>
      </trkpt>
      <trkpt lat="45.05195" lon="2.42511">
        <ele>781.94</ele>
        <time>2026-08-21T09:37:51.275Z</time>
      </trkpt>
      <trkpt lat="45.05193" lon="2.42513">
        <ele>782.02</ele>
        <time>2026-08-21T09:37:52.330Z</time>
      </trkpt>
      <trkpt lat="45.05192" lon="2.42514">
        <ele>782.11</ele>
        <time>2026-08-21T09:37:53.208Z</time>
      </trkpt>
      <trkpt lat="45.0519" lon="2.42515">
        <ele>782.2</ele>
        <time>2026-08-21T09:37:53.955Z</time>
      </trkpt>
      <trkpt lat="45.05187" lon="2.42517">
        <ele>782.28</ele>
        <time>2026-08-21T09:37:55.336Z</time>
      </trkpt>
      <trkpt lat="45.05185" lon="2.42518">
        <ele>782.36</ele>
        <time>2026-08-21T09:37:56.338Z</time>
      </trkpt>
      <trkpt lat="45.05183" lon="2.42519">
        <ele>782.46</ele>
        <time>2026-08-21T09:37:57.338Z</time>
      </trkpt>
      <trkpt lat="45.05182" lon="2.4252">
        <ele>782.55</ele>
        <time>2026-08-21T09:37:58.353Z</time>
      </trkpt>
      <trkpt lat="45.0518" lon="2.42521">
        <ele>782.64</ele>
        <time>2026-08-21T09:37:59.342Z</time>
      </trkpt>
      <trkpt lat="45.05177" lon="2.42523">
        <ele>782.73</ele>
        <time>2026-08-21T09:38:00.344Z</time>
      </trkpt>
      <trkpt lat="45.05175" lon="2.42524">
        <ele>782.82</ele>
        <time>2026-08-21T09:38:01.346Z</time>
      </trkpt>
      <trkpt lat="45.05173" lon="2.42526">
        <ele>782.91</ele>
        <time>2026-08-21T09:38:02.256Z</time>
      </trkpt>
      <trkpt lat="45.05171" lon="2.42527">
        <ele>783</ele>
        <time>2026-08-21T09:38:03.353Z</time>
      </trkpt>
      <trkpt lat="45.05169" lon="2.42529">
        <ele>783.08</ele>
        <time>2026-08-21T09:38:04.352Z</time>
      </trkpt>
      <trkpt lat="45.05166" lon="2.4253">
        <ele>783.19</ele>
        <time>2026-08-21T09:38:05.354Z</time>
      </trkpt>
      <trkpt lat="45.05164" lon="2.42531">
        <ele>783.29</ele>
        <time>2026-08-21T09:38:06.305Z</time>
      </trkpt>
      <trkpt lat="45.05162" lon="2.42533">
        <ele>783.38</ele>
        <time>2026-08-21T09:38:07.355Z</time>
      </trkpt>
      <trkpt lat="45.05159" lon="2.42534">
        <ele>783.47</ele>
        <time>2026-08-21T09:38:08.356Z</time>
      </trkpt>
      <trkpt lat="45.05158" lon="2.42535">
        <ele>783.57</ele>
        <time>2026-08-21T09:38:09.358Z</time>
      </trkpt>
      <trkpt lat="45.05155" lon="2.42536">
        <ele>783.66</ele>
        <time>2026-08-21T09:38:10.214Z</time>
      </trkpt>
      <trkpt lat="45.05153" lon="2.42538">
        <ele>783.73</ele>
        <time>2026-08-21T09:38:11.362Z</time>
      </trkpt>
      <trkpt lat="45.05151" lon="2.42539">
        <ele>783.81</ele>
        <time>2026-08-21T09:38:12.366Z</time>
      </trkpt>
      <trkpt lat="45.05148" lon="2.42541">
        <ele>783.89</ele>
        <time>2026-08-21T09:38:12.427Z</time>
      </trkpt>
      <trkpt lat="45.05146" lon="2.42542">
        <ele>783.99</ele>
        <time>2026-08-21T09:38:14.368Z</time>
      </trkpt>
      <trkpt lat="45.05144" lon="2.42543">
        <ele>784.08</ele>
        <time>2026-08-21T09:38:15.369Z</time>
      </trkpt>
      <trkpt lat="45.05142" lon="2.42544">
        <ele>784.18</ele>
        <time>2026-08-21T09:38:16.371Z</time>
      </trkpt>
      <trkpt lat="45.0514" lon="2.42545">
        <ele>784.29</ele>
        <time>2026-08-21T09:38:17.373Z</time>
      </trkpt>
      <trkpt lat="45.05138" lon="2.42545">
        <ele>784.39</ele>
        <time>2026-08-21T09:38:18.373Z</time>
      </trkpt>
      <trkpt lat="45.05137" lon="2.42546">
        <ele>784.48</ele>
        <time>2026-08-21T09:38:18.993Z</time>
      </trkpt>
      <trkpt lat="45.05135" lon="2.42547">
        <ele>784.58</ele>
        <time>2026-08-21T09:38:20.068Z</time>
      </trkpt>
      <trkpt lat="45.05133" lon="2.42549">
        <ele>784.67</ele>
        <time>2026-08-21T09:38:20.967Z</time>
      </trkpt>
      <trkpt lat="45.05131" lon="2.4255">
        <ele>784.76</ele>
        <time>2026-08-21T09:38:22.257Z</time>
      </trkpt>
      <trkpt lat="45.0513" lon="2.42551">
        <ele>784.86</ele>
        <time>2026-08-21T09:38:23.381Z</time>
      </trkpt>
      <trkpt lat="45.05128" lon="2.42553">
        <ele>784.96</ele>
        <time>2026-08-21T09:38:24.384Z</time>
      </trkpt>
      <trkpt lat="45.05126" lon="2.42554">
        <ele>785.05</ele>
        <time>2026-08-21T09:38:24.428Z</time>
      </trkpt>
      <trkpt lat="45.05125" lon="2.42555">
        <ele>785.14</ele>
        <time>2026-08-21T09:38:26.389Z</time>
      </trkpt>
      <trkpt lat="45.05123" lon="2.42557">
        <ele>785.23</ele>
        <time>2026-08-21T09:38:27.391Z</time>
      </trkpt>
      <trkpt lat="45.05122" lon="2.42558">
        <ele>785.32</ele>
        <time>2026-08-21T09:38:27.453Z</time>
      </trkpt>
      <trkpt lat="45.0512" lon="2.42559">
        <ele>785.4</ele>
        <time>2026-08-21T09:38:29.396Z</time>
      </trkpt>
      <trkpt lat="45.05119" lon="2.4256">
        <ele>785.48</ele>
        <time>2026-08-21T09:38:30.396Z</time>
      </trkpt>
      <trkpt lat="45.05117" lon="2.42561">
        <ele>785.55</ele>
        <time>2026-08-21T09:38:31.032Z</time>
      </trkpt>
      <trkpt lat="45.05116" lon="2.42562">
        <ele>785.62</ele>
        <time>2026-08-21T09:38:32.401Z</time>
      </trkpt>
      <trkpt lat="45.05114" lon="2.42563">
        <ele>785.71</ele>
        <time>2026-08-21T09:38:33.401Z</time>
      </trkpt>
      <trkpt lat="45.05113" lon="2.42564">
        <ele>785.77</ele>
        <time>2026-08-21T09:38:34.405Z</time>
      </trkpt>
      <trkpt lat="45.05111" lon="2.42566">
        <ele>785.84</ele>
        <time>2026-08-21T09:38:35.405Z</time>
      </trkpt>
      <trkpt lat="45.05107" lon="2.4257">
        <ele>785.99</ele>
        <time>2026-08-21T09:38:37.408Z</time>
      </trkpt>
      <trkpt lat="45.05106" lon="2.42571">
        <ele>786.08</ele>
        <time>2026-08-21T09:38:38.410Z</time>
      </trkpt>
      <trkpt lat="45.05104" lon="2.42571">
        <ele>786.15</ele>
        <time>2026-08-21T09:38:39.411Z</time>
      </trkpt>
      <trkpt lat="45.05103" lon="2.42572">
        <ele>786.23</ele>
        <time>2026-08-21T09:38:40.412Z</time>
      </trkpt>
      <trkpt lat="45.05101" lon="2.42572">
        <ele>786.3</ele>
        <time>2026-08-21T09:38:41.414Z</time>
      </trkpt>
      <trkpt lat="45.051" lon="2.42573">
        <ele>786.34</ele>
        <time>2026-08-21T09:38:42.416Z</time>
      </trkpt>
      <trkpt lat="45.05098" lon="2.42574">
        <ele>786.42</ele>
        <time>2026-08-21T09:38:43.416Z</time>
      </trkpt>
      <trkpt lat="45.05097" lon="2.42574">
        <ele>786.51</ele>
        <time>2026-08-21T09:38:44.418Z</time>
      </trkpt>
      <trkpt lat="45.05095" lon="2.42575">
        <ele>786.6</ele>
        <time>2026-08-21T09:38:45.301Z</time>
      </trkpt>
      <trkpt lat="45.05094" lon="2.42576">
        <ele>786.7</ele>
        <time>2026-08-21T09:38:45.453Z</time>
      </trkpt>
      <trkpt lat="45.05093" lon="2.42577">
        <ele>786.8</ele>
        <time>2026-08-21T09:38:47.421Z</time>
      </trkpt>
      <trkpt lat="45.05091" lon="2.42578">
        <ele>786.93</ele>
        <time>2026-08-21T09:38:48.422Z</time>
      </trkpt>
      <trkpt lat="45.0509" lon="2.42579">
        <ele>787.06</ele>
        <time>2026-08-21T09:38:49.424Z</time>
      </trkpt>
      <trkpt lat="45.05089" lon="2.4258">
        <ele>787.21</ele>
        <time>2026-08-21T09:38:50.427Z</time>
      </trkpt>
      <trkpt lat="45.05087" lon="2.42584">
        <ele>787.54</ele>
        <time>2026-08-21T09:38:52.430Z</time>
      </trkpt>
      <trkpt lat="45.05086" lon="2.42584">
        <ele>787.68</ele>
        <time>2026-08-21T09:38:53.433Z</time>
      </trkpt>
      <trkpt lat="45.05085" lon="2.42585">
        <ele>787.86</ele>
        <time>2026-08-21T09:38:53.530Z</time>
      </trkpt>
      <trkpt lat="45.05084" lon="2.42586">
        <ele>788.03</ele>
        <time>2026-08-21T09:38:55.439Z</time>
      </trkpt>
      <trkpt lat="45.05082" lon="2.42587">
        <ele>788.19</ele>
        <time>2026-08-21T09:38:56.438Z</time>
      </trkpt>
      <trkpt lat="45.05079" lon="2.4259">
        <ele>788.57</ele>
        <time>2026-08-21T09:38:58.447Z</time>
      </trkpt>
      <trkpt lat="45.05078" lon="2.42591">
        <ele>788.95</ele>
        <time>2026-08-21T09:39:00.447Z</time>
      </trkpt>
      <trkpt lat="45.05077" lon="2.42591">
        <ele>789.12</ele>
        <time>2026-08-21T09:39:01.447Z</time>
      </trkpt>
      <trkpt lat="45.05074" lon="2.42594">
        <ele>789.46</ele>
        <time>2026-08-21T09:39:03.452Z</time>
      </trkpt>
      <trkpt lat="45.05073" lon="2.42594">
        <ele>789.65</ele>
        <time>2026-08-21T09:39:04.454Z</time>
      </trkpt>
      <trkpt lat="45.05072" lon="2.42595">
        <ele>789.82</ele>
        <time>2026-08-21T09:39:04.472Z</time>
      </trkpt>
      <trkpt lat="45.05071" lon="2.42597">
        <ele>789.99</ele>
        <time>2026-08-21T09:39:06.455Z</time>
      </trkpt>
      <trkpt lat="45.05069" lon="2.42598">
        <ele>790.18</ele>
        <time>2026-08-21T09:39:07.457Z</time>
      </trkpt>
      <trkpt lat="45.05068" lon="2.426">
        <ele>790.37</ele>
        <time>2026-08-21T09:39:08.288Z</time>
      </trkpt>
      <trkpt lat="45.05067" lon="2.42601">
        <ele>790.58</ele>
        <time>2026-08-21T09:39:09.461Z</time>
      </trkpt>
      <trkpt lat="45.05064" lon="2.42605">
        <ele>790.97</ele>
        <time>2026-08-21T09:39:11.173Z</time>
      </trkpt>
      <trkpt lat="45.05063" lon="2.42606">
        <ele>791.15</ele>
        <time>2026-08-21T09:39:12.466Z</time>
      </trkpt>
      <trkpt lat="45.05062" lon="2.42607">
        <ele>791.34</ele>
        <time>2026-08-21T09:39:13.287Z</time>
      </trkpt>
      <trkpt lat="45.05061" lon="2.42609">
        <ele>791.55</ele>
        <time>2026-08-21T09:39:14.370Z</time>
      </trkpt>
      <trkpt lat="45.05059" lon="2.42611">
        <ele>791.72</ele>
        <time>2026-08-21T09:39:15.373Z</time>
      </trkpt>
      <trkpt lat="45.05058" lon="2.42612">
        <ele>791.9</ele>
        <time>2026-08-21T09:39:16.374Z</time>
      </trkpt>
      <trkpt lat="45.05057" lon="2.42614">
        <ele>792.09</ele>
        <time>2026-08-21T09:39:17.378Z</time>
      </trkpt>
      <trkpt lat="45.05056" lon="2.42616">
        <ele>792.28</ele>
        <time>2026-08-21T09:39:18.379Z</time>
      </trkpt>
      <trkpt lat="45.05055" lon="2.42618">
        <ele>792.45</ele>
        <time>2026-08-21T09:39:19.479Z</time>
      </trkpt>
      <trkpt lat="45.05054" lon="2.4262">
        <ele>792.66</ele>
        <time>2026-08-21T09:39:20.029Z</time>
      </trkpt>
      <trkpt lat="45.05052" lon="2.42622">
        <ele>792.85</ele>
        <time>2026-08-21T09:39:21.389Z</time>
      </trkpt>
      <trkpt lat="45.05051" lon="2.42624">
        <ele>793.04</ele>
        <time>2026-08-21T09:39:22.385Z</time>
      </trkpt>
      <trkpt lat="45.0505" lon="2.42626">
        <ele>793.23</ele>
        <time>2026-08-21T09:39:23.387Z</time>
      </trkpt>
      <trkpt lat="45.05048" lon="2.42628">
        <ele>793.44</ele>
        <time>2026-08-21T09:39:24.391Z</time>
      </trkpt>
      <trkpt lat="45.05047" lon="2.4263">
        <ele>793.58</ele>
        <time>2026-08-21T09:39:25.392Z</time>
      </trkpt>
      <trkpt lat="45.05046" lon="2.42632">
        <ele>793.75</ele>
        <time>2026-08-21T09:39:26.393Z</time>
      </trkpt>
      <trkpt lat="45.05045" lon="2.42634">
        <ele>793.91</ele>
        <time>2026-08-21T09:39:27.395Z</time>
      </trkpt>
      <trkpt lat="45.05043" lon="2.42635">
        <ele>794.07</ele>
        <time>2026-08-21T09:39:28.399Z</time>
      </trkpt>
      <trkpt lat="45.0504" lon="2.4264">
        <ele>794.41</ele>
        <time>2026-08-21T09:39:30.402Z</time>
      </trkpt>
      <trkpt lat="45.05037" lon="2.42643">
        <ele>794.71</ele>
        <time>2026-08-21T09:39:32.406Z</time>
      </trkpt>
      <trkpt lat="45.05037" lon="2.42644">
        <ele>794.88</ele>
        <time>2026-08-21T09:39:33.407Z</time>
      </trkpt>
      <trkpt lat="45.05035" lon="2.42645">
        <ele>795.04</ele>
        <time>2026-08-21T09:39:34.076Z</time>
      </trkpt>
      <trkpt lat="45.05032" lon="2.42648">
        <ele>795.38</ele>
        <time>2026-08-21T09:39:36.413Z</time>
      </trkpt>
      <trkpt lat="45.05031" lon="2.42649">
        <ele>795.56</ele>
        <time>2026-08-21T09:39:37.417Z</time>
      </trkpt>
      <trkpt lat="45.0503" lon="2.4265">
        <ele>795.7</ele>
        <time>2026-08-21T09:39:38.417Z</time>
      </trkpt>
      <trkpt lat="45.05029" lon="2.42652">
        <ele>795.84</ele>
        <time>2026-08-21T09:39:39.417Z</time>
      </trkpt>
      <trkpt lat="45.05028" lon="2.42653">
        <ele>795.99</ele>
        <time>2026-08-21T09:39:40.418Z</time>
      </trkpt>
      <trkpt lat="45.05027" lon="2.42654">
        <ele>796.16</ele>
        <time>2026-08-21T09:39:41.421Z</time>
      </trkpt>
      <trkpt lat="45.05026" lon="2.42655">
        <ele>796.33</ele>
        <time>2026-08-21T09:39:42.423Z</time>
      </trkpt>
      <trkpt lat="45.05025" lon="2.42656">
        <ele>796.52</ele>
        <time>2026-08-21T09:39:43.428Z</time>
      </trkpt>
      <trkpt lat="45.05024" lon="2.42658">
        <ele>796.71</ele>
        <time>2026-08-21T09:39:44.428Z</time>
      </trkpt>
      <trkpt lat="45.05022" lon="2.42659">
        <ele>796.88</ele>
        <time>2026-08-21T09:39:45.429Z</time>
      </trkpt>
      <trkpt lat="45.05021" lon="2.42661">
        <ele>797.07</ele>
        <time>2026-08-21T09:39:46.430Z</time>
      </trkpt>
      <trkpt lat="45.0502" lon="2.42662">
        <ele>797.26</ele>
        <time>2026-08-21T09:39:47.431Z</time>
      </trkpt>
      <trkpt lat="45.05019" lon="2.42663">
        <ele>797.42</ele>
        <time>2026-08-21T09:39:48.435Z</time>
      </trkpt>
      <trkpt lat="45.05018" lon="2.42665">
        <ele>797.61</ele>
        <time>2026-08-21T09:39:49.437Z</time>
      </trkpt>
      <trkpt lat="45.05016" lon="2.42667">
        <ele>797.81</ele>
        <time>2026-08-21T09:39:50.437Z</time>
      </trkpt>
      <trkpt lat="45.05015" lon="2.42669">
        <ele>798.01</ele>
        <time>2026-08-21T09:39:51.438Z</time>
      </trkpt>
      <trkpt lat="45.05014" lon="2.4267">
        <ele>798.24</ele>
        <time>2026-08-21T09:39:52.439Z</time>
      </trkpt>
      <trkpt lat="45.05013" lon="2.42671">
        <ele>798.47</ele>
        <time>2026-08-21T09:39:53.442Z</time>
      </trkpt>
      <trkpt lat="45.05011" lon="2.42673">
        <ele>798.69</ele>
        <time>2026-08-21T09:39:54.444Z</time>
      </trkpt>
      <trkpt lat="45.0501" lon="2.42674">
        <ele>798.93</ele>
        <time>2026-08-21T09:39:55.445Z</time>
      </trkpt>
      <trkpt lat="45.05008" lon="2.42676">
        <ele>799.15</ele>
        <time>2026-08-21T09:39:56.447Z</time>
      </trkpt>
      <trkpt lat="45.05007" lon="2.42677">
        <ele>799.37</ele>
        <time>2026-08-21T09:39:57.453Z</time>
      </trkpt>
      <trkpt lat="45.05005" lon="2.42679">
        <ele>799.62</ele>
        <time>2026-08-21T09:39:58.454Z</time>
      </trkpt>
      <trkpt lat="45.05003" lon="2.42681">
        <ele>799.8</ele>
        <time>2026-08-21T09:39:59.456Z</time>
      </trkpt>
      <trkpt lat="45.05002" lon="2.42683">
        <ele>800.01</ele>
        <time>2026-08-21T09:40:00.458Z</time>
      </trkpt>
      <trkpt lat="45.05001" lon="2.42684">
        <ele>800.21</ele>
        <time>2026-08-21T09:40:01.461Z</time>
      </trkpt>
      <trkpt lat="45.05" lon="2.42686">
        <ele>800.42</ele>
        <time>2026-08-21T09:40:02.462Z</time>
      </trkpt>
      <trkpt lat="45.04999" lon="2.42688">
        <ele>800.62</ele>
        <time>2026-08-21T09:40:03.464Z</time>
      </trkpt>
      <trkpt lat="45.04998" lon="2.42689">
        <ele>800.84</ele>
        <time>2026-08-21T09:40:04.467Z</time>
      </trkpt>
      <trkpt lat="45.04997" lon="2.4269">
        <ele>801.03</ele>
        <time>2026-08-21T09:40:05.468Z</time>
      </trkpt>
      <trkpt lat="45.04995" lon="2.42691">
        <ele>801.23</ele>
        <time>2026-08-21T09:40:06.470Z</time>
      </trkpt>
      <trkpt lat="45.04994" lon="2.42693">
        <ele>801.42</ele>
        <time>2026-08-21T09:40:07.472Z</time>
      </trkpt>
      <trkpt lat="45.04992" lon="2.42694">
        <ele>801.62</ele>
        <time>2026-08-21T09:40:08.475Z</time>
      </trkpt>
      <trkpt lat="45.04991" lon="2.42695">
        <ele>801.82</ele>
        <time>2026-08-21T09:40:09.477Z</time>
      </trkpt>
      <trkpt lat="45.0499" lon="2.42696">
        <ele>802.02</ele>
        <time>2026-08-21T09:40:10.480Z</time>
      </trkpt>
      <trkpt lat="45.04989" lon="2.42697">
        <ele>802.22</ele>
        <time>2026-08-21T09:40:11.480Z</time>
      </trkpt>
      <trkpt lat="45.04987" lon="2.42699">
        <ele>802.4</ele>
        <time>2026-08-21T09:40:12.482Z</time>
      </trkpt>
      <trkpt lat="45.04986" lon="2.427">
        <ele>802.61</ele>
        <time>2026-08-21T09:40:13.484Z</time>
      </trkpt>
      <trkpt lat="45.04985" lon="2.42701">
        <ele>802.79</ele>
        <time>2026-08-21T09:40:14.488Z</time>
      </trkpt>
      <trkpt lat="45.04983" lon="2.42703">
        <ele>802.99</ele>
        <time>2026-08-21T09:40:15.488Z</time>
      </trkpt>
      <trkpt lat="45.04982" lon="2.42704">
        <ele>803.17</ele>
        <time>2026-08-21T09:40:16.491Z</time>
      </trkpt>
      <trkpt lat="45.04979" lon="2.42709">
        <ele>803.52</ele>
        <time>2026-08-21T09:40:18.498Z</time>
      </trkpt>
      <trkpt lat="45.04979" lon="2.4271">
        <ele>803.69</ele>
        <time>2026-08-21T09:40:19.499Z</time>
      </trkpt>
      <trkpt lat="45.04977" lon="2.42711">
        <ele>803.86</ele>
        <time>2026-08-21T09:40:20.501Z</time>
      </trkpt>
      <trkpt lat="45.04977" lon="2.42713">
        <ele>804</ele>
        <time>2026-08-21T09:40:21.505Z</time>
      </trkpt>
      <trkpt lat="45.04976" lon="2.42714">
        <ele>804.14</ele>
        <time>2026-08-21T09:40:22.262Z</time>
      </trkpt>
      <trkpt lat="45.04975" lon="2.42716">
        <ele>804.29</ele>
        <time>2026-08-21T09:40:23.508Z</time>
      </trkpt>
      <trkpt lat="45.04974" lon="2.42717">
        <ele>804.44</ele>
        <time>2026-08-21T09:40:24.267Z</time>
      </trkpt>
      <trkpt lat="45.04972" lon="2.4272">
        <ele>804.73</ele>
        <time>2026-08-21T09:40:26.515Z</time>
      </trkpt>
      <trkpt lat="45.04971" lon="2.42721">
        <ele>804.87</ele>
        <time>2026-08-21T09:40:26.574Z</time>
      </trkpt>
      <trkpt lat="45.0497" lon="2.42722">
        <ele>805.18</ele>
        <time>2026-08-21T09:40:29.228Z</time>
      </trkpt>
      <trkpt lat="45.04969" lon="2.42723">
        <ele>805.3</ele>
        <time>2026-08-21T09:40:30.525Z</time>
      </trkpt>
      <trkpt lat="45.04969" lon="2.42724">
        <ele>805.43</ele>
        <time>2026-08-21T09:40:31.527Z</time>
      </trkpt>
      <trkpt lat="45.04968" lon="2.42725">
        <ele>805.54</ele>
        <time>2026-08-21T09:40:32.529Z</time>
      </trkpt>
      <trkpt lat="45.04967" lon="2.42726">
        <ele>805.67</ele>
        <time>2026-08-21T09:40:33.061Z</time>
      </trkpt>
      <trkpt lat="45.04966" lon="2.42727">
        <ele>805.81</ele>
        <time>2026-08-21T09:40:34.536Z</time>
      </trkpt>
      <trkpt lat="45.04964" lon="2.4273">
        <ele>806.08</ele>
        <time>2026-08-21T09:40:36.540Z</time>
      </trkpt>
      <trkpt lat="45.04963" lon="2.42731">
        <ele>806.21</ele>
        <time>2026-08-21T09:40:37.386Z</time>
      </trkpt>
      <trkpt lat="45.04961" lon="2.42734">
        <ele>806.44</ele>
        <time>2026-08-21T09:40:39.548Z</time>
      </trkpt>
      <trkpt lat="45.0496" lon="2.42737">
        <ele>806.67</ele>
        <time>2026-08-21T09:40:41.278Z</time>
      </trkpt>
      <trkpt lat="45.04955" lon="2.42749">
        <ele>806.97</ele>
        <time>2026-08-21T09:41:06.055Z</time>
      </trkpt>
      <trkpt lat="45.04952" lon="2.42752">
        <ele>807.91</ele>
        <time>2026-08-21T09:41:10.904Z</time>
      </trkpt>
      <trkpt lat="45.0495" lon="2.42755">
        <ele>808.32</ele>
        <time>2026-08-21T09:41:14.195Z</time>
      </trkpt>
      <trkpt lat="45.04949" lon="2.42756">
        <ele>808.39</ele>
        <time>2026-08-21T09:41:15.668Z</time>
      </trkpt>
      <trkpt lat="45.04948" lon="2.42758">
        <ele>808.47</ele>
        <time>2026-08-21T09:41:16.178Z</time>
      </trkpt>
      <trkpt lat="45.04947" lon="2.4276">
        <ele>808.56</ele>
        <time>2026-08-21T09:41:16.683Z</time>
      </trkpt>
      <trkpt lat="45.04945" lon="2.42761">
        <ele>808.63</ele>
        <time>2026-08-21T09:41:18.648Z</time>
      </trkpt>
      <trkpt lat="45.04944" lon="2.42763">
        <ele>808.75</ele>
        <time>2026-08-21T09:41:19.665Z</time>
      </trkpt>
      <trkpt lat="45.04942" lon="2.42764">
        <ele>808.82</ele>
        <time>2026-08-21T09:41:20.653Z</time>
      </trkpt>
      <trkpt lat="45.04941" lon="2.42766">
        <ele>808.9</ele>
        <time>2026-08-21T09:41:21.667Z</time>
      </trkpt>
      <trkpt lat="45.0494" lon="2.42768">
        <ele>809.01</ele>
        <time>2026-08-21T09:41:21.694Z</time>
      </trkpt>
      <trkpt lat="45.04939" lon="2.42769">
        <ele>809.13</ele>
        <time>2026-08-21T09:41:23.660Z</time>
      </trkpt>
      <trkpt lat="45.04938" lon="2.4277">
        <ele>809.23</ele>
        <time>2026-08-21T09:41:24.186Z</time>
      </trkpt>
      <trkpt lat="45.04937" lon="2.42771">
        <ele>809.32</ele>
        <time>2026-08-21T09:41:25.177Z</time>
      </trkpt>
      <trkpt lat="45.04936" lon="2.42772">
        <ele>809.47</ele>
        <time>2026-08-21T09:41:26.649Z</time>
      </trkpt>
      <trkpt lat="45.04935" lon="2.42773">
        <ele>809.58</ele>
        <time>2026-08-21T09:41:27.667Z</time>
      </trkpt>
      <trkpt lat="45.04933" lon="2.42774">
        <ele>809.71</ele>
        <time>2026-08-21T09:41:28.414Z</time>
      </trkpt>
      <trkpt lat="45.04932" lon="2.42775">
        <ele>809.83</ele>
        <time>2026-08-21T09:41:29.662Z</time>
      </trkpt>
      <trkpt lat="45.04931" lon="2.42776">
        <ele>809.96</ele>
        <time>2026-08-21T09:41:30.185Z</time>
      </trkpt>
      <trkpt lat="45.04929" lon="2.42777">
        <ele>810.03</ele>
        <time>2026-08-21T09:41:31.657Z</time>
      </trkpt>
      <trkpt lat="45.04928" lon="2.42778">
        <ele>810.15</ele>
        <time>2026-08-21T09:41:32.646Z</time>
      </trkpt>
      <trkpt lat="45.04927" lon="2.42779">
        <ele>810.3</ele>
        <time>2026-08-21T09:41:33.647Z</time>
      </trkpt>
      <trkpt lat="45.04926" lon="2.42781">
        <ele>810.41</ele>
        <time>2026-08-21T09:41:34.676Z</time>
      </trkpt>
      <trkpt lat="45.04926" lon="2.42783">
        <ele>810.53</ele>
        <time>2026-08-21T09:41:35.651Z</time>
      </trkpt>
      <trkpt lat="45.04924" lon="2.42785">
        <ele>810.66</ele>
        <time>2026-08-21T09:41:36.657Z</time>
      </trkpt>
      <trkpt lat="45.04924" lon="2.42786">
        <ele>810.8</ele>
        <time>2026-08-21T09:41:37.674Z</time>
      </trkpt>
      <trkpt lat="45.04921" lon="2.4279">
        <ele>811.12</ele>
        <time>2026-08-21T09:41:39.661Z</time>
      </trkpt>
      <trkpt lat="45.0492" lon="2.42791">
        <ele>811.3</ele>
        <time>2026-08-21T09:41:40.660Z</time>
      </trkpt>
      <trkpt lat="45.04918" lon="2.42792">
        <ele>811.46</ele>
        <time>2026-08-21T09:41:41.673Z</time>
      </trkpt>
      <trkpt lat="45.04917" lon="2.42793">
        <ele>811.64</ele>
        <time>2026-08-21T09:41:42.690Z</time>
      </trkpt>
      <trkpt lat="45.04916" lon="2.42795">
        <ele>811.77</ele>
        <time>2026-08-21T09:41:43.688Z</time>
      </trkpt>
      <trkpt lat="45.04914" lon="2.42796">
        <ele>811.89</ele>
        <time>2026-08-21T09:41:44.667Z</time>
      </trkpt>
      <trkpt lat="45.04913" lon="2.42798">
        <ele>812.04</ele>
        <time>2026-08-21T09:41:45.670Z</time>
      </trkpt>
      <trkpt lat="45.04911" lon="2.428">
        <ele>812.21</ele>
        <time>2026-08-21T09:41:46.670Z</time>
      </trkpt>
      <trkpt lat="45.0491" lon="2.42802">
        <ele>812.39</ele>
        <time>2026-08-21T09:41:47.687Z</time>
      </trkpt>
      <trkpt lat="45.04908" lon="2.42804">
        <ele>812.57</ele>
        <time>2026-08-21T09:41:48.177Z</time>
      </trkpt>
      <trkpt lat="45.04907" lon="2.42806">
        <ele>812.75</ele>
        <time>2026-08-21T09:41:49.693Z</time>
      </trkpt>
      <trkpt lat="45.04906" lon="2.42807">
        <ele>812.93</ele>
        <time>2026-08-21T09:41:50.413Z</time>
      </trkpt>
      <trkpt lat="45.04905" lon="2.42809">
        <ele>813.12</ele>
        <time>2026-08-21T09:41:51.656Z</time>
      </trkpt>
      <trkpt lat="45.04903" lon="2.4281">
        <ele>813.33</ele>
        <time>2026-08-21T09:41:52.681Z</time>
      </trkpt>
      <trkpt lat="45.04901" lon="2.42812">
        <ele>813.48</ele>
        <time>2026-08-21T09:41:53.645Z</time>
      </trkpt>
      <trkpt lat="45.049" lon="2.42813">
        <ele>813.7</ele>
        <time>2026-08-21T09:41:54.688Z</time>
      </trkpt>
      <trkpt lat="45.04898" lon="2.42814">
        <ele>813.9</ele>
        <time>2026-08-21T09:41:55.416Z</time>
      </trkpt>
      <trkpt lat="45.04897" lon="2.42816">
        <ele>814.13</ele>
        <time>2026-08-21T09:41:56.670Z</time>
      </trkpt>
      <trkpt lat="45.04895" lon="2.42818">
        <ele>814.35</ele>
        <time>2026-08-21T09:41:57.613Z</time>
      </trkpt>
      <trkpt lat="45.04894" lon="2.42819">
        <ele>814.6</ele>
        <time>2026-08-21T09:41:58.694Z</time>
      </trkpt>
      <trkpt lat="45.04892" lon="2.4282">
        <ele>814.86</ele>
        <time>2026-08-21T09:41:59.692Z</time>
      </trkpt>
      <trkpt lat="45.0489" lon="2.42821">
        <ele>815.06</ele>
        <time>2026-08-21T09:42:00.313Z</time>
      </trkpt>
      <trkpt lat="45.04889" lon="2.42823">
        <ele>815.28</ele>
        <time>2026-08-21T09:42:01.242Z</time>
      </trkpt>
      <trkpt lat="45.04888" lon="2.42824">
        <ele>815.59</ele>
        <time>2026-08-21T09:42:02.702Z</time>
      </trkpt>
      <trkpt lat="45.04887" lon="2.42825">
        <ele>815.81</ele>
        <time>2026-08-21T09:42:03.705Z</time>
      </trkpt>
      <trkpt lat="45.04886" lon="2.42827">
        <ele>816.08</ele>
        <time>2026-08-21T09:42:03.716Z</time>
      </trkpt>
      <trkpt lat="45.04884" lon="2.42829">
        <ele>816.31</ele>
        <time>2026-08-21T09:42:05.666Z</time>
      </trkpt>
      <trkpt lat="45.04883" lon="2.42831">
        <ele>816.57</ele>
        <time>2026-08-21T09:42:06.710Z</time>
      </trkpt>
      <trkpt lat="45.04882" lon="2.42833">
        <ele>816.83</ele>
        <time>2026-08-21T09:42:07.711Z</time>
      </trkpt>
      <trkpt lat="45.04881" lon="2.42835">
        <ele>817.07</ele>
        <time>2026-08-21T09:42:08.686Z</time>
      </trkpt>
      <trkpt lat="45.0488" lon="2.42837">
        <ele>817.36</ele>
        <time>2026-08-21T09:42:09.614Z</time>
      </trkpt>
      <trkpt lat="45.04879" lon="2.4284">
        <ele>817.62</ele>
        <time>2026-08-21T09:42:10.716Z</time>
      </trkpt>
      <trkpt lat="45.04878" lon="2.42842">
        <ele>817.9</ele>
        <time>2026-08-21T09:42:11.717Z</time>
      </trkpt>
      <trkpt lat="45.04876" lon="2.42844">
        <ele>818.15</ele>
        <time>2026-08-21T09:42:12.719Z</time>
      </trkpt>
      <trkpt lat="45.04876" lon="2.42846">
        <ele>818.43</ele>
        <time>2026-08-21T09:42:13.720Z</time>
      </trkpt>
      <trkpt lat="45.04875" lon="2.42848">
        <ele>818.71</ele>
        <time>2026-08-21T09:42:14.285Z</time>
      </trkpt>
      <trkpt lat="45.04872" lon="2.42854">
        <ele>819.17</ele>
        <time>2026-08-21T09:42:16.293Z</time>
      </trkpt>
      <trkpt lat="45.04871" lon="2.42856">
        <ele>819.47</ele>
        <time>2026-08-21T09:42:17.630Z</time>
      </trkpt>
      <trkpt lat="45.0487" lon="2.42858">
        <ele>819.73</ele>
        <time>2026-08-21T09:42:18.633Z</time>
      </trkpt>
      <trkpt lat="45.04868" lon="2.4286">
        <ele>819.99</ele>
        <time>2026-08-21T09:42:19.633Z</time>
      </trkpt>
      <trkpt lat="45.04867" lon="2.42863">
        <ele>820.18</ele>
        <time>2026-08-21T09:42:20.635Z</time>
      </trkpt>
      <trkpt lat="45.04866" lon="2.42865">
        <ele>820.47</ele>
        <time>2026-08-21T09:42:21.639Z</time>
      </trkpt>
      <trkpt lat="45.04864" lon="2.42868">
        <ele>820.73</ele>
        <time>2026-08-21T09:42:22.639Z</time>
      </trkpt>
      <trkpt lat="45.04863" lon="2.42871">
        <ele>821.04</ele>
        <time>2026-08-21T09:42:23.644Z</time>
      </trkpt>
      <trkpt lat="45.04862" lon="2.42874">
        <ele>821.26</ele>
        <time>2026-08-21T09:42:24.645Z</time>
      </trkpt>
      <trkpt lat="45.0486" lon="2.42876">
        <ele>821.51</ele>
        <time>2026-08-21T09:42:25.648Z</time>
      </trkpt>
      <trkpt lat="45.04859" lon="2.42879">
        <ele>821.74</ele>
        <time>2026-08-21T09:42:26.649Z</time>
      </trkpt>
      <trkpt lat="45.04858" lon="2.42882">
        <ele>822</ele>
        <time>2026-08-21T09:42:27.649Z</time>
      </trkpt>
      <trkpt lat="45.04856" lon="2.42885">
        <ele>822.26</ele>
        <time>2026-08-21T09:42:28.654Z</time>
      </trkpt>
      <trkpt lat="45.04855" lon="2.42887">
        <ele>822.54</ele>
        <time>2026-08-21T09:42:29.658Z</time>
      </trkpt>
      <trkpt lat="45.04854" lon="2.4289">
        <ele>822.85</ele>
        <time>2026-08-21T09:42:30.658Z</time>
      </trkpt>
      <trkpt lat="45.04853" lon="2.42892">
        <ele>823.1</ele>
        <time>2026-08-21T09:42:31.660Z</time>
      </trkpt>
      <trkpt lat="45.0485" lon="2.42898">
        <ele>823.65</ele>
        <time>2026-08-21T09:42:33.662Z</time>
      </trkpt>
      <trkpt lat="45.04849" lon="2.429">
        <ele>823.96</ele>
        <time>2026-08-21T09:42:34.639Z</time>
      </trkpt>
      <trkpt lat="45.04849" lon="2.42902">
        <ele>824.25</ele>
        <time>2026-08-21T09:42:35.666Z</time>
      </trkpt>
      <trkpt lat="45.04847" lon="2.42904">
        <ele>824.5</ele>
        <time>2026-08-21T09:42:36.451Z</time>
      </trkpt>
      <trkpt lat="45.04846" lon="2.42906">
        <ele>824.76</ele>
        <time>2026-08-21T09:42:37.672Z</time>
      </trkpt>
      <trkpt lat="45.04845" lon="2.42908">
        <ele>825.02</ele>
        <time>2026-08-21T09:42:38.673Z</time>
      </trkpt>
      <trkpt lat="45.04843" lon="2.4291">
        <ele>825.29</ele>
        <time>2026-08-21T09:42:39.675Z</time>
      </trkpt>
      <trkpt lat="45.04841" lon="2.42912">
        <ele>825.59</ele>
        <time>2026-08-21T09:42:40.332Z</time>
      </trkpt>
      <trkpt lat="45.0484" lon="2.42914">
        <ele>825.88</ele>
        <time>2026-08-21T09:42:41.678Z</time>
      </trkpt>
      <trkpt lat="45.04838" lon="2.42915">
        <ele>826.2</ele>
        <time>2026-08-21T09:42:42.683Z</time>
      </trkpt>
      <trkpt lat="45.04837" lon="2.42917">
        <ele>826.52</ele>
        <time>2026-08-21T09:42:43.680Z</time>
      </trkpt>
      <trkpt lat="45.04835" lon="2.4292">
        <ele>826.84</ele>
        <time>2026-08-21T09:42:44.681Z</time>
      </trkpt>
      <trkpt lat="45.04834" lon="2.42922">
        <ele>827.18</ele>
        <time>2026-08-21T09:42:45.391Z</time>
      </trkpt>
      <trkpt lat="45.04833" lon="2.42924">
        <ele>827.48</ele>
        <time>2026-08-21T09:42:46.684Z</time>
      </trkpt>
      <trkpt lat="45.04833" lon="2.42927">
        <ele>827.76</ele>
        <time>2026-08-21T09:42:47.686Z</time>
      </trkpt>
      <trkpt lat="45.04832" lon="2.42929">
        <ele>828.04</ele>
        <time>2026-08-21T09:42:47.754Z</time>
      </trkpt>
      <trkpt lat="45.04831" lon="2.42931">
        <ele>828.39</ele>
        <time>2026-08-21T09:42:48.782Z</time>
      </trkpt>
      <trkpt lat="45.04829" lon="2.42934">
        <ele>828.69</ele>
        <time>2026-08-21T09:42:50.492Z</time>
      </trkpt>
      <trkpt lat="45.04828" lon="2.42936">
        <ele>828.97</ele>
        <time>2026-08-21T09:42:51.696Z</time>
      </trkpt>
      <trkpt lat="45.04826" lon="2.42942">
        <ele>829.48</ele>
        <time>2026-08-21T09:42:53.701Z</time>
      </trkpt>
      <trkpt lat="45.04825" lon="2.42944">
        <ele>829.72</ele>
        <time>2026-08-21T09:42:54.704Z</time>
      </trkpt>
      <trkpt lat="45.04824" lon="2.42946">
        <ele>829.96</ele>
        <time>2026-08-21T09:42:55.707Z</time>
      </trkpt>
      <trkpt lat="45.04823" lon="2.42949">
        <ele>830.21</ele>
        <time>2026-08-21T09:42:56.437Z</time>
      </trkpt>
      <trkpt lat="45.04821" lon="2.42952">
        <ele>830.43</ele>
        <time>2026-08-21T09:42:57.712Z</time>
      </trkpt>
      <trkpt lat="45.0482" lon="2.42955">
        <ele>830.67</ele>
        <time>2026-08-21T09:42:58.715Z</time>
      </trkpt>
      <trkpt lat="45.04818" lon="2.42957">
        <ele>830.9</ele>
        <time>2026-08-21T09:42:59.280Z</time>
      </trkpt>
      <trkpt lat="45.04817" lon="2.4296">
        <ele>831.05</ele>
        <time>2026-08-21T09:43:00.720Z</time>
      </trkpt>
      <trkpt lat="45.04815" lon="2.42963">
        <ele>831.26</ele>
        <time>2026-08-21T09:43:01.723Z</time>
      </trkpt>
      <trkpt lat="45.04813" lon="2.42966">
        <ele>831.49</ele>
        <time>2026-08-21T09:43:02.692Z</time>
      </trkpt>
      <trkpt lat="45.04812" lon="2.42969">
        <ele>831.71</ele>
        <time>2026-08-21T09:43:03.690Z</time>
      </trkpt>
      <trkpt lat="45.04809" lon="2.42972">
        <ele>831.91</ele>
        <time>2026-08-21T09:43:04.409Z</time>
      </trkpt>
      <trkpt lat="45.04807" lon="2.42974">
        <ele>832.12</ele>
        <time>2026-08-21T09:43:05.738Z</time>
      </trkpt>
      <trkpt lat="45.04805" lon="2.42977">
        <ele>832.31</ele>
        <time>2026-08-21T09:43:06.544Z</time>
      </trkpt>
      <trkpt lat="45.04803" lon="2.42979">
        <ele>832.61</ele>
        <time>2026-08-21T09:43:07.737Z</time>
      </trkpt>
      <trkpt lat="45.04801" lon="2.42981">
        <ele>832.9</ele>
        <time>2026-08-21T09:43:08.739Z</time>
      </trkpt>
      <trkpt lat="45.04799" lon="2.42983">
        <ele>833.2</ele>
        <time>2026-08-21T09:43:09.608Z</time>
      </trkpt>
      <trkpt lat="45.04797" lon="2.42986">
        <ele>833.53</ele>
        <time>2026-08-21T09:43:09.787Z</time>
      </trkpt>
      <trkpt lat="45.04796" lon="2.42988">
        <ele>833.83</ele>
        <time>2026-08-21T09:43:11.616Z</time>
      </trkpt>
      <trkpt lat="45.04795" lon="2.4299">
        <ele>834.19</ele>
        <time>2026-08-21T09:43:12.673Z</time>
      </trkpt>
      <trkpt lat="45.04794" lon="2.42993">
        <ele>834.45</ele>
        <time>2026-08-21T09:43:13.753Z</time>
      </trkpt>
      <trkpt lat="45.04792" lon="2.42995">
        <ele>834.63</ele>
        <time>2026-08-21T09:43:13.800Z</time>
      </trkpt>
      <trkpt lat="45.04792" lon="2.42998">
        <ele>834.88</ele>
        <time>2026-08-21T09:43:15.758Z</time>
      </trkpt>
      <trkpt lat="45.04791" lon="2.43001">
        <ele>835.08</ele>
        <time>2026-08-21T09:43:15.809Z</time>
      </trkpt>
      <trkpt lat="45.04789" lon="2.43004">
        <ele>835.31</ele>
        <time>2026-08-21T09:43:17.306Z</time>
      </trkpt>
      <trkpt lat="45.04787" lon="2.43006">
        <ele>835.57</ele>
        <time>2026-08-21T09:43:17.823Z</time>
      </trkpt>
      <trkpt lat="45.04786" lon="2.43008">
        <ele>835.8</ele>
        <time>2026-08-21T09:43:19.769Z</time>
      </trkpt>
      <trkpt lat="45.04785" lon="2.4301">
        <ele>836.06</ele>
        <time>2026-08-21T09:43:19.861Z</time>
      </trkpt>
      <trkpt lat="45.04784" lon="2.43013">
        <ele>836.32</ele>
        <time>2026-08-21T09:43:21.674Z</time>
      </trkpt>
      <trkpt lat="45.0478" lon="2.43018">
        <ele>836.85</ele>
        <time>2026-08-21T09:43:23.778Z</time>
      </trkpt>
      <trkpt lat="45.04779" lon="2.43019">
        <ele>837</ele>
        <time>2026-08-21T09:43:24.680Z</time>
      </trkpt>
      <trkpt lat="45.04778" lon="2.4302">
        <ele>837.23</ele>
        <time>2026-08-21T09:43:25.686Z</time>
      </trkpt>
      <trkpt lat="45.04777" lon="2.43022">
        <ele>837.47</ele>
        <time>2026-08-21T09:43:26.685Z</time>
      </trkpt>
      <trkpt lat="45.04776" lon="2.43024">
        <ele>837.69</ele>
        <time>2026-08-21T09:43:27.687Z</time>
      </trkpt>
      <trkpt lat="45.04775" lon="2.43026">
        <ele>837.97</ele>
        <time>2026-08-21T09:43:28.688Z</time>
      </trkpt>
      <trkpt lat="45.04774" lon="2.43031">
        <ele>838.5</ele>
        <time>2026-08-21T09:43:30.694Z</time>
      </trkpt>
      <trkpt lat="45.0477" lon="2.43039">
        <ele>839.35</ele>
        <time>2026-08-21T09:43:45.480Z</time>
      </trkpt>
      <trkpt lat="45.04769" lon="2.4304">
        <ele>839.4</ele>
        <time>2026-08-21T09:43:46.509Z</time>
      </trkpt>
      <trkpt lat="45.04768" lon="2.43043">
        <ele>839.49</ele>
        <time>2026-08-21T09:43:49.489Z</time>
      </trkpt>
      <trkpt lat="45.04766" lon="2.43047">
        <ele>839.6</ele>
        <time>2026-08-21T09:43:58.067Z</time>
      </trkpt>
      <trkpt lat="45.04765" lon="2.43051">
        <ele>839.94</ele>
        <time>2026-08-21T09:44:09.081Z</time>
      </trkpt>
      <trkpt lat="45.04764" lon="2.43053">
        <ele>840.05</ele>
        <time>2026-08-21T09:44:14.071Z</time>
      </trkpt>
      <trkpt lat="45.04763" lon="2.43054">
        <ele>840.06</ele>
        <time>2026-08-21T09:44:15.076Z</time>
      </trkpt>
      <trkpt lat="45.04763" lon="2.43055">
        <ele>840.1</ele>
        <time>2026-08-21T09:44:16.082Z</time>
      </trkpt>
      <trkpt lat="45.04762" lon="2.43056">
        <ele>840.13</ele>
        <time>2026-08-21T09:44:18.063Z</time>
      </trkpt>
      <trkpt lat="45.04762" lon="2.43058">
        <ele>840.16</ele>
        <time>2026-08-21T09:44:18.220Z</time>
      </trkpt>
      <trkpt lat="45.04759" lon="2.43061">
        <ele>840.24</ele>
        <time>2026-08-21T09:44:20.077Z</time>
      </trkpt>
      <trkpt lat="45.04758" lon="2.43063">
        <ele>840.29</ele>
        <time>2026-08-21T09:44:21.075Z</time>
      </trkpt>
      <trkpt lat="45.04756" lon="2.43068">
        <ele>841.34</ele>
        <time>2026-08-21T09:45:04.847Z</time>
      </trkpt>
      <trkpt lat="45.04755" lon="2.43069">
        <ele>841.35</ele>
        <time>2026-08-21T09:45:06.833Z</time>
      </trkpt>
      <trkpt lat="45.04755" lon="2.4307">
        <ele>841.37</ele>
        <time>2026-08-21T09:45:06.848Z</time>
      </trkpt>
      <trkpt lat="45.04754" lon="2.43071">
        <ele>841.38</ele>
        <time>2026-08-21T09:45:08.835Z</time>
      </trkpt>
      <trkpt lat="45.04752" lon="2.43073">
        <ele>841.4</ele>
        <time>2026-08-21T09:45:09.350Z</time>
      </trkpt>
      <trkpt lat="45.04751" lon="2.43074">
        <ele>841.42</ele>
        <time>2026-08-21T09:45:09.938Z</time>
      </trkpt>
      <trkpt lat="45.0475" lon="2.43075">
        <ele>841.46</ele>
        <time>2026-08-21T09:45:11.428Z</time>
      </trkpt>
      <trkpt lat="45.04747" lon="2.43079">
        <ele>841.55</ele>
        <time>2026-08-21T09:45:13.850Z</time>
      </trkpt>
      <trkpt lat="45.04746" lon="2.43081">
        <ele>841.58</ele>
        <time>2026-08-21T09:45:13.929Z</time>
      </trkpt>
      <trkpt lat="45.04745" lon="2.43082">
        <ele>841.61</ele>
        <time>2026-08-21T09:45:14.947Z</time>
      </trkpt>
      <trkpt lat="45.04744" lon="2.43084">
        <ele>841.65</ele>
        <time>2026-08-21T09:45:16.697Z</time>
      </trkpt>
      <trkpt lat="45.04743" lon="2.43085">
        <ele>841.69</ele>
        <time>2026-08-21T09:45:17.762Z</time>
      </trkpt>
      <trkpt lat="45.04741" lon="2.43087">
        <ele>841.78</ele>
        <time>2026-08-21T09:45:18.761Z</time>
      </trkpt>
      <trkpt lat="45.0474" lon="2.43088">
        <ele>841.84</ele>
        <time>2026-08-21T09:45:19.766Z</time>
      </trkpt>
      <trkpt lat="45.04738" lon="2.43089">
        <ele>841.9</ele>
        <time>2026-08-21T09:45:20.770Z</time>
      </trkpt>
      <trkpt lat="45.04737" lon="2.4309">
        <ele>841.98</ele>
        <time>2026-08-21T09:45:21.769Z</time>
      </trkpt>
      <trkpt lat="45.04736" lon="2.43091">
        <ele>842.04</ele>
        <time>2026-08-21T09:45:22.771Z</time>
      </trkpt>
      <trkpt lat="45.04734" lon="2.43093">
        <ele>842.1</ele>
        <time>2026-08-21T09:45:23.774Z</time>
      </trkpt>
      <trkpt lat="45.04733" lon="2.43095">
        <ele>842.19</ele>
        <time>2026-08-21T09:45:24.776Z</time>
      </trkpt>
      <trkpt lat="45.04732" lon="2.43097">
        <ele>842.29</ele>
        <time>2026-08-21T09:45:25.779Z</time>
      </trkpt>
      <trkpt lat="45.04731" lon="2.43098">
        <ele>842.39</ele>
        <time>2026-08-21T09:45:26.782Z</time>
      </trkpt>
      <trkpt lat="45.0473" lon="2.43101">
        <ele>842.5</ele>
        <time>2026-08-21T09:45:27.785Z</time>
      </trkpt>
      <trkpt lat="45.04729" lon="2.43103">
        <ele>842.6</ele>
        <time>2026-08-21T09:45:28.787Z</time>
      </trkpt>
      <trkpt lat="45.04728" lon="2.43105">
        <ele>842.7</ele>
        <time>2026-08-21T09:45:29.792Z</time>
      </trkpt>
      <trkpt lat="45.04727" lon="2.43107">
        <ele>842.82</ele>
        <time>2026-08-21T09:45:30.793Z</time>
      </trkpt>
      <trkpt lat="45.04726" lon="2.43109">
        <ele>842.95</ele>
        <time>2026-08-21T09:45:31.798Z</time>
      </trkpt>
      <trkpt lat="45.04725" lon="2.43111">
        <ele>843.08</ele>
        <time>2026-08-21T09:45:32.800Z</time>
      </trkpt>
      <trkpt lat="45.04725" lon="2.43113">
        <ele>843.21</ele>
        <time>2026-08-21T09:45:33.802Z</time>
      </trkpt>
      <trkpt lat="45.04724" lon="2.43115">
        <ele>843.37</ele>
        <time>2026-08-21T09:45:34.806Z</time>
      </trkpt>
      <trkpt lat="45.04723" lon="2.43117">
        <ele>843.52</ele>
        <time>2026-08-21T09:45:35.868Z</time>
      </trkpt>
      <trkpt lat="45.04722" lon="2.4312">
        <ele>843.69</ele>
        <time>2026-08-21T09:45:36.811Z</time>
      </trkpt>
      <trkpt lat="45.04719" lon="2.43125">
        <ele>844.04</ele>
        <time>2026-08-21T09:45:38.815Z</time>
      </trkpt>
      <trkpt lat="45.04718" lon="2.43127">
        <ele>844.22</ele>
        <time>2026-08-21T09:45:39.817Z</time>
      </trkpt>
      <trkpt lat="45.04718" lon="2.43128">
        <ele>844.38</ele>
        <time>2026-08-21T09:45:40.823Z</time>
      </trkpt>
      <trkpt lat="45.04718" lon="2.4313">
        <ele>844.59</ele>
        <time>2026-08-21T09:45:41.824Z</time>
      </trkpt>
      <trkpt lat="45.04717" lon="2.43132">
        <ele>844.78</ele>
        <time>2026-08-21T09:45:41.951Z</time>
      </trkpt>
      <trkpt lat="45.04716" lon="2.43134">
        <ele>844.98</ele>
        <time>2026-08-21T09:45:43.826Z</time>
      </trkpt>
      <trkpt lat="45.04715" lon="2.43135">
        <ele>845.18</ele>
        <time>2026-08-21T09:45:44.828Z</time>
      </trkpt>
      <trkpt lat="45.04713" lon="2.4314">
        <ele>845.61</ele>
        <time>2026-08-21T09:45:46.834Z</time>
      </trkpt>
      <trkpt lat="45.04713" lon="2.43142">
        <ele>845.84</ele>
        <time>2026-08-21T09:45:47.838Z</time>
      </trkpt>
      <trkpt lat="45.04712" lon="2.43144">
        <ele>846.06</ele>
        <time>2026-08-21T09:45:48.840Z</time>
      </trkpt>
      <trkpt lat="45.04711" lon="2.43146">
        <ele>846.3</ele>
        <time>2026-08-21T09:45:48.926Z</time>
      </trkpt>
      <trkpt lat="45.0471" lon="2.43148">
        <ele>846.54</ele>
        <time>2026-08-21T09:45:50.845Z</time>
      </trkpt>
      <trkpt lat="45.04708" lon="2.43153">
        <ele>846.98</ele>
        <time>2026-08-21T09:45:52.850Z</time>
      </trkpt>
      <trkpt lat="45.04707" lon="2.43154">
        <ele>847.2</ele>
        <time>2026-08-21T09:45:53.675Z</time>
      </trkpt>
      <trkpt lat="45.04706" lon="2.43155">
        <ele>847.42</ele>
        <time>2026-08-21T09:45:54.856Z</time>
      </trkpt>
      <trkpt lat="45.04705" lon="2.43156">
        <ele>847.64</ele>
        <time>2026-08-21T09:45:54.945Z</time>
      </trkpt>
      <trkpt lat="45.04701" lon="2.4316">
        <ele>848.08</ele>
        <time>2026-08-21T09:45:57.863Z</time>
      </trkpt>
      <trkpt lat="45.047" lon="2.4316">
        <ele>848.32</ele>
        <time>2026-08-21T09:45:57.945Z</time>
      </trkpt>
      <trkpt lat="45.04699" lon="2.43161">
        <ele>848.57</ele>
        <time>2026-08-21T09:45:58.901Z</time>
      </trkpt>
      <trkpt lat="45.04696" lon="2.43164">
        <ele>849.08</ele>
        <time>2026-08-21T09:46:00.903Z</time>
      </trkpt>
      <trkpt lat="45.04695" lon="2.43164">
        <ele>849.32</ele>
        <time>2026-08-21T09:46:01.940Z</time>
      </trkpt>
      <trkpt lat="45.04692" lon="2.43166">
        <ele>849.8</ele>
        <time>2026-08-21T09:46:03.916Z</time>
      </trkpt>
      <trkpt lat="45.04691" lon="2.43166">
        <ele>850.02</ele>
        <time>2026-08-21T09:46:04.921Z</time>
      </trkpt>
      <trkpt lat="45.04688" lon="2.43167">
        <ele>850.45</ele>
        <time>2026-08-21T09:46:07.887Z</time>
      </trkpt>
      <trkpt lat="45.04687" lon="2.43167">
        <ele>850.53</ele>
        <time>2026-08-21T09:46:07.920Z</time>
      </trkpt>
      <trkpt lat="45.04683" lon="2.43168">
        <ele>851.03</ele>
        <time>2026-08-21T09:46:10.682Z</time>
      </trkpt>
      <trkpt lat="45.04682" lon="2.43168">
        <ele>851.3</ele>
        <time>2026-08-21T09:46:10.931Z</time>
      </trkpt>
      <trkpt lat="45.04681" lon="2.43168">
        <ele>851.58</ele>
        <time>2026-08-21T09:46:11.960Z</time>
      </trkpt>
      <trkpt lat="45.04679" lon="2.43168">
        <ele>851.83</ele>
        <time>2026-08-21T09:46:12.930Z</time>
      </trkpt>
      <trkpt lat="45.04677" lon="2.43168">
        <ele>852.07</ele>
        <time>2026-08-21T09:46:14.799Z</time>
      </trkpt>
      <trkpt lat="45.04675" lon="2.43169">
        <ele>852.3</ele>
        <time>2026-08-21T09:46:14.946Z</time>
      </trkpt>
      <trkpt lat="45.04672" lon="2.43169">
        <ele>852.76</ele>
        <time>2026-08-21T09:46:16.936Z</time>
      </trkpt>
      <trkpt lat="45.04671" lon="2.43168">
        <ele>853.01</ele>
        <time>2026-08-21T09:46:17.963Z</time>
      </trkpt>
      <trkpt lat="45.0467" lon="2.43169">
        <ele>853.23</ele>
        <time>2026-08-21T09:46:18.937Z</time>
      </trkpt>
      <trkpt lat="45.04667" lon="2.4317">
        <ele>853.71</ele>
        <time>2026-08-21T09:46:21.820Z</time>
      </trkpt>
      <trkpt lat="45.04666" lon="2.43171">
        <ele>853.95</ele>
        <time>2026-08-21T09:46:22.820Z</time>
      </trkpt>
      <trkpt lat="45.04664" lon="2.43172">
        <ele>854.42</ele>
        <time>2026-08-21T09:46:24.826Z</time>
      </trkpt>
      <trkpt lat="45.04663" lon="2.43173">
        <ele>854.65</ele>
        <time>2026-08-21T09:46:25.828Z</time>
      </trkpt>
      <trkpt lat="45.04659" lon="2.43175">
        <ele>855.11</ele>
        <time>2026-08-21T09:46:27.834Z</time>
      </trkpt>
      <trkpt lat="45.04658" lon="2.43175">
        <ele>855.34</ele>
        <time>2026-08-21T09:46:28.837Z</time>
      </trkpt>
      <trkpt lat="45.04657" lon="2.43176">
        <ele>855.57</ele>
        <time>2026-08-21T09:46:29.839Z</time>
      </trkpt>
      <trkpt lat="45.04656" lon="2.43177">
        <ele>855.8</ele>
        <time>2026-08-21T09:46:29.935Z</time>
      </trkpt>
      <trkpt lat="45.04654" lon="2.4318">
        <ele>856.24</ele>
        <time>2026-08-21T09:46:32.855Z</time>
      </trkpt>
      <trkpt lat="45.04653" lon="2.43182">
        <ele>856.61</ele>
        <time>2026-08-21T09:46:34.850Z</time>
      </trkpt>
      <trkpt lat="45.04652" lon="2.43187">
        <ele>856.95</ele>
        <time>2026-08-21T09:46:35.929Z</time>
      </trkpt>
      <trkpt lat="45.04652" lon="2.43189">
        <ele>857.07</ele>
        <time>2026-08-21T09:46:37.857Z</time>
      </trkpt>
      <trkpt lat="45.04652" lon="2.43191">
        <ele>857.21</ele>
        <time>2026-08-21T09:46:38.862Z</time>
      </trkpt>
      <trkpt lat="45.04651" lon="2.43194">
        <ele>857.33</ele>
        <time>2026-08-21T09:46:39.864Z</time>
      </trkpt>
      <trkpt lat="45.04651" lon="2.43197">
        <ele>857.44</ele>
        <time>2026-08-21T09:46:40.867Z</time>
      </trkpt>
      <trkpt lat="45.04651" lon="2.43204">
        <ele>857.54</ele>
        <time>2026-08-21T09:46:41.872Z</time>
      </trkpt>
      <trkpt lat="45.0465" lon="2.4321">
        <ele>857.5</ele>
        <time>2026-08-21T09:46:42.874Z</time>
      </trkpt>
      <trkpt lat="45.04649" lon="2.43216">
        <ele>857.27</ele>
        <time>2026-08-21T09:46:43.877Z</time>
      </trkpt>
      <trkpt lat="45.04647" lon="2.43222">
        <ele>857.3</ele>
        <time>2026-08-21T09:46:44.882Z</time>
      </trkpt>
      <trkpt lat="45.04646" lon="2.43225">
        <ele>857.23</ele>
        <time>2026-08-21T09:46:45.882Z</time>
      </trkpt>
      <trkpt lat="45.04644" lon="2.43228">
        <ele>857.26</ele>
        <time>2026-08-21T09:46:46.886Z</time>
      </trkpt>
      <trkpt lat="45.04643" lon="2.43231">
        <ele>857.28</ele>
        <time>2026-08-21T09:46:47.889Z</time>
      </trkpt>
      <trkpt lat="45.04641" lon="2.43233">
        <ele>857.29</ele>
        <time>2026-08-21T09:46:48.891Z</time>
      </trkpt>
      <trkpt lat="45.04638" lon="2.43238">
        <ele>857.35</ele>
        <time>2026-08-21T09:46:50.898Z</time>
      </trkpt>
      <trkpt lat="45.04638" lon="2.4324">
        <ele>857.38</ele>
        <time>2026-08-21T09:46:51.899Z</time>
      </trkpt>
      <trkpt lat="45.04637" lon="2.43241">
        <ele>857.42</ele>
        <time>2026-08-21T09:46:52.903Z</time>
      </trkpt>
      <trkpt lat="45.04636" lon="2.43243">
        <ele>857.45</ele>
        <time>2026-08-21T09:46:53.673Z</time>
      </trkpt>
      <trkpt lat="45.04633" lon="2.43246">
        <ele>857.54</ele>
        <time>2026-08-21T09:46:55.532Z</time>
      </trkpt>
      <trkpt lat="45.04631" lon="2.43246">
        <ele>857.65</ele>
        <time>2026-08-21T09:46:57.747Z</time>
      </trkpt>
      <trkpt lat="45.04628" lon="2.43247">
        <ele>857.79</ele>
        <time>2026-08-21T09:46:59.910Z</time>
      </trkpt>
      <trkpt lat="45.04627" lon="2.43247">
        <ele>857.87</ele>
        <time>2026-08-21T09:47:00.922Z</time>
      </trkpt>
      <trkpt lat="45.04626" lon="2.43248">
        <ele>857.95</ele>
        <time>2026-08-21T09:47:01.931Z</time>
      </trkpt>
      <trkpt lat="45.04624" lon="2.43248">
        <ele>858.05</ele>
        <time>2026-08-21T09:47:02.929Z</time>
      </trkpt>
      <trkpt lat="45.04622" lon="2.43248">
        <ele>858.14</ele>
        <time>2026-08-21T09:47:02.956Z</time>
      </trkpt>
      <trkpt lat="45.0462" lon="2.43248">
        <ele>858.23</ele>
        <time>2026-08-21T09:47:04.769Z</time>
      </trkpt>
      <trkpt lat="45.04616" lon="2.43248">
        <ele>858.4</ele>
        <time>2026-08-21T09:47:06.938Z</time>
      </trkpt>
      <trkpt lat="45.04615" lon="2.43249">
        <ele>858.5</ele>
        <time>2026-08-21T09:47:06.998Z</time>
      </trkpt>
      <trkpt lat="45.04614" lon="2.43249">
        <ele>858.6</ele>
        <time>2026-08-21T09:47:08.733Z</time>
      </trkpt>
      <trkpt lat="45.04612" lon="2.4325">
        <ele>858.71</ele>
        <time>2026-08-21T09:47:09.004Z</time>
      </trkpt>
      <trkpt lat="45.04609" lon="2.43251">
        <ele>858.9</ele>
        <time>2026-08-21T09:47:11.007Z</time>
      </trkpt>
      <trkpt lat="45.04607" lon="2.43252">
        <ele>859.09</ele>
        <time>2026-08-21T09:47:13.053Z</time>
      </trkpt>
      <trkpt lat="45.04606" lon="2.43252">
        <ele>859.19</ele>
        <time>2026-08-21T09:47:13.968Z</time>
      </trkpt>
      <trkpt lat="45.04602" lon="2.43254">
        <ele>859.36</ele>
        <time>2026-08-21T09:47:16.863Z</time>
      </trkpt>
      <trkpt lat="45.04601" lon="2.43254">
        <ele>859.44</ele>
        <time>2026-08-21T09:47:17.865Z</time>
      </trkpt>
      <trkpt lat="45.04599" lon="2.43255">
        <ele>859.53</ele>
        <time>2026-08-21T09:47:18.869Z</time>
      </trkpt>
      <trkpt lat="45.04598" lon="2.43255">
        <ele>859.62</ele>
        <time>2026-08-21T09:47:19.870Z</time>
      </trkpt>
      <trkpt lat="45.04596" lon="2.43256">
        <ele>859.72</ele>
        <time>2026-08-21T09:47:20.871Z</time>
      </trkpt>
      <trkpt lat="45.04595" lon="2.43257">
        <ele>859.86</ele>
        <time>2026-08-21T09:47:21.873Z</time>
      </trkpt>
      <trkpt lat="45.0459" lon="2.43259">
        <ele>860.05</ele>
        <time>2026-08-21T09:47:23.878Z</time>
      </trkpt>
      <trkpt lat="45.0459" lon="2.4326">
        <ele>860.16</ele>
        <time>2026-08-21T09:47:24.879Z</time>
      </trkpt>
      <trkpt lat="45.04587" lon="2.43262">
        <ele>860.28</ele>
        <time>2026-08-21T09:47:26.885Z</time>
      </trkpt>
      <trkpt lat="45.04585" lon="2.43262">
        <ele>860.4</ele>
        <time>2026-08-21T09:47:27.889Z</time>
      </trkpt>
      <trkpt lat="45.04584" lon="2.43263">
        <ele>860.52</ele>
        <time>2026-08-21T09:47:28.890Z</time>
      </trkpt>
      <trkpt lat="45.04582" lon="2.43264">
        <ele>860.61</ele>
        <time>2026-08-21T09:47:29.893Z</time>
      </trkpt>
      <trkpt lat="45.04581" lon="2.43265">
        <ele>860.72</ele>
        <time>2026-08-21T09:47:30.896Z</time>
      </trkpt>
      <trkpt lat="45.04579" lon="2.43266">
        <ele>860.79</ele>
        <time>2026-08-21T09:47:31.899Z</time>
      </trkpt>
      <trkpt lat="45.04578" lon="2.43266">
        <ele>860.88</ele>
        <time>2026-08-21T09:47:31.984Z</time>
      </trkpt>
      <trkpt lat="45.04574" lon="2.43269">
        <ele>861.06</ele>
        <time>2026-08-21T09:47:34.908Z</time>
      </trkpt>
      <trkpt lat="45.04572" lon="2.4327">
        <ele>861.15</ele>
        <time>2026-08-21T09:47:35.915Z</time>
      </trkpt>
      <trkpt lat="45.04571" lon="2.4327">
        <ele>861.21</ele>
        <time>2026-08-21T09:47:36.916Z</time>
      </trkpt>
      <trkpt lat="45.04569" lon="2.43271">
        <ele>861.25</ele>
        <time>2026-08-21T09:47:37.919Z</time>
      </trkpt>
      <trkpt lat="45.04568" lon="2.43271">
        <ele>861.34</ele>
        <time>2026-08-21T09:47:38.920Z</time>
      </trkpt>
      <trkpt lat="45.04566" lon="2.43272">
        <ele>861.41</ele>
        <time>2026-08-21T09:47:39.925Z</time>
      </trkpt>
      <trkpt lat="45.04565" lon="2.43273">
        <ele>861.49</ele>
        <time>2026-08-21T09:47:40.925Z</time>
      </trkpt>
      <trkpt lat="45.04563" lon="2.43274">
        <ele>861.55</ele>
        <time>2026-08-21T09:47:41.001Z</time>
      </trkpt>
      <trkpt lat="45.04561" lon="2.43275">
        <ele>861.61</ele>
        <time>2026-08-21T09:47:42.930Z</time>
      </trkpt>
      <trkpt lat="45.04559" lon="2.43276">
        <ele>861.66</ele>
        <time>2026-08-21T09:47:43.011Z</time>
      </trkpt>
      <trkpt lat="45.04557" lon="2.43277">
        <ele>861.71</ele>
        <time>2026-08-21T09:47:44.934Z</time>
      </trkpt>
      <trkpt lat="45.04555" lon="2.43278">
        <ele>861.78</ele>
        <time>2026-08-21T09:47:45.938Z</time>
      </trkpt>
      <trkpt lat="45.04553" lon="2.43279">
        <ele>861.81</ele>
        <time>2026-08-21T09:47:46.941Z</time>
      </trkpt>
      <trkpt lat="45.0455" lon="2.4328">
        <ele>861.86</ele>
        <time>2026-08-21T09:47:47.943Z</time>
      </trkpt>
      <trkpt lat="45.04547" lon="2.43282">
        <ele>861.82</ele>
        <time>2026-08-21T09:47:48.945Z</time>
      </trkpt>
      <trkpt lat="45.04544" lon="2.43284">
        <ele>861.8</ele>
        <time>2026-08-21T09:47:49.850Z</time>
      </trkpt>
      <trkpt lat="45.04541" lon="2.43285">
        <ele>861.85</ele>
        <time>2026-08-21T09:47:50.494Z</time>
      </trkpt>
      <trkpt lat="45.04539" lon="2.43286">
        <ele>861.91</ele>
        <time>2026-08-21T09:47:51.514Z</time>
      </trkpt>
      <trkpt lat="45.04536" lon="2.43287">
        <ele>861.91</ele>
        <time>2026-08-21T09:47:52.953Z</time>
      </trkpt>
      <trkpt lat="45.04534" lon="2.43288">
        <ele>861.92</ele>
        <time>2026-08-21T09:47:53.956Z</time>
      </trkpt>
      <trkpt lat="45.04532" lon="2.4329">
        <ele>861.91</ele>
        <time>2026-08-21T09:47:54.959Z</time>
      </trkpt>
      <trkpt lat="45.04529" lon="2.43291">
        <ele>861.93</ele>
        <time>2026-08-21T09:47:55.055Z</time>
      </trkpt>
      <trkpt lat="45.04527" lon="2.43292">
        <ele>861.98</ele>
        <time>2026-08-21T09:47:56.552Z</time>
      </trkpt>
      <trkpt lat="45.04524" lon="2.43294">
        <ele>862</ele>
        <time>2026-08-21T09:47:57.993Z</time>
      </trkpt>
      <trkpt lat="45.04523" lon="2.43295">
        <ele>862</ele>
        <time>2026-08-21T09:47:58.969Z</time>
      </trkpt>
      <trkpt lat="45.04522" lon="2.43296">
        <ele>862.03</ele>
        <time>2026-08-21T09:47:59.800Z</time>
      </trkpt>
      <trkpt lat="45.04519" lon="2.43296">
        <ele>862</ele>
        <time>2026-08-21T09:48:00.975Z</time>
      </trkpt>
      <trkpt lat="45.04518" lon="2.43297">
        <ele>862.05</ele>
        <time>2026-08-21T09:48:01.069Z</time>
      </trkpt>
      <trkpt lat="45.04516" lon="2.43298">
        <ele>862.05</ele>
        <time>2026-08-21T09:48:02.828Z</time>
      </trkpt>
      <trkpt lat="45.04514" lon="2.43299">
        <ele>862.08</ele>
        <time>2026-08-21T09:48:03.061Z</time>
      </trkpt>
      <trkpt lat="45.04512" lon="2.43299">
        <ele>862.06</ele>
        <time>2026-08-21T09:48:04.067Z</time>
      </trkpt>
      <trkpt lat="45.0451" lon="2.433">
        <ele>862.07</ele>
        <time>2026-08-21T09:48:05.063Z</time>
      </trkpt>
      <trkpt lat="45.04508" lon="2.43301">
        <ele>862.12</ele>
        <time>2026-08-21T09:48:06.079Z</time>
      </trkpt>
      <trkpt lat="45.04506" lon="2.43302">
        <ele>862.14</ele>
        <time>2026-08-21T09:48:07.079Z</time>
      </trkpt>
      <trkpt lat="45.04503" lon="2.43303">
        <ele>862.07</ele>
        <time>2026-08-21T09:48:08.074Z</time>
      </trkpt>
      <trkpt lat="45.045" lon="2.43304">
        <ele>862.15</ele>
        <time>2026-08-21T09:48:09.488Z</time>
      </trkpt>
      <trkpt lat="45.04497" lon="2.43305">
        <ele>862.15</ele>
        <time>2026-08-21T09:48:10.541Z</time>
      </trkpt>
      <trkpt lat="45.04495" lon="2.43306">
        <ele>862.16</ele>
        <time>2026-08-21T09:48:11.682Z</time>
      </trkpt>
      <trkpt lat="45.04493" lon="2.43307">
        <ele>862.19</ele>
        <time>2026-08-21T09:48:12.070Z</time>
      </trkpt>
      <trkpt lat="45.0449" lon="2.43308">
        <ele>862.18</ele>
        <time>2026-08-21T09:48:13.458Z</time>
      </trkpt>
      <trkpt lat="45.04488" lon="2.43308">
        <ele>862.16</ele>
        <time>2026-08-21T09:48:14.063Z</time>
      </trkpt>
      <trkpt lat="45.04485" lon="2.43309">
        <ele>862.05</ele>
        <time>2026-08-21T09:48:15.036Z</time>
      </trkpt>
      <trkpt lat="45.04483" lon="2.4331">
        <ele>862.05</ele>
        <time>2026-08-21T09:48:16.053Z</time>
      </trkpt>
      <trkpt lat="45.0448" lon="2.4331">
        <ele>862.06</ele>
        <time>2026-08-21T09:48:17.556Z</time>
      </trkpt>
      <trkpt lat="45.04478" lon="2.43311">
        <ele>862.05</ele>
        <time>2026-08-21T09:48:18.088Z</time>
      </trkpt>
      <trkpt lat="45.04476" lon="2.43312">
        <ele>862.03</ele>
        <time>2026-08-21T09:48:19.861Z</time>
      </trkpt>
      <trkpt lat="45.04473" lon="2.43313">
        <ele>862.04</ele>
        <time>2026-08-21T09:48:20.066Z</time>
      </trkpt>
      <trkpt lat="45.04471" lon="2.43314">
        <ele>862.04</ele>
        <time>2026-08-21T09:48:21.087Z</time>
      </trkpt>
      <trkpt lat="45.04468" lon="2.43316">
        <ele>862.07</ele>
        <time>2026-08-21T09:48:22.045Z</time>
      </trkpt>
      <trkpt lat="45.04465" lon="2.43317">
        <ele>862.09</ele>
        <time>2026-08-21T09:48:23.069Z</time>
      </trkpt>
      <trkpt lat="45.04462" lon="2.43318">
        <ele>862.05</ele>
        <time>2026-08-21T09:48:24.552Z</time>
      </trkpt>
      <trkpt lat="45.04459" lon="2.4332">
        <ele>862.07</ele>
        <time>2026-08-21T09:48:25.099Z</time>
      </trkpt>
      <trkpt lat="45.04456" lon="2.43321">
        <ele>862.08</ele>
        <time>2026-08-21T09:48:26.939Z</time>
      </trkpt>
      <trkpt lat="45.04453" lon="2.43322">
        <ele>862.05</ele>
        <time>2026-08-21T09:48:27.940Z</time>
      </trkpt>
      <trkpt lat="45.04451" lon="2.43323">
        <ele>862.03</ele>
        <time>2026-08-21T09:48:28.944Z</time>
      </trkpt>
      <trkpt lat="45.04448" lon="2.43324">
        <ele>862.03</ele>
        <time>2026-08-21T09:48:29.946Z</time>
      </trkpt>
      <trkpt lat="45.04446" lon="2.43326">
        <ele>862.02</ele>
        <time>2026-08-21T09:48:30.948Z</time>
      </trkpt>
      <trkpt lat="45.04443" lon="2.43327">
        <ele>862</ele>
        <time>2026-08-21T09:48:31.953Z</time>
      </trkpt>
      <trkpt lat="45.04441" lon="2.43328">
        <ele>861.97</ele>
        <time>2026-08-21T09:48:32.954Z</time>
      </trkpt>
      <trkpt lat="45.04438" lon="2.43329">
        <ele>861.96</ele>
        <time>2026-08-21T09:48:33.955Z</time>
      </trkpt>
      <trkpt lat="45.04435" lon="2.4333">
        <ele>861.94</ele>
        <time>2026-08-21T09:48:34.958Z</time>
      </trkpt>
      <trkpt lat="45.04433" lon="2.43331">
        <ele>861.9</ele>
        <time>2026-08-21T09:48:35.960Z</time>
      </trkpt>
      <trkpt lat="45.0443" lon="2.43332">
        <ele>861.89</ele>
        <time>2026-08-21T09:48:36.962Z</time>
      </trkpt>
      <trkpt lat="45.04426" lon="2.43333">
        <ele>861.85</ele>
        <time>2026-08-21T09:48:37.732Z</time>
      </trkpt>
      <trkpt lat="45.04423" lon="2.43335">
        <ele>861.86</ele>
        <time>2026-08-21T09:48:38.968Z</time>
      </trkpt>
      <trkpt lat="45.0442" lon="2.43336">
        <ele>861.81</ele>
        <time>2026-08-21T09:48:39.971Z</time>
      </trkpt>
      <trkpt lat="45.04417" lon="2.43336">
        <ele>861.79</ele>
        <time>2026-08-21T09:48:40.078Z</time>
      </trkpt>
      <trkpt lat="45.04415" lon="2.43337">
        <ele>861.72</ele>
        <time>2026-08-21T09:48:41.977Z</time>
      </trkpt>
      <trkpt lat="45.04412" lon="2.43338">
        <ele>861.69</ele>
        <time>2026-08-21T09:48:42.981Z</time>
      </trkpt>
      <trkpt lat="45.04409" lon="2.43339">
        <ele>861.65</ele>
        <time>2026-08-21T09:48:43.068Z</time>
      </trkpt>
      <trkpt lat="45.04406" lon="2.4334">
        <ele>861.6</ele>
        <time>2026-08-21T09:48:44.065Z</time>
      </trkpt>
      <trkpt lat="45.044" lon="2.43341">
        <ele>861.55</ele>
        <time>2026-08-21T09:48:46.053Z</time>
      </trkpt>
      <trkpt lat="45.04397" lon="2.43343">
        <ele>861.45</ele>
        <time>2026-08-21T09:48:46.989Z</time>
      </trkpt>
      <trkpt lat="45.04395" lon="2.43344">
        <ele>861.39</ele>
        <time>2026-08-21T09:48:47.991Z</time>
      </trkpt>
      <trkpt lat="45.0439" lon="2.43347">
        <ele>861.28</ele>
        <time>2026-08-21T09:48:50.048Z</time>
      </trkpt>
      <trkpt lat="45.04388" lon="2.43349">
        <ele>861.17</ele>
        <time>2026-08-21T09:48:50.999Z</time>
      </trkpt>
      <trkpt lat="45.04383" lon="2.43352">
        <ele>861.1</ele>
        <time>2026-08-21T09:48:53.057Z</time>
      </trkpt>
      <trkpt lat="45.0438" lon="2.43353">
        <ele>861.03</ele>
        <time>2026-08-21T09:48:54.077Z</time>
      </trkpt>
      <trkpt lat="45.04378" lon="2.43355">
        <ele>860.97</ele>
        <time>2026-08-21T09:48:55.074Z</time>
      </trkpt>
      <trkpt lat="45.04376" lon="2.43356">
        <ele>860.85</ele>
        <time>2026-08-21T09:48:56.074Z</time>
      </trkpt>
      <trkpt lat="45.04374" lon="2.43358">
        <ele>860.76</ele>
        <time>2026-08-21T09:48:57.072Z</time>
      </trkpt>
      <trkpt lat="45.04371" lon="2.43357">
        <ele>860.63</ele>
        <time>2026-08-21T09:49:17.068Z</time>
      </trkpt>
      <trkpt lat="45.0437" lon="2.43355">
        <ele>860.22</ele>
        <time>2026-08-21T09:49:21.084Z</time>
      </trkpt>
      <trkpt lat="45.0437" lon="2.4335">
        <ele>859.52</ele>
        <time>2026-08-21T09:50:23.970Z</time>
      </trkpt>
      <trkpt lat="45.04369" lon="2.43348">
        <ele>859.52</ele>
        <time>2026-08-21T09:50:23.995Z</time>
      </trkpt>
      <trkpt lat="45.04369" lon="2.43345">
        <ele>859.43</ele>
        <time>2026-08-21T09:50:25.163Z</time>
      </trkpt>
      <trkpt lat="45.0437" lon="2.43342">
        <ele>859.37</ele>
        <time>2026-08-21T09:50:26.679Z</time>
      </trkpt>
      <trkpt lat="45.04371" lon="2.43339">
        <ele>859.35</ele>
        <time>2026-08-21T09:50:27.018Z</time>
      </trkpt>
      <trkpt lat="45.04372" lon="2.43335">
        <ele>859.33</ele>
        <time>2026-08-21T09:50:28Z</time>
      </trkpt>
      <trkpt lat="45.04374" lon="2.43332">
        <ele>859.31</ele>
        <time>2026-08-21T09:50:29.970Z</time>
      </trkpt>
      <trkpt lat="45.04376" lon="2.43329">
        <ele>859.28</ele>
        <time>2026-08-21T09:50:30.886Z</time>
      </trkpt>
      <trkpt lat="45.04377" lon="2.43326">
        <ele>859.26</ele>
        <time>2026-08-21T09:50:31.885Z</time>
      </trkpt>
      <trkpt lat="45.04379" lon="2.43324">
        <ele>859.24</ele>
        <time>2026-08-21T09:50:32.891Z</time>
      </trkpt>
      <trkpt lat="45.0438" lon="2.43321">
        <ele>859.21</ele>
        <time>2026-08-21T09:50:32.990Z</time>
      </trkpt>
      <trkpt lat="45.04382" lon="2.43319">
        <ele>859.2</ele>
        <time>2026-08-21T09:50:33.995Z</time>
      </trkpt>
      <trkpt lat="45.04385" lon="2.43316">
        <ele>859.18</ele>
        <time>2026-08-21T09:50:35.902Z</time>
      </trkpt>
      <trkpt lat="45.04387" lon="2.43313">
        <ele>859.14</ele>
        <time>2026-08-21T09:50:36.906Z</time>
      </trkpt>
      <trkpt lat="45.04388" lon="2.43311">
        <ele>859.12</ele>
        <time>2026-08-21T09:50:36.994Z</time>
      </trkpt>
      <trkpt lat="45.0439" lon="2.43309">
        <ele>859.11</ele>
        <time>2026-08-21T09:50:38.979Z</time>
      </trkpt>
      <trkpt lat="45.04392" lon="2.43306">
        <ele>859.07</ele>
        <time>2026-08-21T09:50:39.008Z</time>
      </trkpt>
      <trkpt lat="45.04394" lon="2.43303">
        <ele>859.05</ele>
        <time>2026-08-21T09:50:40.992Z</time>
      </trkpt>
      <trkpt lat="45.04396" lon="2.433">
        <ele>859.02</ele>
        <time>2026-08-21T09:50:41.927Z</time>
      </trkpt>
      <trkpt lat="45.04399" lon="2.43297">
        <ele>858.98</ele>
        <time>2026-08-21T09:50:42.929Z</time>
      </trkpt>
      <trkpt lat="45.04401" lon="2.43294">
        <ele>858.95</ele>
        <time>2026-08-21T09:50:43.935Z</time>
      </trkpt>
      <trkpt lat="45.04403" lon="2.43292">
        <ele>858.91</ele>
        <time>2026-08-21T09:50:44.980Z</time>
      </trkpt>
      <trkpt lat="45.04404" lon="2.43288">
        <ele>858.91</ele>
        <time>2026-08-21T09:50:45.940Z</time>
      </trkpt>
      <trkpt lat="45.04406" lon="2.43286">
        <ele>858.86</ele>
        <time>2026-08-21T09:50:46.009Z</time>
      </trkpt>
      <trkpt lat="45.04408" lon="2.43283">
        <ele>858.82</ele>
        <time>2026-08-21T09:50:47.999Z</time>
      </trkpt>
      <trkpt lat="45.0441" lon="2.4328">
        <ele>858.78</ele>
        <time>2026-08-21T09:50:48.971Z</time>
      </trkpt>
      <trkpt lat="45.04413" lon="2.43276">
        <ele>858.75</ele>
        <time>2026-08-21T09:50:49.049Z</time>
      </trkpt>
      <trkpt lat="45.04416" lon="2.43273">
        <ele>858.71</ele>
        <time>2026-08-21T09:50:50.975Z</time>
      </trkpt>
      <trkpt lat="45.04418" lon="2.43269">
        <ele>858.67</ele>
        <time>2026-08-21T09:50:51.962Z</time>
      </trkpt>
      <trkpt lat="45.04421" lon="2.43266">
        <ele>858.63</ele>
        <time>2026-08-21T09:50:52.953Z</time>
      </trkpt>
      <trkpt lat="45.04424" lon="2.43263">
        <ele>858.61</ele>
        <time>2026-08-21T09:50:53.969Z</time>
      </trkpt>
      <trkpt lat="45.04426" lon="2.43259">
        <ele>858.58</ele>
        <time>2026-08-21T09:50:54.965Z</time>
      </trkpt>
      <trkpt lat="45.04429" lon="2.43256">
        <ele>858.54</ele>
        <time>2026-08-21T09:50:55.066Z</time>
      </trkpt>
      <trkpt lat="45.04432" lon="2.43252">
        <ele>858.52</ele>
        <time>2026-08-21T09:50:56.979Z</time>
      </trkpt>
      <trkpt lat="45.04434" lon="2.43249">
        <ele>858.49</ele>
        <time>2026-08-21T09:50:57.027Z</time>
      </trkpt>
      <trkpt lat="45.04437" lon="2.43246">
        <ele>858.47</ele>
        <time>2026-08-21T09:50:58.989Z</time>
      </trkpt>
      <trkpt lat="45.04439" lon="2.43243">
        <ele>858.43</ele>
        <time>2026-08-21T09:50:59.702Z</time>
      </trkpt>
      <trkpt lat="45.04442" lon="2.43239">
        <ele>858.4</ele>
        <time>2026-08-21T09:51:00.071Z</time>
      </trkpt>
      <trkpt lat="45.04445" lon="2.43236">
        <ele>858.38</ele>
        <time>2026-08-21T09:51:01.075Z</time>
      </trkpt>
      <trkpt lat="45.04447" lon="2.43233">
        <ele>858.37</ele>
        <time>2026-08-21T09:51:02.079Z</time>
      </trkpt>
      <trkpt lat="45.04449" lon="2.4323">
        <ele>858.35</ele>
        <time>2026-08-21T09:51:03.083Z</time>
      </trkpt>
      <trkpt lat="45.04452" lon="2.43227">
        <ele>858.33</ele>
        <time>2026-08-21T09:51:04.622Z</time>
      </trkpt>
      <trkpt lat="45.04455" lon="2.43223">
        <ele>858.31</ele>
        <time>2026-08-21T09:51:05.068Z</time>
      </trkpt>
      <trkpt lat="45.04458" lon="2.4322">
        <ele>858.3</ele>
        <time>2026-08-21T09:51:07.030Z</time>
      </trkpt>
      <trkpt lat="45.04461" lon="2.43216">
        <ele>858.28</ele>
        <time>2026-08-21T09:51:07.079Z</time>
      </trkpt>
      <trkpt lat="45.04463" lon="2.43213">
        <ele>858.27</ele>
        <time>2026-08-21T09:51:08.064Z</time>
      </trkpt>
      <trkpt lat="45.04466" lon="2.4321">
        <ele>858.25</ele>
        <time>2026-08-21T09:51:09.058Z</time>
      </trkpt>
      <trkpt lat="45.04468" lon="2.43206">
        <ele>858.23</ele>
        <time>2026-08-21T09:51:10.071Z</time>
      </trkpt>
      <trkpt lat="45.04471" lon="2.43203">
        <ele>858.21</ele>
        <time>2026-08-21T09:51:12.026Z</time>
      </trkpt>
      <trkpt lat="45.04473" lon="2.432">
        <ele>858.19</ele>
        <time>2026-08-21T09:51:12.063Z</time>
      </trkpt>
      <trkpt lat="45.04475" lon="2.43196">
        <ele>858.18</ele>
        <time>2026-08-21T09:51:13.068Z</time>
      </trkpt>
      <trkpt lat="45.04478" lon="2.43193">
        <ele>858.17</ele>
        <time>2026-08-21T09:51:14.064Z</time>
      </trkpt>
      <trkpt lat="45.0448" lon="2.4319">
        <ele>858.14</ele>
        <time>2026-08-21T09:51:15.073Z</time>
      </trkpt>
      <trkpt lat="45.04482" lon="2.43187">
        <ele>858.13</ele>
        <time>2026-08-21T09:51:16.062Z</time>
      </trkpt>
      <trkpt lat="45.04485" lon="2.43184">
        <ele>858.12</ele>
        <time>2026-08-21T09:51:17.065Z</time>
      </trkpt>
      <trkpt lat="45.04487" lon="2.4318">
        <ele>858.11</ele>
        <time>2026-08-21T09:51:18.078Z</time>
      </trkpt>
      <trkpt lat="45.04489" lon="2.43176">
        <ele>858.11</ele>
        <time>2026-08-21T09:51:19.534Z</time>
      </trkpt>
      <trkpt lat="45.04491" lon="2.43174">
        <ele>858.1</ele>
        <time>2026-08-21T09:51:20.577Z</time>
      </trkpt>
      <trkpt lat="45.04493" lon="2.4317">
        <ele>858.1</ele>
        <time>2026-08-21T09:51:21.063Z</time>
      </trkpt>
      <trkpt lat="45.04496" lon="2.43167">
        <ele>858.1</ele>
        <time>2026-08-21T09:51:22.085Z</time>
      </trkpt>
      <trkpt lat="45.04497" lon="2.43163">
        <ele>858.1</ele>
        <time>2026-08-21T09:51:23.067Z</time>
      </trkpt>
      <trkpt lat="45.04499" lon="2.4316">
        <ele>858.11</ele>
        <time>2026-08-21T09:51:24.082Z</time>
      </trkpt>
      <trkpt lat="45.04501" lon="2.43158">
        <ele>858.14</ele>
        <time>2026-08-21T09:51:25.063Z</time>
      </trkpt>
      <trkpt lat="45.04503" lon="2.43155">
        <ele>858.17</ele>
        <time>2026-08-21T09:51:26.090Z</time>
      </trkpt>
      <trkpt lat="45.04506" lon="2.43152">
        <ele>858.2</ele>
        <time>2026-08-21T09:51:27.872Z</time>
      </trkpt>
      <trkpt lat="45.04507" lon="2.43149">
        <ele>858.23</ele>
        <time>2026-08-21T09:51:28.083Z</time>
      </trkpt>
      <trkpt lat="45.0451" lon="2.43147">
        <ele>858.26</ele>
        <time>2026-08-21T09:51:29.101Z</time>
      </trkpt>
      <trkpt lat="45.04512" lon="2.43144">
        <ele>858.29</ele>
        <time>2026-08-21T09:51:30.069Z</time>
      </trkpt>
      <trkpt lat="45.04516" lon="2.43138">
        <ele>858.32</ele>
        <time>2026-08-21T09:51:32.058Z</time>
      </trkpt>
      <trkpt lat="45.04518" lon="2.43135">
        <ele>858.39</ele>
        <time>2026-08-21T09:51:33.064Z</time>
      </trkpt>
      <trkpt lat="45.0452" lon="2.43132">
        <ele>858.43</ele>
        <time>2026-08-21T09:51:34.118Z</time>
      </trkpt>
      <trkpt lat="45.04522" lon="2.4313">
        <ele>858.48</ele>
        <time>2026-08-21T09:51:35.066Z</time>
      </trkpt>
      <trkpt lat="45.04526" lon="2.43124">
        <ele>858.53</ele>
        <time>2026-08-21T09:51:37.060Z</time>
      </trkpt>
      <trkpt lat="45.0453" lon="2.43119">
        <ele>858.64</ele>
        <time>2026-08-21T09:51:39.061Z</time>
      </trkpt>
      <trkpt lat="45.04532" lon="2.43117">
        <ele>858.75</ele>
        <time>2026-08-21T09:51:40.077Z</time>
      </trkpt>
      <trkpt lat="45.04536" lon="2.43111">
        <ele>858.82</ele>
        <time>2026-08-21T09:51:41.724Z</time>
      </trkpt>
      <trkpt lat="45.0454" lon="2.43105">
        <ele>858.93</ele>
        <time>2026-08-21T09:51:44.060Z</time>
      </trkpt>
      <trkpt lat="45.04542" lon="2.43102">
        <ele>859.07</ele>
        <time>2026-08-21T09:51:45.062Z</time>
      </trkpt>
      <trkpt lat="45.04544" lon="2.431">
        <ele>859.17</ele>
        <time>2026-08-21T09:51:45.903Z</time>
      </trkpt>
      <trkpt lat="45.04546" lon="2.43097">
        <ele>859.26</ele>
        <time>2026-08-21T09:51:47.068Z</time>
      </trkpt>
      <trkpt lat="45.04548" lon="2.43094">
        <ele>859.36</ele>
        <time>2026-08-21T09:51:48.066Z</time>
      </trkpt>
      <trkpt lat="45.0455" lon="2.43092">
        <ele>859.43</ele>
        <time>2026-08-21T09:51:49.067Z</time>
      </trkpt>
      <trkpt lat="45.04552" lon="2.43089">
        <ele>859.53</ele>
        <time>2026-08-21T09:51:49.622Z</time>
      </trkpt>
      <trkpt lat="45.04554" lon="2.43087">
        <ele>859.61</ele>
        <time>2026-08-21T09:51:50.674Z</time>
      </trkpt>
      <trkpt lat="45.04556" lon="2.43084">
        <ele>859.71</ele>
        <time>2026-08-21T09:51:52.076Z</time>
      </trkpt>
      <trkpt lat="45.04558" lon="2.43081">
        <ele>859.84</ele>
        <time>2026-08-21T09:51:52.708Z</time>
      </trkpt>
      <trkpt lat="45.04562" lon="2.43076">
        <ele>859.94</ele>
        <time>2026-08-21T09:51:55.054Z</time>
      </trkpt>
      <trkpt lat="45.04565" lon="2.43073">
        <ele>860.18</ele>
        <time>2026-08-21T09:51:56.077Z</time>
      </trkpt>
      <trkpt lat="45.04567" lon="2.4307">
        <ele>860.29</ele>
        <time>2026-08-21T09:51:57.079Z</time>
      </trkpt>
      <trkpt lat="45.04569" lon="2.43067">
        <ele>860.4</ele>
        <time>2026-08-21T09:51:58.080Z</time>
      </trkpt>
      <trkpt lat="45.04572" lon="2.43064">
        <ele>860.52</ele>
        <time>2026-08-21T09:51:58.955Z</time>
      </trkpt>
      <trkpt lat="45.04574" lon="2.43061">
        <ele>860.64</ele>
        <time>2026-08-21T09:52:00.083Z</time>
      </trkpt>
      <trkpt lat="45.04576" lon="2.43058">
        <ele>860.77</ele>
        <time>2026-08-21T09:52:01.085Z</time>
      </trkpt>
      <trkpt lat="45.04578" lon="2.43055">
        <ele>860.91</ele>
        <time>2026-08-21T09:52:01.652Z</time>
      </trkpt>
      <trkpt lat="45.0458" lon="2.43053">
        <ele>861.03</ele>
        <time>2026-08-21T09:52:02.909Z</time>
      </trkpt>
      <trkpt lat="45.04582" lon="2.4305">
        <ele>861.15</ele>
        <time>2026-08-21T09:52:03.775Z</time>
      </trkpt>
      <trkpt lat="45.04584" lon="2.43047">
        <ele>861.27</ele>
        <time>2026-08-21T09:52:05.092Z</time>
      </trkpt>
      <trkpt lat="45.04586" lon="2.43044">
        <ele>861.42</ele>
        <time>2026-08-21T09:52:05.766Z</time>
      </trkpt>
      <trkpt lat="45.04588" lon="2.43041">
        <ele>861.59</ele>
        <time>2026-08-21T09:52:07.037Z</time>
      </trkpt>
      <trkpt lat="45.04591" lon="2.43038">
        <ele>861.72</ele>
        <time>2026-08-21T09:52:07.746Z</time>
      </trkpt>
      <trkpt lat="45.04594" lon="2.43032">
        <ele>861.89</ele>
        <time>2026-08-21T09:52:10.058Z</time>
      </trkpt>
      <trkpt lat="45.04597" lon="2.43029">
        <ele>862.2</ele>
        <time>2026-08-21T09:52:10.828Z</time>
      </trkpt>
      <trkpt lat="45.04598" lon="2.43026">
        <ele>862.38</ele>
        <time>2026-08-21T09:52:11.730Z</time>
      </trkpt>
      <trkpt lat="45.04601" lon="2.43023">
        <ele>862.55</ele>
        <time>2026-08-21T09:52:12.719Z</time>
      </trkpt>
      <trkpt lat="45.04602" lon="2.4302">
        <ele>862.72</ele>
        <time>2026-08-21T09:52:13.739Z</time>
      </trkpt>
      <trkpt lat="45.04604" lon="2.43017">
        <ele>862.87</ele>
        <time>2026-08-21T09:52:14.701Z</time>
      </trkpt>
      <trkpt lat="45.04606" lon="2.43014">
        <ele>863.06</ele>
        <time>2026-08-21T09:52:16.105Z</time>
      </trkpt>
      <trkpt lat="45.04607" lon="2.43011">
        <ele>863.26</ele>
        <time>2026-08-21T09:52:16.711Z</time>
      </trkpt>
      <trkpt lat="45.0461" lon="2.43004">
        <ele>863.44</ele>
        <time>2026-08-21T09:52:19.108Z</time>
      </trkpt>
      <trkpt lat="45.04612" lon="2.43">
        <ele>863.77</ele>
        <time>2026-08-21T09:52:19.708Z</time>
      </trkpt>
      <trkpt lat="45.04614" lon="2.42997">
        <ele>864.05</ele>
        <time>2026-08-21T09:52:21.016Z</time>
      </trkpt>
      <trkpt lat="45.04615" lon="2.42993">
        <ele>864.24</ele>
        <time>2026-08-21T09:52:22.013Z</time>
      </trkpt>
      <trkpt lat="45.04617" lon="2.42989">
        <ele>864.57</ele>
        <time>2026-08-21T09:52:23.012Z</time>
      </trkpt>
      <trkpt lat="45.0462" lon="2.42982">
        <ele>864.87</ele>
        <time>2026-08-21T09:52:25.115Z</time>
      </trkpt>
      <trkpt lat="45.04621" lon="2.42979">
        <ele>865.57</ele>
        <time>2026-08-21T09:52:25.709Z</time>
      </trkpt>
      <trkpt lat="45.04623" lon="2.42975">
        <ele>865.97</ele>
        <time>2026-08-21T09:52:27.017Z</time>
      </trkpt>
      <trkpt lat="45.04624" lon="2.42971">
        <ele>866.32</ele>
        <time>2026-08-21T09:52:28.030Z</time>
      </trkpt>
      <trkpt lat="45.04625" lon="2.42967">
        <ele>866.64</ele>
        <time>2026-08-21T09:52:29.025Z</time>
      </trkpt>
      <trkpt lat="45.04625" lon="2.42964">
        <ele>866.99</ele>
        <time>2026-08-21T09:52:30.027Z</time>
      </trkpt>
      <trkpt lat="45.04627" lon="2.4296">
        <ele>867.34</ele>
        <time>2026-08-21T09:52:31.026Z</time>
      </trkpt>
      <trkpt lat="45.04627" lon="2.42957">
        <ele>867.65</ele>
        <time>2026-08-21T09:52:32.028Z</time>
      </trkpt>
      <trkpt lat="45.04628" lon="2.42953">
        <ele>867.94</ele>
        <time>2026-08-21T09:52:33.035Z</time>
      </trkpt>
      <trkpt lat="45.04628" lon="2.42949">
        <ele>868.27</ele>
        <time>2026-08-21T09:52:34.032Z</time>
      </trkpt>
      <trkpt lat="45.04628" lon="2.42946">
        <ele>868.58</ele>
        <time>2026-08-21T09:52:35.036Z</time>
      </trkpt>
      <trkpt lat="45.04628" lon="2.42942">
        <ele>868.84</ele>
        <time>2026-08-21T09:52:36.035Z</time>
      </trkpt>
      <trkpt lat="45.04629" lon="2.42938">
        <ele>869.08</ele>
        <time>2026-08-21T09:52:37.042Z</time>
      </trkpt>
      <trkpt lat="45.04629" lon="2.42934">
        <ele>869.36</ele>
        <time>2026-08-21T09:52:38.037Z</time>
      </trkpt>
      <trkpt lat="45.04629" lon="2.4293">
        <ele>869.62</ele>
        <time>2026-08-21T09:52:39.041Z</time>
      </trkpt>
      <trkpt lat="45.04628" lon="2.42926">
        <ele>869.86</ele>
        <time>2026-08-21T09:52:40.039Z</time>
      </trkpt>
      <trkpt lat="45.04628" lon="2.42922">
        <ele>870.13</ele>
        <time>2026-08-21T09:52:41.040Z</time>
      </trkpt>
      <trkpt lat="45.04628" lon="2.42918">
        <ele>870.38</ele>
        <time>2026-08-21T09:52:42.040Z</time>
      </trkpt>
      <trkpt lat="45.04627" lon="2.42914">
        <ele>870.6</ele>
        <time>2026-08-21T09:52:43.041Z</time>
      </trkpt>
      <trkpt lat="45.04626" lon="2.42909">
        <ele>870.88</ele>
        <time>2026-08-21T09:52:44.042Z</time>
      </trkpt>
      <trkpt lat="45.04626" lon="2.42905">
        <ele>871.09</ele>
        <time>2026-08-21T09:52:45.044Z</time>
      </trkpt>
      <trkpt lat="45.04625" lon="2.42901">
        <ele>871.34</ele>
        <time>2026-08-21T09:52:46.046Z</time>
      </trkpt>
      <trkpt lat="45.04624" lon="2.42897">
        <ele>871.57</ele>
        <time>2026-08-21T09:52:47.048Z</time>
      </trkpt>
      <trkpt lat="45.04623" lon="2.42893">
        <ele>871.71</ele>
        <time>2026-08-21T09:52:47.795Z</time>
      </trkpt>
      <trkpt lat="45.04622" lon="2.42889">
        <ele>871.87</ele>
        <time>2026-08-21T09:52:49.051Z</time>
      </trkpt>
      <trkpt lat="45.04621" lon="2.42885">
        <ele>871.98</ele>
        <time>2026-08-21T09:52:50.054Z</time>
      </trkpt>
      <trkpt lat="45.0462" lon="2.42882">
        <ele>872.19</ele>
        <time>2026-08-21T09:52:51.057Z</time>
      </trkpt>
      <trkpt lat="45.0462" lon="2.42878">
        <ele>872.34</ele>
        <time>2026-08-21T09:52:52.058Z</time>
      </trkpt>
      <trkpt lat="45.04619" lon="2.42874">
        <ele>872.47</ele>
        <time>2026-08-21T09:52:53.060Z</time>
      </trkpt>
      <trkpt lat="45.04618" lon="2.42869">
        <ele>872.62</ele>
        <time>2026-08-21T09:52:54.062Z</time>
      </trkpt>
      <trkpt lat="45.04617" lon="2.42866">
        <ele>872.76</ele>
        <time>2026-08-21T09:52:55.065Z</time>
      </trkpt>
      <trkpt lat="45.04616" lon="2.42862">
        <ele>872.9</ele>
        <time>2026-08-21T09:52:56.043Z</time>
      </trkpt>
      <trkpt lat="45.04615" lon="2.42859">
        <ele>873.04</ele>
        <time>2026-08-21T09:52:57.073Z</time>
      </trkpt>
      <trkpt lat="45.04615" lon="2.42854">
        <ele>873.18</ele>
        <time>2026-08-21T09:52:57.793Z</time>
      </trkpt>
      <trkpt lat="45.04614" lon="2.42851">
        <ele>873.33</ele>
        <time>2026-08-21T09:52:59.076Z</time>
      </trkpt>
      <trkpt lat="45.04613" lon="2.42846">
        <ele>873.43</ele>
        <time>2026-08-21T09:53:00.078Z</time>
      </trkpt>
      <trkpt lat="45.04612" lon="2.42843">
        <ele>873.52</ele>
        <time>2026-08-21T09:53:00.994Z</time>
      </trkpt>
      <trkpt lat="45.04611" lon="2.42839">
        <ele>873.64</ele>
        <time>2026-08-21T09:53:02.081Z</time>
      </trkpt>
      <trkpt lat="45.0461" lon="2.42834">
        <ele>873.76</ele>
        <time>2026-08-21T09:53:03.084Z</time>
      </trkpt>
      <trkpt lat="45.04609" lon="2.4283">
        <ele>873.88</ele>
        <time>2026-08-21T09:53:04.017Z</time>
      </trkpt>
      <trkpt lat="45.04609" lon="2.42826">
        <ele>873.95</ele>
        <time>2026-08-21T09:53:05.088Z</time>
      </trkpt>
      <trkpt lat="45.04607" lon="2.42822">
        <ele>874.01</ele>
        <time>2026-08-21T09:53:06.090Z</time>
      </trkpt>
      <trkpt lat="45.04607" lon="2.42819">
        <ele>874.12</ele>
        <time>2026-08-21T09:53:07.092Z</time>
      </trkpt>
      <trkpt lat="45.04606" lon="2.42815">
        <ele>874.23</ele>
        <time>2026-08-21T09:53:08.094Z</time>
      </trkpt>
      <trkpt lat="45.04605" lon="2.4281">
        <ele>874.32</ele>
        <time>2026-08-21T09:53:09.097Z</time>
      </trkpt>
      <trkpt lat="45.04604" lon="2.42807">
        <ele>874.38</ele>
        <time>2026-08-21T09:53:10.102Z</time>
      </trkpt>
      <trkpt lat="45.04603" lon="2.42802">
        <ele>874.47</ele>
        <time>2026-08-21T09:53:10.706Z</time>
      </trkpt>
      <trkpt lat="45.04602" lon="2.42798">
        <ele>874.54</ele>
        <time>2026-08-21T09:53:12.105Z</time>
      </trkpt>
      <trkpt lat="45.04602" lon="2.42793">
        <ele>874.58</ele>
        <time>2026-08-21T09:53:13.106Z</time>
      </trkpt>
      <trkpt lat="45.04601" lon="2.42789">
        <ele>874.66</ele>
        <time>2026-08-21T09:53:13.709Z</time>
      </trkpt>
      <trkpt lat="45.046" lon="2.42785">
        <ele>874.7</ele>
        <time>2026-08-21T09:53:14.727Z</time>
      </trkpt>
      <trkpt lat="45.04599" lon="2.42781">
        <ele>874.74</ele>
        <time>2026-08-21T09:53:15.719Z</time>
      </trkpt>
      <trkpt lat="45.04599" lon="2.42777">
        <ele>874.79</ele>
        <time>2026-08-21T09:53:16.711Z</time>
      </trkpt>
      <trkpt lat="45.04598" lon="2.42772">
        <ele>874.85</ele>
        <time>2026-08-21T09:53:17.757Z</time>
      </trkpt>
      <trkpt lat="45.04597" lon="2.42768">
        <ele>874.85</ele>
        <time>2026-08-21T09:53:18.722Z</time>
      </trkpt>
      <trkpt lat="45.04596" lon="2.42763">
        <ele>874.91</ele>
        <time>2026-08-21T09:53:19.709Z</time>
      </trkpt>
      <trkpt lat="45.04595" lon="2.42759">
        <ele>874.94</ele>
        <time>2026-08-21T09:53:20.700Z</time>
      </trkpt>
      <trkpt lat="45.04594" lon="2.42754">
        <ele>874.96</ele>
        <time>2026-08-21T09:53:21.724Z</time>
      </trkpt>
      <trkpt lat="45.04593" lon="2.42749">
        <ele>874.96</ele>
        <time>2026-08-21T09:53:22.712Z</time>
      </trkpt>
      <trkpt lat="45.04592" lon="2.42744">
        <ele>874.94</ele>
        <time>2026-08-21T09:53:23.705Z</time>
      </trkpt>
      <trkpt lat="45.04591" lon="2.42739">
        <ele>874.89</ele>
        <time>2026-08-21T09:53:24.719Z</time>
      </trkpt>
      <trkpt lat="45.0459" lon="2.42734">
        <ele>874.85</ele>
        <time>2026-08-21T09:53:25.711Z</time>
      </trkpt>
      <trkpt lat="45.04588" lon="2.42728">
        <ele>874.78</ele>
        <time>2026-08-21T09:53:26.702Z</time>
      </trkpt>
      <trkpt lat="45.04587" lon="2.42723">
        <ele>874.72</ele>
        <time>2026-08-21T09:53:27.716Z</time>
      </trkpt>
      <trkpt lat="45.04586" lon="2.42717">
        <ele>874.66</ele>
        <time>2026-08-21T09:53:28.709Z</time>
      </trkpt>
      <trkpt lat="45.04585" lon="2.42712">
        <ele>874.62</ele>
        <time>2026-08-21T09:53:29.697Z</time>
      </trkpt>
      <trkpt lat="45.04583" lon="2.42707">
        <ele>874.57</ele>
        <time>2026-08-21T09:53:30.180Z</time>
      </trkpt>
      <trkpt lat="45.04582" lon="2.427">
        <ele>874.52</ele>
        <time>2026-08-21T09:53:31.708Z</time>
      </trkpt>
      <trkpt lat="45.0458" lon="2.42694">
        <ele>874.46</ele>
        <time>2026-08-21T09:53:32.707Z</time>
      </trkpt>
      <trkpt lat="45.04579" lon="2.42688">
        <ele>874.4</ele>
        <time>2026-08-21T09:53:33.717Z</time>
      </trkpt>
      <trkpt lat="45.04578" lon="2.42682">
        <ele>874.29</ele>
        <time>2026-08-21T09:53:34.706Z</time>
      </trkpt>
      <trkpt lat="45.04577" lon="2.42675">
        <ele>874.2</ele>
        <time>2026-08-21T09:53:35.727Z</time>
      </trkpt>
      <trkpt lat="45.04576" lon="2.42669">
        <ele>874.12</ele>
        <time>2026-08-21T09:53:36.716Z</time>
      </trkpt>
      <trkpt lat="45.04574" lon="2.42663">
        <ele>874</ele>
        <time>2026-08-21T09:53:37.710Z</time>
      </trkpt>
      <trkpt lat="45.04573" lon="2.42658">
        <ele>873.86</ele>
        <time>2026-08-21T09:53:38.698Z</time>
      </trkpt>
      <trkpt lat="45.04571" lon="2.42649">
        <ele>873.74</ele>
        <time>2026-08-21T09:53:40.073Z</time>
      </trkpt>
      <trkpt lat="45.0457" lon="2.42643">
        <ele>873.64</ele>
        <time>2026-08-21T09:53:41.076Z</time>
      </trkpt>
      <trkpt lat="45.04569" lon="2.42637">
        <ele>873.49</ele>
        <time>2026-08-21T09:53:42.079Z</time>
      </trkpt>
      <trkpt lat="45.04568" lon="2.4263">
        <ele>873.37</ele>
        <time>2026-08-21T09:53:43.082Z</time>
      </trkpt>
      <trkpt lat="45.04567" lon="2.42623">
        <ele>873.2</ele>
        <time>2026-08-21T09:53:44.083Z</time>
      </trkpt>
      <trkpt lat="45.04566" lon="2.42618">
        <ele>873.09</ele>
        <time>2026-08-21T09:53:45.086Z</time>
      </trkpt>
      <trkpt lat="45.04565" lon="2.42611">
        <ele>873.02</ele>
        <time>2026-08-21T09:53:46.088Z</time>
      </trkpt>
      <trkpt lat="45.04564" lon="2.42605">
        <ele>872.9</ele>
        <time>2026-08-21T09:53:47.091Z</time>
      </trkpt>
      <trkpt lat="45.04562" lon="2.42599">
        <ele>872.82</ele>
        <time>2026-08-21T09:53:48.095Z</time>
      </trkpt>
      <trkpt lat="45.04561" lon="2.42593">
        <ele>872.76</ele>
        <time>2026-08-21T09:53:48.720Z</time>
      </trkpt>
      <trkpt lat="45.04561" lon="2.42588">
        <ele>872.69</ele>
        <time>2026-08-21T09:53:50.098Z</time>
      </trkpt>
      <trkpt lat="45.0456" lon="2.42583">
        <ele>872.62</ele>
        <time>2026-08-21T09:53:51.034Z</time>
      </trkpt>
      <trkpt lat="45.04559" lon="2.42577">
        <ele>872.56</ele>
        <time>2026-08-21T09:53:52.103Z</time>
      </trkpt>
      <trkpt lat="45.04558" lon="2.42571">
        <ele>872.49</ele>
        <time>2026-08-21T09:53:53.105Z</time>
      </trkpt>
      <trkpt lat="45.04557" lon="2.42565">
        <ele>872.41</ele>
        <time>2026-08-21T09:53:54.108Z</time>
      </trkpt>
      <trkpt lat="45.04556" lon="2.4256">
        <ele>872.36</ele>
        <time>2026-08-21T09:53:55.110Z</time>
      </trkpt>
      <trkpt lat="45.04555" lon="2.42553">
        <ele>872.32</ele>
        <time>2026-08-21T09:53:55.710Z</time>
      </trkpt>
      <trkpt lat="45.04554" lon="2.42547">
        <ele>872.17</ele>
        <time>2026-08-21T09:53:57.115Z</time>
      </trkpt>
      <trkpt lat="45.04553" lon="2.42542">
        <ele>872.1</ele>
        <time>2026-08-21T09:53:57.724Z</time>
      </trkpt>
      <trkpt lat="45.04553" lon="2.42536">
        <ele>872.01</ele>
        <time>2026-08-21T09:53:58.728Z</time>
      </trkpt>
      <trkpt lat="45.04553" lon="2.42531">
        <ele>871.94</ele>
        <time>2026-08-21T09:53:59.704Z</time>
      </trkpt>
      <trkpt lat="45.04553" lon="2.42524">
        <ele>871.91</ele>
        <time>2026-08-21T09:54:01.170Z</time>
      </trkpt>
      <trkpt lat="45.04553" lon="2.4252">
        <ele>871.85</ele>
        <time>2026-08-21T09:54:02.196Z</time>
      </trkpt>
      <trkpt lat="45.04553" lon="2.42514">
        <ele>871.79</ele>
        <time>2026-08-21T09:54:03.126Z</time>
      </trkpt>
      <trkpt lat="45.04553" lon="2.42508">
        <ele>871.71</ele>
        <time>2026-08-21T09:54:04.198Z</time>
      </trkpt>
      <trkpt lat="45.04553" lon="2.42503">
        <ele>871.66</ele>
        <time>2026-08-21T09:54:04.715Z</time>
      </trkpt>
      <trkpt lat="45.04552" lon="2.42498">
        <ele>871.62</ele>
        <time>2026-08-21T09:54:05.703Z</time>
      </trkpt>
      <trkpt lat="45.04552" lon="2.42493">
        <ele>871.61</ele>
        <time>2026-08-21T09:54:07.201Z</time>
      </trkpt>
      <trkpt lat="45.04551" lon="2.42487">
        <ele>871.56</ele>
        <time>2026-08-21T09:54:07.995Z</time>
      </trkpt>
      <trkpt lat="45.04552" lon="2.42482">
        <ele>871.52</ele>
        <time>2026-08-21T09:54:09.137Z</time>
      </trkpt>
      <trkpt lat="45.04552" lon="2.42477">
        <ele>871.48</ele>
        <time>2026-08-21T09:54:10.204Z</time>
      </trkpt>
      <trkpt lat="45.04552" lon="2.42472">
        <ele>871.43</ele>
        <time>2026-08-21T09:54:11.144Z</time>
      </trkpt>
      <trkpt lat="45.04552" lon="2.42467">
        <ele>871.35</ele>
        <time>2026-08-21T09:54:12.145Z</time>
      </trkpt>
      <trkpt lat="45.04552" lon="2.4246">
        <ele>871.28</ele>
        <time>2026-08-21T09:54:13.198Z</time>
      </trkpt>
      <trkpt lat="45.04552" lon="2.42454">
        <ele>871.25</ele>
        <time>2026-08-21T09:54:14.149Z</time>
      </trkpt>
      <trkpt lat="45.04552" lon="2.42448">
        <ele>871.16</ele>
        <time>2026-08-21T09:54:14.233Z</time>
      </trkpt>
      <trkpt lat="45.04552" lon="2.42441">
        <ele>871.08</ele>
        <time>2026-08-21T09:54:16.198Z</time>
      </trkpt>
      <trkpt lat="45.04552" lon="2.42434">
        <ele>871.04</ele>
        <time>2026-08-21T09:54:17.155Z</time>
      </trkpt>
      <trkpt lat="45.04552" lon="2.4243">
        <ele>870.97</ele>
        <time>2026-08-21T09:54:18.157Z</time>
      </trkpt>
      <trkpt lat="45.04552" lon="2.4242">
        <ele>870.89</ele>
        <time>2026-08-21T09:54:19.159Z</time>
      </trkpt>
      <trkpt lat="45.04551" lon="2.42413">
        <ele>870.79</ele>
        <time>2026-08-21T09:54:20.161Z</time>
      </trkpt>
      <trkpt lat="45.04551" lon="2.42406">
        <ele>870.68</ele>
        <time>2026-08-21T09:54:21.208Z</time>
      </trkpt>
      <trkpt lat="45.04551" lon="2.42398">
        <ele>870.57</ele>
        <time>2026-08-21T09:54:22.164Z</time>
      </trkpt>
      <trkpt lat="45.04551" lon="2.42391">
        <ele>870.46</ele>
        <time>2026-08-21T09:54:23.167Z</time>
      </trkpt>
      <trkpt lat="45.04551" lon="2.42383">
        <ele>870.37</ele>
        <time>2026-08-21T09:54:24.208Z</time>
      </trkpt>
      <trkpt lat="45.04551" lon="2.42376">
        <ele>870.3</ele>
        <time>2026-08-21T09:54:25.170Z</time>
      </trkpt>
      <trkpt lat="45.0455" lon="2.42369">
        <ele>870.17</ele>
        <time>2026-08-21T09:54:26.191Z</time>
      </trkpt>
      <trkpt lat="45.0455" lon="2.42362">
        <ele>870.09</ele>
        <time>2026-08-21T09:54:27.174Z</time>
      </trkpt>
      <trkpt lat="45.0455" lon="2.42355">
        <ele>870</ele>
        <time>2026-08-21T09:54:28.176Z</time>
      </trkpt>
      <trkpt lat="45.0455" lon="2.42348">
        <ele>869.92</ele>
        <time>2026-08-21T09:54:29.179Z</time>
      </trkpt>
      <trkpt lat="45.0455" lon="2.42341">
        <ele>869.81</ele>
        <time>2026-08-21T09:54:30.179Z</time>
      </trkpt>
      <trkpt lat="45.04549" lon="2.42334">
        <ele>869.75</ele>
        <time>2026-08-21T09:54:31.181Z</time>
      </trkpt>
      <trkpt lat="45.04549" lon="2.42328">
        <ele>869.81</ele>
        <time>2026-08-21T09:54:32.182Z</time>
      </trkpt>
      <trkpt lat="45.04549" lon="2.42323">
        <ele>869.69</ele>
        <time>2026-08-21T09:54:33.184Z</time>
      </trkpt>
      <trkpt lat="45.04549" lon="2.42319">
        <ele>869.59</ele>
        <time>2026-08-21T09:54:34.186Z</time>
      </trkpt>
      <trkpt lat="45.04549" lon="2.42318">
        <ele>869.47</ele>
        <time>2026-08-21T09:54:35.189Z</time>
      </trkpt>
      <trkpt lat="45.0455" lon="2.42355">
        <ele>867.31</ele>
        <time>2026-08-21T09:54:28.176Z</time>
      </trkpt>
      <trkpt lat="45.0455" lon="2.42348">
        <ele>869.92</ele>
        <time>2026-08-21T09:54:29.179Z</time>
      </trkpt>
      <trkpt lat="45.0455" lon="2.42341">
        <ele>869.81</ele>
        <time>2026-08-21T09:54:30.179Z</time>
      </trkpt>
      <trkpt lat="45.04549" lon="2.42334">
        <ele>869.75</ele>
        <time>2026-08-21T09:54:31.181Z</time>
      </trkpt>
      <trkpt lat="45.04549" lon="2.42328">
        <ele>869.81</ele>
        <time>2026-08-21T09:54:32.182Z</time>
      </trkpt>
      <trkpt lat="45.04549" lon="2.42323">
        <ele>869.69</ele>
        <time>2026-08-21T09:54:33.184Z</time>
      </trkpt>
      <trkpt lat="45.04549" lon="2.42319">
        <ele>869.59</ele>
        <time>2026-08-21T09:54:34.186Z</time>
      </trkpt>
      <trkpt lat="45.04549" lon="2.42318">
        <ele>869.47</ele>
        <time>2026-08-21T09:54:35.189Z</time>
      </trkpt>
      <trkpt lat="45.04548" lon="2.42314">
        <ele>867.23</ele>
        <time>2026-08-21T09:55:53.701Z</time>
      </trkpt>
      <trkpt lat="45.04546" lon="2.4231">
        <ele>867</ele>
        <time>2026-08-21T09:55:55.716Z</time>
      </trkpt>
      <trkpt lat="45.04546" lon="2.42308">
        <ele>866.98</ele>
        <time>2026-08-21T09:55:56.713Z</time>
      </trkpt>
      <trkpt lat="45.04546" lon="2.42305">
        <ele>866.96</ele>
        <time>2026-08-21T09:55:58.688Z</time>
      </trkpt>
      <trkpt lat="45.04546" lon="2.42301">
        <ele>866.94</ele>
        <time>2026-08-21T09:55:58.722Z</time>
      </trkpt>
      <trkpt lat="45.04546" lon="2.42296">
        <ele>866.87</ele>
        <time>2026-08-21T09:55:59.707Z</time>
      </trkpt>
      <trkpt lat="45.04546" lon="2.42291">
        <ele>866.82</ele>
        <time>2026-08-21T09:56:00.730Z</time>
      </trkpt>
      <trkpt lat="45.04546" lon="2.42285">
        <ele>866.77</ele>
        <time>2026-08-21T09:56:01.709Z</time>
      </trkpt>
      <trkpt lat="45.04545" lon="2.42278">
        <ele>866.72</ele>
        <time>2026-08-21T09:56:02.735Z</time>
      </trkpt>
      <trkpt lat="45.04546" lon="2.42272">
        <ele>866.62</ele>
        <time>2026-08-21T09:56:03.726Z</time>
      </trkpt>
      <trkpt lat="45.04545" lon="2.42265">
        <ele>866.54</ele>
        <time>2026-08-21T09:56:05.706Z</time>
      </trkpt>
      <trkpt lat="45.04545" lon="2.42259">
        <ele>866.48</ele>
        <time>2026-08-21T09:56:05.716Z</time>
      </trkpt>
      <trkpt lat="45.04545" lon="2.42252">
        <ele>866.43</ele>
        <time>2026-08-21T09:56:07.716Z</time>
      </trkpt>
      <trkpt lat="45.04544" lon="2.42244">
        <ele>866.36</ele>
        <time>2026-08-21T09:56:07.718Z</time>
      </trkpt>
      <trkpt lat="45.04544" lon="2.42236">
        <ele>866.29</ele>
        <time>2026-08-21T09:56:08.873Z</time>
      </trkpt>
      <trkpt lat="45.04544" lon="2.42231">
        <ele>866.21</ele>
        <time>2026-08-21T09:56:10.680Z</time>
      </trkpt>
      <trkpt lat="45.04544" lon="2.4222">
        <ele>866.1</ele>
        <time>2026-08-21T09:56:11.188Z</time>
      </trkpt>
      <trkpt lat="45.04544" lon="2.42212">
        <ele>865.99</ele>
        <time>2026-08-21T09:56:11.721Z</time>
      </trkpt>
      <trkpt lat="45.04543" lon="2.42204">
        <ele>865.93</ele>
        <time>2026-08-21T09:56:12.722Z</time>
      </trkpt>
      <trkpt lat="45.04543" lon="2.42197">
        <ele>865.81</ele>
        <time>2026-08-21T09:56:14.707Z</time>
      </trkpt>
      <trkpt lat="45.04543" lon="2.42189">
        <ele>865.71</ele>
        <time>2026-08-21T09:56:15.209Z</time>
      </trkpt>
      <trkpt lat="45.04543" lon="2.42182">
        <ele>865.61</ele>
        <time>2026-08-21T09:56:16.714Z</time>
      </trkpt>
      <trkpt lat="45.04543" lon="2.42176">
        <ele>865.48</ele>
        <time>2026-08-21T09:56:16.754Z</time>
      </trkpt>
      <trkpt lat="45.04542" lon="2.42168">
        <ele>865.4</ele>
        <time>2026-08-21T09:56:18.628Z</time>
      </trkpt>
      <trkpt lat="45.04541" lon="2.42162">
        <ele>865.39</ele>
        <time>2026-08-21T09:56:19.631Z</time>
      </trkpt>
      <trkpt lat="45.0454" lon="2.42155">
        <ele>865.36</ele>
        <time>2026-08-21T09:56:20.633Z</time>
      </trkpt>
      <trkpt lat="45.0454" lon="2.42149">
        <ele>865.29</ele>
        <time>2026-08-21T09:56:21.636Z</time>
      </trkpt>
      <trkpt lat="45.04538" lon="2.42142">
        <ele>865.21</ele>
        <time>2026-08-21T09:56:22.725Z</time>
      </trkpt>
      <trkpt lat="45.04538" lon="2.42136">
        <ele>865.14</ele>
        <time>2026-08-21T09:56:23.642Z</time>
      </trkpt>
      <trkpt lat="45.04536" lon="2.42129">
        <ele>865.1</ele>
        <time>2026-08-21T09:56:24.644Z</time>
      </trkpt>
      <trkpt lat="45.04535" lon="2.42123">
        <ele>865.03</ele>
        <time>2026-08-21T09:56:25.646Z</time>
      </trkpt>
      <trkpt lat="45.04535" lon="2.42117">
        <ele>865.02</ele>
        <time>2026-08-21T09:56:25.736Z</time>
      </trkpt>
      <trkpt lat="45.04534" lon="2.42111">
        <ele>865.01</ele>
        <time>2026-08-21T09:56:26.747Z</time>
      </trkpt>
      <trkpt lat="45.04533" lon="2.42104">
        <ele>864.99</ele>
        <time>2026-08-21T09:56:28.654Z</time>
      </trkpt>
      <trkpt lat="45.04532" lon="2.42098">
        <ele>864.98</ele>
        <time>2026-08-21T09:56:28.752Z</time>
      </trkpt>
      <trkpt lat="45.04531" lon="2.42092">
        <ele>864.95</ele>
        <time>2026-08-21T09:56:29.813Z</time>
      </trkpt>
      <trkpt lat="45.04531" lon="2.42086">
        <ele>864.86</ele>
        <time>2026-08-21T09:56:31.729Z</time>
      </trkpt>
      <trkpt lat="45.0453" lon="2.4208">
        <ele>864.84</ele>
        <time>2026-08-21T09:56:32.657Z</time>
      </trkpt>
      <trkpt lat="45.04529" lon="2.42074">
        <ele>864.64</ele>
        <time>2026-08-21T09:56:33.719Z</time>
      </trkpt>
      <trkpt lat="45.04528" lon="2.42068">
        <ele>864.55</ele>
        <time>2026-08-21T09:56:34.660Z</time>
      </trkpt>
      <trkpt lat="45.04527" lon="2.42062">
        <ele>864.52</ele>
        <time>2026-08-21T09:56:35.662Z</time>
      </trkpt>
      <trkpt lat="45.04526" lon="2.42056">
        <ele>864.53</ele>
        <time>2026-08-21T09:56:36.656Z</time>
      </trkpt>
      <trkpt lat="45.04525" lon="2.42049">
        <ele>864.55</ele>
        <time>2026-08-21T09:56:37.657Z</time>
      </trkpt>
      <trkpt lat="45.04524" lon="2.42042">
        <ele>864.58</ele>
        <time>2026-08-21T09:56:38.660Z</time>
      </trkpt>
      <trkpt lat="45.04524" lon="2.42036">
        <ele>864.6</ele>
        <time>2026-08-21T09:56:39.663Z</time>
      </trkpt>
      <trkpt lat="45.04523" lon="2.42027">
        <ele>864.61</ele>
        <time>2026-08-21T09:56:40.665Z</time>
      </trkpt>
      <trkpt lat="45.04523" lon="2.42021">
        <ele>864.62</ele>
        <time>2026-08-21T09:56:41.666Z</time>
      </trkpt>
      <trkpt lat="45.04523" lon="2.42013">
        <ele>864.65</ele>
        <time>2026-08-21T09:56:42.669Z</time>
      </trkpt>
      <trkpt lat="45.04522" lon="2.42006">
        <ele>864.65</ele>
        <time>2026-08-21T09:56:43.673Z</time>
      </trkpt>
      <trkpt lat="45.04523" lon="2.41999">
        <ele>864.64</ele>
        <time>2026-08-21T09:56:44.675Z</time>
      </trkpt>
      <trkpt lat="45.04523" lon="2.41996">
        <ele>864.66</ele>
        <time>2026-08-21T09:56:45.680Z</time>
      </trkpt>
      <trkpt lat="45.04524" lon="2.41985">
        <ele>864.67</ele>
        <time>2026-08-21T09:56:46.680Z</time>
      </trkpt>
      <trkpt lat="45.04524" lon="2.41978">
        <ele>864.72</ele>
        <time>2026-08-21T09:56:47.684Z</time>
      </trkpt>
      <trkpt lat="45.04524" lon="2.4197">
        <ele>864.65</ele>
        <time>2026-08-21T09:56:48.686Z</time>
      </trkpt>
      <trkpt lat="45.04525" lon="2.41962">
        <ele>864.62</ele>
        <time>2026-08-21T09:56:49.689Z</time>
      </trkpt>
      <trkpt lat="45.04525" lon="2.4196">
        <ele>864.59</ele>
        <time>2026-08-21T09:56:50.691Z</time>
      </trkpt>
      <trkpt lat="45.04525" lon="2.41946">
        <ele>864.48</ele>
        <time>2026-08-21T09:56:51.279Z</time>
      </trkpt>
      <trkpt lat="45.04525" lon="2.41938">
        <ele>864.4</ele>
        <time>2026-08-21T09:56:52.289Z</time>
      </trkpt>
      <trkpt lat="45.04526" lon="2.41931">
        <ele>864.34</ele>
        <time>2026-08-21T09:56:53.704Z</time>
      </trkpt>
      <trkpt lat="45.04526" lon="2.41923">
        <ele>864.24</ele>
        <time>2026-08-21T09:56:54.270Z</time>
      </trkpt>
      <trkpt lat="45.04527" lon="2.41915">
        <ele>864.15</ele>
        <time>2026-08-21T09:56:55.706Z</time>
      </trkpt>
      <trkpt lat="45.04527" lon="2.41907">
        <ele>864.02</ele>
        <time>2026-08-21T09:56:56.709Z</time>
      </trkpt>
      <trkpt lat="45.04527" lon="2.41899">
        <ele>863.92</ele>
        <time>2026-08-21T09:56:57.710Z</time>
      </trkpt>
      <trkpt lat="45.04527" lon="2.4189">
        <ele>863.75</ele>
        <time>2026-08-21T09:56:58.711Z</time>
      </trkpt>
      <trkpt lat="45.04528" lon="2.41882">
        <ele>863.59</ele>
        <time>2026-08-21T09:56:59.713Z</time>
      </trkpt>
      <trkpt lat="45.04528" lon="2.41874">
        <ele>863.39</ele>
        <time>2026-08-21T09:57:00.716Z</time>
      </trkpt>
      <trkpt lat="45.04528" lon="2.41865">
        <ele>863.23</ele>
        <time>2026-08-21T09:57:01.719Z</time>
      </trkpt>
      <trkpt lat="45.04528" lon="2.41861">
        <ele>863.07</ele>
        <time>2026-08-21T09:57:02.720Z</time>
      </trkpt>
      <trkpt lat="45.04529" lon="2.41848">
        <ele>862.96</ele>
        <time>2026-08-21T09:57:03.723Z</time>
      </trkpt>
      <trkpt lat="45.04529" lon="2.41841">
        <ele>862.86</ele>
        <time>2026-08-21T09:57:04.726Z</time>
      </trkpt>
      <trkpt lat="45.0453" lon="2.41833">
        <ele>862.68</ele>
        <time>2026-08-21T09:57:05.726Z</time>
      </trkpt>
      <trkpt lat="45.0453" lon="2.41824">
        <ele>862.29</ele>
        <time>2026-08-21T09:57:06.729Z</time>
      </trkpt>
      <trkpt lat="45.04531" lon="2.41816">
        <ele>862.11</ele>
        <time>2026-08-21T09:57:07.730Z</time>
      </trkpt>
      <trkpt lat="45.04531" lon="2.41811">
        <ele>861.92</ele>
        <time>2026-08-21T09:57:08.733Z</time>
      </trkpt>
      <trkpt lat="45.04532" lon="2.41798">
        <ele>861.75</ele>
        <time>2026-08-21T09:57:09.742Z</time>
      </trkpt>
      <trkpt lat="45.04532" lon="2.41791">
        <ele>861.55</ele>
        <time>2026-08-21T09:57:10.737Z</time>
      </trkpt>
      <trkpt lat="45.04532" lon="2.41784">
        <ele>861.42</ele>
        <time>2026-08-21T09:57:11.740Z</time>
      </trkpt>
      <trkpt lat="45.04532" lon="2.4178">
        <ele>861.17</ele>
        <time>2026-08-21T09:57:12.745Z</time>
      </trkpt>
      <trkpt lat="45.04533" lon="2.41767">
        <ele>861.03</ele>
        <time>2026-08-21T09:57:13.744Z</time>
      </trkpt>
      <trkpt lat="45.04533" lon="2.4176">
        <ele>860.82</ele>
        <time>2026-08-21T09:57:14.717Z</time>
      </trkpt>
      <trkpt lat="45.04533" lon="2.41753">
        <ele>860.57</ele>
        <time>2026-08-21T09:57:15.748Z</time>
      </trkpt>
      <trkpt lat="45.04534" lon="2.41745">
        <ele>860.41</ele>
        <time>2026-08-21T09:57:16.502Z</time>
      </trkpt>
      <trkpt lat="45.04535" lon="2.41737">
        <ele>860.27</ele>
        <time>2026-08-21T09:57:17.751Z</time>
      </trkpt>
      <trkpt lat="45.04536" lon="2.41731">
        <ele>860.13</ele>
        <time>2026-08-21T09:57:18.543Z</time>
      </trkpt>
      <trkpt lat="45.04537" lon="2.41722">
        <ele>860.01</ele>
        <time>2026-08-21T09:57:19.756Z</time>
      </trkpt>
      <trkpt lat="45.04538" lon="2.41715">
        <ele>859.92</ele>
        <time>2026-08-21T09:57:20.757Z</time>
      </trkpt>
      <trkpt lat="45.04538" lon="2.41707">
        <ele>859.8</ele>
        <time>2026-08-21T09:57:21.760Z</time>
      </trkpt>
      <trkpt lat="45.04538" lon="2.417">
        <ele>859.66</ele>
        <time>2026-08-21T09:57:22.762Z</time>
      </trkpt>
      <trkpt lat="45.04538" lon="2.41692">
        <ele>859.58</ele>
        <time>2026-08-21T09:57:23.763Z</time>
      </trkpt>
      <trkpt lat="45.04536" lon="2.41685">
        <ele>859.54</ele>
        <time>2026-08-21T09:57:24.765Z</time>
      </trkpt>
      <trkpt lat="45.04534" lon="2.4168">
        <ele>859.42</ele>
        <time>2026-08-21T09:57:25.649Z</time>
      </trkpt>
      <trkpt lat="45.0453" lon="2.41674">
        <ele>859.4</ele>
        <time>2026-08-21T09:57:26.770Z</time>
      </trkpt>
      <trkpt lat="45.04528" lon="2.41669">
        <ele>859.38</ele>
        <time>2026-08-21T09:57:27.774Z</time>
      </trkpt>
      <trkpt lat="45.04525" lon="2.41664">
        <ele>859.29</ele>
        <time>2026-08-21T09:57:28.618Z</time>
      </trkpt>
      <trkpt lat="45.04521" lon="2.41659">
        <ele>859.17</ele>
        <time>2026-08-21T09:57:29.777Z</time>
      </trkpt>
      <trkpt lat="45.04518" lon="2.41654">
        <ele>859.08</ele>
        <time>2026-08-21T09:57:30.780Z</time>
      </trkpt>
      <trkpt lat="45.04515" lon="2.41649">
        <ele>859.01</ele>
        <time>2026-08-21T09:57:31.781Z</time>
      </trkpt>
      <trkpt lat="45.04511" lon="2.41644">
        <ele>858.93</ele>
        <time>2026-08-21T09:57:32.784Z</time>
      </trkpt>
      <trkpt lat="45.04508" lon="2.41639">
        <ele>858.9</ele>
        <time>2026-08-21T09:57:33.785Z</time>
      </trkpt>
      <trkpt lat="45.04505" lon="2.41634">
        <ele>858.79</ele>
        <time>2026-08-21T09:57:34.787Z</time>
      </trkpt>
      <trkpt lat="45.04502" lon="2.41629">
        <ele>858.77</ele>
        <time>2026-08-21T09:57:35.789Z</time>
      </trkpt>
      <trkpt lat="45.04498" lon="2.41624">
        <ele>858.74</ele>
        <time>2026-08-21T09:57:36.792Z</time>
      </trkpt>
      <trkpt lat="45.04495" lon="2.41618">
        <ele>858.72</ele>
        <time>2026-08-21T09:57:37.793Z</time>
      </trkpt>
      <trkpt lat="45.04492" lon="2.41613">
        <ele>858.75</ele>
        <time>2026-08-21T09:57:38.797Z</time>
      </trkpt>
      <trkpt lat="45.04489" lon="2.41607">
        <ele>858.77</ele>
        <time>2026-08-21T09:57:39.799Z</time>
      </trkpt>
      <trkpt lat="45.04486" lon="2.41601">
        <ele>858.85</ele>
        <time>2026-08-21T09:57:40.768Z</time>
      </trkpt>
      <trkpt lat="45.04483" lon="2.41595">
        <ele>858.86</ele>
        <time>2026-08-21T09:57:41.803Z</time>
      </trkpt>
      <trkpt lat="45.0448" lon="2.4159">
        <ele>858.9</ele>
        <time>2026-08-21T09:57:42.738Z</time>
      </trkpt>
      <trkpt lat="45.04477" lon="2.41584">
        <ele>858.94</ele>
        <time>2026-08-21T09:57:43.650Z</time>
      </trkpt>
      <trkpt lat="45.04474" lon="2.41578">
        <ele>859.02</ele>
        <time>2026-08-21T09:57:43.808Z</time>
      </trkpt>
      <trkpt lat="45.04472" lon="2.41572">
        <ele>859.06</ele>
        <time>2026-08-21T09:57:45.712Z</time>
      </trkpt>
      <trkpt lat="45.04469" lon="2.41566">
        <ele>859.09</ele>
        <time>2026-08-21T09:57:46.712Z</time>
      </trkpt>
      <trkpt lat="45.04467" lon="2.4156">
        <ele>859.13</ele>
        <time>2026-08-21T09:57:47.715Z</time>
      </trkpt>
      <trkpt lat="45.04464" lon="2.41554">
        <ele>859.17</ele>
        <time>2026-08-21T09:57:48.718Z</time>
      </trkpt>
      <trkpt lat="45.04462" lon="2.41547">
        <ele>859.2</ele>
        <time>2026-08-21T09:57:49.721Z</time>
      </trkpt>
      <trkpt lat="45.04459" lon="2.4154">
        <ele>859.21</ele>
        <time>2026-08-21T09:57:50.722Z</time>
      </trkpt>
      <trkpt lat="45.04457" lon="2.41534">
        <ele>859.21</ele>
        <time>2026-08-21T09:57:51.722Z</time>
      </trkpt>
      <trkpt lat="45.04454" lon="2.41528">
        <ele>859.24</ele>
        <time>2026-08-21T09:57:52.725Z</time>
      </trkpt>
      <trkpt lat="45.04452" lon="2.41521">
        <ele>859.24</ele>
        <time>2026-08-21T09:57:53.727Z</time>
      </trkpt>
      <trkpt lat="45.0445" lon="2.41514">
        <ele>859.24</ele>
        <time>2026-08-21T09:57:54.731Z</time>
      </trkpt>
      <trkpt lat="45.04447" lon="2.41508">
        <ele>859.25</ele>
        <time>2026-08-21T09:57:55.732Z</time>
      </trkpt>
      <trkpt lat="45.04445" lon="2.41502">
        <ele>859.25</ele>
        <time>2026-08-21T09:57:56.733Z</time>
      </trkpt>
      <trkpt lat="45.04442" lon="2.41497">
        <ele>859.27</ele>
        <time>2026-08-21T09:57:57.734Z</time>
      </trkpt>
      <trkpt lat="45.04439" lon="2.4149">
        <ele>859.24</ele>
        <time>2026-08-21T09:57:58.736Z</time>
      </trkpt>
      <trkpt lat="45.04437" lon="2.41484">
        <ele>859.22</ele>
        <time>2026-08-21T09:57:59.738Z</time>
      </trkpt>
      <trkpt lat="45.04433" lon="2.41477">
        <ele>859.21</ele>
        <time>2026-08-21T09:58:00.738Z</time>
      </trkpt>
      <trkpt lat="45.0443" lon="2.41471">
        <ele>859.2</ele>
        <time>2026-08-21T09:58:01.739Z</time>
      </trkpt>
      <trkpt lat="45.04428" lon="2.41465">
        <ele>859.08</ele>
        <time>2026-08-21T09:58:02.741Z</time>
      </trkpt>
      <trkpt lat="45.04425" lon="2.41458">
        <ele>859</ele>
        <time>2026-08-21T09:58:03.743Z</time>
      </trkpt>
      <trkpt lat="45.04422" lon="2.41452">
        <ele>858.93</ele>
        <time>2026-08-21T09:58:04.746Z</time>
      </trkpt>
      <trkpt lat="45.0442" lon="2.41446">
        <ele>858.89</ele>
        <time>2026-08-21T09:58:05.747Z</time>
      </trkpt>
      <trkpt lat="45.04417" lon="2.4144">
        <ele>858.88</ele>
        <time>2026-08-21T09:58:06.749Z</time>
      </trkpt>
      <trkpt lat="45.04415" lon="2.41434">
        <ele>858.86</ele>
        <time>2026-08-21T09:58:07.754Z</time>
      </trkpt>
      <trkpt lat="45.04413" lon="2.41427">
        <ele>858.83</ele>
        <time>2026-08-21T09:58:08.753Z</time>
      </trkpt>
      <trkpt lat="45.04411" lon="2.41424">
        <ele>858.78</ele>
        <time>2026-08-21T09:58:09.759Z</time>
      </trkpt>
      <trkpt lat="45.04407" lon="2.41413">
        <ele>858.77</ele>
        <time>2026-08-21T09:58:10.760Z</time>
      </trkpt>
      <trkpt lat="45.04404" lon="2.41406">
        <ele>858.71</ele>
        <time>2026-08-21T09:58:11.761Z</time>
      </trkpt>
      <trkpt lat="45.04401" lon="2.41398">
        <ele>858.62</ele>
        <time>2026-08-21T09:58:12.762Z</time>
      </trkpt>
      <trkpt lat="45.04399" lon="2.41389">
        <ele>858.52</ele>
        <time>2026-08-21T09:58:13.765Z</time>
      </trkpt>
      <trkpt lat="45.04396" lon="2.41381">
        <ele>858.39</ele>
        <time>2026-08-21T09:58:14.765Z</time>
      </trkpt>
      <trkpt lat="45.04395" lon="2.41378">
        <ele>858.21</ele>
        <time>2026-08-21T09:58:15.768Z</time>
      </trkpt>
      <trkpt lat="45.0439" lon="2.41363">
        <ele>858.07</ele>
        <time>2026-08-21T09:58:16.770Z</time>
      </trkpt>
      <trkpt lat="45.04388" lon="2.41354">
        <ele>857.89</ele>
        <time>2026-08-21T09:58:17.771Z</time>
      </trkpt>
      <trkpt lat="45.04387" lon="2.41349">
        <ele>857.69</ele>
        <time>2026-08-21T09:58:18.772Z</time>
      </trkpt>
      <trkpt lat="45.04382" lon="2.41333">
        <ele>857.45</ele>
        <time>2026-08-21T09:58:19.775Z</time>
      </trkpt>
      <trkpt lat="45.04379" lon="2.41322">
        <ele>857.13</ele>
        <time>2026-08-21T09:58:20.774Z</time>
      </trkpt>
      <trkpt lat="45.04376" lon="2.41312">
        <ele>856.78</ele>
        <time>2026-08-21T09:58:21.775Z</time>
      </trkpt>
      <trkpt lat="45.04374" lon="2.41301">
        <ele>856.3</ele>
        <time>2026-08-21T09:58:22.778Z</time>
      </trkpt>
      <trkpt lat="45.04371" lon="2.4129">
        <ele>855.81</ele>
        <time>2026-08-21T09:58:23.780Z</time>
      </trkpt>
      <trkpt lat="45.04367" lon="2.41278">
        <ele>855.2</ele>
        <time>2026-08-21T09:58:24.782Z</time>
      </trkpt>
      <trkpt lat="45.04364" lon="2.41266">
        <ele>854.32</ele>
        <time>2026-08-21T09:58:25.785Z</time>
      </trkpt>
      <trkpt lat="45.04361" lon="2.41254">
        <ele>853.48</ele>
        <time>2026-08-21T09:58:26.787Z</time>
      </trkpt>
      <trkpt lat="45.04359" lon="2.41246">
        <ele>852.87</ele>
        <time>2026-08-21T09:58:27.788Z</time>
      </trkpt>
      <trkpt lat="45.04355" lon="2.4123">
        <ele>852.27</ele>
        <time>2026-08-21T09:58:28.791Z</time>
      </trkpt>
      <trkpt lat="45.04351" lon="2.41217">
        <ele>851.69</ele>
        <time>2026-08-21T09:58:29.793Z</time>
      </trkpt>
      <trkpt lat="45.04349" lon="2.41205">
        <ele>851.19</ele>
        <time>2026-08-21T09:58:30.796Z</time>
      </trkpt>
      <trkpt lat="45.04346" lon="2.41192">
        <ele>850.67</ele>
        <time>2026-08-21T09:58:31.796Z</time>
      </trkpt>
      <trkpt lat="45.0434" lon="2.41167">
        <ele>849.93</ele>
        <time>2026-08-21T09:58:33.800Z</time>
      </trkpt>
      <trkpt lat="45.04338" lon="2.41156">
        <ele>848.67</ele>
        <time>2026-08-21T09:58:34.801Z</time>
      </trkpt>
      <trkpt lat="45.04338" lon="2.41155">
        <ele>848.11</ele>
        <time>2026-08-21T09:58:35.802Z</time>
      </trkpt>
      <trkpt lat="45.04334" lon="2.41132">
        <ele>848.11</ele>
        <time>2026-08-21T09:58:36.805Z</time>
      </trkpt>
      <trkpt lat="45.04334" lon="2.41131">
        <ele>846.91</ele>
        <time>2026-08-21T09:58:37.807Z</time>
      </trkpt>
      <trkpt lat="45.04332" lon="2.41108">
        <ele>846.91</ele>
        <time>2026-08-21T09:58:38.809Z</time>
      </trkpt>
      <trkpt lat="45.04331" lon="2.41096">
        <ele>845.85</ele>
        <time>2026-08-21T09:58:39.809Z</time>
      </trkpt>
      <trkpt lat="45.04331" lon="2.41084">
        <ele>845.39</ele>
        <time>2026-08-21T09:58:40.811Z</time>
      </trkpt>
      <trkpt lat="45.04331" lon="2.41071">
        <ele>844.9</ele>
        <time>2026-08-21T09:58:41.811Z</time>
      </trkpt>
      <trkpt lat="45.04331" lon="2.4106">
        <ele>844.39</ele>
        <time>2026-08-21T09:58:42.812Z</time>
      </trkpt>
      <trkpt lat="45.04331" lon="2.41048">
        <ele>843.88</ele>
        <time>2026-08-21T09:58:43.815Z</time>
      </trkpt>
      <trkpt lat="45.04331" lon="2.41045">
        <ele>843.44</ele>
        <time>2026-08-21T09:58:44.815Z</time>
      </trkpt>
      <trkpt lat="45.04332" lon="2.41026">
        <ele>842.97</ele>
        <time>2026-08-21T09:58:45.816Z</time>
      </trkpt>
      <trkpt lat="45.04334" lon="2.41015">
        <ele>842.57</ele>
        <time>2026-08-21T09:58:46.821Z</time>
      </trkpt>
      <trkpt lat="45.04335" lon="2.41006">
        <ele>842.21</ele>
        <time>2026-08-21T09:58:47.819Z</time>
      </trkpt>
      <trkpt lat="45.04336" lon="2.40995">
        <ele>841.79</ele>
        <time>2026-08-21T09:58:48.819Z</time>
      </trkpt>
      <trkpt lat="45.04337" lon="2.40986">
        <ele>841.46</ele>
        <time>2026-08-21T09:58:49.821Z</time>
      </trkpt>
      <trkpt lat="45.04336" lon="2.40977">
        <ele>841.01</ele>
        <time>2026-08-21T09:58:50.822Z</time>
      </trkpt>
      <trkpt lat="45.04336" lon="2.40975">
        <ele>840.7</ele>
        <time>2026-08-21T09:58:51.825Z</time>
      </trkpt>
      <trkpt lat="45.04333" lon="2.40959">
        <ele>840.43</ele>
        <time>2026-08-21T09:58:52.828Z</time>
      </trkpt>
      <trkpt lat="45.04331" lon="2.40951">
        <ele>840.21</ele>
        <time>2026-08-21T09:58:53.438Z</time>
      </trkpt>
      <trkpt lat="45.04329" lon="2.40943">
        <ele>839.93</ele>
        <time>2026-08-21T09:58:54.830Z</time>
      </trkpt>
      <trkpt lat="45.04327" lon="2.40934">
        <ele>839.71</ele>
        <time>2026-08-21T09:58:55.833Z</time>
      </trkpt>
      <trkpt lat="45.04325" lon="2.40927">
        <ele>839.42</ele>
        <time>2026-08-21T09:58:56.432Z</time>
      </trkpt>
      <trkpt lat="45.04322" lon="2.40918">
        <ele>839.19</ele>
        <time>2026-08-21T09:58:56.899Z</time>
      </trkpt>
      <trkpt lat="45.04319" lon="2.4091">
        <ele>838.91</ele>
        <time>2026-08-21T09:58:57.933Z</time>
      </trkpt>
      <trkpt lat="45.04316" lon="2.40902">
        <ele>838.71</ele>
        <time>2026-08-21T09:58:59.839Z</time>
      </trkpt>
      <trkpt lat="45.04314" lon="2.40894">
        <ele>838.44</ele>
        <time>2026-08-21T09:59:00.709Z</time>
      </trkpt>
      <trkpt lat="45.04311" lon="2.40886">
        <ele>838.24</ele>
        <time>2026-08-21T09:59:01.744Z</time>
      </trkpt>
      <trkpt lat="45.04309" lon="2.40878">
        <ele>838.06</ele>
        <time>2026-08-21T09:59:02.727Z</time>
      </trkpt>
      <trkpt lat="45.04307" lon="2.40869">
        <ele>837.8</ele>
        <time>2026-08-21T09:59:02.921Z</time>
      </trkpt>
      <trkpt lat="45.04305" lon="2.40861">
        <ele>837.56</ele>
        <time>2026-08-21T09:59:04.850Z</time>
      </trkpt>
      <trkpt lat="45.04303" lon="2.40853">
        <ele>837.38</ele>
        <time>2026-08-21T09:59:05.851Z</time>
      </trkpt>
      <trkpt lat="45.04301" lon="2.40844">
        <ele>837.21</ele>
        <time>2026-08-21T09:59:06.710Z</time>
      </trkpt>
      <trkpt lat="45.043" lon="2.40838">
        <ele>837</ele>
        <time>2026-08-21T09:59:07.854Z</time>
      </trkpt>
      <trkpt lat="45.04298" lon="2.40827">
        <ele>836.83</ele>
        <time>2026-08-21T09:59:08.856Z</time>
      </trkpt>
      <trkpt lat="45.04296" lon="2.40819">
        <ele>836.69</ele>
        <time>2026-08-21T09:59:09.402Z</time>
      </trkpt>
      <trkpt lat="45.04294" lon="2.40811">
        <ele>836.45</ele>
        <time>2026-08-21T09:59:10.412Z</time>
      </trkpt>
      <trkpt lat="45.04292" lon="2.40801">
        <ele>836.26</ele>
        <time>2026-08-21T09:59:11.414Z</time>
      </trkpt>
      <trkpt lat="45.0429" lon="2.40793">
        <ele>836.12</ele>
        <time>2026-08-21T09:59:12.427Z</time>
      </trkpt>
      <trkpt lat="45.04289" lon="2.40784">
        <ele>835.93</ele>
        <time>2026-08-21T09:59:13.416Z</time>
      </trkpt>
      <trkpt lat="45.04287" lon="2.40777">
        <ele>835.75</ele>
        <time>2026-08-21T09:59:14.400Z</time>
      </trkpt>
      <trkpt lat="45.04284" lon="2.40767">
        <ele>835.57</ele>
        <time>2026-08-21T09:59:15.440Z</time>
      </trkpt>
      <trkpt lat="45.04282" lon="2.40758">
        <ele>835.38</ele>
        <time>2026-08-21T09:59:16.425Z</time>
      </trkpt>
      <trkpt lat="45.0428" lon="2.4075">
        <ele>835.13</ele>
        <time>2026-08-21T09:59:17.608Z</time>
      </trkpt>
      <trkpt lat="45.04278" lon="2.40741">
        <ele>834.99</ele>
        <time>2026-08-21T09:59:18.879Z</time>
      </trkpt>
      <trkpt lat="45.04275" lon="2.40733">
        <ele>834.81</ele>
        <time>2026-08-21T09:59:19.885Z</time>
      </trkpt>
      <trkpt lat="45.04273" lon="2.40725">
        <ele>834.62</ele>
        <time>2026-08-21T09:59:20.419Z</time>
      </trkpt>
      <trkpt lat="45.0427" lon="2.40717">
        <ele>834.49</ele>
        <time>2026-08-21T09:59:21.872Z</time>
      </trkpt>
      <trkpt lat="45.04267" lon="2.40708">
        <ele>834.3</ele>
        <time>2026-08-21T09:59:22.422Z</time>
      </trkpt>
      <trkpt lat="45.04265" lon="2.407">
        <ele>834.13</ele>
        <time>2026-08-21T09:59:23.793Z</time>
      </trkpt>
      <trkpt lat="45.04262" lon="2.40693">
        <ele>833.98</ele>
        <time>2026-08-21T09:59:24.795Z</time>
      </trkpt>
      <trkpt lat="45.04259" lon="2.40686">
        <ele>833.85</ele>
        <time>2026-08-21T09:59:25.797Z</time>
      </trkpt>
      <trkpt lat="45.04256" lon="2.40678">
        <ele>833.66</ele>
        <time>2026-08-21T09:59:26.801Z</time>
      </trkpt>
      <trkpt lat="45.04252" lon="2.40671">
        <ele>833.56</ele>
        <time>2026-08-21T09:59:27.802Z</time>
      </trkpt>
      <trkpt lat="45.04249" lon="2.40663">
        <ele>833.38</ele>
        <time>2026-08-21T09:59:28.804Z</time>
      </trkpt>
      <trkpt lat="45.04248" lon="2.40662">
        <ele>833.28</ele>
        <time>2026-08-21T09:59:29.808Z</time>
      </trkpt>
      <trkpt lat="45.04242" lon="2.40648">
        <ele>833.16</ele>
        <time>2026-08-21T09:59:30.812Z</time>
      </trkpt>
      <trkpt lat="45.0424" lon="2.40641">
        <ele>833.07</ele>
        <time>2026-08-21T09:59:31.813Z</time>
      </trkpt>
      <trkpt lat="45.04236" lon="2.40633">
        <ele>833.04</ele>
        <time>2026-08-21T09:59:32.815Z</time>
      </trkpt>
      <trkpt lat="45.04235" lon="2.40631">
        <ele>832.92</ele>
        <time>2026-08-21T09:59:33.818Z</time>
      </trkpt>
      <trkpt lat="45.0423" lon="2.40619">
        <ele>832.82</ele>
        <time>2026-08-21T09:59:34.819Z</time>
      </trkpt>
      <trkpt lat="45.04227" lon="2.40612">
        <ele>832.76</ele>
        <time>2026-08-21T09:59:35.821Z</time>
      </trkpt>
      <trkpt lat="45.04224" lon="2.40605">
        <ele>832.66</ele>
        <time>2026-08-21T09:59:36.823Z</time>
      </trkpt>
      <trkpt lat="45.0422" lon="2.40597">
        <ele>832.59</ele>
        <time>2026-08-21T09:59:37.825Z</time>
      </trkpt>
      <trkpt lat="45.04216" lon="2.40589">
        <ele>832.56</ele>
        <time>2026-08-21T09:59:38.829Z</time>
      </trkpt>
      <trkpt lat="45.04213" lon="2.40582">
        <ele>832.51</ele>
        <time>2026-08-21T09:59:39.829Z</time>
      </trkpt>
      <trkpt lat="45.0421" lon="2.40575">
        <ele>832.44</ele>
        <time>2026-08-21T09:59:40.831Z</time>
      </trkpt>
      <trkpt lat="45.04207" lon="2.40568">
        <ele>832.33</ele>
        <time>2026-08-21T09:59:41.834Z</time>
      </trkpt>
      <trkpt lat="45.04203" lon="2.40561">
        <ele>832.19</ele>
        <time>2026-08-21T09:59:42.837Z</time>
      </trkpt>
      <trkpt lat="45.04202" lon="2.40559">
        <ele>832.07</ele>
        <time>2026-08-21T09:59:43.839Z</time>
      </trkpt>
      <trkpt lat="45.04197" lon="2.40545">
        <ele>831.93</ele>
        <time>2026-08-21T09:59:44.841Z</time>
      </trkpt>
      <trkpt lat="45.04195" lon="2.40537">
        <ele>831.86</ele>
        <time>2026-08-21T09:59:45.842Z</time>
      </trkpt>
      <trkpt lat="45.04196" lon="2.40535">
        <ele>831.7</ele>
        <time>2026-08-21T09:59:46.845Z</time>
      </trkpt>
      <trkpt lat="45.04197" lon="2.40523">
        <ele>831.65</ele>
        <time>2026-08-21T09:59:47.847Z</time>
      </trkpt>
      <trkpt lat="45.04197" lon="2.40519">
        <ele>831.58</ele>
        <time>2026-08-21T09:59:48.847Z</time>
      </trkpt>
      <trkpt lat="45.04199" lon="2.40513">
        <ele>831.58</ele>
        <time>2026-08-21T09:59:49.850Z</time>
      </trkpt>
      <trkpt lat="45.042" lon="2.40509">
        <ele>831.52</ele>
        <time>2026-08-21T09:59:50.851Z</time>
      </trkpt>
      <trkpt lat="45.04201" lon="2.40504">
        <ele>831.35</ele>
        <time>2026-08-21T09:59:51.811Z</time>
      </trkpt>
      <trkpt lat="45.04202" lon="2.40499">
        <ele>831.22</ele>
        <time>2026-08-21T09:59:52.695Z</time>
      </trkpt>
      <trkpt lat="45.04203" lon="2.40493">
        <ele>831.16</ele>
        <time>2026-08-21T09:59:53.799Z</time>
      </trkpt>
      <trkpt lat="45.04205" lon="2.40489">
        <ele>831.22</ele>
        <time>2026-08-21T09:59:54.913Z</time>
      </trkpt>
      <trkpt lat="45.04206" lon="2.40485">
        <ele>831.32</ele>
        <time>2026-08-21T09:59:55.860Z</time>
      </trkpt>
      <trkpt lat="45.04207" lon="2.4048">
        <ele>831.42</ele>
        <time>2026-08-21T09:59:56.788Z</time>
      </trkpt>
      <trkpt lat="45.04209" lon="2.40475">
        <ele>831.4</ele>
        <time>2026-08-21T09:59:57.866Z</time>
      </trkpt>
      <trkpt lat="45.04211" lon="2.4047">
        <ele>831.41</ele>
        <time>2026-08-21T09:59:58.803Z</time>
      </trkpt>
      <trkpt lat="45.04213" lon="2.40466">
        <ele>831.5</ele>
        <time>2026-08-21T09:59:59.799Z</time>
      </trkpt>
      <trkpt lat="45.04215" lon="2.40458">
        <ele>831.41</ele>
        <time>2026-08-21T10:00:00.784Z</time>
      </trkpt>
      <trkpt lat="45.04217" lon="2.40452">
        <ele>831.47</ele>
        <time>2026-08-21T10:00:01.779Z</time>
      </trkpt>
      <trkpt lat="45.04219" lon="2.40447">
        <ele>831.42</ele>
        <time>2026-08-21T10:00:02.875Z</time>
      </trkpt>
      <trkpt lat="45.04222" lon="2.40442">
        <ele>831.45</ele>
        <time>2026-08-21T10:00:03.874Z</time>
      </trkpt>
      <trkpt lat="45.04225" lon="2.40436">
        <ele>831.43</ele>
        <time>2026-08-21T10:00:04.798Z</time>
      </trkpt>
      <trkpt lat="45.04227" lon="2.40432">
        <ele>831.41</ele>
        <time>2026-08-21T10:00:05.880Z</time>
      </trkpt>
      <trkpt lat="45.04231" lon="2.40423">
        <ele>831.51</ele>
        <time>2026-08-21T10:00:06.881Z</time>
      </trkpt>
      <trkpt lat="45.04234" lon="2.40418">
        <ele>831.37</ele>
        <time>2026-08-21T10:00:07.882Z</time>
      </trkpt>
      <trkpt lat="45.04238" lon="2.40413">
        <ele>831.31</ele>
        <time>2026-08-21T10:00:08.794Z</time>
      </trkpt>
      <trkpt lat="45.04241" lon="2.40407">
        <ele>831.08</ele>
        <time>2026-08-21T10:00:09.785Z</time>
      </trkpt>
      <trkpt lat="45.04244" lon="2.40402">
        <ele>830.81</ele>
        <time>2026-08-21T10:00:10.801Z</time>
      </trkpt>
      <trkpt lat="45.04247" lon="2.40396">
        <ele>830.8</ele>
        <time>2026-08-21T10:00:11.796Z</time>
      </trkpt>
      <trkpt lat="45.0425" lon="2.4039">
        <ele>830.74</ele>
        <time>2026-08-21T10:00:12.940Z</time>
      </trkpt>
      <trkpt lat="45.04253" lon="2.40385">
        <ele>830.56</ele>
        <time>2026-08-21T10:00:13.895Z</time>
      </trkpt>
      <trkpt lat="45.04256" lon="2.40379">
        <ele>830.59</ele>
        <time>2026-08-21T10:00:14.899Z</time>
      </trkpt>
      <trkpt lat="45.04258" lon="2.40374">
        <ele>830.57</ele>
        <time>2026-08-21T10:00:15.959Z</time>
      </trkpt>
      <trkpt lat="45.04261" lon="2.40368">
        <ele>830.48</ele>
        <time>2026-08-21T10:00:16.901Z</time>
      </trkpt>
      <trkpt lat="45.04264" lon="2.40362">
        <ele>830.47</ele>
        <time>2026-08-21T10:00:17.903Z</time>
      </trkpt>
      <trkpt lat="45.04266" lon="2.40356">
        <ele>830.52</ele>
        <time>2026-08-21T10:00:18.905Z</time>
      </trkpt>
      <trkpt lat="45.04269" lon="2.40351">
        <ele>830.46</ele>
        <time>2026-08-21T10:00:19.907Z</time>
      </trkpt>
      <trkpt lat="45.04271" lon="2.40345">
        <ele>830.36</ele>
        <time>2026-08-21T10:00:20.712Z</time>
      </trkpt>
      <trkpt lat="45.04273" lon="2.4034">
        <ele>830.24</ele>
        <time>2026-08-21T10:00:21.006Z</time>
      </trkpt>
      <trkpt lat="45.04275" lon="2.40335">
        <ele>830.18</ele>
        <time>2026-08-21T10:00:22.913Z</time>
      </trkpt>
      <trkpt lat="45.04277" lon="2.4033">
        <ele>830.23</ele>
        <time>2026-08-21T10:00:23.916Z</time>
      </trkpt>
      <trkpt lat="45.04279" lon="2.40324">
        <ele>830.33</ele>
        <time>2026-08-21T10:00:24.778Z</time>
      </trkpt>
      <trkpt lat="45.0428" lon="2.40319">
        <ele>830.33</ele>
        <time>2026-08-21T10:00:25.772Z</time>
      </trkpt>
      <trkpt lat="45.04281" lon="2.40314">
        <ele>830.22</ele>
        <time>2026-08-21T10:00:26.939Z</time>
      </trkpt>
      <trkpt lat="45.04281" lon="2.40309">
        <ele>830.18</ele>
        <time>2026-08-21T10:00:27.924Z</time>
      </trkpt>
      <trkpt lat="45.04281" lon="2.40304">
        <ele>830.11</ele>
        <time>2026-08-21T10:00:28.926Z</time>
      </trkpt>
      <trkpt lat="45.0428" lon="2.40299">
        <ele>830.07</ele>
        <time>2026-08-21T10:00:29.951Z</time>
      </trkpt>
      <trkpt lat="45.04278" lon="2.40294">
        <ele>830</ele>
        <time>2026-08-21T10:00:30.933Z</time>
      </trkpt>
      <trkpt lat="45.04276" lon="2.40288">
        <ele>829.96</ele>
        <time>2026-08-21T10:00:31.447Z</time>
      </trkpt>
      <trkpt lat="45.04273" lon="2.40281">
        <ele>829.91</ele>
        <time>2026-08-21T10:00:32.936Z</time>
      </trkpt>
      <trkpt lat="45.04271" lon="2.40275">
        <ele>829.89</ele>
        <time>2026-08-21T10:00:33.960Z</time>
      </trkpt>
      <trkpt lat="45.04268" lon="2.4027">
        <ele>829.83</ele>
        <time>2026-08-21T10:00:34.939Z</time>
      </trkpt>
      <trkpt lat="45.04266" lon="2.40264">
        <ele>829.77</ele>
        <time>2026-08-21T10:00:35.949Z</time>
      </trkpt>
      <trkpt lat="45.04265" lon="2.40259">
        <ele>829.71</ele>
        <time>2026-08-21T10:00:36.942Z</time>
      </trkpt>
      <trkpt lat="45.04263" lon="2.40253">
        <ele>829.67</ele>
        <time>2026-08-21T10:00:37.963Z</time>
      </trkpt>
      <trkpt lat="45.04261" lon="2.40247">
        <ele>829.63</ele>
        <time>2026-08-21T10:00:38.946Z</time>
      </trkpt>
      <trkpt lat="45.04259" lon="2.40241">
        <ele>829.55</ele>
        <time>2026-08-21T10:00:39.950Z</time>
      </trkpt>
      <trkpt lat="45.04257" lon="2.40236">
        <ele>829.48</ele>
        <time>2026-08-21T10:00:40.950Z</time>
      </trkpt>
      <trkpt lat="45.04255" lon="2.40229">
        <ele>829.41</ele>
        <time>2026-08-21T10:00:41.952Z</time>
      </trkpt>
      <trkpt lat="45.04253" lon="2.40223">
        <ele>829.37</ele>
        <time>2026-08-21T10:00:42.954Z</time>
      </trkpt>
      <trkpt lat="45.04252" lon="2.40218">
        <ele>829.31</ele>
        <time>2026-08-21T10:00:43.731Z</time>
      </trkpt>
      <trkpt lat="45.0425" lon="2.40212">
        <ele>829.28</ele>
        <time>2026-08-21T10:00:44.548Z</time>
      </trkpt>
      <trkpt lat="45.04247" lon="2.40207">
        <ele>829.22</ele>
        <time>2026-08-21T10:00:45.961Z</time>
      </trkpt>
      <trkpt lat="45.04245" lon="2.40201">
        <ele>829.14</ele>
        <time>2026-08-21T10:00:46.560Z</time>
      </trkpt>
      <trkpt lat="45.04243" lon="2.40195">
        <ele>829.08</ele>
        <time>2026-08-21T10:00:47.058Z</time>
      </trkpt>
      <trkpt lat="45.0424" lon="2.4019">
        <ele>829.03</ele>
        <time>2026-08-21T10:00:48.731Z</time>
      </trkpt>
      <trkpt lat="45.04239" lon="2.40185">
        <ele>828.97</ele>
        <time>2026-08-21T10:00:49.972Z</time>
      </trkpt>
      <trkpt lat="45.04236" lon="2.40179">
        <ele>828.89</ele>
        <time>2026-08-21T10:00:50.556Z</time>
      </trkpt>
      <trkpt lat="45.04234" lon="2.40175">
        <ele>828.85</ele>
        <time>2026-08-21T10:00:51.065Z</time>
      </trkpt>
      <trkpt lat="45.04231" lon="2.4017">
        <ele>828.8</ele>
        <time>2026-08-21T10:00:52.559Z</time>
      </trkpt>
      <trkpt lat="45.04229" lon="2.40166">
        <ele>828.77</ele>
        <time>2026-08-21T10:00:53.589Z</time>
      </trkpt>
      <trkpt lat="45.04226" lon="2.40161">
        <ele>828.73</ele>
        <time>2026-08-21T10:00:54.549Z</time>
      </trkpt>
      <trkpt lat="45.04223" lon="2.40156">
        <ele>828.68</ele>
        <time>2026-08-21T10:00:55.592Z</time>
      </trkpt>
      <trkpt lat="45.04221" lon="2.40151">
        <ele>828.62</ele>
        <time>2026-08-21T10:00:56.059Z</time>
      </trkpt>
      <trkpt lat="45.04218" lon="2.40145">
        <ele>828.49</ele>
        <time>2026-08-21T10:00:57.582Z</time>
      </trkpt>
      <trkpt lat="45.04215" lon="2.40141">
        <ele>828.45</ele>
        <time>2026-08-21T10:00:58.048Z</time>
      </trkpt>
      <trkpt lat="45.04212" lon="2.40136">
        <ele>828.49</ele>
        <time>2026-08-21T10:00:59.579Z</time>
      </trkpt>
      <trkpt lat="45.0421" lon="2.40131">
        <ele>828.48</ele>
        <time>2026-08-21T10:01:00.572Z</time>
      </trkpt>
      <trkpt lat="45.04207" lon="2.40125">
        <ele>828.46</ele>
        <time>2026-08-21T10:01:01.588Z</time>
      </trkpt>
      <trkpt lat="45.04204" lon="2.4012">
        <ele>828.46</ele>
        <time>2026-08-21T10:01:02.084Z</time>
      </trkpt>
      <trkpt lat="45.04201" lon="2.40115">
        <ele>828.43</ele>
        <time>2026-08-21T10:01:03.683Z</time>
      </trkpt>
      <trkpt lat="45.04199" lon="2.4011">
        <ele>828.52</ele>
        <time>2026-08-21T10:01:04.531Z</time>
      </trkpt>
      <trkpt lat="45.04197" lon="2.40106">
        <ele>828.55</ele>
        <time>2026-08-21T10:01:05.054Z</time>
      </trkpt>
      <trkpt lat="45.04194" lon="2.401">
        <ele>828.52</ele>
        <time>2026-08-21T10:01:06.746Z</time>
      </trkpt>
      <trkpt lat="45.04192" lon="2.40095">
        <ele>828.51</ele>
        <time>2026-08-21T10:01:07.057Z</time>
      </trkpt>
      <trkpt lat="45.04189" lon="2.40088">
        <ele>828.51</ele>
        <time>2026-08-21T10:01:08.553Z</time>
      </trkpt>
      <trkpt lat="45.04187" lon="2.40084">
        <ele>828.38</ele>
        <time>2026-08-21T10:01:09.057Z</time>
      </trkpt>
      <trkpt lat="45.04184" lon="2.40077">
        <ele>828.31</ele>
        <time>2026-08-21T10:01:10.565Z</time>
      </trkpt>
      <trkpt lat="45.04182" lon="2.40072">
        <ele>828.28</ele>
        <time>2026-08-21T10:01:11.571Z</time>
      </trkpt>
      <trkpt lat="45.04179" lon="2.40066">
        <ele>828.27</ele>
        <time>2026-08-21T10:01:12.587Z</time>
      </trkpt>
      <trkpt lat="45.04177" lon="2.4006">
        <ele>828.25</ele>
        <time>2026-08-21T10:01:13.564Z</time>
      </trkpt>
      <trkpt lat="45.04174" lon="2.40055">
        <ele>828.26</ele>
        <time>2026-08-21T10:01:14.575Z</time>
      </trkpt>
      <trkpt lat="45.04172" lon="2.40049">
        <ele>828.23</ele>
        <time>2026-08-21T10:01:15.565Z</time>
      </trkpt>
      <trkpt lat="45.0417" lon="2.40045">
        <ele>828.2</ele>
        <time>2026-08-21T10:01:16.580Z</time>
      </trkpt>
      <trkpt lat="45.04168" lon="2.40039">
        <ele>828.17</ele>
        <time>2026-08-21T10:01:17.564Z</time>
      </trkpt>
      <trkpt lat="45.04165" lon="2.40034">
        <ele>828.14</ele>
        <time>2026-08-21T10:01:18.541Z</time>
      </trkpt>
      <trkpt lat="45.04163" lon="2.40028">
        <ele>828.08</ele>
        <time>2026-08-21T10:01:19.558Z</time>
      </trkpt>
      <trkpt lat="45.0416" lon="2.40021">
        <ele>828</ele>
        <time>2026-08-21T10:01:20.558Z</time>
      </trkpt>
      <trkpt lat="45.04157" lon="2.40015">
        <ele>827.91</ele>
        <time>2026-08-21T10:01:21.571Z</time>
      </trkpt>
      <trkpt lat="45.04155" lon="2.40009">
        <ele>827.81</ele>
        <time>2026-08-21T10:01:22.075Z</time>
      </trkpt>
      <trkpt lat="45.04153" lon="2.40001">
        <ele>827.68</ele>
        <time>2026-08-21T10:01:23.589Z</time>
      </trkpt>
      <trkpt lat="45.0415" lon="2.39994">
        <ele>827.58</ele>
        <time>2026-08-21T10:01:24.956Z</time>
      </trkpt>
      <trkpt lat="45.04148" lon="2.39986">
        <ele>827.49</ele>
        <time>2026-08-21T10:01:25.957Z</time>
      </trkpt>
      <trkpt lat="45.04146" lon="2.39979">
        <ele>827.41</ele>
        <time>2026-08-21T10:01:26.960Z</time>
      </trkpt>
      <trkpt lat="45.04145" lon="2.39972">
        <ele>827.28</ele>
        <time>2026-08-21T10:01:27.964Z</time>
      </trkpt>
      <trkpt lat="45.04144" lon="2.39965">
        <ele>827.17</ele>
        <time>2026-08-21T10:01:28.966Z</time>
      </trkpt>
      <trkpt lat="45.04139" lon="2.39951">
        <ele>826.93</ele>
        <time>2026-08-21T10:01:29.549Z</time>
      </trkpt>
      <trkpt lat="45.04136" lon="2.39944">
        <ele>826.76</ele>
        <time>2026-08-21T10:01:31.582Z</time>
      </trkpt>
      <trkpt lat="45.04128" lon="2.39933">
        <ele>826.57</ele>
        <time>2026-08-21T10:01:32.551Z</time>
      </trkpt>
      <trkpt lat="45.04123" lon="2.39926">
        <ele>826.11</ele>
        <time>2026-08-21T10:01:35.068Z</time>
      </trkpt>
      <trkpt lat="45.04115" lon="2.39915">
        <ele>825.74</ele>
        <time>2026-08-21T10:01:36.076Z</time>
      </trkpt>
      <trkpt lat="45.04112" lon="2.39908">
        <ele>824.64</ele>
        <time>2026-08-21T10:01:38.055Z</time>
      </trkpt>
      <trkpt lat="45.04104" lon="2.39883">
        <ele>824.91</ele>
        <time>2026-08-21T10:01:40.065Z</time>
      </trkpt>
      <trkpt lat="45.04102" lon="2.39874">
        <ele>824.55</ele>
        <time>2026-08-21T10:01:41.081Z</time>
      </trkpt>
      <trkpt lat="45.04099" lon="2.39858">
        <ele>824.08</ele>
        <time>2026-08-21T10:01:43.070Z</time>
      </trkpt>
      <trkpt lat="45.04097" lon="2.39848">
        <ele>823.59</ele>
        <time>2026-08-21T10:01:44.003Z</time>
      </trkpt>
      <trkpt lat="45.04093" lon="2.39831">
        <ele>823.55</ele>
        <time>2026-08-21T10:01:46.062Z</time>
      </trkpt>
      <trkpt lat="45.04091" lon="2.39823">
        <ele>822.99</ele>
        <time>2026-08-21T10:01:47.021Z</time>
      </trkpt>
      <trkpt lat="45.0409" lon="2.39818">
        <ele>822.4</ele>
        <time>2026-08-21T10:01:48.014Z</time>
      </trkpt>
      <trkpt lat="45.04087" lon="2.39811">
        <ele>821.92</ele>
        <time>2026-08-21T10:01:49.015Z</time>
      </trkpt>
      <trkpt lat="45.04085" lon="2.39806">
        <ele>821.67</ele>
        <time>2026-08-21T10:01:50.021Z</time>
      </trkpt>
      <trkpt lat="45.0408" lon="2.39796">
        <ele>821.37</ele>
        <time>2026-08-21T10:01:52.073Z</time>
      </trkpt>
      <trkpt lat="45.04077" lon="2.39791">
        <ele>820.88</ele>
        <time>2026-08-21T10:01:53.068Z</time>
      </trkpt>
      <trkpt lat="45.04075" lon="2.39787">
        <ele>819.32</ele>
        <time>2026-08-21T10:01:54.029Z</time>
      </trkpt>
      <trkpt lat="45.04068" lon="2.39778">
        <ele>818.59</ele>
        <time>2026-08-21T10:01:56.063Z</time>
      </trkpt>
      <trkpt lat="45.04064" lon="2.39773">
        <ele>818.31</ele>
        <time>2026-08-21T10:01:57.035Z</time>
      </trkpt>
      <trkpt lat="45.0406" lon="2.39768">
        <ele>818.3</ele>
        <time>2026-08-21T10:01:57.722Z</time>
      </trkpt>
      <trkpt lat="45.04056" lon="2.39763">
        <ele>817.76</ele>
        <time>2026-08-21T10:01:59.070Z</time>
      </trkpt>
      <trkpt lat="45.04053" lon="2.39758">
        <ele>817.33</ele>
        <time>2026-08-21T10:02:00.041Z</time>
      </trkpt>
      <trkpt lat="45.0405" lon="2.39754">
        <ele>817.42</ele>
        <time>2026-08-21T10:02:01.095Z</time>
      </trkpt>
      <trkpt lat="45.04046" lon="2.39743">
        <ele>817.45</ele>
        <time>2026-08-21T10:02:03.088Z</time>
      </trkpt>
      <trkpt lat="45.04043" lon="2.39738">
        <ele>817.36</ele>
        <time>2026-08-21T10:02:04.051Z</time>
      </trkpt>
      <trkpt lat="45.04041" lon="2.39734">
        <ele>817.22</ele>
        <time>2026-08-21T10:02:04.909Z</time>
      </trkpt>
      <trkpt lat="45.04039" lon="2.39729">
        <ele>817.24</ele>
        <time>2026-08-21T10:02:06.055Z</time>
      </trkpt>
      <trkpt lat="45.04036" lon="2.39724">
        <ele>817.12</ele>
        <time>2026-08-21T10:02:06.150Z</time>
      </trkpt>
      <trkpt lat="45.04034" lon="2.3972">
        <ele>817.03</ele>
        <time>2026-08-21T10:02:08.062Z</time>
      </trkpt>
      <trkpt lat="45.04027" lon="2.39711">
        <ele>817</ele>
        <time>2026-08-21T10:02:10.082Z</time>
      </trkpt>
      <trkpt lat="45.04024" lon="2.39707">
        <ele>816.6</ele>
        <time>2026-08-21T10:02:11.068Z</time>
      </trkpt>
      <trkpt lat="45.04021" lon="2.39703">
        <ele>816.54</ele>
        <time>2026-08-21T10:02:12.066Z</time>
      </trkpt>
      <trkpt lat="45.04016" lon="2.39698">
        <ele>816.42</ele>
        <time>2026-08-21T10:02:13.065Z</time>
      </trkpt>
      <trkpt lat="45.04013" lon="2.39695">
        <ele>816.51</ele>
        <time>2026-08-21T10:02:14.064Z</time>
      </trkpt>
      <trkpt lat="45.04009" lon="2.3969">
        <ele>816.75</ele>
        <time>2026-08-21T10:02:15.066Z</time>
      </trkpt>
      <trkpt lat="45.04004" lon="2.39686">
        <ele>816.56</ele>
        <time>2026-08-21T10:02:16.073Z</time>
      </trkpt>
      <trkpt lat="45.03996" lon="2.39677">
        <ele>816.44</ele>
        <time>2026-08-21T10:02:18.061Z</time>
      </trkpt>
      <trkpt lat="45.03991" lon="2.39673">
        <ele>816.01</ele>
        <time>2026-08-21T10:02:19.078Z</time>
      </trkpt>
      <trkpt lat="45.03987" lon="2.3967">
        <ele>815.82</ele>
        <time>2026-08-21T10:02:20.081Z</time>
      </trkpt>
      <trkpt lat="45.03982" lon="2.39666">
        <ele>815.47</ele>
        <time>2026-08-21T10:02:21.079Z</time>
      </trkpt>
      <trkpt lat="45.03977" lon="2.3966">
        <ele>815.16</ele>
        <time>2026-08-21T10:02:22.083Z</time>
      </trkpt>
      <trkpt lat="45.03972" lon="2.39654">
        <ele>814.59</ele>
        <time>2026-08-21T10:02:23.083Z</time>
      </trkpt>
      <trkpt lat="45.03967" lon="2.39648">
        <ele>814.09</ele>
        <time>2026-08-21T10:02:24.087Z</time>
      </trkpt>
      <trkpt lat="45.03962" lon="2.39641">
        <ele>813.62</ele>
        <time>2026-08-21T10:02:25.091Z</time>
      </trkpt>
      <trkpt lat="45.03958" lon="2.39635">
        <ele>813.05</ele>
        <time>2026-08-21T10:02:26.088Z</time>
      </trkpt>
      <trkpt lat="45.03953" lon="2.39628">
        <ele>812.66</ele>
        <time>2026-08-21T10:02:27.095Z</time>
      </trkpt>
      <trkpt lat="45.03949" lon="2.39623">
        <ele>813.02</ele>
        <time>2026-08-21T10:02:28.092Z</time>
      </trkpt>
      <trkpt lat="45.03947" lon="2.3962">
        <ele>812.33</ele>
        <time>2026-08-21T10:02:29.094Z</time>
      </trkpt>
      <trkpt lat="45.03939" lon="2.3961">
        <ele>812.2</ele>
        <time>2026-08-21T10:02:30.098Z</time>
      </trkpt>
      <trkpt lat="45.03935" lon="2.39605">
        <ele>811.9</ele>
        <time>2026-08-21T10:02:31.099Z</time>
      </trkpt>
      <trkpt lat="45.03933" lon="2.39603">
        <ele>811.37</ele>
        <time>2026-08-21T10:02:32.100Z</time>
      </trkpt>
      <trkpt lat="45.03926" lon="2.39595">
        <ele>811.25</ele>
        <time>2026-08-21T10:02:33.102Z</time>
      </trkpt>
      <trkpt lat="45.03922" lon="2.3959">
        <ele>810.54</ele>
        <time>2026-08-21T10:02:34.104Z</time>
      </trkpt>
      <trkpt lat="45.03919" lon="2.39586">
        <ele>809.74</ele>
        <time>2026-08-21T10:02:35.107Z</time>
      </trkpt>
      <trkpt lat="45.03913" lon="2.39579">
        <ele>808.89</ele>
        <time>2026-08-21T10:02:36.108Z</time>
      </trkpt>
      <trkpt lat="45.03909" lon="2.39574">
        <ele>808.17</ele>
        <time>2026-08-21T10:02:37.110Z</time>
      </trkpt>
      <trkpt lat="45.03905" lon="2.39569">
        <ele>807.92</ele>
        <time>2026-08-21T10:02:38.113Z</time>
      </trkpt>
      <trkpt lat="45.03901" lon="2.39564">
        <ele>807.6</ele>
        <time>2026-08-21T10:02:39.114Z</time>
      </trkpt>
      <trkpt lat="45.03897" lon="2.39559">
        <ele>807.05</ele>
        <time>2026-08-21T10:02:40.117Z</time>
      </trkpt>
      <trkpt lat="45.03893" lon="2.39553">
        <ele>807.33</ele>
        <time>2026-08-21T10:02:41.118Z</time>
      </trkpt>
      <trkpt lat="45.03889" lon="2.39548">
        <ele>807.12</ele>
        <time>2026-08-21T10:02:41.726Z</time>
      </trkpt>
      <trkpt lat="45.03887" lon="2.39542">
        <ele>807.25</ele>
        <time>2026-08-21T10:02:43.124Z</time>
      </trkpt>
      <trkpt lat="45.03887" lon="2.39535">
        <ele>807.23</ele>
        <time>2026-08-21T10:02:44.026Z</time>
      </trkpt>
      <trkpt lat="45.03888" lon="2.39529">
        <ele>806.65</ele>
        <time>2026-08-21T10:02:45.029Z</time>
      </trkpt>
      <trkpt lat="45.0389" lon="2.39523">
        <ele>806.44</ele>
        <time>2026-08-21T10:02:46.030Z</time>
      </trkpt>
      <trkpt lat="45.0389" lon="2.39518">
        <ele>806.21</ele>
        <time>2026-08-21T10:02:47.035Z</time>
      </trkpt>
      <trkpt lat="45.03891" lon="2.39512">
        <ele>806.08</ele>
        <time>2026-08-21T10:02:48.037Z</time>
      </trkpt>
      <trkpt lat="45.03893" lon="2.39506">
        <ele>805.79</ele>
        <time>2026-08-21T10:02:49.040Z</time>
      </trkpt>
      <trkpt lat="45.03893" lon="2.39502">
        <ele>805.1</ele>
        <time>2026-08-21T10:02:50.042Z</time>
      </trkpt>
      <trkpt lat="45.03895" lon="2.39494">
        <ele>804.32</ele>
        <time>2026-08-21T10:02:51.044Z</time>
      </trkpt>
      <trkpt lat="45.03895" lon="2.3949">
        <ele>804.5</ele>
        <time>2026-08-21T10:02:52.046Z</time>
      </trkpt>
      <trkpt lat="45.03896" lon="2.3948">
        <ele>804.1</ele>
        <time>2026-08-21T10:02:53.052Z</time>
      </trkpt>
      <trkpt lat="45.03898" lon="2.39473">
        <ele>803.48</ele>
        <time>2026-08-21T10:02:54.052Z</time>
      </trkpt>
      <trkpt lat="45.03898" lon="2.39469">
        <ele>803.49</ele>
        <time>2026-08-21T10:02:55.055Z</time>
      </trkpt>
      <trkpt lat="45.03899" lon="2.39456">
        <ele>802.79</ele>
        <time>2026-08-21T10:02:56.061Z</time>
      </trkpt>
      <trkpt lat="45.03901" lon="2.39447">
        <ele>802.06</ele>
        <time>2026-08-21T10:02:57.059Z</time>
      </trkpt>
      <trkpt lat="45.03902" lon="2.39437">
        <ele>802.02</ele>
        <time>2026-08-21T10:02:58.062Z</time>
      </trkpt>
      <trkpt lat="45.03903" lon="2.39428">
        <ele>801.68</ele>
        <time>2026-08-21T10:02:59.065Z</time>
      </trkpt>
      <trkpt lat="45.03904" lon="2.3942">
        <ele>801.91</ele>
        <time>2026-08-21T10:03:00.067Z</time>
      </trkpt>
      <trkpt lat="45.03904" lon="2.39412">
        <ele>801.47</ele>
        <time>2026-08-21T10:03:01.071Z</time>
      </trkpt>
      <trkpt lat="45.03906" lon="2.39406">
        <ele>800.49</ele>
        <time>2026-08-21T10:03:02.111Z</time>
      </trkpt>
      <trkpt lat="45.03907" lon="2.394">
        <ele>799.8</ele>
        <time>2026-08-21T10:03:03.076Z</time>
      </trkpt>
      <trkpt lat="45.03907" lon="2.39394">
        <ele>798.73</ele>
        <time>2026-08-21T10:03:04.081Z</time>
      </trkpt>
      <trkpt lat="45.03908" lon="2.39387">
        <ele>798.42</ele>
        <time>2026-08-21T10:03:05.083Z</time>
      </trkpt>
      <trkpt lat="45.03909" lon="2.39378">
        <ele>798.32</ele>
        <time>2026-08-21T10:03:06.087Z</time>
      </trkpt>
      <trkpt lat="45.03911" lon="2.39369">
        <ele>797.8</ele>
        <time>2026-08-21T10:03:07.089Z</time>
      </trkpt>
      <trkpt lat="45.03914" lon="2.39361">
        <ele>797.66</ele>
        <time>2026-08-21T10:03:08.092Z</time>
      </trkpt>
      <trkpt lat="45.03914" lon="2.3936">
        <ele>796.72</ele>
        <time>2026-08-21T10:03:09.095Z</time>
      </trkpt>
      <trkpt lat="45.03921" lon="2.39343">
        <ele>796.72</ele>
        <time>2026-08-21T10:03:10.097Z</time>
      </trkpt>
      <trkpt lat="45.03923" lon="2.39339">
        <ele>795.87</ele>
        <time>2026-08-21T10:03:11.100Z</time>
      </trkpt>
      <trkpt lat="45.0393" lon="2.39325">
        <ele>795.32</ele>
        <time>2026-08-21T10:03:12.103Z</time>
      </trkpt>
      <trkpt lat="45.03932" lon="2.39321">
        <ele>794.74</ele>
        <time>2026-08-21T10:03:13.106Z</time>
      </trkpt>
      <trkpt lat="45.03939" lon="2.39309">
        <ele>794.29</ele>
        <time>2026-08-21T10:03:14.109Z</time>
      </trkpt>
      <trkpt lat="45.03943" lon="2.39303">
        <ele>793.43</ele>
        <time>2026-08-21T10:03:15.104Z</time>
      </trkpt>
      <trkpt lat="45.03946" lon="2.39297">
        <ele>793.3</ele>
        <time>2026-08-21T10:03:16.107Z</time>
      </trkpt>
      <trkpt lat="45.03949" lon="2.39291">
        <ele>792.96</ele>
        <time>2026-08-21T10:03:17.109Z</time>
      </trkpt>
      <trkpt lat="45.03952" lon="2.39286">
        <ele>792.76</ele>
        <time>2026-08-21T10:03:18.120Z</time>
      </trkpt>
      <trkpt lat="45.03954" lon="2.39282">
        <ele>792.49</ele>
        <time>2026-08-21T10:03:18.716Z</time>
      </trkpt>
      <trkpt lat="45.03957" lon="2.39278">
        <ele>792.1</ele>
        <time>2026-08-21T10:03:20.117Z</time>
      </trkpt>
      <trkpt lat="45.03959" lon="2.39276">
        <ele>791.8</ele>
        <time>2026-08-21T10:03:21.119Z</time>
      </trkpt>
      <trkpt lat="45.03962" lon="2.39273">
        <ele>791.52</ele>
        <time>2026-08-21T10:03:21.746Z</time>
      </trkpt>
      <trkpt lat="45.03965" lon="2.39271">
        <ele>791.25</ele>
        <time>2026-08-21T10:03:23.126Z</time>
      </trkpt>
      <trkpt lat="45.03967" lon="2.39269">
        <ele>790.99</ele>
        <time>2026-08-21T10:03:23.728Z</time>
      </trkpt>
      <trkpt lat="45.0397" lon="2.39268">
        <ele>790.74</ele>
        <time>2026-08-21T10:03:24.187Z</time>
      </trkpt>
      <trkpt lat="45.03973" lon="2.39267">
        <ele>790.54</ele>
        <time>2026-08-21T10:03:25.797Z</time>
      </trkpt>
      <trkpt lat="45.03976" lon="2.39265">
        <ele>790.25</ele>
        <time>2026-08-21T10:03:26.189Z</time>
      </trkpt>
      <trkpt lat="45.03979" lon="2.39264">
        <ele>789.97</ele>
        <time>2026-08-21T10:03:27.995Z</time>
      </trkpt>
      <trkpt lat="45.03982" lon="2.39263">
        <ele>789.67</ele>
        <time>2026-08-21T10:03:28.233Z</time>
      </trkpt>
      <trkpt lat="45.03985" lon="2.39263">
        <ele>789.45</ele>
        <time>2026-08-21T10:03:29.757Z</time>
      </trkpt>
      <trkpt lat="45.03987" lon="2.39263">
        <ele>789.25</ele>
        <time>2026-08-21T10:03:30.219Z</time>
      </trkpt>
      <trkpt lat="45.03991" lon="2.39263">
        <ele>789.02</ele>
        <time>2026-08-21T10:03:32.162Z</time>
      </trkpt>
      <trkpt lat="45.03993" lon="2.39264">
        <ele>788.81</ele>
        <time>2026-08-21T10:03:32.728Z</time>
      </trkpt>
      <trkpt lat="45.03996" lon="2.39265">
        <ele>788.6</ele>
        <time>2026-08-21T10:03:33.722Z</time>
      </trkpt>
      <trkpt lat="45.03998" lon="2.39265">
        <ele>788.46</ele>
        <time>2026-08-21T10:03:34.736Z</time>
      </trkpt>
      <trkpt lat="45.04" lon="2.39265">
        <ele>788.24</ele>
        <time>2026-08-21T10:03:35.757Z</time>
      </trkpt>
      <trkpt lat="45.04002" lon="2.39265">
        <ele>788.07</ele>
        <time>2026-08-21T10:03:36.722Z</time>
      </trkpt>
      <trkpt lat="45.04004" lon="2.39264">
        <ele>787.93</ele>
        <time>2026-08-21T10:03:37.737Z</time>
      </trkpt>
      <trkpt lat="45.04005" lon="2.39263">
        <ele>787.79</ele>
        <time>2026-08-21T10:03:38.788Z</time>
      </trkpt>
      <trkpt lat="45.04007" lon="2.39262">
        <ele>787.64</ele>
        <time>2026-08-21T10:03:39.719Z</time>
      </trkpt>
      <trkpt lat="45.04009" lon="2.39259">
        <ele>787.38</ele>
        <time>2026-08-21T10:03:41.744Z</time>
      </trkpt>
      <trkpt lat="45.04006" lon="2.39256">
        <ele>786.97</ele>
        <time>2026-08-21T10:04:32.067Z</time>
      </trkpt>
      <trkpt lat="45.04007" lon="2.39256">
        <ele>786.97</ele>
        <time>2026-08-21T10:04:33.295Z</time>
      </trkpt>
      <trkpt lat="45.04011" lon="2.3926">
        <ele>786.97</ele>
        <time>2026-08-21T10:04:44.081Z</time>
      </trkpt>
      <trkpt lat="45.04013" lon="2.39259">
        <ele>786.97</ele>
        <time>2026-08-21T10:04:47.032Z</time>
      </trkpt>
      <trkpt lat="45.04013" lon="2.39258">
        <ele>786.97</ele>
        <time>2026-08-21T10:04:48.034Z</time>
      </trkpt>
      <trkpt lat="45.04013" lon="2.39257">
        <ele>786.97</ele>
        <time>2026-08-21T10:04:49.038Z</time>
      </trkpt>
      <trkpt lat="45.04014" lon="2.39255">
        <ele>786.97</ele>
        <time>2026-08-21T10:04:50.039Z</time>
      </trkpt>
      <trkpt lat="45.04015" lon="2.39253">
        <ele>786.97</ele>
        <time>2026-08-21T10:04:50.136Z</time>
      </trkpt>
      <trkpt lat="45.04017" lon="2.39249">
        <ele>784.51</ele>
        <time>2026-08-21T10:04:52.086Z</time>
      </trkpt>
      <trkpt lat="45.04018" lon="2.39243">
        <ele>784.47</ele>
        <time>2026-08-21T10:04:52.713Z</time>
      </trkpt>
      <trkpt lat="45.0402" lon="2.39238">
        <ele>784.42</ele>
        <time>2026-08-21T10:04:54.059Z</time>
      </trkpt>
      <trkpt lat="45.04021" lon="2.39232">
        <ele>784.36</ele>
        <time>2026-08-21T10:04:55.111Z</time>
      </trkpt>
      <trkpt lat="45.04021" lon="2.39227">
        <ele>784.27</ele>
        <time>2026-08-21T10:04:56.059Z</time>
      </trkpt>
      <trkpt lat="45.04021" lon="2.39223">
        <ele>784.17</ele>
        <time>2026-08-21T10:04:57.061Z</time>
      </trkpt>
      <trkpt lat="45.04019" lon="2.39218">
        <ele>784.07</ele>
        <time>2026-08-21T10:04:58.064Z</time>
      </trkpt>
      <trkpt lat="45.04017" lon="2.39214">
        <ele>783.84</ele>
        <time>2026-08-21T10:04:59.069Z</time>
      </trkpt>
      <trkpt lat="45.04014" lon="2.39208">
        <ele>783.7</ele>
        <time>2026-08-21T10:05:00.073Z</time>
      </trkpt>
      <trkpt lat="45.04012" lon="2.39203">
        <ele>783.57</ele>
        <time>2026-08-21T10:05:01.073Z</time>
      </trkpt>
      <trkpt lat="45.04009" lon="2.39198">
        <ele>783.31</ele>
        <time>2026-08-21T10:05:02.076Z</time>
      </trkpt>
      <trkpt lat="45.04006" lon="2.39193">
        <ele>783.16</ele>
        <time>2026-08-21T10:05:03.078Z</time>
      </trkpt>
      <trkpt lat="45.04003" lon="2.39189">
        <ele>782.97</ele>
        <time>2026-08-21T10:05:04.101Z</time>
      </trkpt>
      <trkpt lat="45.03999" lon="2.39185">
        <ele>782.72</ele>
        <time>2026-08-21T10:05:05.095Z</time>
      </trkpt>
      <trkpt lat="45.03995" lon="2.39182">
        <ele>782.84</ele>
        <time>2026-08-21T10:05:06.087Z</time>
      </trkpt>
      <trkpt lat="45.03991" lon="2.39179">
        <ele>782.17</ele>
        <time>2026-08-21T10:05:07.089Z</time>
      </trkpt>
      <trkpt lat="45.03987" lon="2.39175">
        <ele>781.89</ele>
        <time>2026-08-21T10:05:08.093Z</time>
      </trkpt>
      <trkpt lat="45.03984" lon="2.39171">
        <ele>781.73</ele>
        <time>2026-08-21T10:05:09.096Z</time>
      </trkpt>
      <trkpt lat="45.0398" lon="2.39166">
        <ele>781.46</ele>
        <time>2026-08-21T10:05:10.099Z</time>
      </trkpt>
      <trkpt lat="45.03977" lon="2.39161">
        <ele>781.13</ele>
        <time>2026-08-21T10:05:11.101Z</time>
      </trkpt>
      <trkpt lat="45.03975" lon="2.39156">
        <ele>780.89</ele>
        <time>2026-08-21T10:05:12.108Z</time>
      </trkpt>
      <trkpt lat="45.03972" lon="2.39151">
        <ele>780.74</ele>
        <time>2026-08-21T10:05:13.107Z</time>
      </trkpt>
      <trkpt lat="45.03968" lon="2.39145">
        <ele>780.41</ele>
        <time>2026-08-21T10:05:14.109Z</time>
      </trkpt>
      <trkpt lat="45.03965" lon="2.39139">
        <ele>779.84</ele>
        <time>2026-08-21T10:05:15.112Z</time>
      </trkpt>
      <trkpt lat="45.03962" lon="2.39133">
        <ele>779.43</ele>
        <time>2026-08-21T10:05:16.116Z</time>
      </trkpt>
      <trkpt lat="45.0396" lon="2.39127">
        <ele>779.03</ele>
        <time>2026-08-21T10:05:17.119Z</time>
      </trkpt>
      <trkpt lat="45.03957" lon="2.39121">
        <ele>778.58</ele>
        <time>2026-08-21T10:05:18.122Z</time>
      </trkpt>
      <trkpt lat="45.03956" lon="2.39114">
        <ele>778.33</ele>
        <time>2026-08-21T10:05:19.124Z</time>
      </trkpt>
      <trkpt lat="45.03954" lon="2.39108">
        <ele>778.16</ele>
        <time>2026-08-21T10:05:20.128Z</time>
      </trkpt>
      <trkpt lat="45.03952" lon="2.39101">
        <ele>777.64</ele>
        <time>2026-08-21T10:05:21.032Z</time>
      </trkpt>
      <trkpt lat="45.0395" lon="2.39095">
        <ele>777.35</ele>
        <time>2026-08-21T10:05:22.133Z</time>
      </trkpt>
      <trkpt lat="45.03947" lon="2.39087">
        <ele>777.1</ele>
        <time>2026-08-21T10:05:22.737Z</time>
      </trkpt>
      <trkpt lat="45.03946" lon="2.39082">
        <ele>776.66</ele>
        <time>2026-08-21T10:05:23.760Z</time>
      </trkpt>
      <trkpt lat="45.03943" lon="2.39076">
        <ele>776.23</ele>
        <time>2026-08-21T10:05:24.756Z</time>
      </trkpt>
      <trkpt lat="45.03941" lon="2.3907">
        <ele>775.69</ele>
        <time>2026-08-21T10:05:25.774Z</time>
      </trkpt>
      <trkpt lat="45.03939" lon="2.39063">
        <ele>775.12</ele>
        <time>2026-08-21T10:05:27.048Z</time>
      </trkpt>
      <trkpt lat="45.03936" lon="2.39057">
        <ele>774.64</ele>
        <time>2026-08-21T10:05:28.049Z</time>
      </trkpt>
      <trkpt lat="45.03935" lon="2.3905">
        <ele>774.21</ele>
        <time>2026-08-21T10:05:29.052Z</time>
      </trkpt>
      <trkpt lat="45.03932" lon="2.39044">
        <ele>773.84</ele>
        <time>2026-08-21T10:05:30.056Z</time>
      </trkpt>
      <trkpt lat="45.03929" lon="2.39038">
        <ele>773.37</ele>
        <time>2026-08-21T10:05:31.060Z</time>
      </trkpt>
      <trkpt lat="45.03926" lon="2.39032">
        <ele>773.05</ele>
        <time>2026-08-21T10:05:32.060Z</time>
      </trkpt>
      <trkpt lat="45.03923" lon="2.39027">
        <ele>772.68</ele>
        <time>2026-08-21T10:05:33.062Z</time>
      </trkpt>
      <trkpt lat="45.0392" lon="2.39022">
        <ele>772.31</ele>
        <time>2026-08-21T10:05:34.065Z</time>
      </trkpt>
      <trkpt lat="45.03917" lon="2.39018">
        <ele>771.9</ele>
        <time>2026-08-21T10:05:35.066Z</time>
      </trkpt>
      <trkpt lat="45.03914" lon="2.39013">
        <ele>771.59</ele>
        <time>2026-08-21T10:05:36.081Z</time>
      </trkpt>
      <trkpt lat="45.0391" lon="2.39009">
        <ele>771.31</ele>
        <time>2026-08-21T10:05:37.072Z</time>
      </trkpt>
      <trkpt lat="45.03907" lon="2.39004">
        <ele>770.97</ele>
        <time>2026-08-21T10:05:38.073Z</time>
      </trkpt>
      <trkpt lat="45.03903" lon="2.38999">
        <ele>770.6</ele>
        <time>2026-08-21T10:05:39.075Z</time>
      </trkpt>
      <trkpt lat="45.03901" lon="2.38995">
        <ele>770.3</ele>
        <time>2026-08-21T10:05:40.077Z</time>
      </trkpt>
      <trkpt lat="45.03898" lon="2.3899">
        <ele>769.91</ele>
        <time>2026-08-21T10:05:41.079Z</time>
      </trkpt>
      <trkpt lat="45.03895" lon="2.38985">
        <ele>769.52</ele>
        <time>2026-08-21T10:05:42.082Z</time>
      </trkpt>
      <trkpt lat="45.03891" lon="2.38979">
        <ele>769.26</ele>
        <time>2026-08-21T10:05:43.084Z</time>
      </trkpt>
      <trkpt lat="45.03887" lon="2.38973">
        <ele>768.86</ele>
        <time>2026-08-21T10:05:44.091Z</time>
      </trkpt>
      <trkpt lat="45.03883" lon="2.38967">
        <ele>768.54</ele>
        <time>2026-08-21T10:05:45.097Z</time>
      </trkpt>
      <trkpt lat="45.03879" lon="2.38961">
        <ele>768.33</ele>
        <time>2026-08-21T10:05:46.092Z</time>
      </trkpt>
      <trkpt lat="45.03876" lon="2.38954">
        <ele>768.29</ele>
        <time>2026-08-21T10:05:47.094Z</time>
      </trkpt>
      <trkpt lat="45.03873" lon="2.38947">
        <ele>767.97</ele>
        <time>2026-08-21T10:05:48.097Z</time>
      </trkpt>
      <trkpt lat="45.03869" lon="2.3894">
        <ele>767.86</ele>
        <time>2026-08-21T10:05:49.103Z</time>
      </trkpt>
      <trkpt lat="45.03866" lon="2.38933">
        <ele>767.52</ele>
        <time>2026-08-21T10:05:50.102Z</time>
      </trkpt>
      <trkpt lat="45.03863" lon="2.38925">
        <ele>767.06</ele>
        <time>2026-08-21T10:05:51.113Z</time>
      </trkpt>
      <trkpt lat="45.0386" lon="2.38918">
        <ele>766.85</ele>
        <time>2026-08-21T10:05:52.109Z</time>
      </trkpt>
      <trkpt lat="45.03858" lon="2.38911">
        <ele>766.2</ele>
        <time>2026-08-21T10:05:53.112Z</time>
      </trkpt>
      <trkpt lat="45.03856" lon="2.38904">
        <ele>765.57</ele>
        <time>2026-08-21T10:05:54.117Z</time>
      </trkpt>
      <trkpt lat="45.03855" lon="2.38896">
        <ele>765.54</ele>
        <time>2026-08-21T10:05:55.119Z</time>
      </trkpt>
      <trkpt lat="45.03855" lon="2.38887">
        <ele>765.17</ele>
        <time>2026-08-21T10:05:56.126Z</time>
      </trkpt>
      <trkpt lat="45.03856" lon="2.38879">
        <ele>764.68</ele>
        <time>2026-08-21T10:05:57.125Z</time>
      </trkpt>
      <trkpt lat="45.03856" lon="2.3887">
        <ele>764.2</ele>
        <time>2026-08-21T10:05:57.751Z</time>
      </trkpt>
      <trkpt lat="45.03857" lon="2.38863">
        <ele>763.87</ele>
        <time>2026-08-21T10:05:59.130Z</time>
      </trkpt>
      <trkpt lat="45.03859" lon="2.38855">
        <ele>763.27</ele>
        <time>2026-08-21T10:05:59.738Z</time>
      </trkpt>
      <trkpt lat="45.03861" lon="2.38847">
        <ele>762.74</ele>
        <time>2026-08-21T10:06:01.136Z</time>
      </trkpt>
      <trkpt lat="45.03864" lon="2.38839">
        <ele>762.17</ele>
        <time>2026-08-21T10:06:01.740Z</time>
      </trkpt>
      <trkpt lat="45.03869" lon="2.38831">
        <ele>761.42</ele>
        <time>2026-08-21T10:06:03.141Z</time>
      </trkpt>
      <trkpt lat="45.03875" lon="2.38824">
        <ele>760.89</ele>
        <time>2026-08-21T10:06:03.752Z</time>
      </trkpt>
      <trkpt lat="45.0388" lon="2.38816">
        <ele>759.96</ele>
        <time>2026-08-21T10:06:04.743Z</time>
      </trkpt>
      <trkpt lat="45.03886" lon="2.38809">
        <ele>759.41</ele>
        <time>2026-08-21T10:06:05.730Z</time>
      </trkpt>
      <trkpt lat="45.03887" lon="2.38802">
        <ele>758.85</ele>
        <time>2026-08-21T10:06:06.752Z</time>
      </trkpt>
      <trkpt lat="45.03887" lon="2.38795">
        <ele>758.36</ele>
        <time>2026-08-21T10:06:07.739Z</time>
      </trkpt>
      <trkpt lat="45.03885" lon="2.3879">
        <ele>757.79</ele>
        <time>2026-08-21T10:06:08.769Z</time>
      </trkpt>
      <trkpt lat="45.03882" lon="2.38787">
        <ele>757.46</ele>
        <time>2026-08-21T10:06:09.749Z</time>
      </trkpt>
      <trkpt lat="45.03878" lon="2.38785">
        <ele>757.12</ele>
        <time>2026-08-21T10:06:11.159Z</time>
      </trkpt>
      <trkpt lat="45.03874" lon="2.38783">
        <ele>756.27</ele>
        <time>2026-08-21T10:06:11.733Z</time>
      </trkpt>
      <trkpt lat="45.0387" lon="2.38782">
        <ele>755.94</ele>
        <time>2026-08-21T10:06:12.719Z</time>
      </trkpt>
      <trkpt lat="45.03866" lon="2.3878">
        <ele>754.86</ele>
        <time>2026-08-21T10:06:13.741Z</time>
      </trkpt>
      <trkpt lat="45.0386" lon="2.38779">
        <ele>754.08</ele>
        <time>2026-08-21T10:06:14.731Z</time>
      </trkpt>
      <trkpt lat="45.03854" lon="2.38778">
        <ele>753.35</ele>
        <time>2026-08-21T10:06:15.750Z</time>
      </trkpt>
      <trkpt lat="45.03847" lon="2.38777">
        <ele>752.45</ele>
        <time>2026-08-21T10:06:16.738Z</time>
      </trkpt>
      <trkpt lat="45.03839" lon="2.38775">
        <ele>751.9</ele>
        <time>2026-08-21T10:06:17.731Z</time>
      </trkpt>
      <trkpt lat="45.03832" lon="2.38772">
        <ele>750.79</ele>
        <time>2026-08-21T10:06:18.748Z</time>
      </trkpt>
      <trkpt lat="45.03824" lon="2.3877">
        <ele>749.83</ele>
        <time>2026-08-21T10:06:19.744Z</time>
      </trkpt>
      <trkpt lat="45.03816" lon="2.38769">
        <ele>749.22</ele>
        <time>2026-08-21T10:06:20.765Z</time>
      </trkpt>
      <trkpt lat="45.03808" lon="2.38767">
        <ele>748.2</ele>
        <time>2026-08-21T10:06:21.748Z</time>
      </trkpt>
      <trkpt lat="45.038" lon="2.38765">
        <ele>746.83</ele>
        <time>2026-08-21T10:06:22.769Z</time>
      </trkpt>
      <trkpt lat="45.03793" lon="2.38763">
        <ele>746.2</ele>
        <time>2026-08-21T10:06:23.728Z</time>
      </trkpt>
      <trkpt lat="45.03787" lon="2.38761">
        <ele>746.18</ele>
        <time>2026-08-21T10:06:24.749Z</time>
      </trkpt>
      <trkpt lat="45.03781" lon="2.38759">
        <ele>745.5</ele>
        <time>2026-08-21T10:06:25.740Z</time>
      </trkpt>
      <trkpt lat="45.03775" lon="2.38756">
        <ele>744.68</ele>
        <time>2026-08-21T10:06:26.760Z</time>
      </trkpt>
      <trkpt lat="45.03769" lon="2.38753">
        <ele>744.22</ele>
        <time>2026-08-21T10:06:27.752Z</time>
      </trkpt>
      <trkpt lat="45.03764" lon="2.38749">
        <ele>743.9</ele>
        <time>2026-08-21T10:06:28.777Z</time>
      </trkpt>
      <trkpt lat="45.0376" lon="2.38745">
        <ele>743.48</ele>
        <time>2026-08-21T10:06:29.737Z</time>
      </trkpt>
      <trkpt lat="45.03757" lon="2.38741">
        <ele>742.82</ele>
        <time>2026-08-21T10:06:30.750Z</time>
      </trkpt>
      <trkpt lat="45.03756" lon="2.38737">
        <ele>742.41</ele>
        <time>2026-08-21T10:06:32.097Z</time>
      </trkpt>
      <trkpt lat="45.03756" lon="2.38733">
        <ele>742</ele>
        <time>2026-08-21T10:06:33.099Z</time>
      </trkpt>
      <trkpt lat="45.03756" lon="2.3873">
        <ele>741.64</ele>
        <time>2026-08-21T10:06:34.100Z</time>
      </trkpt>
      <trkpt lat="45.03758" lon="2.38728">
        <ele>741.28</ele>
        <time>2026-08-21T10:06:35.102Z</time>
      </trkpt>
      <trkpt lat="45.03759" lon="2.38727">
        <ele>740.97</ele>
        <time>2026-08-21T10:06:36.105Z</time>
      </trkpt>
      <trkpt lat="45.03761" lon="2.38728">
        <ele>740.36</ele>
        <time>2026-08-21T10:06:38.108Z</time>
      </trkpt>
      <trkpt lat="45.03762" lon="2.38728">
        <ele>740.08</ele>
        <time>2026-08-21T10:06:39.111Z</time>
      </trkpt>
      <trkpt lat="45.03764" lon="2.38726">
        <ele>739.35</ele>
        <time>2026-08-21T10:07:06.101Z</time>
      </trkpt>
      <trkpt lat="45.03762" lon="2.38725">
        <ele>739.35</ele>
        <time>2026-08-21T10:07:09.077Z</time>
      </trkpt>
      <trkpt lat="45.03758" lon="2.38725">
        <ele>739.35</ele>
        <time>2026-08-21T10:07:11.088Z</time>
      </trkpt>
      <trkpt lat="45.03754" lon="2.38725">
        <ele>739.35</ele>
        <time>2026-08-21T10:07:13.076Z</time>
      </trkpt>
      <trkpt lat="45.03752" lon="2.38724">
        <ele>736.42</ele>
        <time>2026-08-21T10:07:14.059Z</time>
      </trkpt>
      <trkpt lat="45.03749" lon="2.38723">
        <ele>736.36</ele>
        <time>2026-08-21T10:07:15.067Z</time>
      </trkpt>
      <trkpt lat="45.03747" lon="2.38722">
        <ele>736.28</ele>
        <time>2026-08-21T10:07:16.062Z</time>
      </trkpt>
      <trkpt lat="45.03745" lon="2.38721">
        <ele>736.2</ele>
        <time>2026-08-21T10:07:17.059Z</time>
      </trkpt>
      <trkpt lat="45.03744" lon="2.3872">
        <ele>736.14</ele>
        <time>2026-08-21T10:07:18.063Z</time>
      </trkpt>
      <trkpt lat="45.03742" lon="2.38719">
        <ele>736.08</ele>
        <time>2026-08-21T10:07:19.064Z</time>
      </trkpt>
      <trkpt lat="45.03741" lon="2.38718">
        <ele>736.01</ele>
        <time>2026-08-21T10:07:20.069Z</time>
      </trkpt>
      <trkpt lat="45.03739" lon="2.38716">
        <ele>735.95</ele>
        <time>2026-08-21T10:07:21.068Z</time>
      </trkpt>
      <trkpt lat="45.03737" lon="2.38715">
        <ele>735.88</ele>
        <time>2026-08-21T10:07:22.072Z</time>
      </trkpt>
      <trkpt lat="45.03735" lon="2.38713">
        <ele>735.82</ele>
        <time>2026-08-21T10:07:23.046Z</time>
      </trkpt>
      <trkpt lat="45.03733" lon="2.38711">
        <ele>735.76</ele>
        <time>2026-08-21T10:07:24.072Z</time>
      </trkpt>
      <trkpt lat="45.03731" lon="2.38709">
        <ele>735.7</ele>
        <time>2026-08-21T10:07:25.075Z</time>
      </trkpt>
      <trkpt lat="45.03729" lon="2.38706">
        <ele>735.65</ele>
        <time>2026-08-21T10:07:26.077Z</time>
      </trkpt>
      <trkpt lat="45.03727" lon="2.38704">
        <ele>735.58</ele>
        <time>2026-08-21T10:07:26.710Z</time>
      </trkpt>
      <trkpt lat="45.03725" lon="2.38702">
        <ele>735.52</ele>
        <time>2026-08-21T10:07:28.079Z</time>
      </trkpt>
      <trkpt lat="45.03722" lon="2.38699">
        <ele>735.45</ele>
        <time>2026-08-21T10:07:29.084Z</time>
      </trkpt>
      <trkpt lat="45.0372" lon="2.38696">
        <ele>735.41</ele>
        <time>2026-08-21T10:07:30.084Z</time>
      </trkpt>
      <trkpt lat="45.03717" lon="2.38694">
        <ele>735.34</ele>
        <time>2026-08-21T10:07:31.085Z</time>
      </trkpt>
      <trkpt lat="45.03715" lon="2.38691">
        <ele>735.28</ele>
        <time>2026-08-21T10:07:32.089Z</time>
      </trkpt>
      <trkpt lat="45.03713" lon="2.38689">
        <ele>735.21</ele>
        <time>2026-08-21T10:07:33.091Z</time>
      </trkpt>
      <trkpt lat="45.03711" lon="2.38686">
        <ele>735.14</ele>
        <time>2026-08-21T10:07:34.095Z</time>
      </trkpt>
      <trkpt lat="45.03708" lon="2.38683">
        <ele>735.08</ele>
        <time>2026-08-21T10:07:34.771Z</time>
      </trkpt>
      <trkpt lat="45.03706" lon="2.3868">
        <ele>735.03</ele>
        <time>2026-08-21T10:07:36.062Z</time>
      </trkpt>
      <trkpt lat="45.03703" lon="2.38677">
        <ele>734.97</ele>
        <time>2026-08-21T10:07:37.098Z</time>
      </trkpt>
      <trkpt lat="45.03701" lon="2.38673">
        <ele>734.9</ele>
        <time>2026-08-21T10:07:38.101Z</time>
      </trkpt>
      <trkpt lat="45.03698" lon="2.3867">
        <ele>734.84</ele>
        <time>2026-08-21T10:07:39.102Z</time>
      </trkpt>
      <trkpt lat="45.03695" lon="2.38667">
        <ele>734.77</ele>
        <time>2026-08-21T10:07:40.105Z</time>
      </trkpt>
      <trkpt lat="45.03692" lon="2.38664">
        <ele>734.72</ele>
        <time>2026-08-21T10:07:41.106Z</time>
      </trkpt>
      <trkpt lat="45.03689" lon="2.38662">
        <ele>734.65</ele>
        <time>2026-08-21T10:07:42.108Z</time>
      </trkpt>
      <trkpt lat="45.03686" lon="2.38659">
        <ele>734.6</ele>
        <time>2026-08-21T10:07:43.109Z</time>
      </trkpt>
      <trkpt lat="45.03682" lon="2.38657">
        <ele>734.54</ele>
        <time>2026-08-21T10:07:44.112Z</time>
      </trkpt>
      <trkpt lat="45.03679" lon="2.38655">
        <ele>734.47</ele>
        <time>2026-08-21T10:07:45.120Z</time>
      </trkpt>
      <trkpt lat="45.03675" lon="2.38653">
        <ele>734.41</ele>
        <time>2026-08-21T10:07:45.675Z</time>
      </trkpt>
      <trkpt lat="45.03672" lon="2.3865">
        <ele>734.35</ele>
        <time>2026-08-21T10:07:46.664Z</time>
      </trkpt>
      <trkpt lat="45.03668" lon="2.38648">
        <ele>734.29</ele>
        <time>2026-08-21T10:07:47.650Z</time>
      </trkpt>
      <trkpt lat="45.03664" lon="2.38647">
        <ele>734.22</ele>
        <time>2026-08-21T10:07:48.668Z</time>
      </trkpt>
      <trkpt lat="45.03661" lon="2.38646">
        <ele>734.15</ele>
        <time>2026-08-21T10:07:49.654Z</time>
      </trkpt>
      <trkpt lat="45.03658" lon="2.38645">
        <ele>734.09</ele>
        <time>2026-08-21T10:07:50.687Z</time>
      </trkpt>
      <trkpt lat="45.03654" lon="2.38644">
        <ele>734.03</ele>
        <time>2026-08-21T10:07:51.660Z</time>
      </trkpt>
      <trkpt lat="45.0365" lon="2.38644">
        <ele>733.97</ele>
        <time>2026-08-21T10:07:52.702Z</time>
      </trkpt>
      <trkpt lat="45.03647" lon="2.38644">
        <ele>733.91</ele>
        <time>2026-08-21T10:07:54.133Z</time>
      </trkpt>
      <trkpt lat="45.03644" lon="2.38644">
        <ele>733.86</ele>
        <time>2026-08-21T10:07:55.135Z</time>
      </trkpt>
      <trkpt lat="45.0364" lon="2.38644">
        <ele>733.81</ele>
        <time>2026-08-21T10:07:56.040Z</time>
      </trkpt>
      <trkpt lat="45.03636" lon="2.38643">
        <ele>733.74</ele>
        <time>2026-08-21T10:07:57.042Z</time>
      </trkpt>
      <trkpt lat="45.03632" lon="2.38641">
        <ele>733.68</ele>
        <time>2026-08-21T10:07:58.041Z</time>
      </trkpt>
      <trkpt lat="45.03629" lon="2.38639">
        <ele>733.62</ele>
        <time>2026-08-21T10:07:59.043Z</time>
      </trkpt>
      <trkpt lat="45.03626" lon="2.38637">
        <ele>733.53</ele>
        <time>2026-08-21T10:08:00.047Z</time>
      </trkpt>
      <trkpt lat="45.03622" lon="2.38634">
        <ele>733.46</ele>
        <time>2026-08-21T10:08:01.048Z</time>
      </trkpt>
      <trkpt lat="45.03619" lon="2.3863">
        <ele>733.38</ele>
        <time>2026-08-21T10:08:02.051Z</time>
      </trkpt>
      <trkpt lat="45.03615" lon="2.38626">
        <ele>733.32</ele>
        <time>2026-08-21T10:08:03.053Z</time>
      </trkpt>
      <trkpt lat="45.03611" lon="2.38622">
        <ele>733.24</ele>
        <time>2026-08-21T10:08:04.056Z</time>
      </trkpt>
      <trkpt lat="45.03608" lon="2.38619">
        <ele>733.17</ele>
        <time>2026-08-21T10:08:05.058Z</time>
      </trkpt>
      <trkpt lat="45.03604" lon="2.38615">
        <ele>733.1</ele>
        <time>2026-08-21T10:08:06.061Z</time>
      </trkpt>
      <trkpt lat="45.036" lon="2.38611">
        <ele>732.99</ele>
        <time>2026-08-21T10:08:07.063Z</time>
      </trkpt>
      <trkpt lat="45.03597" lon="2.38606">
        <ele>732.9</ele>
        <time>2026-08-21T10:08:08.066Z</time>
      </trkpt>
      <trkpt lat="45.03593" lon="2.38601">
        <ele>732.81</ele>
        <time>2026-08-21T10:08:09.068Z</time>
      </trkpt>
      <trkpt lat="45.03589" lon="2.38595">
        <ele>732.72</ele>
        <time>2026-08-21T10:08:10.070Z</time>
      </trkpt>
      <trkpt lat="45.03584" lon="2.3859">
        <ele>732.66</ele>
        <time>2026-08-21T10:08:11.072Z</time>
      </trkpt>
      <trkpt lat="45.0358" lon="2.38585">
        <ele>732.31</ele>
        <time>2026-08-21T10:08:12.081Z</time>
      </trkpt>
      <trkpt lat="45.03576" lon="2.38581">
        <ele>732.19</ele>
        <time>2026-08-21T10:08:13.078Z</time>
      </trkpt>
      <trkpt lat="45.03572" lon="2.38576">
        <ele>732.09</ele>
        <time>2026-08-21T10:08:14.078Z</time>
      </trkpt>
      <trkpt lat="45.03567" lon="2.3857">
        <ele>732.07</ele>
        <time>2026-08-21T10:08:15.081Z</time>
      </trkpt>
      <trkpt lat="45.03562" lon="2.38565">
        <ele>731.78</ele>
        <time>2026-08-21T10:08:16.081Z</time>
      </trkpt>
      <trkpt lat="45.03558" lon="2.38559">
        <ele>731.61</ele>
        <time>2026-08-21T10:08:17.084Z</time>
      </trkpt>
      <trkpt lat="45.03552" lon="2.38552">
        <ele>731.47</ele>
        <time>2026-08-21T10:08:18.085Z</time>
      </trkpt>
      <trkpt lat="45.03547" lon="2.38545">
        <ele>731.3</ele>
        <time>2026-08-21T10:08:19.087Z</time>
      </trkpt>
      <trkpt lat="45.03542" lon="2.38538">
        <ele>731.07</ele>
        <time>2026-08-21T10:08:20.089Z</time>
      </trkpt>
      <trkpt lat="45.03537" lon="2.38531">
        <ele>730.89</ele>
        <time>2026-08-21T10:08:21.092Z</time>
      </trkpt>
      <trkpt lat="45.03532" lon="2.38525">
        <ele>730.67</ele>
        <time>2026-08-21T10:08:22.095Z</time>
      </trkpt>
      <trkpt lat="45.03526" lon="2.38519">
        <ele>730.47</ele>
        <time>2026-08-21T10:08:23.096Z</time>
      </trkpt>
      <trkpt lat="45.03521" lon="2.38513">
        <ele>730.29</ele>
        <time>2026-08-21T10:08:24.098Z</time>
      </trkpt>
      <trkpt lat="45.03516" lon="2.38507">
        <ele>730.09</ele>
        <time>2026-08-21T10:08:25.101Z</time>
      </trkpt>
      <trkpt lat="45.03512" lon="2.385">
        <ele>729.93</ele>
        <time>2026-08-21T10:08:26.104Z</time>
      </trkpt>
      <trkpt lat="45.03508" lon="2.38493">
        <ele>729.72</ele>
        <time>2026-08-21T10:08:26.735Z</time>
      </trkpt>
      <trkpt lat="45.03505" lon="2.38487">
        <ele>729.51</ele>
        <time>2026-08-21T10:08:28.107Z</time>
      </trkpt>
      <trkpt lat="45.03502" lon="2.3848">
        <ele>729.27</ele>
        <time>2026-08-21T10:08:28.715Z</time>
      </trkpt>
      <trkpt lat="45.03499" lon="2.38473">
        <ele>729.03</ele>
        <time>2026-08-21T10:08:30.114Z</time>
      </trkpt>
      <trkpt lat="45.03497" lon="2.38466">
        <ele>728.83</ele>
        <time>2026-08-21T10:08:31.116Z</time>
      </trkpt>
      <trkpt lat="45.03494" lon="2.38459">
        <ele>728.62</ele>
        <time>2026-08-21T10:08:32.117Z</time>
      </trkpt>
      <trkpt lat="45.03491" lon="2.38452">
        <ele>728.39</ele>
        <time>2026-08-21T10:08:33.121Z</time>
      </trkpt>
      <trkpt lat="45.03489" lon="2.38446">
        <ele>728.16</ele>
        <time>2026-08-21T10:08:34.123Z</time>
      </trkpt>
      <trkpt lat="45.03486" lon="2.38437">
        <ele>727.97</ele>
        <time>2026-08-21T10:08:35.124Z</time>
      </trkpt>
      <trkpt lat="45.03484" lon="2.3843">
        <ele>727.77</ele>
        <time>2026-08-21T10:08:36.131Z</time>
      </trkpt>
      <trkpt lat="45.03482" lon="2.38424">
        <ele>727.57</ele>
        <time>2026-08-21T10:08:37.129Z</time>
      </trkpt>
      <trkpt lat="45.03481" lon="2.38418">
        <ele>727.37</ele>
        <time>2026-08-21T10:08:38.131Z</time>
      </trkpt>
      <trkpt lat="45.03479" lon="2.38412">
        <ele>727.19</ele>
        <time>2026-08-21T10:08:38.728Z</time>
      </trkpt>
      <trkpt lat="45.03478" lon="2.38406">
        <ele>727.02</ele>
        <time>2026-08-21T10:08:40.137Z</time>
      </trkpt>
      <trkpt lat="45.03477" lon="2.384">
        <ele>726.84</ele>
        <time>2026-08-21T10:08:41.140Z</time>
      </trkpt>
      <trkpt lat="45.03477" lon="2.38393">
        <ele>726.68</ele>
        <time>2026-08-21T10:08:42.146Z</time>
      </trkpt>
      <trkpt lat="45.03476" lon="2.38387">
        <ele>726.52</ele>
        <time>2026-08-21T10:08:42.985Z</time>
      </trkpt>
      <trkpt lat="45.03476" lon="2.38381">
        <ele>726.35</ele>
        <time>2026-08-21T10:08:44.146Z</time>
      </trkpt>
      <trkpt lat="45.03476" lon="2.38376">
        <ele>726.22</ele>
        <time>2026-08-21T10:08:44.773Z</time>
      </trkpt>
      <trkpt lat="45.03475" lon="2.3837">
        <ele>726.04</ele>
        <time>2026-08-21T10:08:45.988Z</time>
      </trkpt>
      <trkpt lat="45.03474" lon="2.38365">
        <ele>725.9</ele>
        <time>2026-08-21T10:08:46.747Z</time>
      </trkpt>
      <trkpt lat="45.03473" lon="2.3836">
        <ele>725.8</ele>
        <time>2026-08-21T10:08:47.773Z</time>
      </trkpt>
      <trkpt lat="45.03471" lon="2.38355">
        <ele>725.66</ele>
        <time>2026-08-21T10:08:48.770Z</time>
      </trkpt>
      <trkpt lat="45.0347" lon="2.3835">
        <ele>725.56</ele>
        <time>2026-08-21T10:08:50.102Z</time>
      </trkpt>
      <trkpt lat="45.03468" lon="2.38345">
        <ele>725.47</ele>
        <time>2026-08-21T10:08:50.767Z</time>
      </trkpt>
      <trkpt lat="45.03467" lon="2.3834">
        <ele>725.42</ele>
        <time>2026-08-21T10:08:52.164Z</time>
      </trkpt>
      <trkpt lat="45.03465" lon="2.38335">
        <ele>725.38</ele>
        <time>2026-08-21T10:08:52.776Z</time>
      </trkpt>
      <trkpt lat="45.03464" lon="2.38331">
        <ele>725.31</ele>
        <time>2026-08-21T10:08:53.744Z</time>
      </trkpt>
      <trkpt lat="45.03462" lon="2.38326">
        <ele>725.26</ele>
        <time>2026-08-21T10:08:54.765Z</time>
      </trkpt>
      <trkpt lat="45.03461" lon="2.38321">
        <ele>725.2</ele>
        <time>2026-08-21T10:08:55.757Z</time>
      </trkpt>
      <trkpt lat="45.03459" lon="2.38316">
        <ele>725.13</ele>
        <time>2026-08-21T10:08:56.762Z</time>
      </trkpt>
      <trkpt lat="45.03457" lon="2.38311">
        <ele>725.05</ele>
        <time>2026-08-21T10:08:57.749Z</time>
      </trkpt>
      <trkpt lat="45.03455" lon="2.38306">
        <ele>724.95</ele>
        <time>2026-08-21T10:08:58.778Z</time>
      </trkpt>
      <trkpt lat="45.03454" lon="2.38301">
        <ele>724.87</ele>
        <time>2026-08-21T10:08:59.758Z</time>
      </trkpt>
      <trkpt lat="45.03452" lon="2.38296">
        <ele>724.8</ele>
        <time>2026-08-21T10:09:00.759Z</time>
      </trkpt>
      <trkpt lat="45.0345" lon="2.38291">
        <ele>724.75</ele>
        <time>2026-08-21T10:09:02.090Z</time>
      </trkpt>
      <trkpt lat="45.03448" lon="2.38287">
        <ele>724.69</ele>
        <time>2026-08-21T10:09:03.093Z</time>
      </trkpt>
      <trkpt lat="45.03446" lon="2.38282">
        <ele>724.67</ele>
        <time>2026-08-21T10:09:04.096Z</time>
      </trkpt>
      <trkpt lat="45.03444" lon="2.38277">
        <ele>724.58</ele>
        <time>2026-08-21T10:09:05.098Z</time>
      </trkpt>
      <trkpt lat="45.03442" lon="2.38272">
        <ele>724.55</ele>
        <time>2026-08-21T10:09:06.100Z</time>
      </trkpt>
      <trkpt lat="45.0344" lon="2.38266">
        <ele>724.5</ele>
        <time>2026-08-21T10:09:07.103Z</time>
      </trkpt>
      <trkpt lat="45.03438" lon="2.38261">
        <ele>724.49</ele>
        <time>2026-08-21T10:09:08.106Z</time>
      </trkpt>
      <trkpt lat="45.03436" lon="2.38254">
        <ele>724.43</ele>
        <time>2026-08-21T10:09:09.107Z</time>
      </trkpt>
      <trkpt lat="45.03434" lon="2.38249">
        <ele>724.41</ele>
        <time>2026-08-21T10:09:10.155Z</time>
      </trkpt>
      <trkpt lat="45.03431" lon="2.38244">
        <ele>724.37</ele>
        <time>2026-08-21T10:09:11.112Z</time>
      </trkpt>
      <trkpt lat="45.03429" lon="2.38238">
        <ele>724.37</ele>
        <time>2026-08-21T10:09:12.114Z</time>
      </trkpt>
      <trkpt lat="45.03427" lon="2.38232">
        <ele>724.29</ele>
        <time>2026-08-21T10:09:13.119Z</time>
      </trkpt>
      <trkpt lat="45.03425" lon="2.38226">
        <ele>724.24</ele>
        <time>2026-08-21T10:09:14.119Z</time>
      </trkpt>
      <trkpt lat="45.03423" lon="2.3822">
        <ele>724.1</ele>
        <time>2026-08-21T10:09:15.122Z</time>
      </trkpt>
      <trkpt lat="45.03421" lon="2.38214">
        <ele>723.96</ele>
        <time>2026-08-21T10:09:16.129Z</time>
      </trkpt>
      <trkpt lat="45.03419" lon="2.38208">
        <ele>723.91</ele>
        <time>2026-08-21T10:09:17.127Z</time>
      </trkpt>
      <trkpt lat="45.03416" lon="2.38201">
        <ele>723.87</ele>
        <time>2026-08-21T10:09:18.129Z</time>
      </trkpt>
      <trkpt lat="45.03415" lon="2.38195">
        <ele>723.85</ele>
        <time>2026-08-21T10:09:19.131Z</time>
      </trkpt>
      <trkpt lat="45.03413" lon="2.38188">
        <ele>723.78</ele>
        <time>2026-08-21T10:09:20.134Z</time>
      </trkpt>
      <trkpt lat="45.03412" lon="2.38182">
        <ele>723.75</ele>
        <time>2026-08-21T10:09:21.136Z</time>
      </trkpt>
      <trkpt lat="45.0341" lon="2.38176">
        <ele>723.68</ele>
        <time>2026-08-21T10:09:22.139Z</time>
      </trkpt>
      <trkpt lat="45.03407" lon="2.3817">
        <ele>723.55</ele>
        <time>2026-08-21T10:09:23.140Z</time>
      </trkpt>
      <trkpt lat="45.03403" lon="2.38166">
        <ele>723.48</ele>
        <time>2026-08-21T10:09:24.142Z</time>
      </trkpt>
      <trkpt lat="45.03399" lon="2.38164">
        <ele>723.34</ele>
        <time>2026-08-21T10:09:25.146Z</time>
      </trkpt>
      <trkpt lat="45.03396" lon="2.38163">
        <ele>723.3</ele>
        <time>2026-08-21T10:09:25.775Z</time>
      </trkpt>
      <trkpt lat="45.03392" lon="2.38163">
        <ele>723.3</ele>
        <time>2026-08-21T10:09:27.149Z</time>
      </trkpt>
      <trkpt lat="45.03389" lon="2.38164">
        <ele>723.2</ele>
        <time>2026-08-21T10:09:27.752Z</time>
      </trkpt>
      <trkpt lat="45.03386" lon="2.38165">
        <ele>723.18</ele>
        <time>2026-08-21T10:09:29.153Z</time>
      </trkpt>
      <trkpt lat="45.03383" lon="2.38167">
        <ele>723.23</ele>
        <time>2026-08-21T10:09:29.738Z</time>
      </trkpt>
      <trkpt lat="45.03379" lon="2.3817">
        <ele>723.18</ele>
        <time>2026-08-21T10:09:30.765Z</time>
      </trkpt>
      <trkpt lat="45.03376" lon="2.38172">
        <ele>723.11</ele>
        <time>2026-08-21T10:09:32.159Z</time>
      </trkpt>
      <trkpt lat="45.03372" lon="2.38175">
        <ele>723.01</ele>
        <time>2026-08-21T10:09:32.768Z</time>
      </trkpt>
      <trkpt lat="45.03369" lon="2.38178">
        <ele>722.87</ele>
        <time>2026-08-21T10:09:33.764Z</time>
      </trkpt>
      <trkpt lat="45.03363" lon="2.38182">
        <ele>722.69</ele>
        <time>2026-08-21T10:09:34.742Z</time>
      </trkpt>
      <trkpt lat="45.03358" lon="2.38187">
        <ele>722.59</ele>
        <time>2026-08-21T10:09:35.764Z</time>
      </trkpt>
      <trkpt lat="45.03352" lon="2.38191">
        <ele>722.27</ele>
        <time>2026-08-21T10:09:37.170Z</time>
      </trkpt>
      <trkpt lat="45.03346" lon="2.38196">
        <ele>722.24</ele>
        <time>2026-08-21T10:09:37.779Z</time>
      </trkpt>
      <trkpt lat="45.03341" lon="2.38201">
        <ele>721.77</ele>
        <time>2026-08-21T10:09:38.766Z</time>
      </trkpt>
      <trkpt lat="45.03334" lon="2.38206">
        <ele>721.67</ele>
        <time>2026-08-21T10:09:39.754Z</time>
      </trkpt>
      <trkpt lat="45.03328" lon="2.38211">
        <ele>721.45</ele>
        <time>2026-08-21T10:09:40.739Z</time>
      </trkpt>
      <trkpt lat="45.03322" lon="2.38214">
        <ele>721.27</ele>
        <time>2026-08-21T10:09:41.781Z</time>
      </trkpt>
      <trkpt lat="45.03315" lon="2.38218">
        <ele>721.2</ele>
        <time>2026-08-21T10:09:42.751Z</time>
      </trkpt>
      <trkpt lat="45.03307" lon="2.38221">
        <ele>720.81</ele>
        <time>2026-08-21T10:09:43.813Z</time>
      </trkpt>
      <trkpt lat="45.03301" lon="2.38223">
        <ele>720.54</ele>
        <time>2026-08-21T10:09:44.768Z</time>
      </trkpt>
      <trkpt lat="45.03293" lon="2.38224">
        <ele>719.9</ele>
        <time>2026-08-21T10:09:46.234Z</time>
      </trkpt>
      <trkpt lat="45.03285" lon="2.38224">
        <ele>719.79</ele>
        <time>2026-08-21T10:09:47.192Z</time>
      </trkpt>
      <trkpt lat="45.03277" lon="2.38224">
        <ele>719.21</ele>
        <time>2026-08-21T10:09:47.732Z</time>
      </trkpt>
      <trkpt lat="45.03268" lon="2.38224">
        <ele>718.52</ele>
        <time>2026-08-21T10:09:48.757Z</time>
      </trkpt>
      <trkpt lat="45.0326" lon="2.38224">
        <ele>718.57</ele>
        <time>2026-08-21T10:09:49.774Z</time>
      </trkpt>
      <trkpt lat="45.03251" lon="2.38226">
        <ele>718.26</ele>
        <time>2026-08-21T10:09:50.763Z</time>
      </trkpt>
      <trkpt lat="45.03244" lon="2.38227">
        <ele>717.58</ele>
        <time>2026-08-21T10:09:52.228Z</time>
      </trkpt>
      <trkpt lat="45.03236" lon="2.38229">
        <ele>717.11</ele>
        <time>2026-08-21T10:09:53.195Z</time>
      </trkpt>
      <trkpt lat="45.03228" lon="2.38231">
        <ele>717.01</ele>
        <time>2026-08-21T10:09:54.239Z</time>
      </trkpt>
      <trkpt lat="45.03221" lon="2.38233">
        <ele>716.7</ele>
        <time>2026-08-21T10:09:55.201Z</time>
      </trkpt>
      <trkpt lat="45.03214" lon="2.38235">
        <ele>716.66</ele>
        <time>2026-08-21T10:09:55.741Z</time>
      </trkpt>
      <trkpt lat="45.03207" lon="2.38237">
        <ele>716.61</ele>
        <time>2026-08-21T10:09:57.244Z</time>
      </trkpt>
      <trkpt lat="45.03201" lon="2.38237">
        <ele>716.45</ele>
        <time>2026-08-21T10:09:58.205Z</time>
      </trkpt>
      <trkpt lat="45.03195" lon="2.38237">
        <ele>716.36</ele>
        <time>2026-08-21T10:09:59.207Z</time>
      </trkpt>
      <trkpt lat="45.03188" lon="2.38237">
        <ele>716.08</ele>
        <time>2026-08-21T10:10:00.241Z</time>
      </trkpt>
      <trkpt lat="45.03182" lon="2.38238">
        <ele>715.53</ele>
        <time>2026-08-21T10:10:01.214Z</time>
      </trkpt>
      <trkpt lat="45.03176" lon="2.38239">
        <ele>715.17</ele>
        <time>2026-08-21T10:10:02.248Z</time>
      </trkpt>
      <trkpt lat="45.03171" lon="2.38241">
        <ele>714.82</ele>
        <time>2026-08-21T10:10:03.213Z</time>
      </trkpt>
      <trkpt lat="45.03167" lon="2.38243">
        <ele>714.59</ele>
        <time>2026-08-21T10:10:04.217Z</time>
      </trkpt>
      <trkpt lat="45.03164" lon="2.38245">
        <ele>714.11</ele>
        <time>2026-08-21T10:10:05.223Z</time>
      </trkpt>
      <trkpt lat="45.03161" lon="2.38247">
        <ele>713.66</ele>
        <time>2026-08-21T10:10:06.092Z</time>
      </trkpt>
      <trkpt lat="45.03159" lon="2.38251">
        <ele>713.32</ele>
        <time>2026-08-21T10:10:07.223Z</time>
      </trkpt>
      <trkpt lat="45.03156" lon="2.38255">
        <ele>712.95</ele>
        <time>2026-08-21T10:10:08.226Z</time>
      </trkpt>
      <trkpt lat="45.03153" lon="2.38261">
        <ele>712.64</ele>
        <time>2026-08-21T10:10:09.226Z</time>
      </trkpt>
      <trkpt lat="45.03149" lon="2.38267">
        <ele>712.24</ele>
        <time>2026-08-21T10:10:10.239Z</time>
      </trkpt>
      <trkpt lat="45.03146" lon="2.38273">
        <ele>711.79</ele>
        <time>2026-08-21T10:10:11.227Z</time>
      </trkpt>
      <trkpt lat="45.03142" lon="2.38279">
        <ele>711.54</ele>
        <time>2026-08-21T10:10:12.228Z</time>
      </trkpt>
      <trkpt lat="45.03138" lon="2.38284">
        <ele>711.06</ele>
        <time>2026-08-21T10:10:13.231Z</time>
      </trkpt>
      <trkpt lat="45.03133" lon="2.3829">
        <ele>710.62</ele>
        <time>2026-08-21T10:10:14.248Z</time>
      </trkpt>
      <trkpt lat="45.03128" lon="2.38296">
        <ele>710.31</ele>
        <time>2026-08-21T10:10:15.233Z</time>
      </trkpt>
      <trkpt lat="45.03122" lon="2.38303">
        <ele>710.1</ele>
        <time>2026-08-21T10:10:16.235Z</time>
      </trkpt>
      <trkpt lat="45.03116" lon="2.38308">
        <ele>709.75</ele>
        <time>2026-08-21T10:10:17.236Z</time>
      </trkpt>
      <trkpt lat="45.03109" lon="2.3831">
        <ele>709.44</ele>
        <time>2026-08-21T10:10:18.237Z</time>
      </trkpt>
      <trkpt lat="45.03103" lon="2.38309">
        <ele>708.96</ele>
        <time>2026-08-21T10:10:19.239Z</time>
      </trkpt>
      <trkpt lat="45.03099" lon="2.38304">
        <ele>708.38</ele>
        <time>2026-08-21T10:10:20.241Z</time>
      </trkpt>
      <trkpt lat="45.03095" lon="2.38297">
        <ele>707.61</ele>
        <time>2026-08-21T10:10:21.242Z</time>
      </trkpt>
      <trkpt lat="45.03092" lon="2.38288">
        <ele>707.1</ele>
        <time>2026-08-21T10:10:22.245Z</time>
      </trkpt>
      <trkpt lat="45.03089" lon="2.38278">
        <ele>706.6</ele>
        <time>2026-08-21T10:10:23.252Z</time>
      </trkpt>
      <trkpt lat="45.03087" lon="2.38267">
        <ele>706.12</ele>
        <time>2026-08-21T10:10:24.247Z</time>
      </trkpt>
      <trkpt lat="45.03087" lon="2.38255">
        <ele>705.49</ele>
        <time>2026-08-21T10:10:25.230Z</time>
      </trkpt>
      <trkpt lat="45.03086" lon="2.38242">
        <ele>704.87</ele>
        <time>2026-08-21T10:10:26.251Z</time>
      </trkpt>
      <trkpt lat="45.03086" lon="2.38231">
        <ele>704.27</ele>
        <time>2026-08-21T10:10:27.256Z</time>
      </trkpt>
      <trkpt lat="45.03086" lon="2.38219">
        <ele>703.04</ele>
        <time>2026-08-21T10:10:28.254Z</time>
      </trkpt>
      <trkpt lat="45.03087" lon="2.38207">
        <ele>702</ele>
        <time>2026-08-21T10:10:29.255Z</time>
      </trkpt>
      <trkpt lat="45.03087" lon="2.38196">
        <ele>701.3</ele>
        <time>2026-08-21T10:10:30.257Z</time>
      </trkpt>
      <trkpt lat="45.03087" lon="2.38193">
        <ele>700.55</ele>
        <time>2026-08-21T10:10:31.260Z</time>
      </trkpt>
      <trkpt lat="45.03085" lon="2.38181">
        <ele>700.55</ele>
        <time>2026-08-21T10:10:32.259Z</time>
      </trkpt>
      <trkpt lat="45.0308" lon="2.38167">
        <ele>698.85</ele>
        <time>2026-08-21T10:10:33.260Z</time>
      </trkpt>
      <trkpt lat="45.03076" lon="2.38161">
        <ele>697.93</ele>
        <time>2026-08-21T10:10:34.261Z</time>
      </trkpt>
      <trkpt lat="45.0307" lon="2.38158">
        <ele>696.86</ele>
        <time>2026-08-21T10:10:35.263Z</time>
      </trkpt>
      <trkpt lat="45.03064" lon="2.38158">
        <ele>695.96</ele>
        <time>2026-08-21T10:10:36.263Z</time>
      </trkpt>
      <trkpt lat="45.03057" lon="2.3816">
        <ele>695.06</ele>
        <time>2026-08-21T10:10:37.265Z</time>
      </trkpt>
      <trkpt lat="45.03051" lon="2.38162">
        <ele>694.19</ele>
        <time>2026-08-21T10:10:38.266Z</time>
      </trkpt>
      <trkpt lat="45.03043" lon="2.38167">
        <ele>693.6</ele>
        <time>2026-08-21T10:10:39.266Z</time>
      </trkpt>
      <trkpt lat="45.03037" lon="2.38174">
        <ele>692.28</ele>
        <time>2026-08-21T10:10:40.266Z</time>
      </trkpt>
      <trkpt lat="45.0303" lon="2.38183">
        <ele>691.39</ele>
        <time>2026-08-21T10:10:41.268Z</time>
      </trkpt>
      <trkpt lat="45.03025" lon="2.38192">
        <ele>690.02</ele>
        <time>2026-08-21T10:10:42.270Z</time>
      </trkpt>
      <trkpt lat="45.03021" lon="2.38202">
        <ele>689.27</ele>
        <time>2026-08-21T10:10:43.261Z</time>
      </trkpt>
      <trkpt lat="45.03016" lon="2.38211">
        <ele>688.34</ele>
        <time>2026-08-21T10:10:44.263Z</time>
      </trkpt>
      <trkpt lat="45.03013" lon="2.3822">
        <ele>687.38</ele>
        <time>2026-08-21T10:10:45.264Z</time>
      </trkpt>
      <trkpt lat="45.03008" lon="2.3823">
        <ele>686.46</ele>
        <time>2026-08-21T10:10:46.266Z</time>
      </trkpt>
      <trkpt lat="45.03005" lon="2.3824">
        <ele>685.59</ele>
        <time>2026-08-21T10:10:47.268Z</time>
      </trkpt>
      <trkpt lat="45.03001" lon="2.3825">
        <ele>684.87</ele>
        <time>2026-08-21T10:10:48.268Z</time>
      </trkpt>
      <trkpt lat="45.02998" lon="2.38259">
        <ele>684.63</ele>
        <time>2026-08-21T10:10:49.273Z</time>
      </trkpt>
      <trkpt lat="45.02991" lon="2.38268">
        <ele>682.47</ele>
        <time>2026-08-21T10:10:51.181Z</time>
      </trkpt>
      <trkpt lat="45.02989" lon="2.38267">
        <ele>681.52</ele>
        <time>2026-08-21T10:10:52.201Z</time>
      </trkpt>
      <trkpt lat="45.02987" lon="2.38266">
        <ele>681.52</ele>
        <time>2026-08-21T10:10:53.163Z</time>
      </trkpt>
      <trkpt lat="45.02985" lon="2.38264">
        <ele>681.52</ele>
        <time>2026-08-21T10:10:54.150Z</time>
      </trkpt>
      <trkpt lat="45.02983" lon="2.38263">
        <ele>679.12</ele>
        <time>2026-08-21T10:10:55.171Z</time>
      </trkpt>
      <trkpt lat="45.02981" lon="2.38262">
        <ele>678.33</ele>
        <time>2026-08-21T10:10:56.161Z</time>
      </trkpt>
      <trkpt lat="45.02975" lon="2.38259">
        <ele>678.33</ele>
        <time>2026-08-21T10:10:57.184Z</time>
      </trkpt>
      <trkpt lat="45.02969" lon="2.38255">
        <ele>675.72</ele>
        <time>2026-08-21T10:10:58.170Z</time>
      </trkpt>
      <trkpt lat="45.02966" lon="2.38253">
        <ele>675.18</ele>
        <time>2026-08-21T10:10:59.191Z</time>
      </trkpt>
      <trkpt lat="45.02962" lon="2.3825">
        <ele>674.28</ele>
        <time>2026-08-21T10:11:00.155Z</time>
      </trkpt>
      <trkpt lat="45.02958" lon="2.38245">
        <ele>673.31</ele>
        <time>2026-08-21T10:11:01.171Z</time>
      </trkpt>
      <trkpt lat="45.02955" lon="2.38241">
        <ele>672.1</ele>
        <time>2026-08-21T10:11:02.164Z</time>
      </trkpt>
      <trkpt lat="45.02952" lon="2.38235">
        <ele>670.77</ele>
        <time>2026-08-21T10:11:03.182Z</time>
      </trkpt>
      <trkpt lat="45.02949" lon="2.3823">
        <ele>669.98</ele>
        <time>2026-08-21T10:11:04.173Z</time>
      </trkpt>
      <trkpt lat="45.02946" lon="2.38224">
        <ele>669.04</ele>
        <time>2026-08-21T10:11:05.162Z</time>
      </trkpt>
      <trkpt lat="45.02942" lon="2.3822">
        <ele>668.33</ele>
        <time>2026-08-21T10:11:06.151Z</time>
      </trkpt>
      <trkpt lat="45.02938" lon="2.38217">
        <ele>667.55</ele>
        <time>2026-08-21T10:11:06.364Z</time>
      </trkpt>
      <trkpt lat="45.02922" lon="2.38207">
        <ele>665.31</ele>
        <time>2026-08-21T10:11:13.067Z</time>
      </trkpt>
      <trkpt lat="45.02918" lon="2.38203">
        <ele>655.71</ele>
        <time>2026-08-21T10:13:18.268Z</time>
      </trkpt>
      <trkpt lat="45.02916" lon="2.38203">
        <ele>655.66</ele>
        <time>2026-08-21T10:13:19.271Z</time>
      </trkpt>
      <trkpt lat="45.02915" lon="2.38203">
        <ele>655.64</ele>
        <time>2026-08-21T10:13:20.305Z</time>
      </trkpt>
      <trkpt lat="45.02913" lon="2.38203">
        <ele>655.58</ele>
        <time>2026-08-21T10:13:21.053Z</time>
      </trkpt>
      <trkpt lat="45.02911" lon="2.38202">
        <ele>655.52</ele>
        <time>2026-08-21T10:13:22.297Z</time>
      </trkpt>
      <trkpt lat="45.02908" lon="2.38201">
        <ele>655.46</ele>
        <time>2026-08-21T10:13:23.279Z</time>
      </trkpt>
      <trkpt lat="45.02906" lon="2.38199">
        <ele>655.4</ele>
        <time>2026-08-21T10:13:24.283Z</time>
      </trkpt>
      <trkpt lat="45.02903" lon="2.38198">
        <ele>655.34</ele>
        <time>2026-08-21T10:13:24.362Z</time>
      </trkpt>
      <trkpt lat="45.02902" lon="2.38196">
        <ele>655.27</ele>
        <time>2026-08-21T10:13:26.294Z</time>
      </trkpt>
      <trkpt lat="45.02899" lon="2.38194">
        <ele>655.21</ele>
        <time>2026-08-21T10:13:27.293Z</time>
      </trkpt>
      <trkpt lat="45.02897" lon="2.38192">
        <ele>655.11</ele>
        <time>2026-08-21T10:13:28.296Z</time>
      </trkpt>
      <trkpt lat="45.02896" lon="2.38191">
        <ele>655.04</ele>
        <time>2026-08-21T10:13:29.299Z</time>
      </trkpt>
      <trkpt lat="45.02895" lon="2.38189">
        <ele>654.97</ele>
        <time>2026-08-21T10:13:30.302Z</time>
      </trkpt>
      <trkpt lat="45.02892" lon="2.38186">
        <ele>654.86</ele>
        <time>2026-08-21T10:13:32.296Z</time>
      </trkpt>
      <trkpt lat="45.02891" lon="2.38185">
        <ele>654.8</ele>
        <time>2026-08-21T10:13:33.311Z</time>
      </trkpt>
      <trkpt lat="45.0289" lon="2.38184">
        <ele>654.69</ele>
        <time>2026-08-21T10:13:34.314Z</time>
      </trkpt>
      <trkpt lat="45.02889" lon="2.38182">
        <ele>654.67</ele>
        <time>2026-08-21T10:13:35.253Z</time>
      </trkpt>
      <trkpt lat="45.02887" lon="2.3818">
        <ele>654.64</ele>
        <time>2026-08-21T10:13:35.330Z</time>
      </trkpt>
      <trkpt lat="45.02886" lon="2.38178">
        <ele>654.63</ele>
        <time>2026-08-21T10:13:37.302Z</time>
      </trkpt>
      <trkpt lat="45.02885" lon="2.38177">
        <ele>654.56</ele>
        <time>2026-08-21T10:13:38.326Z</time>
      </trkpt>
      <trkpt lat="45.02884" lon="2.38175">
        <ele>654.5</ele>
        <time>2026-08-21T10:13:39.229Z</time>
      </trkpt>
      <trkpt lat="45.02882" lon="2.38172">
        <ele>654.44</ele>
        <time>2026-08-21T10:13:40.231Z</time>
      </trkpt>
      <trkpt lat="45.02881" lon="2.38169">
        <ele>654.33</ele>
        <time>2026-08-21T10:13:41.235Z</time>
      </trkpt>
      <trkpt lat="45.02881" lon="2.38165">
        <ele>654.31</ele>
        <time>2026-08-21T10:13:41.869Z</time>
      </trkpt>
      <trkpt lat="45.0288" lon="2.38161">
        <ele>654.28</ele>
        <time>2026-08-21T10:13:43.268Z</time>
      </trkpt>
      <trkpt lat="45.02879" lon="2.38157">
        <ele>654.29</ele>
        <time>2026-08-21T10:13:44.245Z</time>
      </trkpt>
      <trkpt lat="45.02879" lon="2.38153">
        <ele>654.29</ele>
        <time>2026-08-21T10:13:45.250Z</time>
      </trkpt>
      <trkpt lat="45.02879" lon="2.3815">
        <ele>654.27</ele>
        <time>2026-08-21T10:13:46.251Z</time>
      </trkpt>
      <trkpt lat="45.02878" lon="2.38148">
        <ele>654.22</ele>
        <time>2026-08-21T10:13:47.254Z</time>
      </trkpt>
      <trkpt lat="45.02878" lon="2.38145">
        <ele>654.22</ele>
        <time>2026-08-21T10:13:48.257Z</time>
      </trkpt>
      <trkpt lat="45.02878" lon="2.38142">
        <ele>654.17</ele>
        <time>2026-08-21T10:13:49.259Z</time>
      </trkpt>
      <trkpt lat="45.02878" lon="2.38138">
        <ele>654.16</ele>
        <time>2026-08-21T10:13:50.295Z</time>
      </trkpt>
      <trkpt lat="45.02877" lon="2.38134">
        <ele>654.13</ele>
        <time>2026-08-21T10:13:51.266Z</time>
      </trkpt>
      <trkpt lat="45.02877" lon="2.38131">
        <ele>654.14</ele>
        <time>2026-08-21T10:13:52.267Z</time>
      </trkpt>
      <trkpt lat="45.02877" lon="2.38127">
        <ele>654.15</ele>
        <time>2026-08-21T10:13:53.272Z</time>
      </trkpt>
      <trkpt lat="45.02877" lon="2.38124">
        <ele>654.16</ele>
        <time>2026-08-21T10:13:54.138Z</time>
      </trkpt>
      <trkpt lat="45.02876" lon="2.3812">
        <ele>654.16</ele>
        <time>2026-08-21T10:13:55.291Z</time>
      </trkpt>
      <trkpt lat="45.02876" lon="2.38116">
        <ele>654.17</ele>
        <time>2026-08-21T10:13:56.282Z</time>
      </trkpt>
      <trkpt lat="45.02876" lon="2.38114">
        <ele>654.17</ele>
        <time>2026-08-21T10:13:56.851Z</time>
      </trkpt>
      <trkpt lat="45.02876" lon="2.3811">
        <ele>654.2</ele>
        <time>2026-08-21T10:13:57.848Z</time>
      </trkpt>
      <trkpt lat="45.02875" lon="2.38106">
        <ele>654.23</ele>
        <time>2026-08-21T10:13:59.004Z</time>
      </trkpt>
      <trkpt lat="45.02875" lon="2.38103">
        <ele>654.26</ele>
        <time>2026-08-21T10:14:00.292Z</time>
      </trkpt>
      <trkpt lat="45.02875" lon="2.381">
        <ele>654.3</ele>
        <time>2026-08-21T10:14:01.295Z</time>
      </trkpt>
      <trkpt lat="45.02874" lon="2.38097">
        <ele>654.34</ele>
        <time>2026-08-21T10:14:02.297Z</time>
      </trkpt>
      <trkpt lat="45.02873" lon="2.38094">
        <ele>654.37</ele>
        <time>2026-08-21T10:14:02.350Z</time>
      </trkpt>
      <trkpt lat="45.02873" lon="2.38091">
        <ele>654.4</ele>
        <time>2026-08-21T10:14:03.359Z</time>
      </trkpt>
      <trkpt lat="45.02871" lon="2.38088">
        <ele>654.42</ele>
        <time>2026-08-21T10:14:05.289Z</time>
      </trkpt>
      <trkpt lat="45.0287" lon="2.38086">
        <ele>654.45</ele>
        <time>2026-08-21T10:14:05.904Z</time>
      </trkpt>
      <trkpt lat="45.02869" lon="2.38084">
        <ele>654.48</ele>
        <time>2026-08-21T10:14:06.996Z</time>
      </trkpt>
      <trkpt lat="45.02868" lon="2.38082">
        <ele>654.51</ele>
        <time>2026-08-21T10:14:08.300Z</time>
      </trkpt>
      <trkpt lat="45.02866" lon="2.38079">
        <ele>654.54</ele>
        <time>2026-08-21T10:14:09.318Z</time>
      </trkpt>
      <trkpt lat="45.02865" lon="2.38077">
        <ele>654.56</ele>
        <time>2026-08-21T10:14:10.322Z</time>
      </trkpt>
      <trkpt lat="45.02864" lon="2.38075">
        <ele>654.58</ele>
        <time>2026-08-21T10:14:11.310Z</time>
      </trkpt>
      <trkpt lat="45.02862" lon="2.38073">
        <ele>654.59</ele>
        <time>2026-08-21T10:14:12.326Z</time>
      </trkpt>
      <trkpt lat="45.02861" lon="2.38071">
        <ele>654.61</ele>
        <time>2026-08-21T10:14:13.329Z</time>
      </trkpt>
      <trkpt lat="45.0286" lon="2.38068">
        <ele>654.63</ele>
        <time>2026-08-21T10:14:14.332Z</time>
      </trkpt>
      <trkpt lat="45.02858" lon="2.38065">
        <ele>654.65</ele>
        <time>2026-08-21T10:14:15.328Z</time>
      </trkpt>
      <trkpt lat="45.02857" lon="2.38062">
        <ele>654.66</ele>
        <time>2026-08-21T10:14:16.114Z</time>
      </trkpt>
      <trkpt lat="45.02856" lon="2.38059">
        <ele>654.68</ele>
        <time>2026-08-21T10:14:17.340Z</time>
      </trkpt>
      <trkpt lat="45.02855" lon="2.38058">
        <ele>654.7</ele>
        <time>2026-08-21T10:14:18.336Z</time>
      </trkpt>
      <trkpt lat="45.02853" lon="2.38057">
        <ele>654.72</ele>
        <time>2026-08-21T10:14:19.344Z</time>
      </trkpt>
      <trkpt lat="45.02852" lon="2.38055">
        <ele>654.72</ele>
        <time>2026-08-21T10:14:20.348Z</time>
      </trkpt>
      <trkpt lat="45.02851" lon="2.38055">
        <ele>654.75</ele>
        <time>2026-08-21T10:14:21.359Z</time>
      </trkpt>
      <trkpt lat="45.02849" lon="2.38056">
        <ele>654.81</ele>
        <time>2026-08-21T10:14:22.398Z</time>
      </trkpt>
      <trkpt lat="45.02848" lon="2.38058">
        <ele>654.9</ele>
        <time>2026-08-21T10:14:25.868Z</time>
      </trkpt>
      <trkpt lat="45.02849" lon="2.38059">
        <ele>654.99</ele>
        <time>2026-08-21T10:14:28.270Z</time>
      </trkpt>
      <trkpt lat="45.02849" lon="2.3806">
        <ele>655.02</ele>
        <time>2026-08-21T10:14:29.273Z</time>
      </trkpt>
      <trkpt lat="45.0285" lon="2.38061">
        <ele>655.13</ele>
        <time>2026-08-21T10:14:31.281Z</time>
      </trkpt>
      <trkpt lat="45.0285" lon="2.38063">
        <ele>655.2</ele>
        <time>2026-08-21T10:14:32.284Z</time>
      </trkpt>
      <trkpt lat="45.02851" lon="2.38064">
        <ele>655.26</ele>
        <time>2026-08-21T10:14:32.898Z</time>
      </trkpt>
      <trkpt lat="45.02851" lon="2.38066">
        <ele>655.32</ele>
        <time>2026-08-21T10:14:34.288Z</time>
      </trkpt>
      <trkpt lat="45.02852" lon="2.38068">
        <ele>655.42</ele>
        <time>2026-08-21T10:14:34.380Z</time>
      </trkpt>
      <trkpt lat="45.02852" lon="2.3807">
        <ele>655.53</ele>
        <time>2026-08-21T10:14:36.291Z</time>
      </trkpt>
      <trkpt lat="45.02852" lon="2.38073">
        <ele>655.59</ele>
        <time>2026-08-21T10:14:37.296Z</time>
      </trkpt>
      <trkpt lat="45.02852" lon="2.38075">
        <ele>656.41</ele>
        <time>2026-08-21T10:14:42.249Z</time>
      </trkpt>
      <trkpt lat="45.02853" lon="2.38077">
        <ele>656.7</ele>
        <time>2026-08-21T10:14:45.242Z</time>
      </trkpt>
      <trkpt lat="45.02853" lon="2.38079">
        <ele>657.03</ele>
        <time>2026-08-21T10:14:46.775Z</time>
      </trkpt>
      <trkpt lat="45.02855" lon="2.38085">
        <ele>657.38</ele>
        <time>2026-08-21T10:14:49.232Z</time>
      </trkpt>
      <trkpt lat="45.02855" lon="2.38087">
        <ele>657.55</ele>
        <time>2026-08-21T10:14:49.773Z</time>
      </trkpt>
      <trkpt lat="45.02855" lon="2.38089">
        <ele>657.73</ele>
        <time>2026-08-21T10:14:51.261Z</time>
      </trkpt>
      <trkpt lat="45.02855" lon="2.38092">
        <ele>657.91</ele>
        <time>2026-08-21T10:14:52.242Z</time>
      </trkpt>
      <trkpt lat="45.02855" lon="2.38094">
        <ele>658.08</ele>
        <time>2026-08-21T10:14:53.250Z</time>
      </trkpt>
      <trkpt lat="45.02854" lon="2.38097">
        <ele>658.3</ele>
        <time>2026-08-21T10:14:54.238Z</time>
      </trkpt>
      <trkpt lat="45.02853" lon="2.38098">
        <ele>658.52</ele>
        <time>2026-08-21T10:14:55.259Z</time>
      </trkpt>
      <trkpt lat="45.02853" lon="2.38099">
        <ele>658.73</ele>
        <time>2026-08-21T10:14:55.751Z</time>
      </trkpt>
      <trkpt lat="45.02852" lon="2.381">
        <ele>658.96</ele>
        <time>2026-08-21T10:14:57.262Z</time>
      </trkpt>
      <trkpt lat="45.0285" lon="2.381">
        <ele>659.19</ele>
        <time>2026-08-21T10:14:57.763Z</time>
      </trkpt>
      <trkpt lat="45.02848" lon="2.38099">
        <ele>659.45</ele>
        <time>2026-08-21T10:14:58.338Z</time>
      </trkpt>
      <trkpt lat="45.02847" lon="2.38099">
        <ele>659.75</ele>
        <time>2026-08-21T10:15:00.268Z</time>
      </trkpt>
      <trkpt lat="45.02845" lon="2.38098">
        <ele>660.05</ele>
        <time>2026-08-21T10:15:00.289Z</time>
      </trkpt>
      <trkpt lat="45.02844" lon="2.38097">
        <ele>660.33</ele>
        <time>2026-08-21T10:15:02.240Z</time>
      </trkpt>
      <trkpt lat="45.02843" lon="2.38095">
        <ele>660.57</ele>
        <time>2026-08-21T10:15:03.256Z</time>
      </trkpt>
      <trkpt lat="45.02841" lon="2.38094">
        <ele>660.88</ele>
        <time>2026-08-21T10:15:04.260Z</time>
      </trkpt>
      <trkpt lat="45.0284" lon="2.38093">
        <ele>661.18</ele>
        <time>2026-08-21T10:15:05.253Z</time>
      </trkpt>
      <trkpt lat="45.02839" lon="2.38091">
        <ele>661.48</ele>
        <time>2026-08-21T10:15:06.257Z</time>
      </trkpt>
      <trkpt lat="45.02837" lon="2.3809">
        <ele>661.79</ele>
        <time>2026-08-21T10:15:07.265Z</time>
      </trkpt>
      <trkpt lat="45.02836" lon="2.38089">
        <ele>662.11</ele>
        <time>2026-08-21T10:15:07.982Z</time>
      </trkpt>
      <trkpt lat="45.02832" lon="2.38086">
        <ele>662.71</ele>
        <time>2026-08-21T10:15:10.110Z</time>
      </trkpt>
      <trkpt lat="45.02831" lon="2.38085">
        <ele>663.02</ele>
        <time>2026-08-21T10:15:11.264Z</time>
      </trkpt>
      <trkpt lat="45.0283" lon="2.38084">
        <ele>663.27</ele>
        <time>2026-08-21T10:15:12.274Z</time>
      </trkpt>
      <trkpt lat="45.02829" lon="2.38083">
        <ele>663.57</ele>
        <time>2026-08-21T10:15:13.278Z</time>
      </trkpt>
      <trkpt lat="45.02827" lon="2.38082">
        <ele>663.87</ele>
        <time>2026-08-21T10:15:13.284Z</time>
      </trkpt>
      <trkpt lat="45.02826" lon="2.38081">
        <ele>664.17</ele>
        <time>2026-08-21T10:15:15.256Z</time>
      </trkpt>
      <trkpt lat="45.02823" lon="2.38077">
        <ele>664.75</ele>
        <time>2026-08-21T10:15:17.187Z</time>
      </trkpt>
      <trkpt lat="45.02822" lon="2.38076">
        <ele>665.05</ele>
        <time>2026-08-21T10:15:18.189Z</time>
      </trkpt>
      <trkpt lat="45.0282" lon="2.38074">
        <ele>665.64</ele>
        <time>2026-08-21T10:15:20.196Z</time>
      </trkpt>
      <trkpt lat="45.02819" lon="2.38074">
        <ele>665.91</ele>
        <time>2026-08-21T10:15:21.198Z</time>
      </trkpt>
      <trkpt lat="45.02818" lon="2.38074">
        <ele>666.47</ele>
        <time>2026-08-21T10:15:23.203Z</time>
      </trkpt>
      <trkpt lat="45.02817" lon="2.38074">
        <ele>666.77</ele>
        <time>2026-08-21T10:15:24.208Z</time>
      </trkpt>
      <trkpt lat="45.02813" lon="2.38072">
        <ele>667.36</ele>
        <time>2026-08-21T10:15:26.209Z</time>
      </trkpt>
      <trkpt lat="45.02812" lon="2.38072">
        <ele>667.66</ele>
        <time>2026-08-21T10:15:27.210Z</time>
      </trkpt>
      <trkpt lat="45.0281" lon="2.38071">
        <ele>667.94</ele>
        <time>2026-08-21T10:15:28.212Z</time>
      </trkpt>
      <trkpt lat="45.02808" lon="2.38071">
        <ele>668.22</ele>
        <time>2026-08-21T10:15:29.214Z</time>
      </trkpt>
      <trkpt lat="45.02807" lon="2.3807">
        <ele>668.5</ele>
        <time>2026-08-21T10:15:30.216Z</time>
      </trkpt>
      <trkpt lat="45.02805" lon="2.3807">
        <ele>668.76</ele>
        <time>2026-08-21T10:15:31.218Z</time>
      </trkpt>
      <trkpt lat="45.02804" lon="2.38069">
        <ele>669.05</ele>
        <time>2026-08-21T10:15:32.222Z</time>
      </trkpt>
      <trkpt lat="45.02803" lon="2.38068">
        <ele>669.35</ele>
        <time>2026-08-21T10:15:33.225Z</time>
      </trkpt>
      <trkpt lat="45.02801" lon="2.38068">
        <ele>669.63</ele>
        <time>2026-08-21T10:15:34.224Z</time>
      </trkpt>
      <trkpt lat="45.02797" lon="2.38065">
        <ele>670.2</ele>
        <time>2026-08-21T10:15:36.229Z</time>
      </trkpt>
      <trkpt lat="45.02796" lon="2.38065">
        <ele>670.48</ele>
        <time>2026-08-21T10:15:37.231Z</time>
      </trkpt>
      <trkpt lat="45.02795" lon="2.38064">
        <ele>670.78</ele>
        <time>2026-08-21T10:15:38.234Z</time>
      </trkpt>
      <trkpt lat="45.02793" lon="2.38063">
        <ele>671.11</ele>
        <time>2026-08-21T10:15:39.236Z</time>
      </trkpt>
      <trkpt lat="45.02792" lon="2.38062">
        <ele>671.41</ele>
        <time>2026-08-21T10:15:40.237Z</time>
      </trkpt>
      <trkpt lat="45.02789" lon="2.38061">
        <ele>671.72</ele>
        <time>2026-08-21T10:15:41.239Z</time>
      </trkpt>
      <trkpt lat="45.02788" lon="2.3806">
        <ele>672.04</ele>
        <time>2026-08-21T10:15:42.099Z</time>
      </trkpt>
      <trkpt lat="45.02786" lon="2.38059">
        <ele>672.33</ele>
        <time>2026-08-21T10:15:43.243Z</time>
      </trkpt>
      <trkpt lat="45.02783" lon="2.38058">
        <ele>672.92</ele>
        <time>2026-08-21T10:15:45.248Z</time>
      </trkpt>
      <trkpt lat="45.02778" lon="2.38056">
        <ele>674.05</ele>
        <time>2026-08-21T10:16:09.073Z</time>
      </trkpt>
      <trkpt lat="45.02775" lon="2.38055">
        <ele>674.32</ele>
        <time>2026-08-21T10:16:13.067Z</time>
      </trkpt>
      <trkpt lat="45.02771" lon="2.38054">
        <ele>674.32</ele>
        <time>2026-08-21T10:16:30.083Z</time>
      </trkpt>
      <trkpt lat="45.02769" lon="2.38055">
        <ele>674.32</ele>
        <time>2026-08-21T10:16:33.009Z</time>
      </trkpt>
      <trkpt lat="45.02768" lon="2.38055">
        <ele>679.71</ele>
        <time>2026-08-21T10:16:33.940Z</time>
      </trkpt>
      <trkpt lat="45.02767" lon="2.38055">
        <ele>679.82</ele>
        <time>2026-08-21T10:16:34.941Z</time>
      </trkpt>
      <trkpt lat="45.02766" lon="2.38055">
        <ele>679.96</ele>
        <time>2026-08-21T10:16:36.043Z</time>
      </trkpt>
      <trkpt lat="45.02764" lon="2.38055">
        <ele>680.07</ele>
        <time>2026-08-21T10:16:37.039Z</time>
      </trkpt>
      <trkpt lat="45.02761" lon="2.38054">
        <ele>680.34</ele>
        <time>2026-08-21T10:16:38.950Z</time>
      </trkpt>
      <trkpt lat="45.0276" lon="2.38053">
        <ele>680.48</ele>
        <time>2026-08-21T10:16:40.051Z</time>
      </trkpt>
      <trkpt lat="45.02759" lon="2.38053">
        <ele>680.64</ele>
        <time>2026-08-21T10:16:40.888Z</time>
      </trkpt>
      <trkpt lat="45.02757" lon="2.38053">
        <ele>680.79</ele>
        <time>2026-08-21T10:16:41.960Z</time>
      </trkpt>
      <trkpt lat="45.02754" lon="2.38051">
        <ele>681.11</ele>
        <time>2026-08-21T10:16:43.960Z</time>
      </trkpt>
      <trkpt lat="45.02753" lon="2.38051">
        <ele>681.28</ele>
        <time>2026-08-21T10:16:45.053Z</time>
      </trkpt>
      <trkpt lat="45.02752" lon="2.3805">
        <ele>681.44</ele>
        <time>2026-08-21T10:16:45.060Z</time>
      </trkpt>
      <trkpt lat="45.02749" lon="2.3805">
        <ele>681.78</ele>
        <time>2026-08-21T10:16:47.961Z</time>
      </trkpt>
      <trkpt lat="45.02748" lon="2.3805">
        <ele>681.96</ele>
        <time>2026-08-21T10:16:48.962Z</time>
      </trkpt>
      <trkpt lat="45.02747" lon="2.3805">
        <ele>682.15</ele>
        <time>2026-08-21T10:16:49.964Z</time>
      </trkpt>
      <trkpt lat="45.02743" lon="2.3805">
        <ele>682.3</ele>
        <time>2026-08-21T10:16:51.071Z</time>
      </trkpt>
      <trkpt lat="45.02742" lon="2.3805">
        <ele>682.69</ele>
        <time>2026-08-21T10:16:52.069Z</time>
      </trkpt>
      <trkpt lat="45.02741" lon="2.3805">
        <ele>682.88</ele>
        <time>2026-08-21T10:16:53.075Z</time>
      </trkpt>
      <trkpt lat="45.02736" lon="2.38049">
        <ele>683.28</ele>
        <time>2026-08-21T10:16:55.980Z</time>
      </trkpt>
      <trkpt lat="45.02735" lon="2.38049">
        <ele>683.66</ele>
        <time>2026-08-21T10:16:56.989Z</time>
      </trkpt>
      <trkpt lat="45.02734" lon="2.38049">
        <ele>683.87</ele>
        <time>2026-08-21T10:16:57.984Z</time>
      </trkpt>
      <trkpt lat="45.02733" lon="2.38049">
        <ele>684.08</ele>
        <time>2026-08-21T10:16:58.988Z</time>
      </trkpt>
      <trkpt lat="45.02729" lon="2.38048">
        <ele>684.52</ele>
        <time>2026-08-21T10:17:00.992Z</time>
      </trkpt>
      <trkpt lat="45.02728" lon="2.38048">
        <ele>684.76</ele>
        <time>2026-08-21T10:17:01.998Z</time>
      </trkpt>
      <trkpt lat="45.02725" lon="2.38047">
        <ele>685</ele>
        <time>2026-08-21T10:17:03.999Z</time>
      </trkpt>
      <trkpt lat="45.02723" lon="2.38045">
        <ele>685.47</ele>
        <time>2026-08-21T10:17:05.044Z</time>
      </trkpt>
      <trkpt lat="45.02722" lon="2.38045">
        <ele>685.73</ele>
        <time>2026-08-21T10:17:06.095Z</time>
      </trkpt>
      <trkpt lat="45.02721" lon="2.38044">
        <ele>686</ele>
        <time>2026-08-21T10:17:07.091Z</time>
      </trkpt>
      <trkpt lat="45.02717" lon="2.38043">
        <ele>686.51</ele>
        <time>2026-08-21T10:17:08.102Z</time>
      </trkpt>
      <trkpt lat="45.02716" lon="2.38042">
        <ele>686.75</ele>
        <time>2026-08-21T10:17:10.022Z</time>
      </trkpt>
      <trkpt lat="45.02715" lon="2.38042">
        <ele>687.03</ele>
        <time>2026-08-21T10:17:11.012Z</time>
      </trkpt>
      <trkpt lat="45.02712" lon="2.38041">
        <ele>687.61</ele>
        <time>2026-08-21T10:17:13.016Z</time>
      </trkpt>
      <trkpt lat="45.02711" lon="2.3804">
        <ele>687.9</ele>
        <time>2026-08-21T10:17:14.018Z</time>
      </trkpt>
      <trkpt lat="45.0271" lon="2.3804">
        <ele>688.18</ele>
        <time>2026-08-21T10:17:15.019Z</time>
      </trkpt>
      <trkpt lat="45.02707" lon="2.38038">
        <ele>688.79</ele>
        <time>2026-08-21T10:17:17.030Z</time>
      </trkpt>
      <trkpt lat="45.02706" lon="2.38037">
        <ele>689.38</ele>
        <time>2026-08-21T10:17:19.028Z</time>
      </trkpt>
      <trkpt lat="45.02702" lon="2.38036">
        <ele>689.99</ele>
        <time>2026-08-21T10:17:21.029Z</time>
      </trkpt>
      <trkpt lat="45.02701" lon="2.38035">
        <ele>690.3</ele>
        <time>2026-08-21T10:17:22.029Z</time>
      </trkpt>
      <trkpt lat="45.027" lon="2.38035">
        <ele>690.61</ele>
        <time>2026-08-21T10:17:23.031Z</time>
      </trkpt>
      <trkpt lat="45.02697" lon="2.38033">
        <ele>691.21</ele>
        <time>2026-08-21T10:17:24.128Z</time>
      </trkpt>
      <trkpt lat="45.02695" lon="2.38032">
        <ele>691.53</ele>
        <time>2026-08-21T10:17:26.036Z</time>
      </trkpt>
      <trkpt lat="45.02694" lon="2.38032">
        <ele>691.83</ele>
        <time>2026-08-21T10:17:27.037Z</time>
      </trkpt>
      <trkpt lat="45.02692" lon="2.38031">
        <ele>692.13</ele>
        <time>2026-08-21T10:17:28.039Z</time>
      </trkpt>
      <trkpt lat="45.02691" lon="2.3803">
        <ele>692.44</ele>
        <time>2026-08-21T10:17:28.930Z</time>
      </trkpt>
      <trkpt lat="45.02688" lon="2.38028">
        <ele>693.04</ele>
        <time>2026-08-21T10:17:31.042Z</time>
      </trkpt>
      <trkpt lat="45.02686" lon="2.38027">
        <ele>693.35</ele>
        <time>2026-08-21T10:17:32.045Z</time>
      </trkpt>
      <trkpt lat="45.02685" lon="2.38026">
        <ele>693.64</ele>
        <time>2026-08-21T10:17:33.045Z</time>
      </trkpt>
      <trkpt lat="45.02683" lon="2.38025">
        <ele>693.92</ele>
        <time>2026-08-21T10:17:34.047Z</time>
      </trkpt>
      <trkpt lat="45.02681" lon="2.38024">
        <ele>694.21</ele>
        <time>2026-08-21T10:17:35.050Z</time>
      </trkpt>
      <trkpt lat="45.02679" lon="2.38022">
        <ele>694.5</ele>
        <time>2026-08-21T10:17:36.050Z</time>
      </trkpt>
      <trkpt lat="45.02677" lon="2.38021">
        <ele>694.78</ele>
        <time>2026-08-21T10:17:37.053Z</time>
      </trkpt>
      <trkpt lat="45.02676" lon="2.3802">
        <ele>695.05</ele>
        <time>2026-08-21T10:17:38.054Z</time>
      </trkpt>
      <trkpt lat="45.02674" lon="2.38018">
        <ele>695.33</ele>
        <time>2026-08-21T10:17:39.057Z</time>
      </trkpt>
      <trkpt lat="45.02673" lon="2.38017">
        <ele>695.61</ele>
        <time>2026-08-21T10:17:40.057Z</time>
      </trkpt>
      <trkpt lat="45.02671" lon="2.38016">
        <ele>695.86</ele>
        <time>2026-08-21T10:17:40.814Z</time>
      </trkpt>
      <trkpt lat="45.02669" lon="2.38015">
        <ele>696.12</ele>
        <time>2026-08-21T10:17:42.062Z</time>
      </trkpt>
      <trkpt lat="45.02668" lon="2.38013">
        <ele>696.38</ele>
        <time>2026-08-21T10:17:43.070Z</time>
      </trkpt>
      <trkpt lat="45.02666" lon="2.38012">
        <ele>696.61</ele>
        <time>2026-08-21T10:17:44.066Z</time>
      </trkpt>
      <trkpt lat="45.02665" lon="2.38011">
        <ele>696.89</ele>
        <time>2026-08-21T10:17:44.976Z</time>
      </trkpt>
      <trkpt lat="45.02663" lon="2.38009">
        <ele>697.13</ele>
        <time>2026-08-21T10:17:46.072Z</time>
      </trkpt>
      <trkpt lat="45.02662" lon="2.38007">
        <ele>697.36</ele>
        <time>2026-08-21T10:17:47.069Z</time>
      </trkpt>
      <trkpt lat="45.0266" lon="2.38005">
        <ele>697.59</ele>
        <time>2026-08-21T10:17:48.072Z</time>
      </trkpt>
      <trkpt lat="45.02658" lon="2.38003">
        <ele>697.8</ele>
        <time>2026-08-21T10:17:49.075Z</time>
      </trkpt>
      <trkpt lat="45.02656" lon="2.38001">
        <ele>698.03</ele>
        <time>2026-08-21T10:17:50.072Z</time>
      </trkpt>
      <trkpt lat="45.02654" lon="2.37999">
        <ele>698.22</ele>
        <time>2026-08-21T10:17:51.010Z</time>
      </trkpt>
      <trkpt lat="45.02652" lon="2.37997">
        <ele>698.41</ele>
        <time>2026-08-21T10:17:51.960Z</time>
      </trkpt>
      <trkpt lat="45.0265" lon="2.37996">
        <ele>698.63</ele>
        <time>2026-08-21T10:17:53.077Z</time>
      </trkpt>
      <trkpt lat="45.02648" lon="2.37995">
        <ele>698.8</ele>
        <time>2026-08-21T10:17:54.081Z</time>
      </trkpt>
      <trkpt lat="45.02646" lon="2.37994">
        <ele>698.99</ele>
        <time>2026-08-21T10:17:55.082Z</time>
      </trkpt>
      <trkpt lat="45.02644" lon="2.37993">
        <ele>699.16</ele>
        <time>2026-08-21T10:17:56.084Z</time>
      </trkpt>
      <trkpt lat="45.02642" lon="2.37992">
        <ele>699.34</ele>
        <time>2026-08-21T10:17:57.087Z</time>
      </trkpt>
      <trkpt lat="45.02641" lon="2.37991">
        <ele>699.49</ele>
        <time>2026-08-21T10:17:58.087Z</time>
      </trkpt>
      <trkpt lat="45.02639" lon="2.37991">
        <ele>699.66</ele>
        <time>2026-08-21T10:17:58.997Z</time>
      </trkpt>
      <trkpt lat="45.02638" lon="2.37989">
        <ele>699.82</ele>
        <time>2026-08-21T10:18:00.092Z</time>
      </trkpt>
      <trkpt lat="45.02637" lon="2.37988">
        <ele>699.99</ele>
        <time>2026-08-21T10:18:01.092Z</time>
      </trkpt>
      <trkpt lat="45.02636" lon="2.37987">
        <ele>700.09</ele>
        <time>2026-08-21T10:18:02.094Z</time>
      </trkpt>
      <trkpt lat="45.02635" lon="2.37986">
        <ele>700.25</ele>
        <time>2026-08-21T10:18:02.859Z</time>
      </trkpt>
      <trkpt lat="45.02633" lon="2.37982">
        <ele>700.55</ele>
        <time>2026-08-21T10:18:05.104Z</time>
      </trkpt>
      <trkpt lat="45.02633" lon="2.3798">
        <ele>700.7</ele>
        <time>2026-08-21T10:18:06.101Z</time>
      </trkpt>
      <trkpt lat="45.02632" lon="2.37979">
        <ele>700.82</ele>
        <time>2026-08-21T10:18:07.103Z</time>
      </trkpt>
      <trkpt lat="45.02632" lon="2.37977">
        <ele>700.95</ele>
        <time>2026-08-21T10:18:07.685Z</time>
      </trkpt>
      <trkpt lat="45.02631" lon="2.37975">
        <ele>701.07</ele>
        <time>2026-08-21T10:18:09.108Z</time>
      </trkpt>
      <trkpt lat="45.0263" lon="2.37973">
        <ele>701.2</ele>
        <time>2026-08-21T10:18:10.109Z</time>
      </trkpt>
      <trkpt lat="45.02628" lon="2.37972">
        <ele>701.31</ele>
        <time>2026-08-21T10:18:10.200Z</time>
      </trkpt>
      <trkpt lat="45.02626" lon="2.37971">
        <ele>701.39</ele>
        <time>2026-08-21T10:18:12.113Z</time>
      </trkpt>
      <trkpt lat="45.02625" lon="2.37969">
        <ele>701.48</ele>
        <time>2026-08-21T10:18:13.115Z</time>
      </trkpt>
      <trkpt lat="45.02623" lon="2.37968">
        <ele>701.58</ele>
        <time>2026-08-21T10:18:14.116Z</time>
      </trkpt>
      <trkpt lat="45.02621" lon="2.37967">
        <ele>701.67</ele>
        <time>2026-08-21T10:18:15.118Z</time>
      </trkpt>
      <trkpt lat="45.02619" lon="2.37967">
        <ele>701.76</ele>
        <time>2026-08-21T10:18:15.997Z</time>
      </trkpt>
      <trkpt lat="45.02617" lon="2.37967">
        <ele>701.86</ele>
        <time>2026-08-21T10:18:16.988Z</time>
      </trkpt>
      <trkpt lat="45.02615" lon="2.37967">
        <ele>701.94</ele>
        <time>2026-08-21T10:18:18.124Z</time>
      </trkpt>
      <trkpt lat="45.02612" lon="2.37967">
        <ele>702.01</ele>
        <time>2026-08-21T10:18:19.126Z</time>
      </trkpt>
      <trkpt lat="45.0261" lon="2.37967">
        <ele>702.06</ele>
        <time>2026-08-21T10:18:20.127Z</time>
      </trkpt>
      <trkpt lat="45.02608" lon="2.37967">
        <ele>702.15</ele>
        <time>2026-08-21T10:18:21.129Z</time>
      </trkpt>
      <trkpt lat="45.02606" lon="2.37966">
        <ele>702.24</ele>
        <time>2026-08-21T10:18:22.130Z</time>
      </trkpt>
      <trkpt lat="45.02604" lon="2.37966">
        <ele>702.3</ele>
        <time>2026-08-21T10:18:23.132Z</time>
      </trkpt>
      <trkpt lat="45.02602" lon="2.37966">
        <ele>702.38</ele>
        <time>2026-08-21T10:18:24.135Z</time>
      </trkpt>
      <trkpt lat="45.026" lon="2.37966">
        <ele>702.47</ele>
        <time>2026-08-21T10:18:25.137Z</time>
      </trkpt>
      <trkpt lat="45.02598" lon="2.37967">
        <ele>702.56</ele>
        <time>2026-08-21T10:18:26.041Z</time>
      </trkpt>
      <trkpt lat="45.02596" lon="2.37967">
        <ele>702.71</ele>
        <time>2026-08-21T10:18:27.140Z</time>
      </trkpt>
      <trkpt lat="45.02594" lon="2.37967">
        <ele>702.8</ele>
        <time>2026-08-21T10:18:28.140Z</time>
      </trkpt>
      <trkpt lat="45.02593" lon="2.37967">
        <ele>702.86</ele>
        <time>2026-08-21T10:18:29.144Z</time>
      </trkpt>
      <trkpt lat="45.02591" lon="2.37967">
        <ele>702.97</ele>
        <time>2026-08-21T10:18:30.144Z</time>
      </trkpt>
      <trkpt lat="45.02589" lon="2.37967">
        <ele>703.02</ele>
        <time>2026-08-21T10:18:31.148Z</time>
      </trkpt>
      <trkpt lat="45.02587" lon="2.37967">
        <ele>703.12</ele>
        <time>2026-08-21T10:18:32.050Z</time>
      </trkpt>
      <trkpt lat="45.02585" lon="2.37967">
        <ele>703.22</ele>
        <time>2026-08-21T10:18:33.151Z</time>
      </trkpt>
      <trkpt lat="45.02582" lon="2.37967">
        <ele>703.33</ele>
        <time>2026-08-21T10:18:34.152Z</time>
      </trkpt>
      <trkpt lat="45.0258" lon="2.37967">
        <ele>703.43</ele>
        <time>2026-08-21T10:18:35.025Z</time>
      </trkpt>
      <trkpt lat="45.02578" lon="2.37967">
        <ele>703.54</ele>
        <time>2026-08-21T10:18:35.670Z</time>
      </trkpt>
      <trkpt lat="45.02575" lon="2.37967">
        <ele>703.63</ele>
        <time>2026-08-21T10:18:36.999Z</time>
      </trkpt>
      <trkpt lat="45.02573" lon="2.37967">
        <ele>703.72</ele>
        <time>2026-08-21T10:18:38.160Z</time>
      </trkpt>
      <trkpt lat="45.02571" lon="2.37967">
        <ele>703.82</ele>
        <time>2026-08-21T10:18:39.163Z</time>
      </trkpt>
      <trkpt lat="45.02569" lon="2.37967">
        <ele>703.91</ele>
        <time>2026-08-21T10:18:40.169Z</time>
      </trkpt>
      <trkpt lat="45.02566" lon="2.37967">
        <ele>704.02</ele>
        <time>2026-08-21T10:18:40.776Z</time>
      </trkpt>
      <trkpt lat="45.02564" lon="2.37966">
        <ele>704.12</ele>
        <time>2026-08-21T10:18:42.166Z</time>
      </trkpt>
      <trkpt lat="45.02562" lon="2.37966">
        <ele>704.19</ele>
        <time>2026-08-21T10:18:43.171Z</time>
      </trkpt>
      <trkpt lat="45.02559" lon="2.37965">
        <ele>704.3</ele>
        <time>2026-08-21T10:18:43.985Z</time>
      </trkpt>
      <trkpt lat="45.02557" lon="2.37965">
        <ele>704.37</ele>
        <time>2026-08-21T10:18:45.173Z</time>
      </trkpt>
      <trkpt lat="45.02555" lon="2.37965">
        <ele>704.47</ele>
        <time>2026-08-21T10:18:46.173Z</time>
      </trkpt>
      <trkpt lat="45.02552" lon="2.37964">
        <ele>704.55</ele>
        <time>2026-08-21T10:18:46.989Z</time>
      </trkpt>
      <trkpt lat="45.0255" lon="2.37964">
        <ele>704.63</ele>
        <time>2026-08-21T10:18:47.839Z</time>
      </trkpt>
      <trkpt lat="45.02547" lon="2.37963">
        <ele>704.72</ele>
        <time>2026-08-21T10:18:48.784Z</time>
      </trkpt>
      <trkpt lat="45.02544" lon="2.37963">
        <ele>704.82</ele>
        <time>2026-08-21T10:18:50.182Z</time>
      </trkpt>
      <trkpt lat="45.02541" lon="2.37963">
        <ele>704.91</ele>
        <time>2026-08-21T10:18:51.183Z</time>
      </trkpt>
      <trkpt lat="45.02539" lon="2.37963">
        <ele>705.01</ele>
        <time>2026-08-21T10:18:51.789Z</time>
      </trkpt>
      <trkpt lat="45.02536" lon="2.37962">
        <ele>705.1</ele>
        <time>2026-08-21T10:18:53.187Z</time>
      </trkpt>
      <trkpt lat="45.02533" lon="2.37962">
        <ele>705.18</ele>
        <time>2026-08-21T10:18:53.764Z</time>
      </trkpt>
      <trkpt lat="45.02531" lon="2.37961">
        <ele>705.27</ele>
        <time>2026-08-21T10:18:55.090Z</time>
      </trkpt>
      <trkpt lat="45.02529" lon="2.37961">
        <ele>705.35</ele>
        <time>2026-08-21T10:18:56.091Z</time>
      </trkpt>
      <trkpt lat="45.02527" lon="2.3796">
        <ele>705.43</ele>
        <time>2026-08-21T10:18:57.094Z</time>
      </trkpt>
      <trkpt lat="45.02523" lon="2.3796">
        <ele>705.52</ele>
        <time>2026-08-21T10:18:58.094Z</time>
      </trkpt>
      <trkpt lat="45.02521" lon="2.3796">
        <ele>705.6</ele>
        <time>2026-08-21T10:18:59.096Z</time>
      </trkpt>
      <trkpt lat="45.02519" lon="2.37961">
        <ele>705.68</ele>
        <time>2026-08-21T10:19:00.098Z</time>
      </trkpt>
      <trkpt lat="45.02517" lon="2.37961">
        <ele>705.76</ele>
        <time>2026-08-21T10:19:01.102Z</time>
      </trkpt>
      <trkpt lat="45.02515" lon="2.37961">
        <ele>705.84</ele>
        <time>2026-08-21T10:19:02.100Z</time>
      </trkpt>
      <trkpt lat="45.02512" lon="2.37961">
        <ele>705.93</ele>
        <time>2026-08-21T10:19:03.102Z</time>
      </trkpt>
      <trkpt lat="45.02509" lon="2.37961">
        <ele>706.01</ele>
        <time>2026-08-21T10:19:04.105Z</time>
      </trkpt>
      <trkpt lat="45.02507" lon="2.3796">
        <ele>706.11</ele>
        <time>2026-08-21T10:19:05.105Z</time>
      </trkpt>
      <trkpt lat="45.02506" lon="2.3796">
        <ele>706.22</ele>
        <time>2026-08-21T10:19:06.108Z</time>
      </trkpt>
      <trkpt lat="45.02504" lon="2.3796">
        <ele>706.31</ele>
        <time>2026-08-21T10:19:07.110Z</time>
      </trkpt>
      <trkpt lat="45.02502" lon="2.3796">
        <ele>706.42</ele>
        <time>2026-08-21T10:19:08.111Z</time>
      </trkpt>
      <trkpt lat="45.02501" lon="2.37959">
        <ele>706.54</ele>
        <time>2026-08-21T10:19:09.113Z</time>
      </trkpt>
      <trkpt lat="45.02499" lon="2.37959">
        <ele>706.65</ele>
        <time>2026-08-21T10:19:10.116Z</time>
      </trkpt>
      <trkpt lat="45.02497" lon="2.37959">
        <ele>706.77</ele>
        <time>2026-08-21T10:19:11.117Z</time>
      </trkpt>
      <trkpt lat="45.02495" lon="2.37959">
        <ele>706.87</ele>
        <time>2026-08-21T10:19:12.119Z</time>
      </trkpt>
      <trkpt lat="45.02494" lon="2.37959">
        <ele>707</ele>
        <time>2026-08-21T10:19:12.998Z</time>
      </trkpt>
      <trkpt lat="45.02493" lon="2.37959">
        <ele>707.12</ele>
        <time>2026-08-21T10:19:14.123Z</time>
      </trkpt>
      <trkpt lat="45.02491" lon="2.37959">
        <ele>707.24</ele>
        <time>2026-08-21T10:19:15.124Z</time>
      </trkpt>
      <trkpt lat="45.02489" lon="2.3796">
        <ele>707.36</ele>
        <time>2026-08-21T10:19:16.208Z</time>
      </trkpt>
      <trkpt lat="45.02488" lon="2.37961">
        <ele>707.49</ele>
        <time>2026-08-21T10:19:16.210Z</time>
      </trkpt>
      <trkpt lat="45.02486" lon="2.37961">
        <ele>707.62</ele>
        <time>2026-08-21T10:19:18.180Z</time>
      </trkpt>
      <trkpt lat="45.02484" lon="2.37962">
        <ele>707.77</ele>
        <time>2026-08-21T10:19:19.133Z</time>
      </trkpt>
      <trkpt lat="45.02483" lon="2.37963">
        <ele>707.92</ele>
        <time>2026-08-21T10:19:20.134Z</time>
      </trkpt>
      <trkpt lat="45.02481" lon="2.37965">
        <ele>708.01</ele>
        <time>2026-08-21T10:19:21.136Z</time>
      </trkpt>
      <trkpt lat="45.02479" lon="2.37966">
        <ele>708.16</ele>
        <time>2026-08-21T10:19:22.139Z</time>
      </trkpt>
      <trkpt lat="45.02477" lon="2.37967">
        <ele>708.26</ele>
        <time>2026-08-21T10:19:23.141Z</time>
      </trkpt>
      <trkpt lat="45.02476" lon="2.37967">
        <ele>708.41</ele>
        <time>2026-08-21T10:19:24.143Z</time>
      </trkpt>
      <trkpt lat="45.02473" lon="2.37969">
        <ele>709.37</ele>
        <time>2026-08-21T10:19:31.534Z</time>
      </trkpt>
      <trkpt lat="45.02472" lon="2.37969">
        <ele>709.53</ele>
        <time>2026-08-21T10:19:32.539Z</time>
      </trkpt>
      <trkpt lat="45.02471" lon="2.37969">
        <ele>709.66</ele>
        <time>2026-08-21T10:19:32.553Z</time>
      </trkpt>
      <trkpt lat="45.02469" lon="2.37969">
        <ele>709.77</ele>
        <time>2026-08-21T10:19:33.554Z</time>
      </trkpt>
      <trkpt lat="45.02467" lon="2.37969">
        <ele>709.87</ele>
        <time>2026-08-21T10:19:35.527Z</time>
      </trkpt>
      <trkpt lat="45.02466" lon="2.37969">
        <ele>709.96</ele>
        <time>2026-08-21T10:19:36.467Z</time>
      </trkpt>
      <trkpt lat="45.02464" lon="2.37968">
        <ele>710.05</ele>
        <time>2026-08-21T10:19:37.469Z</time>
      </trkpt>
      <trkpt lat="45.02462" lon="2.37969">
        <ele>710.16</ele>
        <time>2026-08-21T10:19:38.471Z</time>
      </trkpt>
      <trkpt lat="45.02459" lon="2.37969">
        <ele>710.28</ele>
        <time>2026-08-21T10:19:39.473Z</time>
      </trkpt>
      <trkpt lat="45.02457" lon="2.37969">
        <ele>710.4</ele>
        <time>2026-08-21T10:19:40.553Z</time>
      </trkpt>
      <trkpt lat="45.02455" lon="2.37969">
        <ele>710.5</ele>
        <time>2026-08-21T10:19:41.548Z</time>
      </trkpt>
      <trkpt lat="45.02451" lon="2.37971">
        <ele>710.74</ele>
        <time>2026-08-21T10:19:43.481Z</time>
      </trkpt>
      <trkpt lat="45.02447" lon="2.37972">
        <ele>711.82</ele>
        <time>2026-08-21T10:20:02.800Z</time>
      </trkpt>
      <trkpt lat="45.02447" lon="2.37971">
        <ele>712.28</ele>
        <time>2026-08-21T10:20:08.068Z</time>
      </trkpt>
      <trkpt lat="45.02444" lon="2.37973">
        <ele>712.34</ele>
        <time>2026-08-21T10:20:13.097Z</time>
      </trkpt>
      <trkpt lat="45.02441" lon="2.37974">
        <ele>712.93</ele>
        <time>2026-08-21T10:20:16.152Z</time>
      </trkpt>
      <trkpt lat="45.0244" lon="2.37974">
        <ele>713.09</ele>
        <time>2026-08-21T10:20:18.784Z</time>
      </trkpt>
      <trkpt lat="45.02439" lon="2.37974">
        <ele>713.18</ele>
        <time>2026-08-21T10:20:21.076Z</time>
      </trkpt>
      <trkpt lat="45.02438" lon="2.37975">
        <ele>713.23</ele>
        <time>2026-08-21T10:20:22.079Z</time>
      </trkpt>
      <trkpt lat="45.02436" lon="2.37976">
        <ele>713.34</ele>
        <time>2026-08-21T10:20:24.086Z</time>
      </trkpt>
      <trkpt lat="45.02435" lon="2.37976">
        <ele>713.4</ele>
        <time>2026-08-21T10:20:25.151Z</time>
      </trkpt>
      <trkpt lat="45.02434" lon="2.37977">
        <ele>713.46</ele>
        <time>2026-08-21T10:20:26.093Z</time>
      </trkpt>
      <trkpt lat="45.02433" lon="2.37978">
        <ele>713.52</ele>
        <time>2026-08-21T10:20:27.098Z</time>
      </trkpt>
      <trkpt lat="45.02431" lon="2.37979">
        <ele>713.58</ele>
        <time>2026-08-21T10:20:28.179Z</time>
      </trkpt>
      <trkpt lat="45.0243" lon="2.37979">
        <ele>713.65</ele>
        <time>2026-08-21T10:20:29.105Z</time>
      </trkpt>
      <trkpt lat="45.02428" lon="2.3798">
        <ele>713.72</ele>
        <time>2026-08-21T10:20:30.107Z</time>
      </trkpt>
      <trkpt lat="45.02426" lon="2.37981">
        <ele>713.8</ele>
        <time>2026-08-21T10:20:31.112Z</time>
      </trkpt>
      <trkpt lat="45.02424" lon="2.37982">
        <ele>713.88</ele>
        <time>2026-08-21T10:20:32.114Z</time>
      </trkpt>
      <trkpt lat="45.02422" lon="2.37983">
        <ele>713.95</ele>
        <time>2026-08-21T10:20:33.174Z</time>
      </trkpt>
      <trkpt lat="45.0242" lon="2.37983">
        <ele>714.03</ele>
        <time>2026-08-21T10:20:34.122Z</time>
      </trkpt>
      <trkpt lat="45.02419" lon="2.37983">
        <ele>714.12</ele>
        <time>2026-08-21T10:20:35.070Z</time>
      </trkpt>
      <trkpt lat="45.02417" lon="2.37984">
        <ele>714.18</ele>
        <time>2026-08-21T10:20:35.212Z</time>
      </trkpt>
      <trkpt lat="45.02415" lon="2.37984">
        <ele>714.27</ele>
        <time>2026-08-21T10:20:36.205Z</time>
      </trkpt>
      <trkpt lat="45.02412" lon="2.37985">
        <ele>714.37</ele>
        <time>2026-08-21T10:20:37.209Z</time>
      </trkpt>
      <trkpt lat="45.0241" lon="2.37985">
        <ele>714.45</ele>
        <time>2026-08-21T10:20:39.166Z</time>
      </trkpt>
      <trkpt lat="45.02408" lon="2.37986">
        <ele>714.54</ele>
        <time>2026-08-21T10:20:40.145Z</time>
      </trkpt>
      <trkpt lat="45.02406" lon="2.37987">
        <ele>714.63</ele>
        <time>2026-08-21T10:20:40.719Z</time>
      </trkpt>
      <trkpt lat="45.02404" lon="2.37987">
        <ele>714.72</ele>
        <time>2026-08-21T10:20:42.167Z</time>
      </trkpt>
      <trkpt lat="45.02402" lon="2.37988">
        <ele>714.82</ele>
        <time>2026-08-21T10:20:43.014Z</time>
      </trkpt>
      <trkpt lat="45.02397" lon="2.37989">
        <ele>715.02</ele>
        <time>2026-08-21T10:20:44.253Z</time>
      </trkpt>
      <trkpt lat="45.02396" lon="2.3799">
        <ele>715.12</ele>
        <time>2026-08-21T10:20:46.163Z</time>
      </trkpt>
      <trkpt lat="45.02394" lon="2.3799">
        <ele>715.19</ele>
        <time>2026-08-21T10:20:47.012Z</time>
      </trkpt>
      <trkpt lat="45.02393" lon="2.37991">
        <ele>715.29</ele>
        <time>2026-08-21T10:20:48.169Z</time>
      </trkpt>
      <trkpt lat="45.02391" lon="2.37991">
        <ele>715.42</ele>
        <time>2026-08-21T10:20:49.171Z</time>
      </trkpt>
      <trkpt lat="45.0239" lon="2.37992">
        <ele>715.53</ele>
        <time>2026-08-21T10:20:50.149Z</time>
      </trkpt>
      <trkpt lat="45.02387" lon="2.37993">
        <ele>715.66</ele>
        <time>2026-08-21T10:20:51.177Z</time>
      </trkpt>
      <trkpt lat="45.02385" lon="2.37993">
        <ele>715.85</ele>
        <time>2026-08-21T10:20:51.874Z</time>
      </trkpt>
      <trkpt lat="45.02383" lon="2.37994">
        <ele>716.02</ele>
        <time>2026-08-21T10:20:52.769Z</time>
      </trkpt>
      <trkpt lat="45.02381" lon="2.37994">
        <ele>716.15</ele>
        <time>2026-08-21T10:20:53.795Z</time>
      </trkpt>
      <trkpt lat="45.02379" lon="2.37995">
        <ele>716.28</ele>
        <time>2026-08-21T10:20:55.050Z</time>
      </trkpt>
      <trkpt lat="45.02378" lon="2.37995">
        <ele>716.41</ele>
        <time>2026-08-21T10:20:55.943Z</time>
      </trkpt>
      <trkpt lat="45.02376" lon="2.37996">
        <ele>716.54</ele>
        <time>2026-08-21T10:20:56.798Z</time>
      </trkpt>
      <trkpt lat="45.02374" lon="2.37998">
        <ele>716.7</ele>
        <time>2026-08-21T10:20:57.780Z</time>
      </trkpt>
      <trkpt lat="45.02373" lon="2.37999">
        <ele>716.84</ele>
        <time>2026-08-21T10:20:58.802Z</time>
      </trkpt>
      <trkpt lat="45.02371" lon="2.38">
        <ele>716.97</ele>
        <time>2026-08-21T10:21:00.168Z</time>
      </trkpt>
      <trkpt lat="45.0237" lon="2.38001">
        <ele>717.11</ele>
        <time>2026-08-21T10:21:00.780Z</time>
      </trkpt>
      <trkpt lat="45.02369" lon="2.38002">
        <ele>717.26</ele>
        <time>2026-08-21T10:21:01.771Z</time>
      </trkpt>
      <trkpt lat="45.02367" lon="2.38003">
        <ele>717.4</ele>
        <time>2026-08-21T10:21:02.851Z</time>
      </trkpt>
      <trkpt lat="45.02366" lon="2.38004">
        <ele>717.56</ele>
        <time>2026-08-21T10:21:03.785Z</time>
      </trkpt>
      <trkpt lat="45.02364" lon="2.38006">
        <ele>717.7</ele>
        <time>2026-08-21T10:21:04.776Z</time>
      </trkpt>
      <trkpt lat="45.02362" lon="2.38007">
        <ele>717.83</ele>
        <time>2026-08-21T10:21:05.789Z</time>
      </trkpt>
      <trkpt lat="45.02361" lon="2.38008">
        <ele>717.97</ele>
        <time>2026-08-21T10:21:07.120Z</time>
      </trkpt>
      <trkpt lat="45.02359" lon="2.38009">
        <ele>718.14</ele>
        <time>2026-08-21T10:21:08.123Z</time>
      </trkpt>
      <trkpt lat="45.02358" lon="2.3801">
        <ele>718.34</ele>
        <time>2026-08-21T10:21:09.126Z</time>
      </trkpt>
      <trkpt lat="45.02357" lon="2.38011">
        <ele>718.48</ele>
        <time>2026-08-21T10:21:10.131Z</time>
      </trkpt>
      <trkpt lat="45.02355" lon="2.38012">
        <ele>718.72</ele>
        <time>2026-08-21T10:21:11.131Z</time>
      </trkpt>
      <trkpt lat="45.02354" lon="2.38013">
        <ele>718.89</ele>
        <time>2026-08-21T10:21:12.135Z</time>
      </trkpt>
      <trkpt lat="45.02352" lon="2.38015">
        <ele>719.06</ele>
        <time>2026-08-21T10:21:13.137Z</time>
      </trkpt>
      <trkpt lat="45.02351" lon="2.38016">
        <ele>719.3</ele>
        <time>2026-08-21T10:21:14.140Z</time>
      </trkpt>
      <trkpt lat="45.02349" lon="2.38016">
        <ele>719.48</ele>
        <time>2026-08-21T10:21:15.142Z</time>
      </trkpt>
      <trkpt lat="45.02348" lon="2.38017">
        <ele>719.66</ele>
        <time>2026-08-21T10:21:16.146Z</time>
      </trkpt>
      <trkpt lat="45.02347" lon="2.38017">
        <ele>719.82</ele>
        <time>2026-08-21T10:21:17.172Z</time>
      </trkpt>
      <trkpt lat="45.02345" lon="2.38019">
        <ele>719.95</ele>
        <time>2026-08-21T10:21:18.151Z</time>
      </trkpt>
      <trkpt lat="45.02345" lon="2.3802">
        <ele>720.14</ele>
        <time>2026-08-21T10:21:19.157Z</time>
      </trkpt>
      <trkpt lat="45.02343" lon="2.38021">
        <ele>720.33</ele>
        <time>2026-08-21T10:21:20.157Z</time>
      </trkpt>
      <trkpt lat="45.02341" lon="2.38023">
        <ele>720.53</ele>
        <time>2026-08-21T10:21:21.161Z</time>
      </trkpt>
      <trkpt lat="45.02338" lon="2.38027">
        <ele>720.94</ele>
        <time>2026-08-21T10:21:23.168Z</time>
      </trkpt>
      <trkpt lat="45.02337" lon="2.38029">
        <ele>721.2</ele>
        <time>2026-08-21T10:21:24.170Z</time>
      </trkpt>
      <trkpt lat="45.02336" lon="2.3803">
        <ele>721.39</ele>
        <time>2026-08-21T10:21:25.174Z</time>
      </trkpt>
      <trkpt lat="45.02334" lon="2.38033">
        <ele>721.59</ele>
        <time>2026-08-21T10:21:25.771Z</time>
      </trkpt>
      <trkpt lat="45.02332" lon="2.38038">
        <ele>721.99</ele>
        <time>2026-08-21T10:21:27.813Z</time>
      </trkpt>
      <trkpt lat="45.02331" lon="2.3804">
        <ele>722.2</ele>
        <time>2026-08-21T10:21:28.782Z</time>
      </trkpt>
      <trkpt lat="45.0233" lon="2.38042">
        <ele>722.37</ele>
        <time>2026-08-21T10:21:30.186Z</time>
      </trkpt>
      <trkpt lat="45.02329" lon="2.38047">
        <ele>722.79</ele>
        <time>2026-08-21T10:21:32.103Z</time>
      </trkpt>
      <trkpt lat="45.02328" lon="2.38049">
        <ele>723.02</ele>
        <time>2026-08-21T10:21:32.796Z</time>
      </trkpt>
      <trkpt lat="45.02327" lon="2.3805">
        <ele>723.23</ele>
        <time>2026-08-21T10:21:34.202Z</time>
      </trkpt>
      <trkpt lat="45.02326" lon="2.38052">
        <ele>723.46</ele>
        <time>2026-08-21T10:21:34.771Z</time>
      </trkpt>
      <trkpt lat="45.02325" lon="2.38054">
        <ele>723.68</ele>
        <time>2026-08-21T10:21:35.792Z</time>
      </trkpt>
      <trkpt lat="45.02325" lon="2.38056">
        <ele>723.92</ele>
        <time>2026-08-21T10:21:36.781Z</time>
      </trkpt>
      <trkpt lat="45.02325" lon="2.38058">
        <ele>724.15</ele>
        <time>2026-08-21T10:21:37.805Z</time>
      </trkpt>
      <trkpt lat="45.02325" lon="2.38061">
        <ele>724.4</ele>
        <time>2026-08-21T10:21:38.790Z</time>
      </trkpt>
      <trkpt lat="45.02323" lon="2.38067">
        <ele>724.87</ele>
        <time>2026-08-21T10:21:41.074Z</time>
      </trkpt>
      <trkpt lat="45.02323" lon="2.38068">
        <ele>725.1</ele>
        <time>2026-08-21T10:21:41.792Z</time>
      </trkpt>
      <trkpt lat="45.02322" lon="2.3807">
        <ele>725.34</ele>
        <time>2026-08-21T10:21:42.815Z</time>
      </trkpt>
      <trkpt lat="45.02321" lon="2.38072">
        <ele>725.57</ele>
        <time>2026-08-21T10:21:43.803Z</time>
      </trkpt>
      <trkpt lat="45.02321" lon="2.38074">
        <ele>725.79</ele>
        <time>2026-08-21T10:21:44.792Z</time>
      </trkpt>
      <trkpt lat="45.0232" lon="2.38076">
        <ele>726.01</ele>
        <time>2026-08-21T10:21:45.789Z</time>
      </trkpt>
      <trkpt lat="45.02319" lon="2.38077">
        <ele>726.25</ele>
        <time>2026-08-21T10:21:46.777Z</time>
      </trkpt>
      <trkpt lat="45.02317" lon="2.38082">
        <ele>726.73</ele>
        <time>2026-08-21T10:21:48.780Z</time>
      </trkpt>
      <trkpt lat="45.02316" lon="2.38083">
        <ele>726.96</ele>
        <time>2026-08-21T10:21:50.024Z</time>
      </trkpt>
      <trkpt lat="45.02315" lon="2.38085">
        <ele>727.25</ele>
        <time>2026-08-21T10:21:51.175Z</time>
      </trkpt>
      <trkpt lat="45.02314" lon="2.38086">
        <ele>727.49</ele>
        <time>2026-08-21T10:21:51.815Z</time>
      </trkpt>
      <trkpt lat="45.02313" lon="2.38088">
        <ele>727.71</ele>
        <time>2026-08-21T10:21:52.780Z</time>
      </trkpt>
      <trkpt lat="45.02312" lon="2.38089">
        <ele>727.92</ele>
        <time>2026-08-21T10:21:53.795Z</time>
      </trkpt>
      <trkpt lat="45.02311" lon="2.38091">
        <ele>728.14</ele>
        <time>2026-08-21T10:21:55.261Z</time>
      </trkpt>
      <trkpt lat="45.0231" lon="2.38092">
        <ele>728.36</ele>
        <time>2026-08-21T10:21:55.327Z</time>
      </trkpt>
      <trkpt lat="45.02308" lon="2.38093">
        <ele>728.58</ele>
        <time>2026-08-21T10:21:57.255Z</time>
      </trkpt>
      <trkpt lat="45.02306" lon="2.38094">
        <ele>728.83</ele>
        <time>2026-08-21T10:21:57.817Z</time>
      </trkpt>
      <trkpt lat="45.02304" lon="2.38095">
        <ele>729.04</ele>
        <time>2026-08-21T10:21:58.777Z</time>
      </trkpt>
      <trkpt lat="45.02302" lon="2.38095">
        <ele>729.22</ele>
        <time>2026-08-21T10:21:59.801Z</time>
      </trkpt>
      <trkpt lat="45.023" lon="2.38095">
        <ele>729.47</ele>
        <time>2026-08-21T10:22:00.782Z</time>
      </trkpt>
      <trkpt lat="45.02298" lon="2.38095">
        <ele>729.67</ele>
        <time>2026-08-21T10:22:01.800Z</time>
      </trkpt>
      <trkpt lat="45.02296" lon="2.38095">
        <ele>729.86</ele>
        <time>2026-08-21T10:22:02.994Z</time>
      </trkpt>
      <trkpt lat="45.02294" lon="2.38095">
        <ele>730.08</ele>
        <time>2026-08-21T10:22:04.261Z</time>
      </trkpt>
      <trkpt lat="45.02292" lon="2.38095">
        <ele>730.31</ele>
        <time>2026-08-21T10:22:05.171Z</time>
      </trkpt>
      <trkpt lat="45.0229" lon="2.38094">
        <ele>730.57</ele>
        <time>2026-08-21T10:22:06.173Z</time>
      </trkpt>
      <trkpt lat="45.02288" lon="2.38093">
        <ele>730.7</ele>
        <time>2026-08-21T10:22:07.175Z</time>
      </trkpt>
      <trkpt lat="45.02287" lon="2.38092">
        <ele>730.91</ele>
        <time>2026-08-21T10:22:08.177Z</time>
      </trkpt>
      <trkpt lat="45.02285" lon="2.38092">
        <ele>731.15</ele>
        <time>2026-08-21T10:22:09.181Z</time>
      </trkpt>
      <trkpt lat="45.02284" lon="2.38091">
        <ele>731.3</ele>
        <time>2026-08-21T10:22:10.180Z</time>
      </trkpt>
      <trkpt lat="45.02282" lon="2.38091">
        <ele>731.53</ele>
        <time>2026-08-21T10:22:11.184Z</time>
      </trkpt>
      <trkpt lat="45.0228" lon="2.38091">
        <ele>731.79</ele>
        <time>2026-08-21T10:22:12.184Z</time>
      </trkpt>
      <trkpt lat="45.02276" lon="2.38095">
        <ele>733.02</ele>
        <time>2026-08-21T10:22:18.061Z</time>
      </trkpt>
      <trkpt lat="45.02268" lon="2.38098">
        <ele>738.5</ele>
        <time>2026-08-21T10:24:13.471Z</time>
      </trkpt>
      <trkpt lat="45.02265" lon="2.38098">
        <ele>738.57</ele>
        <time>2026-08-21T10:26:06.085Z</time>
      </trkpt>
      <trkpt lat="45.02263" lon="2.38096">
        <ele>738.61</ele>
        <time>2026-08-21T10:28:20.026Z</time>
      </trkpt>
      <trkpt lat="45.02261" lon="2.38095">
        <ele>738.61</ele>
        <time>2026-08-21T10:28:59.676Z</time>
      </trkpt>
      <trkpt lat="45.02259" lon="2.38095">
        <ele>740.75</ele>
        <time>2026-08-21T10:29:01.146Z</time>
      </trkpt>
      <trkpt lat="45.02258" lon="2.38095">
        <ele>740.76</ele>
        <time>2026-08-21T10:29:01.894Z</time>
      </trkpt>
      <trkpt lat="45.02258" lon="2.38094">
        <ele>740.76</ele>
        <time>2026-08-21T10:29:02.167Z</time>
      </trkpt>
      <trkpt lat="45.02256" lon="2.38094">
        <ele>740.77</ele>
        <time>2026-08-21T10:29:03.160Z</time>
      </trkpt>
      <trkpt lat="45.02253" lon="2.38094">
        <ele>740.78</ele>
        <time>2026-08-21T10:29:05.172Z</time>
      </trkpt>
      <trkpt lat="45.02252" lon="2.38094">
        <ele>740.79</ele>
        <time>2026-08-21T10:29:07.157Z</time>
      </trkpt>
      <trkpt lat="45.0225" lon="2.38094">
        <ele>740.79</ele>
        <time>2026-08-21T10:29:08.146Z</time>
      </trkpt>
      <trkpt lat="45.02249" lon="2.38094">
        <ele>740.8</ele>
        <time>2026-08-21T10:29:09.156Z</time>
      </trkpt>
      <trkpt lat="45.02247" lon="2.38095">
        <ele>740.82</ele>
        <time>2026-08-21T10:29:10.151Z</time>
      </trkpt>
      <trkpt lat="45.02246" lon="2.38095">
        <ele>740.84</ele>
        <time>2026-08-21T10:29:11.149Z</time>
      </trkpt>
      <trkpt lat="45.02244" lon="2.38095">
        <ele>740.86</ele>
        <time>2026-08-21T10:29:12.062Z</time>
      </trkpt>
      <trkpt lat="45.02243" lon="2.38095">
        <ele>740.88</ele>
        <time>2026-08-21T10:29:13.161Z</time>
      </trkpt>
      <trkpt lat="45.02242" lon="2.38095">
        <ele>740.9</ele>
        <time>2026-08-21T10:29:14.167Z</time>
      </trkpt>
      <trkpt lat="45.02239" lon="2.38096">
        <ele>740.98</ele>
        <time>2026-08-21T10:29:16.186Z</time>
      </trkpt>
      <trkpt lat="45.02239" lon="2.38097">
        <ele>741.03</ele>
        <time>2026-08-21T10:29:16.744Z</time>
      </trkpt>
      <trkpt lat="45.02237" lon="2.38097">
        <ele>741.09</ele>
        <time>2026-08-21T10:29:18.176Z</time>
      </trkpt>
      <trkpt lat="45.02236" lon="2.38097">
        <ele>741.15</ele>
        <time>2026-08-21T10:29:19.177Z</time>
      </trkpt>
      <trkpt lat="45.02234" lon="2.38097">
        <ele>741.21</ele>
        <time>2026-08-21T10:29:20.181Z</time>
      </trkpt>
      <trkpt lat="45.02232" lon="2.38097">
        <ele>741.28</ele>
        <time>2026-08-21T10:29:21.099Z</time>
      </trkpt>
      <trkpt lat="45.0223" lon="2.38097">
        <ele>741.35</ele>
        <time>2026-08-21T10:29:22.153Z</time>
      </trkpt>
      <trkpt lat="45.02229" lon="2.38097">
        <ele>741.41</ele>
        <time>2026-08-21T10:29:23.190Z</time>
      </trkpt>
      <trkpt lat="45.02225" lon="2.38098">
        <ele>741.58</ele>
        <time>2026-08-21T10:29:25.161Z</time>
      </trkpt>
      <trkpt lat="45.02224" lon="2.38098">
        <ele>741.67</ele>
        <time>2026-08-21T10:29:25.261Z</time>
      </trkpt>
      <trkpt lat="45.02224" lon="2.38099">
        <ele>741.76</ele>
        <time>2026-08-21T10:29:27.103Z</time>
      </trkpt>
      <trkpt lat="45.02222" lon="2.38099">
        <ele>741.85</ele>
        <time>2026-08-21T10:29:28.105Z</time>
      </trkpt>
      <trkpt lat="45.02221" lon="2.381">
        <ele>741.96</ele>
        <time>2026-08-21T10:29:29.112Z</time>
      </trkpt>
      <trkpt lat="45.02219" lon="2.381">
        <ele>742.07</ele>
        <time>2026-08-21T10:29:30.192Z</time>
      </trkpt>
      <trkpt lat="45.02217" lon="2.381">
        <ele>742.17</ele>
        <time>2026-08-21T10:29:31.112Z</time>
      </trkpt>
      <trkpt lat="45.02213" lon="2.38102">
        <ele>742.4</ele>
        <time>2026-08-21T10:29:33.157Z</time>
      </trkpt>
      <trkpt lat="45.02212" lon="2.38102">
        <ele>742.51</ele>
        <time>2026-08-21T10:29:34.118Z</time>
      </trkpt>
      <trkpt lat="45.02211" lon="2.38103">
        <ele>742.67</ele>
        <time>2026-08-21T10:29:35.121Z</time>
      </trkpt>
      <trkpt lat="45.0221" lon="2.38104">
        <ele>742.82</ele>
        <time>2026-08-21T10:29:36.125Z</time>
      </trkpt>
      <trkpt lat="45.02208" lon="2.38105">
        <ele>742.96</ele>
        <time>2026-08-21T10:29:37.126Z</time>
      </trkpt>
      <trkpt lat="45.02207" lon="2.38106">
        <ele>743.12</ele>
        <time>2026-08-21T10:29:38.130Z</time>
      </trkpt>
      <trkpt lat="45.02205" lon="2.38107">
        <ele>743.27</ele>
        <time>2026-08-21T10:29:39.136Z</time>
      </trkpt>
      <trkpt lat="45.02203" lon="2.38108">
        <ele>743.42</ele>
        <time>2026-08-21T10:29:40.136Z</time>
      </trkpt>
      <trkpt lat="45.02202" lon="2.38108">
        <ele>743.6</ele>
        <time>2026-08-21T10:29:41.183Z</time>
      </trkpt>
      <trkpt lat="45.022" lon="2.38109">
        <ele>743.77</ele>
        <time>2026-08-21T10:29:42.141Z</time>
      </trkpt>
      <trkpt lat="45.02198" lon="2.38111">
        <ele>743.97</ele>
        <time>2026-08-21T10:29:43.144Z</time>
      </trkpt>
      <trkpt lat="45.02196" lon="2.38112">
        <ele>744.16</ele>
        <time>2026-08-21T10:29:44.147Z</time>
      </trkpt>
      <trkpt lat="45.02191" lon="2.38114">
        <ele>744.56</ele>
        <time>2026-08-21T10:29:46.150Z</time>
      </trkpt>
      <trkpt lat="45.0219" lon="2.38114">
        <ele>744.76</ele>
        <time>2026-08-21T10:29:47.155Z</time>
      </trkpt>
      <trkpt lat="45.02189" lon="2.38115">
        <ele>744.98</ele>
        <time>2026-08-21T10:29:48.155Z</time>
      </trkpt>
      <trkpt lat="45.02187" lon="2.38115">
        <ele>745.19</ele>
        <time>2026-08-21T10:29:49.159Z</time>
      </trkpt>
      <trkpt lat="45.02184" lon="2.38117">
        <ele>745.63</ele>
        <time>2026-08-21T10:29:51.163Z</time>
      </trkpt>
      <trkpt lat="45.02182" lon="2.38118">
        <ele>745.83</ele>
        <time>2026-08-21T10:29:52.167Z</time>
      </trkpt>
      <trkpt lat="45.02182" lon="2.38119">
        <ele>746.02</ele>
        <time>2026-08-21T10:29:53.171Z</time>
      </trkpt>
      <trkpt lat="45.02181" lon="2.38121">
        <ele>746.24</ele>
        <time>2026-08-21T10:29:54.183Z</time>
      </trkpt>
      <trkpt lat="45.02181" lon="2.38123">
        <ele>746.45</ele>
        <time>2026-08-21T10:29:55.172Z</time>
      </trkpt>
      <trkpt lat="45.02182" lon="2.38128">
        <ele>746.89</ele>
        <time>2026-08-21T10:29:57.199Z</time>
      </trkpt>
      <trkpt lat="45.02182" lon="2.3813">
        <ele>747.09</ele>
        <time>2026-08-21T10:29:58.181Z</time>
      </trkpt>
      <trkpt lat="45.02183" lon="2.38132">
        <ele>747.32</ele>
        <time>2026-08-21T10:29:59.185Z</time>
      </trkpt>
      <trkpt lat="45.02184" lon="2.38133">
        <ele>747.55</ele>
        <time>2026-08-21T10:30:00.193Z</time>
      </trkpt>
      <trkpt lat="45.02185" lon="2.38135">
        <ele>747.77</ele>
        <time>2026-08-21T10:30:01.189Z</time>
      </trkpt>
      <trkpt lat="45.02186" lon="2.3814">
        <ele>748.19</ele>
        <time>2026-08-21T10:30:02.824Z</time>
      </trkpt>
      <trkpt lat="45.02187" lon="2.38141">
        <ele>748.42</ele>
        <time>2026-08-21T10:30:04.197Z</time>
      </trkpt>
      <trkpt lat="45.02187" lon="2.38143">
        <ele>748.63</ele>
        <time>2026-08-21T10:30:04.802Z</time>
      </trkpt>
      <trkpt lat="45.02187" lon="2.38145">
        <ele>748.84</ele>
        <time>2026-08-21T10:30:06.205Z</time>
      </trkpt>
      <trkpt lat="45.02188" lon="2.38148">
        <ele>749.05</ele>
        <time>2026-08-21T10:30:07.175Z</time>
      </trkpt>
      <trkpt lat="45.02189" lon="2.3815">
        <ele>749.26</ele>
        <time>2026-08-21T10:30:07.899Z</time>
      </trkpt>
      <trkpt lat="45.0219" lon="2.38156">
        <ele>749.68</ele>
        <time>2026-08-21T10:30:09.817Z</time>
      </trkpt>
      <trkpt lat="45.0219" lon="2.38157">
        <ele>749.9</ele>
        <time>2026-08-21T10:30:10.803Z</time>
      </trkpt>
      <trkpt lat="45.0219" lon="2.38159">
        <ele>750.12</ele>
        <time>2026-08-21T10:30:12.214Z</time>
      </trkpt>
      <trkpt lat="45.02191" lon="2.38161">
        <ele>750.33</ele>
        <time>2026-08-21T10:30:12.814Z</time>
      </trkpt>
      <trkpt lat="45.02192" lon="2.38164">
        <ele>750.54</ele>
        <time>2026-08-21T10:30:13.807Z</time>
      </trkpt>
      <trkpt lat="45.02192" lon="2.38166">
        <ele>750.77</ele>
        <time>2026-08-21T10:30:14.826Z</time>
      </trkpt>
      <trkpt lat="45.02192" lon="2.38168">
        <ele>751</ele>
        <time>2026-08-21T10:30:15.816Z</time>
      </trkpt>
      <trkpt lat="45.02193" lon="2.3817">
        <ele>751.24</ele>
        <time>2026-08-21T10:30:16.804Z</time>
      </trkpt>
      <trkpt lat="45.02193" lon="2.38173">
        <ele>751.48</ele>
        <time>2026-08-21T10:30:17.795Z</time>
      </trkpt>
      <trkpt lat="45.02194" lon="2.38176">
        <ele>751.72</ele>
        <time>2026-08-21T10:30:18.814Z</time>
      </trkpt>
      <trkpt lat="45.02194" lon="2.38178">
        <ele>751.95</ele>
        <time>2026-08-21T10:30:20.066Z</time>
      </trkpt>
      <trkpt lat="45.02194" lon="2.38181">
        <ele>752.18</ele>
        <time>2026-08-21T10:30:20.824Z</time>
      </trkpt>
      <trkpt lat="45.02194" lon="2.38184">
        <ele>752.42</ele>
        <time>2026-08-21T10:30:21.813Z</time>
      </trkpt>
      <trkpt lat="45.02194" lon="2.38186">
        <ele>752.66</ele>
        <time>2026-08-21T10:30:23.148Z</time>
      </trkpt>
      <trkpt lat="45.02194" lon="2.38189">
        <ele>752.88</ele>
        <time>2026-08-21T10:30:23.796Z</time>
      </trkpt>
      <trkpt lat="45.02193" lon="2.38192">
        <ele>753.11</ele>
        <time>2026-08-21T10:30:24.787Z</time>
      </trkpt>
      <trkpt lat="45.02193" lon="2.38194">
        <ele>753.34</ele>
        <time>2026-08-21T10:30:25.830Z</time>
      </trkpt>
      <trkpt lat="45.02193" lon="2.38198">
        <ele>753.56</ele>
        <time>2026-08-21T10:30:26.792Z</time>
      </trkpt>
      <trkpt lat="45.02193" lon="2.382">
        <ele>753.79</ele>
        <time>2026-08-21T10:30:27.817Z</time>
      </trkpt>
      <trkpt lat="45.02192" lon="2.38203">
        <ele>754.01</ele>
        <time>2026-08-21T10:30:29.139Z</time>
      </trkpt>
      <trkpt lat="45.02192" lon="2.38206">
        <ele>754.24</ele>
        <time>2026-08-21T10:30:29.827Z</time>
      </trkpt>
      <trkpt lat="45.02192" lon="2.38208">
        <ele>754.46</ele>
        <time>2026-08-21T10:30:30.813Z</time>
      </trkpt>
      <trkpt lat="45.02191" lon="2.38211">
        <ele>754.7</ele>
        <time>2026-08-21T10:30:31.809Z</time>
      </trkpt>
      <trkpt lat="45.02191" lon="2.38214">
        <ele>754.94</ele>
        <time>2026-08-21T10:30:32.293Z</time>
      </trkpt>
      <trkpt lat="45.02191" lon="2.38217">
        <ele>755.15</ele>
        <time>2026-08-21T10:30:33.817Z</time>
      </trkpt>
      <trkpt lat="45.02191" lon="2.38219">
        <ele>755.37</ele>
        <time>2026-08-21T10:30:34.295Z</time>
      </trkpt>
      <trkpt lat="45.02191" lon="2.38222">
        <ele>755.6</ele>
        <time>2026-08-21T10:30:35.793Z</time>
      </trkpt>
      <trkpt lat="45.02191" lon="2.38225">
        <ele>755.8</ele>
        <time>2026-08-21T10:30:36.813Z</time>
      </trkpt>
      <trkpt lat="45.0219" lon="2.38227">
        <ele>756.03</ele>
        <time>2026-08-21T10:30:37.806Z</time>
      </trkpt>
      <trkpt lat="45.0219" lon="2.3823">
        <ele>756.25</ele>
        <time>2026-08-21T10:30:38.795Z</time>
      </trkpt>
      <trkpt lat="45.0219" lon="2.38233">
        <ele>756.46</ele>
        <time>2026-08-21T10:30:39.813Z</time>
      </trkpt>
      <trkpt lat="45.0219" lon="2.38235">
        <ele>756.67</ele>
        <time>2026-08-21T10:30:41.284Z</time>
      </trkpt>
      <trkpt lat="45.02189" lon="2.38238">
        <ele>756.87</ele>
        <time>2026-08-21T10:30:42.191Z</time>
      </trkpt>
      <trkpt lat="45.02189" lon="2.3824">
        <ele>757.08</ele>
        <time>2026-08-21T10:30:42.814Z</time>
      </trkpt>
      <trkpt lat="45.02189" lon="2.38242">
        <ele>757.29</ele>
        <time>2026-08-21T10:30:44.285Z</time>
      </trkpt>
      <trkpt lat="45.02189" lon="2.38245">
        <ele>757.5</ele>
        <time>2026-08-21T10:30:45.277Z</time>
      </trkpt>
      <trkpt lat="45.02188" lon="2.38248">
        <ele>757.7</ele>
        <time>2026-08-21T10:30:46.295Z</time>
      </trkpt>
      <trkpt lat="45.02188" lon="2.3825">
        <ele>757.91</ele>
        <time>2026-08-21T10:30:47.280Z</time>
      </trkpt>
      <trkpt lat="45.02188" lon="2.38253">
        <ele>758.11</ele>
        <time>2026-08-21T10:30:47.824Z</time>
      </trkpt>
      <trkpt lat="45.02188" lon="2.38256">
        <ele>758.31</ele>
        <time>2026-08-21T10:30:49.296Z</time>
      </trkpt>
      <trkpt lat="45.02188" lon="2.38259">
        <ele>758.52</ele>
        <time>2026-08-21T10:30:50.294Z</time>
      </trkpt>
      <trkpt lat="45.02188" lon="2.38261">
        <ele>758.74</ele>
        <time>2026-08-21T10:30:50.792Z</time>
      </trkpt>
      <trkpt lat="45.02187" lon="2.38264">
        <ele>758.92</ele>
        <time>2026-08-21T10:30:51.906Z</time>
      </trkpt>
      <trkpt lat="45.02187" lon="2.38266">
        <ele>759.11</ele>
        <time>2026-08-21T10:30:52.802Z</time>
      </trkpt>
      <trkpt lat="45.02187" lon="2.38269">
        <ele>759.31</ele>
        <time>2026-08-21T10:30:54.308Z</time>
      </trkpt>
      <trkpt lat="45.02187" lon="2.38272">
        <ele>759.52</ele>
        <time>2026-08-21T10:30:55.289Z</time>
      </trkpt>
      <trkpt lat="45.02186" lon="2.38275">
        <ele>759.72</ele>
        <time>2026-08-21T10:30:55.802Z</time>
      </trkpt>
      <trkpt lat="45.02186" lon="2.38277">
        <ele>759.92</ele>
        <time>2026-08-21T10:30:57.305Z</time>
      </trkpt>
      <trkpt lat="45.02186" lon="2.3828">
        <ele>760.1</ele>
        <time>2026-08-21T10:30:58.292Z</time>
      </trkpt>
      <trkpt lat="45.02185" lon="2.38283">
        <ele>760.29</ele>
        <time>2026-08-21T10:30:59.296Z</time>
      </trkpt>
      <trkpt lat="45.02185" lon="2.38286">
        <ele>760.47</ele>
        <time>2026-08-21T10:31:00.295Z</time>
      </trkpt>
      <trkpt lat="45.02186" lon="2.38288">
        <ele>760.68</ele>
        <time>2026-08-21T10:31:01.301Z</time>
      </trkpt>
      <trkpt lat="45.02186" lon="2.38292">
        <ele>760.87</ele>
        <time>2026-08-21T10:31:02.315Z</time>
      </trkpt>
      <trkpt lat="45.02186" lon="2.38294">
        <ele>761.06</ele>
        <time>2026-08-21T10:31:03.301Z</time>
      </trkpt>
      <trkpt lat="45.02185" lon="2.38297">
        <ele>761.24</ele>
        <time>2026-08-21T10:31:04.303Z</time>
      </trkpt>
      <trkpt lat="45.02185" lon="2.38299">
        <ele>761.43</ele>
        <time>2026-08-21T10:31:05.315Z</time>
      </trkpt>
      <trkpt lat="45.02185" lon="2.38302">
        <ele>761.61</ele>
        <time>2026-08-21T10:31:06.307Z</time>
      </trkpt>
      <trkpt lat="45.02184" lon="2.38305">
        <ele>761.8</ele>
        <time>2026-08-21T10:31:06.855Z</time>
      </trkpt>
      <trkpt lat="45.02184" lon="2.38307">
        <ele>761.99</ele>
        <time>2026-08-21T10:31:08.254Z</time>
      </trkpt>
      <trkpt lat="45.02183" lon="2.3831">
        <ele>762.19</ele>
        <time>2026-08-21T10:31:09.310Z</time>
      </trkpt>
      <trkpt lat="45.02183" lon="2.38313">
        <ele>762.37</ele>
        <time>2026-08-21T10:31:10.311Z</time>
      </trkpt>
      <trkpt lat="45.02182" lon="2.38316">
        <ele>762.56</ele>
        <time>2026-08-21T10:31:11.313Z</time>
      </trkpt>
      <trkpt lat="45.02182" lon="2.38319">
        <ele>762.75</ele>
        <time>2026-08-21T10:31:12.313Z</time>
      </trkpt>
      <trkpt lat="45.02182" lon="2.38321">
        <ele>762.94</ele>
        <time>2026-08-21T10:31:13.315Z</time>
      </trkpt>
      <trkpt lat="45.02182" lon="2.38324">
        <ele>763.13</ele>
        <time>2026-08-21T10:31:14.192Z</time>
      </trkpt>
      <trkpt lat="45.02181" lon="2.38326">
        <ele>763.32</ele>
        <time>2026-08-21T10:31:15.317Z</time>
      </trkpt>
      <trkpt lat="45.02181" lon="2.38329">
        <ele>763.52</ele>
        <time>2026-08-21T10:31:16.320Z</time>
      </trkpt>
      <trkpt lat="45.0218" lon="2.38331">
        <ele>763.71</ele>
        <time>2026-08-21T10:31:17.321Z</time>
      </trkpt>
      <trkpt lat="45.02179" lon="2.38334">
        <ele>763.9</ele>
        <time>2026-08-21T10:31:18.322Z</time>
      </trkpt>
      <trkpt lat="45.02179" lon="2.38336">
        <ele>764.09</ele>
        <time>2026-08-21T10:31:19.324Z</time>
      </trkpt>
      <trkpt lat="45.02178" lon="2.3834">
        <ele>764.29</ele>
        <time>2026-08-21T10:31:20.326Z</time>
      </trkpt>
      <trkpt lat="45.02177" lon="2.38343">
        <ele>764.47</ele>
        <time>2026-08-21T10:31:21.328Z</time>
      </trkpt>
      <trkpt lat="45.02177" lon="2.38345">
        <ele>764.67</ele>
        <time>2026-08-21T10:31:22.336Z</time>
      </trkpt>
      <trkpt lat="45.02177" lon="2.38348">
        <ele>764.86</ele>
        <time>2026-08-21T10:31:23.164Z</time>
      </trkpt>
      <trkpt lat="45.02176" lon="2.38351">
        <ele>765.05</ele>
        <time>2026-08-21T10:31:24.333Z</time>
      </trkpt>
      <trkpt lat="45.02176" lon="2.38353">
        <ele>765.23</ele>
        <time>2026-08-21T10:31:25.335Z</time>
      </trkpt>
      <trkpt lat="45.02175" lon="2.38356">
        <ele>765.38</ele>
        <time>2026-08-21T10:31:26.337Z</time>
      </trkpt>
      <trkpt lat="45.02174" lon="2.38359">
        <ele>765.57</ele>
        <time>2026-08-21T10:31:27.338Z</time>
      </trkpt>
      <trkpt lat="45.02174" lon="2.38361">
        <ele>765.74</ele>
        <time>2026-08-21T10:31:28.340Z</time>
      </trkpt>
      <trkpt lat="45.02173" lon="2.38364">
        <ele>765.91</ele>
        <time>2026-08-21T10:31:29.341Z</time>
      </trkpt>
      <trkpt lat="45.02173" lon="2.38367">
        <ele>766.07</ele>
        <time>2026-08-21T10:31:30.344Z</time>
      </trkpt>
      <trkpt lat="45.02172" lon="2.38369">
        <ele>766.23</ele>
        <time>2026-08-21T10:31:30.887Z</time>
      </trkpt>
      <trkpt lat="45.02171" lon="2.38372">
        <ele>766.4</ele>
        <time>2026-08-21T10:31:32.231Z</time>
      </trkpt>
      <trkpt lat="45.02171" lon="2.38375">
        <ele>766.57</ele>
        <time>2026-08-21T10:31:33.349Z</time>
      </trkpt>
      <trkpt lat="45.02171" lon="2.38378">
        <ele>766.73</ele>
        <time>2026-08-21T10:31:34.350Z</time>
      </trkpt>
      <trkpt lat="45.0217" lon="2.38381">
        <ele>766.9</ele>
        <time>2026-08-21T10:31:35.251Z</time>
      </trkpt>
      <trkpt lat="45.02169" lon="2.38383">
        <ele>767.07</ele>
        <time>2026-08-21T10:31:36.352Z</time>
      </trkpt>
      <trkpt lat="45.02169" lon="2.38386">
        <ele>767.24</ele>
        <time>2026-08-21T10:31:37.254Z</time>
      </trkpt>
      <trkpt lat="45.02168" lon="2.38388">
        <ele>767.41</ele>
        <time>2026-08-21T10:31:38.257Z</time>
      </trkpt>
      <trkpt lat="45.02168" lon="2.38391">
        <ele>767.57</ele>
        <time>2026-08-21T10:31:39.256Z</time>
      </trkpt>
      <trkpt lat="45.02167" lon="2.38394">
        <ele>767.72</ele>
        <time>2026-08-21T10:31:40.257Z</time>
      </trkpt>
      <trkpt lat="45.02167" lon="2.38397">
        <ele>767.89</ele>
        <time>2026-08-21T10:31:41.258Z</time>
      </trkpt>
      <trkpt lat="45.02166" lon="2.384">
        <ele>768.03</ele>
        <time>2026-08-21T10:31:42.261Z</time>
      </trkpt>
      <trkpt lat="45.02166" lon="2.38403">
        <ele>768.17</ele>
        <time>2026-08-21T10:31:43.263Z</time>
      </trkpt>
      <trkpt lat="45.02165" lon="2.38405">
        <ele>768.31</ele>
        <time>2026-08-21T10:31:44.262Z</time>
      </trkpt>
      <trkpt lat="45.02165" lon="2.38408">
        <ele>768.46</ele>
        <time>2026-08-21T10:31:45.364Z</time>
      </trkpt>
      <trkpt lat="45.02165" lon="2.38411">
        <ele>768.59</ele>
        <time>2026-08-21T10:31:45.426Z</time>
      </trkpt>
      <trkpt lat="45.02165" lon="2.38414">
        <ele>768.73</ele>
        <time>2026-08-21T10:31:47.319Z</time>
      </trkpt>
      <trkpt lat="45.02165" lon="2.38417">
        <ele>768.88</ele>
        <time>2026-08-21T10:31:48.366Z</time>
      </trkpt>
      <trkpt lat="45.02165" lon="2.3842">
        <ele>769.04</ele>
        <time>2026-08-21T10:31:49.367Z</time>
      </trkpt>
      <trkpt lat="45.02165" lon="2.38422">
        <ele>769.18</ele>
        <time>2026-08-21T10:31:50.261Z</time>
      </trkpt>
      <trkpt lat="45.02165" lon="2.38425">
        <ele>769.33</ele>
        <time>2026-08-21T10:31:51.367Z</time>
      </trkpt>
      <trkpt lat="45.02165" lon="2.38428">
        <ele>769.46</ele>
        <time>2026-08-21T10:31:52.368Z</time>
      </trkpt>
      <trkpt lat="45.02165" lon="2.38431">
        <ele>769.6</ele>
        <time>2026-08-21T10:31:53.368Z</time>
      </trkpt>
      <trkpt lat="45.02165" lon="2.38433">
        <ele>769.74</ele>
        <time>2026-08-21T10:31:54.369Z</time>
      </trkpt>
      <trkpt lat="45.02165" lon="2.38436">
        <ele>769.89</ele>
        <time>2026-08-21T10:31:54.962Z</time>
      </trkpt>
      <trkpt lat="45.02165" lon="2.38439">
        <ele>770.04</ele>
        <time>2026-08-21T10:31:56.372Z</time>
      </trkpt>
      <trkpt lat="45.02165" lon="2.38442">
        <ele>770.19</ele>
        <time>2026-08-21T10:31:57.373Z</time>
      </trkpt>
      <trkpt lat="45.02166" lon="2.38445">
        <ele>770.35</ele>
        <time>2026-08-21T10:31:57.912Z</time>
      </trkpt>
      <trkpt lat="45.02166" lon="2.38447">
        <ele>770.49</ele>
        <time>2026-08-21T10:31:59.260Z</time>
      </trkpt>
      <trkpt lat="45.02166" lon="2.3845">
        <ele>770.63</ele>
        <time>2026-08-21T10:32:00.378Z</time>
      </trkpt>
      <trkpt lat="45.02166" lon="2.38452">
        <ele>770.78</ele>
        <time>2026-08-21T10:32:01.384Z</time>
      </trkpt>
      <trkpt lat="45.02167" lon="2.38455">
        <ele>770.9</ele>
        <time>2026-08-21T10:32:01.991Z</time>
      </trkpt>
      <trkpt lat="45.02168" lon="2.38461">
        <ele>771.17</ele>
        <time>2026-08-21T10:32:04.383Z</time>
      </trkpt>
      <trkpt lat="45.02168" lon="2.38463">
        <ele>771.31</ele>
        <time>2026-08-21T10:32:05.384Z</time>
      </trkpt>
      <trkpt lat="45.02168" lon="2.38464">
        <ele>771.45</ele>
        <time>2026-08-21T10:32:06.387Z</time>
      </trkpt>
      <trkpt lat="45.02169" lon="2.38467">
        <ele>771.6</ele>
        <time>2026-08-21T10:32:07.386Z</time>
      </trkpt>
      <trkpt lat="45.02169" lon="2.38469">
        <ele>771.74</ele>
        <time>2026-08-21T10:32:07.900Z</time>
      </trkpt>
      <trkpt lat="45.02169" lon="2.38471">
        <ele>771.87</ele>
        <time>2026-08-21T10:32:09.391Z</time>
      </trkpt>
      <trkpt lat="45.0217" lon="2.38473">
        <ele>772</ele>
        <time>2026-08-21T10:32:10.392Z</time>
      </trkpt>
      <trkpt lat="45.02172" lon="2.38477">
        <ele>772.26</ele>
        <time>2026-08-21T10:32:12.295Z</time>
      </trkpt>
      <trkpt lat="45.02173" lon="2.38478">
        <ele>772.39</ele>
        <time>2026-08-21T10:32:13.297Z</time>
      </trkpt>
      <trkpt lat="45.02173" lon="2.38481">
        <ele>772.64</ele>
        <time>2026-08-21T10:32:15.299Z</time>
      </trkpt>
      <trkpt lat="45.02172" lon="2.38484">
        <ele>772.96</ele>
        <time>2026-08-21T10:32:17.467Z</time>
      </trkpt>
      <trkpt lat="45.0217" lon="2.38484">
        <ele>773.16</ele>
        <time>2026-08-21T10:32:20.407Z</time>
      </trkpt>
      <trkpt lat="45.02169" lon="2.38483">
        <ele>773.27</ele>
        <time>2026-08-21T10:32:20.893Z</time>
      </trkpt>
      <trkpt lat="45.02169" lon="2.38481">
        <ele>773.37</ele>
        <time>2026-08-21T10:32:22.411Z</time>
      </trkpt>
      <trkpt lat="45.0217" lon="2.38479">
        <ele>773.46</ele>
        <time>2026-08-21T10:32:23.313Z</time>
      </trkpt>
      <trkpt lat="45.02172" lon="2.38478">
        <ele>773.54</ele>
        <time>2026-08-21T10:32:24.316Z</time>
      </trkpt>
      <trkpt lat="45.02174" lon="2.3848">
        <ele>773.71</ele>
        <time>2026-08-21T10:32:26.319Z</time>
      </trkpt>
      <trkpt lat="45.02173" lon="2.38481">
        <ele>773.8</ele>
        <time>2026-08-21T10:32:27.321Z</time>
      </trkpt>
      <trkpt lat="45.02172" lon="2.38482">
        <ele>773.89</ele>
        <time>2026-08-21T10:32:28.321Z</time>
      </trkpt>
      <trkpt lat="45.02169" lon="2.38482">
        <ele>773.97</ele>
        <time>2026-08-21T10:32:29.321Z</time>
      </trkpt>
      <trkpt lat="45.02167" lon="2.38482">
        <ele>774.01</ele>
        <time>2026-08-21T10:32:30.323Z</time>
      </trkpt>
      <trkpt lat="45.02166" lon="2.38478">
        <ele>774.81</ele>
        <time>2026-08-21T10:32:40.644Z</time>
      </trkpt>
      <trkpt lat="45.02167" lon="2.38476">
        <ele>774.92</ele>
        <time>2026-08-21T10:32:41.645Z</time>
      </trkpt>
      <trkpt lat="45.02169" lon="2.38476">
        <ele>774.97</ele>
        <time>2026-08-21T10:32:42.647Z</time>
      </trkpt>
      <trkpt lat="45.0217" lon="2.38477">
        <ele>774.99</ele>
        <time>2026-08-21T10:32:43.656Z</time>
      </trkpt>
      <trkpt lat="45.02171" lon="2.38479">
        <ele>775.03</ele>
        <time>2026-08-21T10:32:44.653Z</time>
      </trkpt>
      <trkpt lat="45.02171" lon="2.38482">
        <ele>775.08</ele>
        <time>2026-08-21T10:32:45.680Z</time>
      </trkpt>
      <trkpt lat="45.0217" lon="2.38486">
        <ele>775.12</ele>
        <time>2026-08-21T10:32:45.731Z</time>
      </trkpt>
      <trkpt lat="45.0217" lon="2.38489">
        <ele>775.17</ele>
        <time>2026-08-21T10:32:47.588Z</time>
      </trkpt>
      <trkpt lat="45.02171" lon="2.38492">
        <ele>775.23</ele>
        <time>2026-08-21T10:32:48.661Z</time>
      </trkpt>
      <trkpt lat="45.02172" lon="2.38497">
        <ele>775.28</ele>
        <time>2026-08-21T10:32:49.420Z</time>
      </trkpt>
      <trkpt lat="45.02173" lon="2.38501">
        <ele>775.32</ele>
        <time>2026-08-21T10:32:50.664Z</time>
      </trkpt>
      <trkpt lat="45.02173" lon="2.38505">
        <ele>775.38</ele>
        <time>2026-08-21T10:32:51.670Z</time>
      </trkpt>
      <trkpt lat="45.02174" lon="2.3851">
        <ele>775.44</ele>
        <time>2026-08-21T10:32:52.669Z</time>
      </trkpt>
      <trkpt lat="45.02176" lon="2.38515">
        <ele>775.5</ele>
        <time>2026-08-21T10:32:53.379Z</time>
      </trkpt>
      <trkpt lat="45.02177" lon="2.3852">
        <ele>775.57</ele>
        <time>2026-08-21T10:32:54.256Z</time>
      </trkpt>
      <trkpt lat="45.02177" lon="2.38524">
        <ele>775.63</ele>
        <time>2026-08-21T10:32:55.388Z</time>
      </trkpt>
      <trkpt lat="45.02179" lon="2.38529">
        <ele>775.69</ele>
        <time>2026-08-21T10:32:56.664Z</time>
      </trkpt>
      <trkpt lat="45.02179" lon="2.38534">
        <ele>775.77</ele>
        <time>2026-08-21T10:32:57.682Z</time>
      </trkpt>
      <trkpt lat="45.02179" lon="2.38539">
        <ele>775.83</ele>
        <time>2026-08-21T10:32:58.682Z</time>
      </trkpt>
      <trkpt lat="45.02179" lon="2.38543">
        <ele>775.89</ele>
        <time>2026-08-21T10:32:59.683Z</time>
      </trkpt>
      <trkpt lat="45.0218" lon="2.38547">
        <ele>775.97</ele>
        <time>2026-08-21T10:33:00.682Z</time>
      </trkpt>
      <trkpt lat="45.0218" lon="2.38551">
        <ele>776.05</ele>
        <time>2026-08-21T10:33:01.684Z</time>
      </trkpt>
      <trkpt lat="45.02181" lon="2.38554">
        <ele>776.12</ele>
        <time>2026-08-21T10:33:02.485Z</time>
      </trkpt>
      <trkpt lat="45.02181" lon="2.38558">
        <ele>776.2</ele>
        <time>2026-08-21T10:33:03.520Z</time>
      </trkpt>
      <trkpt lat="45.02181" lon="2.38561">
        <ele>776.29</ele>
        <time>2026-08-21T10:33:04.242Z</time>
      </trkpt>
      <trkpt lat="45.02182" lon="2.38564">
        <ele>776.39</ele>
        <time>2026-08-21T10:33:05.689Z</time>
      </trkpt>
      <trkpt lat="45.02184" lon="2.38565">
        <ele>776.5</ele>
        <time>2026-08-21T10:33:06.693Z</time>
      </trkpt>
      <trkpt lat="45.02186" lon="2.38566">
        <ele>776.6</ele>
        <time>2026-08-21T10:33:07.424Z</time>
      </trkpt>
      <trkpt lat="45.02189" lon="2.38565">
        <ele>776.71</ele>
        <time>2026-08-21T10:33:08.497Z</time>
      </trkpt>
      <trkpt lat="45.02191" lon="2.38566">
        <ele>776.82</ele>
        <time>2026-08-21T10:33:09.701Z</time>
      </trkpt>
      <trkpt lat="45.02193" lon="2.38569">
        <ele>776.94</ele>
        <time>2026-08-21T10:33:10.696Z</time>
      </trkpt>
      <trkpt lat="45.02192" lon="2.38571">
        <ele>777.08</ele>
        <time>2026-08-21T10:33:11.556Z</time>
      </trkpt>
      <trkpt lat="45.0219" lon="2.38573">
        <ele>777.21</ele>
        <time>2026-08-21T10:33:12.363Z</time>
      </trkpt>
      <trkpt lat="45.02188" lon="2.38575">
        <ele>777.31</ele>
        <time>2026-08-21T10:33:13.355Z</time>
      </trkpt>
      <trkpt lat="45.02184" lon="2.38576">
        <ele>777.5</ele>
        <time>2026-08-21T10:33:14.327Z</time>
      </trkpt>
      <trkpt lat="45.0218" lon="2.38577">
        <ele>777.27</ele>
        <time>2026-08-21T10:33:15.322Z</time>
      </trkpt>
      <trkpt lat="45.02176" lon="2.38578">
        <ele>777.34</ele>
        <time>2026-08-21T10:33:16.357Z</time>
      </trkpt>
      <trkpt lat="45.02174" lon="2.3858">
        <ele>777.42</ele>
        <time>2026-08-21T10:33:17.350Z</time>
      </trkpt>
      <trkpt lat="45.02172" lon="2.38583">
        <ele>777.5</ele>
        <time>2026-08-21T10:33:18.347Z</time>
      </trkpt>
      <trkpt lat="45.02171" lon="2.38587">
        <ele>777.6</ele>
        <time>2026-08-21T10:33:19.353Z</time>
      </trkpt>
      <trkpt lat="45.02171" lon="2.38591">
        <ele>777.68</ele>
        <time>2026-08-21T10:33:20.702Z</time>
      </trkpt>
      <trkpt lat="45.02171" lon="2.38595">
        <ele>777.77</ele>
        <time>2026-08-21T10:33:21.639Z</time>
      </trkpt>
      <trkpt lat="45.02171" lon="2.38598">
        <ele>777.86</ele>
        <time>2026-08-21T10:33:22.707Z</time>
      </trkpt>
      <trkpt lat="45.02171" lon="2.38601">
        <ele>777.95</ele>
        <time>2026-08-21T10:33:23.708Z</time>
      </trkpt>
      <trkpt lat="45.02171" lon="2.38605">
        <ele>778.05</ele>
        <time>2026-08-21T10:33:24.710Z</time>
      </trkpt>
      <trkpt lat="45.0217" lon="2.38608">
        <ele>778.15</ele>
        <time>2026-08-21T10:33:25.669Z</time>
      </trkpt>
      <trkpt lat="45.0217" lon="2.38611">
        <ele>778.24</ele>
        <time>2026-08-21T10:33:26.713Z</time>
      </trkpt>
      <trkpt lat="45.02169" lon="2.38613">
        <ele>778.33</ele>
        <time>2026-08-21T10:33:26.747Z</time>
      </trkpt>
      <trkpt lat="45.02168" lon="2.38616">
        <ele>778.42</ele>
        <time>2026-08-21T10:33:28.596Z</time>
      </trkpt>
      <trkpt lat="45.02168" lon="2.38618">
        <ele>778.53</ele>
        <time>2026-08-21T10:33:29.719Z</time>
      </trkpt>
      <trkpt lat="45.02167" lon="2.38621">
        <ele>778.64</ele>
        <time>2026-08-21T10:33:30.553Z</time>
      </trkpt>
      <trkpt lat="45.02166" lon="2.38624">
        <ele>778.74</ele>
        <time>2026-08-21T10:33:31.724Z</time>
      </trkpt>
      <trkpt lat="45.02165" lon="2.38628">
        <ele>778.84</ele>
        <time>2026-08-21T10:33:32.326Z</time>
      </trkpt>
      <trkpt lat="45.02165" lon="2.38631">
        <ele>778.95</ele>
        <time>2026-08-21T10:33:33.724Z</time>
      </trkpt>
      <trkpt lat="45.02164" lon="2.38633">
        <ele>779.06</ele>
        <time>2026-08-21T10:33:34.294Z</time>
      </trkpt>
      <trkpt lat="45.02163" lon="2.38635">
        <ele>779.17</ele>
        <time>2026-08-21T10:33:35.317Z</time>
      </trkpt>
      <trkpt lat="45.02162" lon="2.38637">
        <ele>779.29</ele>
        <time>2026-08-21T10:33:36.339Z</time>
      </trkpt>
      <trkpt lat="45.02161" lon="2.38639">
        <ele>779.4</ele>
        <time>2026-08-21T10:33:37.335Z</time>
      </trkpt>
      <trkpt lat="45.0216" lon="2.38642">
        <ele>779.52</ele>
        <time>2026-08-21T10:33:38.733Z</time>
      </trkpt>
      <trkpt lat="45.02159" lon="2.38644">
        <ele>779.64</ele>
        <time>2026-08-21T10:33:39.581Z</time>
      </trkpt>
      <trkpt lat="45.02158" lon="2.38645">
        <ele>779.77</ele>
        <time>2026-08-21T10:33:40.668Z</time>
      </trkpt>
      <trkpt lat="45.02157" lon="2.38647">
        <ele>779.9</ele>
        <time>2026-08-21T10:33:41.324Z</time>
      </trkpt>
      <trkpt lat="45.02156" lon="2.3865">
        <ele>780.03</ele>
        <time>2026-08-21T10:33:42.307Z</time>
      </trkpt>
      <trkpt lat="45.02154" lon="2.38652">
        <ele>780.16</ele>
        <time>2026-08-21T10:33:43.335Z</time>
      </trkpt>
      <trkpt lat="45.02153" lon="2.38654">
        <ele>780.29</ele>
        <time>2026-08-21T10:33:44.377Z</time>
      </trkpt>
      <trkpt lat="45.02151" lon="2.38656">
        <ele>780.42</ele>
        <time>2026-08-21T10:33:45.321Z</time>
      </trkpt>
      <trkpt lat="45.02149" lon="2.38657">
        <ele>780.56</ele>
        <time>2026-08-21T10:33:46.749Z</time>
      </trkpt>
      <trkpt lat="45.02147" lon="2.38659">
        <ele>780.68</ele>
        <time>2026-08-21T10:33:47.295Z</time>
      </trkpt>
      <trkpt lat="45.02145" lon="2.3866">
        <ele>780.8</ele>
        <time>2026-08-21T10:33:48.308Z</time>
      </trkpt>
      <trkpt lat="45.02143" lon="2.38661">
        <ele>780.93</ele>
        <time>2026-08-21T10:33:49.295Z</time>
      </trkpt>
      <trkpt lat="45.02141" lon="2.38662">
        <ele>781.05</ele>
        <time>2026-08-21T10:33:50.325Z</time>
      </trkpt>
      <trkpt lat="45.02139" lon="2.38663">
        <ele>781.15</ele>
        <time>2026-08-21T10:33:51.310Z</time>
      </trkpt>
      <trkpt lat="45.02135" lon="2.38664">
        <ele>781.27</ele>
        <time>2026-08-21T10:33:52.755Z</time>
      </trkpt>
      <trkpt lat="45.02132" lon="2.38665">
        <ele>781.35</ele>
        <time>2026-08-21T10:33:53.314Z</time>
      </trkpt>
      <trkpt lat="45.02128" lon="2.38666">
        <ele>781.42</ele>
        <time>2026-08-21T10:33:54.310Z</time>
      </trkpt>
      <trkpt lat="45.02123" lon="2.38668">
        <ele>781.49</ele>
        <time>2026-08-21T10:33:55.298Z</time>
      </trkpt>
      <trkpt lat="45.02119" lon="2.3867">
        <ele>781.53</ele>
        <time>2026-08-21T10:33:56.313Z</time>
      </trkpt>
      <trkpt lat="45.02116" lon="2.38673">
        <ele>781.59</ele>
        <time>2026-08-21T10:33:57.327Z</time>
      </trkpt>
      <trkpt lat="45.02112" lon="2.38678">
        <ele>781.65</ele>
        <time>2026-08-21T10:33:58.749Z</time>
      </trkpt>
      <trkpt lat="45.02109" lon="2.38682">
        <ele>781.7</ele>
        <time>2026-08-21T10:33:59.771Z</time>
      </trkpt>
      <trkpt lat="45.02106" lon="2.38686">
        <ele>781.73</ele>
        <time>2026-08-21T10:34:00.307Z</time>
      </trkpt>
      <trkpt lat="45.02103" lon="2.38691">
        <ele>781.77</ele>
        <time>2026-08-21T10:34:01.395Z</time>
      </trkpt>
      <trkpt lat="45.021" lon="2.38695">
        <ele>781.82</ele>
        <time>2026-08-21T10:34:02.774Z</time>
      </trkpt>
      <trkpt lat="45.02099" lon="2.387">
        <ele>781.87</ele>
        <time>2026-08-21T10:34:03.309Z</time>
      </trkpt>
      <trkpt lat="45.02097" lon="2.38705">
        <ele>781.92</ele>
        <time>2026-08-21T10:34:04.753Z</time>
      </trkpt>
      <trkpt lat="45.02095" lon="2.38709">
        <ele>781.97</ele>
        <time>2026-08-21T10:34:05.315Z</time>
      </trkpt>
      <trkpt lat="45.02094" lon="2.38714">
        <ele>782.01</ele>
        <time>2026-08-21T10:34:06.309Z</time>
      </trkpt>
      <trkpt lat="45.02093" lon="2.38718">
        <ele>782.05</ele>
        <time>2026-08-21T10:34:07.325Z</time>
      </trkpt>
      <trkpt lat="45.02092" lon="2.38721">
        <ele>782.09</ele>
        <time>2026-08-21T10:34:08.320Z</time>
      </trkpt>
      <trkpt lat="45.02089" lon="2.38723">
        <ele>782.12</ele>
        <time>2026-08-21T10:34:09.343Z</time>
      </trkpt>
      <trkpt lat="45.02087" lon="2.38724">
        <ele>782.15</ele>
        <time>2026-08-21T10:34:10.328Z</time>
      </trkpt>
      <trkpt lat="45.02085" lon="2.38724">
        <ele>782.18</ele>
        <time>2026-08-21T10:34:11.288Z</time>
      </trkpt>
      <trkpt lat="45.02082" lon="2.38723">
        <ele>782.2</ele>
        <time>2026-08-21T10:34:12.339Z</time>
      </trkpt>
      <trkpt lat="45.02079" lon="2.38723">
        <ele>782.22</ele>
        <time>2026-08-21T10:34:13.331Z</time>
      </trkpt>
      <trkpt lat="45.02076" lon="2.38724">
        <ele>782.24</ele>
        <time>2026-08-21T10:34:14.795Z</time>
      </trkpt>
      <trkpt lat="45.02073" lon="2.38725">
        <ele>782.24</ele>
        <time>2026-08-21T10:34:15.790Z</time>
      </trkpt>
      <trkpt lat="45.02069" lon="2.38724">
        <ele>782.25</ele>
        <time>2026-08-21T10:34:16.326Z</time>
      </trkpt>
      <trkpt lat="45.02065" lon="2.38722">
        <ele>782.27</ele>
        <time>2026-08-21T10:34:17.318Z</time>
      </trkpt>
      <trkpt lat="45.02062" lon="2.38719">
        <ele>782.27</ele>
        <time>2026-08-21T10:34:18.336Z</time>
      </trkpt>
      <trkpt lat="45.02058" lon="2.38715">
        <ele>782.29</ele>
        <time>2026-08-21T10:34:19.292Z</time>
      </trkpt>
      <trkpt lat="45.02053" lon="2.3871">
        <ele>782.27</ele>
        <time>2026-08-21T10:34:20.798Z</time>
      </trkpt>
      <trkpt lat="45.02049" lon="2.38704">
        <ele>782.28</ele>
        <time>2026-08-21T10:34:21.799Z</time>
      </trkpt>
      <trkpt lat="45.02044" lon="2.38699">
        <ele>782.17</ele>
        <time>2026-08-21T10:34:22.804Z</time>
      </trkpt>
      <trkpt lat="45.02039" lon="2.38694">
        <ele>782.06</ele>
        <time>2026-08-21T10:34:23.805Z</time>
      </trkpt>
      <trkpt lat="45.02034" lon="2.38689">
        <ele>782.01</ele>
        <time>2026-08-21T10:34:24.311Z</time>
      </trkpt>
      <trkpt lat="45.02029" lon="2.38685">
        <ele>781.93</ele>
        <time>2026-08-21T10:34:25.323Z</time>
      </trkpt>
      <trkpt lat="45.02023" lon="2.38682">
        <ele>781.88</ele>
        <time>2026-08-21T10:34:26.293Z</time>
      </trkpt>
      <trkpt lat="45.02018" lon="2.38678">
        <ele>781.82</ele>
        <time>2026-08-21T10:34:27.313Z</time>
      </trkpt>
      <trkpt lat="45.02012" lon="2.38676">
        <ele>781.77</ele>
        <time>2026-08-21T10:34:28.300Z</time>
      </trkpt>
      <trkpt lat="45.02006" lon="2.38675">
        <ele>781.72</ele>
        <time>2026-08-21T10:34:29.716Z</time>
      </trkpt>
      <trkpt lat="45.02002" lon="2.38674">
        <ele>781.69</ele>
        <time>2026-08-21T10:34:30.719Z</time>
      </trkpt>
      <trkpt lat="45.01999" lon="2.38674">
        <ele>781.65</ele>
        <time>2026-08-21T10:34:31.721Z</time>
      </trkpt>
      <trkpt lat="45.01995" lon="2.38671">
        <ele>781.58</ele>
        <time>2026-08-21T10:34:33.724Z</time>
      </trkpt>
      <trkpt lat="45.01994" lon="2.3867">
        <ele>781.55</ele>
        <time>2026-08-21T10:34:34.725Z</time>
      </trkpt>
      <trkpt lat="45.01994" lon="2.38668">
        <ele>781.52</ele>
        <time>2026-08-21T10:34:35.730Z</time>
      </trkpt>
      <trkpt lat="45.01993" lon="2.38667">
        <ele>781.49</ele>
        <time>2026-08-21T10:34:36.731Z</time>
      </trkpt>
      <trkpt lat="45.01991" lon="2.38663">
        <ele>781.43</ele>
        <time>2026-08-21T10:34:38.733Z</time>
      </trkpt>
      <trkpt lat="45.01989" lon="2.38661">
        <ele>781.39</ele>
        <time>2026-08-21T10:34:39.736Z</time>
      </trkpt>
      <trkpt lat="45.01989" lon="2.3866">
        <ele>781.36</ele>
        <time>2026-08-21T10:34:40.737Z</time>
      </trkpt>
      <trkpt lat="45.01986" lon="2.38656">
        <ele>781.28</ele>
        <time>2026-08-21T10:34:42.357Z</time>
      </trkpt>
      <trkpt lat="45.01984" lon="2.38655">
        <ele>781.23</ele>
        <time>2026-08-21T10:34:43.811Z</time>
      </trkpt>
      <trkpt lat="45.01983" lon="2.38654">
        <ele>781.19</ele>
        <time>2026-08-21T10:34:44.746Z</time>
      </trkpt>
      <trkpt lat="45.01981" lon="2.38652">
        <ele>781.14</ele>
        <time>2026-08-21T10:34:45.748Z</time>
      </trkpt>
      <trkpt lat="45.01979" lon="2.38651">
        <ele>781.09</ele>
        <time>2026-08-21T10:34:46.751Z</time>
      </trkpt>
      <trkpt lat="45.01978" lon="2.38649">
        <ele>781.03</ele>
        <time>2026-08-21T10:34:47.752Z</time>
      </trkpt>
      <trkpt lat="45.01976" lon="2.38646">
        <ele>780.97</ele>
        <time>2026-08-21T10:34:48.755Z</time>
      </trkpt>
      <trkpt lat="45.01974" lon="2.38644">
        <ele>780.9</ele>
        <time>2026-08-21T10:34:49.756Z</time>
      </trkpt>
      <trkpt lat="45.01972" lon="2.38641">
        <ele>780.84</ele>
        <time>2026-08-21T10:34:50.759Z</time>
      </trkpt>
      <trkpt lat="45.0197" lon="2.38639">
        <ele>780.77</ele>
        <time>2026-08-21T10:34:51.761Z</time>
      </trkpt>
      <trkpt lat="45.01969" lon="2.38638">
        <ele>780.7</ele>
        <time>2026-08-21T10:34:52.765Z</time>
      </trkpt>
      <trkpt lat="45.01967" lon="2.38635">
        <ele>780.6</ele>
        <time>2026-08-21T10:34:53.765Z</time>
      </trkpt>
      <trkpt lat="45.01965" lon="2.38632">
        <ele>780.51</ele>
        <time>2026-08-21T10:34:54.766Z</time>
      </trkpt>
      <trkpt lat="45.01963" lon="2.38629">
        <ele>780.38</ele>
        <time>2026-08-21T10:34:55.768Z</time>
      </trkpt>
      <trkpt lat="45.01961" lon="2.38627">
        <ele>780.3</ele>
        <time>2026-08-21T10:34:56.781Z</time>
      </trkpt>
      <trkpt lat="45.01958" lon="2.38625">
        <ele>780.24</ele>
        <time>2026-08-21T10:34:57.772Z</time>
      </trkpt>
      <trkpt lat="45.01955" lon="2.38622">
        <ele>780.19</ele>
        <time>2026-08-21T10:34:58.777Z</time>
      </trkpt>
      <trkpt lat="45.01952" lon="2.38619">
        <ele>780.1</ele>
        <time>2026-08-21T10:34:59.787Z</time>
      </trkpt>
      <trkpt lat="45.01949" lon="2.38616">
        <ele>779.98</ele>
        <time>2026-08-21T10:35:00.779Z</time>
      </trkpt>
      <trkpt lat="45.01946" lon="2.38613">
        <ele>779.84</ele>
        <time>2026-08-21T10:35:01.783Z</time>
      </trkpt>
      <trkpt lat="45.01942" lon="2.3861">
        <ele>779.75</ele>
        <time>2026-08-21T10:35:02.784Z</time>
      </trkpt>
      <trkpt lat="45.01938" lon="2.38608">
        <ele>779.65</ele>
        <time>2026-08-21T10:35:03.787Z</time>
      </trkpt>
      <trkpt lat="45.01935" lon="2.38606">
        <ele>779.42</ele>
        <time>2026-08-21T10:35:04.791Z</time>
      </trkpt>
      <trkpt lat="45.0193" lon="2.38602">
        <ele>779.27</ele>
        <time>2026-08-21T10:35:05.794Z</time>
      </trkpt>
      <trkpt lat="45.01925" lon="2.38597">
        <ele>779.01</ele>
        <time>2026-08-21T10:35:06.795Z</time>
      </trkpt>
      <trkpt lat="45.01923" lon="2.38592">
        <ele>778.72</ele>
        <time>2026-08-21T10:35:07.798Z</time>
      </trkpt>
      <trkpt lat="45.01918" lon="2.38583">
        <ele>778.72</ele>
        <time>2026-08-21T10:35:08.801Z</time>
      </trkpt>
      <trkpt lat="45.01915" lon="2.38574">
        <ele>778.31</ele>
        <time>2026-08-21T10:35:09.807Z</time>
      </trkpt>
      <trkpt lat="45.01912" lon="2.38566">
        <ele>778.06</ele>
        <time>2026-08-21T10:35:10.803Z</time>
      </trkpt>
      <trkpt lat="45.01907" lon="2.38558">
        <ele>777.72</ele>
        <time>2026-08-21T10:35:11.805Z</time>
      </trkpt>
      <trkpt lat="45.01902" lon="2.38548">
        <ele>777.44</ele>
        <time>2026-08-21T10:35:12.806Z</time>
      </trkpt>
      <trkpt lat="45.01895" lon="2.38539">
        <ele>776.98</ele>
        <time>2026-08-21T10:35:13.807Z</time>
      </trkpt>
      <trkpt lat="45.01889" lon="2.3853">
        <ele>776.76</ele>
        <time>2026-08-21T10:35:14.811Z</time>
      </trkpt>
      <trkpt lat="45.01885" lon="2.38523">
        <ele>776.16</ele>
        <time>2026-08-21T10:35:15.814Z</time>
      </trkpt>
      <trkpt lat="45.0188" lon="2.38518">
        <ele>775.66</ele>
        <time>2026-08-21T10:35:16.812Z</time>
      </trkpt>
      <trkpt lat="45.01877" lon="2.38515">
        <ele>775.21</ele>
        <time>2026-08-21T10:35:17.815Z</time>
      </trkpt>
      <trkpt lat="45.01874" lon="2.38512">
        <ele>774.93</ele>
        <time>2026-08-21T10:35:18.817Z</time>
      </trkpt>
      <trkpt lat="45.01871" lon="2.38508">
        <ele>774.5</ele>
        <time>2026-08-21T10:35:19.817Z</time>
      </trkpt>
      <trkpt lat="45.01868" lon="2.38505">
        <ele>773.94</ele>
        <time>2026-08-21T10:35:20.819Z</time>
      </trkpt>
      <trkpt lat="45.01866" lon="2.38501">
        <ele>773.4</ele>
        <time>2026-08-21T10:35:21.820Z</time>
      </trkpt>
      <trkpt lat="45.01863" lon="2.38498">
        <ele>772.86</ele>
        <time>2026-08-21T10:35:22.821Z</time>
      </trkpt>
      <trkpt lat="45.0186" lon="2.38494">
        <ele>772.15</ele>
        <time>2026-08-21T10:35:23.824Z</time>
      </trkpt>
      <trkpt lat="45.01857" lon="2.3849">
        <ele>771.41</ele>
        <time>2026-08-21T10:35:24.824Z</time>
      </trkpt>
      <trkpt lat="45.01854" lon="2.38486">
        <ele>770.42</ele>
        <time>2026-08-21T10:35:25.826Z</time>
      </trkpt>
      <trkpt lat="45.0185" lon="2.38482">
        <ele>769.65</ele>
        <time>2026-08-21T10:35:26.829Z</time>
      </trkpt>
      <trkpt lat="45.01846" lon="2.38477">
        <ele>769.2</ele>
        <time>2026-08-21T10:35:27.830Z</time>
      </trkpt>
      <trkpt lat="45.0184" lon="2.38473">
        <ele>768.51</ele>
        <time>2026-08-21T10:35:28.831Z</time>
      </trkpt>
      <trkpt lat="45.01834" lon="2.3847">
        <ele>767.65</ele>
        <time>2026-08-21T10:35:29.832Z</time>
      </trkpt>
      <trkpt lat="45.01829" lon="2.38468">
        <ele>766.73</ele>
        <time>2026-08-21T10:35:30.835Z</time>
      </trkpt>
      <trkpt lat="45.01822" lon="2.38465">
        <ele>766.1</ele>
        <time>2026-08-21T10:35:31.835Z</time>
      </trkpt>
      <trkpt lat="45.01815" lon="2.38463">
        <ele>765.32</ele>
        <time>2026-08-21T10:35:32.838Z</time>
      </trkpt>
      <trkpt lat="45.01808" lon="2.3846">
        <ele>764.85</ele>
        <time>2026-08-21T10:35:33.839Z</time>
      </trkpt>
      <trkpt lat="45.01799" lon="2.38456">
        <ele>764.29</ele>
        <time>2026-08-21T10:35:34.841Z</time>
      </trkpt>
      <trkpt lat="45.01791" lon="2.38452">
        <ele>762.99</ele>
        <time>2026-08-21T10:35:35.841Z</time>
      </trkpt>
      <trkpt lat="45.01782" lon="2.38449">
        <ele>762.26</ele>
        <time>2026-08-21T10:35:36.845Z</time>
      </trkpt>
      <trkpt lat="45.01772" lon="2.38445">
        <ele>761.44</ele>
        <time>2026-08-21T10:35:37.844Z</time>
      </trkpt>
      <trkpt lat="45.01761" lon="2.38442">
        <ele>760.02</ele>
        <time>2026-08-21T10:35:38.846Z</time>
      </trkpt>
      <trkpt lat="45.0175" lon="2.3844">
        <ele>758.51</ele>
        <time>2026-08-21T10:35:39.848Z</time>
      </trkpt>
      <trkpt lat="45.01738" lon="2.38437">
        <ele>756.96</ele>
        <time>2026-08-21T10:35:40.849Z</time>
      </trkpt>
      <trkpt lat="45.01727" lon="2.38434">
        <ele>755.84</ele>
        <time>2026-08-21T10:35:41.851Z</time>
      </trkpt>
      <trkpt lat="45.01725" lon="2.38433">
        <ele>754.74</ele>
        <time>2026-08-21T10:35:42.854Z</time>
      </trkpt>
      <trkpt lat="45.01706" lon="2.38425">
        <ele>754.74</ele>
        <time>2026-08-21T10:35:43.855Z</time>
      </trkpt>
      <trkpt lat="45.01697" lon="2.38421">
        <ele>752.9</ele>
        <time>2026-08-21T10:35:44.857Z</time>
      </trkpt>
      <trkpt lat="45.0169" lon="2.38417">
        <ele>751.56</ele>
        <time>2026-08-21T10:35:45.857Z</time>
      </trkpt>
      <trkpt lat="45.01683" lon="2.38414">
        <ele>750.77</ele>
        <time>2026-08-21T10:35:46.857Z</time>
      </trkpt>
      <trkpt lat="45.01677" lon="2.3841">
        <ele>749.54</ele>
        <time>2026-08-21T10:35:47.859Z</time>
      </trkpt>
      <trkpt lat="45.01672" lon="2.38404">
        <ele>748.53</ele>
        <time>2026-08-21T10:35:48.861Z</time>
      </trkpt>
      <trkpt lat="45.01669" lon="2.38398">
        <ele>747.37</ele>
        <time>2026-08-21T10:35:49.861Z</time>
      </trkpt>
      <trkpt lat="45.01665" lon="2.38392">
        <ele>745.81</ele>
        <time>2026-08-21T10:35:50.863Z</time>
      </trkpt>
      <trkpt lat="45.0166" lon="2.38386">
        <ele>744.8</ele>
        <time>2026-08-21T10:35:51.865Z</time>
      </trkpt>
      <trkpt lat="45.01656" lon="2.3838">
        <ele>743.79</ele>
        <time>2026-08-21T10:35:52.865Z</time>
      </trkpt>
      <trkpt lat="45.01652" lon="2.38373">
        <ele>742.48</ele>
        <time>2026-08-21T10:35:53.869Z</time>
      </trkpt>
      <trkpt lat="45.01648" lon="2.38365">
        <ele>741.01</ele>
        <time>2026-08-21T10:35:54.866Z</time>
      </trkpt>
      <trkpt lat="45.01645" lon="2.38357">
        <ele>739.74</ele>
        <time>2026-08-21T10:35:55.422Z</time>
      </trkpt>
      <trkpt lat="45.0164" lon="2.38349">
        <ele>738.61</ele>
        <time>2026-08-21T10:35:56.922Z</time>
      </trkpt>
      <trkpt lat="45.01637" lon="2.38345">
        <ele>737.63</ele>
        <time>2026-08-21T10:35:57.437Z</time>
      </trkpt>
      <trkpt lat="45.01633" lon="2.38341">
        <ele>736.51</ele>
        <time>2026-08-21T10:35:58.427Z</time>
      </trkpt>
      <trkpt lat="45.01629" lon="2.38338">
        <ele>735.18</ele>
        <time>2026-08-21T10:35:59.435Z</time>
      </trkpt>
      <trkpt lat="45.01624" lon="2.38334">
        <ele>734.28</ele>
        <time>2026-08-21T10:36:00.437Z</time>
      </trkpt>
      <trkpt lat="45.0162" lon="2.38331">
        <ele>732.68</ele>
        <time>2026-08-21T10:36:01.455Z</time>
      </trkpt>
      <trkpt lat="45.01616" lon="2.38329">
        <ele>732.05</ele>
        <time>2026-08-21T10:36:02.919Z</time>
      </trkpt>
      <trkpt lat="45.01611" lon="2.38326">
        <ele>730.59</ele>
        <time>2026-08-21T10:36:03.429Z</time>
      </trkpt>
      <trkpt lat="45.01606" lon="2.38324">
        <ele>729.77</ele>
        <time>2026-08-21T10:36:04.420Z</time>
      </trkpt>
      <trkpt lat="45.01601" lon="2.3832">
        <ele>729.17</ele>
        <time>2026-08-21T10:36:05.919Z</time>
      </trkpt>
      <trkpt lat="45.01596" lon="2.38317">
        <ele>728.34</ele>
        <time>2026-08-21T10:36:06.881Z</time>
      </trkpt>
      <trkpt lat="45.01591" lon="2.38313">
        <ele>727.45</ele>
        <time>2026-08-21T10:36:07.926Z</time>
      </trkpt>
      <trkpt lat="45.01587" lon="2.38311">
        <ele>726.26</ele>
        <time>2026-08-21T10:36:08.884Z</time>
      </trkpt>
      <trkpt lat="45.01582" lon="2.38308">
        <ele>725.3</ele>
        <time>2026-08-21T10:36:09.883Z</time>
      </trkpt>
      <trkpt lat="45.01578" lon="2.38305">
        <ele>724.28</ele>
        <time>2026-08-21T10:36:09.955Z</time>
      </trkpt>
      <trkpt lat="45.01574" lon="2.38302">
        <ele>723.47</ele>
        <time>2026-08-21T10:36:11.885Z</time>
      </trkpt>
      <trkpt lat="45.01571" lon="2.38299">
        <ele>722.87</ele>
        <time>2026-08-21T10:36:12.887Z</time>
      </trkpt>
      <trkpt lat="45.01567" lon="2.38297">
        <ele>722.3</ele>
        <time>2026-08-21T10:36:13.929Z</time>
      </trkpt>
      <trkpt lat="45.01563" lon="2.38294">
        <ele>721.85</ele>
        <time>2026-08-21T10:36:14.889Z</time>
      </trkpt>
      <trkpt lat="45.01559" lon="2.38291">
        <ele>721.35</ele>
        <time>2026-08-21T10:36:15.891Z</time>
      </trkpt>
      <trkpt lat="45.01554" lon="2.38289">
        <ele>721.03</ele>
        <time>2026-08-21T10:36:16.892Z</time>
      </trkpt>
      <trkpt lat="45.01549" lon="2.38286">
        <ele>720.59</ele>
        <time>2026-08-21T10:36:17.894Z</time>
      </trkpt>
      <trkpt lat="45.01544" lon="2.38283">
        <ele>720.39</ele>
        <time>2026-08-21T10:36:17.944Z</time>
      </trkpt>
      <trkpt lat="45.01539" lon="2.3828">
        <ele>719.63</ele>
        <time>2026-08-21T10:36:19.896Z</time>
      </trkpt>
      <trkpt lat="45.01533" lon="2.38276">
        <ele>719.27</ele>
        <time>2026-08-21T10:36:20.941Z</time>
      </trkpt>
      <trkpt lat="45.01527" lon="2.38271">
        <ele>718.83</ele>
        <time>2026-08-21T10:36:21.898Z</time>
      </trkpt>
      <trkpt lat="45.01521" lon="2.38267">
        <ele>718.14</ele>
        <time>2026-08-21T10:36:22.900Z</time>
      </trkpt>
      <trkpt lat="45.01514" lon="2.38263">
        <ele>717.98</ele>
        <time>2026-08-21T10:36:23.900Z</time>
      </trkpt>
      <trkpt lat="45.01508" lon="2.38258">
        <ele>717.51</ele>
        <time>2026-08-21T10:36:24.951Z</time>
      </trkpt>
      <trkpt lat="45.01502" lon="2.38254">
        <ele>716.61</ele>
        <time>2026-08-21T10:36:25.895Z</time>
      </trkpt>
      <trkpt lat="45.01496" lon="2.3825">
        <ele>716.16</ele>
        <time>2026-08-21T10:36:26.949Z</time>
      </trkpt>
      <trkpt lat="45.01491" lon="2.38245">
        <ele>715.97</ele>
        <time>2026-08-21T10:36:27.898Z</time>
      </trkpt>
      <trkpt lat="45.01484" lon="2.3824">
        <ele>715.44</ele>
        <time>2026-08-21T10:36:28.902Z</time>
      </trkpt>
      <trkpt lat="45.01479" lon="2.38235">
        <ele>714.64</ele>
        <time>2026-08-21T10:36:29.952Z</time>
      </trkpt>
      <trkpt lat="45.01473" lon="2.38232">
        <ele>714</ele>
        <time>2026-08-21T10:36:30.906Z</time>
      </trkpt>
      <trkpt lat="45.01466" lon="2.38229">
        <ele>713.49</ele>
        <time>2026-08-21T10:36:31.944Z</time>
      </trkpt>
      <trkpt lat="45.01458" lon="2.38226">
        <ele>712.75</ele>
        <time>2026-08-21T10:36:32.909Z</time>
      </trkpt>
      <trkpt lat="45.01452" lon="2.38223">
        <ele>712.19</ele>
        <time>2026-08-21T10:36:33.905Z</time>
      </trkpt>
      <trkpt lat="45.01445" lon="2.3822">
        <ele>711.36</ele>
        <time>2026-08-21T10:36:34.905Z</time>
      </trkpt>
      <trkpt lat="45.01437" lon="2.38217">
        <ele>710.65</ele>
        <time>2026-08-21T10:36:35.908Z</time>
      </trkpt>
      <trkpt lat="45.01432" lon="2.38217">
        <ele>709.9</ele>
        <time>2026-08-21T10:36:36.947Z</time>
      </trkpt>
      <trkpt lat="45.01428" lon="2.38217">
        <ele>709.43</ele>
        <time>2026-08-21T10:36:37.914Z</time>
      </trkpt>
      <trkpt lat="45.01424" lon="2.38217">
        <ele>708.81</ele>
        <time>2026-08-21T10:36:38.556Z</time>
      </trkpt>
      <trkpt lat="45.0142" lon="2.38219">
        <ele>707.96</ele>
        <time>2026-08-21T10:36:39.968Z</time>
      </trkpt>
      <trkpt lat="45.01418" lon="2.38221">
        <ele>707.55</ele>
        <time>2026-08-21T10:36:40.834Z</time>
      </trkpt>
      <trkpt lat="45.01414" lon="2.38223">
        <ele>707.16</ele>
        <time>2026-08-21T10:36:41.529Z</time>
      </trkpt>
      <trkpt lat="45.01411" lon="2.38225">
        <ele>706.75</ele>
        <time>2026-08-21T10:36:42.927Z</time>
      </trkpt>
      <trkpt lat="45.0141" lon="2.38228">
        <ele>706.43</ele>
        <time>2026-08-21T10:36:43.932Z</time>
      </trkpt>
      <trkpt lat="45.01407" lon="2.3823">
        <ele>706.09</ele>
        <time>2026-08-21T10:36:44.003Z</time>
      </trkpt>
      <trkpt lat="45.01406" lon="2.38232">
        <ele>705.61</ele>
        <time>2026-08-21T10:36:45.939Z</time>
      </trkpt>
      <trkpt lat="45.01404" lon="2.38234">
        <ele>705.38</ele>
        <time>2026-08-21T10:36:46.937Z</time>
      </trkpt>
      <trkpt lat="45.01402" lon="2.38237">
        <ele>705.07</ele>
        <time>2026-08-21T10:36:47.940Z</time>
      </trkpt>
      <trkpt lat="45.01401" lon="2.3824">
        <ele>704.82</ele>
        <time>2026-08-21T10:36:48.944Z</time>
      </trkpt>
      <trkpt lat="45.014" lon="2.38242">
        <ele>704.58</ele>
        <time>2026-08-21T10:36:49.867Z</time>
      </trkpt>
      <trkpt lat="45.01399" lon="2.38244">
        <ele>704.26</ele>
        <time>2026-08-21T10:36:50.947Z</time>
      </trkpt>
      <trkpt lat="45.01398" lon="2.38246">
        <ele>704.11</ele>
        <time>2026-08-21T10:36:51.683Z</time>
      </trkpt>
      <trkpt lat="45.01397" lon="2.38249">
        <ele>703.92</ele>
        <time>2026-08-21T10:36:52.949Z</time>
      </trkpt>
      <trkpt lat="45.01397" lon="2.38251">
        <ele>703.71</ele>
        <time>2026-08-21T10:36:53.946Z</time>
      </trkpt>
      <trkpt lat="45.01395" lon="2.38253">
        <ele>703.6</ele>
        <time>2026-08-21T10:36:54.790Z</time>
      </trkpt>
      <trkpt lat="45.01394" lon="2.38257">
        <ele>703.49</ele>
        <time>2026-08-21T10:36:55.957Z</time>
      </trkpt>
      <trkpt lat="45.01394" lon="2.3826">
        <ele>703.43</ele>
        <time>2026-08-21T10:36:56.960Z</time>
      </trkpt>
      <trkpt lat="45.01393" lon="2.38262">
        <ele>703.33</ele>
        <time>2026-08-21T10:36:57.963Z</time>
      </trkpt>
      <trkpt lat="45.01391" lon="2.38265">
        <ele>703.08</ele>
        <time>2026-08-21T10:36:58.793Z</time>
      </trkpt>
      <trkpt lat="45.0139" lon="2.38267">
        <ele>703.11</ele>
        <time>2026-08-21T10:36:59.528Z</time>
      </trkpt>
      <trkpt lat="45.01389" lon="2.3827">
        <ele>703.07</ele>
        <time>2026-08-21T10:37:00.971Z</time>
      </trkpt>
      <trkpt lat="45.01388" lon="2.38273">
        <ele>702.84</ele>
        <time>2026-08-21T10:37:01.981Z</time>
      </trkpt>
      <trkpt lat="45.01387" lon="2.38276">
        <ele>702.77</ele>
        <time>2026-08-21T10:37:02.976Z</time>
      </trkpt>
      <trkpt lat="45.01386" lon="2.38279">
        <ele>702.74</ele>
        <time>2026-08-21T10:37:03.815Z</time>
      </trkpt>
      <trkpt lat="45.01384" lon="2.38283">
        <ele>702.66</ele>
        <time>2026-08-21T10:37:04.068Z</time>
      </trkpt>
      <trkpt lat="45.01383" lon="2.38286">
        <ele>702.67</ele>
        <time>2026-08-21T10:37:05.023Z</time>
      </trkpt>
      <trkpt lat="45.01382" lon="2.3829">
        <ele>702.59</ele>
        <time>2026-08-21T10:37:06.080Z</time>
      </trkpt>
      <trkpt lat="45.01381" lon="2.38292">
        <ele>702.6</ele>
        <time>2026-08-21T10:37:07.035Z</time>
      </trkpt>
      <trkpt lat="45.01379" lon="2.38296">
        <ele>702.6</ele>
        <time>2026-08-21T10:37:08.043Z</time>
      </trkpt>
      <trkpt lat="45.01378" lon="2.38298">
        <ele>702.57</ele>
        <time>2026-08-21T10:37:09.024Z</time>
      </trkpt>
      <trkpt lat="45.01376" lon="2.38301">
        <ele>702.6</ele>
        <time>2026-08-21T10:37:10.066Z</time>
      </trkpt>
      <trkpt lat="45.01374" lon="2.38304">
        <ele>702.69</ele>
        <time>2026-08-21T10:37:11.499Z</time>
      </trkpt>
      <trkpt lat="45.01373" lon="2.38307">
        <ele>702.74</ele>
        <time>2026-08-21T10:37:12.790Z</time>
      </trkpt>
      <trkpt lat="45.01372" lon="2.38309">
        <ele>702.81</ele>
        <time>2026-08-21T10:37:13.061Z</time>
      </trkpt>
      <trkpt lat="45.0137" lon="2.38312">
        <ele>702.65</ele>
        <time>2026-08-21T10:37:14.724Z</time>
      </trkpt>
      <trkpt lat="45.01369" lon="2.38315">
        <ele>702.75</ele>
        <time>2026-08-21T10:37:15.066Z</time>
      </trkpt>
      <trkpt lat="45.01367" lon="2.38319">
        <ele>702.85</ele>
        <time>2026-08-21T10:37:16.078Z</time>
      </trkpt>
      <trkpt lat="45.01366" lon="2.38322">
        <ele>702.92</ele>
        <time>2026-08-21T10:37:17.929Z</time>
      </trkpt>
      <trkpt lat="45.01364" lon="2.38323">
        <ele>702.96</ele>
        <time>2026-08-21T10:37:18.069Z</time>
      </trkpt>
      <trkpt lat="45.01362" lon="2.38326">
        <ele>703.02</ele>
        <time>2026-08-21T10:37:19.061Z</time>
      </trkpt>
      <trkpt lat="45.0136" lon="2.38329">
        <ele>703</ele>
        <time>2026-08-21T10:37:20.063Z</time>
      </trkpt>
      <trkpt lat="45.01358" lon="2.38331">
        <ele>703.07</ele>
        <time>2026-08-21T10:37:22.030Z</time>
      </trkpt>
      <trkpt lat="45.01357" lon="2.38334">
        <ele>703.15</ele>
        <time>2026-08-21T10:37:22.106Z</time>
      </trkpt>
      <trkpt lat="45.01355" lon="2.38337">
        <ele>703.25</ele>
        <time>2026-08-21T10:37:23.072Z</time>
      </trkpt>
      <trkpt lat="45.01353" lon="2.3834">
        <ele>703.24</ele>
        <time>2026-08-21T10:37:24.059Z</time>
      </trkpt>
      <trkpt lat="45.01352" lon="2.38342">
        <ele>703.3</ele>
        <time>2026-08-21T10:37:25.903Z</time>
      </trkpt>
      <trkpt lat="45.0135" lon="2.38345">
        <ele>703.37</ele>
        <time>2026-08-21T10:37:26.084Z</time>
      </trkpt>
      <trkpt lat="45.01349" lon="2.38347">
        <ele>703.45</ele>
        <time>2026-08-21T10:37:27.067Z</time>
      </trkpt>
      <trkpt lat="45.01348" lon="2.3835">
        <ele>703.49</ele>
        <time>2026-08-21T10:37:28.061Z</time>
      </trkpt>
      <trkpt lat="45.01346" lon="2.38353">
        <ele>703.57</ele>
        <time>2026-08-21T10:37:29.072Z</time>
      </trkpt>
      <trkpt lat="45.01345" lon="2.38356">
        <ele>703.62</ele>
        <time>2026-08-21T10:37:30.593Z</time>
      </trkpt>
      <trkpt lat="45.01343" lon="2.38359">
        <ele>703.69</ele>
        <time>2026-08-21T10:37:31.067Z</time>
      </trkpt>
      <trkpt lat="45.01342" lon="2.38362">
        <ele>703.76</ele>
        <time>2026-08-21T10:37:32.071Z</time>
      </trkpt>
      <trkpt lat="45.0134" lon="2.38365">
        <ele>703.84</ele>
        <time>2026-08-21T10:37:33.075Z</time>
      </trkpt>
      <trkpt lat="45.01339" lon="2.38368">
        <ele>703.91</ele>
        <time>2026-08-21T10:37:34.062Z</time>
      </trkpt>
      <trkpt lat="45.01337" lon="2.38371">
        <ele>703.97</ele>
        <time>2026-08-21T10:37:35.077Z</time>
      </trkpt>
      <trkpt lat="45.01334" lon="2.38377">
        <ele>704.03</ele>
        <time>2026-08-21T10:37:37.061Z</time>
      </trkpt>
      <trkpt lat="45.01332" lon="2.38381">
        <ele>704.16</ele>
        <time>2026-08-21T10:37:38.060Z</time>
      </trkpt>
      <trkpt lat="45.0133" lon="2.38384">
        <ele>704.21</ele>
        <time>2026-08-21T10:37:38.806Z</time>
      </trkpt>
      <trkpt lat="45.01328" lon="2.38386">
        <ele>704.26</ele>
        <time>2026-08-21T10:37:40.064Z</time>
      </trkpt>
      <trkpt lat="45.01325" lon="2.38394">
        <ele>704.3</ele>
        <time>2026-08-21T10:37:42.056Z</time>
      </trkpt>
      <trkpt lat="45.01322" lon="2.38402">
        <ele>704.39</ele>
        <time>2026-08-21T10:37:43.927Z</time>
      </trkpt>
      <trkpt lat="45.01321" lon="2.38405">
        <ele>704.49</ele>
        <time>2026-08-21T10:37:44.709Z</time>
      </trkpt>
      <trkpt lat="45.0132" lon="2.38413">
        <ele>704.55</ele>
        <time>2026-08-21T10:37:47.076Z</time>
      </trkpt>
      <trkpt lat="45.0132" lon="2.38417">
        <ele>704.72</ele>
        <time>2026-08-21T10:37:48.002Z</time>
      </trkpt>
      <trkpt lat="45.0132" lon="2.3842">
        <ele>704.83</ele>
        <time>2026-08-21T10:37:49.082Z</time>
      </trkpt>
      <trkpt lat="45.0132" lon="2.38422">
        <ele>704.95</ele>
        <time>2026-08-21T10:37:50.084Z</time>
      </trkpt>
      <trkpt lat="45.01321" lon="2.38425">
        <ele>705.06</ele>
        <time>2026-08-21T10:37:51.086Z</time>
      </trkpt>
      <trkpt lat="45.01322" lon="2.38428">
        <ele>705.19</ele>
        <time>2026-08-21T10:37:52.088Z</time>
      </trkpt>
      <trkpt lat="45.01323" lon="2.38431">
        <ele>705.3</ele>
        <time>2026-08-21T10:37:52.941Z</time>
      </trkpt>
      <trkpt lat="45.01323" lon="2.38434">
        <ele>705.45</ele>
        <time>2026-08-21T10:37:54.093Z</time>
      </trkpt>
      <trkpt lat="45.01322" lon="2.38437">
        <ele>705.6</ele>
        <time>2026-08-21T10:37:54.102Z</time>
      </trkpt>
      <trkpt lat="45.01322" lon="2.3844">
        <ele>705.77</ele>
        <time>2026-08-21T10:37:56.097Z</time>
      </trkpt>
      <trkpt lat="45.01321" lon="2.38442">
        <ele>706.12</ele>
        <time>2026-08-21T10:37:58.002Z</time>
      </trkpt>
      <trkpt lat="45.0132" lon="2.38441">
        <ele>706.3</ele>
        <time>2026-08-21T10:37:59.003Z</time>
      </trkpt>
      <trkpt lat="45.01318" lon="2.3844">
        <ele>706.48</ele>
        <time>2026-08-21T10:38:00.006Z</time>
      </trkpt>
      <trkpt lat="45.01315" lon="2.38437">
        <ele>706.84</ele>
        <time>2026-08-21T10:38:02.009Z</time>
      </trkpt>
      <trkpt lat="45.01314" lon="2.38436">
        <ele>707.02</ele>
        <time>2026-08-21T10:38:03.024Z</time>
      </trkpt>
      <trkpt lat="45.01312" lon="2.38434">
        <ele>707.39</ele>
        <time>2026-08-21T10:38:05.014Z</time>
      </trkpt>
      <trkpt lat="45.01309" lon="2.38431">
        <ele>707.76</ele>
        <time>2026-08-21T10:38:07.022Z</time>
      </trkpt>
      <trkpt lat="45.01308" lon="2.3843">
        <ele>707.95</ele>
        <time>2026-08-21T10:38:08.019Z</time>
      </trkpt>
      <trkpt lat="45.01307" lon="2.38429">
        <ele>708.13</ele>
        <time>2026-08-21T10:38:09.024Z</time>
      </trkpt>
      <trkpt lat="45.01306" lon="2.38425">
        <ele>708.47</ele>
        <time>2026-08-21T10:38:11.022Z</time>
      </trkpt>
      <trkpt lat="45.01306" lon="2.38423">
        <ele>708.81</ele>
        <time>2026-08-21T10:38:13.030Z</time>
      </trkpt>
      <trkpt lat="45.01305" lon="2.38421">
        <ele>709.13</ele>
        <time>2026-08-21T10:38:15.031Z</time>
      </trkpt>
      <trkpt lat="45.01304" lon="2.3842">
        <ele>709.29</ele>
        <time>2026-08-21T10:38:16.033Z</time>
      </trkpt>
      <trkpt lat="45.01304" lon="2.38419">
        <ele>709.43</ele>
        <time>2026-08-21T10:38:17.035Z</time>
      </trkpt>
      <trkpt lat="45.01299" lon="2.38418">
        <ele>709.7</ele>
        <time>2026-08-21T10:38:19.040Z</time>
      </trkpt>
      <trkpt lat="45.01298" lon="2.38418">
        <ele>709.82</ele>
        <time>2026-08-21T10:38:20.041Z</time>
      </trkpt>
      <trkpt lat="45.01297" lon="2.38417">
        <ele>709.95</ele>
        <time>2026-08-21T10:38:21.042Z</time>
      </trkpt>
      <trkpt lat="45.01297" lon="2.38414">
        <ele>710.19</ele>
        <time>2026-08-21T10:38:23.048Z</time>
      </trkpt>
      <trkpt lat="45.01299" lon="2.38415">
        <ele>710.43</ele>
        <time>2026-08-21T10:38:25.053Z</time>
      </trkpt>
      <trkpt lat="45.01299" lon="2.38416">
        <ele>710.53</ele>
        <time>2026-08-21T10:38:26.052Z</time>
      </trkpt>
      <trkpt lat="45.013" lon="2.38419">
        <ele>710.73</ele>
        <time>2026-08-21T10:38:28.057Z</time>
      </trkpt>
      <trkpt lat="45.013" lon="2.38421">
        <ele>710.83</ele>
        <time>2026-08-21T10:38:29.059Z</time>
      </trkpt>
      <trkpt lat="45.01303" lon="2.38423">
        <ele>711.02</ele>
        <time>2026-08-21T10:38:31.067Z</time>
      </trkpt>
      <trkpt lat="45.01304" lon="2.38424">
        <ele>711.2</ele>
        <time>2026-08-21T10:38:33.067Z</time>
      </trkpt>
      <trkpt lat="45.01305" lon="2.38424">
        <ele>711.37</ele>
        <time>2026-08-21T10:38:35.073Z</time>
      </trkpt>
      <trkpt lat="45.01307" lon="2.38423">
        <ele>711.54</ele>
        <time>2026-08-21T10:38:37.078Z</time>
      </trkpt>
      <trkpt lat="45.01308" lon="2.38424">
        <ele>711.65</ele>
        <time>2026-08-21T10:38:39.125Z</time>
      </trkpt>
      <trkpt lat="45.0131" lon="2.38425">
        <ele>711.7</ele>
        <time>2026-08-21T10:38:39.968Z</time>
      </trkpt>
      <trkpt lat="45.01312" lon="2.38427">
        <ele>711.73</ele>
        <time>2026-08-21T10:38:41.084Z</time>
      </trkpt>
      <trkpt lat="45.01313" lon="2.38429">
        <ele>711.77</ele>
        <time>2026-08-21T10:38:42.089Z</time>
      </trkpt>
      <trkpt lat="45.01315" lon="2.38431">
        <ele>711.81</ele>
        <time>2026-08-21T10:38:43.089Z</time>
      </trkpt>
      <trkpt lat="45.01316" lon="2.38434">
        <ele>711.85</ele>
        <time>2026-08-21T10:38:44.090Z</time>
      </trkpt>
      <trkpt lat="45.01317" lon="2.38436">
        <ele>711.92</ele>
        <time>2026-08-21T10:38:45.093Z</time>
      </trkpt>
      <trkpt lat="45.01317" lon="2.38438">
        <ele>711.91</ele>
        <time>2026-08-21T10:38:46.095Z</time>
      </trkpt>
      <trkpt lat="45.01316" lon="2.3844">
        <ele>711.96</ele>
        <time>2026-08-21T10:38:46.680Z</time>
      </trkpt>
      <trkpt lat="45.01315" lon="2.38439">
        <ele>712.02</ele>
        <time>2026-08-21T10:38:47.680Z</time>
      </trkpt>
      <trkpt lat="45.01313" lon="2.38438">
        <ele>712.07</ele>
        <time>2026-08-21T10:38:48.729Z</time>
      </trkpt>
      <trkpt lat="45.01312" lon="2.38436">
        <ele>712.13</ele>
        <time>2026-08-21T10:38:49.728Z</time>
      </trkpt>
      <trkpt lat="45.01311" lon="2.38435">
        <ele>712.19</ele>
        <time>2026-08-21T10:38:51.008Z</time>
      </trkpt>
      <trkpt lat="45.01309" lon="2.38432">
        <ele>712.25</ele>
        <time>2026-08-21T10:38:51.663Z</time>
      </trkpt>
      <trkpt lat="45.01308" lon="2.3843">
        <ele>712.3</ele>
        <time>2026-08-21T10:38:53.109Z</time>
      </trkpt>
      <trkpt lat="45.01306" lon="2.38428">
        <ele>712.37</ele>
        <time>2026-08-21T10:38:53.162Z</time>
      </trkpt>
      <trkpt lat="45.01305" lon="2.38426">
        <ele>712.42</ele>
        <time>2026-08-21T10:38:54.183Z</time>
      </trkpt>
      <trkpt lat="45.01304" lon="2.38425">
        <ele>712.46</ele>
        <time>2026-08-21T10:38:56.116Z</time>
      </trkpt>
      <trkpt lat="45.01302" lon="2.38423">
        <ele>712.52</ele>
        <time>2026-08-21T10:38:57.118Z</time>
      </trkpt>
      <trkpt lat="45.013" lon="2.3842">
        <ele>712.57</ele>
        <time>2026-08-21T10:38:58.120Z</time>
      </trkpt>
      <trkpt lat="45.01299" lon="2.38418">
        <ele>712.62</ele>
        <time>2026-08-21T10:38:59.123Z</time>
      </trkpt>
      <trkpt lat="45.01297" lon="2.38415">
        <ele>712.67</ele>
        <time>2026-08-21T10:39:00.124Z</time>
      </trkpt>
      <trkpt lat="45.01295" lon="2.38413">
        <ele>712.71</ele>
        <time>2026-08-21T10:39:01.126Z</time>
      </trkpt>
      <trkpt lat="45.01293" lon="2.38411">
        <ele>712.77</ele>
        <time>2026-08-21T10:39:02.128Z</time>
      </trkpt>
      <trkpt lat="45.01291" lon="2.38408">
        <ele>712.81</ele>
        <time>2026-08-21T10:39:02.224Z</time>
      </trkpt>
      <trkpt lat="45.01289" lon="2.38406">
        <ele>712.86</ele>
        <time>2026-08-21T10:39:03.759Z</time>
      </trkpt>
      <trkpt lat="45.01288" lon="2.38404">
        <ele>712.91</ele>
        <time>2026-08-21T10:39:05.027Z</time>
      </trkpt>
      <trkpt lat="45.01286" lon="2.38402">
        <ele>712.97</ele>
        <time>2026-08-21T10:39:05.778Z</time>
      </trkpt>
      <trkpt lat="45.01284" lon="2.38398">
        <ele>713.01</ele>
        <time>2026-08-21T10:39:07.141Z</time>
      </trkpt>
      <trkpt lat="45.01283" lon="2.38395">
        <ele>713.06</ele>
        <time>2026-08-21T10:39:07.982Z</time>
      </trkpt>
      <trkpt lat="45.01282" lon="2.38392">
        <ele>713.1</ele>
        <time>2026-08-21T10:39:09.142Z</time>
      </trkpt>
      <trkpt lat="45.0128" lon="2.3839">
        <ele>713.15</ele>
        <time>2026-08-21T10:39:10.145Z</time>
      </trkpt>
      <trkpt lat="45.01279" lon="2.38387">
        <ele>713.21</ele>
        <time>2026-08-21T10:39:11.146Z</time>
      </trkpt>
      <trkpt lat="45.01277" lon="2.38385">
        <ele>713.27</ele>
        <time>2026-08-21T10:39:12.002Z</time>
      </trkpt>
      <trkpt lat="45.01276" lon="2.38383">
        <ele>713.33</ele>
        <time>2026-08-21T10:39:13.150Z</time>
      </trkpt>
      <trkpt lat="45.01273" lon="2.38381">
        <ele>713.4</ele>
        <time>2026-08-21T10:39:14.153Z</time>
      </trkpt>
      <trkpt lat="45.01272" lon="2.38379">
        <ele>713.47</ele>
        <time>2026-08-21T10:39:15.156Z</time>
      </trkpt>
      <trkpt lat="45.0127" lon="2.38377">
        <ele>713.53</ele>
        <time>2026-08-21T10:39:15.699Z</time>
      </trkpt>
      <trkpt lat="45.01269" lon="2.38375">
        <ele>713.57</ele>
        <time>2026-08-21T10:39:16.968Z</time>
      </trkpt>
      <trkpt lat="45.01268" lon="2.38373">
        <ele>713.62</ele>
        <time>2026-08-21T10:39:18.161Z</time>
      </trkpt>
      <trkpt lat="45.01266" lon="2.38371">
        <ele>713.66</ele>
        <time>2026-08-21T10:39:19.163Z</time>
      </trkpt>
      <trkpt lat="45.01265" lon="2.38368">
        <ele>713.71</ele>
        <time>2026-08-21T10:39:20.163Z</time>
      </trkpt>
      <trkpt lat="45.01264" lon="2.38366">
        <ele>713.76</ele>
        <time>2026-08-21T10:39:21.166Z</time>
      </trkpt>
      <trkpt lat="45.01263" lon="2.38363">
        <ele>713.82</ele>
        <time>2026-08-21T10:39:22.067Z</time>
      </trkpt>
      <trkpt lat="45.01262" lon="2.3836">
        <ele>713.88</ele>
        <time>2026-08-21T10:39:23.070Z</time>
      </trkpt>
      <trkpt lat="45.01261" lon="2.38358">
        <ele>713.93</ele>
        <time>2026-08-21T10:39:24.072Z</time>
      </trkpt>
      <trkpt lat="45.0126" lon="2.38355">
        <ele>713.99</ele>
        <time>2026-08-21T10:39:25.073Z</time>
      </trkpt>
      <trkpt lat="45.01259" lon="2.38353">
        <ele>714.05</ele>
        <time>2026-08-21T10:39:26.075Z</time>
      </trkpt>
      <trkpt lat="45.01257" lon="2.38352">
        <ele>714.1</ele>
        <time>2026-08-21T10:39:27.077Z</time>
      </trkpt>
      <trkpt lat="45.01256" lon="2.38352">
        <ele>714.16</ele>
        <time>2026-08-21T10:39:28.080Z</time>
      </trkpt>
      <trkpt lat="45.01255" lon="2.38353">
        <ele>714.19</ele>
        <time>2026-08-21T10:39:29.081Z</time>
      </trkpt>
      <trkpt lat="45.01252" lon="2.38355">
        <ele>714.23</ele>
        <time>2026-08-21T10:39:30.083Z</time>
      </trkpt>
      <trkpt lat="45.0125" lon="2.38357">
        <ele>714.24</ele>
        <time>2026-08-21T10:39:31.084Z</time>
      </trkpt>
      <trkpt lat="45.01246" lon="2.38361">
        <ele>714.29</ele>
        <time>2026-08-21T10:39:32.090Z</time>
      </trkpt>
      <trkpt lat="45.01241" lon="2.38365">
        <ele>714.22</ele>
        <time>2026-08-21T10:39:33.088Z</time>
      </trkpt>
      <trkpt lat="45.01236" lon="2.38369">
        <ele>714.13</ele>
        <time>2026-08-21T10:39:34.091Z</time>
      </trkpt>
      <trkpt lat="45.01231" lon="2.38374">
        <ele>714.17</ele>
        <time>2026-08-21T10:39:35.094Z</time>
      </trkpt>
      <trkpt lat="45.01226" lon="2.38379">
        <ele>714.09</ele>
        <time>2026-08-21T10:39:36.096Z</time>
      </trkpt>
      <trkpt lat="45.0122" lon="2.38384">
        <ele>713.95</ele>
        <time>2026-08-21T10:39:37.098Z</time>
      </trkpt>
      <trkpt lat="45.01214" lon="2.38389">
        <ele>713.79</ele>
        <time>2026-08-21T10:39:38.101Z</time>
      </trkpt>
      <trkpt lat="45.01208" lon="2.38396">
        <ele>713.71</ele>
        <time>2026-08-21T10:39:38.693Z</time>
      </trkpt>
      <trkpt lat="45.01202" lon="2.38402">
        <ele>713.69</ele>
        <time>2026-08-21T10:39:40.175Z</time>
      </trkpt>
      <trkpt lat="45.01196" lon="2.38407">
        <ele>713.67</ele>
        <time>2026-08-21T10:39:41.106Z</time>
      </trkpt>
      <trkpt lat="45.0119" lon="2.38409">
        <ele>713.61</ele>
        <time>2026-08-21T10:39:42.182Z</time>
      </trkpt>
      <trkpt lat="45.01185" lon="2.38411">
        <ele>713.6</ele>
        <time>2026-08-21T10:39:43.109Z</time>
      </trkpt>
      <trkpt lat="45.01179" lon="2.38412">
        <ele>713.59</ele>
        <time>2026-08-21T10:39:43.749Z</time>
      </trkpt>
      <trkpt lat="45.01173" lon="2.38414">
        <ele>713.58</ele>
        <time>2026-08-21T10:39:45.153Z</time>
      </trkpt>
      <trkpt lat="45.01167" lon="2.38415">
        <ele>713.4</ele>
        <time>2026-08-21T10:39:46.115Z</time>
      </trkpt>
      <trkpt lat="45.0116" lon="2.38416">
        <ele>713.35</ele>
        <time>2026-08-21T10:39:47.117Z</time>
      </trkpt>
      <trkpt lat="45.01156" lon="2.38416">
        <ele>713.32</ele>
        <time>2026-08-21T10:39:48.119Z</time>
      </trkpt>
      <trkpt lat="45.01146" lon="2.38417">
        <ele>713.24</ele>
        <time>2026-08-21T10:39:49.120Z</time>
      </trkpt>
      <trkpt lat="45.01138" lon="2.38417">
        <ele>712.97</ele>
        <time>2026-08-21T10:39:50.123Z</time>
      </trkpt>
      <trkpt lat="45.01129" lon="2.38418">
        <ele>712.72</ele>
        <time>2026-08-21T10:39:51.124Z</time>
      </trkpt>
      <trkpt lat="45.01122" lon="2.38419">
        <ele>712.5</ele>
        <time>2026-08-21T10:39:51.753Z</time>
      </trkpt>
      <trkpt lat="45.01113" lon="2.38421">
        <ele>712.3</ele>
        <time>2026-08-21T10:39:53.195Z</time>
      </trkpt>
      <trkpt lat="45.01107" lon="2.38422">
        <ele>711.98</ele>
        <time>2026-08-21T10:39:53.736Z</time>
      </trkpt>
      <trkpt lat="45.011" lon="2.38424">
        <ele>711.79</ele>
        <time>2026-08-21T10:39:54.755Z</time>
      </trkpt>
      <trkpt lat="45.01095" lon="2.38426">
        <ele>711.3</ele>
        <time>2026-08-21T10:39:55.744Z</time>
      </trkpt>
      <trkpt lat="45.0109" lon="2.38429">
        <ele>710.98</ele>
        <time>2026-08-21T10:39:57.184Z</time>
      </trkpt>
      <trkpt lat="45.01083" lon="2.38431">
        <ele>710.45</ele>
        <time>2026-08-21T10:39:58.136Z</time>
      </trkpt>
      <trkpt lat="45.01076" lon="2.38434">
        <ele>709.99</ele>
        <time>2026-08-21T10:39:59.138Z</time>
      </trkpt>
      <trkpt lat="45.01071" lon="2.38437">
        <ele>709.55</ele>
        <time>2026-08-21T10:39:59.741Z</time>
      </trkpt>
      <trkpt lat="45.01065" lon="2.38439">
        <ele>709.36</ele>
        <time>2026-08-21T10:40:01.209Z</time>
      </trkpt>
      <trkpt lat="45.01061" lon="2.38441">
        <ele>708.97</ele>
        <time>2026-08-21T10:40:02.197Z</time>
      </trkpt>
      <trkpt lat="45.01057" lon="2.38444">
        <ele>708.22</ele>
        <time>2026-08-21T10:40:03.146Z</time>
      </trkpt>
      <trkpt lat="45.01053" lon="2.38445">
        <ele>707.62</ele>
        <time>2026-08-21T10:40:04.149Z</time>
      </trkpt>
      <trkpt lat="45.01049" lon="2.38447">
        <ele>707.02</ele>
        <time>2026-08-21T10:40:05.149Z</time>
      </trkpt>
      <trkpt lat="45.01046" lon="2.38448">
        <ele>706.42</ele>
        <time>2026-08-21T10:40:06.047Z</time>
      </trkpt>
      <trkpt lat="45.01044" lon="2.38448">
        <ele>705.64</ele>
        <time>2026-08-21T10:40:07.153Z</time>
      </trkpt>
      <trkpt lat="45.01041" lon="2.3845">
        <ele>704.76</ele>
        <time>2026-08-21T10:40:08.155Z</time>
      </trkpt>
      <trkpt lat="45.01039" lon="2.38451">
        <ele>704.2</ele>
        <time>2026-08-21T10:40:09.156Z</time>
      </trkpt>
      <trkpt lat="45.01037" lon="2.38453">
        <ele>703.74</ele>
        <time>2026-08-21T10:40:09.788Z</time>
      </trkpt>
      <trkpt lat="45.01035" lon="2.38455">
        <ele>702.92</ele>
        <time>2026-08-21T10:40:11.158Z</time>
      </trkpt>
      <trkpt lat="45.01032" lon="2.38456">
        <ele>702.14</ele>
        <time>2026-08-21T10:40:12.160Z</time>
      </trkpt>
      <trkpt lat="45.01031" lon="2.38457">
        <ele>701.35</ele>
        <time>2026-08-21T10:40:12.968Z</time>
      </trkpt>
      <trkpt lat="45.0103" lon="2.38459">
        <ele>700.81</ele>
        <time>2026-08-21T10:40:14.164Z</time>
      </trkpt>
      <trkpt lat="45.01028" lon="2.38461">
        <ele>700.81</ele>
        <time>2026-08-21T10:40:14.768Z</time>
      </trkpt>
      <trkpt lat="45.01027" lon="2.38464">
        <ele>700.81</ele>
        <time>2026-08-21T10:40:15.766Z</time>
      </trkpt>
      <trkpt lat="45.01026" lon="2.38468">
        <ele>698.45</ele>
        <time>2026-08-21T10:40:16.765Z</time>
      </trkpt>
      <trkpt lat="45.01024" lon="2.38471">
        <ele>697.56</ele>
        <time>2026-08-21T10:40:17.747Z</time>
      </trkpt>
      <trkpt lat="45.01022" lon="2.38475">
        <ele>696.59</ele>
        <time>2026-08-21T10:40:18.801Z</time>
      </trkpt>
      <trkpt lat="45.01019" lon="2.38476">
        <ele>695.8</ele>
        <time>2026-08-21T10:40:20.172Z</time>
      </trkpt>
      <trkpt lat="45.01017" lon="2.38478">
        <ele>695.01</ele>
        <time>2026-08-21T10:40:21.175Z</time>
      </trkpt>
      <trkpt lat="45.01014" lon="2.38478">
        <ele>694.21</ele>
        <time>2026-08-21T10:40:22.175Z</time>
      </trkpt>
      <trkpt lat="45.01011" lon="2.38477">
        <ele>693.47</ele>
        <time>2026-08-21T10:40:23.178Z</time>
      </trkpt>
      <trkpt lat="45.01008" lon="2.38476">
        <ele>692.83</ele>
        <time>2026-08-21T10:40:24.178Z</time>
      </trkpt>
      <trkpt lat="45.01006" lon="2.38474">
        <ele>691.95</ele>
        <time>2026-08-21T10:40:25.181Z</time>
      </trkpt>
      <trkpt lat="45.01003" lon="2.38468">
        <ele>691.15</ele>
        <time>2026-08-21T10:40:26.182Z</time>
      </trkpt>
      <trkpt lat="45.01" lon="2.38461">
        <ele>690.46</ele>
        <time>2026-08-21T10:40:27.184Z</time>
      </trkpt>
      <trkpt lat="45.00999" lon="2.38454">
        <ele>689.54</ele>
        <time>2026-08-21T10:40:28.185Z</time>
      </trkpt>
      <trkpt lat="45.00998" lon="2.38447">
        <ele>688.53</ele>
        <time>2026-08-21T10:40:29.187Z</time>
      </trkpt>
      <trkpt lat="45.00996" lon="2.3844">
        <ele>687.71</ele>
        <time>2026-08-21T10:40:30.189Z</time>
      </trkpt>
      <trkpt lat="45.00995" lon="2.38434">
        <ele>687.17</ele>
        <time>2026-08-21T10:40:31.191Z</time>
      </trkpt>
      <trkpt lat="45.00993" lon="2.38424">
        <ele>686.39</ele>
        <time>2026-08-21T10:40:32.193Z</time>
      </trkpt>
      <trkpt lat="45.0099" lon="2.38417">
        <ele>685.62</ele>
        <time>2026-08-21T10:40:33.192Z</time>
      </trkpt>
      <trkpt lat="45.00987" lon="2.38409">
        <ele>684.32</ele>
        <time>2026-08-21T10:40:34.193Z</time>
      </trkpt>
      <trkpt lat="45.00984" lon="2.38401">
        <ele>682.94</ele>
        <time>2026-08-21T10:40:35.197Z</time>
      </trkpt>
      <trkpt lat="45.0098" lon="2.38394">
        <ele>682.08</ele>
        <time>2026-08-21T10:40:36.188Z</time>
      </trkpt>
      <trkpt lat="45.00976" lon="2.38387">
        <ele>680.85</ele>
        <time>2026-08-21T10:40:37.190Z</time>
      </trkpt>
      <trkpt lat="45.00972" lon="2.3838">
        <ele>680.27</ele>
        <time>2026-08-21T10:40:38.192Z</time>
      </trkpt>
      <trkpt lat="45.00967" lon="2.38373">
        <ele>679.09</ele>
        <time>2026-08-21T10:40:39.194Z</time>
      </trkpt>
      <trkpt lat="45.00962" lon="2.38367">
        <ele>677.78</ele>
        <time>2026-08-21T10:40:40.196Z</time>
      </trkpt>
      <trkpt lat="45.00957" lon="2.38362">
        <ele>677.33</ele>
        <time>2026-08-21T10:40:41.198Z</time>
      </trkpt>
      <trkpt lat="45.00951" lon="2.38357">
        <ele>676.39</ele>
        <time>2026-08-21T10:40:42.201Z</time>
      </trkpt>
      <trkpt lat="45.00946" lon="2.38353">
        <ele>675.23</ele>
        <time>2026-08-21T10:40:43.201Z</time>
      </trkpt>
      <trkpt lat="45.0094" lon="2.3835">
        <ele>674.15</ele>
        <time>2026-08-21T10:40:44.133Z</time>
      </trkpt>
      <trkpt lat="45.00934" lon="2.38345">
        <ele>672.98</ele>
        <time>2026-08-21T10:40:45.205Z</time>
      </trkpt>
      <trkpt lat="45.00928" lon="2.38342">
        <ele>671.46</ele>
        <time>2026-08-21T10:40:46.207Z</time>
      </trkpt>
      <trkpt lat="45.00922" lon="2.38338">
        <ele>669.55</ele>
        <time>2026-08-21T10:40:47.170Z</time>
      </trkpt>
      <trkpt lat="45.00916" lon="2.38335">
        <ele>668.55</ele>
        <time>2026-08-21T10:40:48.275Z</time>
      </trkpt>
      <trkpt lat="45.0091" lon="2.38331">
        <ele>667.36</ele>
        <time>2026-08-21T10:40:49.212Z</time>
      </trkpt>
      <trkpt lat="45.00905" lon="2.38328">
        <ele>666.21</ele>
        <time>2026-08-21T10:40:50.166Z</time>
      </trkpt>
      <trkpt lat="45.00901" lon="2.38326">
        <ele>665.28</ele>
        <time>2026-08-21T10:40:51.219Z</time>
      </trkpt>
      <trkpt lat="45.00899" lon="2.38325">
        <ele>664.48</ele>
        <time>2026-08-21T10:40:52.217Z</time>
      </trkpt>
      <trkpt lat="45.00897" lon="2.38323">
        <ele>664.18</ele>
        <time>2026-08-21T10:40:53.219Z</time>
      </trkpt>
      <trkpt lat="45.00892" lon="2.3832">
        <ele>662.63</ele>
        <time>2026-08-21T10:40:55.224Z</time>
      </trkpt>
      <trkpt lat="45.00891" lon="2.3832">
        <ele>661.87</ele>
        <time>2026-08-21T10:40:56.226Z</time>
      </trkpt>
      <trkpt lat="45.0089" lon="2.38319">
        <ele>661.87</ele>
        <time>2026-08-21T10:40:57.217Z</time>
      </trkpt>
      <trkpt lat="45.00889" lon="2.38319">
        <ele>661.87</ele>
        <time>2026-08-21T10:40:58.220Z</time>
      </trkpt>
      <trkpt lat="45.00887" lon="2.38318">
        <ele>661.87</ele>
        <time>2026-08-21T10:40:59.221Z</time>
      </trkpt>
      <trkpt lat="45.00886" lon="2.38317">
        <ele>661.87</ele>
        <time>2026-08-21T10:40:59.856Z</time>
      </trkpt>
      <trkpt lat="45.00885" lon="2.38316">
        <ele>661.87</ele>
        <time>2026-08-21T10:41:01.224Z</time>
      </trkpt>
      <trkpt lat="45.00884" lon="2.38315">
        <ele>661.87</ele>
        <time>2026-08-21T10:41:02.225Z</time>
      </trkpt>
      <trkpt lat="45.00882" lon="2.38314">
        <ele>661.87</ele>
        <time>2026-08-21T10:41:02.859Z</time>
      </trkpt>
      <trkpt lat="45.00879" lon="2.38312">
        <ele>657.64</ele>
        <time>2026-08-21T10:41:04.229Z</time>
      </trkpt>
      <trkpt lat="45.00871" lon="2.38308">
        <ele>653.01</ele>
        <time>2026-08-21T10:41:25.416Z</time>
      </trkpt>
      <trkpt lat="45.00869" lon="2.38307">
        <ele>652.82</ele>
        <time>2026-08-21T10:41:25.423Z</time>
      </trkpt>
      <trkpt lat="45.00869" lon="2.38306">
        <ele>652.65</ele>
        <time>2026-08-21T10:41:26.434Z</time>
      </trkpt>
      <trkpt lat="45.00866" lon="2.38305">
        <ele>652.12</ele>
        <time>2026-08-21T10:41:29.364Z</time>
      </trkpt>
      <trkpt lat="45.00861" lon="2.3831">
        <ele>650.25</ele>
        <time>2026-08-21T10:45:10.058Z</time>
      </trkpt>
      <trkpt lat="45.0086" lon="2.38312">
        <ele>648.16</ele>
        <time>2026-08-21T10:45:11.118Z</time>
      </trkpt>
      <trkpt lat="45.00859" lon="2.38314">
        <ele>648.15</ele>
        <time>2026-08-21T10:45:12.121Z</time>
      </trkpt>
      <trkpt lat="45.00858" lon="2.38317">
        <ele>648.13</ele>
        <time>2026-08-21T10:45:13.124Z</time>
      </trkpt>
      <trkpt lat="45.00856" lon="2.3832">
        <ele>648.13</ele>
        <time>2026-08-21T10:45:14.204Z</time>
      </trkpt>
      <trkpt lat="45.00855" lon="2.38321">
        <ele>648.11</ele>
        <time>2026-08-21T10:45:15.131Z</time>
      </trkpt>
      <trkpt lat="45.00853" lon="2.38323">
        <ele>648.06</ele>
        <time>2026-08-21T10:45:16.207Z</time>
      </trkpt>
      <trkpt lat="45.00851" lon="2.38324">
        <ele>648.03</ele>
        <time>2026-08-21T10:45:17.136Z</time>
      </trkpt>
      <trkpt lat="45.0085" lon="2.38326">
        <ele>648</ele>
        <time>2026-08-21T10:45:18.140Z</time>
      </trkpt>
      <trkpt lat="45.00849" lon="2.38327">
        <ele>647.95</ele>
        <time>2026-08-21T10:45:19.146Z</time>
      </trkpt>
      <trkpt lat="45.00848" lon="2.38327">
        <ele>647.89</ele>
        <time>2026-08-21T10:45:20.146Z</time>
      </trkpt>
      <trkpt lat="45.00847" lon="2.38327">
        <ele>647.84</ele>
        <time>2026-08-21T10:45:21.150Z</time>
      </trkpt>
      <trkpt lat="45.00844" lon="2.38325">
        <ele>647.73</ele>
        <time>2026-08-21T10:45:23.159Z</time>
      </trkpt>
      <trkpt lat="45.00843" lon="2.38325">
        <ele>647.67</ele>
        <time>2026-08-21T10:45:24.161Z</time>
      </trkpt>
      <trkpt lat="45.00842" lon="2.38324">
        <ele>647.61</ele>
        <time>2026-08-21T10:45:25.164Z</time>
      </trkpt>
      <trkpt lat="45.00841" lon="2.38324">
        <ele>647.57</ele>
        <time>2026-08-21T10:45:26.168Z</time>
      </trkpt>
      <trkpt lat="45.00839" lon="2.38324">
        <ele>647.52</ele>
        <time>2026-08-21T10:45:27.096Z</time>
      </trkpt>
      <trkpt lat="45.00837" lon="2.38324">
        <ele>647.45</ele>
        <time>2026-08-21T10:45:28.173Z</time>
      </trkpt>
      <trkpt lat="45.00834" lon="2.38323">
        <ele>647.33</ele>
        <time>2026-08-21T10:45:30.187Z</time>
      </trkpt>
      <trkpt lat="45.00832" lon="2.38322">
        <ele>647.26</ele>
        <time>2026-08-21T10:45:31.184Z</time>
      </trkpt>
      <trkpt lat="45.0083" lon="2.38318">
        <ele>647.13</ele>
        <time>2026-08-21T10:45:33.190Z</time>
      </trkpt>
      <trkpt lat="45.00824" lon="2.38316">
        <ele>646.92</ele>
        <time>2026-08-21T10:46:00.071Z</time>
      </trkpt>
      <trkpt lat="45.00824" lon="2.38315">
        <ele>645.8</ele>
        <time>2026-08-21T10:46:02.200Z</time>
      </trkpt>
      <trkpt lat="45.00824" lon="2.38314">
        <ele>645.75</ele>
        <time>2026-08-21T10:46:03.202Z</time>
      </trkpt>
      <trkpt lat="45.00823" lon="2.38312">
        <ele>645.72</ele>
        <time>2026-08-21T10:46:04.180Z</time>
      </trkpt>
      <trkpt lat="45.00822" lon="2.38311">
        <ele>645.69</ele>
        <time>2026-08-21T10:46:05.179Z</time>
      </trkpt>
      <trkpt lat="45.00822" lon="2.38309">
        <ele>645.66</ele>
        <time>2026-08-21T10:46:06.184Z</time>
      </trkpt>
      <trkpt lat="45.00821" lon="2.38307">
        <ele>645.63</ele>
        <time>2026-08-21T10:46:07.181Z</time>
      </trkpt>
      <trkpt lat="45.0082" lon="2.38305">
        <ele>645.61</ele>
        <time>2026-08-21T10:46:08.188Z</time>
      </trkpt>
      <trkpt lat="45.00819" lon="2.38303">
        <ele>645.58</ele>
        <time>2026-08-21T10:46:08.447Z</time>
      </trkpt>
      <trkpt lat="45.00818" lon="2.38302">
        <ele>645.54</ele>
        <time>2026-08-21T10:46:09.219Z</time>
      </trkpt>
      <trkpt lat="45.00818" lon="2.383">
        <ele>645.52</ele>
        <time>2026-08-21T10:46:11.210Z</time>
      </trkpt>
      <trkpt lat="45.00816" lon="2.38298">
        <ele>645.51</ele>
        <time>2026-08-21T10:46:12.202Z</time>
      </trkpt>
      <trkpt lat="45.00816" lon="2.38296">
        <ele>645.5</ele>
        <time>2026-08-21T10:46:13.207Z</time>
      </trkpt>
      <trkpt lat="45.00815" lon="2.38293">
        <ele>645.53</ele>
        <time>2026-08-21T10:46:14.198Z</time>
      </trkpt>
      <trkpt lat="45.00814" lon="2.38291">
        <ele>645.52</ele>
        <time>2026-08-21T10:46:15.206Z</time>
      </trkpt>
      <trkpt lat="45.00814" lon="2.38285">
        <ele>645.54</ele>
        <time>2026-08-21T10:46:17.208Z</time>
      </trkpt>
      <trkpt lat="45.00813" lon="2.38284">
        <ele>645.52</ele>
        <time>2026-08-21T10:46:18.211Z</time>
      </trkpt>
      <trkpt lat="45.00813" lon="2.38282">
        <ele>645.5</ele>
        <time>2026-08-21T10:46:19.212Z</time>
      </trkpt>
      <trkpt lat="45.00813" lon="2.38281">
        <ele>645.51</ele>
        <time>2026-08-21T10:46:20.045Z</time>
      </trkpt>
      <trkpt lat="45.00811" lon="2.38279">
        <ele>645.51</ele>
        <time>2026-08-21T10:46:20.841Z</time>
      </trkpt>
      <trkpt lat="45.0081" lon="2.38278">
        <ele>645.54</ele>
        <time>2026-08-21T10:46:21.875Z</time>
      </trkpt>
      <trkpt lat="45.00808" lon="2.38276">
        <ele>645.55</ele>
        <time>2026-08-21T10:46:23.223Z</time>
      </trkpt>
      <trkpt lat="45.00805" lon="2.38272">
        <ele>645.59</ele>
        <time>2026-08-21T10:46:25.181Z</time>
      </trkpt>
      <trkpt lat="45.00805" lon="2.38271">
        <ele>645.61</ele>
        <time>2026-08-21T10:46:26.085Z</time>
      </trkpt>
      <trkpt lat="45.00804" lon="2.38269">
        <ele>645.63</ele>
        <time>2026-08-21T10:46:27.235Z</time>
      </trkpt>
      <trkpt lat="45.00803" lon="2.38267">
        <ele>645.66</ele>
        <time>2026-08-21T10:46:28.235Z</time>
      </trkpt>
      <trkpt lat="45.00803" lon="2.38265">
        <ele>645.68</ele>
        <time>2026-08-21T10:46:28.869Z</time>
      </trkpt>
      <trkpt lat="45.00802" lon="2.38263">
        <ele>645.71</ele>
        <time>2026-08-21T10:46:30.139Z</time>
      </trkpt>
      <trkpt lat="45.008" lon="2.3826">
        <ele>645.73</ele>
        <time>2026-08-21T10:46:31.141Z</time>
      </trkpt>
      <trkpt lat="45.008" lon="2.38258">
        <ele>645.75</ele>
        <time>2026-08-21T10:46:32.142Z</time>
      </trkpt>
      <trkpt lat="45.00798" lon="2.38255">
        <ele>645.78</ele>
        <time>2026-08-21T10:46:33.144Z</time>
      </trkpt>
      <trkpt lat="45.00798" lon="2.38253">
        <ele>645.8</ele>
        <time>2026-08-21T10:46:34.145Z</time>
      </trkpt>
      <trkpt lat="45.00797" lon="2.3825">
        <ele>645.83</ele>
        <time>2026-08-21T10:46:35.147Z</time>
      </trkpt>
      <trkpt lat="45.00797" lon="2.38248">
        <ele>645.86</ele>
        <time>2026-08-21T10:46:36.149Z</time>
      </trkpt>
      <trkpt lat="45.00796" lon="2.38246">
        <ele>645.9</ele>
        <time>2026-08-21T10:46:37.150Z</time>
      </trkpt>
      <trkpt lat="45.00796" lon="2.38244">
        <ele>645.94</ele>
        <time>2026-08-21T10:46:38.152Z</time>
      </trkpt>
      <trkpt lat="45.00795" lon="2.38241">
        <ele>645.99</ele>
        <time>2026-08-21T10:46:39.154Z</time>
      </trkpt>
      <trkpt lat="45.00794" lon="2.38239">
        <ele>646.03</ele>
        <time>2026-08-21T10:46:40.156Z</time>
      </trkpt>
      <trkpt lat="45.00794" lon="2.38237">
        <ele>646.07</ele>
        <time>2026-08-21T10:46:41.158Z</time>
      </trkpt>
      <trkpt lat="45.00792" lon="2.38231">
        <ele>646.18</ele>
        <time>2026-08-21T10:46:43.161Z</time>
      </trkpt>
      <trkpt lat="45.00792" lon="2.38229">
        <ele>646.24</ele>
        <time>2026-08-21T10:46:44.163Z</time>
      </trkpt>
      <trkpt lat="45.00792" lon="2.38228">
        <ele>646.3</ele>
        <time>2026-08-21T10:46:45.164Z</time>
      </trkpt>
      <trkpt lat="45.00791" lon="2.38225">
        <ele>646.36</ele>
        <time>2026-08-21T10:46:46.166Z</time>
      </trkpt>
      <trkpt lat="45.00791" lon="2.38223">
        <ele>646.44</ele>
        <time>2026-08-21T10:46:47.167Z</time>
      </trkpt>
      <trkpt lat="45.0079" lon="2.3822">
        <ele>646.52</ele>
        <time>2026-08-21T10:46:48.169Z</time>
      </trkpt>
      <trkpt lat="45.00789" lon="2.38218">
        <ele>646.6</ele>
        <time>2026-08-21T10:46:49.172Z</time>
      </trkpt>
      <trkpt lat="45.00788" lon="2.38216">
        <ele>646.69</ele>
        <time>2026-08-21T10:46:50.173Z</time>
      </trkpt>
      <trkpt lat="45.00787" lon="2.38213">
        <ele>646.78</ele>
        <time>2026-08-21T10:46:51.174Z</time>
      </trkpt>
      <trkpt lat="45.00787" lon="2.38211">
        <ele>646.87</ele>
        <time>2026-08-21T10:46:52.178Z</time>
      </trkpt>
      <trkpt lat="45.00785" lon="2.38209">
        <ele>646.98</ele>
        <time>2026-08-21T10:46:53.176Z</time>
      </trkpt>
      <trkpt lat="45.00785" lon="2.38208">
        <ele>647.09</ele>
        <time>2026-08-21T10:46:54.179Z</time>
      </trkpt>
      <trkpt lat="45.00784" lon="2.38206">
        <ele>647.2</ele>
        <time>2026-08-21T10:46:55.181Z</time>
      </trkpt>
      <trkpt lat="45.00783" lon="2.38204">
        <ele>647.31</ele>
        <time>2026-08-21T10:46:56.185Z</time>
      </trkpt>
      <trkpt lat="45.00782" lon="2.38202">
        <ele>647.45</ele>
        <time>2026-08-21T10:46:57.185Z</time>
      </trkpt>
      <trkpt lat="45.00782" lon="2.38201">
        <ele>647.59</ele>
        <time>2026-08-21T10:46:58.186Z</time>
      </trkpt>
      <trkpt lat="45.00781" lon="2.38199">
        <ele>647.72</ele>
        <time>2026-08-21T10:46:59.188Z</time>
      </trkpt>
      <trkpt lat="45.0078" lon="2.38197">
        <ele>647.88</ele>
        <time>2026-08-21T10:47:00.098Z</time>
      </trkpt>
      <trkpt lat="45.00779" lon="2.38195">
        <ele>648.03</ele>
        <time>2026-08-21T10:47:01.193Z</time>
      </trkpt>
      <trkpt lat="45.00779" lon="2.38193">
        <ele>648.2</ele>
        <time>2026-08-21T10:47:02.195Z</time>
      </trkpt>
      <trkpt lat="45.00778" lon="2.38191">
        <ele>648.38</ele>
        <time>2026-08-21T10:47:03.196Z</time>
      </trkpt>
      <trkpt lat="45.00777" lon="2.38188">
        <ele>648.57</ele>
        <time>2026-08-21T10:47:04.203Z</time>
      </trkpt>
      <trkpt lat="45.00776" lon="2.38182">
        <ele>648.93</ele>
        <time>2026-08-21T10:47:06.202Z</time>
      </trkpt>
      <trkpt lat="45.00775" lon="2.3818">
        <ele>649.13</ele>
        <time>2026-08-21T10:47:07.205Z</time>
      </trkpt>
      <trkpt lat="45.00775" lon="2.38178">
        <ele>649.32</ele>
        <time>2026-08-21T10:47:08.205Z</time>
      </trkpt>
      <trkpt lat="45.00774" lon="2.38176">
        <ele>649.52</ele>
        <time>2026-08-21T10:47:09.207Z</time>
      </trkpt>
      <trkpt lat="45.00773" lon="2.38173">
        <ele>649.72</ele>
        <time>2026-08-21T10:47:10.208Z</time>
      </trkpt>
      <trkpt lat="45.00773" lon="2.38171">
        <ele>649.92</ele>
        <time>2026-08-21T10:47:11.211Z</time>
      </trkpt>
      <trkpt lat="45.00772" lon="2.38168">
        <ele>650.13</ele>
        <time>2026-08-21T10:47:12.209Z</time>
      </trkpt>
      <trkpt lat="45.00771" lon="2.38166">
        <ele>650.34</ele>
        <time>2026-08-21T10:47:13.212Z</time>
      </trkpt>
      <trkpt lat="45.00769" lon="2.38164">
        <ele>650.57</ele>
        <time>2026-08-21T10:47:14.211Z</time>
      </trkpt>
      <trkpt lat="45.00768" lon="2.38162">
        <ele>650.8</ele>
        <time>2026-08-21T10:47:15.213Z</time>
      </trkpt>
      <trkpt lat="45.00767" lon="2.3816">
        <ele>651.04</ele>
        <time>2026-08-21T10:47:16.213Z</time>
      </trkpt>
      <trkpt lat="45.00766" lon="2.38158">
        <ele>651.3</ele>
        <time>2026-08-21T10:47:17.214Z</time>
      </trkpt>
      <trkpt lat="45.00765" lon="2.38156">
        <ele>651.56</ele>
        <time>2026-08-21T10:47:18.214Z</time>
      </trkpt>
      <trkpt lat="45.00764" lon="2.38153">
        <ele>651.81</ele>
        <time>2026-08-21T10:47:19.215Z</time>
      </trkpt>
      <trkpt lat="45.00763" lon="2.3815">
        <ele>652.06</ele>
        <time>2026-08-21T10:47:20.216Z</time>
      </trkpt>
      <trkpt lat="45.00762" lon="2.38148">
        <ele>652.32</ele>
        <time>2026-08-21T10:47:21.217Z</time>
      </trkpt>
      <trkpt lat="45.00761" lon="2.38145">
        <ele>652.58</ele>
        <time>2026-08-21T10:47:22.217Z</time>
      </trkpt>
      <trkpt lat="45.00761" lon="2.38143">
        <ele>652.84</ele>
        <time>2026-08-21T10:47:23.218Z</time>
      </trkpt>
      <trkpt lat="45.0076" lon="2.38141">
        <ele>653.1</ele>
        <time>2026-08-21T10:47:24.219Z</time>
      </trkpt>
      <trkpt lat="45.0076" lon="2.38138">
        <ele>653.37</ele>
        <time>2026-08-21T10:47:25.222Z</time>
      </trkpt>
      <trkpt lat="45.00759" lon="2.38136">
        <ele>653.63</ele>
        <time>2026-08-21T10:47:26.174Z</time>
      </trkpt>
      <trkpt lat="45.00758" lon="2.38134">
        <ele>653.87</ele>
        <time>2026-08-21T10:47:27.276Z</time>
      </trkpt>
      <trkpt lat="45.00757" lon="2.38128">
        <ele>654.4</ele>
        <time>2026-08-21T10:47:29.224Z</time>
      </trkpt>
      <trkpt lat="45.00757" lon="2.38126">
        <ele>654.64</ele>
        <time>2026-08-21T10:47:30.224Z</time>
      </trkpt>
      <trkpt lat="45.00757" lon="2.38124">
        <ele>654.9</ele>
        <time>2026-08-21T10:47:31.226Z</time>
      </trkpt>
      <trkpt lat="45.00756" lon="2.38122">
        <ele>655.14</ele>
        <time>2026-08-21T10:47:32.226Z</time>
      </trkpt>
      <trkpt lat="45.00755" lon="2.3812">
        <ele>655.42</ele>
        <time>2026-08-21T10:47:33.226Z</time>
      </trkpt>
      <trkpt lat="45.00754" lon="2.38115">
        <ele>655.95</ele>
        <time>2026-08-21T10:47:35.165Z</time>
      </trkpt>
      <trkpt lat="45.00753" lon="2.38113">
        <ele>656.2</ele>
        <time>2026-08-21T10:47:36.232Z</time>
      </trkpt>
      <trkpt lat="45.00753" lon="2.38111">
        <ele>656.46</ele>
        <time>2026-08-21T10:47:37.233Z</time>
      </trkpt>
      <trkpt lat="45.00753" lon="2.38106">
        <ele>656.99</ele>
        <time>2026-08-21T10:47:39.235Z</time>
      </trkpt>
      <trkpt lat="45.00753" lon="2.38104">
        <ele>657.24</ele>
        <time>2026-08-21T10:47:40.236Z</time>
      </trkpt>
      <trkpt lat="45.00752" lon="2.38099">
        <ele>657.68</ele>
        <time>2026-08-21T10:47:42.238Z</time>
      </trkpt>
      <trkpt lat="45.00752" lon="2.38098">
        <ele>657.93</ele>
        <time>2026-08-21T10:47:42.887Z</time>
      </trkpt>
      <trkpt lat="45.00752" lon="2.38096">
        <ele>658.13</ele>
        <time>2026-08-21T10:47:44.239Z</time>
      </trkpt>
      <trkpt lat="45.00751" lon="2.38091">
        <ele>658.59</ele>
        <time>2026-08-21T10:47:46.243Z</time>
      </trkpt>
      <trkpt lat="45.00751" lon="2.38085">
        <ele>659.54</ele>
        <time>2026-08-21T10:47:51.286Z</time>
      </trkpt>
      <trkpt lat="45.00751" lon="2.3808">
        <ele>660.1</ele>
        <time>2026-08-21T10:47:54.912Z</time>
      </trkpt>
      <trkpt lat="45.0075" lon="2.38069">
        <ele>662.83</ele>
        <time>2026-08-21T10:48:34.510Z</time>
      </trkpt>
      <trkpt lat="45.00749" lon="2.38066">
        <ele>662.93</ele>
        <time>2026-08-21T10:48:36.589Z</time>
      </trkpt>
      <trkpt lat="45.00749" lon="2.38065">
        <ele>662.97</ele>
        <time>2026-08-21T10:48:36.599Z</time>
      </trkpt>
      <trkpt lat="45.00748" lon="2.38064">
        <ele>663.02</ele>
        <time>2026-08-21T10:48:38.560Z</time>
      </trkpt>
      <trkpt lat="45.00748" lon="2.38063">
        <ele>663.07</ele>
        <time>2026-08-21T10:48:39.588Z</time>
      </trkpt>
      <trkpt lat="45.00747" lon="2.38061">
        <ele>663.12</ele>
        <time>2026-08-21T10:48:40.518Z</time>
      </trkpt>
      <trkpt lat="45.00746" lon="2.38057">
        <ele>663.23</ele>
        <time>2026-08-21T10:48:42.395Z</time>
      </trkpt>
      <trkpt lat="45.00745" lon="2.38056">
        <ele>663.33</ele>
        <time>2026-08-21T10:48:43.604Z</time>
      </trkpt>
      <trkpt lat="45.00744" lon="2.38052">
        <ele>663.45</ele>
        <time>2026-08-21T10:48:46.525Z</time>
      </trkpt>
      <trkpt lat="45.00744" lon="2.3805">
        <ele>663.5</ele>
        <time>2026-08-21T10:48:47.527Z</time>
      </trkpt>
      <trkpt lat="45.00744" lon="2.38049">
        <ele>663.55</ele>
        <time>2026-08-21T10:48:48.532Z</time>
      </trkpt>
      <trkpt lat="45.00743" lon="2.38047">
        <ele>663.6</ele>
        <time>2026-08-21T10:48:49.529Z</time>
      </trkpt>
      <trkpt lat="45.00742" lon="2.38046">
        <ele>663.66</ele>
        <time>2026-08-21T10:48:50.610Z</time>
      </trkpt>
      <trkpt lat="45.00742" lon="2.38044">
        <ele>663.72</ele>
        <time>2026-08-21T10:48:51.597Z</time>
      </trkpt>
      <trkpt lat="45.0074" lon="2.38039">
        <ele>663.85</ele>
        <time>2026-08-21T10:48:53.604Z</time>
      </trkpt>
      <trkpt lat="45.0074" lon="2.38038">
        <ele>663.92</ele>
        <time>2026-08-21T10:48:54.604Z</time>
      </trkpt>
      <trkpt lat="45.0074" lon="2.38037">
        <ele>663.99</ele>
        <time>2026-08-21T10:48:55.538Z</time>
      </trkpt>
      <trkpt lat="45.0074" lon="2.38035">
        <ele>664.07</ele>
        <time>2026-08-21T10:48:56.539Z</time>
      </trkpt>
      <trkpt lat="45.00739" lon="2.38033">
        <ele>664.13</ele>
        <time>2026-08-21T10:48:57.540Z</time>
      </trkpt>
      <trkpt lat="45.00739" lon="2.38031">
        <ele>664.21</ele>
        <time>2026-08-21T10:48:58.611Z</time>
      </trkpt>
      <trkpt lat="45.00738" lon="2.38028">
        <ele>664.28</ele>
        <time>2026-08-21T10:48:59.611Z</time>
      </trkpt>
      <trkpt lat="45.00738" lon="2.38026">
        <ele>664.35</ele>
        <time>2026-08-21T10:49:00.545Z</time>
      </trkpt>
      <trkpt lat="45.00737" lon="2.38024">
        <ele>664.43</ele>
        <time>2026-08-21T10:49:01.550Z</time>
      </trkpt>
      <trkpt lat="45.00737" lon="2.38022">
        <ele>664.5</ele>
        <time>2026-08-21T10:49:02.549Z</time>
      </trkpt>
      <trkpt lat="45.00736" lon="2.38017">
        <ele>664.66</ele>
        <time>2026-08-21T10:49:04.554Z</time>
      </trkpt>
      <trkpt lat="45.00736" lon="2.38015">
        <ele>664.75</ele>
        <time>2026-08-21T10:49:05.601Z</time>
      </trkpt>
      <trkpt lat="45.00736" lon="2.38013">
        <ele>664.84</ele>
        <time>2026-08-21T10:49:06.558Z</time>
      </trkpt>
      <trkpt lat="45.00736" lon="2.38011">
        <ele>664.93</ele>
        <time>2026-08-21T10:49:07.561Z</time>
      </trkpt>
      <trkpt lat="45.00735" lon="2.38009">
        <ele>665.03</ele>
        <time>2026-08-21T10:49:08.562Z</time>
      </trkpt>
      <trkpt lat="45.00734" lon="2.38007">
        <ele>665.15</ele>
        <time>2026-08-21T10:49:09.564Z</time>
      </trkpt>
      <trkpt lat="45.00733" lon="2.38004">
        <ele>665.28</ele>
        <time>2026-08-21T10:49:10.566Z</time>
      </trkpt>
      <trkpt lat="45.00733" lon="2.38002">
        <ele>665.42</ele>
        <time>2026-08-21T10:49:11.472Z</time>
      </trkpt>
      <trkpt lat="45.00732" lon="2.38">
        <ele>665.55</ele>
        <time>2026-08-21T10:49:12.567Z</time>
      </trkpt>
      <trkpt lat="45.00732" lon="2.37998">
        <ele>665.69</ele>
        <time>2026-08-21T10:49:13.569Z</time>
      </trkpt>
      <trkpt lat="45.00731" lon="2.37996">
        <ele>665.82</ele>
        <time>2026-08-21T10:49:14.568Z</time>
      </trkpt>
      <trkpt lat="45.00731" lon="2.37993">
        <ele>665.97</ele>
        <time>2026-08-21T10:49:14.647Z</time>
      </trkpt>
      <trkpt lat="45.00729" lon="2.37992">
        <ele>666.12</ele>
        <time>2026-08-21T10:49:16.577Z</time>
      </trkpt>
      <trkpt lat="45.00729" lon="2.3799">
        <ele>666.27</ele>
        <time>2026-08-21T10:49:17.604Z</time>
      </trkpt>
      <trkpt lat="45.00728" lon="2.37988">
        <ele>666.43</ele>
        <time>2026-08-21T10:49:18.572Z</time>
      </trkpt>
      <trkpt lat="45.00727" lon="2.37986">
        <ele>666.58</ele>
        <time>2026-08-21T10:49:19.615Z</time>
      </trkpt>
      <trkpt lat="45.00724" lon="2.37982">
        <ele>666.9</ele>
        <time>2026-08-21T10:49:21.575Z</time>
      </trkpt>
      <trkpt lat="45.00723" lon="2.37981">
        <ele>667.07</ele>
        <time>2026-08-21T10:49:22.576Z</time>
      </trkpt>
      <trkpt lat="45.00722" lon="2.37979">
        <ele>667.24</ele>
        <time>2026-08-21T10:49:23.576Z</time>
      </trkpt>
      <trkpt lat="45.00721" lon="2.37978">
        <ele>667.41</ele>
        <time>2026-08-21T10:49:24.574Z</time>
      </trkpt>
      <trkpt lat="45.0072" lon="2.37976">
        <ele>667.59</ele>
        <time>2026-08-21T10:49:25.576Z</time>
      </trkpt>
      <trkpt lat="45.00718" lon="2.37975">
        <ele>667.78</ele>
        <time>2026-08-21T10:49:26.577Z</time>
      </trkpt>
      <trkpt lat="45.00717" lon="2.37974">
        <ele>667.98</ele>
        <time>2026-08-21T10:49:27.580Z</time>
      </trkpt>
      <trkpt lat="45.00716" lon="2.37973">
        <ele>668.17</ele>
        <time>2026-08-21T10:49:28.578Z</time>
      </trkpt>
      <trkpt lat="45.00715" lon="2.37972">
        <ele>668.37</ele>
        <time>2026-08-21T10:49:29.579Z</time>
      </trkpt>
      <trkpt lat="45.00713" lon="2.37971">
        <ele>668.57</ele>
        <time>2026-08-21T10:49:30.589Z</time>
      </trkpt>
      <trkpt lat="45.00711" lon="2.3797">
        <ele>668.76</ele>
        <time>2026-08-21T10:49:31.580Z</time>
      </trkpt>
      <trkpt lat="45.0071" lon="2.37968">
        <ele>668.97</ele>
        <time>2026-08-21T10:49:32.582Z</time>
      </trkpt>
      <trkpt lat="45.00708" lon="2.37967">
        <ele>669.19</ele>
        <time>2026-08-21T10:49:33.581Z</time>
      </trkpt>
      <trkpt lat="45.00705" lon="2.37965">
        <ele>669.62</ele>
        <time>2026-08-21T10:49:35.583Z</time>
      </trkpt>
      <trkpt lat="45.00704" lon="2.37965">
        <ele>669.84</ele>
        <time>2026-08-21T10:49:36.583Z</time>
      </trkpt>
      <trkpt lat="45.00703" lon="2.37964">
        <ele>670.04</ele>
        <time>2026-08-21T10:49:37.584Z</time>
      </trkpt>
      <trkpt lat="45.00702" lon="2.37963">
        <ele>670.27</ele>
        <time>2026-08-21T10:49:37.680Z</time>
      </trkpt>
      <trkpt lat="45.00701" lon="2.37963">
        <ele>670.49</ele>
        <time>2026-08-21T10:49:39.585Z</time>
      </trkpt>
      <trkpt lat="45.007" lon="2.37962">
        <ele>670.71</ele>
        <time>2026-08-21T10:49:40.585Z</time>
      </trkpt>
      <trkpt lat="45.00699" lon="2.37962">
        <ele>670.94</ele>
        <time>2026-08-21T10:49:41.588Z</time>
      </trkpt>
      <trkpt lat="45.00696" lon="2.37962">
        <ele>671.42</ele>
        <time>2026-08-21T10:49:43.589Z</time>
      </trkpt>
      <trkpt lat="45.00695" lon="2.37962">
        <ele>671.65</ele>
        <time>2026-08-21T10:49:44.591Z</time>
      </trkpt>
      <trkpt lat="45.00693" lon="2.37963">
        <ele>672.13</ele>
        <time>2026-08-21T10:49:46.592Z</time>
      </trkpt>
      <trkpt lat="45.00692" lon="2.37963">
        <ele>672.39</ele>
        <time>2026-08-21T10:49:47.592Z</time>
      </trkpt>
      <trkpt lat="45.0069" lon="2.37964">
        <ele>672.64</ele>
        <time>2026-08-21T10:49:48.592Z</time>
      </trkpt>
      <trkpt lat="45.00688" lon="2.37965">
        <ele>672.89</ele>
        <time>2026-08-21T10:49:49.593Z</time>
      </trkpt>
      <trkpt lat="45.00686" lon="2.37965">
        <ele>673.14</ele>
        <time>2026-08-21T10:49:50.595Z</time>
      </trkpt>
      <trkpt lat="45.00684" lon="2.37966">
        <ele>673.41</ele>
        <time>2026-08-21T10:49:51.594Z</time>
      </trkpt>
      <trkpt lat="45.0068" lon="2.37967">
        <ele>673.94</ele>
        <time>2026-08-21T10:49:53.596Z</time>
      </trkpt>
      <trkpt lat="45.00678" lon="2.37967">
        <ele>674.2</ele>
        <time>2026-08-21T10:49:54.594Z</time>
      </trkpt>
      <trkpt lat="45.00677" lon="2.37967">
        <ele>674.48</ele>
        <time>2026-08-21T10:49:55.595Z</time>
      </trkpt>
      <trkpt lat="45.00675" lon="2.37967">
        <ele>674.75</ele>
        <time>2026-08-21T10:49:56.596Z</time>
      </trkpt>
      <trkpt lat="45.00672" lon="2.37967">
        <ele>675.25</ele>
        <time>2026-08-21T10:49:58.597Z</time>
      </trkpt>
      <trkpt lat="45.0067" lon="2.37967">
        <ele>675.75</ele>
        <time>2026-08-21T10:50:00.599Z</time>
      </trkpt>
      <trkpt lat="45.00667" lon="2.37967">
        <ele>676.23</ele>
        <time>2026-08-21T10:50:02.600Z</time>
      </trkpt>
      <trkpt lat="45.00665" lon="2.37966">
        <ele>676.66</ele>
        <time>2026-08-21T10:50:04.600Z</time>
      </trkpt>
      <trkpt lat="45.00665" lon="2.37965">
        <ele>676.87</ele>
        <time>2026-08-21T10:50:05.601Z</time>
      </trkpt>
      <trkpt lat="45.00663" lon="2.37964">
        <ele>677.04</ele>
        <time>2026-08-21T10:50:06.601Z</time>
      </trkpt>
      <trkpt lat="45.00662" lon="2.37963">
        <ele>677.22</ele>
        <time>2026-08-21T10:50:07.603Z</time>
      </trkpt>
      <trkpt lat="45.0066" lon="2.37962">
        <ele>677.36</ele>
        <time>2026-08-21T10:50:08.605Z</time>
      </trkpt>
      <trkpt lat="45.00657" lon="2.37961">
        <ele>677.57</ele>
        <time>2026-08-21T10:50:09.607Z</time>
      </trkpt>
      <trkpt lat="45.00655" lon="2.3796">
        <ele>677.69</ele>
        <time>2026-08-21T10:50:10.608Z</time>
      </trkpt>
      <trkpt lat="45.00652" lon="2.37959">
        <ele>677.87</ele>
        <time>2026-08-21T10:50:11.608Z</time>
      </trkpt>
      <trkpt lat="45.0065" lon="2.37958">
        <ele>678</ele>
        <time>2026-08-21T10:50:12.610Z</time>
      </trkpt>
      <trkpt lat="45.00648" lon="2.37957">
        <ele>678.12</ele>
        <time>2026-08-21T10:50:13.611Z</time>
      </trkpt>
      <trkpt lat="45.00645" lon="2.37956">
        <ele>678.29</ele>
        <time>2026-08-21T10:50:14.327Z</time>
      </trkpt>
      <trkpt lat="45.00644" lon="2.37956">
        <ele>678.41</ele>
        <time>2026-08-21T10:50:15.527Z</time>
      </trkpt>
      <trkpt lat="45.00642" lon="2.37955">
        <ele>678.55</ele>
        <time>2026-08-21T10:50:16.616Z</time>
      </trkpt>
      <trkpt lat="45.00639" lon="2.37955">
        <ele>678.69</ele>
        <time>2026-08-21T10:50:17.618Z</time>
      </trkpt>
      <trkpt lat="45.00637" lon="2.37954">
        <ele>678.84</ele>
        <time>2026-08-21T10:50:18.620Z</time>
      </trkpt>
      <trkpt lat="45.00635" lon="2.37953">
        <ele>678.96</ele>
        <time>2026-08-21T10:50:19.620Z</time>
      </trkpt>
      <trkpt lat="45.00633" lon="2.37952">
        <ele>679.06</ele>
        <time>2026-08-21T10:50:20.623Z</time>
      </trkpt>
      <trkpt lat="45.00631" lon="2.3795">
        <ele>679.16</ele>
        <time>2026-08-21T10:50:21.624Z</time>
      </trkpt>
      <trkpt lat="45.00629" lon="2.37949">
        <ele>679.25</ele>
        <time>2026-08-21T10:50:22.629Z</time>
      </trkpt>
      <trkpt lat="45.00626" lon="2.37948">
        <ele>679.34</ele>
        <time>2026-08-21T10:50:23.628Z</time>
      </trkpt>
      <trkpt lat="45.00625" lon="2.37948">
        <ele>679.42</ele>
        <time>2026-08-21T10:50:24.632Z</time>
      </trkpt>
      <trkpt lat="45.00623" lon="2.37947">
        <ele>679.5</ele>
        <time>2026-08-21T10:50:25.632Z</time>
      </trkpt>
      <trkpt lat="45.0062" lon="2.37946">
        <ele>679.57</ele>
        <time>2026-08-21T10:50:26.634Z</time>
      </trkpt>
      <trkpt lat="45.00617" lon="2.37945">
        <ele>679.68</ele>
        <time>2026-08-21T10:50:27.637Z</time>
      </trkpt>
      <trkpt lat="45.00615" lon="2.37944">
        <ele>679.72</ele>
        <time>2026-08-21T10:50:28.638Z</time>
      </trkpt>
      <trkpt lat="45.00613" lon="2.37942">
        <ele>679.79</ele>
        <time>2026-08-21T10:50:29.640Z</time>
      </trkpt>
      <trkpt lat="45.0061" lon="2.37941">
        <ele>679.86</ele>
        <time>2026-08-21T10:50:30.643Z</time>
      </trkpt>
      <trkpt lat="45.00608" lon="2.3794">
        <ele>679.93</ele>
        <time>2026-08-21T10:50:31.643Z</time>
      </trkpt>
      <trkpt lat="45.00606" lon="2.3794">
        <ele>680</ele>
        <time>2026-08-21T10:50:32.646Z</time>
      </trkpt>
      <trkpt lat="45.00605" lon="2.37938">
        <ele>680.07</ele>
        <time>2026-08-21T10:50:33.647Z</time>
      </trkpt>
      <trkpt lat="45.00603" lon="2.37937">
        <ele>680.14</ele>
        <time>2026-08-21T10:50:34.649Z</time>
      </trkpt>
      <trkpt lat="45.00601" lon="2.37935">
        <ele>680.22</ele>
        <time>2026-08-21T10:50:35.653Z</time>
      </trkpt>
      <trkpt lat="45.00599" lon="2.37934">
        <ele>680.21</ele>
        <time>2026-08-21T10:50:36.654Z</time>
      </trkpt>
      <trkpt lat="45.00597" lon="2.37933">
        <ele>680.27</ele>
        <time>2026-08-21T10:50:37.655Z</time>
      </trkpt>
      <trkpt lat="45.00594" lon="2.37931">
        <ele>680.28</ele>
        <time>2026-08-21T10:50:38.658Z</time>
      </trkpt>
      <trkpt lat="45.00592" lon="2.37929">
        <ele>680.32</ele>
        <time>2026-08-21T10:50:39.590Z</time>
      </trkpt>
      <trkpt lat="45.00589" lon="2.37928">
        <ele>680.36</ele>
        <time>2026-08-21T10:50:40.661Z</time>
      </trkpt>
      <trkpt lat="45.00587" lon="2.37927">
        <ele>680.38</ele>
        <time>2026-08-21T10:50:41.663Z</time>
      </trkpt>
      <trkpt lat="45.00585" lon="2.37926">
        <ele>680.43</ele>
        <time>2026-08-21T10:50:42.663Z</time>
      </trkpt>
      <trkpt lat="45.00582" lon="2.37925">
        <ele>680.48</ele>
        <time>2026-08-21T10:50:43.667Z</time>
      </trkpt>
      <trkpt lat="45.0058" lon="2.37924">
        <ele>680.5</ele>
        <time>2026-08-21T10:50:44.668Z</time>
      </trkpt>
      <trkpt lat="45.00578" lon="2.37923">
        <ele>680.57</ele>
        <time>2026-08-21T10:50:44.738Z</time>
      </trkpt>
      <trkpt lat="45.00576" lon="2.37922">
        <ele>680.62</ele>
        <time>2026-08-21T10:50:46.672Z</time>
      </trkpt>
      <trkpt lat="45.00574" lon="2.37921">
        <ele>680.66</ele>
        <time>2026-08-21T10:50:47.674Z</time>
      </trkpt>
      <trkpt lat="45.00572" lon="2.3792">
        <ele>680.72</ele>
        <time>2026-08-21T10:50:48.679Z</time>
      </trkpt>
      <trkpt lat="45.0057" lon="2.37919">
        <ele>680.75</ele>
        <time>2026-08-21T10:50:49.677Z</time>
      </trkpt>
      <trkpt lat="45.00567" lon="2.37917">
        <ele>680.78</ele>
        <time>2026-08-21T10:50:50.680Z</time>
      </trkpt>
      <trkpt lat="45.00564" lon="2.37916">
        <ele>680.8</ele>
        <time>2026-08-21T10:50:51.681Z</time>
      </trkpt>
      <trkpt lat="45.00562" lon="2.37915">
        <ele>680.81</ele>
        <time>2026-08-21T10:50:52.683Z</time>
      </trkpt>
      <trkpt lat="45.00543" lon="2.37895">
        <ele>681.57</ele>
        <time>2026-08-21T10:51:39.797Z</time>
      </trkpt>
      <trkpt lat="45.00542" lon="2.37894">
        <ele>681.57</ele>
        <time>2026-08-21T10:51:41.741Z</time>
      </trkpt>
      <trkpt lat="45.00541" lon="2.37893">
        <ele>681.57</ele>
        <time>2026-08-21T10:51:42.397Z</time>
      </trkpt>
      <trkpt lat="45.00539" lon="2.37892">
        <ele>681.58</ele>
        <time>2026-08-21T10:51:43.750Z</time>
      </trkpt>
      <trkpt lat="45.00537" lon="2.3789">
        <ele>681.57</ele>
        <time>2026-08-21T10:51:44.447Z</time>
      </trkpt>
      <trkpt lat="45.00534" lon="2.3789">
        <ele>681.55</ele>
        <time>2026-08-21T10:51:45.771Z</time>
      </trkpt>
      <trkpt lat="45.00531" lon="2.37889">
        <ele>681.56</ele>
        <time>2026-08-21T10:51:46.356Z</time>
      </trkpt>
      <trkpt lat="45.00527" lon="2.37888">
        <ele>681.54</ele>
        <time>2026-08-21T10:51:47.765Z</time>
      </trkpt>
      <trkpt lat="45.00523" lon="2.37887">
        <ele>681.51</ele>
        <time>2026-08-21T10:51:48.372Z</time>
      </trkpt>
      <trkpt lat="45.00519" lon="2.37886">
        <ele>681.49</ele>
        <time>2026-08-21T10:51:49.770Z</time>
      </trkpt>
      <trkpt lat="45.00514" lon="2.37885">
        <ele>681.48</ele>
        <time>2026-08-21T10:51:50.377Z</time>
      </trkpt>
      <trkpt lat="45.0051" lon="2.37884">
        <ele>681.41</ele>
        <time>2026-08-21T10:51:51.367Z</time>
      </trkpt>
      <trkpt lat="45.00503" lon="2.37882">
        <ele>681.41</ele>
        <time>2026-08-21T10:51:52.354Z</time>
      </trkpt>
      <trkpt lat="45.00496" lon="2.3788">
        <ele>681.34</ele>
        <time>2026-08-21T10:51:53.775Z</time>
      </trkpt>
      <trkpt lat="45.0049" lon="2.37879">
        <ele>681.32</ele>
        <time>2026-08-21T10:51:54.788Z</time>
      </trkpt>
      <trkpt lat="45.00483" lon="2.37876">
        <ele>681.27</ele>
        <time>2026-08-21T10:51:55.357Z</time>
      </trkpt>
      <trkpt lat="45.00476" lon="2.37874">
        <ele>681.22</ele>
        <time>2026-08-21T10:51:56.374Z</time>
      </trkpt>
      <trkpt lat="45.00468" lon="2.37871">
        <ele>681.23</ele>
        <time>2026-08-21T10:51:57.364Z</time>
      </trkpt>
      <trkpt lat="45.00459" lon="2.3787">
        <ele>681.19</ele>
        <time>2026-08-21T10:51:58.786Z</time>
      </trkpt>
      <trkpt lat="45.00452" lon="2.37869">
        <ele>681.1</ele>
        <time>2026-08-21T10:51:59.698Z</time>
      </trkpt>
      <trkpt lat="45.00444" lon="2.37868">
        <ele>680.99</ele>
        <time>2026-08-21T10:52:00.701Z</time>
      </trkpt>
      <trkpt lat="45.00437" lon="2.37865">
        <ele>680.87</ele>
        <time>2026-08-21T10:52:01.702Z</time>
      </trkpt>
      <trkpt lat="45.00433" lon="2.37862">
        <ele>680.74</ele>
        <time>2026-08-21T10:52:02.706Z</time>
      </trkpt>
      <trkpt lat="45.00423" lon="2.37858">
        <ele>680.54</ele>
        <time>2026-08-21T10:52:03.757Z</time>
      </trkpt>
      <trkpt lat="45.00418" lon="2.37857">
        <ele>680.43</ele>
        <time>2026-08-21T10:52:04.709Z</time>
      </trkpt>
      <trkpt lat="45.00414" lon="2.37856">
        <ele>680.2</ele>
        <time>2026-08-21T10:52:05.714Z</time>
      </trkpt>
      <trkpt lat="45.0041" lon="2.37855">
        <ele>680.07</ele>
        <time>2026-08-21T10:52:06.717Z</time>
      </trkpt>
      <trkpt lat="45.00406" lon="2.37855">
        <ele>679.87</ele>
        <time>2026-08-21T10:52:07.720Z</time>
      </trkpt>
      <trkpt lat="45.00402" lon="2.37854">
        <ele>679.6</ele>
        <time>2026-08-21T10:52:08.727Z</time>
      </trkpt>
      <trkpt lat="45.00395" lon="2.37854">
        <ele>679.32</ele>
        <time>2026-08-21T10:52:09.725Z</time>
      </trkpt>
      <trkpt lat="45.00389" lon="2.37854">
        <ele>679.12</ele>
        <time>2026-08-21T10:52:10.727Z</time>
      </trkpt>
      <trkpt lat="45.00385" lon="2.37854">
        <ele>678.75</ele>
        <time>2026-08-21T10:52:11.730Z</time>
      </trkpt>
      <trkpt lat="45.0038" lon="2.37854">
        <ele>678.5</ele>
        <time>2026-08-21T10:52:12.733Z</time>
      </trkpt>
      <trkpt lat="45.00375" lon="2.37854">
        <ele>678.41</ele>
        <time>2026-08-21T10:52:13.733Z</time>
      </trkpt>
      <trkpt lat="45.00369" lon="2.37853">
        <ele>678.42</ele>
        <time>2026-08-21T10:52:14.735Z</time>
      </trkpt>
      <trkpt lat="45.00363" lon="2.37851">
        <ele>678.11</ele>
        <time>2026-08-21T10:52:15.737Z</time>
      </trkpt>
      <trkpt lat="45.00356" lon="2.3785">
        <ele>677.84</ele>
        <time>2026-08-21T10:52:16.740Z</time>
      </trkpt>
      <trkpt lat="45.0035" lon="2.37848">
        <ele>677.26</ele>
        <time>2026-08-21T10:52:17.740Z</time>
      </trkpt>
      <trkpt lat="45.00343" lon="2.37847">
        <ele>676.88</ele>
        <time>2026-08-21T10:52:18.744Z</time>
      </trkpt>
      <trkpt lat="45.00335" lon="2.37847">
        <ele>676.43</ele>
        <time>2026-08-21T10:52:19.736Z</time>
      </trkpt>
      <trkpt lat="45.00328" lon="2.37847">
        <ele>675.98</ele>
        <time>2026-08-21T10:52:20.738Z</time>
      </trkpt>
      <trkpt lat="45.0032" lon="2.37845">
        <ele>675.37</ele>
        <time>2026-08-21T10:52:21.741Z</time>
      </trkpt>
      <trkpt lat="45.00312" lon="2.37843">
        <ele>674.79</ele>
        <time>2026-08-21T10:52:22.743Z</time>
      </trkpt>
      <trkpt lat="45.00306" lon="2.37841">
        <ele>674.25</ele>
        <time>2026-08-21T10:52:23.745Z</time>
      </trkpt>
      <trkpt lat="45.00297" lon="2.3784">
        <ele>673.57</ele>
        <time>2026-08-21T10:52:24.747Z</time>
      </trkpt>
      <trkpt lat="45.0029" lon="2.3784">
        <ele>672.7</ele>
        <time>2026-08-21T10:52:25.748Z</time>
      </trkpt>
      <trkpt lat="45.00282" lon="2.3784">
        <ele>672.21</ele>
        <time>2026-08-21T10:52:26.751Z</time>
      </trkpt>
      <trkpt lat="45.00277" lon="2.37842">
        <ele>671.41</ele>
        <time>2026-08-21T10:52:27.753Z</time>
      </trkpt>
      <trkpt lat="45.00271" lon="2.37843">
        <ele>670.53</ele>
        <time>2026-08-21T10:52:28.756Z</time>
      </trkpt>
      <trkpt lat="45.00263" lon="2.37843">
        <ele>669.63</ele>
        <time>2026-08-21T10:52:29.758Z</time>
      </trkpt>
      <trkpt lat="45.00256" lon="2.37842">
        <ele>668.9</ele>
        <time>2026-08-21T10:52:30.760Z</time>
      </trkpt>
      <trkpt lat="45.00249" lon="2.37841">
        <ele>667.94</ele>
        <time>2026-08-21T10:52:31.354Z</time>
      </trkpt>
      <trkpt lat="45.00242" lon="2.37839">
        <ele>667.24</ele>
        <time>2026-08-21T10:52:32.765Z</time>
      </trkpt>
      <trkpt lat="45.00236" lon="2.37837">
        <ele>666.72</ele>
        <time>2026-08-21T10:52:33.372Z</time>
      </trkpt>
      <trkpt lat="45.0023" lon="2.37836">
        <ele>666.1</ele>
        <time>2026-08-21T10:52:34.770Z</time>
      </trkpt>
      <trkpt lat="45.00227" lon="2.37836">
        <ele>665.51</ele>
        <time>2026-08-21T10:52:35.438Z</time>
      </trkpt>
      <trkpt lat="45.00225" lon="2.37838">
        <ele>664.87</ele>
        <time>2026-08-21T10:52:36.366Z</time>
      </trkpt>
      <trkpt lat="45.00222" lon="2.3784">
        <ele>664.24</ele>
        <time>2026-08-21T10:52:37.776Z</time>
      </trkpt>
      <trkpt lat="45.00221" lon="2.37842">
        <ele>663.61</ele>
        <time>2026-08-21T10:52:38.515Z</time>
      </trkpt>
      <trkpt lat="45.00219" lon="2.37845">
        <ele>662.99</ele>
        <time>2026-08-21T10:52:39.779Z</time>
      </trkpt>
      <trkpt lat="45.00217" lon="2.37849">
        <ele>662.43</ele>
        <time>2026-08-21T10:52:40.355Z</time>
      </trkpt>
      <trkpt lat="45.00217" lon="2.37853">
        <ele>661.89</ele>
        <time>2026-08-21T10:52:41.781Z</time>
      </trkpt>
      <trkpt lat="45.00216" lon="2.37857">
        <ele>661.38</ele>
        <time>2026-08-21T10:52:42.710Z</time>
      </trkpt>
      <trkpt lat="45.00215" lon="2.3786">
        <ele>660.88</ele>
        <time>2026-08-21T10:52:43.661Z</time>
      </trkpt>
      <trkpt lat="45.00214" lon="2.37864">
        <ele>660.44</ele>
        <time>2026-08-21T10:52:44.345Z</time>
      </trkpt>
      <trkpt lat="45.00214" lon="2.37867">
        <ele>659.98</ele>
        <time>2026-08-21T10:52:45.786Z</time>
      </trkpt>
      <trkpt lat="45.00213" lon="2.3787">
        <ele>659.55</ele>
        <time>2026-08-21T10:52:46.788Z</time>
      </trkpt>
      <trkpt lat="45.00212" lon="2.37873">
        <ele>659.15</ele>
        <time>2026-08-21T10:52:47.769Z</time>
      </trkpt>
      <trkpt lat="45.00211" lon="2.37876">
        <ele>658.76</ele>
        <time>2026-08-21T10:52:48.846Z</time>
      </trkpt>
      <trkpt lat="45.00209" lon="2.37879">
        <ele>658.38</ele>
        <time>2026-08-21T10:52:49.791Z</time>
      </trkpt>
      <trkpt lat="45.00208" lon="2.37881">
        <ele>658.04</ele>
        <time>2026-08-21T10:52:50.351Z</time>
      </trkpt>
      <trkpt lat="45.00206" lon="2.37882">
        <ele>657.68</ele>
        <time>2026-08-21T10:52:51.757Z</time>
      </trkpt>
      <trkpt lat="45.00205" lon="2.37885">
        <ele>657.41</ele>
        <time>2026-08-21T10:52:52.818Z</time>
      </trkpt>
      <trkpt lat="45.00202" lon="2.37887">
        <ele>657.16</ele>
        <time>2026-08-21T10:52:53.347Z</time>
      </trkpt>
      <trkpt lat="45.002" lon="2.37888">
        <ele>656.92</ele>
        <time>2026-08-21T10:52:53.889Z</time>
      </trkpt>
      <trkpt lat="45.00198" lon="2.37889">
        <ele>656.69</ele>
        <time>2026-08-21T10:52:55.835Z</time>
      </trkpt>
      <trkpt lat="45.00197" lon="2.37889">
        <ele>656.46</ele>
        <time>2026-08-21T10:52:56.375Z</time>
      </trkpt>
      <trkpt lat="45.00194" lon="2.3789">
        <ele>656.24</ele>
        <time>2026-08-21T10:52:57.364Z</time>
      </trkpt>
      <trkpt lat="45.00193" lon="2.37891">
        <ele>656.04</ele>
        <time>2026-08-21T10:52:58.771Z</time>
      </trkpt>
      <trkpt lat="45.00191" lon="2.37891">
        <ele>655.86</ele>
        <time>2026-08-21T10:52:59.376Z</time>
      </trkpt>
      <trkpt lat="45.00189" lon="2.37892">
        <ele>655.69</ele>
        <time>2026-08-21T10:53:00.368Z</time>
      </trkpt>
      <trkpt lat="45.00187" lon="2.37894">
        <ele>655.53</ele>
        <time>2026-08-21T10:53:01.864Z</time>
      </trkpt>
      <trkpt lat="45.00185" lon="2.37895">
        <ele>655.38</ele>
        <time>2026-08-21T10:53:02.806Z</time>
      </trkpt>
      <trkpt lat="45.00184" lon="2.37896">
        <ele>655.2</ele>
        <time>2026-08-21T10:53:03.370Z</time>
      </trkpt>
      <trkpt lat="45.00182" lon="2.37897">
        <ele>655.03</ele>
        <time>2026-08-21T10:53:04.356Z</time>
      </trkpt>
      <trkpt lat="45.0018" lon="2.37898">
        <ele>654.9</ele>
        <time>2026-08-21T10:53:05.380Z</time>
      </trkpt>
      <trkpt lat="45.00178" lon="2.37899">
        <ele>654.77</ele>
        <time>2026-08-21T10:53:06.363Z</time>
      </trkpt>
      <trkpt lat="45.00177" lon="2.379">
        <ele>654.66</ele>
        <time>2026-08-21T10:53:07.421Z</time>
      </trkpt>
      <trkpt lat="45.00176" lon="2.379">
        <ele>654.56</ele>
        <time>2026-08-21T10:53:07.876Z</time>
      </trkpt>
      <trkpt lat="45.00174" lon="2.37901">
        <ele>654.45</ele>
        <time>2026-08-21T10:53:09.819Z</time>
      </trkpt>
      <trkpt lat="45.0017" lon="2.37901">
        <ele>654.23</ele>
        <time>2026-08-21T10:53:11.820Z</time>
      </trkpt>
      <trkpt lat="45.00169" lon="2.37901">
        <ele>654.13</ele>
        <time>2026-08-21T10:53:11.894Z</time>
      </trkpt>
      <trkpt lat="45.00168" lon="2.37901">
        <ele>654.05</ele>
        <time>2026-08-21T10:53:13.355Z</time>
      </trkpt>
      <trkpt lat="45.00167" lon="2.37901">
        <ele>653.98</ele>
        <time>2026-08-21T10:53:14.883Z</time>
      </trkpt>
      <trkpt lat="45.00166" lon="2.37901">
        <ele>653.9</ele>
        <time>2026-08-21T10:53:15.828Z</time>
      </trkpt>
      <trkpt lat="45.00163" lon="2.379">
        <ele>653.75</ele>
        <time>2026-08-21T10:53:17.831Z</time>
      </trkpt>
      <trkpt lat="45.00162" lon="2.37899">
        <ele>653.67</ele>
        <time>2026-08-21T10:53:18.613Z</time>
      </trkpt>
      <trkpt lat="45.00161" lon="2.37898">
        <ele>653.6</ele>
        <time>2026-08-21T10:53:19.836Z</time>
      </trkpt>
      <trkpt lat="45.0016" lon="2.37897">
        <ele>653.55</ele>
        <time>2026-08-21T10:53:20.839Z</time>
      </trkpt>
      <trkpt lat="45.00157" lon="2.37894">
        <ele>653.43</ele>
        <time>2026-08-21T10:53:22.843Z</time>
      </trkpt>
      <trkpt lat="45.00157" lon="2.37893">
        <ele>653.37</ele>
        <time>2026-08-21T10:53:23.858Z</time>
      </trkpt>
      <trkpt lat="45.00156" lon="2.37892">
        <ele>653.33</ele>
        <time>2026-08-21T10:53:24.791Z</time>
      </trkpt>
      <trkpt lat="45.00156" lon="2.3789">
        <ele>653.31</ele>
        <time>2026-08-21T10:53:25.849Z</time>
      </trkpt>
      <trkpt lat="45.00153" lon="2.37884">
        <ele>653.26</ele>
        <time>2026-08-21T10:53:27.851Z</time>
      </trkpt>
      <trkpt lat="45.00153" lon="2.37882">
        <ele>653.23</ele>
        <time>2026-08-21T10:53:28.853Z</time>
      </trkpt>
      <trkpt lat="45.00153" lon="2.3788">
        <ele>653.2</ele>
        <time>2026-08-21T10:53:28.930Z</time>
      </trkpt>
      <trkpt lat="45.00153" lon="2.37878">
        <ele>653.18</ele>
        <time>2026-08-21T10:53:30.857Z</time>
      </trkpt>
      <trkpt lat="45.00153" lon="2.37876">
        <ele>653.15</ele>
        <time>2026-08-21T10:53:30.936Z</time>
      </trkpt>
      <trkpt lat="45.00152" lon="2.37871">
        <ele>653.13</ele>
        <time>2026-08-21T10:53:33.863Z</time>
      </trkpt>
      <trkpt lat="45.0015" lon="2.37866">
        <ele>653.1</ele>
        <time>2026-08-21T10:54:08.682Z</time>
      </trkpt>
      <trkpt lat="45.00149" lon="2.37865">
        <ele>652.82</ele>
        <time>2026-08-21T10:54:09.666Z</time>
      </trkpt>
      <trkpt lat="45.00149" lon="2.37864">
        <ele>652.81</ele>
        <time>2026-08-21T10:54:11.637Z</time>
      </trkpt>
      <trkpt lat="45.00149" lon="2.37862">
        <ele>652.81</ele>
        <time>2026-08-21T10:54:12.644Z</time>
      </trkpt>
      <trkpt lat="45.00149" lon="2.3786">
        <ele>652.79</ele>
        <time>2026-08-21T10:54:13.324Z</time>
      </trkpt>
      <trkpt lat="45.00148" lon="2.37856">
        <ele>652.79</ele>
        <time>2026-08-21T10:54:13.728Z</time>
      </trkpt>
      <trkpt lat="45.00148" lon="2.37853">
        <ele>652.8</ele>
        <time>2026-08-21T10:54:14.671Z</time>
      </trkpt>
      <trkpt lat="45.00148" lon="2.37849">
        <ele>652.78</ele>
        <time>2026-08-21T10:54:15.670Z</time>
      </trkpt>
      <trkpt lat="45.00148" lon="2.37845">
        <ele>652.79</ele>
        <time>2026-08-21T10:54:17.622Z</time>
      </trkpt>
      <trkpt lat="45.00148" lon="2.37841">
        <ele>652.78</ele>
        <time>2026-08-21T10:54:18.170Z</time>
      </trkpt>
      <trkpt lat="45.00147" lon="2.37836">
        <ele>652.79</ele>
        <time>2026-08-21T10:54:19.646Z</time>
      </trkpt>
      <trkpt lat="45.00147" lon="2.37831">
        <ele>652.79</ele>
        <time>2026-08-21T10:54:20.664Z</time>
      </trkpt>
      <trkpt lat="45.00147" lon="2.37827">
        <ele>652.8</ele>
        <time>2026-08-21T10:54:21.652Z</time>
      </trkpt>
      <trkpt lat="45.00145" lon="2.37823">
        <ele>652.82</ele>
        <time>2026-08-21T10:54:22.661Z</time>
      </trkpt>
      <trkpt lat="45.00145" lon="2.37819">
        <ele>652.86</ele>
        <time>2026-08-21T10:54:22.691Z</time>
      </trkpt>
      <trkpt lat="45.00144" lon="2.37815">
        <ele>652.88</ele>
        <time>2026-08-21T10:54:24.646Z</time>
      </trkpt>
      <trkpt lat="45.00143" lon="2.37812">
        <ele>652.94</ele>
        <time>2026-08-21T10:54:24.691Z</time>
      </trkpt>
      <trkpt lat="45.00141" lon="2.37809">
        <ele>652.95</ele>
        <time>2026-08-21T10:54:25.671Z</time>
      </trkpt>
      <trkpt lat="45.0014" lon="2.37806">
        <ele>652.96</ele>
        <time>2026-08-21T10:54:27.644Z</time>
      </trkpt>
      <trkpt lat="45.00139" lon="2.37803">
        <ele>653</ele>
        <time>2026-08-21T10:54:27.683Z</time>
      </trkpt>
      <trkpt lat="45.00137" lon="2.37801">
        <ele>653.05</ele>
        <time>2026-08-21T10:54:28.687Z</time>
      </trkpt>
      <trkpt lat="45.00135" lon="2.37798">
        <ele>653.08</ele>
        <time>2026-08-21T10:54:30.641Z</time>
      </trkpt>
      <trkpt lat="45.00134" lon="2.37796">
        <ele>653.12</ele>
        <time>2026-08-21T10:54:31.578Z</time>
      </trkpt>
      <trkpt lat="45.00132" lon="2.37793">
        <ele>653.14</ele>
        <time>2026-08-21T10:54:32.581Z</time>
      </trkpt>
      <trkpt lat="45.0013" lon="2.3779">
        <ele>653.18</ele>
        <time>2026-08-21T10:54:33.585Z</time>
      </trkpt>
      <trkpt lat="45.00129" lon="2.37787">
        <ele>653.25</ele>
        <time>2026-08-21T10:54:34.587Z</time>
      </trkpt>
      <trkpt lat="45.00127" lon="2.37784">
        <ele>653.31</ele>
        <time>2026-08-21T10:54:35.592Z</time>
      </trkpt>
      <trkpt lat="45.00125" lon="2.37781">
        <ele>653.4</ele>
        <time>2026-08-21T10:54:36.591Z</time>
      </trkpt>
      <trkpt lat="45.00123" lon="2.37778">
        <ele>653.48</ele>
        <time>2026-08-21T10:54:37.594Z</time>
      </trkpt>
      <trkpt lat="45.00122" lon="2.37775">
        <ele>653.54</ele>
        <time>2026-08-21T10:54:38.598Z</time>
      </trkpt>
      <trkpt lat="45.0012" lon="2.37773">
        <ele>653.63</ele>
        <time>2026-08-21T10:54:39.599Z</time>
      </trkpt>
      <trkpt lat="45.00118" lon="2.3777">
        <ele>653.73</ele>
        <time>2026-08-21T10:54:40.602Z</time>
      </trkpt>
      <trkpt lat="45.00117" lon="2.37767">
        <ele>653.84</ele>
        <time>2026-08-21T10:54:41.606Z</time>
      </trkpt>
      <trkpt lat="45.00114" lon="2.37765">
        <ele>653.96</ele>
        <time>2026-08-21T10:54:42.607Z</time>
      </trkpt>
      <trkpt lat="45.00113" lon="2.37763">
        <ele>654.09</ele>
        <time>2026-08-21T10:54:43.610Z</time>
      </trkpt>
      <trkpt lat="45.00111" lon="2.37761">
        <ele>654.21</ele>
        <time>2026-08-21T10:54:44.610Z</time>
      </trkpt>
      <trkpt lat="45.00108" lon="2.3776">
        <ele>654.34</ele>
        <time>2026-08-21T10:54:45.611Z</time>
      </trkpt>
      <trkpt lat="45.00105" lon="2.37758">
        <ele>654.46</ele>
        <time>2026-08-21T10:54:46.622Z</time>
      </trkpt>
      <trkpt lat="45.00103" lon="2.37757">
        <ele>654.61</ele>
        <time>2026-08-21T10:54:47.613Z</time>
      </trkpt>
      <trkpt lat="45.001" lon="2.37756">
        <ele>654.76</ele>
        <time>2026-08-21T10:54:48.615Z</time>
      </trkpt>
      <trkpt lat="45.00097" lon="2.37755">
        <ele>654.93</ele>
        <time>2026-08-21T10:54:49.617Z</time>
      </trkpt>
      <trkpt lat="45.00094" lon="2.37755">
        <ele>655.11</ele>
        <time>2026-08-21T10:54:50.616Z</time>
      </trkpt>
      <trkpt lat="45.00092" lon="2.37755">
        <ele>655.27</ele>
        <time>2026-08-21T10:54:51.618Z</time>
      </trkpt>
      <trkpt lat="45.00088" lon="2.37754">
        <ele>655.49</ele>
        <time>2026-08-21T10:54:52.620Z</time>
      </trkpt>
      <trkpt lat="45.00085" lon="2.37754">
        <ele>655.7</ele>
        <time>2026-08-21T10:54:53.620Z</time>
      </trkpt>
      <trkpt lat="45.00081" lon="2.37754">
        <ele>655.93</ele>
        <time>2026-08-21T10:54:54.622Z</time>
      </trkpt>
      <trkpt lat="45.00078" lon="2.37754">
        <ele>656.18</ele>
        <time>2026-08-21T10:54:55.419Z</time>
      </trkpt>
      <trkpt lat="45.00075" lon="2.37754">
        <ele>656.34</ele>
        <time>2026-08-21T10:54:56.626Z</time>
      </trkpt>
      <trkpt lat="45.00072" lon="2.37754">
        <ele>656.46</ele>
        <time>2026-08-21T10:54:57.655Z</time>
      </trkpt>
      <trkpt lat="45.00068" lon="2.37753">
        <ele>656.61</ele>
        <time>2026-08-21T10:54:58.629Z</time>
      </trkpt>
      <trkpt lat="45.00066" lon="2.37752">
        <ele>656.74</ele>
        <time>2026-08-21T10:54:59.627Z</time>
      </trkpt>
      <trkpt lat="45.00063" lon="2.37751">
        <ele>656.88</ele>
        <time>2026-08-21T10:55:00.629Z</time>
      </trkpt>
      <trkpt lat="45.0006" lon="2.37749">
        <ele>657.01</ele>
        <time>2026-08-21T10:55:00.715Z</time>
      </trkpt>
      <trkpt lat="45.00057" lon="2.37746">
        <ele>657.19</ele>
        <time>2026-08-21T10:55:02.631Z</time>
      </trkpt>
      <trkpt lat="45.00055" lon="2.37742">
        <ele>657.34</ele>
        <time>2026-08-21T10:55:03.479Z</time>
      </trkpt>
      <trkpt lat="45.00054" lon="2.37739">
        <ele>657.6</ele>
        <time>2026-08-21T10:55:04.634Z</time>
      </trkpt>
      <trkpt lat="45.00052" lon="2.37735">
        <ele>657.81</ele>
        <time>2026-08-21T10:55:05.635Z</time>
      </trkpt>
      <trkpt lat="45.0005" lon="2.37731">
        <ele>658.03</ele>
        <time>2026-08-21T10:55:06.636Z</time>
      </trkpt>
      <trkpt lat="45.00048" lon="2.37728">
        <ele>658.25</ele>
        <time>2026-08-21T10:55:07.637Z</time>
      </trkpt>
      <trkpt lat="45.00047" lon="2.37725">
        <ele>658.52</ele>
        <time>2026-08-21T10:55:08.352Z</time>
      </trkpt>
      <trkpt lat="45.00044" lon="2.37722">
        <ele>658.8</ele>
        <time>2026-08-21T10:55:09.643Z</time>
      </trkpt>
      <trkpt lat="45.00042" lon="2.3772">
        <ele>659.04</ele>
        <time>2026-08-21T10:55:10.367Z</time>
      </trkpt>
      <trkpt lat="45.0004" lon="2.37718">
        <ele>659.25</ele>
        <time>2026-08-21T10:55:11.644Z</time>
      </trkpt>
      <trkpt lat="45.00037" lon="2.37717">
        <ele>659.46</ele>
        <time>2026-08-21T10:55:12.647Z</time>
      </trkpt>
      <trkpt lat="45.00035" lon="2.37715">
        <ele>659.68</ele>
        <time>2026-08-21T10:55:13.649Z</time>
      </trkpt>
      <trkpt lat="45.00032" lon="2.37715">
        <ele>659.88</ele>
        <time>2026-08-21T10:55:14.650Z</time>
      </trkpt>
      <trkpt lat="45.0003" lon="2.37714">
        <ele>660.08</ele>
        <time>2026-08-21T10:55:15.652Z</time>
      </trkpt>
      <trkpt lat="45.00027" lon="2.37713">
        <ele>660.21</ele>
        <time>2026-08-21T10:55:16.655Z</time>
      </trkpt>
      <trkpt lat="45.00024" lon="2.37713">
        <ele>660.4</ele>
        <time>2026-08-21T10:55:17.655Z</time>
      </trkpt>
      <trkpt lat="45.00022" lon="2.37713">
        <ele>660.61</ele>
        <time>2026-08-21T10:55:18.641Z</time>
      </trkpt>
      <trkpt lat="45.0002" lon="2.37714">
        <ele>660.86</ele>
        <time>2026-08-21T10:55:19.659Z</time>
      </trkpt>
      <trkpt lat="45.00018" lon="2.37714">
        <ele>661.13</ele>
        <time>2026-08-21T10:55:20.661Z</time>
      </trkpt>
      <trkpt lat="45.00016" lon="2.37715">
        <ele>661.28</ele>
        <time>2026-08-21T10:55:21.663Z</time>
      </trkpt>
      <trkpt lat="45.00014" lon="2.37717">
        <ele>661.62</ele>
        <time>2026-08-21T10:55:22.704Z</time>
      </trkpt>
      <trkpt lat="45.00013" lon="2.37718">
        <ele>661.94</ele>
        <time>2026-08-21T10:55:23.665Z</time>
      </trkpt>
      <trkpt lat="45.0001" lon="2.3772">
        <ele>662.27</ele>
        <time>2026-08-21T10:55:24.669Z</time>
      </trkpt>
      <trkpt lat="45.00008" lon="2.37722">
        <ele>662.56</ele>
        <time>2026-08-21T10:55:25.572Z</time>
      </trkpt>
      <trkpt lat="45.00007" lon="2.37724">
        <ele>662.79</ele>
        <time>2026-08-21T10:55:26.627Z</time>
      </trkpt>
      <trkpt lat="45.00004" lon="2.37727">
        <ele>663.03</ele>
        <time>2026-08-21T10:55:27.675Z</time>
      </trkpt>
      <trkpt lat="45.00003" lon="2.3773">
        <ele>663.27</ele>
        <time>2026-08-21T10:55:27.756Z</time>
      </trkpt>
      <trkpt lat="45.00002" lon="2.37732">
        <ele>663.54</ele>
        <time>2026-08-21T10:55:29.501Z</time>
      </trkpt>
      <trkpt lat="45" lon="2.37735">
        <ele>663.84</ele>
        <time>2026-08-21T10:55:29.740Z</time>
      </trkpt>
      <trkpt lat="44.99998" lon="2.37738">
        <ele>664.08</ele>
        <time>2026-08-21T10:55:31.684Z</time>
      </trkpt>
      <trkpt lat="44.99997" lon="2.37741">
        <ele>664.38</ele>
        <time>2026-08-21T10:55:32.533Z</time>
      </trkpt>
      <trkpt lat="44.99996" lon="2.37744">
        <ele>664.67</ele>
        <time>2026-08-21T10:55:33.581Z</time>
      </trkpt>
      <trkpt lat="44.99995" lon="2.37747">
        <ele>665.03</ele>
        <time>2026-08-21T10:55:33.789Z</time>
      </trkpt>
      <trkpt lat="44.99994" lon="2.3775">
        <ele>665.38</ele>
        <time>2026-08-21T10:55:35.258Z</time>
      </trkpt>
      <trkpt lat="44.99993" lon="2.37753">
        <ele>665.69</ele>
        <time>2026-08-21T10:55:36.438Z</time>
      </trkpt>
      <trkpt lat="44.99991" lon="2.37756">
        <ele>665.99</ele>
        <time>2026-08-21T10:55:37.697Z</time>
      </trkpt>
      <trkpt lat="44.99989" lon="2.37758">
        <ele>666.37</ele>
        <time>2026-08-21T10:55:38.698Z</time>
      </trkpt>
      <trkpt lat="44.99988" lon="2.3776">
        <ele>666.71</ele>
        <time>2026-08-21T10:55:39.702Z</time>
      </trkpt>
      <trkpt lat="44.99986" lon="2.37762">
        <ele>667.04</ele>
        <time>2026-08-21T10:55:40.276Z</time>
      </trkpt>
      <trkpt lat="44.99984" lon="2.37763">
        <ele>667.36</ele>
        <time>2026-08-21T10:55:41.705Z</time>
      </trkpt>
      <trkpt lat="44.99983" lon="2.37764">
        <ele>667.67</ele>
        <time>2026-08-21T10:55:42.611Z</time>
      </trkpt>
      <trkpt lat="44.99981" lon="2.37766">
        <ele>668.01</ele>
        <time>2026-08-21T10:55:43.318Z</time>
      </trkpt>
      <trkpt lat="44.99979" lon="2.37767">
        <ele>668.36</ele>
        <time>2026-08-21T10:55:44.702Z</time>
      </trkpt>
      <trkpt lat="44.99977" lon="2.37769">
        <ele>668.68</ele>
        <time>2026-08-21T10:55:45.715Z</time>
      </trkpt>
      <trkpt lat="44.99975" lon="2.37771">
        <ele>668.99</ele>
        <time>2026-08-21T10:55:46.718Z</time>
      </trkpt>
      <trkpt lat="44.99973" lon="2.37773">
        <ele>669.31</ele>
        <time>2026-08-21T10:55:47.720Z</time>
      </trkpt>
      <trkpt lat="44.99972" lon="2.37775">
        <ele>669.63</ele>
        <time>2026-08-21T10:55:48.724Z</time>
      </trkpt>
      <trkpt lat="44.99971" lon="2.37777">
        <ele>669.92</ele>
        <time>2026-08-21T10:55:49.726Z</time>
      </trkpt>
      <trkpt lat="44.99969" lon="2.37779">
        <ele>670.22</ele>
        <time>2026-08-21T10:55:50.728Z</time>
      </trkpt>
      <trkpt lat="44.99968" lon="2.37782">
        <ele>670.5</ele>
        <time>2026-08-21T10:55:51.613Z</time>
      </trkpt>
      <trkpt lat="44.99966" lon="2.37785">
        <ele>670.8</ele>
        <time>2026-08-21T10:55:52.735Z</time>
      </trkpt>
      <trkpt lat="44.99965" lon="2.37786">
        <ele>671.09</ele>
        <time>2026-08-21T10:55:53.735Z</time>
      </trkpt>
      <trkpt lat="44.99964" lon="2.37789">
        <ele>671.38</ele>
        <time>2026-08-21T10:55:54.347Z</time>
      </trkpt>
      <trkpt lat="44.99962" lon="2.37791">
        <ele>671.68</ele>
        <time>2026-08-21T10:55:55.678Z</time>
      </trkpt>
      <trkpt lat="44.9996" lon="2.37793">
        <ele>671.96</ele>
        <time>2026-08-21T10:55:56.742Z</time>
      </trkpt>
      <trkpt lat="44.99959" lon="2.37796">
        <ele>672.25</ele>
        <time>2026-08-21T10:55:57.744Z</time>
      </trkpt>
      <trkpt lat="44.99958" lon="2.37798">
        <ele>672.53</ele>
        <time>2026-08-21T10:55:58.752Z</time>
      </trkpt>
      <trkpt lat="44.99957" lon="2.378">
        <ele>672.8</ele>
        <time>2026-08-21T10:55:59.270Z</time>
      </trkpt>
      <trkpt lat="44.99955" lon="2.37803">
        <ele>673.07</ele>
        <time>2026-08-21T10:56:00.696Z</time>
      </trkpt>
      <trkpt lat="44.99954" lon="2.37805">
        <ele>673.33</ele>
        <time>2026-08-21T10:56:01.755Z</time>
      </trkpt>
      <trkpt lat="44.99953" lon="2.37806">
        <ele>673.59</ele>
        <time>2026-08-21T10:56:02.755Z</time>
      </trkpt>
      <trkpt lat="44.99952" lon="2.37808">
        <ele>673.85</ele>
        <time>2026-08-21T10:56:03.515Z</time>
      </trkpt>
      <trkpt lat="44.99951" lon="2.37809">
        <ele>674.09</ele>
        <time>2026-08-21T10:56:04.759Z</time>
      </trkpt>
      <trkpt lat="44.99949" lon="2.37812">
        <ele>674.59</ele>
        <time>2026-08-21T10:56:05.780Z</time>
      </trkpt>
      <trkpt lat="44.99948" lon="2.37814">
        <ele>676.44</ele>
        <time>2026-08-21T10:56:17.348Z</time>
      </trkpt>
      <trkpt lat="44.99946" lon="2.37817">
        <ele>676.72</ele>
        <time>2026-08-21T10:56:18.941Z</time>
      </trkpt>
      <trkpt lat="44.99945" lon="2.37819">
        <ele>676.88</ele>
        <time>2026-08-21T10:56:20.322Z</time>
      </trkpt>
      <trkpt lat="44.99944" lon="2.3782">
        <ele>677.01</ele>
        <time>2026-08-21T10:56:20.887Z</time>
      </trkpt>
      <trkpt lat="44.99942" lon="2.37822">
        <ele>677.15</ele>
        <time>2026-08-21T10:56:21.883Z</time>
      </trkpt>
      <trkpt lat="44.99941" lon="2.37824">
        <ele>677.29</ele>
        <time>2026-08-21T10:56:23.297Z</time>
      </trkpt>
      <trkpt lat="44.99939" lon="2.37826">
        <ele>677.44</ele>
        <time>2026-08-21T10:56:24.345Z</time>
      </trkpt>
      <trkpt lat="44.99938" lon="2.37829">
        <ele>677.58</ele>
        <time>2026-08-21T10:56:25.356Z</time>
      </trkpt>
      <trkpt lat="44.99936" lon="2.37832">
        <ele>677.74</ele>
        <time>2026-08-21T10:56:26.297Z</time>
      </trkpt>
      <trkpt lat="44.99935" lon="2.37834">
        <ele>677.87</ele>
        <time>2026-08-21T10:56:26.809Z</time>
      </trkpt>
      <trkpt lat="44.99933" lon="2.37836">
        <ele>678.02</ele>
        <time>2026-08-21T10:56:28.339Z</time>
      </trkpt>
      <trkpt lat="44.99931" lon="2.37839">
        <ele>678.15</ele>
        <time>2026-08-21T10:56:28.901Z</time>
      </trkpt>
      <trkpt lat="44.99929" lon="2.37841">
        <ele>678.29</ele>
        <time>2026-08-21T10:56:30.347Z</time>
      </trkpt>
      <trkpt lat="44.99928" lon="2.37844">
        <ele>678.41</ele>
        <time>2026-08-21T10:56:30.877Z</time>
      </trkpt>
      <trkpt lat="44.99926" lon="2.37847">
        <ele>678.51</ele>
        <time>2026-08-21T10:56:32.325Z</time>
      </trkpt>
      <trkpt lat="44.99925" lon="2.3785">
        <ele>678.61</ele>
        <time>2026-08-21T10:56:32.885Z</time>
      </trkpt>
      <trkpt lat="44.99923" lon="2.37853">
        <ele>678.71</ele>
        <time>2026-08-21T10:56:33.849Z</time>
      </trkpt>
      <trkpt lat="44.99921" lon="2.37855">
        <ele>678.8</ele>
        <time>2026-08-21T10:56:35.369Z</time>
      </trkpt>
      <trkpt lat="44.99919" lon="2.37858">
        <ele>678.9</ele>
        <time>2026-08-21T10:56:35.887Z</time>
      </trkpt>
      <trkpt lat="44.99917" lon="2.37862">
        <ele>678.99</ele>
        <time>2026-08-21T10:56:37.092Z</time>
      </trkpt>
      <trkpt lat="44.99916" lon="2.37865">
        <ele>679.08</ele>
        <time>2026-08-21T10:56:38.324Z</time>
      </trkpt>
      <trkpt lat="44.99914" lon="2.37868">
        <ele>679.17</ele>
        <time>2026-08-21T10:56:38.888Z</time>
      </trkpt>
      <trkpt lat="44.99913" lon="2.37871">
        <ele>679.26</ele>
        <time>2026-08-21T10:56:40.332Z</time>
      </trkpt>
      <trkpt lat="44.99911" lon="2.37874">
        <ele>679.33</ele>
        <time>2026-08-21T10:56:40.913Z</time>
      </trkpt>
      <trkpt lat="44.99909" lon="2.37878">
        <ele>679.42</ele>
        <time>2026-08-21T10:56:42.347Z</time>
      </trkpt>
      <trkpt lat="44.99908" lon="2.37881">
        <ele>679.52</ele>
        <time>2026-08-21T10:56:43.335Z</time>
      </trkpt>
      <trkpt lat="44.99906" lon="2.37884">
        <ele>679.61</ele>
        <time>2026-08-21T10:56:44.328Z</time>
      </trkpt>
      <trkpt lat="44.99905" lon="2.37887">
        <ele>679.7</ele>
        <time>2026-08-21T10:56:45.342Z</time>
      </trkpt>
      <trkpt lat="44.99903" lon="2.37891">
        <ele>679.78</ele>
        <time>2026-08-21T10:56:46.170Z</time>
      </trkpt>
      <trkpt lat="44.99901" lon="2.37894">
        <ele>679.88</ele>
        <time>2026-08-21T10:56:46.403Z</time>
      </trkpt>
      <trkpt lat="44.999" lon="2.37897">
        <ele>679.96</ele>
        <time>2026-08-21T10:56:48.366Z</time>
      </trkpt>
      <trkpt lat="44.99898" lon="2.379">
        <ele>680.05</ele>
        <time>2026-08-21T10:56:49.375Z</time>
      </trkpt>
      <trkpt lat="44.99896" lon="2.37903">
        <ele>680.12</ele>
        <time>2026-08-21T10:56:49.904Z</time>
      </trkpt>
      <trkpt lat="44.99895" lon="2.37906">
        <ele>680.21</ele>
        <time>2026-08-21T10:56:51.370Z</time>
      </trkpt>
      <trkpt lat="44.99894" lon="2.3791">
        <ele>680.3</ele>
        <time>2026-08-21T10:56:51.401Z</time>
      </trkpt>
      <trkpt lat="44.99892" lon="2.37914">
        <ele>680.39</ele>
        <time>2026-08-21T10:56:53.379Z</time>
      </trkpt>
      <trkpt lat="44.99891" lon="2.37917">
        <ele>680.47</ele>
        <time>2026-08-21T10:56:53.408Z</time>
      </trkpt>
      <trkpt lat="44.9989" lon="2.37921">
        <ele>680.56</ele>
        <time>2026-08-21T10:56:55.387Z</time>
      </trkpt>
      <trkpt lat="44.99889" lon="2.37925">
        <ele>680.65</ele>
        <time>2026-08-21T10:56:55.448Z</time>
      </trkpt>
      <trkpt lat="44.99888" lon="2.37929">
        <ele>680.74</ele>
        <time>2026-08-21T10:56:57.256Z</time>
      </trkpt>
      <trkpt lat="44.99887" lon="2.37932">
        <ele>680.83</ele>
        <time>2026-08-21T10:56:57.457Z</time>
      </trkpt>
      <trkpt lat="44.99886" lon="2.37936">
        <ele>680.91</ele>
        <time>2026-08-21T10:56:58.948Z</time>
      </trkpt>
      <trkpt lat="44.99885" lon="2.3794">
        <ele>680.99</ele>
        <time>2026-08-21T10:57:00.360Z</time>
      </trkpt>
      <trkpt lat="44.99884" lon="2.37944">
        <ele>681.08</ele>
        <time>2026-08-21T10:57:01.393Z</time>
      </trkpt>
      <trkpt lat="44.99883" lon="2.37947">
        <ele>681.19</ele>
        <time>2026-08-21T10:57:02.374Z</time>
      </trkpt>
      <trkpt lat="44.99881" lon="2.37951">
        <ele>681.28</ele>
        <time>2026-08-21T10:57:03.376Z</time>
      </trkpt>
      <trkpt lat="44.9988" lon="2.37954">
        <ele>681.37</ele>
        <time>2026-08-21T10:57:04.377Z</time>
      </trkpt>
      <trkpt lat="44.99879" lon="2.37958">
        <ele>681.46</ele>
        <time>2026-08-21T10:57:05.346Z</time>
      </trkpt>
      <trkpt lat="44.99878" lon="2.37961">
        <ele>681.56</ele>
        <time>2026-08-21T10:57:06.276Z</time>
      </trkpt>
      <trkpt lat="44.99876" lon="2.37964">
        <ele>681.67</ele>
        <time>2026-08-21T10:57:07.390Z</time>
      </trkpt>
      <trkpt lat="44.99875" lon="2.37967">
        <ele>681.77</ele>
        <time>2026-08-21T10:57:08.383Z</time>
      </trkpt>
      <trkpt lat="44.99873" lon="2.3797">
        <ele>681.87</ele>
        <time>2026-08-21T10:57:09.386Z</time>
      </trkpt>
      <trkpt lat="44.99872" lon="2.37973">
        <ele>681.98</ele>
        <time>2026-08-21T10:57:10.390Z</time>
      </trkpt>
      <trkpt lat="44.99871" lon="2.37976">
        <ele>682.09</ele>
        <time>2026-08-21T10:57:11.023Z</time>
      </trkpt>
      <trkpt lat="44.99869" lon="2.3798">
        <ele>682.2</ele>
        <time>2026-08-21T10:57:12.128Z</time>
      </trkpt>
      <trkpt lat="44.99868" lon="2.37983">
        <ele>682.31</ele>
        <time>2026-08-21T10:57:13.395Z</time>
      </trkpt>
      <trkpt lat="44.99867" lon="2.37986">
        <ele>682.43</ele>
        <time>2026-08-21T10:57:13.986Z</time>
      </trkpt>
      <trkpt lat="44.99865" lon="2.37989">
        <ele>682.53</ele>
        <time>2026-08-21T10:57:15.004Z</time>
      </trkpt>
      <trkpt lat="44.99864" lon="2.37991">
        <ele>682.65</ele>
        <time>2026-08-21T10:57:16.398Z</time>
      </trkpt>
      <trkpt lat="44.99862" lon="2.37994">
        <ele>682.76</ele>
        <time>2026-08-21T10:57:17.400Z</time>
      </trkpt>
      <trkpt lat="44.99861" lon="2.37997">
        <ele>682.88</ele>
        <time>2026-08-21T10:57:17.853Z</time>
      </trkpt>
      <trkpt lat="44.99859" lon="2.38">
        <ele>683</ele>
        <time>2026-08-21T10:57:19.404Z</time>
      </trkpt>
      <trkpt lat="44.99857" lon="2.38002">
        <ele>683.11</ele>
        <time>2026-08-21T10:57:20.197Z</time>
      </trkpt>
      <trkpt lat="44.99855" lon="2.38004">
        <ele>683.23</ele>
        <time>2026-08-21T10:57:21.409Z</time>
      </trkpt>
      <trkpt lat="44.99853" lon="2.38006">
        <ele>683.37</ele>
        <time>2026-08-21T10:57:22.411Z</time>
      </trkpt>
      <trkpt lat="44.99851" lon="2.38007">
        <ele>683.5</ele>
        <time>2026-08-21T10:57:23.413Z</time>
      </trkpt>
      <trkpt lat="44.99848" lon="2.38008">
        <ele>683.63</ele>
        <time>2026-08-21T10:57:24.416Z</time>
      </trkpt>
      <trkpt lat="44.99846" lon="2.38008">
        <ele>683.77</ele>
        <time>2026-08-21T10:57:25.418Z</time>
      </trkpt>
      <trkpt lat="44.99843" lon="2.38007">
        <ele>683.9</ele>
        <time>2026-08-21T10:57:26.420Z</time>
      </trkpt>
      <trkpt lat="44.99841" lon="2.38006">
        <ele>684.06</ele>
        <time>2026-08-21T10:57:27.426Z</time>
      </trkpt>
      <trkpt lat="44.99838" lon="2.38005">
        <ele>684.21</ele>
        <time>2026-08-21T10:57:28.071Z</time>
      </trkpt>
      <trkpt lat="44.99836" lon="2.38003">
        <ele>684.35</ele>
        <time>2026-08-21T10:57:29.426Z</time>
      </trkpt>
      <trkpt lat="44.99833" lon="2.38001">
        <ele>684.51</ele>
        <time>2026-08-21T10:57:30.429Z</time>
      </trkpt>
      <trkpt lat="44.99831" lon="2.37998">
        <ele>684.65</ele>
        <time>2026-08-21T10:57:31.431Z</time>
      </trkpt>
      <trkpt lat="44.99829" lon="2.37995">
        <ele>684.78</ele>
        <time>2026-08-21T10:57:32.406Z</time>
      </trkpt>
      <trkpt lat="44.99826" lon="2.37991">
        <ele>684.91</ele>
        <time>2026-08-21T10:57:33.426Z</time>
      </trkpt>
      <trkpt lat="44.99824" lon="2.37988">
        <ele>685.03</ele>
        <time>2026-08-21T10:57:34.052Z</time>
      </trkpt>
      <trkpt lat="44.99822" lon="2.37984">
        <ele>685.15</ele>
        <time>2026-08-21T10:57:35.340Z</time>
      </trkpt>
      <trkpt lat="44.99818" lon="2.3798">
        <ele>685.27</ele>
        <time>2026-08-21T10:57:36.349Z</time>
      </trkpt>
      <trkpt lat="44.99816" lon="2.37977">
        <ele>685.37</ele>
        <time>2026-08-21T10:57:37.345Z</time>
      </trkpt>
      <trkpt lat="44.99813" lon="2.37974">
        <ele>685.49</ele>
        <time>2026-08-21T10:57:38.348Z</time>
      </trkpt>
      <trkpt lat="44.9981" lon="2.37971">
        <ele>685.62</ele>
        <time>2026-08-21T10:57:39.351Z</time>
      </trkpt>
      <trkpt lat="44.99808" lon="2.37967">
        <ele>685.72</ele>
        <time>2026-08-21T10:57:40.354Z</time>
      </trkpt>
      <trkpt lat="44.99806" lon="2.37963">
        <ele>685.82</ele>
        <time>2026-08-21T10:57:41.023Z</time>
      </trkpt>
      <trkpt lat="44.99803" lon="2.3796">
        <ele>685.92</ele>
        <time>2026-08-21T10:57:42.358Z</time>
      </trkpt>
      <trkpt lat="44.99801" lon="2.37958">
        <ele>686.01</ele>
        <time>2026-08-21T10:57:43.361Z</time>
      </trkpt>
      <trkpt lat="44.99799" lon="2.37955">
        <ele>686.09</ele>
        <time>2026-08-21T10:57:44.361Z</time>
      </trkpt>
      <trkpt lat="44.99796" lon="2.37952">
        <ele>686.18</ele>
        <time>2026-08-21T10:57:45.364Z</time>
      </trkpt>
      <trkpt lat="44.99794" lon="2.37948">
        <ele>686.27</ele>
        <time>2026-08-21T10:57:46.368Z</time>
      </trkpt>
      <trkpt lat="44.99791" lon="2.37945">
        <ele>686.35</ele>
        <time>2026-08-21T10:57:47.368Z</time>
      </trkpt>
      <trkpt lat="44.99788" lon="2.37941">
        <ele>686.43</ele>
        <time>2026-08-21T10:57:48.016Z</time>
      </trkpt>
      <trkpt lat="44.99785" lon="2.37938">
        <ele>686.52</ele>
        <time>2026-08-21T10:57:49.372Z</time>
      </trkpt>
      <trkpt lat="44.99782" lon="2.37934">
        <ele>686.61</ele>
        <time>2026-08-21T10:57:50.374Z</time>
      </trkpt>
      <trkpt lat="44.99779" lon="2.37931">
        <ele>686.69</ele>
        <time>2026-08-21T10:57:51.374Z</time>
      </trkpt>
      <trkpt lat="44.99776" lon="2.37928">
        <ele>686.79</ele>
        <time>2026-08-21T10:57:52.377Z</time>
      </trkpt>
      <trkpt lat="44.99773" lon="2.37925">
        <ele>686.88</ele>
        <time>2026-08-21T10:57:53.378Z</time>
      </trkpt>
      <trkpt lat="44.99771" lon="2.37922">
        <ele>686.95</ele>
        <time>2026-08-21T10:57:54.380Z</time>
      </trkpt>
      <trkpt lat="44.99768" lon="2.37919">
        <ele>687.04</ele>
        <time>2026-08-21T10:57:55.382Z</time>
      </trkpt>
      <trkpt lat="44.99765" lon="2.37915">
        <ele>687.11</ele>
        <time>2026-08-21T10:57:56.384Z</time>
      </trkpt>
      <trkpt lat="44.99763" lon="2.37912">
        <ele>687.16</ele>
        <time>2026-08-21T10:57:57.383Z</time>
      </trkpt>
      <trkpt lat="44.99761" lon="2.37909">
        <ele>687.22</ele>
        <time>2026-08-21T10:57:58.384Z</time>
      </trkpt>
      <trkpt lat="44.99759" lon="2.37905">
        <ele>687.32</ele>
        <time>2026-08-21T10:57:59.386Z</time>
      </trkpt>
      <trkpt lat="44.99758" lon="2.37901">
        <ele>687.41</ele>
        <time>2026-08-21T10:58:00.387Z</time>
      </trkpt>
      <trkpt lat="44.99757" lon="2.37897">
        <ele>687.5</ele>
        <time>2026-08-21T10:58:01.389Z</time>
      </trkpt>
      <trkpt lat="44.99756" lon="2.37893">
        <ele>687.6</ele>
        <time>2026-08-21T10:58:02.389Z</time>
      </trkpt>
      <trkpt lat="44.99754" lon="2.37889">
        <ele>687.7</ele>
        <time>2026-08-21T10:58:03.107Z</time>
      </trkpt>
      <trkpt lat="44.99754" lon="2.37884">
        <ele>687.79</ele>
        <time>2026-08-21T10:58:04.329Z</time>
      </trkpt>
      <trkpt lat="44.99754" lon="2.37879">
        <ele>687.88</ele>
        <time>2026-08-21T10:58:05.395Z</time>
      </trkpt>
      <trkpt lat="44.99752" lon="2.37874">
        <ele>687.97</ele>
        <time>2026-08-21T10:58:05.478Z</time>
      </trkpt>
      <trkpt lat="44.99751" lon="2.37868">
        <ele>688.06</ele>
        <time>2026-08-21T10:58:07.399Z</time>
      </trkpt>
      <trkpt lat="44.9975" lon="2.37863">
        <ele>688.15</ele>
        <time>2026-08-21T10:58:07.485Z</time>
      </trkpt>
      <trkpt lat="44.99748" lon="2.37859">
        <ele>688.24</ele>
        <time>2026-08-21T10:58:09.402Z</time>
      </trkpt>
      <trkpt lat="44.99746" lon="2.37854">
        <ele>688.33</ele>
        <time>2026-08-21T10:58:10.340Z</time>
      </trkpt>
      <trkpt lat="44.99744" lon="2.3785">
        <ele>688.44</ele>
        <time>2026-08-21T10:58:11.405Z</time>
      </trkpt>
      <trkpt lat="44.99742" lon="2.37846">
        <ele>688.52</ele>
        <time>2026-08-21T10:58:12.407Z</time>
      </trkpt>
      <trkpt lat="44.9974" lon="2.37843">
        <ele>688.61</ele>
        <time>2026-08-21T10:58:13.408Z</time>
      </trkpt>
      <trkpt lat="44.99736" lon="2.37839">
        <ele>688.71</ele>
        <time>2026-08-21T10:58:14.409Z</time>
      </trkpt>
      <trkpt lat="44.99733" lon="2.37835">
        <ele>688.8</ele>
        <time>2026-08-21T10:58:15.411Z</time>
      </trkpt>
      <trkpt lat="44.9973" lon="2.37831">
        <ele>688.89</ele>
        <time>2026-08-21T10:58:16.412Z</time>
      </trkpt>
      <trkpt lat="44.99727" lon="2.37828">
        <ele>688.98</ele>
        <time>2026-08-21T10:58:17.413Z</time>
      </trkpt>
      <trkpt lat="44.99724" lon="2.37824">
        <ele>689.07</ele>
        <time>2026-08-21T10:58:18.415Z</time>
      </trkpt>
      <trkpt lat="44.99722" lon="2.37821">
        <ele>689.15</ele>
        <time>2026-08-21T10:58:19.305Z</time>
      </trkpt>
      <trkpt lat="44.99719" lon="2.37816">
        <ele>689.24</ele>
        <time>2026-08-21T10:58:20.417Z</time>
      </trkpt>
      <trkpt lat="44.99716" lon="2.37812">
        <ele>689.33</ele>
        <time>2026-08-21T10:58:21.418Z</time>
      </trkpt>
      <trkpt lat="44.99713" lon="2.37808">
        <ele>689.41</ele>
        <time>2026-08-21T10:58:22.424Z</time>
      </trkpt>
      <trkpt lat="44.9971" lon="2.37803">
        <ele>689.51</ele>
        <time>2026-08-21T10:58:23.420Z</time>
      </trkpt>
      <trkpt lat="44.99708" lon="2.37798">
        <ele>689.59</ele>
        <time>2026-08-21T10:58:24.423Z</time>
      </trkpt>
      <trkpt lat="44.99706" lon="2.37793">
        <ele>689.67</ele>
        <time>2026-08-21T10:58:25.425Z</time>
      </trkpt>
      <trkpt lat="44.99704" lon="2.37789">
        <ele>689.86</ele>
        <time>2026-08-21T10:58:26.425Z</time>
      </trkpt>
      <trkpt lat="44.99701" lon="2.37784">
        <ele>690.04</ele>
        <time>2026-08-21T10:58:27.427Z</time>
      </trkpt>
      <trkpt lat="44.99699" lon="2.3778">
        <ele>690.23</ele>
        <time>2026-08-21T10:58:28.429Z</time>
      </trkpt>
      <trkpt lat="44.99698" lon="2.37776">
        <ele>690.39</ele>
        <time>2026-08-21T10:58:29.431Z</time>
      </trkpt>
      <trkpt lat="44.99696" lon="2.37773">
        <ele>690.58</ele>
        <time>2026-08-21T10:58:30.432Z</time>
      </trkpt>
      <trkpt lat="44.99694" lon="2.37769">
        <ele>690.74</ele>
        <time>2026-08-21T10:58:31.435Z</time>
      </trkpt>
      <trkpt lat="44.99692" lon="2.37766">
        <ele>691.04</ele>
        <time>2026-08-21T10:58:32.435Z</time>
      </trkpt>
      <trkpt lat="44.99689" lon="2.37763">
        <ele>691.28</ele>
        <time>2026-08-21T10:58:33.437Z</time>
      </trkpt>
      <trkpt lat="44.99686" lon="2.3776">
        <ele>691.5</ele>
        <time>2026-08-21T10:58:34.439Z</time>
      </trkpt>
      <trkpt lat="44.99684" lon="2.37757">
        <ele>691.76</ele>
        <time>2026-08-21T10:58:35.074Z</time>
      </trkpt>
      <trkpt lat="44.99681" lon="2.37754">
        <ele>691.96</ele>
        <time>2026-08-21T10:58:36.443Z</time>
      </trkpt>
      <trkpt lat="44.99678" lon="2.37752">
        <ele>692.12</ele>
        <time>2026-08-21T10:58:37.446Z</time>
      </trkpt>
      <trkpt lat="44.99674" lon="2.37751">
        <ele>692.27</ele>
        <time>2026-08-21T10:58:38.448Z</time>
      </trkpt>
      <trkpt lat="44.99669" lon="2.37751">
        <ele>692.38</ele>
        <time>2026-08-21T10:58:39.450Z</time>
      </trkpt>
      <trkpt lat="44.99664" lon="2.37751">
        <ele>692.45</ele>
        <time>2026-08-21T10:58:40.452Z</time>
      </trkpt>
      <trkpt lat="44.99659" lon="2.37751">
        <ele>692.51</ele>
        <time>2026-08-21T10:58:41.454Z</time>
      </trkpt>
      <trkpt lat="44.99654" lon="2.37752">
        <ele>692.59</ele>
        <time>2026-08-21T10:58:42.457Z</time>
      </trkpt>
      <trkpt lat="44.9965" lon="2.37753">
        <ele>692.59</ele>
        <time>2026-08-21T10:58:43.459Z</time>
      </trkpt>
      <trkpt lat="44.99644" lon="2.37755">
        <ele>692.6</ele>
        <time>2026-08-21T10:58:44.459Z</time>
      </trkpt>
      <trkpt lat="44.99638" lon="2.37757">
        <ele>692.52</ele>
        <time>2026-08-21T10:58:45.461Z</time>
      </trkpt>
      <trkpt lat="44.99632" lon="2.37758">
        <ele>692.46</ele>
        <time>2026-08-21T10:58:46.463Z</time>
      </trkpt>
      <trkpt lat="44.99625" lon="2.37761">
        <ele>692.39</ele>
        <time>2026-08-21T10:58:47.465Z</time>
      </trkpt>
      <trkpt lat="44.99619" lon="2.37763">
        <ele>692.22</ele>
        <time>2026-08-21T10:58:48.468Z</time>
      </trkpt>
      <trkpt lat="44.99612" lon="2.37765">
        <ele>692.14</ele>
        <time>2026-08-21T10:58:49.472Z</time>
      </trkpt>
      <trkpt lat="44.99606" lon="2.3777">
        <ele>692.04</ele>
        <time>2026-08-21T10:58:50.470Z</time>
      </trkpt>
      <trkpt lat="44.996" lon="2.37778">
        <ele>691.94</ele>
        <time>2026-08-21T10:58:51.473Z</time>
      </trkpt>
      <trkpt lat="44.99597" lon="2.37788">
        <ele>691.83</ele>
        <time>2026-08-21T10:58:52.475Z</time>
      </trkpt>
      <trkpt lat="44.99595" lon="2.37799">
        <ele>691.66</ele>
        <time>2026-08-21T10:58:53.478Z</time>
      </trkpt>
      <trkpt lat="44.99593" lon="2.37809">
        <ele>691.52</ele>
        <time>2026-08-21T10:58:54.478Z</time>
      </trkpt>
      <trkpt lat="44.99591" lon="2.37821">
        <ele>691.3</ele>
        <time>2026-08-21T10:58:55.481Z</time>
      </trkpt>
      <trkpt lat="44.99589" lon="2.37833">
        <ele>691.07</ele>
        <time>2026-08-21T10:58:56.482Z</time>
      </trkpt>
      <trkpt lat="44.99586" lon="2.37843">
        <ele>690.8</ele>
        <time>2026-08-21T10:58:57.484Z</time>
      </trkpt>
      <trkpt lat="44.99583" lon="2.37854">
        <ele>690.52</ele>
        <time>2026-08-21T10:58:58.487Z</time>
      </trkpt>
      <trkpt lat="44.99579" lon="2.37865">
        <ele>690.1</ele>
        <time>2026-08-21T10:58:59.486Z</time>
      </trkpt>
      <trkpt lat="44.99575" lon="2.37876">
        <ele>689.59</ele>
        <time>2026-08-21T10:59:00.488Z</time>
      </trkpt>
      <trkpt lat="44.99572" lon="2.37887">
        <ele>689.13</ele>
        <time>2026-08-21T10:59:01.488Z</time>
      </trkpt>
      <trkpt lat="44.99568" lon="2.379">
        <ele>688.69</ele>
        <time>2026-08-21T10:59:02.491Z</time>
      </trkpt>
      <trkpt lat="44.99566" lon="2.37912">
        <ele>688.24</ele>
        <time>2026-08-21T10:59:03.098Z</time>
      </trkpt>
      <trkpt lat="44.99566" lon="2.3792">
        <ele>687.74</ele>
        <time>2026-08-21T10:59:04.493Z</time>
      </trkpt>
      <trkpt lat="44.99566" lon="2.37937">
        <ele>687.22</ele>
        <time>2026-08-21T10:59:05.494Z</time>
      </trkpt>
      <trkpt lat="44.99567" lon="2.3795">
        <ele>686.83</ele>
        <time>2026-08-21T10:59:06.515Z</time>
      </trkpt>
      <trkpt lat="44.99568" lon="2.37959">
        <ele>686.37</ele>
        <time>2026-08-21T10:59:07.498Z</time>
      </trkpt>
      <trkpt lat="44.99568" lon="2.37976">
        <ele>685.76</ele>
        <time>2026-08-21T10:59:08.499Z</time>
      </trkpt>
      <trkpt lat="44.99568" lon="2.37988">
        <ele>685.28</ele>
        <time>2026-08-21T10:59:09.500Z</time>
      </trkpt>
      <trkpt lat="44.99567" lon="2.38002">
        <ele>685.88</ele>
        <time>2026-08-21T10:59:10.500Z</time>
      </trkpt>
      <trkpt lat="44.99566" lon="2.38016">
        <ele>685.36</ele>
        <time>2026-08-21T10:59:11.335Z</time>
      </trkpt>
      <trkpt lat="44.99566" lon="2.38029">
        <ele>684.85</ele>
        <time>2026-08-21T10:59:12.365Z</time>
      </trkpt>
      <trkpt lat="44.99565" lon="2.38044">
        <ele>684.12</ele>
        <time>2026-08-21T10:59:13.328Z</time>
      </trkpt>
      <trkpt lat="44.99564" lon="2.38057">
        <ele>683.34</ele>
        <time>2026-08-21T10:59:14.361Z</time>
      </trkpt>
      <trkpt lat="44.99566" lon="2.3807">
        <ele>682.43</ele>
        <time>2026-08-21T10:59:15.348Z</time>
      </trkpt>
      <trkpt lat="44.99569" lon="2.38082">
        <ele>681.63</ele>
        <time>2026-08-21T10:59:16.363Z</time>
      </trkpt>
      <trkpt lat="44.99574" lon="2.38091">
        <ele>680.69</ele>
        <time>2026-08-21T10:59:17.335Z</time>
      </trkpt>
      <trkpt lat="44.99579" lon="2.38102">
        <ele>679.92</ele>
        <time>2026-08-21T10:59:18.322Z</time>
      </trkpt>
      <trkpt lat="44.99584" lon="2.38113">
        <ele>679.06</ele>
        <time>2026-08-21T10:59:19.349Z</time>
      </trkpt>
      <trkpt lat="44.99587" lon="2.38125">
        <ele>678.41</ele>
        <time>2026-08-21T10:59:20.351Z</time>
      </trkpt>
      <trkpt lat="44.99589" lon="2.38137">
        <ele>677.37</ele>
        <time>2026-08-21T10:59:21.386Z</time>
      </trkpt>
      <trkpt lat="44.99588" lon="2.3815">
        <ele>676.16</ele>
        <time>2026-08-21T10:59:22.351Z</time>
      </trkpt>
      <trkpt lat="44.99586" lon="2.38161">
        <ele>675.23</ele>
        <time>2026-08-21T10:59:23.350Z</time>
      </trkpt>
      <trkpt lat="44.99585" lon="2.38172">
        <ele>674.27</ele>
        <time>2026-08-21T10:59:24.368Z</time>
      </trkpt>
      <trkpt lat="44.99585" lon="2.38184">
        <ele>673.53</ele>
        <time>2026-08-21T10:59:25.335Z</time>
      </trkpt>
      <trkpt lat="44.99586" lon="2.38193">
        <ele>672.76</ele>
        <time>2026-08-21T10:59:26.328Z</time>
      </trkpt>
      <trkpt lat="44.99587" lon="2.38204">
        <ele>672.02</ele>
        <time>2026-08-21T10:59:27.535Z</time>
      </trkpt>
      <trkpt lat="44.99589" lon="2.38214">
        <ele>671.21</ele>
        <time>2026-08-21T10:59:28.436Z</time>
      </trkpt>
      <trkpt lat="44.99587" lon="2.38223">
        <ele>670.68</ele>
        <time>2026-08-21T10:59:29.538Z</time>
      </trkpt>
      <trkpt lat="44.99584" lon="2.38236">
        <ele>670.04</ele>
        <time>2026-08-21T10:59:30.438Z</time>
      </trkpt>
      <trkpt lat="44.9958" lon="2.38246">
        <ele>669.55</ele>
        <time>2026-08-21T10:59:31.441Z</time>
      </trkpt>
      <trkpt lat="44.99574" lon="2.38255">
        <ele>669.12</ele>
        <time>2026-08-21T10:59:32.543Z</time>
      </trkpt>
      <trkpt lat="44.99569" lon="2.38262">
        <ele>668.68</ele>
        <time>2026-08-21T10:59:33.544Z</time>
      </trkpt>
      <trkpt lat="44.99563" lon="2.3827">
        <ele>668.37</ele>
        <time>2026-08-21T10:59:34.445Z</time>
      </trkpt>
      <trkpt lat="44.9956" lon="2.38279">
        <ele>667.79</ele>
        <time>2026-08-21T10:59:35.449Z</time>
      </trkpt>
      <trkpt lat="44.99559" lon="2.3829">
        <ele>667.2</ele>
        <time>2026-08-21T10:59:36.449Z</time>
      </trkpt>
      <trkpt lat="44.9956" lon="2.38299">
        <ele>666.72</ele>
        <time>2026-08-21T10:59:37.449Z</time>
      </trkpt>
      <trkpt lat="44.99564" lon="2.38307">
        <ele>666.15</ele>
        <time>2026-08-21T10:59:38.451Z</time>
      </trkpt>
      <trkpt lat="44.99569" lon="2.38316">
        <ele>665.52</ele>
        <time>2026-08-21T10:59:39.453Z</time>
      </trkpt>
      <trkpt lat="44.99571" lon="2.38327">
        <ele>664.76</ele>
        <time>2026-08-21T10:59:40.456Z</time>
      </trkpt>
      <trkpt lat="44.99571" lon="2.38337">
        <ele>664.06</ele>
        <time>2026-08-21T10:59:41.458Z</time>
      </trkpt>
      <trkpt lat="44.99568" lon="2.38346">
        <ele>663.57</ele>
        <time>2026-08-21T10:59:42.460Z</time>
      </trkpt>
      <trkpt lat="44.99564" lon="2.38356">
        <ele>662.87</ele>
        <time>2026-08-21T10:59:43.461Z</time>
      </trkpt>
      <trkpt lat="44.99559" lon="2.38365">
        <ele>662.2</ele>
        <time>2026-08-21T10:59:44.461Z</time>
      </trkpt>
      <trkpt lat="44.99556" lon="2.38375">
        <ele>661.4</ele>
        <time>2026-08-21T10:59:45.463Z</time>
      </trkpt>
      <trkpt lat="44.99554" lon="2.38386">
        <ele>660.51</ele>
        <time>2026-08-21T10:59:46.464Z</time>
      </trkpt>
      <trkpt lat="44.99553" lon="2.38399">
        <ele>659.86</ele>
        <time>2026-08-21T10:59:47.465Z</time>
      </trkpt>
      <trkpt lat="44.99553" lon="2.38413">
        <ele>659.27</ele>
        <time>2026-08-21T10:59:48.466Z</time>
      </trkpt>
      <trkpt lat="44.99553" lon="2.38425">
        <ele>658.65</ele>
        <time>2026-08-21T10:59:49.468Z</time>
      </trkpt>
      <trkpt lat="44.99553" lon="2.38439">
        <ele>657.79</ele>
        <time>2026-08-21T10:59:50.468Z</time>
      </trkpt>
      <trkpt lat="44.99555" lon="2.38454">
        <ele>657.01</ele>
        <time>2026-08-21T10:59:51.468Z</time>
      </trkpt>
      <trkpt lat="44.99558" lon="2.38467">
        <ele>656.12</ele>
        <time>2026-08-21T10:59:52.469Z</time>
      </trkpt>
      <trkpt lat="44.99562" lon="2.3848">
        <ele>655.08</ele>
        <time>2026-08-21T10:59:53.471Z</time>
      </trkpt>
      <trkpt lat="44.99569" lon="2.38492">
        <ele>654.1</ele>
        <time>2026-08-21T10:59:54.472Z</time>
      </trkpt>
      <trkpt lat="44.99577" lon="2.38502">
        <ele>653.2</ele>
        <time>2026-08-21T10:59:55.474Z</time>
      </trkpt>
      <trkpt lat="44.99582" lon="2.38512">
        <ele>652.2</ele>
        <time>2026-08-21T10:59:56.476Z</time>
      </trkpt>
      <trkpt lat="44.99589" lon="2.38527">
        <ele>650.66</ele>
        <time>2026-08-21T10:59:57.477Z</time>
      </trkpt>
      <trkpt lat="44.99591" lon="2.3854">
        <ele>649.52</ele>
        <time>2026-08-21T10:59:58.479Z</time>
      </trkpt>
      <trkpt lat="44.99592" lon="2.38551">
        <ele>648.48</ele>
        <time>2026-08-21T10:59:59.481Z</time>
      </trkpt>
      <trkpt lat="44.99591" lon="2.38561">
        <ele>647.48</ele>
        <time>2026-08-21T11:00:00.483Z</time>
      </trkpt>
      <trkpt lat="44.99588" lon="2.3857">
        <ele>646.5</ele>
        <time>2026-08-21T11:00:01.484Z</time>
      </trkpt>
      <trkpt lat="44.99584" lon="2.3858">
        <ele>645.44</ele>
        <time>2026-08-21T11:00:02.486Z</time>
      </trkpt>
      <trkpt lat="44.99583" lon="2.3859">
        <ele>644.49</ele>
        <time>2026-08-21T11:00:03.488Z</time>
      </trkpt>
      <trkpt lat="44.99583" lon="2.38599">
        <ele>643.66</ele>
        <time>2026-08-21T11:00:04.415Z</time>
      </trkpt>
      <trkpt lat="44.99583" lon="2.38607">
        <ele>642.89</ele>
        <time>2026-08-21T11:00:05.489Z</time>
      </trkpt>
      <trkpt lat="44.99583" lon="2.38616">
        <ele>642.27</ele>
        <time>2026-08-21T11:00:06.490Z</time>
      </trkpt>
      <trkpt lat="44.99584" lon="2.38623">
        <ele>641.77</ele>
        <time>2026-08-21T11:00:07.491Z</time>
      </trkpt>
      <trkpt lat="44.99586" lon="2.38631">
        <ele>641.28</ele>
        <time>2026-08-21T11:00:08.492Z</time>
      </trkpt>
      <trkpt lat="44.99586" lon="2.38637">
        <ele>640.91</ele>
        <time>2026-08-21T11:00:09.494Z</time>
      </trkpt>
      <trkpt lat="44.99587" lon="2.38645">
        <ele>640.58</ele>
        <time>2026-08-21T11:00:10.415Z</time>
      </trkpt>
      <trkpt lat="44.99587" lon="2.38651">
        <ele>640.26</ele>
        <time>2026-08-21T11:00:11.495Z</time>
      </trkpt>
      <trkpt lat="44.99588" lon="2.38656">
        <ele>639.7</ele>
        <time>2026-08-21T11:00:12.496Z</time>
      </trkpt>
      <trkpt lat="44.99588" lon="2.38662">
        <ele>639.5</ele>
        <time>2026-08-21T11:00:13.496Z</time>
      </trkpt>
      <trkpt lat="44.9959" lon="2.38667">
        <ele>639.38</ele>
        <time>2026-08-21T11:00:14.498Z</time>
      </trkpt>
      <trkpt lat="44.99592" lon="2.38672">
        <ele>639.28</ele>
        <time>2026-08-21T11:00:15.498Z</time>
      </trkpt>
      <trkpt lat="44.99594" lon="2.38676">
        <ele>639.11</ele>
        <time>2026-08-21T11:00:16.414Z</time>
      </trkpt>
      <trkpt lat="44.99596" lon="2.3868">
        <ele>639</ele>
        <time>2026-08-21T11:00:17.500Z</time>
      </trkpt>
      <trkpt lat="44.99598" lon="2.38684">
        <ele>638.91</ele>
        <time>2026-08-21T11:00:18.394Z</time>
      </trkpt>
      <trkpt lat="44.996" lon="2.38687">
        <ele>638.83</ele>
        <time>2026-08-21T11:00:19.502Z</time>
      </trkpt>
      <trkpt lat="44.99602" lon="2.38691">
        <ele>638.76</ele>
        <time>2026-08-21T11:00:20.435Z</time>
      </trkpt>
      <trkpt lat="44.99604" lon="2.38694">
        <ele>638.66</ele>
        <time>2026-08-21T11:00:21.504Z</time>
      </trkpt>
      <trkpt lat="44.99606" lon="2.38696">
        <ele>638.64</ele>
        <time>2026-08-21T11:00:22.506Z</time>
      </trkpt>
      <trkpt lat="44.99609" lon="2.38699">
        <ele>638.6</ele>
        <time>2026-08-21T11:00:23.506Z</time>
      </trkpt>
      <trkpt lat="44.99611" lon="2.38701">
        <ele>638.53</ele>
        <time>2026-08-21T11:00:24.507Z</time>
      </trkpt>
      <trkpt lat="44.99613" lon="2.38703">
        <ele>638.5</ele>
        <time>2026-08-21T11:00:25.509Z</time>
      </trkpt>
      <trkpt lat="44.99616" lon="2.38706">
        <ele>638.44</ele>
        <time>2026-08-21T11:00:26.510Z</time>
      </trkpt>
      <trkpt lat="44.99618" lon="2.38708">
        <ele>638.42</ele>
        <time>2026-08-21T11:00:27.512Z</time>
      </trkpt>
      <trkpt lat="44.99621" lon="2.38709">
        <ele>638.39</ele>
        <time>2026-08-21T11:00:28.515Z</time>
      </trkpt>
      <trkpt lat="44.99623" lon="2.38711">
        <ele>638.35</ele>
        <time>2026-08-21T11:00:29.516Z</time>
      </trkpt>
      <trkpt lat="44.99625" lon="2.38713">
        <ele>638.32</ele>
        <time>2026-08-21T11:00:30.517Z</time>
      </trkpt>
      <trkpt lat="44.99628" lon="2.38716">
        <ele>638.32</ele>
        <time>2026-08-21T11:00:31.424Z</time>
      </trkpt>
      <trkpt lat="44.9963" lon="2.38718">
        <ele>638.35</ele>
        <time>2026-08-21T11:00:32.541Z</time>
      </trkpt>
      <trkpt lat="44.99633" lon="2.38721">
        <ele>638.34</ele>
        <time>2026-08-21T11:00:33.522Z</time>
      </trkpt>
      <trkpt lat="44.99637" lon="2.38723">
        <ele>638.33</ele>
        <time>2026-08-21T11:00:33.609Z</time>
      </trkpt>
      <trkpt lat="44.9964" lon="2.38726">
        <ele>638.35</ele>
        <time>2026-08-21T11:00:35.526Z</time>
      </trkpt>
      <trkpt lat="44.99643" lon="2.3873">
        <ele>638.37</ele>
        <time>2026-08-21T11:00:36.447Z</time>
      </trkpt>
      <trkpt lat="44.99646" lon="2.38733">
        <ele>638.37</ele>
        <time>2026-08-21T11:00:37.529Z</time>
      </trkpt>
      <trkpt lat="44.99648" lon="2.38736">
        <ele>638.39</ele>
        <time>2026-08-21T11:00:38.140Z</time>
      </trkpt>
      <trkpt lat="44.99651" lon="2.3874">
        <ele>638.4</ele>
        <time>2026-08-21T11:00:39.530Z</time>
      </trkpt>
      <trkpt lat="44.99653" lon="2.38743">
        <ele>638.39</ele>
        <time>2026-08-21T11:00:40.531Z</time>
      </trkpt>
      <trkpt lat="44.99656" lon="2.38747">
        <ele>638.38</ele>
        <time>2026-08-21T11:00:41.533Z</time>
      </trkpt>
      <trkpt lat="44.99658" lon="2.3875">
        <ele>638.38</ele>
        <time>2026-08-21T11:00:42.533Z</time>
      </trkpt>
      <trkpt lat="44.9966" lon="2.38755">
        <ele>638.41</ele>
        <time>2026-08-21T11:00:43.534Z</time>
      </trkpt>
      <trkpt lat="44.99662" lon="2.38758">
        <ele>638.41</ele>
        <time>2026-08-21T11:00:44.535Z</time>
      </trkpt>
      <trkpt lat="44.99664" lon="2.38762">
        <ele>638.43</ele>
        <time>2026-08-21T11:00:45.536Z</time>
      </trkpt>
      <trkpt lat="44.99665" lon="2.38767">
        <ele>638.45</ele>
        <time>2026-08-21T11:00:46.538Z</time>
      </trkpt>
      <trkpt lat="44.99667" lon="2.38772">
        <ele>638.46</ele>
        <time>2026-08-21T11:00:47.539Z</time>
      </trkpt>
      <trkpt lat="44.99667" lon="2.38778">
        <ele>638.47</ele>
        <time>2026-08-21T11:00:48.539Z</time>
      </trkpt>
      <trkpt lat="44.99669" lon="2.38784">
        <ele>638.48</ele>
        <time>2026-08-21T11:00:49.539Z</time>
      </trkpt>
      <trkpt lat="44.9967" lon="2.38789">
        <ele>638.49</ele>
        <time>2026-08-21T11:00:50.540Z</time>
      </trkpt>
      <trkpt lat="44.9967" lon="2.38795">
        <ele>638.48</ele>
        <time>2026-08-21T11:00:51.129Z</time>
      </trkpt>
      <trkpt lat="44.9967" lon="2.388">
        <ele>638.49</ele>
        <time>2026-08-21T11:00:52.155Z</time>
      </trkpt>
      <trkpt lat="44.9967" lon="2.38806">
        <ele>638.51</ele>
        <time>2026-08-21T11:00:53.149Z</time>
      </trkpt>
      <trkpt lat="44.99671" lon="2.38811">
        <ele>638.52</ele>
        <time>2026-08-21T11:00:54.548Z</time>
      </trkpt>
      <trkpt lat="44.99671" lon="2.38817">
        <ele>638.54</ele>
        <time>2026-08-21T11:00:55.153Z</time>
      </trkpt>
      <trkpt lat="44.99671" lon="2.38822">
        <ele>638.57</ele>
        <time>2026-08-21T11:00:56.551Z</time>
      </trkpt>
      <trkpt lat="44.99672" lon="2.38828">
        <ele>638.59</ele>
        <time>2026-08-21T11:00:57.551Z</time>
      </trkpt>
      <trkpt lat="44.99672" lon="2.38833">
        <ele>638.62</ele>
        <time>2026-08-21T11:00:58.478Z</time>
      </trkpt>
      <trkpt lat="44.99673" lon="2.38839">
        <ele>638.66</ele>
        <time>2026-08-21T11:00:59.554Z</time>
      </trkpt>
      <trkpt lat="44.99674" lon="2.38843">
        <ele>638.71</ele>
        <time>2026-08-21T11:01:00.164Z</time>
      </trkpt>
      <trkpt lat="44.99674" lon="2.38849">
        <ele>638.76</ele>
        <time>2026-08-21T11:01:01.556Z</time>
      </trkpt>
      <trkpt lat="44.99675" lon="2.38854">
        <ele>638.8</ele>
        <time>2026-08-21T11:01:02.556Z</time>
      </trkpt>
      <trkpt lat="44.99676" lon="2.38859">
        <ele>638.83</ele>
        <time>2026-08-21T11:01:03.075Z</time>
      </trkpt>
      <trkpt lat="44.99677" lon="2.38865">
        <ele>638.86</ele>
        <time>2026-08-21T11:01:04.174Z</time>
      </trkpt>
      <trkpt lat="44.99677" lon="2.3887">
        <ele>638.89</ele>
        <time>2026-08-21T11:01:05.560Z</time>
      </trkpt>
      <trkpt lat="44.99678" lon="2.38875">
        <ele>638.94</ele>
        <time>2026-08-21T11:01:06.162Z</time>
      </trkpt>
      <trkpt lat="44.99679" lon="2.38881">
        <ele>638.97</ele>
        <time>2026-08-21T11:01:07.560Z</time>
      </trkpt>
      <trkpt lat="44.9968" lon="2.38886">
        <ele>639.01</ele>
        <time>2026-08-21T11:01:08.565Z</time>
      </trkpt>
      <trkpt lat="44.99681" lon="2.38892">
        <ele>639.09</ele>
        <time>2026-08-21T11:01:09.564Z</time>
      </trkpt>
      <trkpt lat="44.99682" lon="2.38898">
        <ele>639.13</ele>
        <time>2026-08-21T11:01:10.563Z</time>
      </trkpt>
      <trkpt lat="44.99683" lon="2.38904">
        <ele>639.16</ele>
        <time>2026-08-21T11:01:11.507Z</time>
      </trkpt>
      <trkpt lat="44.99685" lon="2.3891">
        <ele>639.22</ele>
        <time>2026-08-21T11:01:12.565Z</time>
      </trkpt>
      <trkpt lat="44.99686" lon="2.38915">
        <ele>639.28</ele>
        <time>2026-08-21T11:01:13.567Z</time>
      </trkpt>
      <trkpt lat="44.99688" lon="2.38921">
        <ele>639.34</ele>
        <time>2026-08-21T11:01:14.567Z</time>
      </trkpt>
      <trkpt lat="44.99689" lon="2.38927">
        <ele>639.39</ele>
        <time>2026-08-21T11:01:15.570Z</time>
      </trkpt>
      <trkpt lat="44.9969" lon="2.38932">
        <ele>639.48</ele>
        <time>2026-08-21T11:01:16.569Z</time>
      </trkpt>
      <trkpt lat="44.99692" lon="2.38938">
        <ele>639.51</ele>
        <time>2026-08-21T11:01:17.574Z</time>
      </trkpt>
      <trkpt lat="44.99694" lon="2.38944">
        <ele>639.6</ele>
        <time>2026-08-21T11:01:18.572Z</time>
      </trkpt>
      <trkpt lat="44.99695" lon="2.38949">
        <ele>639.65</ele>
        <time>2026-08-21T11:01:19.575Z</time>
      </trkpt>
      <trkpt lat="44.99696" lon="2.38954">
        <ele>639.74</ele>
        <time>2026-08-21T11:01:20.496Z</time>
      </trkpt>
      <trkpt lat="44.99698" lon="2.3896">
        <ele>639.8</ele>
        <time>2026-08-21T11:01:21.575Z</time>
      </trkpt>
      <trkpt lat="44.99699" lon="2.38966">
        <ele>639.84</ele>
        <time>2026-08-21T11:01:22.577Z</time>
      </trkpt>
      <trkpt lat="44.99701" lon="2.38971">
        <ele>639.9</ele>
        <time>2026-08-21T11:01:23.579Z</time>
      </trkpt>
      <trkpt lat="44.99703" lon="2.38976">
        <ele>639.97</ele>
        <time>2026-08-21T11:01:24.579Z</time>
      </trkpt>
      <trkpt lat="44.99704" lon="2.3898">
        <ele>640.07</ele>
        <time>2026-08-21T11:01:25.582Z</time>
      </trkpt>
      <trkpt lat="44.99706" lon="2.38985">
        <ele>640.16</ele>
        <time>2026-08-21T11:01:26.584Z</time>
      </trkpt>
      <trkpt lat="44.99708" lon="2.3899">
        <ele>640.22</ele>
        <time>2026-08-21T11:01:27.584Z</time>
      </trkpt>
      <trkpt lat="44.9971" lon="2.38995">
        <ele>640.31</ele>
        <time>2026-08-21T11:01:28.585Z</time>
      </trkpt>
      <trkpt lat="44.99713" lon="2.39">
        <ele>640.39</ele>
        <time>2026-08-21T11:01:29.178Z</time>
      </trkpt>
      <trkpt lat="44.99715" lon="2.39005">
        <ele>640.45</ele>
        <time>2026-08-21T11:01:30.192Z</time>
      </trkpt>
      <trkpt lat="44.99718" lon="2.39009">
        <ele>640.53</ele>
        <time>2026-08-21T11:01:31.187Z</time>
      </trkpt>
      <trkpt lat="44.9972" lon="2.39014">
        <ele>640.58</ele>
        <time>2026-08-21T11:01:32.589Z</time>
      </trkpt>
      <trkpt lat="44.99723" lon="2.39019">
        <ele>640.64</ele>
        <time>2026-08-21T11:01:33.264Z</time>
      </trkpt>
      <trkpt lat="44.99725" lon="2.39024">
        <ele>640.68</ele>
        <time>2026-08-21T11:01:34.208Z</time>
      </trkpt>
      <trkpt lat="44.99727" lon="2.39028">
        <ele>640.71</ele>
        <time>2026-08-21T11:01:35.223Z</time>
      </trkpt>
      <trkpt lat="44.9973" lon="2.39033">
        <ele>640.79</ele>
        <time>2026-08-21T11:01:36.593Z</time>
      </trkpt>
      <trkpt lat="44.99731" lon="2.39038">
        <ele>640.87</ele>
        <time>2026-08-21T11:01:37.593Z</time>
      </trkpt>
      <trkpt lat="44.99733" lon="2.39042">
        <ele>640.95</ele>
        <time>2026-08-21T11:01:38.595Z</time>
      </trkpt>
      <trkpt lat="44.99736" lon="2.39047">
        <ele>641.01</ele>
        <time>2026-08-21T11:01:39.598Z</time>
      </trkpt>
      <trkpt lat="44.99738" lon="2.39052">
        <ele>641.09</ele>
        <time>2026-08-21T11:01:40.207Z</time>
      </trkpt>
      <trkpt lat="44.9974" lon="2.39056">
        <ele>641.14</ele>
        <time>2026-08-21T11:01:41.200Z</time>
      </trkpt>
      <trkpt lat="44.99742" lon="2.39061">
        <ele>641.19</ele>
        <time>2026-08-21T11:01:42.597Z</time>
      </trkpt>
      <trkpt lat="44.99744" lon="2.39066">
        <ele>641.25</ele>
        <time>2026-08-21T11:01:43.213Z</time>
      </trkpt>
      <trkpt lat="44.99746" lon="2.3907">
        <ele>641.33</ele>
        <time>2026-08-21T11:01:44.202Z</time>
      </trkpt>
      <trkpt lat="44.99748" lon="2.39074">
        <ele>641.41</ele>
        <time>2026-08-21T11:01:45.600Z</time>
      </trkpt>
      <trkpt lat="44.9975" lon="2.39079">
        <ele>641.48</ele>
        <time>2026-08-21T11:01:46.605Z</time>
      </trkpt>
      <trkpt lat="44.99752" lon="2.39083">
        <ele>641.5</ele>
        <time>2026-08-21T11:01:47.605Z</time>
      </trkpt>
      <trkpt lat="44.99753" lon="2.39086">
        <ele>641.57</ele>
        <time>2026-08-21T11:01:48.605Z</time>
      </trkpt>
      <trkpt lat="44.99755" lon="2.39091">
        <ele>641.63</ele>
        <time>2026-08-21T11:01:49.605Z</time>
      </trkpt>
      <trkpt lat="44.99757" lon="2.39094">
        <ele>641.7</ele>
        <time>2026-08-21T11:01:50.608Z</time>
      </trkpt>
      <trkpt lat="44.99758" lon="2.39098">
        <ele>641.78</ele>
        <time>2026-08-21T11:01:51.608Z</time>
      </trkpt>
      <trkpt lat="44.9976" lon="2.39102">
        <ele>641.87</ele>
        <time>2026-08-21T11:01:52.610Z</time>
      </trkpt>
      <trkpt lat="44.99761" lon="2.39106">
        <ele>641.95</ele>
        <time>2026-08-21T11:01:53.611Z</time>
      </trkpt>
      <trkpt lat="44.99763" lon="2.3911">
        <ele>642.02</ele>
        <time>2026-08-21T11:01:54.614Z</time>
      </trkpt>
      <trkpt lat="44.99765" lon="2.39114">
        <ele>642.07</ele>
        <time>2026-08-21T11:01:55.616Z</time>
      </trkpt>
      <trkpt lat="44.99767" lon="2.39121">
        <ele>642.11</ele>
        <time>2026-08-21T11:01:56.616Z</time>
      </trkpt>
      <trkpt lat="44.9977" lon="2.39126">
        <ele>642.2</ele>
        <time>2026-08-21T11:01:57.619Z</time>
      </trkpt>
      <trkpt lat="44.99772" lon="2.39131">
        <ele>642.25</ele>
        <time>2026-08-21T11:01:58.621Z</time>
      </trkpt>
      <trkpt lat="44.99774" lon="2.39137">
        <ele>642.3</ele>
        <time>2026-08-21T11:01:59.621Z</time>
      </trkpt>
      <trkpt lat="44.99777" lon="2.39142">
        <ele>642.34</ele>
        <time>2026-08-21T11:02:00.621Z</time>
      </trkpt>
      <trkpt lat="44.99779" lon="2.39147">
        <ele>642.4</ele>
        <time>2026-08-21T11:02:01.623Z</time>
      </trkpt>
      <trkpt lat="44.99783" lon="2.39152">
        <ele>642.48</ele>
        <time>2026-08-21T11:02:02.625Z</time>
      </trkpt>
      <trkpt lat="44.99786" lon="2.39157">
        <ele>642.56</ele>
        <time>2026-08-21T11:02:03.625Z</time>
      </trkpt>
      <trkpt lat="44.99789" lon="2.39161">
        <ele>642.6</ele>
        <time>2026-08-21T11:02:04.626Z</time>
      </trkpt>
      <trkpt lat="44.99793" lon="2.39165">
        <ele>642.68</ele>
        <time>2026-08-21T11:02:05.587Z</time>
      </trkpt>
      <trkpt lat="44.99797" lon="2.3917">
        <ele>642.69</ele>
        <time>2026-08-21T11:02:06.629Z</time>
      </trkpt>
      <trkpt lat="44.998" lon="2.39173">
        <ele>642.76</ele>
        <time>2026-08-21T11:02:07.629Z</time>
      </trkpt>
      <trkpt lat="44.99804" lon="2.39177">
        <ele>642.84</ele>
        <time>2026-08-21T11:02:08.677Z</time>
      </trkpt>
      <trkpt lat="44.99808" lon="2.39181">
        <ele>642.9</ele>
        <time>2026-08-21T11:02:09.631Z</time>
      </trkpt>
      <trkpt lat="44.99811" lon="2.39184">
        <ele>642.98</ele>
        <time>2026-08-21T11:02:10.633Z</time>
      </trkpt>
      <trkpt lat="44.99815" lon="2.39188">
        <ele>643.02</ele>
        <time>2026-08-21T11:02:11.634Z</time>
      </trkpt>
      <trkpt lat="44.99819" lon="2.39191">
        <ele>643.08</ele>
        <time>2026-08-21T11:02:12.633Z</time>
      </trkpt>
      <trkpt lat="44.99823" lon="2.39195">
        <ele>643.13</ele>
        <time>2026-08-21T11:02:13.463Z</time>
      </trkpt>
      <trkpt lat="44.99827" lon="2.39199">
        <ele>643.18</ele>
        <time>2026-08-21T11:02:14.637Z</time>
      </trkpt>
      <trkpt lat="44.99831" lon="2.39203">
        <ele>643.23</ele>
        <time>2026-08-21T11:02:15.636Z</time>
      </trkpt>
      <trkpt lat="44.99834" lon="2.39206">
        <ele>643.28</ele>
        <time>2026-08-21T11:02:16.636Z</time>
      </trkpt>
      <trkpt lat="44.99838" lon="2.3921">
        <ele>643.35</ele>
        <time>2026-08-21T11:02:17.637Z</time>
      </trkpt>
      <trkpt lat="44.99842" lon="2.39213">
        <ele>643.41</ele>
        <time>2026-08-21T11:02:18.637Z</time>
      </trkpt>
      <trkpt lat="44.99846" lon="2.39217">
        <ele>643.47</ele>
        <time>2026-08-21T11:02:19.638Z</time>
      </trkpt>
      <trkpt lat="44.99849" lon="2.39221">
        <ele>643.52</ele>
        <time>2026-08-21T11:02:20.639Z</time>
      </trkpt>
      <trkpt lat="44.99853" lon="2.39225">
        <ele>643.59</ele>
        <time>2026-08-21T11:02:21.547Z</time>
      </trkpt>
      <trkpt lat="44.99856" lon="2.3923">
        <ele>643.64</ele>
        <time>2026-08-21T11:02:22.644Z</time>
      </trkpt>
      <trkpt lat="44.99859" lon="2.39233">
        <ele>643.7</ele>
        <time>2026-08-21T11:02:23.640Z</time>
      </trkpt>
      <trkpt lat="44.99862" lon="2.3924">
        <ele>643.76</ele>
        <time>2026-08-21T11:02:24.644Z</time>
      </trkpt>
      <trkpt lat="44.99865" lon="2.39245">
        <ele>643.81</ele>
        <time>2026-08-21T11:02:25.646Z</time>
      </trkpt>
      <trkpt lat="44.99868" lon="2.39251">
        <ele>643.83</ele>
        <time>2026-08-21T11:02:26.644Z</time>
      </trkpt>
      <trkpt lat="44.9987" lon="2.39257">
        <ele>643.86</ele>
        <time>2026-08-21T11:02:27.644Z</time>
      </trkpt>
      <trkpt lat="44.99872" lon="2.39262">
        <ele>643.88</ele>
        <time>2026-08-21T11:02:28.509Z</time>
      </trkpt>
      <trkpt lat="44.99874" lon="2.39269">
        <ele>643.91</ele>
        <time>2026-08-21T11:02:29.645Z</time>
      </trkpt>
      <trkpt lat="44.99875" lon="2.39275">
        <ele>643.94</ele>
        <time>2026-08-21T11:02:30.645Z</time>
      </trkpt>
      <trkpt lat="44.99877" lon="2.39281">
        <ele>643.98</ele>
        <time>2026-08-21T11:02:31.646Z</time>
      </trkpt>
      <trkpt lat="44.99878" lon="2.39285">
        <ele>644.05</ele>
        <time>2026-08-21T11:02:32.639Z</time>
      </trkpt>
      <trkpt lat="44.99881" lon="2.39294">
        <ele>644.13</ele>
        <time>2026-08-21T11:02:33.638Z</time>
      </trkpt>
      <trkpt lat="44.99882" lon="2.393">
        <ele>644.22</ele>
        <time>2026-08-21T11:02:34.638Z</time>
      </trkpt>
      <trkpt lat="44.99884" lon="2.39306">
        <ele>644.29</ele>
        <time>2026-08-21T11:02:35.645Z</time>
      </trkpt>
      <trkpt lat="44.99885" lon="2.39312">
        <ele>644.33</ele>
        <time>2026-08-21T11:02:36.641Z</time>
      </trkpt>
      <trkpt lat="44.99887" lon="2.39317">
        <ele>644.37</ele>
        <time>2026-08-21T11:02:37.640Z</time>
      </trkpt>
      <trkpt lat="44.99889" lon="2.39324">
        <ele>644.47</ele>
        <time>2026-08-21T11:02:38.642Z</time>
      </trkpt>
      <trkpt lat="44.9989" lon="2.39329">
        <ele>644.55</ele>
        <time>2026-08-21T11:02:39.643Z</time>
      </trkpt>
      <trkpt lat="44.99891" lon="2.39335">
        <ele>644.64</ele>
        <time>2026-08-21T11:02:40.643Z</time>
      </trkpt>
      <trkpt lat="44.99893" lon="2.39341">
        <ele>644.64</ele>
        <time>2026-08-21T11:02:41.647Z</time>
      </trkpt>
      <trkpt lat="44.99895" lon="2.39347">
        <ele>644.72</ele>
        <time>2026-08-21T11:02:42.646Z</time>
      </trkpt>
      <trkpt lat="44.99897" lon="2.39352">
        <ele>644.77</ele>
        <time>2026-08-21T11:02:43.647Z</time>
      </trkpt>
      <trkpt lat="44.99899" lon="2.39361">
        <ele>644.85</ele>
        <time>2026-08-21T11:02:44.649Z</time>
      </trkpt>
      <trkpt lat="44.999" lon="2.39366">
        <ele>644.92</ele>
        <time>2026-08-21T11:02:45.651Z</time>
      </trkpt>
      <trkpt lat="44.99902" lon="2.39373">
        <ele>644.96</ele>
        <time>2026-08-21T11:02:46.652Z</time>
      </trkpt>
      <trkpt lat="44.99904" lon="2.39379">
        <ele>645.03</ele>
        <time>2026-08-21T11:02:47.656Z</time>
      </trkpt>
      <trkpt lat="44.99905" lon="2.39386">
        <ele>645.07</ele>
        <time>2026-08-21T11:02:48.659Z</time>
      </trkpt>
      <trkpt lat="44.99905" lon="2.39393">
        <ele>645.1</ele>
        <time>2026-08-21T11:02:49.660Z</time>
      </trkpt>
      <trkpt lat="44.99907" lon="2.394">
        <ele>645.17</ele>
        <time>2026-08-21T11:02:50.663Z</time>
      </trkpt>
      <trkpt lat="44.99907" lon="2.39406">
        <ele>645.23</ele>
        <time>2026-08-21T11:02:51.663Z</time>
      </trkpt>
      <trkpt lat="44.99907" lon="2.39412">
        <ele>645.29</ele>
        <time>2026-08-21T11:02:52.667Z</time>
      </trkpt>
      <trkpt lat="44.99906" lon="2.39417">
        <ele>645.36</ele>
        <time>2026-08-21T11:02:53.671Z</time>
      </trkpt>
      <trkpt lat="44.99905" lon="2.39422">
        <ele>645.38</ele>
        <time>2026-08-21T11:02:54.668Z</time>
      </trkpt>
      <trkpt lat="44.99904" lon="2.39427">
        <ele>645.42</ele>
        <time>2026-08-21T11:02:55.669Z</time>
      </trkpt>
      <trkpt lat="44.99903" lon="2.39432">
        <ele>645.52</ele>
        <time>2026-08-21T11:02:56.672Z</time>
      </trkpt>
      <trkpt lat="44.99902" lon="2.39437">
        <ele>645.58</ele>
        <time>2026-08-21T11:02:57.674Z</time>
      </trkpt>
      <trkpt lat="44.999" lon="2.39444">
        <ele>645.62</ele>
        <time>2026-08-21T11:02:58.676Z</time>
      </trkpt>
      <trkpt lat="44.99898" lon="2.3945">
        <ele>645.67</ele>
        <time>2026-08-21T11:02:59.680Z</time>
      </trkpt>
      <trkpt lat="44.99896" lon="2.39457">
        <ele>645.73</ele>
        <time>2026-08-21T11:03:00.680Z</time>
      </trkpt>
      <trkpt lat="44.99894" lon="2.39463">
        <ele>645.77</ele>
        <time>2026-08-21T11:03:01.682Z</time>
      </trkpt>
      <trkpt lat="44.99893" lon="2.39468">
        <ele>645.82</ele>
        <time>2026-08-21T11:03:02.688Z</time>
      </trkpt>
      <trkpt lat="44.99891" lon="2.39474">
        <ele>645.86</ele>
        <time>2026-08-21T11:03:03.691Z</time>
      </trkpt>
      <trkpt lat="44.99889" lon="2.3948">
        <ele>645.9</ele>
        <time>2026-08-21T11:03:04.687Z</time>
      </trkpt>
      <trkpt lat="44.99889" lon="2.39486">
        <ele>645.99</ele>
        <time>2026-08-21T11:03:05.690Z</time>
      </trkpt>
      <trkpt lat="44.99888" lon="2.39492">
        <ele>646.12</ele>
        <time>2026-08-21T11:03:06.690Z</time>
      </trkpt>
      <trkpt lat="44.99888" lon="2.39498">
        <ele>646.18</ele>
        <time>2026-08-21T11:03:07.691Z</time>
      </trkpt>
      <trkpt lat="44.99888" lon="2.39504">
        <ele>646.24</ele>
        <time>2026-08-21T11:03:08.696Z</time>
      </trkpt>
      <trkpt lat="44.99889" lon="2.3951">
        <ele>646.27</ele>
        <time>2026-08-21T11:03:09.696Z</time>
      </trkpt>
      <trkpt lat="44.99889" lon="2.39515">
        <ele>646.3</ele>
        <time>2026-08-21T11:03:10.697Z</time>
      </trkpt>
      <trkpt lat="44.99892" lon="2.39522">
        <ele>646.35</ele>
        <time>2026-08-21T11:03:11.700Z</time>
      </trkpt>
      <trkpt lat="44.99893" lon="2.39526">
        <ele>646.41</ele>
        <time>2026-08-21T11:03:12.701Z</time>
      </trkpt>
      <trkpt lat="44.99895" lon="2.39531">
        <ele>646.47</ele>
        <time>2026-08-21T11:03:13.238Z</time>
      </trkpt>
      <trkpt lat="44.99897" lon="2.39538">
        <ele>646.51</ele>
        <time>2026-08-21T11:03:14.707Z</time>
      </trkpt>
      <trkpt lat="44.999" lon="2.39543">
        <ele>646.54</ele>
        <time>2026-08-21T11:03:15.709Z</time>
      </trkpt>
      <trkpt lat="44.99902" lon="2.39549">
        <ele>646.56</ele>
        <time>2026-08-21T11:03:16.711Z</time>
      </trkpt>
      <trkpt lat="44.99905" lon="2.39554">
        <ele>646.58</ele>
        <time>2026-08-21T11:03:17.714Z</time>
      </trkpt>
      <trkpt lat="44.99907" lon="2.39559">
        <ele>646.61</ele>
        <time>2026-08-21T11:03:18.718Z</time>
      </trkpt>
      <trkpt lat="44.9991" lon="2.39564">
        <ele>646.61</ele>
        <time>2026-08-21T11:03:19.594Z</time>
      </trkpt>
      <trkpt lat="44.99912" lon="2.39568">
        <ele>646.65</ele>
        <time>2026-08-21T11:03:20.258Z</time>
      </trkpt>
      <trkpt lat="44.99915" lon="2.39573">
        <ele>646.7</ele>
        <time>2026-08-21T11:03:21.725Z</time>
      </trkpt>
      <trkpt lat="44.99918" lon="2.39577">
        <ele>646.75</ele>
        <time>2026-08-21T11:03:22.729Z</time>
      </trkpt>
      <trkpt lat="44.9992" lon="2.39581">
        <ele>646.8</ele>
        <time>2026-08-21T11:03:23.376Z</time>
      </trkpt>
      <trkpt lat="44.99923" lon="2.39586">
        <ele>646.84</ele>
        <time>2026-08-21T11:03:24.335Z</time>
      </trkpt>
      <trkpt lat="44.99926" lon="2.39591">
        <ele>646.88</ele>
        <time>2026-08-21T11:03:25.328Z</time>
      </trkpt>
      <trkpt lat="44.99929" lon="2.39595">
        <ele>646.89</ele>
        <time>2026-08-21T11:03:26.740Z</time>
      </trkpt>
      <trkpt lat="44.99931" lon="2.396">
        <ele>646.96</ele>
        <time>2026-08-21T11:03:27.313Z</time>
      </trkpt>
      <trkpt lat="44.99933" lon="2.39603">
        <ele>647.01</ele>
        <time>2026-08-21T11:03:28.340Z</time>
      </trkpt>
      <trkpt lat="44.99937" lon="2.3961">
        <ele>647.08</ele>
        <time>2026-08-21T11:03:28.778Z</time>
      </trkpt>
      <trkpt lat="44.99939" lon="2.39615">
        <ele>647.11</ele>
        <time>2026-08-21T11:03:30.307Z</time>
      </trkpt>
      <trkpt lat="44.99942" lon="2.3962">
        <ele>647.16</ele>
        <time>2026-08-21T11:03:31.297Z</time>
      </trkpt>
      <trkpt lat="44.99945" lon="2.39626">
        <ele>647.2</ele>
        <time>2026-08-21T11:03:32.321Z</time>
      </trkpt>
      <trkpt lat="44.99947" lon="2.3963">
        <ele>647.23</ele>
        <time>2026-08-21T11:03:33.662Z</time>
      </trkpt>
      <trkpt lat="44.99949" lon="2.39636">
        <ele>647.25</ele>
        <time>2026-08-21T11:03:34.662Z</time>
      </trkpt>
      <trkpt lat="44.99949" lon="2.39639">
        <ele>647.24</ele>
        <time>2026-08-21T11:03:35.665Z</time>
      </trkpt>
      <trkpt lat="44.99949" lon="2.39649">
        <ele>647.26</ele>
        <time>2026-08-21T11:03:36.668Z</time>
      </trkpt>
      <trkpt lat="44.99949" lon="2.39654">
        <ele>647.28</ele>
        <time>2026-08-21T11:03:37.671Z</time>
      </trkpt>
      <trkpt lat="44.99949" lon="2.39661">
        <ele>647.31</ele>
        <time>2026-08-21T11:03:38.673Z</time>
      </trkpt>
      <trkpt lat="44.99948" lon="2.39664">
        <ele>647.31</ele>
        <time>2026-08-21T11:03:39.676Z</time>
      </trkpt>
      <trkpt lat="44.99946" lon="2.39674">
        <ele>647.35</ele>
        <time>2026-08-21T11:03:40.679Z</time>
      </trkpt>
      <trkpt lat="44.99945" lon="2.3968">
        <ele>647.41</ele>
        <time>2026-08-21T11:03:41.681Z</time>
      </trkpt>
      <trkpt lat="44.99944" lon="2.39686">
        <ele>647.44</ele>
        <time>2026-08-21T11:03:42.684Z</time>
      </trkpt>
      <trkpt lat="44.99942" lon="2.39692">
        <ele>647.48</ele>
        <time>2026-08-21T11:03:43.688Z</time>
      </trkpt>
      <trkpt lat="44.99941" lon="2.39698">
        <ele>647.52</ele>
        <time>2026-08-21T11:03:44.689Z</time>
      </trkpt>
      <trkpt lat="44.99941" lon="2.39705">
        <ele>647.58</ele>
        <time>2026-08-21T11:03:45.693Z</time>
      </trkpt>
      <trkpt lat="44.99941" lon="2.39712">
        <ele>647.63</ele>
        <time>2026-08-21T11:03:46.693Z</time>
      </trkpt>
      <trkpt lat="44.99942" lon="2.39719">
        <ele>647.68</ele>
        <time>2026-08-21T11:03:47.696Z</time>
      </trkpt>
      <trkpt lat="44.99943" lon="2.39725">
        <ele>647.7</ele>
        <time>2026-08-21T11:03:48.770Z</time>
      </trkpt>
      <trkpt lat="44.99945" lon="2.39731">
        <ele>647.73</ele>
        <time>2026-08-21T11:03:49.701Z</time>
      </trkpt>
      <trkpt lat="44.99948" lon="2.39737">
        <ele>647.78</ele>
        <time>2026-08-21T11:03:50.739Z</time>
      </trkpt>
      <trkpt lat="44.9995" lon="2.39742">
        <ele>647.81</ele>
        <time>2026-08-21T11:03:51.266Z</time>
      </trkpt>
      <trkpt lat="44.99953" lon="2.39748">
        <ele>647.84</ele>
        <time>2026-08-21T11:03:52.748Z</time>
      </trkpt>
      <trkpt lat="44.99956" lon="2.39754">
        <ele>647.88</ele>
        <time>2026-08-21T11:03:53.712Z</time>
      </trkpt>
      <trkpt lat="44.99958" lon="2.39758">
        <ele>647.92</ele>
        <time>2026-08-21T11:03:54.715Z</time>
      </trkpt>
      <trkpt lat="44.99962" lon="2.39767">
        <ele>647.96</ele>
        <time>2026-08-21T11:03:55.715Z</time>
      </trkpt>
      <trkpt lat="44.99965" lon="2.39772">
        <ele>647.99</ele>
        <time>2026-08-21T11:03:56.719Z</time>
      </trkpt>
      <trkpt lat="44.99968" lon="2.39779">
        <ele>648.02</ele>
        <time>2026-08-21T11:03:57.722Z</time>
      </trkpt>
      <trkpt lat="44.9997" lon="2.39785">
        <ele>648.05</ele>
        <time>2026-08-21T11:03:58.723Z</time>
      </trkpt>
      <trkpt lat="44.99972" lon="2.39789">
        <ele>648.11</ele>
        <time>2026-08-21T11:03:59.727Z</time>
      </trkpt>
      <trkpt lat="44.99975" lon="2.39796">
        <ele>648.12</ele>
        <time>2026-08-21T11:04:00.728Z</time>
      </trkpt>
      <trkpt lat="44.99977" lon="2.39801">
        <ele>648.19</ele>
        <time>2026-08-21T11:04:01.731Z</time>
      </trkpt>
      <trkpt lat="44.9998" lon="2.39807">
        <ele>648.22</ele>
        <time>2026-08-21T11:04:02.734Z</time>
      </trkpt>
      <trkpt lat="44.99983" lon="2.39813">
        <ele>648.23</ele>
        <time>2026-08-21T11:04:03.795Z</time>
      </trkpt>
      <trkpt lat="44.99985" lon="2.39817">
        <ele>648.28</ele>
        <time>2026-08-21T11:04:04.736Z</time>
      </trkpt>
      <trkpt lat="44.99988" lon="2.39825">
        <ele>648.32</ele>
        <time>2026-08-21T11:04:05.739Z</time>
      </trkpt>
      <trkpt lat="44.9999" lon="2.3983">
        <ele>648.35</ele>
        <time>2026-08-21T11:04:06.740Z</time>
      </trkpt>
      <trkpt lat="44.99992" lon="2.39836">
        <ele>648.37</ele>
        <time>2026-08-21T11:04:07.740Z</time>
      </trkpt>
      <trkpt lat="44.99993" lon="2.39841">
        <ele>648.39</ele>
        <time>2026-08-21T11:04:08.353Z</time>
      </trkpt>
      <trkpt lat="44.99995" lon="2.3985">
        <ele>648.43</ele>
        <time>2026-08-21T11:04:09.746Z</time>
      </trkpt>
      <trkpt lat="44.99995" lon="2.39857">
        <ele>648.44</ele>
        <time>2026-08-21T11:04:10.745Z</time>
      </trkpt>
      <trkpt lat="44.99995" lon="2.39864">
        <ele>648.45</ele>
        <time>2026-08-21T11:04:11.748Z</time>
      </trkpt>
      <trkpt lat="44.99995" lon="2.39871">
        <ele>648.47</ele>
        <time>2026-08-21T11:04:12.749Z</time>
      </trkpt>
      <trkpt lat="44.99995" lon="2.39878">
        <ele>648.51</ele>
        <time>2026-08-21T11:04:13.751Z</time>
      </trkpt>
      <trkpt lat="44.99995" lon="2.39882">
        <ele>648.53</ele>
        <time>2026-08-21T11:04:14.755Z</time>
      </trkpt>
      <trkpt lat="44.99995" lon="2.39892">
        <ele>648.57</ele>
        <time>2026-08-21T11:04:15.757Z</time>
      </trkpt>
      <trkpt lat="44.99995" lon="2.39898">
        <ele>648.62</ele>
        <time>2026-08-21T11:04:16.325Z</time>
      </trkpt>
      <trkpt lat="44.99995" lon="2.39905">
        <ele>648.66</ele>
        <time>2026-08-21T11:04:17.762Z</time>
      </trkpt>
      <trkpt lat="44.99996" lon="2.39911">
        <ele>648.72</ele>
        <time>2026-08-21T11:04:18.427Z</time>
      </trkpt>
      <trkpt lat="44.99996" lon="2.39915">
        <ele>648.74</ele>
        <time>2026-08-21T11:04:19.453Z</time>
      </trkpt>
      <trkpt lat="44.99999" lon="2.39924">
        <ele>648.79</ele>
        <time>2026-08-21T11:04:20.422Z</time>
      </trkpt>
      <trkpt lat="45" lon="2.39929">
        <ele>648.87</ele>
        <time>2026-08-21T11:04:21.468Z</time>
      </trkpt>
      <trkpt lat="45.00003" lon="2.39935">
        <ele>648.9</ele>
        <time>2026-08-21T11:04:22.804Z</time>
      </trkpt>
      <trkpt lat="45.00006" lon="2.3994">
        <ele>648.93</ele>
        <time>2026-08-21T11:04:23.771Z</time>
      </trkpt>
      <trkpt lat="45.00009" lon="2.39944">
        <ele>649</ele>
        <time>2026-08-21T11:04:24.604Z</time>
      </trkpt>
      <trkpt lat="45.00015" lon="2.39949">
        <ele>649.04</ele>
        <time>2026-08-21T11:04:25.807Z</time>
      </trkpt>
      <trkpt lat="45.00018" lon="2.39952">
        <ele>649.08</ele>
        <time>2026-08-21T11:04:26.776Z</time>
      </trkpt>
      <trkpt lat="45.00023" lon="2.39955">
        <ele>649.14</ele>
        <time>2026-08-21T11:04:27.638Z</time>
      </trkpt>
      <trkpt lat="45.00029" lon="2.39957">
        <ele>649.19</ele>
        <time>2026-08-21T11:04:28.333Z</time>
      </trkpt>
      <trkpt lat="45.00033" lon="2.39959">
        <ele>649.25</ele>
        <time>2026-08-21T11:04:29.780Z</time>
      </trkpt>
      <trkpt lat="45.00037" lon="2.39959">
        <ele>649.28</ele>
        <time>2026-08-21T11:04:30.782Z</time>
      </trkpt>
      <trkpt lat="45.00041" lon="2.3996">
        <ele>649.3</ele>
        <time>2026-08-21T11:04:31.786Z</time>
      </trkpt>
      <trkpt lat="45.00044" lon="2.3996">
        <ele>649.28</ele>
        <time>2026-08-21T11:04:32.787Z</time>
      </trkpt>
      <trkpt lat="45.00046" lon="2.39959">
        <ele>649.29</ele>
        <time>2026-08-21T11:04:33.790Z</time>
      </trkpt>
      <trkpt lat="45.00047" lon="2.39956">
        <ele>649.28</ele>
        <time>2026-08-21T11:04:34.790Z</time>
      </trkpt>
      <trkpt lat="45.00046" lon="2.39953">
        <ele>649.29</ele>
        <time>2026-08-21T11:04:35.794Z</time>
      </trkpt>
      <trkpt lat="45.00045" lon="2.39949">
        <ele>649.32</ele>
        <time>2026-08-21T11:04:36.794Z</time>
      </trkpt>
      <trkpt lat="45.00045" lon="2.39946">
        <ele>649.34</ele>
        <time>2026-08-21T11:04:37.796Z</time>
      </trkpt>
      <trkpt lat="45.00045" lon="2.39942">
        <ele>649.31</ele>
        <time>2026-08-21T11:04:38.798Z</time>
      </trkpt>
      <trkpt lat="45.00046" lon="2.39939">
        <ele>649.33</ele>
        <time>2026-08-21T11:04:39.670Z</time>
      </trkpt>
      <trkpt lat="45.00047" lon="2.39936">
        <ele>649.4</ele>
        <time>2026-08-21T11:04:40.802Z</time>
      </trkpt>
      <trkpt lat="45.00047" lon="2.39934">
        <ele>649.45</ele>
        <time>2026-08-21T11:04:41.805Z</time>
      </trkpt>
      <trkpt lat="45.00047" lon="2.39931">
        <ele>649.49</ele>
        <time>2026-08-21T11:04:42.819Z</time>
      </trkpt>
      <trkpt lat="45.00048" lon="2.39928">
        <ele>649.61</ele>
        <time>2026-08-21T11:04:43.391Z</time>
      </trkpt>
      <trkpt lat="45.00048" lon="2.39925">
        <ele>649.71</ele>
        <time>2026-08-21T11:04:44.706Z</time>
      </trkpt>
      <trkpt lat="45.00049" lon="2.39921">
        <ele>649.8</ele>
        <time>2026-08-21T11:04:45.815Z</time>
      </trkpt>
      <trkpt lat="45.0005" lon="2.39917">
        <ele>649.94</ele>
        <time>2026-08-21T11:04:46.384Z</time>
      </trkpt>
      <trkpt lat="45.00051" lon="2.39914">
        <ele>650.1</ele>
        <time>2026-08-21T11:04:47.405Z</time>
      </trkpt>
      <trkpt lat="45.00052" lon="2.39911">
        <ele>650.24</ele>
        <time>2026-08-21T11:04:48.698Z</time>
      </trkpt>
      <trkpt lat="45.00053" lon="2.39907">
        <ele>650.43</ele>
        <time>2026-08-21T11:04:49.383Z</time>
      </trkpt>
      <trkpt lat="45.00054" lon="2.39904">
        <ele>650.62</ele>
        <time>2026-08-21T11:04:50.561Z</time>
      </trkpt>
      <trkpt lat="45.00055" lon="2.39901">
        <ele>650.74</ele>
        <time>2026-08-21T11:04:51.399Z</time>
      </trkpt>
      <trkpt lat="45.00057" lon="2.39897">
        <ele>650.99</ele>
        <time>2026-08-21T11:04:52.394Z</time>
      </trkpt>
      <trkpt lat="45.00058" lon="2.39894">
        <ele>651.2</ele>
        <time>2026-08-21T11:04:53.409Z</time>
      </trkpt>
      <trkpt lat="45.00058" lon="2.39892">
        <ele>651.44</ele>
        <time>2026-08-21T11:04:54.396Z</time>
      </trkpt>
      <trkpt lat="45.0006" lon="2.39889">
        <ele>651.74</ele>
        <time>2026-08-21T11:04:55.428Z</time>
      </trkpt>
      <trkpt lat="45.00061" lon="2.39886">
        <ele>652</ele>
        <time>2026-08-21T11:04:56.377Z</time>
      </trkpt>
      <trkpt lat="45.00061" lon="2.39884">
        <ele>652.25</ele>
        <time>2026-08-21T11:04:57.396Z</time>
      </trkpt>
      <trkpt lat="45.00062" lon="2.39882">
        <ele>652.46</ele>
        <time>2026-08-21T11:04:58.392Z</time>
      </trkpt>
      <trkpt lat="45.00063" lon="2.39879">
        <ele>652.78</ele>
        <time>2026-08-21T11:04:59.409Z</time>
      </trkpt>
      <trkpt lat="45.00063" lon="2.39876">
        <ele>653.07</ele>
        <time>2026-08-21T11:05:00.400Z</time>
      </trkpt>
      <trkpt lat="45.00065" lon="2.39874">
        <ele>653.36</ele>
        <time>2026-08-21T11:05:01.747Z</time>
      </trkpt>
      <trkpt lat="45.00065" lon="2.39871">
        <ele>653.72</ele>
        <time>2026-08-21T11:05:02.847Z</time>
      </trkpt>
      <trkpt lat="45.00067" lon="2.39868">
        <ele>654.06</ele>
        <time>2026-08-21T11:05:03.399Z</time>
      </trkpt>
      <trkpt lat="45.00068" lon="2.39865">
        <ele>654.43</ele>
        <time>2026-08-21T11:05:04.752Z</time>
      </trkpt>
      <trkpt lat="45.0007" lon="2.39863">
        <ele>654.78</ele>
        <time>2026-08-21T11:05:05.753Z</time>
      </trkpt>
      <trkpt lat="45.00073" lon="2.3986">
        <ele>655.19</ele>
        <time>2026-08-21T11:05:06.757Z</time>
      </trkpt>
      <trkpt lat="45.00075" lon="2.39858">
        <ele>655.57</ele>
        <time>2026-08-21T11:05:07.757Z</time>
      </trkpt>
      <trkpt lat="45.00077" lon="2.39857">
        <ele>655.98</ele>
        <time>2026-08-21T11:05:08.758Z</time>
      </trkpt>
      <trkpt lat="45.00079" lon="2.39855">
        <ele>656.35</ele>
        <time>2026-08-21T11:05:09.762Z</time>
      </trkpt>
      <trkpt lat="45.00081" lon="2.39853">
        <ele>656.65</ele>
        <time>2026-08-21T11:05:10.763Z</time>
      </trkpt>
      <trkpt lat="45.00083" lon="2.39852">
        <ele>657.06</ele>
        <time>2026-08-21T11:05:11.765Z</time>
      </trkpt>
      <trkpt lat="45.00084" lon="2.39851">
        <ele>657.49</ele>
        <time>2026-08-21T11:05:12.775Z</time>
      </trkpt>
      <trkpt lat="45.00086" lon="2.39849">
        <ele>658.01</ele>
        <time>2026-08-21T11:05:13.799Z</time>
      </trkpt>
      <trkpt lat="45.00087" lon="2.39847">
        <ele>658.43</ele>
        <time>2026-08-21T11:05:14.770Z</time>
      </trkpt>
      <trkpt lat="45.0009" lon="2.39842">
        <ele>659.31</ele>
        <time>2026-08-21T11:05:16.774Z</time>
      </trkpt>
      <trkpt lat="45.0009" lon="2.39841">
        <ele>659.67</ele>
        <time>2026-08-21T11:05:17.774Z</time>
      </trkpt>
      <trkpt lat="45.0009" lon="2.39838">
        <ele>660.03</ele>
        <time>2026-08-21T11:05:18.776Z</time>
      </trkpt>
      <trkpt lat="45.0009" lon="2.39836">
        <ele>660.31</ele>
        <time>2026-08-21T11:05:19.777Z</time>
      </trkpt>
      <trkpt lat="45.00089" lon="2.39833">
        <ele>660.64</ele>
        <time>2026-08-21T11:05:20.689Z</time>
      </trkpt>
      <trkpt lat="45.00089" lon="2.3983">
        <ele>660.92</ele>
        <time>2026-08-21T11:05:21.779Z</time>
      </trkpt>
      <trkpt lat="45.00089" lon="2.39827">
        <ele>661.24</ele>
        <time>2026-08-21T11:05:22.782Z</time>
      </trkpt>
      <trkpt lat="45.00089" lon="2.39824">
        <ele>661.51</ele>
        <time>2026-08-21T11:05:23.784Z</time>
      </trkpt>
      <trkpt lat="45.00088" lon="2.39821">
        <ele>661.76</ele>
        <time>2026-08-21T11:05:24.786Z</time>
      </trkpt>
      <trkpt lat="45.00088" lon="2.39818">
        <ele>661.97</ele>
        <time>2026-08-21T11:05:25.796Z</time>
      </trkpt>
      <trkpt lat="45.00088" lon="2.39815">
        <ele>662.2</ele>
        <time>2026-08-21T11:05:26.788Z</time>
      </trkpt>
      <trkpt lat="45.00088" lon="2.39811">
        <ele>662.44</ele>
        <time>2026-08-21T11:05:27.791Z</time>
      </trkpt>
      <trkpt lat="45.00089" lon="2.39808">
        <ele>662.68</ele>
        <time>2026-08-21T11:05:28.793Z</time>
      </trkpt>
      <trkpt lat="45.00089" lon="2.39804">
        <ele>662.94</ele>
        <time>2026-08-21T11:05:29.680Z</time>
      </trkpt>
      <trkpt lat="45.00089" lon="2.39801">
        <ele>663.13</ele>
        <time>2026-08-21T11:05:30.797Z</time>
      </trkpt>
      <trkpt lat="45.0009" lon="2.39798">
        <ele>663.34</ele>
        <time>2026-08-21T11:05:31.497Z</time>
      </trkpt>
      <trkpt lat="45.0009" lon="2.39796">
        <ele>663.45</ele>
        <time>2026-08-21T11:05:32.799Z</time>
      </trkpt>
      <trkpt lat="45.00091" lon="2.39793">
        <ele>663.58</ele>
        <time>2026-08-21T11:05:33.800Z</time>
      </trkpt>
      <trkpt lat="45.00092" lon="2.3979">
        <ele>663.73</ele>
        <time>2026-08-21T11:05:34.802Z</time>
      </trkpt>
      <trkpt lat="45.00092" lon="2.39787">
        <ele>663.88</ele>
        <time>2026-08-21T11:05:35.803Z</time>
      </trkpt>
      <trkpt lat="45.00093" lon="2.39784">
        <ele>664.05</ele>
        <time>2026-08-21T11:05:36.805Z</time>
      </trkpt>
      <trkpt lat="45.00093" lon="2.39781">
        <ele>664.18</ele>
        <time>2026-08-21T11:05:37.807Z</time>
      </trkpt>
      <trkpt lat="45.00094" lon="2.39778">
        <ele>664.34</ele>
        <time>2026-08-21T11:05:38.807Z</time>
      </trkpt>
      <trkpt lat="45.00095" lon="2.39776">
        <ele>664.47</ele>
        <time>2026-08-21T11:05:39.811Z</time>
      </trkpt>
      <trkpt lat="45.00095" lon="2.39773">
        <ele>664.63</ele>
        <time>2026-08-21T11:05:40.815Z</time>
      </trkpt>
      <trkpt lat="45.00096" lon="2.39771">
        <ele>664.76</ele>
        <time>2026-08-21T11:05:41.408Z</time>
      </trkpt>
      <trkpt lat="45.00097" lon="2.39769">
        <ele>664.89</ele>
        <time>2026-08-21T11:05:42.812Z</time>
      </trkpt>
      <trkpt lat="45.00098" lon="2.39766">
        <ele>665.04</ele>
        <time>2026-08-21T11:05:43.813Z</time>
      </trkpt>
      <trkpt lat="45.00098" lon="2.39763">
        <ele>665.21</ele>
        <time>2026-08-21T11:05:44.815Z</time>
      </trkpt>
      <trkpt lat="45.00099" lon="2.39761">
        <ele>665.39</ele>
        <time>2026-08-21T11:05:45.815Z</time>
      </trkpt>
      <trkpt lat="45.001" lon="2.39758">
        <ele>665.57</ele>
        <time>2026-08-21T11:05:46.393Z</time>
      </trkpt>
      <trkpt lat="45.00101" lon="2.39755">
        <ele>665.75</ele>
        <time>2026-08-21T11:05:47.890Z</time>
      </trkpt>
      <trkpt lat="45.00102" lon="2.39752">
        <ele>665.93</ele>
        <time>2026-08-21T11:05:48.824Z</time>
      </trkpt>
      <trkpt lat="45.00103" lon="2.39749">
        <ele>666.09</ele>
        <time>2026-08-21T11:05:49.899Z</time>
      </trkpt>
      <trkpt lat="45.00104" lon="2.39746">
        <ele>666.26</ele>
        <time>2026-08-21T11:05:50.824Z</time>
      </trkpt>
      <trkpt lat="45.00105" lon="2.39743">
        <ele>666.43</ele>
        <time>2026-08-21T11:05:51.824Z</time>
      </trkpt>
      <trkpt lat="45.00106" lon="2.39739">
        <ele>666.61</ele>
        <time>2026-08-21T11:05:52.419Z</time>
      </trkpt>
      <trkpt lat="45.00107" lon="2.39736">
        <ele>666.72</ele>
        <time>2026-08-21T11:05:53.828Z</time>
      </trkpt>
      <trkpt lat="45.00108" lon="2.39734">
        <ele>666.87</ele>
        <time>2026-08-21T11:05:54.396Z</time>
      </trkpt>
      <trkpt lat="45.00109" lon="2.39731">
        <ele>667.04</ele>
        <time>2026-08-21T11:05:55.389Z</time>
      </trkpt>
      <trkpt lat="45.0011" lon="2.39728">
        <ele>667.25</ele>
        <time>2026-08-21T11:05:56.831Z</time>
      </trkpt>
      <trkpt lat="45.0011" lon="2.39726">
        <ele>667.45</ele>
        <time>2026-08-21T11:05:56.920Z</time>
      </trkpt>
      <trkpt lat="45.00111" lon="2.39723">
        <ele>667.66</ele>
        <time>2026-08-21T11:05:58.900Z</time>
      </trkpt>
      <trkpt lat="45.00112" lon="2.3972">
        <ele>667.81</ele>
        <time>2026-08-21T11:05:59.836Z</time>
      </trkpt>
      <trkpt lat="45.00113" lon="2.39717">
        <ele>667.99</ele>
        <time>2026-08-21T11:06:00.436Z</time>
      </trkpt>
      <trkpt lat="45.00113" lon="2.39714">
        <ele>668.16</ele>
        <time>2026-08-21T11:06:01.389Z</time>
      </trkpt>
      <trkpt lat="45.00114" lon="2.39711">
        <ele>668.34</ele>
        <time>2026-08-21T11:06:02.383Z</time>
      </trkpt>
      <trkpt lat="45.00115" lon="2.39708">
        <ele>668.54</ele>
        <time>2026-08-21T11:06:03.905Z</time>
      </trkpt>
      <trkpt lat="45.00115" lon="2.39705">
        <ele>668.75</ele>
        <time>2026-08-21T11:06:03.912Z</time>
      </trkpt>
      <trkpt lat="45.00116" lon="2.39702">
        <ele>668.96</ele>
        <time>2026-08-21T11:06:05.412Z</time>
      </trkpt>
      <trkpt lat="45.00117" lon="2.39699">
        <ele>669.17</ele>
        <time>2026-08-21T11:06:06.405Z</time>
      </trkpt>
      <trkpt lat="45.00118" lon="2.39696">
        <ele>669.36</ele>
        <time>2026-08-21T11:06:07.842Z</time>
      </trkpt>
      <trkpt lat="45.00119" lon="2.39694">
        <ele>669.59</ele>
        <time>2026-08-21T11:06:08.376Z</time>
      </trkpt>
      <trkpt lat="45.00119" lon="2.39691">
        <ele>669.81</ele>
        <time>2026-08-21T11:06:09.399Z</time>
      </trkpt>
      <trkpt lat="45.00121" lon="2.39689">
        <ele>670.05</ele>
        <time>2026-08-21T11:06:10.867Z</time>
      </trkpt>
      <trkpt lat="45.00122" lon="2.39686">
        <ele>670.24</ele>
        <time>2026-08-21T11:06:11.847Z</time>
      </trkpt>
      <trkpt lat="45.00123" lon="2.39683">
        <ele>670.45</ele>
        <time>2026-08-21T11:06:12.914Z</time>
      </trkpt>
      <trkpt lat="45.00124" lon="2.39681">
        <ele>670.69</ele>
        <time>2026-08-21T11:06:13.848Z</time>
      </trkpt>
      <trkpt lat="45.00124" lon="2.39678">
        <ele>670.9</ele>
        <time>2026-08-21T11:06:13.940Z</time>
      </trkpt>
      <trkpt lat="45.00126" lon="2.39675">
        <ele>671.15</ele>
        <time>2026-08-21T11:06:14.920Z</time>
      </trkpt>
      <trkpt lat="45.00126" lon="2.39672">
        <ele>671.4</ele>
        <time>2026-08-21T11:06:16.899Z</time>
      </trkpt>
      <trkpt lat="45.00127" lon="2.39669">
        <ele>671.6</ele>
        <time>2026-08-21T11:06:17.926Z</time>
      </trkpt>
      <trkpt lat="45.00127" lon="2.39666">
        <ele>671.8</ele>
        <time>2026-08-21T11:06:18.852Z</time>
      </trkpt>
      <trkpt lat="45.00127" lon="2.39662">
        <ele>672.03</ele>
        <time>2026-08-21T11:06:19.748Z</time>
      </trkpt>
      <trkpt lat="45.00128" lon="2.39659">
        <ele>672.26</ele>
        <time>2026-08-21T11:06:19.930Z</time>
      </trkpt>
      <trkpt lat="45.00128" lon="2.39657">
        <ele>672.53</ele>
        <time>2026-08-21T11:06:20.938Z</time>
      </trkpt>
      <trkpt lat="45.00129" lon="2.39653">
        <ele>672.77</ele>
        <time>2026-08-21T11:06:22.902Z</time>
      </trkpt>
      <trkpt lat="45.00129" lon="2.39649">
        <ele>673</ele>
        <time>2026-08-21T11:06:22.933Z</time>
      </trkpt>
      <trkpt lat="45.00129" lon="2.39647">
        <ele>673.29</ele>
        <time>2026-08-21T11:06:24.858Z</time>
      </trkpt>
      <trkpt lat="45.00129" lon="2.39644">
        <ele>673.52</ele>
        <time>2026-08-21T11:06:24.956Z</time>
      </trkpt>
      <trkpt lat="45.0013" lon="2.39641">
        <ele>673.78</ele>
        <time>2026-08-21T11:06:25.935Z</time>
      </trkpt>
      <trkpt lat="45.00129" lon="2.39638">
        <ele>674.03</ele>
        <time>2026-08-21T11:06:26.954Z</time>
      </trkpt>
      <trkpt lat="45.00129" lon="2.39636">
        <ele>674.26</ele>
        <time>2026-08-21T11:06:28.745Z</time>
      </trkpt>
      <trkpt lat="45.00127" lon="2.39632">
        <ele>674.51</ele>
        <time>2026-08-21T11:06:29.866Z</time>
      </trkpt>
      <trkpt lat="45.00127" lon="2.39629">
        <ele>674.77</ele>
        <time>2026-08-21T11:06:30.867Z</time>
      </trkpt>
      <trkpt lat="45.00126" lon="2.39626">
        <ele>675.02</ele>
        <time>2026-08-21T11:06:31.870Z</time>
      </trkpt>
      <trkpt lat="45.00125" lon="2.39623">
        <ele>675.21</ele>
        <time>2026-08-21T11:06:32.871Z</time>
      </trkpt>
      <trkpt lat="45.00124" lon="2.3962">
        <ele>675.37</ele>
        <time>2026-08-21T11:06:33.872Z</time>
      </trkpt>
      <trkpt lat="45.00124" lon="2.39617">
        <ele>675.55</ele>
        <time>2026-08-21T11:06:34.876Z</time>
      </trkpt>
      <trkpt lat="45.00123" lon="2.39614">
        <ele>675.78</ele>
        <time>2026-08-21T11:06:35.877Z</time>
      </trkpt>
      <trkpt lat="45.00123" lon="2.3961">
        <ele>675.95</ele>
        <time>2026-08-21T11:06:36.878Z</time>
      </trkpt>
      <trkpt lat="45.00123" lon="2.39607">
        <ele>676.15</ele>
        <time>2026-08-21T11:06:37.789Z</time>
      </trkpt>
      <trkpt lat="45.00124" lon="2.39604">
        <ele>676.32</ele>
        <time>2026-08-21T11:06:37.978Z</time>
      </trkpt>
      <trkpt lat="45.00125" lon="2.396">
        <ele>676.5</ele>
        <time>2026-08-21T11:06:39.949Z</time>
      </trkpt>
      <trkpt lat="45.00126" lon="2.39597">
        <ele>676.68</ele>
        <time>2026-08-21T11:06:40.885Z</time>
      </trkpt>
      <trkpt lat="45.00128" lon="2.39595">
        <ele>676.87</ele>
        <time>2026-08-21T11:06:41.884Z</time>
      </trkpt>
      <trkpt lat="45.00129" lon="2.39592">
        <ele>677.06</ele>
        <time>2026-08-21T11:06:42.887Z</time>
      </trkpt>
      <trkpt lat="45.00131" lon="2.3959">
        <ele>677.25</ele>
        <time>2026-08-21T11:06:43.888Z</time>
      </trkpt>
      <trkpt lat="45.00132" lon="2.39587">
        <ele>677.46</ele>
        <time>2026-08-21T11:06:44.891Z</time>
      </trkpt>
      <trkpt lat="45.00134" lon="2.39585">
        <ele>677.67</ele>
        <time>2026-08-21T11:06:45.891Z</time>
      </trkpt>
      <trkpt lat="45.00135" lon="2.39582">
        <ele>677.87</ele>
        <time>2026-08-21T11:06:45.979Z</time>
      </trkpt>
      <trkpt lat="45.00137" lon="2.39579">
        <ele>678.09</ele>
        <time>2026-08-21T11:06:46.967Z</time>
      </trkpt>
      <trkpt lat="45.00138" lon="2.39577">
        <ele>678.3</ele>
        <time>2026-08-21T11:06:48.895Z</time>
      </trkpt>
      <trkpt lat="45.00139" lon="2.39574">
        <ele>678.48</ele>
        <time>2026-08-21T11:06:49.900Z</time>
      </trkpt>
      <trkpt lat="45.00141" lon="2.39572">
        <ele>678.69</ele>
        <time>2026-08-21T11:06:50.898Z</time>
      </trkpt>
      <trkpt lat="45.00142" lon="2.39569">
        <ele>678.92</ele>
        <time>2026-08-21T11:06:51.901Z</time>
      </trkpt>
      <trkpt lat="45.00143" lon="2.39567">
        <ele>679.13</ele>
        <time>2026-08-21T11:06:52.900Z</time>
      </trkpt>
      <trkpt lat="45.00144" lon="2.39564">
        <ele>679.33</ele>
        <time>2026-08-21T11:06:52.973Z</time>
      </trkpt>
      <trkpt lat="45.00145" lon="2.39561">
        <ele>679.53</ele>
        <time>2026-08-21T11:06:54.905Z</time>
      </trkpt>
      <trkpt lat="45.00147" lon="2.39558">
        <ele>679.76</ele>
        <time>2026-08-21T11:06:55.905Z</time>
      </trkpt>
      <trkpt lat="45.00148" lon="2.39555">
        <ele>679.99</ele>
        <time>2026-08-21T11:06:56.925Z</time>
      </trkpt>
      <trkpt lat="45.0015" lon="2.39553">
        <ele>680.22</ele>
        <time>2026-08-21T11:06:57.563Z</time>
      </trkpt>
      <trkpt lat="45.0015" lon="2.3955">
        <ele>680.43</ele>
        <time>2026-08-21T11:06:58.682Z</time>
      </trkpt>
      <trkpt lat="45.00151" lon="2.39547">
        <ele>680.65</ele>
        <time>2026-08-21T11:06:59.911Z</time>
      </trkpt>
      <trkpt lat="45.00152" lon="2.39544">
        <ele>680.84</ele>
        <time>2026-08-21T11:07:00.912Z</time>
      </trkpt>
      <trkpt lat="45.00153" lon="2.39541">
        <ele>681.06</ele>
        <time>2026-08-21T11:07:01.913Z</time>
      </trkpt>
      <trkpt lat="45.00154" lon="2.39539">
        <ele>681.27</ele>
        <time>2026-08-21T11:07:02.915Z</time>
      </trkpt>
      <trkpt lat="45.00155" lon="2.39535">
        <ele>681.48</ele>
        <time>2026-08-21T11:07:03.916Z</time>
      </trkpt>
      <trkpt lat="45.00156" lon="2.39532">
        <ele>681.69</ele>
        <time>2026-08-21T11:07:04.811Z</time>
      </trkpt>
      <trkpt lat="45.00157" lon="2.39529">
        <ele>681.87</ele>
        <time>2026-08-21T11:07:05.919Z</time>
      </trkpt>
      <trkpt lat="45.00158" lon="2.39525">
        <ele>682.09</ele>
        <time>2026-08-21T11:07:06.922Z</time>
      </trkpt>
      <trkpt lat="45.00158" lon="2.39523">
        <ele>682.32</ele>
        <time>2026-08-21T11:07:07.923Z</time>
      </trkpt>
      <trkpt lat="45.0016" lon="2.39519">
        <ele>682.53</ele>
        <time>2026-08-21T11:07:08.924Z</time>
      </trkpt>
      <trkpt lat="45.0016" lon="2.39516">
        <ele>682.74</ele>
        <time>2026-08-21T11:07:08.995Z</time>
      </trkpt>
      <trkpt lat="45.0016" lon="2.39513">
        <ele>682.93</ele>
        <time>2026-08-21T11:07:10.927Z</time>
      </trkpt>
      <trkpt lat="45.00161" lon="2.3951">
        <ele>683.13</ele>
        <time>2026-08-21T11:07:11.926Z</time>
      </trkpt>
      <trkpt lat="45.00162" lon="2.39507">
        <ele>683.31</ele>
        <time>2026-08-21T11:07:12.929Z</time>
      </trkpt>
      <trkpt lat="45.00163" lon="2.39504">
        <ele>683.48</ele>
        <time>2026-08-21T11:07:13.929Z</time>
      </trkpt>
      <trkpt lat="45.00164" lon="2.39501">
        <ele>683.67</ele>
        <time>2026-08-21T11:07:14.929Z</time>
      </trkpt>
      <trkpt lat="45.00166" lon="2.39499">
        <ele>683.87</ele>
        <time>2026-08-21T11:07:15.932Z</time>
      </trkpt>
      <trkpt lat="45.00167" lon="2.39497">
        <ele>684.06</ele>
        <time>2026-08-21T11:07:16.932Z</time>
      </trkpt>
      <trkpt lat="45.00168" lon="2.39495">
        <ele>684.25</ele>
        <time>2026-08-21T11:07:17.934Z</time>
      </trkpt>
      <trkpt lat="45.00172" lon="2.39491">
        <ele>684.67</ele>
        <time>2026-08-21T11:07:19.935Z</time>
      </trkpt>
      <trkpt lat="45.00173" lon="2.39491">
        <ele>684.88</ele>
        <time>2026-08-21T11:07:20.935Z</time>
      </trkpt>
      <trkpt lat="45.00175" lon="2.3949">
        <ele>685.1</ele>
        <time>2026-08-21T11:07:21.936Z</time>
      </trkpt>
      <trkpt lat="45.00176" lon="2.3949">
        <ele>685.33</ele>
        <time>2026-08-21T11:07:22.937Z</time>
      </trkpt>
      <trkpt lat="45.00179" lon="2.3949">
        <ele>685.54</ele>
        <time>2026-08-21T11:07:23.937Z</time>
      </trkpt>
      <trkpt lat="45.0018" lon="2.39491">
        <ele>685.76</ele>
        <time>2026-08-21T11:07:24.944Z</time>
      </trkpt>
      <trkpt lat="45.00182" lon="2.39492">
        <ele>685.99</ele>
        <time>2026-08-21T11:07:25.940Z</time>
      </trkpt>
      <trkpt lat="45.00184" lon="2.39493">
        <ele>686.25</ele>
        <time>2026-08-21T11:07:26.941Z</time>
      </trkpt>
      <trkpt lat="45.00187" lon="2.39496">
        <ele>686.47</ele>
        <time>2026-08-21T11:07:27.944Z</time>
      </trkpt>
      <trkpt lat="45.00188" lon="2.39498">
        <ele>686.74</ele>
        <time>2026-08-21T11:07:28.945Z</time>
      </trkpt>
      <trkpt lat="45.0019" lon="2.395">
        <ele>686.98</ele>
        <time>2026-08-21T11:07:29.945Z</time>
      </trkpt>
      <trkpt lat="45.00191" lon="2.39503">
        <ele>687.25</ele>
        <time>2026-08-21T11:07:30.947Z</time>
      </trkpt>
      <trkpt lat="45.00193" lon="2.39505">
        <ele>687.54</ele>
        <time>2026-08-21T11:07:31.948Z</time>
      </trkpt>
      <trkpt lat="45.00194" lon="2.39508">
        <ele>687.79</ele>
        <time>2026-08-21T11:07:32.949Z</time>
      </trkpt>
      <trkpt lat="45.00196" lon="2.39511">
        <ele>688.02</ele>
        <time>2026-08-21T11:07:33.955Z</time>
      </trkpt>
      <trkpt lat="45.00197" lon="2.39514">
        <ele>688.29</ele>
        <time>2026-08-21T11:07:34.955Z</time>
      </trkpt>
      <trkpt lat="45.00198" lon="2.39516">
        <ele>688.53</ele>
        <time>2026-08-21T11:07:35.953Z</time>
      </trkpt>
      <trkpt lat="45.002" lon="2.39519">
        <ele>688.77</ele>
        <time>2026-08-21T11:07:36.954Z</time>
      </trkpt>
      <trkpt lat="45.00202" lon="2.39522">
        <ele>689.08</ele>
        <time>2026-08-21T11:07:37.956Z</time>
      </trkpt>
      <trkpt lat="45.00204" lon="2.39524">
        <ele>689.35</ele>
        <time>2026-08-21T11:07:38.958Z</time>
      </trkpt>
      <trkpt lat="45.00205" lon="2.39527">
        <ele>689.6</ele>
        <time>2026-08-21T11:07:39.959Z</time>
      </trkpt>
      <trkpt lat="45.00207" lon="2.39529">
        <ele>689.85</ele>
        <time>2026-08-21T11:07:40.964Z</time>
      </trkpt>
      <trkpt lat="45.00209" lon="2.39532">
        <ele>690.12</ele>
        <time>2026-08-21T11:07:41.961Z</time>
      </trkpt>
      <trkpt lat="45.0021" lon="2.39534">
        <ele>690.37</ele>
        <time>2026-08-21T11:07:42.968Z</time>
      </trkpt>
      <trkpt lat="45.00212" lon="2.39536">
        <ele>690.64</ele>
        <time>2026-08-21T11:07:43.965Z</time>
      </trkpt>
      <trkpt lat="45.00213" lon="2.39538">
        <ele>690.92</ele>
        <time>2026-08-21T11:07:44.066Z</time>
      </trkpt>
      <trkpt lat="45.00215" lon="2.39541">
        <ele>691.18</ele>
        <time>2026-08-21T11:07:45.971Z</time>
      </trkpt>
      <trkpt lat="45.00216" lon="2.39544">
        <ele>691.42</ele>
        <time>2026-08-21T11:07:46.061Z</time>
      </trkpt>
      <trkpt lat="45.00217" lon="2.39546">
        <ele>691.69</ele>
        <time>2026-08-21T11:07:47.974Z</time>
      </trkpt>
      <trkpt lat="45.00219" lon="2.39549">
        <ele>691.93</ele>
        <time>2026-08-21T11:07:48.290Z</time>
      </trkpt>
      <trkpt lat="45.0022" lon="2.39551">
        <ele>692.15</ele>
        <time>2026-08-21T11:07:49.977Z</time>
      </trkpt>
      <trkpt lat="45.00222" lon="2.39554">
        <ele>692.33</ele>
        <time>2026-08-21T11:07:50.077Z</time>
      </trkpt>
      <trkpt lat="45.00224" lon="2.39556">
        <ele>692.58</ele>
        <time>2026-08-21T11:07:51.979Z</time>
      </trkpt>
      <trkpt lat="45.00225" lon="2.39559">
        <ele>692.82</ele>
        <time>2026-08-21T11:07:52.069Z</time>
      </trkpt>
      <trkpt lat="45.00226" lon="2.39561">
        <ele>693.04</ele>
        <time>2026-08-21T11:07:53.066Z</time>
      </trkpt>
      <trkpt lat="45.00227" lon="2.39563">
        <ele>693.24</ele>
        <time>2026-08-21T11:07:54.077Z</time>
      </trkpt>
      <trkpt lat="45.00231" lon="2.39569">
        <ele>693.43</ele>
        <time>2026-08-21T11:07:56.051Z</time>
      </trkpt>
      <trkpt lat="45.00232" lon="2.39571">
        <ele>693.79</ele>
        <time>2026-08-21T11:07:58.061Z</time>
      </trkpt>
      <trkpt lat="45.00234" lon="2.39573">
        <ele>694.02</ele>
        <time>2026-08-21T11:07:58.065Z</time>
      </trkpt>
      <trkpt lat="45.00236" lon="2.39576">
        <ele>694.29</ele>
        <time>2026-08-21T11:07:59.067Z</time>
      </trkpt>
      <trkpt lat="45.00238" lon="2.39578">
        <ele>694.52</ele>
        <time>2026-08-21T11:08:00.086Z</time>
      </trkpt>
      <trkpt lat="45.0024" lon="2.39581">
        <ele>694.73</ele>
        <time>2026-08-21T11:08:01.944Z</time>
      </trkpt>
      <trkpt lat="45.00241" lon="2.39582">
        <ele>694.93</ele>
        <time>2026-08-21T11:08:02.072Z</time>
      </trkpt>
      <trkpt lat="45.00243" lon="2.39582">
        <ele>695.17</ele>
        <time>2026-08-21T11:08:03.078Z</time>
      </trkpt>
      <trkpt lat="45.00247" lon="2.3958">
        <ele>695.39</ele>
        <time>2026-08-21T11:08:05.063Z</time>
      </trkpt>
      <trkpt lat="45.00249" lon="2.39577">
        <ele>695.73</ele>
        <time>2026-08-21T11:08:05.997Z</time>
      </trkpt>
      <trkpt lat="45.00251" lon="2.39575">
        <ele>695.91</ele>
        <time>2026-08-21T11:08:06.999Z</time>
      </trkpt>
      <trkpt lat="45.00253" lon="2.39572">
        <ele>696.08</ele>
        <time>2026-08-21T11:08:08.001Z</time>
      </trkpt>
      <trkpt lat="45.00254" lon="2.3957">
        <ele>696.27</ele>
        <time>2026-08-21T11:08:09.003Z</time>
      </trkpt>
      <trkpt lat="45.00256" lon="2.39568">
        <ele>696.46</ele>
        <time>2026-08-21T11:08:10.005Z</time>
      </trkpt>
      <trkpt lat="45.00257" lon="2.39566">
        <ele>696.67</ele>
        <time>2026-08-21T11:08:10.886Z</time>
      </trkpt>
      <trkpt lat="45.0026" lon="2.39562">
        <ele>696.95</ele>
        <time>2026-08-21T11:08:13.073Z</time>
      </trkpt>
      <trkpt lat="45.00264" lon="2.39557">
        <ele>697.47</ele>
        <time>2026-08-21T11:08:15.049Z</time>
      </trkpt>
      <trkpt lat="45.00265" lon="2.39555">
        <ele>697.99</ele>
        <time>2026-08-21T11:08:16.019Z</time>
      </trkpt>
      <trkpt lat="45.00267" lon="2.39552">
        <ele>698.3</ele>
        <time>2026-08-21T11:08:16.931Z</time>
      </trkpt>
      <trkpt lat="45.00269" lon="2.3955">
        <ele>698.72</ele>
        <time>2026-08-21T11:08:18.015Z</time>
      </trkpt>
      <trkpt lat="45.0027" lon="2.39548">
        <ele>699.13</ele>
        <time>2026-08-21T11:08:19.019Z</time>
      </trkpt>
      <trkpt lat="45.00271" lon="2.39546">
        <ele>699.53</ele>
        <time>2026-08-21T11:08:20.020Z</time>
      </trkpt>
      <trkpt lat="45.00273" lon="2.39544">
        <ele>699.97</ele>
        <time>2026-08-21T11:08:20.767Z</time>
      </trkpt>
      <trkpt lat="45.00275" lon="2.39542">
        <ele>700.25</ele>
        <time>2026-08-21T11:08:21.851Z</time>
      </trkpt>
      <trkpt lat="45.00277" lon="2.39541">
        <ele>700.62</ele>
        <time>2026-08-21T11:08:23.023Z</time>
      </trkpt>
      <trkpt lat="45.00279" lon="2.39539">
        <ele>701.09</ele>
        <time>2026-08-21T11:08:23.928Z</time>
      </trkpt>
      <trkpt lat="45.00281" lon="2.39539">
        <ele>701.58</ele>
        <time>2026-08-21T11:08:24.612Z</time>
      </trkpt>
      <trkpt lat="45.00283" lon="2.39539">
        <ele>702.08</ele>
        <time>2026-08-21T11:08:26.028Z</time>
      </trkpt>
      <trkpt lat="45.00285" lon="2.39538">
        <ele>702.63</ele>
        <time>2026-08-21T11:08:27.031Z</time>
      </trkpt>
      <trkpt lat="45.00288" lon="2.39538">
        <ele>703.17</ele>
        <time>2026-08-21T11:08:27.826Z</time>
      </trkpt>
      <trkpt lat="45.0029" lon="2.39537">
        <ele>703.65</ele>
        <time>2026-08-21T11:08:28.090Z</time>
      </trkpt>
      <trkpt lat="45.00292" lon="2.39535">
        <ele>704.08</ele>
        <time>2026-08-21T11:08:30.039Z</time>
      </trkpt>
      <trkpt lat="45.00294" lon="2.39534">
        <ele>704.5</ele>
        <time>2026-08-21T11:08:30.911Z</time>
      </trkpt>
      <trkpt lat="45.00296" lon="2.39532">
        <ele>704.93</ele>
        <time>2026-08-21T11:08:32.038Z</time>
      </trkpt>
      <trkpt lat="45.00298" lon="2.39529">
        <ele>705.33</ele>
        <time>2026-08-21T11:08:33.037Z</time>
      </trkpt>
      <trkpt lat="45.00299" lon="2.39527">
        <ele>705.71</ele>
        <time>2026-08-21T11:08:34.039Z</time>
      </trkpt>
      <trkpt lat="45.00301" lon="2.39524">
        <ele>706.12</ele>
        <time>2026-08-21T11:08:34.940Z</time>
      </trkpt>
      <trkpt lat="45.00302" lon="2.39522">
        <ele>706.49</ele>
        <time>2026-08-21T11:08:35.445Z</time>
      </trkpt>
      <trkpt lat="45.00303" lon="2.3952">
        <ele>706.81</ele>
        <time>2026-08-21T11:08:37.046Z</time>
      </trkpt>
      <trkpt lat="45.00304" lon="2.39517">
        <ele>707.08</ele>
        <time>2026-08-21T11:08:38.050Z</time>
      </trkpt>
      <trkpt lat="45.00306" lon="2.39514">
        <ele>707.4</ele>
        <time>2026-08-21T11:08:39.045Z</time>
      </trkpt>
      <trkpt lat="45.00307" lon="2.39511">
        <ele>707.69</ele>
        <time>2026-08-21T11:08:40.046Z</time>
      </trkpt>
      <trkpt lat="45.00308" lon="2.39508">
        <ele>707.94</ele>
        <time>2026-08-21T11:08:41.049Z</time>
      </trkpt>
      <trkpt lat="45.00309" lon="2.39505">
        <ele>708.25</ele>
        <time>2026-08-21T11:08:42.049Z</time>
      </trkpt>
      <trkpt lat="45.00309" lon="2.39501">
        <ele>708.46</ele>
        <time>2026-08-21T11:08:43.050Z</time>
      </trkpt>
      <trkpt lat="45.00309" lon="2.39498">
        <ele>708.7</ele>
        <time>2026-08-21T11:08:43.949Z</time>
      </trkpt>
      <trkpt lat="45.00309" lon="2.39495">
        <ele>708.94</ele>
        <time>2026-08-21T11:08:44.890Z</time>
      </trkpt>
      <trkpt lat="45.00309" lon="2.39491">
        <ele>709.15</ele>
        <time>2026-08-21T11:08:46.055Z</time>
      </trkpt>
      <trkpt lat="45.00308" lon="2.39488">
        <ele>709.49</ele>
        <time>2026-08-21T11:08:47.058Z</time>
      </trkpt>
      <trkpt lat="45.00307" lon="2.39484">
        <ele>709.67</ele>
        <time>2026-08-21T11:08:48.058Z</time>
      </trkpt>
      <trkpt lat="45.00306" lon="2.39481">
        <ele>709.86</ele>
        <time>2026-08-21T11:08:49.060Z</time>
      </trkpt>
      <trkpt lat="45.00305" lon="2.39477">
        <ele>710</ele>
        <time>2026-08-21T11:08:49.597Z</time>
      </trkpt>
      <trkpt lat="45.00304" lon="2.39473">
        <ele>710.18</ele>
        <time>2026-08-21T11:08:50.776Z</time>
      </trkpt>
      <trkpt lat="45.00304" lon="2.3947">
        <ele>710.3</ele>
        <time>2026-08-21T11:08:52.070Z</time>
      </trkpt>
      <trkpt lat="45.00304" lon="2.39466">
        <ele>710.48</ele>
        <time>2026-08-21T11:08:52.633Z</time>
      </trkpt>
      <trkpt lat="45.00304" lon="2.39462">
        <ele>710.58</ele>
        <time>2026-08-21T11:08:53.617Z</time>
      </trkpt>
      <trkpt lat="45.00303" lon="2.39458">
        <ele>710.72</ele>
        <time>2026-08-21T11:08:55.075Z</time>
      </trkpt>
      <trkpt lat="45.00303" lon="2.39454">
        <ele>710.86</ele>
        <time>2026-08-21T11:08:56.077Z</time>
      </trkpt>
      <trkpt lat="45.00303" lon="2.3945">
        <ele>711.01</ele>
        <time>2026-08-21T11:08:57.073Z</time>
      </trkpt>
      <trkpt lat="45.00304" lon="2.39446">
        <ele>711.17</ele>
        <time>2026-08-21T11:08:58.081Z</time>
      </trkpt>
      <trkpt lat="45.00305" lon="2.39443">
        <ele>711.36</ele>
        <time>2026-08-21T11:08:59.085Z</time>
      </trkpt>
      <trkpt lat="45.00307" lon="2.3944">
        <ele>711.49</ele>
        <time>2026-08-21T11:09:00.087Z</time>
      </trkpt>
      <trkpt lat="45.00309" lon="2.39437">
        <ele>711.65</ele>
        <time>2026-08-21T11:09:01.089Z</time>
      </trkpt>
      <trkpt lat="45.00311" lon="2.39435">
        <ele>711.79</ele>
        <time>2026-08-21T11:09:01.942Z</time>
      </trkpt>
      <trkpt lat="45.00312" lon="2.39432">
        <ele>712</ele>
        <time>2026-08-21T11:09:03.093Z</time>
      </trkpt>
      <trkpt lat="45.00314" lon="2.39429">
        <ele>712.21</ele>
        <time>2026-08-21T11:09:03.910Z</time>
      </trkpt>
      <trkpt lat="45.00315" lon="2.39427">
        <ele>712.43</ele>
        <time>2026-08-21T11:09:05.099Z</time>
      </trkpt>
      <trkpt lat="45.00317" lon="2.39424">
        <ele>712.61</ele>
        <time>2026-08-21T11:09:06.025Z</time>
      </trkpt>
      <trkpt lat="45.00318" lon="2.39422">
        <ele>712.81</ele>
        <time>2026-08-21T11:09:07.104Z</time>
      </trkpt>
      <trkpt lat="45.0032" lon="2.39421">
        <ele>713.01</ele>
        <time>2026-08-21T11:09:07.755Z</time>
      </trkpt>
      <trkpt lat="45.00322" lon="2.39419">
        <ele>713.21</ele>
        <time>2026-08-21T11:09:09.108Z</time>
      </trkpt>
      <trkpt lat="45.00324" lon="2.39417">
        <ele>713.43</ele>
        <time>2026-08-21T11:09:10.109Z</time>
      </trkpt>
      <trkpt lat="45.00326" lon="2.39415">
        <ele>713.65</ele>
        <time>2026-08-21T11:09:10.941Z</time>
      </trkpt>
      <trkpt lat="45.00328" lon="2.39412">
        <ele>713.87</ele>
        <time>2026-08-21T11:09:12.014Z</time>
      </trkpt>
      <trkpt lat="45.00331" lon="2.3941">
        <ele>714.09</ele>
        <time>2026-08-21T11:09:13.016Z</time>
      </trkpt>
      <trkpt lat="45.00333" lon="2.39407">
        <ele>714.38</ele>
        <time>2026-08-21T11:09:14.019Z</time>
      </trkpt>
      <trkpt lat="45.00334" lon="2.39404">
        <ele>714.61</ele>
        <time>2026-08-21T11:09:15.022Z</time>
      </trkpt>
      <trkpt lat="45.00336" lon="2.39402">
        <ele>714.82</ele>
        <time>2026-08-21T11:09:16.023Z</time>
      </trkpt>
      <trkpt lat="45.00338" lon="2.39399">
        <ele>715.05</ele>
        <time>2026-08-21T11:09:17.025Z</time>
      </trkpt>
      <trkpt lat="45.0034" lon="2.39396">
        <ele>715.32</ele>
        <time>2026-08-21T11:09:18.028Z</time>
      </trkpt>
      <trkpt lat="45.00341" lon="2.39393">
        <ele>715.48</ele>
        <time>2026-08-21T11:09:19.030Z</time>
      </trkpt>
      <trkpt lat="45.00342" lon="2.3939">
        <ele>715.69</ele>
        <time>2026-08-21T11:09:20.037Z</time>
      </trkpt>
      <trkpt lat="45.00343" lon="2.39387">
        <ele>715.92</ele>
        <time>2026-08-21T11:09:21.039Z</time>
      </trkpt>
      <trkpt lat="45.00345" lon="2.39384">
        <ele>716.19</ele>
        <time>2026-08-21T11:09:22.039Z</time>
      </trkpt>
      <trkpt lat="45.00346" lon="2.39381">
        <ele>716.48</ele>
        <time>2026-08-21T11:09:23.040Z</time>
      </trkpt>
      <trkpt lat="45.00348" lon="2.3938">
        <ele>716.72</ele>
        <time>2026-08-21T11:09:24.043Z</time>
      </trkpt>
      <trkpt lat="45.0035" lon="2.3938">
        <ele>716.98</ele>
        <time>2026-08-21T11:09:25.045Z</time>
      </trkpt>
      <trkpt lat="45.00352" lon="2.3938">
        <ele>717.29</ele>
        <time>2026-08-21T11:09:26.047Z</time>
      </trkpt>
      <trkpt lat="45.00354" lon="2.39381">
        <ele>717.65</ele>
        <time>2026-08-21T11:09:27.049Z</time>
      </trkpt>
      <trkpt lat="45.00356" lon="2.39382">
        <ele>717.96</ele>
        <time>2026-08-21T11:09:28.054Z</time>
      </trkpt>
      <trkpt lat="45.00357" lon="2.39383">
        <ele>718.22</ele>
        <time>2026-08-21T11:09:29.055Z</time>
      </trkpt>
      <trkpt lat="45.00358" lon="2.39384">
        <ele>718.39</ele>
        <time>2026-08-21T11:09:30.058Z</time>
      </trkpt>
      <trkpt lat="45.00359" lon="2.39384">
        <ele>718.66</ele>
        <time>2026-08-21T11:09:31.061Z</time>
      </trkpt>
      <trkpt lat="45.00361" lon="2.39385">
        <ele>718.94</ele>
        <time>2026-08-21T11:09:31.869Z</time>
      </trkpt>
      <trkpt lat="45.00363" lon="2.39386">
        <ele>719.57</ele>
        <time>2026-08-21T11:09:34.068Z</time>
      </trkpt>
      <trkpt lat="45.00364" lon="2.39385">
        <ele>719.8</ele>
        <time>2026-08-21T11:09:35.081Z</time>
      </trkpt>
      <trkpt lat="45.00365" lon="2.39385">
        <ele>720.06</ele>
        <time>2026-08-21T11:09:36.073Z</time>
      </trkpt>
      <trkpt lat="45.00366" lon="2.39385">
        <ele>720.06</ele>
        <time>2026-08-21T11:09:37.077Z</time>
      </trkpt>
      <trkpt lat="45.00367" lon="2.39386">
        <ele>720.06</ele>
        <time>2026-08-21T11:09:37.843Z</time>
      </trkpt>
      <trkpt lat="45.00369" lon="2.39387">
        <ele>721.28</ele>
        <time>2026-08-21T11:09:39.082Z</time>
      </trkpt>
      <trkpt lat="45.0037" lon="2.39388">
        <ele>721.71</ele>
        <time>2026-08-21T11:09:40.006Z</time>
      </trkpt>
      <trkpt lat="45.00372" lon="2.3939">
        <ele>722.11</ele>
        <time>2026-08-21T11:09:41.085Z</time>
      </trkpt>
      <trkpt lat="45.00374" lon="2.39392">
        <ele>722.47</ele>
        <time>2026-08-21T11:09:42.088Z</time>
      </trkpt>
      <trkpt lat="45.00376" lon="2.39394">
        <ele>722.88</ele>
        <time>2026-08-21T11:09:43.089Z</time>
      </trkpt>
      <trkpt lat="45.00378" lon="2.39396">
        <ele>723.25</ele>
        <time>2026-08-21T11:09:43.934Z</time>
      </trkpt>
      <trkpt lat="45.0038" lon="2.39398">
        <ele>723.65</ele>
        <time>2026-08-21T11:09:45.094Z</time>
      </trkpt>
      <trkpt lat="45.00382" lon="2.394">
        <ele>724.13</ele>
        <time>2026-08-21T11:09:46.097Z</time>
      </trkpt>
      <trkpt lat="45.00383" lon="2.39402">
        <ele>724.6</ele>
        <time>2026-08-21T11:09:47.098Z</time>
      </trkpt>
      <trkpt lat="45.00385" lon="2.39405">
        <ele>725.02</ele>
        <time>2026-08-21T11:09:48.101Z</time>
      </trkpt>
      <trkpt lat="45.00386" lon="2.39407">
        <ele>725.54</ele>
        <time>2026-08-21T11:09:49.103Z</time>
      </trkpt>
      <trkpt lat="45.00391" lon="2.39411">
        <ele>726.51</ele>
        <time>2026-08-21T11:09:51.108Z</time>
      </trkpt>
      <trkpt lat="45.00392" lon="2.39412">
        <ele>727</ele>
        <time>2026-08-21T11:09:52.110Z</time>
      </trkpt>
      <trkpt lat="45.00393" lon="2.39413">
        <ele>727.5</ele>
        <time>2026-08-21T11:09:53.112Z</time>
      </trkpt>
      <trkpt lat="45.00395" lon="2.39415">
        <ele>727.89</ele>
        <time>2026-08-21T11:09:53.238Z</time>
      </trkpt>
      <trkpt lat="45.00397" lon="2.39416">
        <ele>728.34</ele>
        <time>2026-08-21T11:09:55.118Z</time>
      </trkpt>
      <trkpt lat="45.00398" lon="2.39418">
        <ele>728.77</ele>
        <time>2026-08-21T11:09:56.122Z</time>
      </trkpt>
      <trkpt lat="45.004" lon="2.3942">
        <ele>729.19</ele>
        <time>2026-08-21T11:09:57.122Z</time>
      </trkpt>
      <trkpt lat="45.00402" lon="2.39423">
        <ele>729.63</ele>
        <time>2026-08-21T11:09:58.073Z</time>
      </trkpt>
      <trkpt lat="45.00403" lon="2.39425">
        <ele>730.01</ele>
        <time>2026-08-21T11:09:59.127Z</time>
      </trkpt>
      <trkpt lat="45.00404" lon="2.39427">
        <ele>730.45</ele>
        <time>2026-08-21T11:09:59.171Z</time>
      </trkpt>
      <trkpt lat="45.00406" lon="2.3943">
        <ele>730.94</ele>
        <time>2026-08-21T11:10:01.131Z</time>
      </trkpt>
      <trkpt lat="45.00408" lon="2.39432">
        <ele>731.25</ele>
        <time>2026-08-21T11:10:01.956Z</time>
      </trkpt>
      <trkpt lat="45.0041" lon="2.39434">
        <ele>731.72</ele>
        <time>2026-08-21T11:10:02.227Z</time>
      </trkpt>
      <trkpt lat="45.00412" lon="2.39435">
        <ele>732.18</ele>
        <time>2026-08-21T11:10:04.139Z</time>
      </trkpt>
      <trkpt lat="45.00414" lon="2.39435">
        <ele>732.67</ele>
        <time>2026-08-21T11:10:04.237Z</time>
      </trkpt>
      <trkpt lat="45.00415" lon="2.39435">
        <ele>733.17</ele>
        <time>2026-08-21T11:10:05.228Z</time>
      </trkpt>
      <trkpt lat="45.00416" lon="2.39434">
        <ele>733.62</ele>
        <time>2026-08-21T11:10:07.148Z</time>
      </trkpt>
      <trkpt lat="45.00417" lon="2.39432">
        <ele>734.04</ele>
        <time>2026-08-21T11:10:07.235Z</time>
      </trkpt>
      <trkpt lat="45.00418" lon="2.39429">
        <ele>734.44</ele>
        <time>2026-08-21T11:10:08.228Z</time>
      </trkpt>
      <trkpt lat="45.00417" lon="2.39427">
        <ele>734.87</ele>
        <time>2026-08-21T11:10:09.819Z</time>
      </trkpt>
      <trkpt lat="45.00417" lon="2.39425">
        <ele>735.25</ele>
        <time>2026-08-21T11:10:10.239Z</time>
      </trkpt>
      <trkpt lat="45.00416" lon="2.39423">
        <ele>735.6</ele>
        <time>2026-08-21T11:10:11.231Z</time>
      </trkpt>
      <trkpt lat="45.00416" lon="2.3942">
        <ele>735.95</ele>
        <time>2026-08-21T11:10:12.252Z</time>
      </trkpt>
      <trkpt lat="45.00415" lon="2.39418">
        <ele>736.3</ele>
        <time>2026-08-21T11:10:13.306Z</time>
      </trkpt>
      <trkpt lat="45.00415" lon="2.39415">
        <ele>736.66</ele>
        <time>2026-08-21T11:10:15.169Z</time>
      </trkpt>
      <trkpt lat="45.00415" lon="2.39413">
        <ele>737.03</ele>
        <time>2026-08-21T11:10:15.702Z</time>
      </trkpt>
      <trkpt lat="45.00414" lon="2.3941">
        <ele>737.34</ele>
        <time>2026-08-21T11:10:16.761Z</time>
      </trkpt>
      <trkpt lat="45.00414" lon="2.39408">
        <ele>737.67</ele>
        <time>2026-08-21T11:10:17.231Z</time>
      </trkpt>
      <trkpt lat="45.00414" lon="2.39406">
        <ele>738</ele>
        <time>2026-08-21T11:10:18.252Z</time>
      </trkpt>
      <trkpt lat="45.00413" lon="2.39404">
        <ele>738.31</ele>
        <time>2026-08-21T11:10:20.083Z</time>
      </trkpt>
      <trkpt lat="45.00414" lon="2.39401">
        <ele>738.62</ele>
        <time>2026-08-21T11:10:21.085Z</time>
      </trkpt>
      <trkpt lat="45.00414" lon="2.39399">
        <ele>738.95</ele>
        <time>2026-08-21T11:10:22.088Z</time>
      </trkpt>
      <trkpt lat="45.00415" lon="2.39397">
        <ele>739.33</ele>
        <time>2026-08-21T11:10:23.092Z</time>
      </trkpt>
      <trkpt lat="45.00417" lon="2.39396">
        <ele>739.64</ele>
        <time>2026-08-21T11:10:24.094Z</time>
      </trkpt>
      <trkpt lat="45.00419" lon="2.39397">
        <ele>740</ele>
        <time>2026-08-21T11:10:25.098Z</time>
      </trkpt>
      <trkpt lat="45.00421" lon="2.39398">
        <ele>740.34</ele>
        <time>2026-08-21T11:10:26.101Z</time>
      </trkpt>
      <trkpt lat="45.00423" lon="2.39399">
        <ele>740.62</ele>
        <time>2026-08-21T11:10:27.104Z</time>
      </trkpt>
      <trkpt lat="45.00425" lon="2.39401">
        <ele>740.95</ele>
        <time>2026-08-21T11:10:28.107Z</time>
      </trkpt>
      <trkpt lat="45.00427" lon="2.39402">
        <ele>741.23</ele>
        <time>2026-08-21T11:10:29.127Z</time>
      </trkpt>
      <trkpt lat="45.00428" lon="2.39404">
        <ele>741.54</ele>
        <time>2026-08-21T11:10:30.112Z</time>
      </trkpt>
      <trkpt lat="45.0043" lon="2.39405">
        <ele>741.79</ele>
        <time>2026-08-21T11:10:31.114Z</time>
      </trkpt>
      <trkpt lat="45.00431" lon="2.39407">
        <ele>742.02</ele>
        <time>2026-08-21T11:10:32.116Z</time>
      </trkpt>
      <trkpt lat="45.00433" lon="2.39408">
        <ele>742.22</ele>
        <time>2026-08-21T11:10:33.120Z</time>
      </trkpt>
      <trkpt lat="45.00435" lon="2.39409">
        <ele>742.41</ele>
        <time>2026-08-21T11:10:34.122Z</time>
      </trkpt>
      <trkpt lat="45.0044" lon="2.3941">
        <ele>742.84</ele>
        <time>2026-08-21T11:10:36.126Z</time>
      </trkpt>
      <trkpt lat="45.00444" lon="2.3941">
        <ele>743.17</ele>
        <time>2026-08-21T11:10:38.026Z</time>
      </trkpt>
      <trkpt lat="45.00445" lon="2.39411">
        <ele>743.37</ele>
        <time>2026-08-21T11:10:39.134Z</time>
      </trkpt>
      <trkpt lat="45.00446" lon="2.39412">
        <ele>743.58</ele>
        <time>2026-08-21T11:10:39.220Z</time>
      </trkpt>
      <trkpt lat="45.00448" lon="2.39412">
        <ele>743.77</ele>
        <time>2026-08-21T11:10:41.140Z</time>
      </trkpt>
      <trkpt lat="45.0045" lon="2.39413">
        <ele>743.98</ele>
        <time>2026-08-21T11:10:42.142Z</time>
      </trkpt>
      <trkpt lat="45.00452" lon="2.39413">
        <ele>744.17</ele>
        <time>2026-08-21T11:10:43.145Z</time>
      </trkpt>
      <trkpt lat="45.00454" lon="2.39413">
        <ele>744.4</ele>
        <time>2026-08-21T11:10:43.237Z</time>
      </trkpt>
      <trkpt lat="45.00458" lon="2.39414">
        <ele>744.8</ele>
        <time>2026-08-21T11:10:45.219Z</time>
      </trkpt>
      <trkpt lat="45.0046" lon="2.39414">
        <ele>745</ele>
        <time>2026-08-21T11:10:46.241Z</time>
      </trkpt>
      <trkpt lat="45.00461" lon="2.39415">
        <ele>745.19</ele>
        <time>2026-08-21T11:10:47.227Z</time>
      </trkpt>
      <trkpt lat="45.00463" lon="2.39415">
        <ele>745.38</ele>
        <time>2026-08-21T11:10:48.251Z</time>
      </trkpt>
      <trkpt lat="45.00464" lon="2.39415">
        <ele>745.62</ele>
        <time>2026-08-21T11:10:49.238Z</time>
      </trkpt>
      <trkpt lat="45.00466" lon="2.39415">
        <ele>745.84</ele>
        <time>2026-08-21T11:10:50.259Z</time>
      </trkpt>
      <trkpt lat="45.00468" lon="2.39414">
        <ele>746.07</ele>
        <time>2026-08-21T11:10:51.247Z</time>
      </trkpt>
      <trkpt lat="45.0047" lon="2.39413">
        <ele>746.24</ele>
        <time>2026-08-21T11:10:52.239Z</time>
      </trkpt>
      <trkpt lat="45.00472" lon="2.39412">
        <ele>746.44</ele>
        <time>2026-08-21T11:10:53.263Z</time>
      </trkpt>
      <trkpt lat="45.00473" lon="2.3941">
        <ele>746.65</ele>
        <time>2026-08-21T11:10:54.225Z</time>
      </trkpt>
      <trkpt lat="45.00475" lon="2.39409">
        <ele>746.86</ele>
        <time>2026-08-21T11:10:55.239Z</time>
      </trkpt>
      <trkpt lat="45.00477" lon="2.39407">
        <ele>747.05</ele>
        <time>2026-08-21T11:10:56.226Z</time>
      </trkpt>
      <trkpt lat="45.0048" lon="2.39406">
        <ele>747.28</ele>
        <time>2026-08-21T11:10:57.224Z</time>
      </trkpt>
      <trkpt lat="45.00481" lon="2.39404">
        <ele>747.46</ele>
        <time>2026-08-21T11:10:58.239Z</time>
      </trkpt>
      <trkpt lat="45.00483" lon="2.39403">
        <ele>747.66</ele>
        <time>2026-08-21T11:10:59.228Z</time>
      </trkpt>
      <trkpt lat="45.00485" lon="2.39401">
        <ele>747.85</ele>
        <time>2026-08-21T11:11:00.248Z</time>
      </trkpt>
      <trkpt lat="45.00486" lon="2.394">
        <ele>748.03</ele>
        <time>2026-08-21T11:11:01.239Z</time>
      </trkpt>
      <trkpt lat="45.00488" lon="2.39399">
        <ele>748.18</ele>
        <time>2026-08-21T11:11:02.259Z</time>
      </trkpt>
      <trkpt lat="45.0049" lon="2.39398">
        <ele>748.33</ele>
        <time>2026-08-21T11:11:04.031Z</time>
      </trkpt>
      <trkpt lat="45.00492" lon="2.39396">
        <ele>748.46</ele>
        <time>2026-08-21T11:11:04.276Z</time>
      </trkpt>
      <trkpt lat="45.00493" lon="2.39394">
        <ele>748.59</ele>
        <time>2026-08-21T11:11:05.229Z</time>
      </trkpt>
      <trkpt lat="45.00495" lon="2.39393">
        <ele>748.72</ele>
        <time>2026-08-21T11:11:06.247Z</time>
      </trkpt>
      <trkpt lat="45.00496" lon="2.39392">
        <ele>748.83</ele>
        <time>2026-08-21T11:11:07.236Z</time>
      </trkpt>
      <trkpt lat="45.00498" lon="2.39391">
        <ele>748.93</ele>
        <time>2026-08-21T11:11:08.261Z</time>
      </trkpt>
      <trkpt lat="45.00501" lon="2.39392">
        <ele>749</ele>
        <time>2026-08-21T11:11:09.761Z</time>
      </trkpt>
      <trkpt lat="45.00503" lon="2.39393">
        <ele>749.1</ele>
        <time>2026-08-21T11:11:10.246Z</time>
      </trkpt>
      <trkpt lat="45.00505" lon="2.39394">
        <ele>749.18</ele>
        <time>2026-08-21T11:11:12.221Z</time>
      </trkpt>
      <trkpt lat="45.00507" lon="2.39396">
        <ele>749.27</ele>
        <time>2026-08-21T11:11:12.228Z</time>
      </trkpt>
      <trkpt lat="45.00509" lon="2.39397">
        <ele>749.36</ele>
        <time>2026-08-21T11:11:14.225Z</time>
      </trkpt>
      <trkpt lat="45.0051" lon="2.394">
        <ele>749.48</ele>
        <time>2026-08-21T11:11:14.230Z</time>
      </trkpt>
      <trkpt lat="45.00511" lon="2.39402">
        <ele>749.61</ele>
        <time>2026-08-21T11:11:15.253Z</time>
      </trkpt>
      <trkpt lat="45.00512" lon="2.39405">
        <ele>749.73</ele>
        <time>2026-08-21T11:11:16.247Z</time>
      </trkpt>
      <trkpt lat="45.00513" lon="2.39408">
        <ele>749.87</ele>
        <time>2026-08-21T11:11:17.258Z</time>
      </trkpt>
      <trkpt lat="45.00514" lon="2.3941">
        <ele>749.97</ele>
        <time>2026-08-21T11:11:18.247Z</time>
      </trkpt>
      <trkpt lat="45.00515" lon="2.39412">
        <ele>750.15</ele>
        <time>2026-08-21T11:11:20.228Z</time>
      </trkpt>
      <trkpt lat="45.00516" lon="2.39415">
        <ele>750.31</ele>
        <time>2026-08-21T11:11:21.231Z</time>
      </trkpt>
      <trkpt lat="45.00517" lon="2.39417">
        <ele>750.4</ele>
        <time>2026-08-21T11:11:21.251Z</time>
      </trkpt>
      <trkpt lat="45.00518" lon="2.3942">
        <ele>750.49</ele>
        <time>2026-08-21T11:11:23.136Z</time>
      </trkpt>
      <trkpt lat="45.00519" lon="2.39423">
        <ele>750.57</ele>
        <time>2026-08-21T11:11:23.237Z</time>
      </trkpt>
      <trkpt lat="45.0052" lon="2.39425">
        <ele>750.73</ele>
        <time>2026-08-21T11:11:25.137Z</time>
      </trkpt>
      <trkpt lat="45.00521" lon="2.39427">
        <ele>750.94</ele>
        <time>2026-08-21T11:11:26.139Z</time>
      </trkpt>
      <trkpt lat="45.00522" lon="2.39429">
        <ele>751.13</ele>
        <time>2026-08-21T11:11:27.140Z</time>
      </trkpt>
      <trkpt lat="45.00523" lon="2.39432">
        <ele>751.3</ele>
        <time>2026-08-21T11:11:28.142Z</time>
      </trkpt>
      <trkpt lat="45.00523" lon="2.39434">
        <ele>751.52</ele>
        <time>2026-08-21T11:11:29.142Z</time>
      </trkpt>
      <trkpt lat="45.00524" lon="2.39437">
        <ele>751.68</ele>
        <time>2026-08-21T11:11:30.143Z</time>
      </trkpt>
      <trkpt lat="45.00525" lon="2.39439">
        <ele>751.85</ele>
        <time>2026-08-21T11:11:31.243Z</time>
      </trkpt>
      <trkpt lat="45.00525" lon="2.39441">
        <ele>752.03</ele>
        <time>2026-08-21T11:11:32.236Z</time>
      </trkpt>
      <trkpt lat="45.00526" lon="2.39444">
        <ele>752.2</ele>
        <time>2026-08-21T11:11:33.066Z</time>
      </trkpt>
      <trkpt lat="45.00527" lon="2.39447">
        <ele>752.3</ele>
        <time>2026-08-21T11:11:34.245Z</time>
      </trkpt>
      <trkpt lat="45.00528" lon="2.39449">
        <ele>752.45</ele>
        <time>2026-08-21T11:11:35.250Z</time>
      </trkpt>
      <trkpt lat="45.00529" lon="2.39451">
        <ele>752.56</ele>
        <time>2026-08-21T11:11:36.248Z</time>
      </trkpt>
      <trkpt lat="45.0053" lon="2.39453">
        <ele>752.66</ele>
        <time>2026-08-21T11:11:37.238Z</time>
      </trkpt>
      <trkpt lat="45.00531" lon="2.39456">
        <ele>752.78</ele>
        <time>2026-08-21T11:11:38.255Z</time>
      </trkpt>
      <trkpt lat="45.00532" lon="2.39458">
        <ele>752.85</ele>
        <time>2026-08-21T11:11:39.254Z</time>
      </trkpt>
      <trkpt lat="45.00533" lon="2.39461">
        <ele>752.9</ele>
        <time>2026-08-21T11:11:39.796Z</time>
      </trkpt>
      <trkpt lat="45.00534" lon="2.39463">
        <ele>753.07</ele>
        <time>2026-08-21T11:11:40.258Z</time>
      </trkpt>
      <trkpt lat="45.00535" lon="2.39466">
        <ele>753.33</ele>
        <time>2026-08-21T11:11:42.232Z</time>
      </trkpt>
      <trkpt lat="45.00536" lon="2.39469">
        <ele>753.42</ele>
        <time>2026-08-21T11:11:43.246Z</time>
      </trkpt>
      <trkpt lat="45.00536" lon="2.39472">
        <ele>753.53</ele>
        <time>2026-08-21T11:11:44.258Z</time>
      </trkpt>
      <trkpt lat="45.00537" lon="2.39475">
        <ele>753.62</ele>
        <time>2026-08-21T11:11:45.221Z</time>
      </trkpt>
      <trkpt lat="45.00538" lon="2.39477">
        <ele>753.71</ele>
        <time>2026-08-21T11:11:46.261Z</time>
      </trkpt>
      <trkpt lat="45.00538" lon="2.3948">
        <ele>753.78</ele>
        <time>2026-08-21T11:11:47.261Z</time>
      </trkpt>
      <trkpt lat="45.00539" lon="2.39483">
        <ele>753.86</ele>
        <time>2026-08-21T11:11:47.264Z</time>
      </trkpt>
      <trkpt lat="45.0054" lon="2.39485">
        <ele>754.05</ele>
        <time>2026-08-21T11:11:49.248Z</time>
      </trkpt>
      <trkpt lat="45.00541" lon="2.39488">
        <ele>754.14</ele>
        <time>2026-08-21T11:11:50.264Z</time>
      </trkpt>
      <trkpt lat="45.00541" lon="2.39491">
        <ele>754.26</ele>
        <time>2026-08-21T11:11:51.049Z</time>
      </trkpt>
      <trkpt lat="45.00542" lon="2.39493">
        <ele>754.33</ele>
        <time>2026-08-21T11:11:51.280Z</time>
      </trkpt>
      <trkpt lat="45.00543" lon="2.39496">
        <ele>754.33</ele>
        <time>2026-08-21T11:11:53.268Z</time>
      </trkpt>
      <trkpt lat="45.00544" lon="2.39499">
        <ele>754.43</ele>
        <time>2026-08-21T11:11:53.319Z</time>
      </trkpt>
      <trkpt lat="45.00546" lon="2.39501">
        <ele>754.53</ele>
        <time>2026-08-21T11:11:55.054Z</time>
      </trkpt>
      <trkpt lat="45.00547" lon="2.39503">
        <ele>754.63</ele>
        <time>2026-08-21T11:11:56.173Z</time>
      </trkpt>
      <trkpt lat="45.00548" lon="2.39505">
        <ele>754.74</ele>
        <time>2026-08-21T11:11:57.174Z</time>
      </trkpt>
      <trkpt lat="45.0055" lon="2.39507">
        <ele>754.85</ele>
        <time>2026-08-21T11:11:58.176Z</time>
      </trkpt>
      <trkpt lat="45.00551" lon="2.39509">
        <ele>754.96</ele>
        <time>2026-08-21T11:11:59.176Z</time>
      </trkpt>
      <trkpt lat="45.00552" lon="2.39511">
        <ele>755.09</ele>
        <time>2026-08-21T11:12:00.178Z</time>
      </trkpt>
      <trkpt lat="45.00552" lon="2.39512">
        <ele>755.17</ele>
        <time>2026-08-21T11:12:01.180Z</time>
      </trkpt>
      <trkpt lat="45.00553" lon="2.39513">
        <ele>755.2</ele>
        <time>2026-08-21T11:12:02.182Z</time>
      </trkpt>
      <trkpt lat="45.00554" lon="2.39515">
        <ele>755.31</ele>
        <time>2026-08-21T11:12:03.184Z</time>
      </trkpt>
      <trkpt lat="45.00555" lon="2.39518">
        <ele>755.44</ele>
        <time>2026-08-21T11:12:04.184Z</time>
      </trkpt>
      <trkpt lat="45.00555" lon="2.3952">
        <ele>755.58</ele>
        <time>2026-08-21T11:12:05.187Z</time>
      </trkpt>
      <trkpt lat="45.00555" lon="2.39522">
        <ele>755.73</ele>
        <time>2026-08-21T11:12:06.188Z</time>
      </trkpt>
      <trkpt lat="45.00556" lon="2.39525">
        <ele>755.84</ele>
        <time>2026-08-21T11:12:07.190Z</time>
      </trkpt>
      <trkpt lat="45.00557" lon="2.39527">
        <ele>755.97</ele>
        <time>2026-08-21T11:12:08.190Z</time>
      </trkpt>
      <trkpt lat="45.00558" lon="2.3953">
        <ele>756.1</ele>
        <time>2026-08-21T11:12:09.192Z</time>
      </trkpt>
      <trkpt lat="45.00559" lon="2.39533">
        <ele>756.19</ele>
        <time>2026-08-21T11:12:10.194Z</time>
      </trkpt>
      <trkpt lat="45.00559" lon="2.39536">
        <ele>756.22</ele>
        <time>2026-08-21T11:12:11.119Z</time>
      </trkpt>
      <trkpt lat="45.00561" lon="2.39538">
        <ele>756.34</ele>
        <time>2026-08-21T11:12:12.227Z</time>
      </trkpt>
      <trkpt lat="45.00562" lon="2.39541">
        <ele>756.48</ele>
        <time>2026-08-21T11:12:12.284Z</time>
      </trkpt>
      <trkpt lat="45.00563" lon="2.39544">
        <ele>756.59</ele>
        <time>2026-08-21T11:12:14.201Z</time>
      </trkpt>
      <trkpt lat="45.00565" lon="2.39546">
        <ele>756.68</ele>
        <time>2026-08-21T11:12:15.197Z</time>
      </trkpt>
      <trkpt lat="45.00566" lon="2.39548">
        <ele>756.79</ele>
        <time>2026-08-21T11:12:16.199Z</time>
      </trkpt>
      <trkpt lat="45.00567" lon="2.39551">
        <ele>756.87</ele>
        <time>2026-08-21T11:12:17.234Z</time>
      </trkpt>
      <trkpt lat="45.00568" lon="2.39553">
        <ele>756.99</ele>
        <time>2026-08-21T11:12:18.069Z</time>
      </trkpt>
      <trkpt lat="45.0057" lon="2.39556">
        <ele>757.11</ele>
        <time>2026-08-21T11:12:19.201Z</time>
      </trkpt>
      <trkpt lat="45.00572" lon="2.3956">
        <ele>757.2</ele>
        <time>2026-08-21T11:12:20.204Z</time>
      </trkpt>
      <trkpt lat="45.00573" lon="2.39563">
        <ele>757.27</ele>
        <time>2026-08-21T11:12:21.204Z</time>
      </trkpt>
      <trkpt lat="45.00575" lon="2.39566">
        <ele>757.4</ele>
        <time>2026-08-21T11:12:22.205Z</time>
      </trkpt>
      <trkpt lat="45.00576" lon="2.39569">
        <ele>757.54</ele>
        <time>2026-08-21T11:12:23.206Z</time>
      </trkpt>
      <trkpt lat="45.00578" lon="2.39571">
        <ele>757.75</ele>
        <time>2026-08-21T11:12:24.208Z</time>
      </trkpt>
      <trkpt lat="45.0058" lon="2.39574">
        <ele>758.05</ele>
        <time>2026-08-21T11:12:25.208Z</time>
      </trkpt>
      <trkpt lat="45.00581" lon="2.39577">
        <ele>758.3</ele>
        <time>2026-08-21T11:12:26.210Z</time>
      </trkpt>
      <trkpt lat="45.00583" lon="2.3958">
        <ele>758.48</ele>
        <time>2026-08-21T11:12:27.211Z</time>
      </trkpt>
      <trkpt lat="45.00584" lon="2.39582">
        <ele>758.78</ele>
        <time>2026-08-21T11:12:28.211Z</time>
      </trkpt>
      <trkpt lat="45.00585" lon="2.39585">
        <ele>758.98</ele>
        <time>2026-08-21T11:12:29.212Z</time>
      </trkpt>
      <trkpt lat="45.00587" lon="2.39588">
        <ele>759.24</ele>
        <time>2026-08-21T11:12:30.215Z</time>
      </trkpt>
      <trkpt lat="45.00588" lon="2.3959">
        <ele>759.42</ele>
        <time>2026-08-21T11:12:31.218Z</time>
      </trkpt>
      <trkpt lat="45.0059" lon="2.39593">
        <ele>759.71</ele>
        <time>2026-08-21T11:12:32.264Z</time>
      </trkpt>
      <trkpt lat="45.00591" lon="2.39595">
        <ele>760.04</ele>
        <time>2026-08-21T11:12:33.218Z</time>
      </trkpt>
      <trkpt lat="45.00592" lon="2.39596">
        <ele>760.34</ele>
        <time>2026-08-21T11:12:34.217Z</time>
      </trkpt>
      <trkpt lat="45.00593" lon="2.39598">
        <ele>760.61</ele>
        <time>2026-08-21T11:12:35.198Z</time>
      </trkpt>
      <trkpt lat="45.00595" lon="2.39601">
        <ele>761.06</ele>
        <time>2026-08-21T11:12:36.247Z</time>
      </trkpt>
      <trkpt lat="45.00597" lon="2.39604">
        <ele>761.27</ele>
        <time>2026-08-21T11:12:37.098Z</time>
      </trkpt>
      <trkpt lat="45.00599" lon="2.39607">
        <ele>761.6</ele>
        <time>2026-08-21T11:12:38.222Z</time>
      </trkpt>
      <trkpt lat="45.006" lon="2.3961">
        <ele>761.9</ele>
        <time>2026-08-21T11:12:39.220Z</time>
      </trkpt>
      <trkpt lat="45.00602" lon="2.39613">
        <ele>762.27</ele>
        <time>2026-08-21T11:12:40.222Z</time>
      </trkpt>
      <trkpt lat="45.00604" lon="2.39616">
        <ele>762.6</ele>
        <time>2026-08-21T11:12:41.223Z</time>
      </trkpt>
      <trkpt lat="45.00605" lon="2.39619">
        <ele>762.79</ele>
        <time>2026-08-21T11:12:42.127Z</time>
      </trkpt>
      <trkpt lat="45.00606" lon="2.39622">
        <ele>763.05</ele>
        <time>2026-08-21T11:12:43.221Z</time>
      </trkpt>
      <trkpt lat="45.00607" lon="2.39625">
        <ele>763.32</ele>
        <time>2026-08-21T11:12:44.225Z</time>
      </trkpt>
      <trkpt lat="45.00607" lon="2.39627">
        <ele>763.56</ele>
        <time>2026-08-21T11:12:45.221Z</time>
      </trkpt>
      <trkpt lat="45.00608" lon="2.39629">
        <ele>763.87</ele>
        <time>2026-08-21T11:12:46.223Z</time>
      </trkpt>
      <trkpt lat="45.0061" lon="2.39632">
        <ele>764.18</ele>
        <time>2026-08-21T11:12:47.224Z</time>
      </trkpt>
      <trkpt lat="45.00611" lon="2.39635">
        <ele>764.41</ele>
        <time>2026-08-21T11:12:48.224Z</time>
      </trkpt>
      <trkpt lat="45.00612" lon="2.39638">
        <ele>764.58</ele>
        <time>2026-08-21T11:12:49.225Z</time>
      </trkpt>
      <trkpt lat="45.00613" lon="2.39642">
        <ele>764.85</ele>
        <time>2026-08-21T11:12:50.227Z</time>
      </trkpt>
      <trkpt lat="45.00614" lon="2.39646">
        <ele>765.03</ele>
        <time>2026-08-21T11:12:51.228Z</time>
      </trkpt>
      <trkpt lat="45.00615" lon="2.39649">
        <ele>765.39</ele>
        <time>2026-08-21T11:12:52.230Z</time>
      </trkpt>
      <trkpt lat="45.00616" lon="2.39653">
        <ele>765.67</ele>
        <time>2026-08-21T11:12:53.229Z</time>
      </trkpt>
      <trkpt lat="45.00617" lon="2.39656">
        <ele>765.92</ele>
        <time>2026-08-21T11:12:54.230Z</time>
      </trkpt>
      <trkpt lat="45.00618" lon="2.39659">
        <ele>766.3</ele>
        <time>2026-08-21T11:12:55.239Z</time>
      </trkpt>
      <trkpt lat="45.00619" lon="2.39662">
        <ele>766.55</ele>
        <time>2026-08-21T11:12:56.235Z</time>
      </trkpt>
      <trkpt lat="45.0062" lon="2.39666">
        <ele>766.67</ele>
        <time>2026-08-21T11:12:57.236Z</time>
      </trkpt>
      <trkpt lat="45.00621" lon="2.39669">
        <ele>766.92</ele>
        <time>2026-08-21T11:12:58.236Z</time>
      </trkpt>
      <trkpt lat="45.00623" lon="2.39673">
        <ele>767.24</ele>
        <time>2026-08-21T11:12:59.239Z</time>
      </trkpt>
      <trkpt lat="45.00624" lon="2.39676">
        <ele>767.64</ele>
        <time>2026-08-21T11:13:00.238Z</time>
      </trkpt>
      <trkpt lat="45.00625" lon="2.39679">
        <ele>767.88</ele>
        <time>2026-08-21T11:13:01.239Z</time>
      </trkpt>
      <trkpt lat="45.00626" lon="2.39682">
        <ele>768.17</ele>
        <time>2026-08-21T11:13:02.241Z</time>
      </trkpt>
      <trkpt lat="45.00628" lon="2.39685">
        <ele>768.35</ele>
        <time>2026-08-21T11:13:03.242Z</time>
      </trkpt>
      <trkpt lat="45.00629" lon="2.39688">
        <ele>768.5</ele>
        <time>2026-08-21T11:13:04.244Z</time>
      </trkpt>
      <trkpt lat="45.00631" lon="2.3969">
        <ele>768.81</ele>
        <time>2026-08-21T11:13:05.247Z</time>
      </trkpt>
      <trkpt lat="45.00631" lon="2.39693">
        <ele>769.04</ele>
        <time>2026-08-21T11:13:06.250Z</time>
      </trkpt>
      <trkpt lat="45.00633" lon="2.39696">
        <ele>769.14</ele>
        <time>2026-08-21T11:13:07.248Z</time>
      </trkpt>
      <trkpt lat="45.00634" lon="2.39699">
        <ele>769.37</ele>
        <time>2026-08-21T11:13:08.250Z</time>
      </trkpt>
      <trkpt lat="45.00636" lon="2.39703">
        <ele>769.61</ele>
        <time>2026-08-21T11:13:09.252Z</time>
      </trkpt>
      <trkpt lat="45.00638" lon="2.39707">
        <ele>769.89</ele>
        <time>2026-08-21T11:13:10.254Z</time>
      </trkpt>
      <trkpt lat="45.00639" lon="2.39711">
        <ele>770.01</ele>
        <time>2026-08-21T11:13:11.258Z</time>
      </trkpt>
      <trkpt lat="45.0064" lon="2.39714">
        <ele>770.35</ele>
        <time>2026-08-21T11:13:12.259Z</time>
      </trkpt>
      <trkpt lat="45.00641" lon="2.39717">
        <ele>770.34</ele>
        <time>2026-08-21T11:13:13.261Z</time>
      </trkpt>
      <trkpt lat="45.00642" lon="2.3972">
        <ele>770.56</ele>
        <time>2026-08-21T11:13:14.263Z</time>
      </trkpt>
      <trkpt lat="45.00643" lon="2.39724">
        <ele>770.78</ele>
        <time>2026-08-21T11:13:15.096Z</time>
      </trkpt>
      <trkpt lat="45.00644" lon="2.39727">
        <ele>770.97</ele>
        <time>2026-08-21T11:13:16.267Z</time>
      </trkpt>
      <trkpt lat="45.00645" lon="2.39729">
        <ele>771.2</ele>
        <time>2026-08-21T11:13:17.269Z</time>
      </trkpt>
      <trkpt lat="45.00647" lon="2.39732">
        <ele>771.49</ele>
        <time>2026-08-21T11:13:18.277Z</time>
      </trkpt>
      <trkpt lat="45.00648" lon="2.39735">
        <ele>771.77</ele>
        <time>2026-08-21T11:13:19.213Z</time>
      </trkpt>
      <trkpt lat="45.00649" lon="2.39738">
        <ele>771.81</ele>
        <time>2026-08-21T11:13:20.276Z</time>
      </trkpt>
      <trkpt lat="45.0065" lon="2.39741">
        <ele>771.77</ele>
        <time>2026-08-21T11:13:21.276Z</time>
      </trkpt>
      <trkpt lat="45.00651" lon="2.39745">
        <ele>772.11</ele>
        <time>2026-08-21T11:13:22.278Z</time>
      </trkpt>
      <trkpt lat="45.00652" lon="2.39748">
        <ele>772.43</ele>
        <time>2026-08-21T11:13:23.280Z</time>
      </trkpt>
      <trkpt lat="45.00653" lon="2.3975">
        <ele>772.92</ele>
        <time>2026-08-21T11:13:24.336Z</time>
      </trkpt>
      <trkpt lat="45.00654" lon="2.39754">
        <ele>773.15</ele>
        <time>2026-08-21T11:13:25.283Z</time>
      </trkpt>
      <trkpt lat="45.00655" lon="2.39756">
        <ele>773.39</ele>
        <time>2026-08-21T11:13:26.285Z</time>
      </trkpt>
      <trkpt lat="45.00657" lon="2.39759">
        <ele>773.48</ele>
        <time>2026-08-21T11:13:27.287Z</time>
      </trkpt>
      <trkpt lat="45.00658" lon="2.39763">
        <ele>773.62</ele>
        <time>2026-08-21T11:13:28.288Z</time>
      </trkpt>
      <trkpt lat="45.0066" lon="2.39765">
        <ele>773.9</ele>
        <time>2026-08-21T11:13:29.291Z</time>
      </trkpt>
      <trkpt lat="45.00661" lon="2.39769">
        <ele>774.1</ele>
        <time>2026-08-21T11:13:30.132Z</time>
      </trkpt>
      <trkpt lat="45.00662" lon="2.39772">
        <ele>774.37</ele>
        <time>2026-08-21T11:13:31.295Z</time>
      </trkpt>
      <trkpt lat="45.00663" lon="2.39775">
        <ele>774.65</ele>
        <time>2026-08-21T11:13:32.296Z</time>
      </trkpt>
      <trkpt lat="45.00665" lon="2.39779">
        <ele>774.92</ele>
        <time>2026-08-21T11:13:33.155Z</time>
      </trkpt>
      <trkpt lat="45.00667" lon="2.39783">
        <ele>775</ele>
        <time>2026-08-21T11:13:34.302Z</time>
      </trkpt>
      <trkpt lat="45.0067" lon="2.39789">
        <ele>775.14</ele>
        <time>2026-08-21T11:13:35.305Z</time>
      </trkpt>
      <trkpt lat="45.00671" lon="2.39791">
        <ele>775.26</ele>
        <time>2026-08-21T11:13:36.307Z</time>
      </trkpt>
      <trkpt lat="45.00679" lon="2.39803">
        <ele>775.28</ele>
        <time>2026-08-21T11:13:37.308Z</time>
      </trkpt>
      <trkpt lat="45.00682" lon="2.39808">
        <ele>775.39</ele>
        <time>2026-08-21T11:13:38.310Z</time>
      </trkpt>
      <trkpt lat="45.00685" lon="2.39813">
        <ele>775.58</ele>
        <time>2026-08-21T11:13:39.312Z</time>
      </trkpt>
      <trkpt lat="45.00687" lon="2.39816">
        <ele>775.64</ele>
        <time>2026-08-21T11:13:40.212Z</time>
      </trkpt>
      <trkpt lat="45.00689" lon="2.3982">
        <ele>775.75</ele>
        <time>2026-08-21T11:13:41.350Z</time>
      </trkpt>
      <trkpt lat="45.00691" lon="2.39822">
        <ele>775.9</ele>
        <time>2026-08-21T11:13:41.950Z</time>
      </trkpt>
      <trkpt lat="45.00692" lon="2.39825">
        <ele>775.98</ele>
        <time>2026-08-21T11:13:42.943Z</time>
      </trkpt>
      <trkpt lat="45.00693" lon="2.39827">
        <ele>776.02</ele>
        <time>2026-08-21T11:13:44.326Z</time>
      </trkpt>
      <trkpt lat="45.00694" lon="2.3983">
        <ele>776.08</ele>
        <time>2026-08-21T11:13:44.955Z</time>
      </trkpt>
      <trkpt lat="45.00697" lon="2.39834">
        <ele>776.19</ele>
        <time>2026-08-21T11:13:46.957Z</time>
      </trkpt>
      <trkpt lat="45.00697" lon="2.39835">
        <ele>776.21</ele>
        <time>2026-08-21T11:13:47.379Z</time>
      </trkpt>
      <trkpt lat="45.00698" lon="2.39837">
        <ele>776.24</ele>
        <time>2026-08-21T11:13:49.288Z</time>
      </trkpt>
      <trkpt lat="45.007" lon="2.39841">
        <ele>776.34</ele>
        <time>2026-08-21T11:15:08.091Z</time>
      </trkpt>
      <trkpt lat="45.007" lon="2.39842">
        <ele>777.05</ele>
        <time>2026-08-21T11:15:09.129Z</time>
      </trkpt>
      <trkpt lat="45.00701" lon="2.39843">
        <ele>777.04</ele>
        <time>2026-08-21T11:15:10.131Z</time>
      </trkpt>
      <trkpt lat="45.00702" lon="2.39844">
        <ele>777.02</ele>
        <time>2026-08-21T11:15:11.132Z</time>
      </trkpt>
      <trkpt lat="45.00703" lon="2.39846">
        <ele>776.99</ele>
        <time>2026-08-21T11:15:12.135Z</time>
      </trkpt>
      <trkpt lat="45.00705" lon="2.39849">
        <ele>777.01</ele>
        <time>2026-08-21T11:15:13.136Z</time>
      </trkpt>
      <trkpt lat="45.00707" lon="2.39852">
        <ele>776.93</ele>
        <time>2026-08-21T11:15:14.140Z</time>
      </trkpt>
      <trkpt lat="45.00709" lon="2.39856">
        <ele>776.9</ele>
        <time>2026-08-21T11:15:15.141Z</time>
      </trkpt>
      <trkpt lat="45.00713" lon="2.39862">
        <ele>776.88</ele>
        <time>2026-08-21T11:15:16.213Z</time>
      </trkpt>
      <trkpt lat="45.00716" lon="2.39866">
        <ele>776.88</ele>
        <time>2026-08-21T11:15:17.146Z</time>
      </trkpt>
      <trkpt lat="45.0072" lon="2.3987">
        <ele>776.82</ele>
        <time>2026-08-21T11:15:17.234Z</time>
      </trkpt>
      <trkpt lat="45.00723" lon="2.39872">
        <ele>776.82</ele>
        <time>2026-08-21T11:15:19.216Z</time>
      </trkpt>
      <trkpt lat="45.00727" lon="2.39875">
        <ele>776.86</ele>
        <time>2026-08-21T11:15:20.151Z</time>
      </trkpt>
      <trkpt lat="45.00731" lon="2.39878">
        <ele>776.82</ele>
        <time>2026-08-21T11:15:21.155Z</time>
      </trkpt>
      <trkpt lat="45.00735" lon="2.39881">
        <ele>776.73</ele>
        <time>2026-08-21T11:15:22.156Z</time>
      </trkpt>
      <trkpt lat="45.00739" lon="2.39883">
        <ele>776.66</ele>
        <time>2026-08-21T11:15:23.158Z</time>
      </trkpt>
      <trkpt lat="45.00743" lon="2.39885">
        <ele>776.61</ele>
        <time>2026-08-21T11:15:24.161Z</time>
      </trkpt>
      <trkpt lat="45.00747" lon="2.39887">
        <ele>776.55</ele>
        <time>2026-08-21T11:15:25.162Z</time>
      </trkpt>
      <trkpt lat="45.0075" lon="2.3989">
        <ele>776.33</ele>
        <time>2026-08-21T11:15:26.164Z</time>
      </trkpt>
      <trkpt lat="45.00753" lon="2.39892">
        <ele>776.24</ele>
        <time>2026-08-21T11:15:27.167Z</time>
      </trkpt>
      <trkpt lat="45.00757" lon="2.39893">
        <ele>776.13</ele>
        <time>2026-08-21T11:15:28.168Z</time>
      </trkpt>
      <trkpt lat="45.0076" lon="2.39895">
        <ele>776.07</ele>
        <time>2026-08-21T11:15:29.172Z</time>
      </trkpt>
      <trkpt lat="45.00764" lon="2.39896">
        <ele>776.08</ele>
        <time>2026-08-21T11:15:29.244Z</time>
      </trkpt>
      <trkpt lat="45.00767" lon="2.39897">
        <ele>776.09</ele>
        <time>2026-08-21T11:15:31.176Z</time>
      </trkpt>
      <trkpt lat="45.00771" lon="2.39898">
        <ele>776.09</ele>
        <time>2026-08-21T11:15:32.177Z</time>
      </trkpt>
      <trkpt lat="45.00775" lon="2.39899">
        <ele>775.87</ele>
        <time>2026-08-21T11:15:33.179Z</time>
      </trkpt>
      <trkpt lat="45.00779" lon="2.399">
        <ele>775.86</ele>
        <time>2026-08-21T11:15:34.181Z</time>
      </trkpt>
      <trkpt lat="45.00782" lon="2.39901">
        <ele>775.83</ele>
        <time>2026-08-21T11:15:34.761Z</time>
      </trkpt>
      <trkpt lat="45.00786" lon="2.39902">
        <ele>775.7</ele>
        <time>2026-08-21T11:15:36.220Z</time>
      </trkpt>
      <trkpt lat="45.00792" lon="2.39903">
        <ele>775.62</ele>
        <time>2026-08-21T11:15:37.187Z</time>
      </trkpt>
      <trkpt lat="45.00797" lon="2.39905">
        <ele>775.54</ele>
        <time>2026-08-21T11:15:38.189Z</time>
      </trkpt>
      <trkpt lat="45.00801" lon="2.39907">
        <ele>775.48</ele>
        <time>2026-08-21T11:15:39.191Z</time>
      </trkpt>
      <trkpt lat="45.00805" lon="2.39909">
        <ele>775.3</ele>
        <time>2026-08-21T11:15:40.193Z</time>
      </trkpt>
      <trkpt lat="45.0081" lon="2.39911">
        <ele>775.23</ele>
        <time>2026-08-21T11:15:41.195Z</time>
      </trkpt>
      <trkpt lat="45.00813" lon="2.39914">
        <ele>775.19</ele>
        <time>2026-08-21T11:15:42.195Z</time>
      </trkpt>
      <trkpt lat="45.00817" lon="2.39917">
        <ele>775.16</ele>
        <time>2026-08-21T11:15:43.197Z</time>
      </trkpt>
      <trkpt lat="45.0082" lon="2.39919">
        <ele>775.06</ele>
        <time>2026-08-21T11:15:44.199Z</time>
      </trkpt>
      <trkpt lat="45.00823" lon="2.39922">
        <ele>774.87</ele>
        <time>2026-08-21T11:15:45.201Z</time>
      </trkpt>
      <trkpt lat="45.00826" lon="2.39925">
        <ele>774.55</ele>
        <time>2026-08-21T11:15:46.214Z</time>
      </trkpt>
      <trkpt lat="45.00829" lon="2.39928">
        <ele>774.44</ele>
        <time>2026-08-21T11:15:47.203Z</time>
      </trkpt>
      <trkpt lat="45.00831" lon="2.39931">
        <ele>774.37</ele>
        <time>2026-08-21T11:15:48.246Z</time>
      </trkpt>
      <trkpt lat="45.00835" lon="2.39934">
        <ele>774.3</ele>
        <time>2026-08-21T11:15:49.207Z</time>
      </trkpt>
      <trkpt lat="45.00837" lon="2.39938">
        <ele>774.27</ele>
        <time>2026-08-21T11:15:50.207Z</time>
      </trkpt>
      <trkpt lat="45.00839" lon="2.3994">
        <ele>774.16</ele>
        <time>2026-08-21T11:15:51.014Z</time>
      </trkpt>
      <trkpt lat="45.00841" lon="2.3994">
        <ele>774.14</ele>
        <time>2026-08-21T11:15:52.224Z</time>
      </trkpt>
      <trkpt lat="45.00843" lon="2.39939">
        <ele>774.11</ele>
        <time>2026-08-21T11:15:53.033Z</time>
      </trkpt>
      <trkpt lat="45.00845" lon="2.39937">
        <ele>774.12</ele>
        <time>2026-08-21T11:15:54.215Z</time>
      </trkpt>
      <trkpt lat="45.00847" lon="2.39935">
        <ele>774.17</ele>
        <time>2026-08-21T11:15:55.214Z</time>
      </trkpt>
      <trkpt lat="45.0085" lon="2.39932">
        <ele>774.18</ele>
        <time>2026-08-21T11:15:56.217Z</time>
      </trkpt>
      <trkpt lat="45.00851" lon="2.39931">
        <ele>774.22</ele>
        <time>2026-08-21T11:15:57.234Z</time>
      </trkpt>
      <trkpt lat="45.00853" lon="2.39929">
        <ele>774.26</ele>
        <time>2026-08-21T11:15:58.223Z</time>
      </trkpt>
      <trkpt lat="45.00855" lon="2.39927">
        <ele>774.32</ele>
        <time>2026-08-21T11:15:59.224Z</time>
      </trkpt>
      <trkpt lat="45.00858" lon="2.39925">
        <ele>774.37</ele>
        <time>2026-08-21T11:15:59.856Z</time>
      </trkpt>
      <trkpt lat="45.0086" lon="2.39922">
        <ele>774.42</ele>
        <time>2026-08-21T11:16:01.218Z</time>
      </trkpt>
      <trkpt lat="45.00862" lon="2.3992">
        <ele>774.43</ele>
        <time>2026-08-21T11:16:02.231Z</time>
      </trkpt>
      <trkpt lat="45.00864" lon="2.39918">
        <ele>774.48</ele>
        <time>2026-08-21T11:16:03.242Z</time>
      </trkpt>
      <trkpt lat="45.00867" lon="2.39916">
        <ele>774.5</ele>
        <time>2026-08-21T11:16:04.235Z</time>
      </trkpt>
      <trkpt lat="45.00869" lon="2.39914">
        <ele>774.52</ele>
        <time>2026-08-21T11:16:04.901Z</time>
      </trkpt>
      <trkpt lat="45.00871" lon="2.39912">
        <ele>774.57</ele>
        <time>2026-08-21T11:16:06.239Z</time>
      </trkpt>
      <trkpt lat="45.00874" lon="2.3991">
        <ele>774.63</ele>
        <time>2026-08-21T11:16:06.911Z</time>
      </trkpt>
      <trkpt lat="45.00876" lon="2.39907">
        <ele>774.69</ele>
        <time>2026-08-21T11:16:08.245Z</time>
      </trkpt>
      <trkpt lat="45.00879" lon="2.39905">
        <ele>774.74</ele>
        <time>2026-08-21T11:16:09.248Z</time>
      </trkpt>
      <trkpt lat="45.0088" lon="2.39903">
        <ele>774.78</ele>
        <time>2026-08-21T11:16:10.265Z</time>
      </trkpt>
      <trkpt lat="45.00882" lon="2.399">
        <ele>774.77</ele>
        <time>2026-08-21T11:16:11.251Z</time>
      </trkpt>
      <trkpt lat="45.00884" lon="2.39899">
        <ele>774.85</ele>
        <time>2026-08-21T11:16:11.827Z</time>
      </trkpt>
      <trkpt lat="45.00887" lon="2.39896">
        <ele>774.88</ele>
        <time>2026-08-21T11:16:12.848Z</time>
      </trkpt>
      <trkpt lat="45.00889" lon="2.39894">
        <ele>774.97</ele>
        <time>2026-08-21T11:16:14.112Z</time>
      </trkpt>
      <trkpt lat="45.00892" lon="2.39891">
        <ele>775.07</ele>
        <time>2026-08-21T11:16:15.261Z</time>
      </trkpt>
      <trkpt lat="45.00894" lon="2.39888">
        <ele>775.18</ele>
        <time>2026-08-21T11:16:16.262Z</time>
      </trkpt>
      <trkpt lat="45.00897" lon="2.39886">
        <ele>775.34</ele>
        <time>2026-08-21T11:16:17.265Z</time>
      </trkpt>
      <trkpt lat="45.00899" lon="2.39883">
        <ele>775.39</ele>
        <time>2026-08-21T11:16:17.923Z</time>
      </trkpt>
      <trkpt lat="45.00902" lon="2.3988">
        <ele>775.21</ele>
        <time>2026-08-21T11:16:19.229Z</time>
      </trkpt>
      <trkpt lat="45.00905" lon="2.39878">
        <ele>775.31</ele>
        <time>2026-08-21T11:16:20.271Z</time>
      </trkpt>
      <trkpt lat="45.00907" lon="2.39875">
        <ele>775.42</ele>
        <time>2026-08-21T11:16:21.241Z</time>
      </trkpt>
      <trkpt lat="45.00909" lon="2.39873">
        <ele>775.5</ele>
        <time>2026-08-21T11:16:22.278Z</time>
      </trkpt>
      <trkpt lat="45.00912" lon="2.3987">
        <ele>775.6</ele>
        <time>2026-08-21T11:16:23.233Z</time>
      </trkpt>
      <trkpt lat="45.00915" lon="2.39867">
        <ele>775.8</ele>
        <time>2026-08-21T11:16:24.282Z</time>
      </trkpt>
      <trkpt lat="45.00918" lon="2.39864">
        <ele>775.88</ele>
        <time>2026-08-21T11:16:24.319Z</time>
      </trkpt>
      <trkpt lat="45.00921" lon="2.39862">
        <ele>775.98</ele>
        <time>2026-08-21T11:16:26.289Z</time>
      </trkpt>
      <trkpt lat="45.00923" lon="2.39859">
        <ele>776.03</ele>
        <time>2026-08-21T11:16:27.202Z</time>
      </trkpt>
      <trkpt lat="45.00926" lon="2.39856">
        <ele>776.15</ele>
        <time>2026-08-21T11:16:28.292Z</time>
      </trkpt>
      <trkpt lat="45.00929" lon="2.39853">
        <ele>776.3</ele>
        <time>2026-08-21T11:16:28.311Z</time>
      </trkpt>
      <trkpt lat="45.00931" lon="2.39851">
        <ele>776.42</ele>
        <time>2026-08-21T11:16:29.963Z</time>
      </trkpt>
      <trkpt lat="45.00933" lon="2.39848">
        <ele>776.56</ele>
        <time>2026-08-21T11:16:31.307Z</time>
      </trkpt>
      <trkpt lat="45.00936" lon="2.39846">
        <ele>776.65</ele>
        <time>2026-08-21T11:16:32.299Z</time>
      </trkpt>
      <trkpt lat="45.00938" lon="2.39843">
        <ele>776.79</ele>
        <time>2026-08-21T11:16:33.303Z</time>
      </trkpt>
      <trkpt lat="45.00941" lon="2.3984">
        <ele>776.89</ele>
        <time>2026-08-21T11:16:34.302Z</time>
      </trkpt>
      <trkpt lat="45.00943" lon="2.39838">
        <ele>776.9</ele>
        <time>2026-08-21T11:16:34.900Z</time>
      </trkpt>
      <trkpt lat="45.00946" lon="2.39835">
        <ele>777.04</ele>
        <time>2026-08-21T11:16:35.841Z</time>
      </trkpt>
      <trkpt lat="45.00949" lon="2.39832">
        <ele>777.13</ele>
        <time>2026-08-21T11:16:37.157Z</time>
      </trkpt>
      <trkpt lat="45.00951" lon="2.3983">
        <ele>777.26</ele>
        <time>2026-08-21T11:16:38.138Z</time>
      </trkpt>
      <trkpt lat="45.00954" lon="2.39827">
        <ele>777.27</ele>
        <time>2026-08-21T11:16:39.162Z</time>
      </trkpt>
      <trkpt lat="45.00959" lon="2.39824">
        <ele>777.31</ele>
        <time>2026-08-21T11:16:40.149Z</time>
      </trkpt>
      <trkpt lat="45.00964" lon="2.39821">
        <ele>777.42</ele>
        <time>2026-08-21T11:16:41.174Z</time>
      </trkpt>
      <trkpt lat="45.00968" lon="2.39818">
        <ele>777.42</ele>
        <time>2026-08-21T11:16:42.161Z</time>
      </trkpt>
      <trkpt lat="45.00973" lon="2.39814">
        <ele>777.38</ele>
        <time>2026-08-21T11:16:43.183Z</time>
      </trkpt>
      <trkpt lat="45.00977" lon="2.39811">
        <ele>777.37</ele>
        <time>2026-08-21T11:16:44.167Z</time>
      </trkpt>
      <trkpt lat="45.00983" lon="2.39808">
        <ele>777.35</ele>
        <time>2026-08-21T11:16:45.193Z</time>
      </trkpt>
      <trkpt lat="45.00989" lon="2.39807">
        <ele>777.38</ele>
        <time>2026-08-21T11:16:46.148Z</time>
      </trkpt>
      <trkpt lat="45.00993" lon="2.39808">
        <ele>777.25</ele>
        <time>2026-08-21T11:16:47.170Z</time>
      </trkpt>
      <trkpt lat="45.00995" lon="2.3981">
        <ele>777.13</ele>
        <time>2026-08-21T11:16:48.225Z</time>
      </trkpt>
      <trkpt lat="45.00998" lon="2.39815">
        <ele>777.06</ele>
        <time>2026-08-21T11:16:49.227Z</time>
      </trkpt>
      <trkpt lat="45.01" lon="2.3982">
        <ele>777.04</ele>
        <time>2026-08-21T11:16:50.228Z</time>
      </trkpt>
      <trkpt lat="45.01002" lon="2.39826">
        <ele>776.92</ele>
        <time>2026-08-21T11:16:51.229Z</time>
      </trkpt>
      <trkpt lat="45.01004" lon="2.39832">
        <ele>776.81</ele>
        <time>2026-08-21T11:16:52.239Z</time>
      </trkpt>
      <trkpt lat="45.01006" lon="2.39837">
        <ele>776.77</ele>
        <time>2026-08-21T11:16:53.232Z</time>
      </trkpt>
      <trkpt lat="45.01007" lon="2.39842">
        <ele>776.75</ele>
        <time>2026-08-21T11:16:54.235Z</time>
      </trkpt>
      <trkpt lat="45.01008" lon="2.39846">
        <ele>776.72</ele>
        <time>2026-08-21T11:16:55.237Z</time>
      </trkpt>
      <trkpt lat="45.0101" lon="2.39851">
        <ele>776.64</ele>
        <time>2026-08-21T11:16:56.238Z</time>
      </trkpt>
      <trkpt lat="45.01011" lon="2.39854">
        <ele>776.63</ele>
        <time>2026-08-21T11:16:57.239Z</time>
      </trkpt>
      <trkpt lat="45.01012" lon="2.39859">
        <ele>776.67</ele>
        <time>2026-08-21T11:16:58.241Z</time>
      </trkpt>
      <trkpt lat="45.01014" lon="2.39863">
        <ele>776.56</ele>
        <time>2026-08-21T11:16:59.241Z</time>
      </trkpt>
      <trkpt lat="45.01017" lon="2.39867">
        <ele>776.56</ele>
        <time>2026-08-21T11:17:00.243Z</time>
      </trkpt>
      <trkpt lat="45.01018" lon="2.39871">
        <ele>776.72</ele>
        <time>2026-08-21T11:17:01.243Z</time>
      </trkpt>
      <trkpt lat="45.0102" lon="2.39874">
        <ele>776.68</ele>
        <time>2026-08-21T11:17:02.243Z</time>
      </trkpt>
      <trkpt lat="45.01021" lon="2.39878">
        <ele>776.64</ele>
        <time>2026-08-21T11:17:03.244Z</time>
      </trkpt>
      <trkpt lat="45.01023" lon="2.39882">
        <ele>776.69</ele>
        <time>2026-08-21T11:17:04.244Z</time>
      </trkpt>
      <trkpt lat="45.01025" lon="2.39886">
        <ele>776.66</ele>
        <time>2026-08-21T11:17:05.245Z</time>
      </trkpt>
      <trkpt lat="45.01026" lon="2.3989">
        <ele>776.71</ele>
        <time>2026-08-21T11:17:06.246Z</time>
      </trkpt>
      <trkpt lat="45.01028" lon="2.39894">
        <ele>776.6</ele>
        <time>2026-08-21T11:17:07.249Z</time>
      </trkpt>
      <trkpt lat="45.01029" lon="2.39897">
        <ele>776.57</ele>
        <time>2026-08-21T11:17:08.249Z</time>
      </trkpt>
      <trkpt lat="45.0103" lon="2.399">
        <ele>776.57</ele>
        <time>2026-08-21T11:17:09.250Z</time>
      </trkpt>
      <trkpt lat="45.01032" lon="2.39905">
        <ele>776.66</ele>
        <time>2026-08-21T11:17:09.884Z</time>
      </trkpt>
      <trkpt lat="45.01034" lon="2.39909">
        <ele>776.76</ele>
        <time>2026-08-21T11:17:11.252Z</time>
      </trkpt>
      <trkpt lat="45.01035" lon="2.39913">
        <ele>776.63</ele>
        <time>2026-08-21T11:17:12.253Z</time>
      </trkpt>
      <trkpt lat="45.01037" lon="2.39917">
        <ele>776.63</ele>
        <time>2026-08-21T11:17:13.256Z</time>
      </trkpt>
      <trkpt lat="45.01039" lon="2.39921">
        <ele>776.67</ele>
        <time>2026-08-21T11:17:14.256Z</time>
      </trkpt>
      <trkpt lat="45.01041" lon="2.39925">
        <ele>776.7</ele>
        <time>2026-08-21T11:17:15.259Z</time>
      </trkpt>
      <trkpt lat="45.01043" lon="2.39929">
        <ele>776.79</ele>
        <time>2026-08-21T11:17:16.259Z</time>
      </trkpt>
      <trkpt lat="45.01045" lon="2.39934">
        <ele>776.92</ele>
        <time>2026-08-21T11:17:17.245Z</time>
      </trkpt>
      <trkpt lat="45.01047" lon="2.39938">
        <ele>777</ele>
        <time>2026-08-21T11:17:18.262Z</time>
      </trkpt>
      <trkpt lat="45.01049" lon="2.39944">
        <ele>777.07</ele>
        <time>2026-08-21T11:17:19.268Z</time>
      </trkpt>
      <trkpt lat="45.01052" lon="2.39948">
        <ele>777.26</ele>
        <time>2026-08-21T11:17:20.264Z</time>
      </trkpt>
      <trkpt lat="45.01054" lon="2.39953">
        <ele>777.38</ele>
        <time>2026-08-21T11:17:21.264Z</time>
      </trkpt>
      <trkpt lat="45.01056" lon="2.39957">
        <ele>777.5</ele>
        <time>2026-08-21T11:17:22.267Z</time>
      </trkpt>
      <trkpt lat="45.01059" lon="2.39961">
        <ele>777.6</ele>
        <time>2026-08-21T11:17:23.267Z</time>
      </trkpt>
      <trkpt lat="45.01061" lon="2.39966">
        <ele>777.65</ele>
        <time>2026-08-21T11:17:24.268Z</time>
      </trkpt>
      <trkpt lat="45.01064" lon="2.39971">
        <ele>777.7</ele>
        <time>2026-08-21T11:17:25.270Z</time>
      </trkpt>
      <trkpt lat="45.01066" lon="2.39975">
        <ele>777.73</ele>
        <time>2026-08-21T11:17:26.272Z</time>
      </trkpt>
      <trkpt lat="45.01069" lon="2.39979">
        <ele>777.7</ele>
        <time>2026-08-21T11:17:27.273Z</time>
      </trkpt>
      <trkpt lat="45.01071" lon="2.39983">
        <ele>777.84</ele>
        <time>2026-08-21T11:17:28.275Z</time>
      </trkpt>
      <trkpt lat="45.01074" lon="2.39987">
        <ele>777.99</ele>
        <time>2026-08-21T11:17:29.277Z</time>
      </trkpt>
      <trkpt lat="45.01076" lon="2.39991">
        <ele>778.14</ele>
        <time>2026-08-21T11:17:30.278Z</time>
      </trkpt>
      <trkpt lat="45.01078" lon="2.39995">
        <ele>778.19</ele>
        <time>2026-08-21T11:17:31.278Z</time>
      </trkpt>
      <trkpt lat="45.0108" lon="2.39999">
        <ele>778.31</ele>
        <time>2026-08-21T11:17:32.136Z</time>
      </trkpt>
      <trkpt lat="45.01082" lon="2.40003">
        <ele>778.43</ele>
        <time>2026-08-21T11:17:33.281Z</time>
      </trkpt>
      <trkpt lat="45.01084" lon="2.40007">
        <ele>778.51</ele>
        <time>2026-08-21T11:17:33.881Z</time>
      </trkpt>
      <trkpt lat="45.01085" lon="2.40011">
        <ele>778.74</ele>
        <time>2026-08-21T11:17:35.280Z</time>
      </trkpt>
      <trkpt lat="45.01087" lon="2.40015">
        <ele>778.9</ele>
        <time>2026-08-21T11:17:36.186Z</time>
      </trkpt>
      <trkpt lat="45.01088" lon="2.40019">
        <ele>779.08</ele>
        <time>2026-08-21T11:17:37.283Z</time>
      </trkpt>
      <trkpt lat="45.0109" lon="2.40024">
        <ele>779.26</ele>
        <time>2026-08-21T11:17:38.282Z</time>
      </trkpt>
      <trkpt lat="45.01091" lon="2.40028">
        <ele>779.31</ele>
        <time>2026-08-21T11:17:39.282Z</time>
      </trkpt>
      <trkpt lat="45.01094" lon="2.40033">
        <ele>779.42</ele>
        <time>2026-08-21T11:17:40.282Z</time>
      </trkpt>
      <trkpt lat="45.01095" lon="2.40037">
        <ele>779.47</ele>
        <time>2026-08-21T11:17:41.281Z</time>
      </trkpt>
      <trkpt lat="45.01097" lon="2.40042">
        <ele>779.64</ele>
        <time>2026-08-21T11:17:42.281Z</time>
      </trkpt>
      <trkpt lat="45.01098" lon="2.40045">
        <ele>779.9</ele>
        <time>2026-08-21T11:17:43.273Z</time>
      </trkpt>
      <trkpt lat="45.01099" lon="2.40048">
        <ele>780.01</ele>
        <time>2026-08-21T11:17:44.271Z</time>
      </trkpt>
      <trkpt lat="45.01101" lon="2.40052">
        <ele>780.16</ele>
        <time>2026-08-21T11:17:45.374Z</time>
      </trkpt>
      <trkpt lat="45.01102" lon="2.40055">
        <ele>780.36</ele>
        <time>2026-08-21T11:17:45.978Z</time>
      </trkpt>
      <trkpt lat="45.01103" lon="2.40059">
        <ele>780.49</ele>
        <time>2026-08-21T11:17:46.967Z</time>
      </trkpt>
      <trkpt lat="45.01104" lon="2.40062">
        <ele>780.56</ele>
        <time>2026-08-21T11:17:47.958Z</time>
      </trkpt>
      <trkpt lat="45.01106" lon="2.40066">
        <ele>780.65</ele>
        <time>2026-08-21T11:17:48.950Z</time>
      </trkpt>
      <trkpt lat="45.01107" lon="2.40069">
        <ele>780.79</ele>
        <time>2026-08-21T11:17:50.020Z</time>
      </trkpt>
      <trkpt lat="45.01108" lon="2.40072">
        <ele>781.2</ele>
        <time>2026-08-21T11:17:50.954Z</time>
      </trkpt>
      <trkpt lat="45.0111" lon="2.40077">
        <ele>781.37</ele>
        <time>2026-08-21T11:17:51.945Z</time>
      </trkpt>
      <trkpt lat="45.01111" lon="2.4008">
        <ele>781.54</ele>
        <time>2026-08-21T11:17:52.966Z</time>
      </trkpt>
      <trkpt lat="45.01113" lon="2.40084">
        <ele>781.6</ele>
        <time>2026-08-21T11:17:53.946Z</time>
      </trkpt>
      <trkpt lat="45.01114" lon="2.40088">
        <ele>781.7</ele>
        <time>2026-08-21T11:17:54.972Z</time>
      </trkpt>
      <trkpt lat="45.01116" lon="2.40092">
        <ele>781.83</ele>
        <time>2026-08-21T11:17:55.965Z</time>
      </trkpt>
      <trkpt lat="45.01117" lon="2.40096">
        <ele>781.9</ele>
        <time>2026-08-21T11:17:57.039Z</time>
      </trkpt>
      <trkpt lat="45.01119" lon="2.401">
        <ele>782.02</ele>
        <time>2026-08-21T11:17:57.884Z</time>
      </trkpt>
      <trkpt lat="45.0112" lon="2.40103">
        <ele>782.18</ele>
        <time>2026-08-21T11:17:58.931Z</time>
      </trkpt>
      <trkpt lat="45.01122" lon="2.40107">
        <ele>782.35</ele>
        <time>2026-08-21T11:17:59.959Z</time>
      </trkpt>
      <trkpt lat="45.01123" lon="2.40111">
        <ele>782.5</ele>
        <time>2026-08-21T11:18:01.027Z</time>
      </trkpt>
      <trkpt lat="45.01124" lon="2.40115">
        <ele>782.62</ele>
        <time>2026-08-21T11:18:01.975Z</time>
      </trkpt>
      <trkpt lat="45.01125" lon="2.40119">
        <ele>782.78</ele>
        <time>2026-08-21T11:18:02.968Z</time>
      </trkpt>
      <trkpt lat="45.01127" lon="2.40123">
        <ele>782.94</ele>
        <time>2026-08-21T11:18:04.017Z</time>
      </trkpt>
      <trkpt lat="45.01128" lon="2.40127">
        <ele>783.04</ele>
        <time>2026-08-21T11:18:05.287Z</time>
      </trkpt>
      <trkpt lat="45.0113" lon="2.40132">
        <ele>783.17</ele>
        <time>2026-08-21T11:18:06.289Z</time>
      </trkpt>
      <trkpt lat="45.01131" lon="2.40135">
        <ele>783.33</ele>
        <time>2026-08-21T11:18:07.295Z</time>
      </trkpt>
      <trkpt lat="45.01132" lon="2.40138">
        <ele>783.46</ele>
        <time>2026-08-21T11:18:08.292Z</time>
      </trkpt>
      <trkpt lat="45.01133" lon="2.40141">
        <ele>783.53</ele>
        <time>2026-08-21T11:18:09.296Z</time>
      </trkpt>
      <trkpt lat="45.01135" lon="2.40145">
        <ele>783.83</ele>
        <time>2026-08-21T11:18:11.299Z</time>
      </trkpt>
      <trkpt lat="45.01137" lon="2.40149">
        <ele>784.47</ele>
        <time>2026-08-21T11:18:16.931Z</time>
      </trkpt>
      <trkpt lat="45.01138" lon="2.4015">
        <ele>784.58</ele>
        <time>2026-08-21T11:18:17.908Z</time>
      </trkpt>
      <trkpt lat="45.01138" lon="2.40152">
        <ele>784.66</ele>
        <time>2026-08-21T11:18:18.909Z</time>
      </trkpt>
      <trkpt lat="45.01139" lon="2.40154">
        <ele>784.72</ele>
        <time>2026-08-21T11:18:19.912Z</time>
      </trkpt>
      <trkpt lat="45.0114" lon="2.40156">
        <ele>784.79</ele>
        <time>2026-08-21T11:18:20.915Z</time>
      </trkpt>
      <trkpt lat="45.01141" lon="2.40159">
        <ele>784.89</ele>
        <time>2026-08-21T11:18:21.917Z</time>
      </trkpt>
      <trkpt lat="45.01142" lon="2.40163">
        <ele>785.02</ele>
        <time>2026-08-21T11:18:22.922Z</time>
      </trkpt>
      <trkpt lat="45.01143" lon="2.40166">
        <ele>785.05</ele>
        <time>2026-08-21T11:18:23.924Z</time>
      </trkpt>
      <trkpt lat="45.01144" lon="2.4017">
        <ele>785.14</ele>
        <time>2026-08-21T11:18:24.925Z</time>
      </trkpt>
      <trkpt lat="45.01145" lon="2.40173">
        <ele>785.23</ele>
        <time>2026-08-21T11:18:25.928Z</time>
      </trkpt>
      <trkpt lat="45.01147" lon="2.40177">
        <ele>785.29</ele>
        <time>2026-08-21T11:18:26.017Z</time>
      </trkpt>
      <trkpt lat="45.01148" lon="2.4018">
        <ele>785.31</ele>
        <time>2026-08-21T11:18:27.986Z</time>
      </trkpt>
      <trkpt lat="45.01149" lon="2.40184">
        <ele>785.29</ele>
        <time>2026-08-21T11:18:28.935Z</time>
      </trkpt>
      <trkpt lat="45.0115" lon="2.40188">
        <ele>785.38</ele>
        <time>2026-08-21T11:18:29.942Z</time>
      </trkpt>
      <trkpt lat="45.01151" lon="2.40193">
        <ele>785.39</ele>
        <time>2026-08-21T11:18:30.941Z</time>
      </trkpt>
      <trkpt lat="45.01152" lon="2.40197">
        <ele>785.31</ele>
        <time>2026-08-21T11:18:31.946Z</time>
      </trkpt>
      <trkpt lat="45.01152" lon="2.40201">
        <ele>785.33</ele>
        <time>2026-08-21T11:18:32.947Z</time>
      </trkpt>
      <trkpt lat="45.01153" lon="2.40206">
        <ele>785.37</ele>
        <time>2026-08-21T11:18:33.947Z</time>
      </trkpt>
      <trkpt lat="45.01153" lon="2.4021">
        <ele>785.33</ele>
        <time>2026-08-21T11:18:34.649Z</time>
      </trkpt>
      <trkpt lat="45.01154" lon="2.40215">
        <ele>785.32</ele>
        <time>2026-08-21T11:18:35.951Z</time>
      </trkpt>
      <trkpt lat="45.01153" lon="2.4022">
        <ele>785.3</ele>
        <time>2026-08-21T11:18:36.730Z</time>
      </trkpt>
      <trkpt lat="45.01152" lon="2.40223">
        <ele>785.28</ele>
        <time>2026-08-21T11:18:37.692Z</time>
      </trkpt>
      <trkpt lat="45.01151" lon="2.40227">
        <ele>785.28</ele>
        <time>2026-08-21T11:18:38.958Z</time>
      </trkpt>
      <trkpt lat="45.0115" lon="2.40231">
        <ele>785.31</ele>
        <time>2026-08-21T11:18:39.046Z</time>
      </trkpt>
      <trkpt lat="45.01149" lon="2.40235">
        <ele>785.29</ele>
        <time>2026-08-21T11:18:40.941Z</time>
      </trkpt>
      <trkpt lat="45.01148" lon="2.40238">
        <ele>785.28</ele>
        <time>2026-08-21T11:18:41.064Z</time>
      </trkpt>
      <trkpt lat="45.01147" lon="2.40241">
        <ele>785.27</ele>
        <time>2026-08-21T11:18:43.010Z</time>
      </trkpt>
      <trkpt lat="45.01145" lon="2.40244">
        <ele>785.33</ele>
        <time>2026-08-21T11:18:43.061Z</time>
      </trkpt>
      <trkpt lat="45.01144" lon="2.40247">
        <ele>785.38</ele>
        <time>2026-08-21T11:18:44.035Z</time>
      </trkpt>
      <trkpt lat="45.01142" lon="2.4025">
        <ele>785.44</ele>
        <time>2026-08-21T11:18:45.051Z</time>
      </trkpt>
      <trkpt lat="45.0114" lon="2.40253">
        <ele>785.52</ele>
        <time>2026-08-21T11:18:46.993Z</time>
      </trkpt>
      <trkpt lat="45.01138" lon="2.40255">
        <ele>785.58</ele>
        <time>2026-08-21T11:18:47.665Z</time>
      </trkpt>
      <trkpt lat="45.01136" lon="2.40258">
        <ele>785.63</ele>
        <time>2026-08-21T11:18:48.996Z</time>
      </trkpt>
      <trkpt lat="45.01135" lon="2.40261">
        <ele>785.72</ele>
        <time>2026-08-21T11:18:49.073Z</time>
      </trkpt>
      <trkpt lat="45.01133" lon="2.40264">
        <ele>785.62</ele>
        <time>2026-08-21T11:18:50.049Z</time>
      </trkpt>
      <trkpt lat="45.01131" lon="2.40267">
        <ele>785.7</ele>
        <time>2026-08-21T11:18:51.046Z</time>
      </trkpt>
      <trkpt lat="45.01129" lon="2.4027">
        <ele>785.79</ele>
        <time>2026-08-21T11:18:52.050Z</time>
      </trkpt>
      <trkpt lat="45.01127" lon="2.40273">
        <ele>785.8</ele>
        <time>2026-08-21T11:18:53.987Z</time>
      </trkpt>
      <trkpt lat="45.01126" lon="2.40276">
        <ele>785.84</ele>
        <time>2026-08-21T11:18:54.058Z</time>
      </trkpt>
      <trkpt lat="45.01124" lon="2.40278">
        <ele>785.88</ele>
        <time>2026-08-21T11:18:55.066Z</time>
      </trkpt>
      <trkpt lat="45.0112" lon="2.40285">
        <ele>785.96</ele>
        <time>2026-08-21T11:18:56.999Z</time>
      </trkpt>
      <trkpt lat="45.01118" lon="2.40288">
        <ele>786.17</ele>
        <time>2026-08-21T11:18:58.057Z</time>
      </trkpt>
      <trkpt lat="45.01116" lon="2.40291">
        <ele>786.27</ele>
        <time>2026-08-21T11:19:00.011Z</time>
      </trkpt>
      <trkpt lat="45.01114" lon="2.40294">
        <ele>786.34</ele>
        <time>2026-08-21T11:19:00.052Z</time>
      </trkpt>
      <trkpt lat="45.01111" lon="2.40299">
        <ele>786.44</ele>
        <time>2026-08-21T11:19:02.047Z</time>
      </trkpt>
      <trkpt lat="45.01108" lon="2.40302">
        <ele>786.67</ele>
        <time>2026-08-21T11:19:03.067Z</time>
      </trkpt>
      <trkpt lat="45.01107" lon="2.40305">
        <ele>786.74</ele>
        <time>2026-08-21T11:19:04.064Z</time>
      </trkpt>
      <trkpt lat="45.01104" lon="2.40308">
        <ele>786.85</ele>
        <time>2026-08-21T11:19:06.052Z</time>
      </trkpt>
      <trkpt lat="45.01102" lon="2.4031">
        <ele>786.96</ele>
        <time>2026-08-21T11:19:06.053Z</time>
      </trkpt>
      <trkpt lat="45.011" lon="2.40313">
        <ele>787.04</ele>
        <time>2026-08-21T11:19:07.960Z</time>
      </trkpt>
      <trkpt lat="45.01095" lon="2.40318">
        <ele>787.2</ele>
        <time>2026-08-21T11:19:09.050Z</time>
      </trkpt>
      <trkpt lat="45.0109" lon="2.40322">
        <ele>787.55</ele>
        <time>2026-08-21T11:19:10.792Z</time>
      </trkpt>
      <trkpt lat="45.01087" lon="2.40324">
        <ele>787.85</ele>
        <time>2026-08-21T11:19:12.062Z</time>
      </trkpt>
      <trkpt lat="45.01085" lon="2.40326">
        <ele>788.03</ele>
        <time>2026-08-21T11:19:13.777Z</time>
      </trkpt>
      <trkpt lat="45.01083" lon="2.40327">
        <ele>788.18</ele>
        <time>2026-08-21T11:19:15.059Z</time>
      </trkpt>
      <trkpt lat="45.01081" lon="2.40329">
        <ele>788.31</ele>
        <time>2026-08-21T11:19:15.065Z</time>
      </trkpt>
      <trkpt lat="45.01077" lon="2.40333">
        <ele>788.4</ele>
        <time>2026-08-21T11:19:17.053Z</time>
      </trkpt>
      <trkpt lat="45.01071" lon="2.40337">
        <ele>788.71</ele>
        <time>2026-08-21T11:19:19.058Z</time>
      </trkpt>
      <trkpt lat="45.01069" lon="2.40338">
        <ele>789.03</ele>
        <time>2026-08-21T11:19:20.058Z</time>
      </trkpt>
      <trkpt lat="45.01067" lon="2.4034">
        <ele>789.21</ele>
        <time>2026-08-21T11:19:21.062Z</time>
      </trkpt>
      <trkpt lat="45.01064" lon="2.40341">
        <ele>789.37</ele>
        <time>2026-08-21T11:19:22.065Z</time>
      </trkpt>
      <trkpt lat="45.01062" lon="2.40341">
        <ele>789.5</ele>
        <time>2026-08-21T11:19:23.068Z</time>
      </trkpt>
      <trkpt lat="45.01061" lon="2.40342">
        <ele>789.62</ele>
        <time>2026-08-21T11:19:23.584Z</time>
      </trkpt>
      <trkpt lat="45.01059" lon="2.40343">
        <ele>789.77</ele>
        <time>2026-08-21T11:19:25.976Z</time>
      </trkpt>
      <trkpt lat="45.01056" lon="2.40346">
        <ele>790.02</ele>
        <time>2026-08-21T11:19:26.981Z</time>
      </trkpt>
      <trkpt lat="45.01055" lon="2.40348">
        <ele>790.22</ele>
        <time>2026-08-21T11:19:28.986Z</time>
      </trkpt>
      <trkpt lat="45.01055" lon="2.40352">
        <ele>790.45</ele>
        <time>2026-08-21T11:19:30.991Z</time>
      </trkpt>
      <trkpt lat="45.01056" lon="2.40356">
        <ele>790.5</ele>
        <time>2026-08-21T11:19:33.054Z</time>
      </trkpt>
      <trkpt lat="45.01057" lon="2.40358">
        <ele>790.64</ele>
        <time>2026-08-21T11:19:34.003Z</time>
      </trkpt>
      <trkpt lat="45.01058" lon="2.40362">
        <ele>790.77</ele>
        <time>2026-08-21T11:19:36.006Z</time>
      </trkpt>
      <trkpt lat="45.01058" lon="2.40363">
        <ele>790.84</ele>
        <time>2026-08-21T11:19:37.014Z</time>
      </trkpt>
      <trkpt lat="45.01059" lon="2.40368">
        <ele>790.93</ele>
        <time>2026-08-21T11:19:39.015Z</time>
      </trkpt>
      <trkpt lat="45.01059" lon="2.40369">
        <ele>790.97</ele>
        <time>2026-08-21T11:19:40.023Z</time>
      </trkpt>
      <trkpt lat="45.0106" lon="2.40373">
        <ele>791.06</ele>
        <time>2026-08-21T11:19:42.026Z</time>
      </trkpt>
      <trkpt lat="45.0106" lon="2.40376">
        <ele>791.37</ele>
        <time>2026-08-21T11:20:35.435Z</time>
      </trkpt>
      <trkpt lat="45.01061" lon="2.40378">
        <ele>792.11</ele>
        <time>2026-08-21T11:20:36.925Z</time>
      </trkpt>
      <trkpt lat="45.01061" lon="2.40381">
        <ele>792.09</ele>
        <time>2026-08-21T11:20:36.929Z</time>
      </trkpt>
      <trkpt lat="45.01061" lon="2.40384">
        <ele>792.06</ele>
        <time>2026-08-21T11:20:38.916Z</time>
      </trkpt>
      <trkpt lat="45.01062" lon="2.40388">
        <ele>792.04</ele>
        <time>2026-08-21T11:20:39.919Z</time>
      </trkpt>
      <trkpt lat="45.01062" lon="2.40391">
        <ele>791.99</ele>
        <time>2026-08-21T11:20:40.348Z</time>
      </trkpt>
      <trkpt lat="45.01063" lon="2.40395">
        <ele>791.92</ele>
        <time>2026-08-21T11:20:40.950Z</time>
      </trkpt>
      <trkpt lat="45.01064" lon="2.40399">
        <ele>791.91</ele>
        <time>2026-08-21T11:20:41.952Z</time>
      </trkpt>
      <trkpt lat="45.01064" lon="2.40403">
        <ele>791.88</ele>
        <time>2026-08-21T11:20:43.899Z</time>
      </trkpt>
      <trkpt lat="45.01065" lon="2.40406">
        <ele>791.84</ele>
        <time>2026-08-21T11:20:44.441Z</time>
      </trkpt>
      <trkpt lat="45.01066" lon="2.4041">
        <ele>791.83</ele>
        <time>2026-08-21T11:20:45.915Z</time>
      </trkpt>
      <trkpt lat="45.01067" lon="2.40413">
        <ele>791.77</ele>
        <time>2026-08-21T11:20:46.448Z</time>
      </trkpt>
      <trkpt lat="45.01068" lon="2.40417">
        <ele>791.71</ele>
        <time>2026-08-21T11:20:47.014Z</time>
      </trkpt>
      <trkpt lat="45.01069" lon="2.4042">
        <ele>791.71</ele>
        <time>2026-08-21T11:20:48.457Z</time>
      </trkpt>
      <trkpt lat="45.0107" lon="2.40424">
        <ele>791.69</ele>
        <time>2026-08-21T11:20:48.962Z</time>
      </trkpt>
      <trkpt lat="45.01071" lon="2.40428">
        <ele>791.63</ele>
        <time>2026-08-21T11:20:50.926Z</time>
      </trkpt>
      <trkpt lat="45.01072" lon="2.40431">
        <ele>791.6</ele>
        <time>2026-08-21T11:20:51.728Z</time>
      </trkpt>
      <trkpt lat="45.01073" lon="2.40435">
        <ele>791.57</ele>
        <time>2026-08-21T11:20:52.902Z</time>
      </trkpt>
      <trkpt lat="45.01075" lon="2.40438">
        <ele>791.55</ele>
        <time>2026-08-21T11:20:53.435Z</time>
      </trkpt>
      <trkpt lat="45.01076" lon="2.40442">
        <ele>791.57</ele>
        <time>2026-08-21T11:20:53.947Z</time>
      </trkpt>
      <trkpt lat="45.01078" lon="2.40446">
        <ele>791.56</ele>
        <time>2026-08-21T11:20:55.914Z</time>
      </trkpt>
      <trkpt lat="45.0108" lon="2.40449">
        <ele>791.54</ele>
        <time>2026-08-21T11:20:56.850Z</time>
      </trkpt>
      <trkpt lat="45.01081" lon="2.40451">
        <ele>791.48</ele>
        <time>2026-08-21T11:20:57.912Z</time>
      </trkpt>
      <trkpt lat="45.01083" lon="2.40454">
        <ele>791.46</ele>
        <time>2026-08-21T11:20:58.853Z</time>
      </trkpt>
      <trkpt lat="45.01086" lon="2.40457">
        <ele>791.45</ele>
        <time>2026-08-21T11:20:59.855Z</time>
      </trkpt>
      <trkpt lat="45.01088" lon="2.4046">
        <ele>791.43</ele>
        <time>2026-08-21T11:21:00.860Z</time>
      </trkpt>
      <trkpt lat="45.0109" lon="2.40464">
        <ele>791.4</ele>
        <time>2026-08-21T11:21:01.861Z</time>
      </trkpt>
      <trkpt lat="45.01091" lon="2.40468">
        <ele>791.36</ele>
        <time>2026-08-21T11:21:02.867Z</time>
      </trkpt>
      <trkpt lat="45.01093" lon="2.4047">
        <ele>791.31</ele>
        <time>2026-08-21T11:21:03.866Z</time>
      </trkpt>
      <trkpt lat="45.01095" lon="2.40473">
        <ele>791.28</ele>
        <time>2026-08-21T11:21:03.958Z</time>
      </trkpt>
      <trkpt lat="45.01097" lon="2.40476">
        <ele>791.23</ele>
        <time>2026-08-21T11:21:05.869Z</time>
      </trkpt>
      <trkpt lat="45.01099" lon="2.40479">
        <ele>791.14</ele>
        <time>2026-08-21T11:21:06.875Z</time>
      </trkpt>
      <trkpt lat="45.01102" lon="2.40483">
        <ele>791.1</ele>
        <time>2026-08-21T11:21:07.873Z</time>
      </trkpt>
      <trkpt lat="45.01104" lon="2.40487">
        <ele>791.06</ele>
        <time>2026-08-21T11:21:08.873Z</time>
      </trkpt>
      <trkpt lat="45.01106" lon="2.4049">
        <ele>791.03</ele>
        <time>2026-08-21T11:21:09.875Z</time>
      </trkpt>
      <trkpt lat="45.01107" lon="2.40493">
        <ele>790.97</ele>
        <time>2026-08-21T11:21:10.877Z</time>
      </trkpt>
      <trkpt lat="45.0111" lon="2.40497">
        <ele>790.74</ele>
        <time>2026-08-21T11:21:11.879Z</time>
      </trkpt>
      <trkpt lat="45.01112" lon="2.405">
        <ele>790.71</ele>
        <time>2026-08-21T11:21:12.882Z</time>
      </trkpt>
      <trkpt lat="45.01114" lon="2.40503">
        <ele>790.61</ele>
        <time>2026-08-21T11:21:13.881Z</time>
      </trkpt>
      <trkpt lat="45.01115" lon="2.40507">
        <ele>790.55</ele>
        <time>2026-08-21T11:21:14.883Z</time>
      </trkpt>
      <trkpt lat="45.01117" lon="2.40511">
        <ele>790.43</ele>
        <time>2026-08-21T11:21:15.932Z</time>
      </trkpt>
      <trkpt lat="45.01119" lon="2.40515">
        <ele>790.36</ele>
        <time>2026-08-21T11:21:16.884Z</time>
      </trkpt>
      <trkpt lat="45.01121" lon="2.4052">
        <ele>790.42</ele>
        <time>2026-08-21T11:21:17.886Z</time>
      </trkpt>
      <trkpt lat="45.01124" lon="2.40525">
        <ele>790.46</ele>
        <time>2026-08-21T11:21:17.983Z</time>
      </trkpt>
      <trkpt lat="45.01126" lon="2.4053">
        <ele>790.43</ele>
        <time>2026-08-21T11:21:19.888Z</time>
      </trkpt>
      <trkpt lat="45.01128" lon="2.40534">
        <ele>790.34</ele>
        <time>2026-08-21T11:21:20.890Z</time>
      </trkpt>
      <trkpt lat="45.0113" lon="2.40537">
        <ele>790.25</ele>
        <time>2026-08-21T11:21:21.893Z</time>
      </trkpt>
      <trkpt lat="45.01133" lon="2.40541">
        <ele>790.07</ele>
        <time>2026-08-21T11:21:21.987Z</time>
      </trkpt>
      <trkpt lat="45.01135" lon="2.40547">
        <ele>790.05</ele>
        <time>2026-08-21T11:21:23.894Z</time>
      </trkpt>
      <trkpt lat="45.01138" lon="2.40551">
        <ele>790.01</ele>
        <time>2026-08-21T11:21:24.897Z</time>
      </trkpt>
      <trkpt lat="45.0114" lon="2.40555">
        <ele>789.88</ele>
        <time>2026-08-21T11:21:25.898Z</time>
      </trkpt>
      <trkpt lat="45.01142" lon="2.40559">
        <ele>789.82</ele>
        <time>2026-08-21T11:21:26.902Z</time>
      </trkpt>
      <trkpt lat="45.01144" lon="2.40562">
        <ele>789.58</ele>
        <time>2026-08-21T11:21:27.903Z</time>
      </trkpt>
      <trkpt lat="45.01146" lon="2.40566">
        <ele>789.6</ele>
        <time>2026-08-21T11:21:28.904Z</time>
      </trkpt>
      <trkpt lat="45.01148" lon="2.40569">
        <ele>789.7</ele>
        <time>2026-08-21T11:21:29.579Z</time>
      </trkpt>
      <trkpt lat="45.0115" lon="2.40574">
        <ele>789.71</ele>
        <time>2026-08-21T11:21:30.908Z</time>
      </trkpt>
      <trkpt lat="45.01152" lon="2.40579">
        <ele>789.59</ele>
        <time>2026-08-21T11:21:31.909Z</time>
      </trkpt>
      <trkpt lat="45.01154" lon="2.40583">
        <ele>789.56</ele>
        <time>2026-08-21T11:21:32.916Z</time>
      </trkpt>
      <trkpt lat="45.01156" lon="2.40587">
        <ele>789.46</ele>
        <time>2026-08-21T11:21:33.914Z</time>
      </trkpt>
      <trkpt lat="45.01158" lon="2.40591">
        <ele>789.47</ele>
        <time>2026-08-21T11:21:34.919Z</time>
      </trkpt>
      <trkpt lat="45.0116" lon="2.40596">
        <ele>789.47</ele>
        <time>2026-08-21T11:21:35.919Z</time>
      </trkpt>
      <trkpt lat="45.01162" lon="2.406">
        <ele>789.42</ele>
        <time>2026-08-21T11:21:36.922Z</time>
      </trkpt>
      <trkpt lat="45.01165" lon="2.40605">
        <ele>789.38</ele>
        <time>2026-08-21T11:21:37.922Z</time>
      </trkpt>
      <trkpt lat="45.01167" lon="2.40609">
        <ele>789.36</ele>
        <time>2026-08-21T11:21:38.768Z</time>
      </trkpt>
      <trkpt lat="45.0117" lon="2.40614">
        <ele>789.22</ele>
        <time>2026-08-21T11:21:39.927Z</time>
      </trkpt>
      <trkpt lat="45.01173" lon="2.40618">
        <ele>789.2</ele>
        <time>2026-08-21T11:21:40.784Z</time>
      </trkpt>
      <trkpt lat="45.01175" lon="2.40621">
        <ele>789.19</ele>
        <time>2026-08-21T11:21:41.930Z</time>
      </trkpt>
      <trkpt lat="45.01177" lon="2.40625">
        <ele>789.19</ele>
        <time>2026-08-21T11:21:42.948Z</time>
      </trkpt>
      <trkpt lat="45.0118" lon="2.40628">
        <ele>788.92</ele>
        <time>2026-08-21T11:21:43.935Z</time>
      </trkpt>
      <trkpt lat="45.01182" lon="2.40631">
        <ele>788.79</ele>
        <time>2026-08-21T11:21:44.938Z</time>
      </trkpt>
      <trkpt lat="45.01184" lon="2.40635">
        <ele>788.75</ele>
        <time>2026-08-21T11:21:45.940Z</time>
      </trkpt>
      <trkpt lat="45.01185" lon="2.40639">
        <ele>788.76</ele>
        <time>2026-08-21T11:21:46.943Z</time>
      </trkpt>
      <trkpt lat="45.01186" lon="2.40642">
        <ele>788.87</ele>
        <time>2026-08-21T11:21:47.945Z</time>
      </trkpt>
      <trkpt lat="45.01185" lon="2.40645">
        <ele>788.79</ele>
        <time>2026-08-21T11:21:48.459Z</time>
      </trkpt>
      <trkpt lat="45.01184" lon="2.40649">
        <ele>788.77</ele>
        <time>2026-08-21T11:21:49.951Z</time>
      </trkpt>
      <trkpt lat="45.01182" lon="2.40654">
        <ele>788.88</ele>
        <time>2026-08-21T11:21:50.954Z</time>
      </trkpt>
      <trkpt lat="45.0118" lon="2.40658">
        <ele>788.87</ele>
        <time>2026-08-21T11:21:51.958Z</time>
      </trkpt>
      <trkpt lat="45.01179" lon="2.40663">
        <ele>788.94</ele>
        <time>2026-08-21T11:21:52.959Z</time>
      </trkpt>
      <trkpt lat="45.01177" lon="2.40668">
        <ele>789</ele>
        <time>2026-08-21T11:21:53.962Z</time>
      </trkpt>
      <trkpt lat="45.01175" lon="2.40673">
        <ele>788.96</ele>
        <time>2026-08-21T11:21:54.988Z</time>
      </trkpt>
      <trkpt lat="45.01174" lon="2.40679">
        <ele>788.92</ele>
        <time>2026-08-21T11:21:55.960Z</time>
      </trkpt>
      <trkpt lat="45.01172" lon="2.40685">
        <ele>788.76</ele>
        <time>2026-08-21T11:21:56.464Z</time>
      </trkpt>
      <trkpt lat="45.01171" lon="2.40691">
        <ele>788.66</ele>
        <time>2026-08-21T11:21:58.023Z</time>
      </trkpt>
      <trkpt lat="45.0117" lon="2.40696">
        <ele>788.69</ele>
        <time>2026-08-21T11:21:58.056Z</time>
      </trkpt>
      <trkpt lat="45.01168" lon="2.40701">
        <ele>788.71</ele>
        <time>2026-08-21T11:21:59.065Z</time>
      </trkpt>
      <trkpt lat="45.01167" lon="2.40706">
        <ele>788.82</ele>
        <time>2026-08-21T11:22:00.973Z</time>
      </trkpt>
      <trkpt lat="45.01165" lon="2.4071">
        <ele>788.62</ele>
        <time>2026-08-21T11:22:01.059Z</time>
      </trkpt>
      <trkpt lat="45.01164" lon="2.40715">
        <ele>788.67</ele>
        <time>2026-08-21T11:22:02.068Z</time>
      </trkpt>
      <trkpt lat="45.01162" lon="2.4072">
        <ele>788.64</ele>
        <time>2026-08-21T11:22:03.987Z</time>
      </trkpt>
      <trkpt lat="45.0116" lon="2.40726">
        <ele>788.72</ele>
        <time>2026-08-21T11:22:04.068Z</time>
      </trkpt>
      <trkpt lat="45.01158" lon="2.40732">
        <ele>788.44</ele>
        <time>2026-08-21T11:22:05.592Z</time>
      </trkpt>
      <trkpt lat="45.01156" lon="2.40738">
        <ele>788.34</ele>
        <time>2026-08-21T11:22:06.604Z</time>
      </trkpt>
      <trkpt lat="45.01155" lon="2.40743">
        <ele>788.33</ele>
        <time>2026-08-21T11:22:07.075Z</time>
      </trkpt>
      <trkpt lat="45.01152" lon="2.40751">
        <ele>787.78</ele>
        <time>2026-08-21T11:22:08.047Z</time>
      </trkpt>
      <trkpt lat="45.0115" lon="2.40756">
        <ele>787.73</ele>
        <time>2026-08-21T11:22:09.607Z</time>
      </trkpt>
      <trkpt lat="45.01148" lon="2.40762">
        <ele>787.81</ele>
        <time>2026-08-21T11:22:10.082Z</time>
      </trkpt>
      <trkpt lat="45.01146" lon="2.40769">
        <ele>788.02</ele>
        <time>2026-08-21T11:22:11.070Z</time>
      </trkpt>
      <trkpt lat="45.01143" lon="2.40776">
        <ele>788.17</ele>
        <time>2026-08-21T11:22:12.082Z</time>
      </trkpt>
      <trkpt lat="45.01141" lon="2.40782">
        <ele>788.33</ele>
        <time>2026-08-21T11:22:13.926Z</time>
      </trkpt>
      <trkpt lat="45.01135" lon="2.40797">
        <ele>788.3</ele>
        <time>2026-08-21T11:22:15.043Z</time>
      </trkpt>
      <trkpt lat="45.01131" lon="2.40805">
        <ele>787.37</ele>
        <time>2026-08-21T11:22:16.063Z</time>
      </trkpt>
      <trkpt lat="45.01128" lon="2.40812">
        <ele>787.1</ele>
        <time>2026-08-21T11:22:17.062Z</time>
      </trkpt>
      <trkpt lat="45.01127" lon="2.40819">
        <ele>786.63</ele>
        <time>2026-08-21T11:22:18.081Z</time>
      </trkpt>
      <trkpt lat="45.01129" lon="2.40825">
        <ele>786.43</ele>
        <time>2026-08-21T11:22:19.077Z</time>
      </trkpt>
      <trkpt lat="45.01131" lon="2.40829">
        <ele>786.41</ele>
        <time>2026-08-21T11:22:20.052Z</time>
      </trkpt>
      <trkpt lat="45.01135" lon="2.40833">
        <ele>785.61</ele>
        <time>2026-08-21T11:22:21.582Z</time>
      </trkpt>
      <trkpt lat="45.01138" lon="2.40836">
        <ele>785.31</ele>
        <time>2026-08-21T11:22:22.573Z</time>
      </trkpt>
      <trkpt lat="45.01143" lon="2.40839">
        <ele>785.02</ele>
        <time>2026-08-21T11:22:23.567Z</time>
      </trkpt>
      <trkpt lat="45.01148" lon="2.40842">
        <ele>784.7</ele>
        <time>2026-08-21T11:22:25.056Z</time>
      </trkpt>
      <trkpt lat="45.01153" lon="2.40845">
        <ele>784.29</ele>
        <time>2026-08-21T11:22:25.079Z</time>
      </trkpt>
      <trkpt lat="45.0116" lon="2.40849">
        <ele>784.3</ele>
        <time>2026-08-21T11:22:26.601Z</time>
      </trkpt>
      <trkpt lat="45.01171" lon="2.40855">
        <ele>783.82</ele>
        <time>2026-08-21T11:22:27.579Z</time>
      </trkpt>
      <trkpt lat="45.01193" lon="2.40864">
        <ele>782.43</ele>
        <time>2026-08-21T11:22:29.061Z</time>
      </trkpt>
      <trkpt lat="45.01202" lon="2.40868">
        <ele>781.43</ele>
        <time>2026-08-21T11:22:30.580Z</time>
      </trkpt>
      <trkpt lat="45.01211" lon="2.40873">
        <ele>781.03</ele>
        <time>2026-08-21T11:22:31.601Z</time>
      </trkpt>
      <trkpt lat="45.01219" lon="2.4088">
        <ele>780.57</ele>
        <time>2026-08-21T11:22:33.073Z</time>
      </trkpt>
      <trkpt lat="45.01236" lon="2.40893">
        <ele>780.18</ele>
        <time>2026-08-21T11:22:35.063Z</time>
      </trkpt>
      <trkpt lat="45.01242" lon="2.40901">
        <ele>777.7</ele>
        <time>2026-08-21T11:22:36.082Z</time>
      </trkpt>
      <trkpt lat="45.01255" lon="2.40922">
        <ele>776.96</ele>
        <time>2026-08-21T11:22:38.063Z</time>
      </trkpt>
      <trkpt lat="45.01259" lon="2.40932">
        <ele>775.77</ele>
        <time>2026-08-21T11:22:40.073Z</time>
      </trkpt>
      <trkpt lat="45.01267" lon="2.40962">
        <ele>775.28</ele>
        <time>2026-08-21T11:22:42.064Z</time>
      </trkpt>
      <trkpt lat="45.01273" lon="2.40974">
        <ele>771.66</ele>
        <time>2026-08-21T11:22:43.014Z</time>
      </trkpt>
      <trkpt lat="45.01278" lon="2.40986">
        <ele>770.6</ele>
        <time>2026-08-21T11:22:45.064Z</time>
      </trkpt>
      <trkpt lat="45.01283" lon="2.40998">
        <ele>770.16</ele>
        <time>2026-08-21T11:22:46.597Z</time>
      </trkpt>
      <trkpt lat="45.01288" lon="2.4101">
        <ele>769.02</ele>
        <time>2026-08-21T11:22:47.554Z</time>
      </trkpt>
      <trkpt lat="45.01293" lon="2.41029">
        <ele>767.52</ele>
        <time>2026-08-21T11:22:49.044Z</time>
      </trkpt>
      <trkpt lat="45.01295" lon="2.4104">
        <ele>766.73</ele>
        <time>2026-08-21T11:22:49.445Z</time>
      </trkpt>
      <trkpt lat="45.01296" lon="2.4105">
        <ele>764.89</ele>
        <time>2026-08-21T11:22:50.949Z</time>
      </trkpt>
      <trkpt lat="45.01296" lon="2.41059">
        <ele>763.54</ele>
        <time>2026-08-21T11:22:52.048Z</time>
      </trkpt>
      <trkpt lat="45.01296" lon="2.41065">
        <ele>762.2</ele>
        <time>2026-08-21T11:22:52.596Z</time>
      </trkpt>
      <trkpt lat="45.01294" lon="2.41085">
        <ele>760.67</ele>
        <time>2026-08-21T11:22:55.050Z</time>
      </trkpt>
      <trkpt lat="45.01294" lon="2.41089">
        <ele>759.31</ele>
        <time>2026-08-21T11:22:57.059Z</time>
      </trkpt>
      <trkpt lat="45.01292" lon="2.41092">
        <ele>757.65</ele>
        <time>2026-08-21T11:23:01.117Z</time>
      </trkpt>
      <trkpt lat="45.0129" lon="2.41094">
        <ele>755.4</ele>
        <time>2026-08-21T11:23:25.691Z</time>
      </trkpt>
      <trkpt lat="45.01288" lon="2.41093">
        <ele>754.28</ele>
        <time>2026-08-21T11:23:28.769Z</time>
      </trkpt>
      <trkpt lat="45.01286" lon="2.41092">
        <ele>754.2</ele>
        <time>2026-08-21T11:23:29.774Z</time>
      </trkpt>
      <trkpt lat="45.01283" lon="2.4109">
        <ele>753.81</ele>
        <time>2026-08-21T11:23:30.776Z</time>
      </trkpt>
      <trkpt lat="45.01282" lon="2.4109">
        <ele>753.89</ele>
        <time>2026-08-21T11:23:31.780Z</time>
      </trkpt>
      <trkpt lat="45.01274" lon="2.41088">
        <ele>753.89</ele>
        <time>2026-08-21T11:23:32.783Z</time>
      </trkpt>
      <trkpt lat="45.01263" lon="2.41088">
        <ele>751.96</ele>
        <time>2026-08-21T11:23:33.791Z</time>
      </trkpt>
      <trkpt lat="45.01254" lon="2.41089">
        <ele>751.46</ele>
        <time>2026-08-21T11:23:34.787Z</time>
      </trkpt>
      <trkpt lat="45.01245" lon="2.41089">
        <ele>751.28</ele>
        <time>2026-08-21T11:23:35.790Z</time>
      </trkpt>
      <trkpt lat="45.01235" lon="2.4109">
        <ele>750.15</ele>
        <time>2026-08-21T11:23:36.794Z</time>
      </trkpt>
      <trkpt lat="45.01226" lon="2.41091">
        <ele>749.86</ele>
        <time>2026-08-21T11:23:37.800Z</time>
      </trkpt>
      <trkpt lat="45.01217" lon="2.41092">
        <ele>749.89</ele>
        <time>2026-08-21T11:23:38.797Z</time>
      </trkpt>
      <trkpt lat="45.01208" lon="2.41094">
        <ele>749.63</ele>
        <time>2026-08-21T11:23:39.801Z</time>
      </trkpt>
      <trkpt lat="45.01199" lon="2.41097">
        <ele>749.09</ele>
        <time>2026-08-21T11:23:40.804Z</time>
      </trkpt>
      <trkpt lat="45.01191" lon="2.41099">
        <ele>747.89</ele>
        <time>2026-08-21T11:23:41.805Z</time>
      </trkpt>
      <trkpt lat="45.01182" lon="2.41103">
        <ele>747.3</ele>
        <time>2026-08-21T11:23:42.807Z</time>
      </trkpt>
      <trkpt lat="45.01174" lon="2.41107">
        <ele>746.76</ele>
        <time>2026-08-21T11:23:43.814Z</time>
      </trkpt>
      <trkpt lat="45.01165" lon="2.41113">
        <ele>745.88</ele>
        <time>2026-08-21T11:23:44.814Z</time>
      </trkpt>
      <trkpt lat="45.01157" lon="2.41119">
        <ele>744.99</ele>
        <time>2026-08-21T11:23:45.818Z</time>
      </trkpt>
      <trkpt lat="45.01148" lon="2.41126">
        <ele>744.54</ele>
        <time>2026-08-21T11:23:46.819Z</time>
      </trkpt>
      <trkpt lat="45.01139" lon="2.41133">
        <ele>743.79</ele>
        <time>2026-08-21T11:23:47.821Z</time>
      </trkpt>
      <trkpt lat="45.01128" lon="2.4114">
        <ele>742.7</ele>
        <time>2026-08-21T11:23:48.822Z</time>
      </trkpt>
      <trkpt lat="45.01119" lon="2.41147">
        <ele>741.69</ele>
        <time>2026-08-21T11:23:49.823Z</time>
      </trkpt>
      <trkpt lat="45.0111" lon="2.41155">
        <ele>740.78</ele>
        <time>2026-08-21T11:23:50.823Z</time>
      </trkpt>
      <trkpt lat="45.01101" lon="2.41163">
        <ele>739.89</ele>
        <time>2026-08-21T11:23:51.824Z</time>
      </trkpt>
      <trkpt lat="45.01093" lon="2.41173">
        <ele>739.11</ele>
        <time>2026-08-21T11:23:52.824Z</time>
      </trkpt>
      <trkpt lat="45.01086" lon="2.41184">
        <ele>737.41</ele>
        <time>2026-08-21T11:23:53.824Z</time>
      </trkpt>
      <trkpt lat="45.0108" lon="2.41195">
        <ele>736.37</ele>
        <time>2026-08-21T11:23:54.823Z</time>
      </trkpt>
      <trkpt lat="45.01079" lon="2.41199">
        <ele>735.83</ele>
        <time>2026-08-21T11:23:55.822Z</time>
      </trkpt>
      <trkpt lat="45.01073" lon="2.41212">
        <ele>735.3</ele>
        <time>2026-08-21T11:23:56.823Z</time>
      </trkpt>
      <trkpt lat="45.01069" lon="2.41216">
        <ele>734.82</ele>
        <time>2026-08-21T11:23:57.824Z</time>
      </trkpt>
      <trkpt lat="45.01066" lon="2.41212">
        <ele>733.11</ele>
        <time>2026-08-21T11:23:59.823Z</time>
      </trkpt>
      <trkpt lat="45.01066" lon="2.41213">
        <ele>731.46</ele>
        <time>2026-08-21T11:24:00.907Z</time>
      </trkpt>
      <trkpt lat="45.01065" lon="2.4121">
        <ele>731.46</ele>
        <time>2026-08-21T11:24:03.831Z</time>
      </trkpt>
      <trkpt lat="45.01064" lon="2.41208">
        <ele>731.46</ele>
        <time>2026-08-21T11:24:05.825Z</time>
      </trkpt>
      <trkpt lat="45.01062" lon="2.41207">
        <ele>731.46</ele>
        <time>2026-08-21T11:24:07.825Z</time>
      </trkpt>
      <trkpt lat="45.01062" lon="2.41205">
        <ele>731.46</ele>
        <time>2026-08-21T11:24:09.824Z</time>
      </trkpt>
      <trkpt lat="45.01061" lon="2.41203">
        <ele>731.46</ele>
        <time>2026-08-21T11:24:11.822Z</time>
      </trkpt>
      <trkpt lat="45.0106" lon="2.412">
        <ele>731.46</ele>
        <time>2026-08-21T11:24:39.093Z</time>
      </trkpt>
      <trkpt lat="45.01059" lon="2.41198">
        <ele>731.46</ele>
        <time>2026-08-21T11:24:40.107Z</time>
      </trkpt>
      <trkpt lat="45.01058" lon="2.41195">
        <ele>731.46</ele>
        <time>2026-08-21T11:24:41.082Z</time>
      </trkpt>
      <trkpt lat="45.01056" lon="2.41191">
        <ele>731.46</ele>
        <time>2026-08-21T11:24:41.707Z</time>
      </trkpt>
      <trkpt lat="45.01054" lon="2.41186">
        <ele>731.46</ele>
        <time>2026-08-21T11:24:43.085Z</time>
      </trkpt>
      <trkpt lat="45.01052" lon="2.41182">
        <ele>731.46</ele>
        <time>2026-08-21T11:24:44.084Z</time>
      </trkpt>
      <trkpt lat="45.01049" lon="2.41179">
        <ele>731.46</ele>
        <time>2026-08-21T11:24:45.083Z</time>
      </trkpt>
      <trkpt lat="45.01046" lon="2.41177">
        <ele>731.46</ele>
        <time>2026-08-21T11:24:46.083Z</time>
      </trkpt>
      <trkpt lat="45.01043" lon="2.41179">
        <ele>731.46</ele>
        <time>2026-08-21T11:24:47.078Z</time>
      </trkpt>
      <trkpt lat="45.01041" lon="2.41182">
        <ele>731.46</ele>
        <time>2026-08-21T11:24:48.077Z</time>
      </trkpt>
      <trkpt lat="45.0104" lon="2.41185">
        <ele>731.46</ele>
        <time>2026-08-21T11:24:48.781Z</time>
      </trkpt>
      <trkpt lat="45.01039" lon="2.41189">
        <ele>731.46</ele>
        <time>2026-08-21T11:24:49.127Z</time>
      </trkpt>
      <trkpt lat="45.01038" lon="2.41194">
        <ele>731.46</ele>
        <time>2026-08-21T11:24:51.065Z</time>
      </trkpt>
      <trkpt lat="45.01038" lon="2.41199">
        <ele>731.46</ele>
        <time>2026-08-21T11:24:51.769Z</time>
      </trkpt>
      <trkpt lat="45.01038" lon="2.41202">
        <ele>731.46</ele>
        <time>2026-08-21T11:24:53.064Z</time>
      </trkpt>
      <trkpt lat="45.01037" lon="2.41211">
        <ele>731.46</ele>
        <time>2026-08-21T11:24:55.032Z</time>
      </trkpt>
      <trkpt lat="45.01037" lon="2.41215">
        <ele>731.46</ele>
        <time>2026-08-21T11:24:56.057Z</time>
      </trkpt>
      <trkpt lat="45.01037" lon="2.4122">
        <ele>731.46</ele>
        <time>2026-08-21T11:24:56.679Z</time>
      </trkpt>
      <trkpt lat="45.01037" lon="2.41224">
        <ele>731.46</ele>
        <time>2026-08-21T11:24:58.055Z</time>
      </trkpt>
      <trkpt lat="45.01037" lon="2.41228">
        <ele>731.46</ele>
        <time>2026-08-21T11:24:59.054Z</time>
      </trkpt>
      <trkpt lat="45.01037" lon="2.41234">
        <ele>731.46</ele>
        <time>2026-08-21T11:25:00.104Z</time>
      </trkpt>
      <trkpt lat="45.01038" lon="2.41238">
        <ele>731.46</ele>
        <time>2026-08-21T11:25:01.046Z</time>
      </trkpt>
      <trkpt lat="45.01039" lon="2.41243">
        <ele>731.46</ele>
        <time>2026-08-21T11:25:02.043Z</time>
      </trkpt>
      <trkpt lat="45.0104" lon="2.41248">
        <ele>731.46</ele>
        <time>2026-08-21T11:25:03.040Z</time>
      </trkpt>
      <trkpt lat="45.01041" lon="2.41253">
        <ele>731.46</ele>
        <time>2026-08-21T11:25:04.041Z</time>
      </trkpt>
      <trkpt lat="45.01041" lon="2.41257">
        <ele>731.46</ele>
        <time>2026-08-21T11:25:05.035Z</time>
      </trkpt>
      <trkpt lat="45.01042" lon="2.41262">
        <ele>731.46</ele>
        <time>2026-08-21T11:25:06.033Z</time>
      </trkpt>
      <trkpt lat="45.01044" lon="2.41267">
        <ele>731.46</ele>
        <time>2026-08-21T11:25:07.129Z</time>
      </trkpt>
      <trkpt lat="45.01045" lon="2.41272">
        <ele>731.46</ele>
        <time>2026-08-21T11:25:07.632Z</time>
      </trkpt>
      <trkpt lat="45.01046" lon="2.41277">
        <ele>713.19</ele>
        <time>2026-08-21T11:25:09.129Z</time>
      </trkpt>
      <trkpt lat="45.01047" lon="2.41282">
        <ele>713.1</ele>
        <time>2026-08-21T11:25:10.113Z</time>
      </trkpt>
      <trkpt lat="45.01048" lon="2.41287">
        <ele>713.03</ele>
        <time>2026-08-21T11:25:10.905Z</time>
      </trkpt>
      <trkpt lat="45.01049" lon="2.41291">
        <ele>712.97</ele>
        <time>2026-08-21T11:25:11.862Z</time>
      </trkpt>
      <trkpt lat="45.01051" lon="2.41296">
        <ele>712.91</ele>
        <time>2026-08-21T11:25:13.104Z</time>
      </trkpt>
      <trkpt lat="45.01052" lon="2.41301">
        <ele>712.87</ele>
        <time>2026-08-21T11:25:14.103Z</time>
      </trkpt>
      <trkpt lat="45.01054" lon="2.41305">
        <ele>712.81</ele>
        <time>2026-08-21T11:25:14.145Z</time>
      </trkpt>
      <trkpt lat="45.01055" lon="2.4131">
        <ele>712.77</ele>
        <time>2026-08-21T11:25:16.143Z</time>
      </trkpt>
      <trkpt lat="45.01056" lon="2.41314">
        <ele>712.72</ele>
        <time>2026-08-21T11:25:16.658Z</time>
      </trkpt>
      <trkpt lat="45.01057" lon="2.41318">
        <ele>712.68</ele>
        <time>2026-08-21T11:25:18.091Z</time>
      </trkpt>
      <trkpt lat="45.01058" lon="2.41323">
        <ele>712.65</ele>
        <time>2026-08-21T11:25:19.088Z</time>
      </trkpt>
      <trkpt lat="45.01059" lon="2.41328">
        <ele>712.57</ele>
        <time>2026-08-21T11:25:20.114Z</time>
      </trkpt>
      <trkpt lat="45.01061" lon="2.41333">
        <ele>712.48</ele>
        <time>2026-08-21T11:25:21.087Z</time>
      </trkpt>
      <trkpt lat="45.01062" lon="2.41338">
        <ele>712.47</ele>
        <time>2026-08-21T11:25:22.076Z</time>
      </trkpt>
      <trkpt lat="45.01064" lon="2.41343">
        <ele>712.47</ele>
        <time>2026-08-21T11:25:23.075Z</time>
      </trkpt>
      <trkpt lat="45.01065" lon="2.41348">
        <ele>712.48</ele>
        <time>2026-08-21T11:25:24.072Z</time>
      </trkpt>
      <trkpt lat="45.01066" lon="2.41353">
        <ele>712.48</ele>
        <time>2026-08-21T11:25:25.070Z</time>
      </trkpt>
      <trkpt lat="45.01067" lon="2.41358">
        <ele>712.47</ele>
        <time>2026-08-21T11:25:26.151Z</time>
      </trkpt>
      <trkpt lat="45.01068" lon="2.41363">
        <ele>712.46</ele>
        <time>2026-08-21T11:25:27.066Z</time>
      </trkpt>
      <trkpt lat="45.01069" lon="2.41367">
        <ele>712.5</ele>
        <time>2026-08-21T11:25:28.062Z</time>
      </trkpt>
      <trkpt lat="45.0107" lon="2.41372">
        <ele>712.52</ele>
        <time>2026-08-21T11:25:28.716Z</time>
      </trkpt>
      <trkpt lat="45.01072" lon="2.41377">
        <ele>712.54</ele>
        <time>2026-08-21T11:25:30.057Z</time>
      </trkpt>
      <trkpt lat="45.01073" lon="2.41381">
        <ele>712.54</ele>
        <time>2026-08-21T11:25:31.154Z</time>
      </trkpt>
      <trkpt lat="45.01075" lon="2.41385">
        <ele>712.54</ele>
        <time>2026-08-21T11:25:31.935Z</time>
      </trkpt>
      <trkpt lat="45.01077" lon="2.41389">
        <ele>712.57</ele>
        <time>2026-08-21T11:25:33.149Z</time>
      </trkpt>
      <trkpt lat="45.01079" lon="2.41393">
        <ele>712.6</ele>
        <time>2026-08-21T11:25:33.694Z</time>
      </trkpt>
      <trkpt lat="45.0108" lon="2.41398">
        <ele>712.64</ele>
        <time>2026-08-21T11:25:34.777Z</time>
      </trkpt>
      <trkpt lat="45.01082" lon="2.41403">
        <ele>712.63</ele>
        <time>2026-08-21T11:25:36.144Z</time>
      </trkpt>
      <trkpt lat="45.01084" lon="2.41409">
        <ele>712.65</ele>
        <time>2026-08-21T11:25:37.142Z</time>
      </trkpt>
      <trkpt lat="45.01085" lon="2.41416">
        <ele>712.65</ele>
        <time>2026-08-21T11:25:38.144Z</time>
      </trkpt>
      <trkpt lat="45.01086" lon="2.41424">
        <ele>712.62</ele>
        <time>2026-08-21T11:25:39.141Z</time>
      </trkpt>
      <trkpt lat="45.01087" lon="2.41433">
        <ele>712.58</ele>
        <time>2026-08-21T11:25:40.138Z</time>
      </trkpt>
      <trkpt lat="45.01089" lon="2.41443">
        <ele>712.54</ele>
        <time>2026-08-21T11:25:41.136Z</time>
      </trkpt>
      <trkpt lat="45.01091" lon="2.41453">
        <ele>712.41</ele>
        <time>2026-08-21T11:25:42.137Z</time>
      </trkpt>
      <trkpt lat="45.01093" lon="2.41464">
        <ele>712.29</ele>
        <time>2026-08-21T11:25:43.135Z</time>
      </trkpt>
      <trkpt lat="45.01095" lon="2.41476">
        <ele>712.08</ele>
        <time>2026-08-21T11:25:44.136Z</time>
      </trkpt>
      <trkpt lat="45.01097" lon="2.41487">
        <ele>711.91</ele>
        <time>2026-08-21T11:25:45.137Z</time>
      </trkpt>
      <trkpt lat="45.01101" lon="2.415">
        <ele>711.7</ele>
        <time>2026-08-21T11:25:46.137Z</time>
      </trkpt>
      <trkpt lat="45.01105" lon="2.41512">
        <ele>711.4</ele>
        <time>2026-08-21T11:25:47.140Z</time>
      </trkpt>
      <trkpt lat="45.0111" lon="2.41524">
        <ele>711.11</ele>
        <time>2026-08-21T11:25:48.138Z</time>
      </trkpt>
      <trkpt lat="45.01116" lon="2.41535">
        <ele>710.8</ele>
        <time>2026-08-21T11:25:49.138Z</time>
      </trkpt>
      <trkpt lat="45.01122" lon="2.41545">
        <ele>710.48</ele>
        <time>2026-08-21T11:25:50.140Z</time>
      </trkpt>
      <trkpt lat="45.01128" lon="2.41558">
        <ele>710.14</ele>
        <time>2026-08-21T11:25:51.140Z</time>
      </trkpt>
      <trkpt lat="45.01133" lon="2.41569">
        <ele>709.75</ele>
        <time>2026-08-21T11:25:52.142Z</time>
      </trkpt>
      <trkpt lat="45.01136" lon="2.4158">
        <ele>709.22</ele>
        <time>2026-08-21T11:25:53.142Z</time>
      </trkpt>
      <trkpt lat="45.01138" lon="2.41598">
        <ele>708.73</ele>
        <time>2026-08-21T11:25:54.143Z</time>
      </trkpt>
      <trkpt lat="45.01138" lon="2.41604">
        <ele>708.34</ele>
        <time>2026-08-21T11:25:55.143Z</time>
      </trkpt>
      <trkpt lat="45.0114" lon="2.4162">
        <ele>707.88</ele>
        <time>2026-08-21T11:25:56.167Z</time>
      </trkpt>
      <trkpt lat="45.01141" lon="2.41643">
        <ele>707.48</ele>
        <time>2026-08-21T11:25:57.144Z</time>
      </trkpt>
      <trkpt lat="45.01142" lon="2.41656">
        <ele>706.98</ele>
        <time>2026-08-21T11:25:58.176Z</time>
      </trkpt>
      <trkpt lat="45.01143" lon="2.4167">
        <ele>706.46</ele>
        <time>2026-08-21T11:25:59.147Z</time>
      </trkpt>
      <trkpt lat="45.01144" lon="2.41681">
        <ele>705.91</ele>
        <time>2026-08-21T11:25:59.918Z</time>
      </trkpt>
      <trkpt lat="45.01146" lon="2.41695">
        <ele>705.42</ele>
        <time>2026-08-21T11:26:00.912Z</time>
      </trkpt>
      <trkpt lat="45.01149" lon="2.41706">
        <ele>704.97</ele>
        <time>2026-08-21T11:26:01.928Z</time>
      </trkpt>
      <trkpt lat="45.01151" lon="2.41717">
        <ele>704.45</ele>
        <time>2026-08-21T11:26:02.680Z</time>
      </trkpt>
      <trkpt lat="45.01155" lon="2.41728">
        <ele>703.93</ele>
        <time>2026-08-21T11:26:03.817Z</time>
      </trkpt>
      <trkpt lat="45.01158" lon="2.41737">
        <ele>703.47</ele>
        <time>2026-08-21T11:26:05.148Z</time>
      </trkpt>
      <trkpt lat="45.01162" lon="2.41746">
        <ele>703.08</ele>
        <time>2026-08-21T11:26:06.148Z</time>
      </trkpt>
      <trkpt lat="45.01167" lon="2.41755">
        <ele>702.62</ele>
        <time>2026-08-21T11:26:07.147Z</time>
      </trkpt>
      <trkpt lat="45.01172" lon="2.41764">
        <ele>702.22</ele>
        <time>2026-08-21T11:26:08.148Z</time>
      </trkpt>
      <trkpt lat="45.01175" lon="2.41774">
        <ele>701.88</ele>
        <time>2026-08-21T11:26:09.149Z</time>
      </trkpt>
      <trkpt lat="45.01176" lon="2.41784">
        <ele>701.55</ele>
        <time>2026-08-21T11:26:10.150Z</time>
      </trkpt>
      <trkpt lat="45.01176" lon="2.41794">
        <ele>701.23</ele>
        <time>2026-08-21T11:26:11.152Z</time>
      </trkpt>
      <trkpt lat="45.01175" lon="2.41805">
        <ele>700.82</ele>
        <time>2026-08-21T11:26:12.153Z</time>
      </trkpt>
      <trkpt lat="45.01172" lon="2.41815">
        <ele>700.44</ele>
        <time>2026-08-21T11:26:13.153Z</time>
      </trkpt>
      <trkpt lat="45.01168" lon="2.41825">
        <ele>700.05</ele>
        <time>2026-08-21T11:26:14.153Z</time>
      </trkpt>
      <trkpt lat="45.01163" lon="2.41835">
        <ele>699.61</ele>
        <time>2026-08-21T11:26:15.156Z</time>
      </trkpt>
      <trkpt lat="45.01159" lon="2.41845">
        <ele>699.14</ele>
        <time>2026-08-21T11:26:16.155Z</time>
      </trkpt>
      <trkpt lat="45.01153" lon="2.41854">
        <ele>698.75</ele>
        <time>2026-08-21T11:26:17.157Z</time>
      </trkpt>
      <trkpt lat="45.01149" lon="2.41863">
        <ele>698.38</ele>
        <time>2026-08-21T11:26:18.158Z</time>
      </trkpt>
      <trkpt lat="45.01145" lon="2.41873">
        <ele>697.98</ele>
        <time>2026-08-21T11:26:19.160Z</time>
      </trkpt>
      <trkpt lat="45.01141" lon="2.41883">
        <ele>697.56</ele>
        <time>2026-08-21T11:26:20.161Z</time>
      </trkpt>
      <trkpt lat="45.01139" lon="2.41893">
        <ele>697.23</ele>
        <time>2026-08-21T11:26:20.774Z</time>
      </trkpt>
      <trkpt lat="45.01136" lon="2.41903">
        <ele>696.85</ele>
        <time>2026-08-21T11:26:22.164Z</time>
      </trkpt>
      <trkpt lat="45.01135" lon="2.41911">
        <ele>696.51</ele>
        <time>2026-08-21T11:26:23.167Z</time>
      </trkpt>
      <trkpt lat="45.01133" lon="2.41923">
        <ele>696.16</ele>
        <time>2026-08-21T11:26:24.168Z</time>
      </trkpt>
      <trkpt lat="45.01131" lon="2.41932">
        <ele>695.88</ele>
        <time>2026-08-21T11:26:25.171Z</time>
      </trkpt>
      <trkpt lat="45.01131" lon="2.41941">
        <ele>695.54</ele>
        <time>2026-08-21T11:26:26.172Z</time>
      </trkpt>
      <trkpt lat="45.0113" lon="2.4195">
        <ele>695.26</ele>
        <time>2026-08-21T11:26:27.173Z</time>
      </trkpt>
      <trkpt lat="45.0113" lon="2.41958">
        <ele>694.97</ele>
        <time>2026-08-21T11:26:28.174Z</time>
      </trkpt>
      <trkpt lat="45.01131" lon="2.41966">
        <ele>694.69</ele>
        <time>2026-08-21T11:26:29.176Z</time>
      </trkpt>
      <trkpt lat="45.01131" lon="2.41973">
        <ele>694.45</ele>
        <time>2026-08-21T11:26:29.769Z</time>
      </trkpt>
      <trkpt lat="45.01131" lon="2.4198">
        <ele>694.26</ele>
        <time>2026-08-21T11:26:31.179Z</time>
      </trkpt>
      <trkpt lat="45.01132" lon="2.41986">
        <ele>694.11</ele>
        <time>2026-08-21T11:26:32.116Z</time>
      </trkpt>
      <trkpt lat="45.01133" lon="2.41993">
        <ele>693.93</ele>
        <time>2026-08-21T11:26:33.183Z</time>
      </trkpt>
      <trkpt lat="45.01134" lon="2.42001">
        <ele>693.78</ele>
        <time>2026-08-21T11:26:33.790Z</time>
      </trkpt>
      <trkpt lat="45.01134" lon="2.42009">
        <ele>693.55</ele>
        <time>2026-08-21T11:26:35.187Z</time>
      </trkpt>
      <trkpt lat="45.01134" lon="2.42017">
        <ele>693.4</ele>
        <time>2026-08-21T11:26:35.773Z</time>
      </trkpt>
      <trkpt lat="45.01135" lon="2.42025">
        <ele>693.29</ele>
        <time>2026-08-21T11:26:36.785Z</time>
      </trkpt>
      <trkpt lat="45.01135" lon="2.42033">
        <ele>693.25</ele>
        <time>2026-08-21T11:26:38.028Z</time>
      </trkpt>
      <trkpt lat="45.01135" lon="2.42041">
        <ele>693.19</ele>
        <time>2026-08-21T11:26:38.769Z</time>
      </trkpt>
      <trkpt lat="45.01135" lon="2.42049">
        <ele>693.1</ele>
        <time>2026-08-21T11:26:39.805Z</time>
      </trkpt>
      <trkpt lat="45.01135" lon="2.42057">
        <ele>693.06</ele>
        <time>2026-08-21T11:26:40.997Z</time>
      </trkpt>
      <trkpt lat="45.01136" lon="2.42065">
        <ele>693.05</ele>
        <time>2026-08-21T11:26:42.200Z</time>
      </trkpt>
      <trkpt lat="45.01137" lon="2.42072">
        <ele>693.01</ele>
        <time>2026-08-21T11:26:42.847Z</time>
      </trkpt>
      <trkpt lat="45.01138" lon="2.42079">
        <ele>693.01</ele>
        <time>2026-08-21T11:26:43.989Z</time>
      </trkpt>
      <trkpt lat="45.0114" lon="2.42087">
        <ele>693.01</ele>
        <time>2026-08-21T11:26:44.823Z</time>
      </trkpt>
      <trkpt lat="45.01142" lon="2.42094">
        <ele>693.02</ele>
        <time>2026-08-21T11:26:45.798Z</time>
      </trkpt>
      <trkpt lat="45.01144" lon="2.421">
        <ele>692.99</ele>
        <time>2026-08-21T11:26:46.831Z</time>
      </trkpt>
      <trkpt lat="45.01146" lon="2.42107">
        <ele>693.03</ele>
        <time>2026-08-21T11:26:47.771Z</time>
      </trkpt>
      <trkpt lat="45.01149" lon="2.42113">
        <ele>693.09</ele>
        <time>2026-08-21T11:26:48.801Z</time>
      </trkpt>
      <trkpt lat="45.01151" lon="2.4212">
        <ele>693.1</ele>
        <time>2026-08-21T11:26:49.775Z</time>
      </trkpt>
      <trkpt lat="45.01152" lon="2.42127">
        <ele>693.11</ele>
        <time>2026-08-21T11:26:50.799Z</time>
      </trkpt>
      <trkpt lat="45.01153" lon="2.42134">
        <ele>693.16</ele>
        <time>2026-08-21T11:26:51.760Z</time>
      </trkpt>
      <trkpt lat="45.01154" lon="2.42141">
        <ele>693.21</ele>
        <time>2026-08-21T11:26:52.821Z</time>
      </trkpt>
      <trkpt lat="45.01154" lon="2.42148">
        <ele>693.25</ele>
        <time>2026-08-21T11:26:53.772Z</time>
      </trkpt>
      <trkpt lat="45.01155" lon="2.42155">
        <ele>693.31</ele>
        <time>2026-08-21T11:26:54.794Z</time>
      </trkpt>
      <trkpt lat="45.01155" lon="2.42162">
        <ele>693.33</ele>
        <time>2026-08-21T11:26:55.789Z</time>
      </trkpt>
      <trkpt lat="45.01156" lon="2.42169">
        <ele>693.31</ele>
        <time>2026-08-21T11:26:56.805Z</time>
      </trkpt>
      <trkpt lat="45.01156" lon="2.42176">
        <ele>693.34</ele>
        <time>2026-08-21T11:26:57.758Z</time>
      </trkpt>
      <trkpt lat="45.01156" lon="2.42183">
        <ele>693.38</ele>
        <time>2026-08-21T11:26:58.777Z</time>
      </trkpt>
      <trkpt lat="45.01156" lon="2.4219">
        <ele>693.41</ele>
        <time>2026-08-21T11:26:59.801Z</time>
      </trkpt>
      <trkpt lat="45.01154" lon="2.42198">
        <ele>693.47</ele>
        <time>2026-08-21T11:27:00.787Z</time>
      </trkpt>
      <trkpt lat="45.01153" lon="2.42206">
        <ele>693.5</ele>
        <time>2026-08-21T11:27:01.797Z</time>
      </trkpt>
      <trkpt lat="45.01151" lon="2.42215">
        <ele>693.51</ele>
        <time>2026-08-21T11:27:02.803Z</time>
      </trkpt>
      <trkpt lat="45.01151" lon="2.42223">
        <ele>693.5</ele>
        <time>2026-08-21T11:27:03.789Z</time>
      </trkpt>
      <trkpt lat="45.0115" lon="2.4223">
        <ele>693.51</ele>
        <time>2026-08-21T11:27:04.782Z</time>
      </trkpt>
      <trkpt lat="45.01149" lon="2.42237">
        <ele>693.54</ele>
        <time>2026-08-21T11:27:05.797Z</time>
      </trkpt>
      <trkpt lat="45.01148" lon="2.42245">
        <ele>693.55</ele>
        <time>2026-08-21T11:27:06.814Z</time>
      </trkpt>
      <trkpt lat="45.01147" lon="2.42252">
        <ele>693.59</ele>
        <time>2026-08-21T11:27:07.814Z</time>
      </trkpt>
      <trkpt lat="45.01146" lon="2.4226">
        <ele>693.6</ele>
        <time>2026-08-21T11:27:09.244Z</time>
      </trkpt>
      <trkpt lat="45.01146" lon="2.42267">
        <ele>693.6</ele>
        <time>2026-08-21T11:27:09.793Z</time>
      </trkpt>
      <trkpt lat="45.01146" lon="2.42274">
        <ele>693.6</ele>
        <time>2026-08-21T11:27:10.778Z</time>
      </trkpt>
      <trkpt lat="45.01146" lon="2.42281">
        <ele>693.61</ele>
        <time>2026-08-21T11:27:11.796Z</time>
      </trkpt>
      <trkpt lat="45.01145" lon="2.42289">
        <ele>693.61</ele>
        <time>2026-08-21T11:27:12.791Z</time>
      </trkpt>
      <trkpt lat="45.01145" lon="2.42296">
        <ele>693.6</ele>
        <time>2026-08-21T11:27:13.806Z</time>
      </trkpt>
      <trkpt lat="45.01144" lon="2.42303">
        <ele>693.57</ele>
        <time>2026-08-21T11:27:15.154Z</time>
      </trkpt>
      <trkpt lat="45.01141" lon="2.4231">
        <ele>693.56</ele>
        <time>2026-08-21T11:27:16.156Z</time>
      </trkpt>
      <trkpt lat="45.01137" lon="2.42316">
        <ele>693.53</ele>
        <time>2026-08-21T11:27:17.158Z</time>
      </trkpt>
      <trkpt lat="45.01132" lon="2.4232">
        <ele>693.52</ele>
        <time>2026-08-21T11:27:18.163Z</time>
      </trkpt>
      <trkpt lat="45.01127" lon="2.42322">
        <ele>693.51</ele>
        <time>2026-08-21T11:27:19.162Z</time>
      </trkpt>
      <trkpt lat="45.01121" lon="2.42321">
        <ele>693.45</ele>
        <time>2026-08-21T11:27:20.165Z</time>
      </trkpt>
      <trkpt lat="45.01115" lon="2.4232">
        <ele>693.39</ele>
        <time>2026-08-21T11:27:21.164Z</time>
      </trkpt>
      <trkpt lat="45.01109" lon="2.42319">
        <ele>693.32</ele>
        <time>2026-08-21T11:27:22.167Z</time>
      </trkpt>
      <trkpt lat="45.01104" lon="2.42317">
        <ele>693.26</ele>
        <time>2026-08-21T11:27:23.168Z</time>
      </trkpt>
      <trkpt lat="45.01099" lon="2.42316">
        <ele>693.2</ele>
        <time>2026-08-21T11:27:24.171Z</time>
      </trkpt>
      <trkpt lat="45.01093" lon="2.42316">
        <ele>693.16</ele>
        <time>2026-08-21T11:27:25.170Z</time>
      </trkpt>
      <trkpt lat="45.01088" lon="2.42316">
        <ele>693.09</ele>
        <time>2026-08-21T11:27:26.170Z</time>
      </trkpt>
      <trkpt lat="45.01083" lon="2.42318">
        <ele>693.04</ele>
        <time>2026-08-21T11:27:27.174Z</time>
      </trkpt>
      <trkpt lat="45.01077" lon="2.42323">
        <ele>692.99</ele>
        <time>2026-08-21T11:27:28.175Z</time>
      </trkpt>
      <trkpt lat="45.01074" lon="2.42329">
        <ele>692.93</ele>
        <time>2026-08-21T11:27:29.180Z</time>
      </trkpt>
      <trkpt lat="45.01071" lon="2.42336">
        <ele>692.87</ele>
        <time>2026-08-21T11:27:30.177Z</time>
      </trkpt>
      <trkpt lat="45.01069" lon="2.42343">
        <ele>692.8</ele>
        <time>2026-08-21T11:27:31.178Z</time>
      </trkpt>
      <trkpt lat="45.01069" lon="2.42351">
        <ele>692.72</ele>
        <time>2026-08-21T11:27:32.179Z</time>
      </trkpt>
      <trkpt lat="45.01067" lon="2.42361">
        <ele>692.63</ele>
        <time>2026-08-21T11:27:33.185Z</time>
      </trkpt>
      <trkpt lat="45.01064" lon="2.42369">
        <ele>692.51</ele>
        <time>2026-08-21T11:27:34.182Z</time>
      </trkpt>
      <trkpt lat="45.0106" lon="2.42377">
        <ele>692.37</ele>
        <time>2026-08-21T11:27:34.784Z</time>
      </trkpt>
      <trkpt lat="45.01055" lon="2.42383">
        <ele>692.21</ele>
        <time>2026-08-21T11:27:36.186Z</time>
      </trkpt>
      <trkpt lat="45.01048" lon="2.42387">
        <ele>692.02</ele>
        <time>2026-08-21T11:27:36.807Z</time>
      </trkpt>
      <trkpt lat="45.0104" lon="2.4239">
        <ele>691.9</ele>
        <time>2026-08-21T11:27:38.191Z</time>
      </trkpt>
      <trkpt lat="45.01032" lon="2.4239">
        <ele>691.72</ele>
        <time>2026-08-21T11:27:38.801Z</time>
      </trkpt>
      <trkpt lat="45.01025" lon="2.42391">
        <ele>691.52</ele>
        <time>2026-08-21T11:27:40.195Z</time>
      </trkpt>
      <trkpt lat="45.01019" lon="2.42392">
        <ele>691.29</ele>
        <time>2026-08-21T11:27:40.780Z</time>
      </trkpt>
      <trkpt lat="45.01011" lon="2.42394">
        <ele>691.11</ele>
        <time>2026-08-21T11:27:42.198Z</time>
      </trkpt>
      <trkpt lat="45.01005" lon="2.42395">
        <ele>690.97</ele>
        <time>2026-08-21T11:27:43.265Z</time>
      </trkpt>
      <trkpt lat="45.00998" lon="2.42397">
        <ele>690.81</ele>
        <time>2026-08-21T11:27:44.201Z</time>
      </trkpt>
      <trkpt lat="45.00993" lon="2.42399">
        <ele>690.71</ele>
        <time>2026-08-21T11:27:44.798Z</time>
      </trkpt>
      <trkpt lat="45.00987" lon="2.42402">
        <ele>690.51</ele>
        <time>2026-08-21T11:27:45.794Z</time>
      </trkpt>
      <trkpt lat="45.00982" lon="2.42405">
        <ele>690.42</ele>
        <time>2026-08-21T11:27:46.811Z</time>
      </trkpt>
      <trkpt lat="45.00975" lon="2.42408">
        <ele>690.28</ele>
        <time>2026-08-21T11:27:47.797Z</time>
      </trkpt>
      <trkpt lat="45.00971" lon="2.42412">
        <ele>690.17</ele>
        <time>2026-08-21T11:27:48.799Z</time>
      </trkpt>
      <trkpt lat="45.00965" lon="2.42416">
        <ele>690.07</ele>
        <time>2026-08-21T11:27:49.784Z</time>
      </trkpt>
      <trkpt lat="45.0096" lon="2.4242">
        <ele>689.97</ele>
        <time>2026-08-21T11:27:50.796Z</time>
      </trkpt>
      <trkpt lat="45.00955" lon="2.42424">
        <ele>689.83</ele>
        <time>2026-08-21T11:27:52.273Z</time>
      </trkpt>
      <trkpt lat="45.0095" lon="2.42426">
        <ele>689.7</ele>
        <time>2026-08-21T11:27:52.823Z</time>
      </trkpt>
      <trkpt lat="45.00944" lon="2.42427">
        <ele>689.64</ele>
        <time>2026-08-21T11:27:53.776Z</time>
      </trkpt>
      <trkpt lat="45.00939" lon="2.42427">
        <ele>689.55</ele>
        <time>2026-08-21T11:27:54.805Z</time>
      </trkpt>
      <trkpt lat="45.00934" lon="2.42426">
        <ele>689.48</ele>
        <time>2026-08-21T11:27:55.815Z</time>
      </trkpt>
      <trkpt lat="45.00929" lon="2.42425">
        <ele>689.4</ele>
        <time>2026-08-21T11:27:57.280Z</time>
      </trkpt>
      <trkpt lat="45.00923" lon="2.42426">
        <ele>689.37</ele>
        <time>2026-08-21T11:27:57.834Z</time>
      </trkpt>
      <trkpt lat="45.00917" lon="2.42427">
        <ele>689.33</ele>
        <time>2026-08-21T11:27:58.794Z</time>
      </trkpt>
      <trkpt lat="45.00911" lon="2.42428">
        <ele>689.33</ele>
        <time>2026-08-21T11:28:00.290Z</time>
      </trkpt>
      <trkpt lat="45.00906" lon="2.42431">
        <ele>689.27</ele>
        <time>2026-08-21T11:28:01.246Z</time>
      </trkpt>
      <trkpt lat="45.00901" lon="2.42435">
        <ele>689.25</ele>
        <time>2026-08-21T11:28:02.291Z</time>
      </trkpt>
      <trkpt lat="45.00897" lon="2.42439">
        <ele>689.23</ele>
        <time>2026-08-21T11:28:03.249Z</time>
      </trkpt>
      <trkpt lat="45.00892" lon="2.42444">
        <ele>689.19</ele>
        <time>2026-08-21T11:28:04.050Z</time>
      </trkpt>
      <trkpt lat="45.00887" lon="2.42449">
        <ele>689.16</ele>
        <time>2026-08-21T11:28:05.256Z</time>
      </trkpt>
      <trkpt lat="45.00883" lon="2.42454">
        <ele>689.3</ele>
        <time>2026-08-21T11:28:06.284Z</time>
      </trkpt>
      <trkpt lat="45.00878" lon="2.42459">
        <ele>689.31</ele>
        <time>2026-08-21T11:28:07.260Z</time>
      </trkpt>
      <trkpt lat="45.00874" lon="2.42465">
        <ele>689.22</ele>
        <time>2026-08-21T11:28:08.047Z</time>
      </trkpt>
      <trkpt lat="45.0087" lon="2.4247">
        <ele>689.19</ele>
        <time>2026-08-21T11:28:09.264Z</time>
      </trkpt>
      <trkpt lat="45.00866" lon="2.42474">
        <ele>689.21</ele>
        <time>2026-08-21T11:28:10.266Z</time>
      </trkpt>
      <trkpt lat="45.00861" lon="2.4248">
        <ele>689.18</ele>
        <time>2026-08-21T11:28:11.269Z</time>
      </trkpt>
      <trkpt lat="45.00857" lon="2.42485">
        <ele>689.18</ele>
        <time>2026-08-21T11:28:12.272Z</time>
      </trkpt>
      <trkpt lat="45.00853" lon="2.4249">
        <ele>689.18</ele>
        <time>2026-08-21T11:28:12.343Z</time>
      </trkpt>
      <trkpt lat="45.00849" lon="2.42495">
        <ele>689.2</ele>
        <time>2026-08-21T11:28:14.277Z</time>
      </trkpt>
      <trkpt lat="45.00845" lon="2.425">
        <ele>689.19</ele>
        <time>2026-08-21T11:28:14.349Z</time>
      </trkpt>
      <trkpt lat="45.00841" lon="2.42504">
        <ele>689.15</ele>
        <time>2026-08-21T11:28:16.281Z</time>
      </trkpt>
      <trkpt lat="45.00836" lon="2.42508">
        <ele>689.15</ele>
        <time>2026-08-21T11:28:17.284Z</time>
      </trkpt>
      <trkpt lat="45.00832" lon="2.42512">
        <ele>689.16</ele>
        <time>2026-08-21T11:28:18.286Z</time>
      </trkpt>
      <trkpt lat="45.00827" lon="2.42517">
        <ele>689.12</ele>
        <time>2026-08-21T11:28:19.288Z</time>
      </trkpt>
      <trkpt lat="45.00823" lon="2.42522">
        <ele>689.15</ele>
        <time>2026-08-21T11:28:20.290Z</time>
      </trkpt>
      <trkpt lat="45.00819" lon="2.42527">
        <ele>689.16</ele>
        <time>2026-08-21T11:28:20.825Z</time>
      </trkpt>
      <trkpt lat="45.00815" lon="2.42533">
        <ele>689.18</ele>
        <time>2026-08-21T11:28:22.295Z</time>
      </trkpt>
      <trkpt lat="45.00811" lon="2.42538">
        <ele>689.18</ele>
        <time>2026-08-21T11:28:23.297Z</time>
      </trkpt>
      <trkpt lat="45.00808" lon="2.42543">
        <ele>689.18</ele>
        <time>2026-08-21T11:28:24.301Z</time>
      </trkpt>
      <trkpt lat="45.00803" lon="2.42548">
        <ele>689.18</ele>
        <time>2026-08-21T11:28:25.303Z</time>
      </trkpt>
      <trkpt lat="45.008" lon="2.42551">
        <ele>689.2</ele>
        <time>2026-08-21T11:28:25.900Z</time>
      </trkpt>
      <trkpt lat="45.00795" lon="2.42554">
        <ele>689.22</ele>
        <time>2026-08-21T11:28:26.353Z</time>
      </trkpt>
      <trkpt lat="45.0079" lon="2.42556">
        <ele>689.24</ele>
        <time>2026-08-21T11:28:27.921Z</time>
      </trkpt>
      <trkpt lat="45.00785" lon="2.42558">
        <ele>689.23</ele>
        <time>2026-08-21T11:28:28.930Z</time>
      </trkpt>
      <trkpt lat="45.00781" lon="2.42559">
        <ele>689.24</ele>
        <time>2026-08-21T11:28:30.308Z</time>
      </trkpt>
      <trkpt lat="45.00777" lon="2.42559">
        <ele>689.25</ele>
        <time>2026-08-21T11:28:30.908Z</time>
      </trkpt>
      <trkpt lat="45.00773" lon="2.4256">
        <ele>689.25</ele>
        <time>2026-08-21T11:28:31.897Z</time>
      </trkpt>
      <trkpt lat="45.00769" lon="2.42561">
        <ele>689.25</ele>
        <time>2026-08-21T11:28:32.921Z</time>
      </trkpt>
      <trkpt lat="45.00765" lon="2.42562">
        <ele>689.26</ele>
        <time>2026-08-21T11:28:34.328Z</time>
      </trkpt>
      <trkpt lat="45.0076" lon="2.42563">
        <ele>689.26</ele>
        <time>2026-08-21T11:28:35.331Z</time>
      </trkpt>
      <trkpt lat="45.00756" lon="2.42565">
        <ele>689.26</ele>
        <time>2026-08-21T11:28:36.333Z</time>
      </trkpt>
      <trkpt lat="45.00751" lon="2.42567">
        <ele>689.24</ele>
        <time>2026-08-21T11:28:37.336Z</time>
      </trkpt>
      <trkpt lat="45.00746" lon="2.42569">
        <ele>689.23</ele>
        <time>2026-08-21T11:28:38.338Z</time>
      </trkpt>
      <trkpt lat="45.00741" lon="2.42571">
        <ele>689.22</ele>
        <time>2026-08-21T11:28:39.340Z</time>
      </trkpt>
      <trkpt lat="45.00736" lon="2.42574">
        <ele>689.2</ele>
        <time>2026-08-21T11:28:40.242Z</time>
      </trkpt>
      <trkpt lat="45.00731" lon="2.42578">
        <ele>689.16</ele>
        <time>2026-08-21T11:28:41.347Z</time>
      </trkpt>
      <trkpt lat="45.00725" lon="2.42581">
        <ele>689.13</ele>
        <time>2026-08-21T11:28:42.348Z</time>
      </trkpt>
      <trkpt lat="45.0072" lon="2.42585">
        <ele>689.12</ele>
        <time>2026-08-21T11:28:43.251Z</time>
      </trkpt>
      <trkpt lat="45.00715" lon="2.42589">
        <ele>689.04</ele>
        <time>2026-08-21T11:28:44.253Z</time>
      </trkpt>
      <trkpt lat="45.00708" lon="2.42593">
        <ele>688.98</ele>
        <time>2026-08-21T11:28:45.255Z</time>
      </trkpt>
      <trkpt lat="45.00702" lon="2.42597">
        <ele>688.9</ele>
        <time>2026-08-21T11:28:46.258Z</time>
      </trkpt>
    </trkseg>
  </trk>
</gpx>